<?xml version='1.0' encoding='UTF-8'?><gpx version="1.1" creator="JPX - https://github.com/jenetics/jpx" xmlns="http://www.topografix.com/GPX/1/1"><trk><trkseg><trkpt lat="43.8429196" lon="11.2025829"><ele>86.0</ele><time>2026-04-04T06:50:00.269Z</time></trkpt><trkpt lat="43.8428312" lon="11.2025218"><ele>86.0</ele><time>2026-04-04T06:50:04.265Z</time></trkpt><trkpt lat="43.8427505" lon="11.202451"><ele>86.0</ele><time>2026-04-04T06:50:06.262Z</time></trkpt><trkpt lat="43.8426923" lon="11.2023897"><ele>86.0</ele><time>2026-04-04T06:50:08.265Z</time></trkpt><trkpt lat="43.8426135" lon="11.2023849"><ele>86.0</ele><time>2026-04-04T06:50:12.266Z</time></trkpt><trkpt lat="43.8425338" lon="11.2024848"><ele>85.5</ele><time>2026-04-04T06:50:14.264Z</time></trkpt><trkpt lat="43.8424838" lon="11.2025413"><ele>85.0</ele><time>2026-04-04T06:50:15.272Z</time></trkpt><trkpt lat="43.84243" lon="11.2025918"><ele>84.5</ele><time>2026-04-04T06:50:16.265Z</time></trkpt><trkpt lat="43.84233" lon="11.2026683"><ele>84.0</ele><time>2026-04-04T06:50:18.272Z</time></trkpt><trkpt lat="43.8422381" lon="11.2027263"><ele>83.5</ele><time>2026-04-04T06:50:20.265Z</time></trkpt><trkpt lat="43.842137" lon="11.2027294"><ele>83.0</ele><time>2026-04-04T06:50:22.263Z</time></trkpt><trkpt lat="43.8420267" lon="11.202668"><ele>83.0</ele><time>2026-04-04T06:50:24.264Z</time></trkpt><trkpt lat="43.8419257" lon="11.2026287"><ele>83.0</ele><time>2026-04-04T06:50:26.26Z</time></trkpt><trkpt lat="43.8418563" lon="11.2026236"><ele>83.0</ele><time>2026-04-04T06:50:28.259Z</time></trkpt><trkpt lat="43.8418247" lon="11.2027138"><ele>83.0</ele><time>2026-04-04T06:50:31.263Z</time></trkpt><trkpt lat="43.8418406" lon="11.2028187"><ele>83.0</ele><time>2026-04-04T06:50:33.27Z</time></trkpt><trkpt lat="43.8418483" lon="11.2029181"><ele>83.0</ele><time>2026-04-04T06:51:23.27Z</time></trkpt><trkpt lat="43.8418789" lon="11.2030089"><ele>83.0</ele><time>2026-04-04T06:51:26.274Z</time></trkpt><trkpt lat="43.841934" lon="11.2029581"><ele>83.0</ele><time>2026-04-04T06:51:29.269Z</time></trkpt><trkpt lat="43.841918" lon="11.2028434"><ele>83.0</ele><time>2026-04-04T06:51:31.271Z</time></trkpt><trkpt lat="43.8418782" lon="11.2027429"><ele>83.0</ele><time>2026-04-04T06:51:33.267Z</time></trkpt><trkpt lat="43.8418884" lon="11.2026519"><ele>83.0</ele><time>2026-04-04T06:51:38.265Z</time></trkpt><trkpt lat="43.8419575" lon="11.2026478"><ele>83.0</ele><time>2026-04-04T06:51:40.262Z</time></trkpt><trkpt lat="43.8420554" lon="11.2026832"><ele>83.0</ele><time>2026-04-04T06:51:42.26Z</time></trkpt><trkpt lat="43.8421236" lon="11.2027104"><ele>83.0</ele><time>2026-04-04T06:51:43.266Z</time></trkpt><trkpt lat="43.842188" lon="11.2027297"><ele>83.0</ele><time>2026-04-04T06:51:44.269Z</time></trkpt><trkpt lat="43.8423043" lon="11.2027133"><ele>83.0</ele><time>2026-04-04T06:51:46.284Z</time></trkpt><trkpt lat="43.8424154" lon="11.2026296"><ele>83.0</ele><time>2026-04-04T06:51:48.277Z</time></trkpt><trkpt lat="43.8425181" lon="11.2025414"><ele>83.0</ele><time>2026-04-04T06:51:50.267Z</time></trkpt><trkpt lat="43.842612" lon="11.2024642"><ele>83.0</ele><time>2026-04-04T06:51:52.262Z</time></trkpt><trkpt lat="43.8426806" lon="11.2024219"><ele>83.0</ele><time>2026-04-04T06:51:54.264Z</time></trkpt><trkpt lat="43.8426907" lon="11.2023343"><ele>83.0</ele><time>2026-04-04T06:53:44.265Z</time></trkpt><trkpt lat="43.8426141" lon="11.2024348"><ele>83.0</ele><time>2026-04-04T06:53:49.259Z</time></trkpt><trkpt lat="43.8425513" lon="11.2025063"><ele>83.0</ele><time>2026-04-04T06:53:50.273Z</time></trkpt><trkpt lat="43.8424802" lon="11.2025714"><ele>83.0</ele><time>2026-04-04T06:53:51.276Z</time></trkpt><trkpt lat="43.842409" lon="11.2026246"><ele>83.0</ele><time>2026-04-04T06:53:52.274Z</time></trkpt><trkpt lat="43.8423432" lon="11.20267"><ele>83.0</ele><time>2026-04-04T06:53:53.266Z</time></trkpt><trkpt lat="43.8422783" lon="11.2027047"><ele>83.0</ele><time>2026-04-04T06:53:54.266Z</time></trkpt><trkpt lat="43.8421584" lon="11.2027238"><ele>83.0</ele><time>2026-04-04T06:53:56.266Z</time></trkpt><trkpt lat="43.8420994" lon="11.2026925"><ele>83.0</ele><time>2026-04-04T06:53:57.268Z</time></trkpt><trkpt lat="43.8420405" lon="11.202655"><ele>83.0</ele><time>2026-04-04T06:53:58.263Z</time></trkpt><trkpt lat="43.8419279" lon="11.2026191"><ele>83.0</ele><time>2026-04-04T06:54:00.267Z</time></trkpt><trkpt lat="43.8418427" lon="11.2026234"><ele>83.0</ele><time>2026-04-04T06:54:02.261Z</time></trkpt><trkpt lat="43.8418015" lon="11.2026913"><ele>83.0</ele><time>2026-04-04T06:54:04.267Z</time></trkpt><trkpt lat="43.8418226" lon="11.2028372"><ele>83.0</ele><time>2026-04-04T06:54:06.265Z</time></trkpt><trkpt lat="43.841821" lon="11.2029275"><ele>83.0</ele><time>2026-04-04T06:54:07.26Z</time></trkpt><trkpt lat="43.8418024" lon="11.2030177"><ele>83.0</ele><time>2026-04-04T06:54:08.266Z</time></trkpt><trkpt lat="43.8417684" lon="11.2031031"><ele>83.0</ele><time>2026-04-04T06:54:09.26Z</time></trkpt><trkpt lat="43.84172" lon="11.2031898"><ele>83.0</ele><time>2026-04-04T06:54:10.26Z</time></trkpt><trkpt lat="43.8416642" lon="11.2032809"><ele>83.0</ele><time>2026-04-04T06:54:11.264Z</time></trkpt><trkpt lat="43.8416007" lon="11.2033814"><ele>83.0</ele><time>2026-04-04T06:54:12.269Z</time></trkpt><trkpt lat="43.8415344" lon="11.2034876"><ele>83.0</ele><time>2026-04-04T06:54:13.266Z</time></trkpt><trkpt lat="43.8414695" lon="11.2035969"><ele>83.0</ele><time>2026-04-04T06:54:14.265Z</time></trkpt><trkpt lat="43.8414042" lon="11.2037049"><ele>83.0</ele><time>2026-04-04T06:54:15.266Z</time></trkpt><trkpt lat="43.8413411" lon="11.2038095"><ele>83.0</ele><time>2026-04-04T06:54:16.267Z</time></trkpt><trkpt lat="43.8412849" lon="11.2039027"><ele>83.0</ele><time>2026-04-04T06:54:17.265Z</time></trkpt><trkpt lat="43.8412346" lon="11.2039838"><ele>83.0</ele><time>2026-04-04T06:54:18.266Z</time></trkpt><trkpt lat="43.8411864" lon="11.2040598"><ele>83.0</ele><time>2026-04-04T06:54:19.263Z</time></trkpt><trkpt lat="43.8411378" lon="11.2041359"><ele>83.5</ele><time>2026-04-04T06:54:20.265Z</time></trkpt><trkpt lat="43.8410906" lon="11.204213"><ele>84.0</ele><time>2026-04-04T06:54:21.272Z</time></trkpt><trkpt lat="43.8410515" lon="11.2042855"><ele>84.5</ele><time>2026-04-04T06:54:22.264Z</time></trkpt><trkpt lat="43.8409909" lon="11.2043781"><ele>85.0</ele><time>2026-04-04T06:54:24.26Z</time></trkpt><trkpt lat="43.8409175" lon="11.2044351"><ele>85.5</ele><time>2026-04-04T06:54:28.261Z</time></trkpt><trkpt lat="43.8408467" lon="11.2044122"><ele>86.0</ele><time>2026-04-04T06:54:30.257Z</time></trkpt><trkpt lat="43.8407798" lon="11.2043673"><ele>86.0</ele><time>2026-04-04T06:54:31.262Z</time></trkpt><trkpt lat="43.8407038" lon="11.2043286"><ele>86.0</ele><time>2026-04-04T06:54:32.265Z</time></trkpt><trkpt lat="43.8406205" lon="11.2042945"><ele>86.0</ele><time>2026-04-04T06:54:33.26Z</time></trkpt><trkpt lat="43.8405261" lon="11.2042654"><ele>86.0</ele><time>2026-04-04T06:54:34.263Z</time></trkpt><trkpt lat="43.8404226" lon="11.2042338"><ele>86.0</ele><time>2026-04-04T06:54:35.262Z</time></trkpt><trkpt lat="43.8403182" lon="11.204199"><ele>86.0</ele><time>2026-04-04T06:54:36.267Z</time></trkpt><trkpt lat="43.8402113" lon="11.2041586"><ele>86.0</ele><time>2026-04-04T06:54:37.266Z</time></trkpt><trkpt lat="43.8401057" lon="11.2041173"><ele>86.0</ele><time>2026-04-04T06:54:38.271Z</time></trkpt><trkpt lat="43.8400039" lon="11.2040813"><ele>86.0</ele><time>2026-04-04T06:54:39.267Z</time></trkpt><trkpt lat="43.8399158" lon="11.204047"><ele>86.0</ele><time>2026-04-04T06:54:40.272Z</time></trkpt><trkpt lat="43.8398366" lon="11.2040229"><ele>85.5</ele><time>2026-04-04T06:54:41.272Z</time></trkpt><trkpt lat="43.8397702" lon="11.2040028"><ele>85.0</ele><time>2026-04-04T06:54:42.268Z</time></trkpt><trkpt lat="43.8396646" lon="11.2039739"><ele>84.5</ele><time>2026-04-04T06:54:44.268Z</time></trkpt><trkpt lat="43.8395826" lon="11.2039561"><ele>84.0</ele><time>2026-04-04T06:54:46.267Z</time></trkpt><trkpt lat="43.8395173" lon="11.2040333"><ele>83.5</ele><time>2026-04-04T06:54:48.272Z</time></trkpt><trkpt lat="43.8394841" lon="11.2041177"><ele>83.0</ele><time>2026-04-04T06:54:49.266Z</time></trkpt><trkpt lat="43.8394432" lon="11.2042195"><ele>83.0</ele><time>2026-04-04T06:54:50.264Z</time></trkpt><trkpt lat="43.8393972" lon="11.2043311"><ele>83.0</ele><time>2026-04-04T06:54:51.258Z</time></trkpt><trkpt lat="43.8393411" lon="11.2044504"><ele>83.0</ele><time>2026-04-04T06:54:52.278Z</time></trkpt><trkpt lat="43.8392763" lon="11.2045755"><ele>83.0</ele><time>2026-04-04T06:54:53.265Z</time></trkpt><trkpt lat="43.8392092" lon="11.2046951"><ele>83.0</ele><time>2026-04-04T06:54:54.263Z</time></trkpt><trkpt lat="43.839146" lon="11.2047992"><ele>82.66666666666667</ele><time>2026-04-04T06:54:55.265Z</time></trkpt><trkpt lat="43.839092" lon="11.204884"><ele>82.33333333333334</ele><time>2026-04-04T06:54:56.277Z</time></trkpt><trkpt lat="43.8390487" lon="11.2049481"><ele>82.0</ele><time>2026-04-04T06:54:57.267Z</time></trkpt><trkpt lat="43.8389716" lon="11.2049309"><ele>81.66666666666667</ele><time>2026-04-04T06:55:00.272Z</time></trkpt><trkpt lat="43.8388896" lon="11.2048123"><ele>81.33333333333333</ele><time>2026-04-04T06:55:02.263Z</time></trkpt><trkpt lat="43.8388427" lon="11.2047442"><ele>81.0</ele><time>2026-04-04T06:55:03.265Z</time></trkpt><trkpt lat="43.8387895" lon="11.2046709"><ele>81.0</ele><time>2026-04-04T06:55:04.267Z</time></trkpt><trkpt lat="43.8387383" lon="11.2046108"><ele>81.0</ele><time>2026-04-04T06:55:05.264Z</time></trkpt><trkpt lat="43.8386494" lon="11.2045092"><ele>81.0</ele><time>2026-04-04T06:55:07.266Z</time></trkpt><trkpt lat="43.8385792" lon="11.2044432"><ele>81.0</ele><time>2026-04-04T06:55:09.264Z</time></trkpt><trkpt lat="43.8385097" lon="11.2044249"><ele>81.0</ele><time>2026-04-04T06:55:12.264Z</time></trkpt><trkpt lat="43.8384483" lon="11.2044829"><ele>81.0</ele><time>2026-04-04T06:55:14.267Z</time></trkpt><trkpt lat="43.8383725" lon="11.2046297"><ele>81.16666666666667</ele><time>2026-04-04T06:55:16.266Z</time></trkpt><trkpt lat="43.8383368" lon="11.2047133"><ele>81.33333333333333</ele><time>2026-04-04T06:55:17.266Z</time></trkpt><trkpt lat="43.8382986" lon="11.2047984"><ele>81.5</ele><time>2026-04-04T06:55:18.269Z</time></trkpt><trkpt lat="43.8382583" lon="11.2048874"><ele>81.66666666666666</ele><time>2026-04-04T06:55:19.266Z</time></trkpt><trkpt lat="43.8382121" lon="11.2049891"><ele>81.83333333333333</ele><time>2026-04-04T06:55:20.265Z</time></trkpt><trkpt lat="43.838159" lon="11.2051044"><ele>82.0</ele><time>2026-04-04T06:55:21.261Z</time></trkpt><trkpt lat="43.8381014" lon="11.2052198"><ele>82.0</ele><time>2026-04-04T06:55:22.266Z</time></trkpt><trkpt lat="43.8380475" lon="11.2053322"><ele>82.0</ele><time>2026-04-04T06:55:23.272Z</time></trkpt><trkpt lat="43.8379982" lon="11.2054328"><ele>82.0</ele><time>2026-04-04T06:55:24.266Z</time></trkpt><trkpt lat="43.8379545" lon="11.2055224"><ele>82.0</ele><time>2026-04-04T06:55:25.261Z</time></trkpt><trkpt lat="43.8379129" lon="11.2056122"><ele>82.0</ele><time>2026-04-04T06:55:26.262Z</time></trkpt><trkpt lat="43.8378728" lon="11.2057008"><ele>82.0</ele><time>2026-04-04T06:55:27.261Z</time></trkpt><trkpt lat="43.8378294" lon="11.2057914"><ele>81.83333333333333</ele><time>2026-04-04T06:55:28.267Z</time></trkpt><trkpt lat="43.8377831" lon="11.2058823"><ele>81.66666666666666</ele><time>2026-04-04T06:55:29.273Z</time></trkpt><trkpt lat="43.8377339" lon="11.2059732"><ele>81.5</ele><time>2026-04-04T06:55:30.276Z</time></trkpt><trkpt lat="43.8376804" lon="11.2060603"><ele>81.33333333333333</ele><time>2026-04-04T06:55:31.273Z</time></trkpt><trkpt lat="43.8376265" lon="11.2061506"><ele>81.16666666666667</ele><time>2026-04-04T06:55:32.274Z</time></trkpt><trkpt lat="43.8375728" lon="11.2062411"><ele>81.0</ele><time>2026-04-04T06:55:33.267Z</time></trkpt><trkpt lat="43.8375177" lon="11.2063296"><ele>80.83333333333333</ele><time>2026-04-04T06:55:34.265Z</time></trkpt><trkpt lat="43.8374614" lon="11.2064137"><ele>80.66666666666667</ele><time>2026-04-04T06:55:35.267Z</time></trkpt><trkpt lat="43.8374042" lon="11.2064897"><ele>80.5</ele><time>2026-04-04T06:55:36.27Z</time></trkpt><trkpt lat="43.8373406" lon="11.2065499"><ele>80.33333333333334</ele><time>2026-04-04T06:55:37.265Z</time></trkpt><trkpt lat="43.8372727" lon="11.2065985"><ele>80.16666666666667</ele><time>2026-04-04T06:55:38.271Z</time></trkpt><trkpt lat="43.8372026" lon="11.2066418"><ele>80.0</ele><time>2026-04-04T06:55:39.268Z</time></trkpt><trkpt lat="43.8371401" lon="11.2066847"><ele>80.0</ele><time>2026-04-04T06:55:40.264Z</time></trkpt><trkpt lat="43.8370409" lon="11.2068005"><ele>80.0</ele><time>2026-04-04T06:55:42.273Z</time></trkpt><trkpt lat="43.8369864" lon="11.2068775"><ele>80.0</ele><time>2026-04-04T06:55:43.271Z</time></trkpt><trkpt lat="43.8369288" lon="11.2069612"><ele>80.0</ele><time>2026-04-04T06:55:44.275Z</time></trkpt><trkpt lat="43.8368647" lon="11.2070558"><ele>80.0</ele><time>2026-04-04T06:55:45.273Z</time></trkpt><trkpt lat="43.8367925" lon="11.2071571"><ele>79.8</ele><time>2026-04-04T06:55:46.278Z</time></trkpt><trkpt lat="43.8367155" lon="11.2072619"><ele>79.6</ele><time>2026-04-04T06:55:47.276Z</time></trkpt><trkpt lat="43.8366316" lon="11.2073708"><ele>79.4</ele><time>2026-04-04T06:55:48.282Z</time></trkpt><trkpt lat="43.8365503" lon="11.2074859"><ele>79.2</ele><time>2026-04-04T06:55:49.278Z</time></trkpt><trkpt lat="43.8364789" lon="11.2075895"><ele>79.0</ele><time>2026-04-04T06:55:50.269Z</time></trkpt><trkpt lat="43.8364166" lon="11.2076854"><ele>79.0</ele><time>2026-04-04T06:55:51.269Z</time></trkpt><trkpt lat="43.8363522" lon="11.2077783"><ele>79.0</ele><time>2026-04-04T06:55:52.273Z</time></trkpt><trkpt lat="43.8362878" lon="11.2078634"><ele>79.0</ele><time>2026-04-04T06:55:53.272Z</time></trkpt><trkpt lat="43.8362196" lon="11.2079467"><ele>79.0</ele><time>2026-04-04T06:55:54.282Z</time></trkpt><trkpt lat="43.8361465" lon="11.2080161"><ele>79.0</ele><time>2026-04-04T06:55:55.269Z</time></trkpt><trkpt lat="43.83607" lon="11.2080693"><ele>79.0</ele><time>2026-04-04T06:55:56.27Z</time></trkpt><trkpt lat="43.8359856" lon="11.2080954"><ele>77.60000000000001</ele><time>2026-04-04T06:55:57.268Z</time></trkpt><trkpt lat="43.8359006" lon="11.208093"><ele>76.2</ele><time>2026-04-04T06:55:58.27Z</time></trkpt><trkpt lat="43.8358163" lon="11.2080615"><ele>74.80000000000001</ele><time>2026-04-04T06:55:59.27Z</time></trkpt><trkpt lat="43.8357338" lon="11.2079979"><ele>73.4</ele><time>2026-04-04T06:56:00.264Z</time></trkpt><trkpt lat="43.8356594" lon="11.2079142"><ele>72.0</ele><time>2026-04-04T06:56:01.265Z</time></trkpt><trkpt lat="43.8355815" lon="11.2078208"><ele>72.0</ele><time>2026-04-04T06:56:02.276Z</time></trkpt><trkpt lat="43.8355009" lon="11.2077241"><ele>72.0</ele><time>2026-04-04T06:56:03.273Z</time></trkpt><trkpt lat="43.835413" lon="11.2076233"><ele>72.0</ele><time>2026-04-04T06:56:04.277Z</time></trkpt><trkpt lat="43.835326" lon="11.2075258"><ele>72.0</ele><time>2026-04-04T06:56:05.266Z</time></trkpt><trkpt lat="43.8352469" lon="11.2074318"><ele>72.0</ele><time>2026-04-04T06:56:06.271Z</time></trkpt><trkpt lat="43.8351672" lon="11.2073489"><ele>71.4</ele><time>2026-04-04T06:56:07.275Z</time></trkpt><trkpt lat="43.8350899" lon="11.2072727"><ele>70.80000000000001</ele><time>2026-04-04T06:56:08.269Z</time></trkpt><trkpt lat="43.8350153" lon="11.207199"><ele>70.2</ele><time>2026-04-04T06:56:09.274Z</time></trkpt><trkpt lat="43.8349378" lon="11.2071241"><ele>69.60000000000001</ele><time>2026-04-04T06:56:10.273Z</time></trkpt><trkpt lat="43.8348592" lon="11.2070469"><ele>69.0</ele><time>2026-04-04T06:56:11.27Z</time></trkpt><trkpt lat="43.8347796" lon="11.2069707"><ele>69.0</ele><time>2026-04-04T06:56:12.275Z</time></trkpt><trkpt lat="43.8346994" lon="11.2068952"><ele>69.0</ele><time>2026-04-04T06:56:13.271Z</time></trkpt><trkpt lat="43.8346234" lon="11.2068213"><ele>69.0</ele><time>2026-04-04T06:56:14.276Z</time></trkpt><trkpt lat="43.834555" lon="11.2067545"><ele>69.0</ele><time>2026-04-04T06:56:15.267Z</time></trkpt><trkpt lat="43.834498" lon="11.2067006"><ele>69.0</ele><time>2026-04-04T06:56:16.269Z</time></trkpt><trkpt lat="43.8344018" lon="11.2066055"><ele>69.0</ele><time>2026-04-04T06:56:18.271Z</time></trkpt><trkpt lat="43.834334" lon="11.2065319"><ele>69.0</ele><time>2026-04-04T06:56:20.267Z</time></trkpt><trkpt lat="43.8342799" lon="11.2064811"><ele>69.0</ele><time>2026-04-04T06:56:22.272Z</time></trkpt><trkpt lat="43.8341931" lon="11.2064884"><ele>69.0</ele><time>2026-04-04T06:56:39.268Z</time></trkpt><trkpt lat="43.8341039" lon="11.2066467"><ele>69.0</ele><time>2026-04-04T06:56:41.268Z</time></trkpt><trkpt lat="43.8340404" lon="11.2067646"><ele>69.25</ele><time>2026-04-04T06:56:42.266Z</time></trkpt><trkpt lat="43.8339639" lon="11.2069008"><ele>69.5</ele><time>2026-04-04T06:56:43.267Z</time></trkpt><trkpt lat="43.8338912" lon="11.2070377"><ele>69.75</ele><time>2026-04-04T06:56:44.269Z</time></trkpt><trkpt lat="43.8338177" lon="11.2071747"><ele>70.0</ele><time>2026-04-04T06:56:45.27Z</time></trkpt><trkpt lat="43.8337487" lon="11.2073124"><ele>70.5</ele><time>2026-04-04T06:56:46.272Z</time></trkpt><trkpt lat="43.8336806" lon="11.2074475"><ele>71.0</ele><time>2026-04-04T06:56:47.272Z</time></trkpt><trkpt lat="43.8336146" lon="11.207578"><ele>71.5</ele><time>2026-04-04T06:56:48.273Z</time></trkpt><trkpt lat="43.8335506" lon="11.2077075"><ele>72.0</ele><time>2026-04-04T06:56:49.271Z</time></trkpt><trkpt lat="43.8334892" lon="11.207833"><ele>71.8</ele><time>2026-04-04T06:56:50.268Z</time></trkpt><trkpt lat="43.8334282" lon="11.2079533"><ele>71.6</ele><time>2026-04-04T06:56:51.272Z</time></trkpt><trkpt lat="43.8333737" lon="11.2080581"><ele>71.39999999999999</ele><time>2026-04-04T06:56:52.266Z</time></trkpt><trkpt lat="43.8333265" lon="11.2081439"><ele>71.2</ele><time>2026-04-04T06:56:53.265Z</time></trkpt><trkpt lat="43.8332888" lon="11.2082151"><ele>71.0</ele><time>2026-04-04T06:56:54.271Z</time></trkpt><trkpt lat="43.8331968" lon="11.2083271"><ele>71.0</ele><time>2026-04-04T06:56:56.279Z</time></trkpt><trkpt lat="43.833127" lon="11.2083722"><ele>71.0</ele><time>2026-04-04T06:56:57.267Z</time></trkpt><trkpt lat="43.8330484" lon="11.2084079"><ele>71.0</ele><time>2026-04-04T06:56:58.28Z</time></trkpt><trkpt lat="43.8329584" lon="11.208433"><ele>71.0</ele><time>2026-04-04T06:56:59.268Z</time></trkpt><trkpt lat="43.832861" lon="11.2084434"><ele>71.0</ele><time>2026-04-04T06:57:00.27Z</time></trkpt><trkpt lat="43.8327575" lon="11.2084444"><ele>71.0</ele><time>2026-04-04T06:57:01.27Z</time></trkpt><trkpt lat="43.8326512" lon="11.2084461"><ele>71.0</ele><time>2026-04-04T06:57:02.268Z</time></trkpt><trkpt lat="43.832546" lon="11.2084475"><ele>71.0</ele><time>2026-04-04T06:57:03.288Z</time></trkpt><trkpt lat="43.8324438" lon="11.2084523"><ele>71.0</ele><time>2026-04-04T06:57:04.273Z</time></trkpt><trkpt lat="43.8323476" lon="11.2084631"><ele>71.0</ele><time>2026-04-04T06:57:05.27Z</time></trkpt><trkpt lat="43.8322671" lon="11.2084658"><ele>70.83333333333334</ele><time>2026-04-04T06:57:06.269Z</time></trkpt><trkpt lat="43.832195" lon="11.2084667"><ele>70.66666666666667</ele><time>2026-04-04T06:57:07.28Z</time></trkpt><trkpt lat="43.8321272" lon="11.2084633"><ele>70.5</ele><time>2026-04-04T06:57:08.297Z</time></trkpt><trkpt lat="43.8320616" lon="11.2084603"><ele>70.33333333333333</ele><time>2026-04-04T06:57:09.277Z</time></trkpt><trkpt lat="43.8319493" lon="11.2084498"><ele>70.16666666666666</ele><time>2026-04-04T06:57:11.273Z</time></trkpt><trkpt lat="43.8318775" lon="11.2084389"><ele>70.0</ele><time>2026-04-04T06:57:13.276Z</time></trkpt><trkpt lat="43.8318104" lon="11.208441"><ele>69.8</ele><time>2026-04-04T06:57:17.281Z</time></trkpt><trkpt lat="43.8316947" lon="11.2084447"><ele>69.6</ele><time>2026-04-04T06:57:28.286Z</time></trkpt><trkpt lat="43.831574" lon="11.2084565"><ele>69.4</ele><time>2026-04-04T06:57:30.288Z</time></trkpt><trkpt lat="43.8314452" lon="11.2084667"><ele>69.2</ele><time>2026-04-04T06:57:32.274Z</time></trkpt><trkpt lat="43.8313711" lon="11.2084713"><ele>69.0</ele><time>2026-04-04T06:57:33.273Z</time></trkpt><trkpt lat="43.8312923" lon="11.2084802"><ele>69.0</ele><time>2026-04-04T06:57:34.272Z</time></trkpt><trkpt lat="43.8312082" lon="11.2084854"><ele>69.0</ele><time>2026-04-04T06:57:35.276Z</time></trkpt><trkpt lat="43.8311212" lon="11.2084916"><ele>69.0</ele><time>2026-04-04T06:57:36.277Z</time></trkpt><trkpt lat="43.8310346" lon="11.2084966"><ele>69.0</ele><time>2026-04-04T06:57:37.277Z</time></trkpt><trkpt lat="43.8309427" lon="11.2085065"><ele>69.0</ele><time>2026-04-04T06:57:38.284Z</time></trkpt><trkpt lat="43.830841" lon="11.2085163"><ele>68.4</ele><time>2026-04-04T06:57:39.275Z</time></trkpt><trkpt lat="43.8307297" lon="11.2085257"><ele>67.80000000000001</ele><time>2026-04-04T06:57:40.275Z</time></trkpt><trkpt lat="43.8306134" lon="11.2085332"><ele>67.19999999999999</ele><time>2026-04-04T06:57:41.279Z</time></trkpt><trkpt lat="43.8305082" lon="11.2085386"><ele>66.6</ele><time>2026-04-04T06:57:42.273Z</time></trkpt><trkpt lat="43.8304183" lon="11.208543"><ele>66.0</ele><time>2026-04-04T06:57:43.276Z</time></trkpt><trkpt lat="43.8303348" lon="11.208546"><ele>66.0</ele><time>2026-04-04T06:57:44.274Z</time></trkpt><trkpt lat="43.83026" lon="11.2085463"><ele>66.0</ele><time>2026-04-04T06:57:45.276Z</time></trkpt><trkpt lat="43.8301834" lon="11.208533"><ele>66.0</ele><time>2026-04-04T06:57:46.284Z</time></trkpt><trkpt lat="43.8301094" lon="11.2085008"><ele>66.0</ele><time>2026-04-04T06:57:47.274Z</time></trkpt><trkpt lat="43.8300421" lon="11.2084598"><ele>66.0</ele><time>2026-04-04T06:57:48.284Z</time></trkpt><trkpt lat="43.8299807" lon="11.2084246"><ele>66.0</ele><time>2026-04-04T06:57:49.277Z</time></trkpt><trkpt lat="43.8299159" lon="11.2084168"><ele>66.0</ele><time>2026-04-04T06:57:50.277Z</time></trkpt><trkpt lat="43.8298521" lon="11.2084354"><ele>65.33333333333333</ele><time>2026-04-04T06:57:51.279Z</time></trkpt><trkpt lat="43.8297943" lon="11.2084819"><ele>64.66666666666667</ele><time>2026-04-04T06:57:52.281Z</time></trkpt><trkpt lat="43.8297417" lon="11.2085561"><ele>64.0</ele><time>2026-04-04T06:57:53.282Z</time></trkpt><trkpt lat="43.829693" lon="11.208637"><ele>63.333333333333336</ele><time>2026-04-04T06:57:54.279Z</time></trkpt><trkpt lat="43.829649" lon="11.208715"><ele>62.66666666666667</ele><time>2026-04-04T06:57:55.28Z</time></trkpt><trkpt lat="43.8295868" lon="11.2088035"><ele>62.0</ele><time>2026-04-04T06:57:57.286Z</time></trkpt><trkpt lat="43.8295088" lon="11.2088613"><ele>62.00000000000001</ele><time>2026-04-04T07:02:39.272Z</time></trkpt><trkpt lat="43.8294816" lon="11.2089521"><ele>62.0</ele><time>2026-04-04T07:02:41.277Z</time></trkpt><trkpt lat="43.8294985" lon="11.2090617"><ele>62.0</ele><time>2026-04-04T07:02:43.28Z</time></trkpt><trkpt lat="43.8295013" lon="11.2091894"><ele>62.0</ele><time>2026-04-04T07:02:46.287Z</time></trkpt><trkpt lat="43.8294516" lon="11.2093239"><ele>62.00000000000001</ele><time>2026-04-04T07:02:48.292Z</time></trkpt><trkpt lat="43.8294114" lon="11.2094024"><ele>62.0</ele><time>2026-04-04T07:02:49.285Z</time></trkpt><trkpt lat="43.829369" lon="11.209476"><ele>62.2</ele><time>2026-04-04T07:02:50.285Z</time></trkpt><trkpt lat="43.8292952" lon="11.2096119"><ele>62.400000000000006</ele><time>2026-04-04T07:02:52.298Z</time></trkpt><trkpt lat="43.829226" lon="11.2097465"><ele>62.599999999999994</ele><time>2026-04-04T07:02:54.294Z</time></trkpt><trkpt lat="43.8291578" lon="11.2098962"><ele>62.8</ele><time>2026-04-04T07:02:56.286Z</time></trkpt><trkpt lat="43.8291195" lon="11.2099825"><ele>63.0</ele><time>2026-04-04T07:02:57.291Z</time></trkpt><trkpt lat="43.8290811" lon="11.2100668"><ele>63.0</ele><time>2026-04-04T07:02:58.287Z</time></trkpt><trkpt lat="43.8290425" lon="11.2101515"><ele>63.0</ele><time>2026-04-04T07:02:59.288Z</time></trkpt><trkpt lat="43.8290058" lon="11.2102419"><ele>63.0</ele><time>2026-04-04T07:03:00.287Z</time></trkpt><trkpt lat="43.8289671" lon="11.2103344"><ele>63.0</ele><time>2026-04-04T07:03:01.284Z</time></trkpt><trkpt lat="43.8289285" lon="11.210424"><ele>63.0</ele><time>2026-04-04T07:03:02.288Z</time></trkpt><trkpt lat="43.8288884" lon="11.2105148"><ele>63.0</ele><time>2026-04-04T07:03:03.282Z</time></trkpt><trkpt lat="43.8288483" lon="11.2106072"><ele>63.4</ele><time>2026-04-04T07:03:04.284Z</time></trkpt><trkpt lat="43.8288064" lon="11.210703"><ele>63.8</ele><time>2026-04-04T07:03:05.282Z</time></trkpt><trkpt lat="43.8287554" lon="11.2108163"><ele>64.2</ele><time>2026-04-04T07:03:06.29Z</time></trkpt><trkpt lat="43.8286981" lon="11.2109275"><ele>64.6</ele><time>2026-04-04T07:03:07.28Z</time></trkpt><trkpt lat="43.8286371" lon="11.2110336"><ele>65.0</ele><time>2026-04-04T07:03:08.281Z</time></trkpt><trkpt lat="43.8285777" lon="11.2111407"><ele>65.0</ele><time>2026-04-04T07:03:09.282Z</time></trkpt><trkpt lat="43.8285183" lon="11.211248"><ele>65.0</ele><time>2026-04-04T07:03:10.282Z</time></trkpt><trkpt lat="43.8284579" lon="11.2113533"><ele>65.0</ele><time>2026-04-04T07:03:11.277Z</time></trkpt><trkpt lat="43.8283934" lon="11.2114656"><ele>65.0</ele><time>2026-04-04T07:03:12.288Z</time></trkpt><trkpt lat="43.8283258" lon="11.2115823"><ele>65.0</ele><time>2026-04-04T07:03:13.282Z</time></trkpt><trkpt lat="43.8282509" lon="11.2117073"><ele>65.25</ele><time>2026-04-04T07:03:14.279Z</time></trkpt><trkpt lat="43.828167" lon="11.2118335"><ele>65.5</ele><time>2026-04-04T07:03:15.283Z</time></trkpt><trkpt lat="43.8280854" lon="11.211956"><ele>65.75</ele><time>2026-04-04T07:03:16.283Z</time></trkpt><trkpt lat="43.8280024" lon="11.2120844"><ele>66.0</ele><time>2026-04-04T07:03:17.28Z</time></trkpt><trkpt lat="43.8279225" lon="11.2122129"><ele>65.75</ele><time>2026-04-04T07:03:18.285Z</time></trkpt><trkpt lat="43.8278411" lon="11.2123384"><ele>65.5</ele><time>2026-04-04T07:03:19.291Z</time></trkpt><trkpt lat="43.8277582" lon="11.2124606"><ele>65.25</ele><time>2026-04-04T07:03:20.291Z</time></trkpt><trkpt lat="43.8276765" lon="11.2125811"><ele>65.0</ele><time>2026-04-04T07:03:21.293Z</time></trkpt><trkpt lat="43.8275922" lon="11.2126891"><ele>64.6</ele><time>2026-04-04T07:03:22.288Z</time></trkpt><trkpt lat="43.8275001" lon="11.2127882"><ele>64.2</ele><time>2026-04-04T07:03:23.295Z</time></trkpt><trkpt lat="43.8274069" lon="11.2128818"><ele>63.8</ele><time>2026-04-04T07:03:24.291Z</time></trkpt><trkpt lat="43.8273161" lon="11.2129628"><ele>63.4</ele><time>2026-04-04T07:03:25.291Z</time></trkpt><trkpt lat="43.8272346" lon="11.2130401"><ele>63.0</ele><time>2026-04-04T07:03:26.29Z</time></trkpt><trkpt lat="43.8271583" lon="11.2131154"><ele>63.0</ele><time>2026-04-04T07:03:27.293Z</time></trkpt><trkpt lat="43.8270872" lon="11.2131933"><ele>63.0</ele><time>2026-04-04T07:03:28.291Z</time></trkpt><trkpt lat="43.8270223" lon="11.2132645"><ele>63.0</ele><time>2026-04-04T07:03:29.292Z</time></trkpt><trkpt lat="43.8269712" lon="11.2133256"><ele>63.0</ele><time>2026-04-04T07:03:30.296Z</time></trkpt><trkpt lat="43.8269084" lon="11.2133734"><ele>63.0</ele><time>2026-04-04T07:03:32.296Z</time></trkpt><trkpt lat="43.8268314" lon="11.2134267"><ele>63.0</ele><time>2026-04-04T07:04:17.29Z</time></trkpt><trkpt lat="43.8267603" lon="11.2135092"><ele>62.25</ele><time>2026-04-04T07:04:18.286Z</time></trkpt><trkpt lat="43.8266623" lon="11.2136154"><ele>61.5</ele><time>2026-04-04T07:04:19.29Z</time></trkpt><trkpt lat="43.826559" lon="11.2137235"><ele>60.75</ele><time>2026-04-04T07:04:20.287Z</time></trkpt><trkpt lat="43.8264604" lon="11.213839"><ele>60.0</ele><time>2026-04-04T07:04:21.292Z</time></trkpt><trkpt lat="43.8263629" lon="11.213959"><ele>60.25</ele><time>2026-04-04T07:04:22.292Z</time></trkpt><trkpt lat="43.8262632" lon="11.2140819"><ele>60.5</ele><time>2026-04-04T07:04:23.291Z</time></trkpt><trkpt lat="43.8261591" lon="11.2142116"><ele>60.75</ele><time>2026-04-04T07:04:24.287Z</time></trkpt><trkpt lat="43.8260405" lon="11.2143544"><ele>61.0</ele><time>2026-04-04T07:04:25.293Z</time></trkpt><trkpt lat="43.8259164" lon="11.2145086"><ele>60.5</ele><time>2026-04-04T07:04:26.288Z</time></trkpt><trkpt lat="43.8257974" lon="11.2146615"><ele>60.0</ele><time>2026-04-04T07:04:27.29Z</time></trkpt><trkpt lat="43.8256917" lon="11.2147992"><ele>59.5</ele><time>2026-04-04T07:04:28.285Z</time></trkpt><trkpt lat="43.8255916" lon="11.2149159"><ele>59.0</ele><time>2026-04-04T07:04:29.287Z</time></trkpt><trkpt lat="43.8254958" lon="11.2150318"><ele>58.5</ele><time>2026-04-04T07:04:30.282Z</time></trkpt><trkpt lat="43.8254" lon="11.2151576"><ele>58.0</ele><time>2026-04-04T07:04:31.285Z</time></trkpt><trkpt lat="43.8253009" lon="11.2152926"><ele>57.5</ele><time>2026-04-04T07:04:32.285Z</time></trkpt><trkpt lat="43.8252039" lon="11.2154276"><ele>57.0</ele><time>2026-04-04T07:04:33.279Z</time></trkpt><trkpt lat="43.8251039" lon="11.2155717"><ele>56.5</ele><time>2026-04-04T07:04:34.283Z</time></trkpt><trkpt lat="43.824999" lon="11.2157248"><ele>56.0</ele><time>2026-04-04T07:04:35.284Z</time></trkpt><trkpt lat="43.8248989" lon="11.2158754"><ele>55.5</ele><time>2026-04-04T07:04:36.288Z</time></trkpt><trkpt lat="43.8248097" lon="11.2160164"><ele>55.0</ele><time>2026-04-04T07:04:37.288Z</time></trkpt><trkpt lat="43.8247316" lon="11.2161454"><ele>55.0</ele><time>2026-04-04T07:04:38.287Z</time></trkpt><trkpt lat="43.8246643" lon="11.2162467"><ele>55.0</ele><time>2026-04-04T07:04:39.292Z</time></trkpt><trkpt lat="43.8246016" lon="11.2163423"><ele>55.0</ele><time>2026-04-04T07:04:40.286Z</time></trkpt><trkpt lat="43.8245404" lon="11.2164517"><ele>55.0</ele><time>2026-04-04T07:04:41.29Z</time></trkpt><trkpt lat="43.8244804" lon="11.2165612"><ele>55.0</ele><time>2026-04-04T07:04:42.279Z</time></trkpt><trkpt lat="43.8244225" lon="11.2166802"><ele>55.4</ele><time>2026-04-04T07:04:43.278Z</time></trkpt><trkpt lat="43.8243659" lon="11.2167988"><ele>55.8</ele><time>2026-04-04T07:04:44.28Z</time></trkpt><trkpt lat="43.8243078" lon="11.2169166"><ele>56.2</ele><time>2026-04-04T07:04:45.278Z</time></trkpt><trkpt lat="43.8242435" lon="11.2170354"><ele>56.6</ele><time>2026-04-04T07:04:46.278Z</time></trkpt><trkpt lat="43.82418" lon="11.2171578"><ele>57.0</ele><time>2026-04-04T07:04:47.28Z</time></trkpt><trkpt lat="43.8241123" lon="11.2172772"><ele>56.8</ele><time>2026-04-04T07:04:48.281Z</time></trkpt><trkpt lat="43.8240452" lon="11.2173975"><ele>56.6</ele><time>2026-04-04T07:04:49.281Z</time></trkpt><trkpt lat="43.8239761" lon="11.2175184"><ele>56.39999999999999</ele><time>2026-04-04T07:04:50.277Z</time></trkpt><trkpt lat="43.8239053" lon="11.2176359"><ele>56.199999999999996</ele><time>2026-04-04T07:04:51.28Z</time></trkpt><trkpt lat="43.8238339" lon="11.2177427"><ele>56.0</ele><time>2026-04-04T07:04:52.279Z</time></trkpt><trkpt lat="43.8237545" lon="11.2178395"><ele>56.0</ele><time>2026-04-04T07:04:53.28Z</time></trkpt><trkpt lat="43.8236797" lon="11.217932"><ele>55.99999999999999</ele><time>2026-04-04T07:04:54.281Z</time></trkpt><trkpt lat="43.8236115" lon="11.2180124"><ele>55.99999999999999</ele><time>2026-04-04T07:04:55.28Z</time></trkpt><trkpt lat="43.8235377" lon="11.2180933"><ele>56.0</ele><time>2026-04-04T07:04:56.277Z</time></trkpt><trkpt lat="43.8234618" lon="11.2181868"><ele>56.0</ele><time>2026-04-04T07:04:57.274Z</time></trkpt><trkpt lat="43.8233749" lon="11.2182906"><ele>56.0</ele><time>2026-04-04T07:04:58.273Z</time></trkpt><trkpt lat="43.8232834" lon="11.2184032"><ele>56.0</ele><time>2026-04-04T07:04:59.283Z</time></trkpt><trkpt lat="43.8231919" lon="11.2185222"><ele>56.0</ele><time>2026-04-04T07:05:00.277Z</time></trkpt><trkpt lat="43.8230988" lon="11.2186573"><ele>56.0</ele><time>2026-04-04T07:05:01.281Z</time></trkpt><trkpt lat="43.8229922" lon="11.2188102"><ele>56.0</ele><time>2026-04-04T07:05:02.276Z</time></trkpt><trkpt lat="43.8228583" lon="11.2189799"><ele>56.0</ele><time>2026-04-04T07:05:03.288Z</time></trkpt><trkpt lat="43.8227379" lon="11.2191215"><ele>56.0</ele><time>2026-04-04T07:05:04.278Z</time></trkpt><trkpt lat="43.8226277" lon="11.2192458"><ele>56.4</ele><time>2026-04-04T07:05:05.279Z</time></trkpt><trkpt lat="43.8225198" lon="11.2193522"><ele>56.8</ele><time>2026-04-04T07:05:06.274Z</time></trkpt><trkpt lat="43.8224212" lon="11.2194273"><ele>57.199999999999996</ele><time>2026-04-04T07:05:07.271Z</time></trkpt><trkpt lat="43.8223397" lon="11.2194905"><ele>57.599999999999994</ele><time>2026-04-04T07:05:08.275Z</time></trkpt><trkpt lat="43.8222798" lon="11.2195307"><ele>58.0</ele><time>2026-04-04T07:05:09.274Z</time></trkpt><trkpt lat="43.8221892" lon="11.2196037"><ele>57.99999999999999</ele><time>2026-04-04T07:05:11.274Z</time></trkpt><trkpt lat="43.8221365" lon="11.2196776"><ele>58.0</ele><time>2026-04-04T07:05:15.283Z</time></trkpt><trkpt lat="43.8220851" lon="11.2197368"><ele>58.0</ele><time>2026-04-04T07:05:18.282Z</time></trkpt><trkpt lat="43.821999" lon="11.2198194"><ele>58.0</ele><time>2026-04-04T07:05:20.279Z</time></trkpt><trkpt lat="43.8219183" lon="11.2198892"><ele>57.99999999999999</ele><time>2026-04-04T07:05:22.279Z</time></trkpt><trkpt lat="43.8218535" lon="11.2199541"><ele>58.0</ele><time>2026-04-04T07:05:24.279Z</time></trkpt><trkpt lat="43.8217858" lon="11.2200216"><ele>58.599999999999994</ele><time>2026-04-04T07:05:26.279Z</time></trkpt><trkpt lat="43.8217079" lon="11.2200929"><ele>59.199999999999996</ele><time>2026-04-04T07:05:28.284Z</time></trkpt><trkpt lat="43.8216173" lon="11.2201774"><ele>59.8</ele><time>2026-04-04T07:05:30.286Z</time></trkpt><trkpt lat="43.8215054" lon="11.2202544"><ele>60.4</ele><time>2026-04-04T07:05:32.282Z</time></trkpt><trkpt lat="43.8214143" lon="11.2203141"><ele>61.0</ele><time>2026-04-04T07:05:34.277Z</time></trkpt><trkpt lat="43.8213323" lon="11.2203353"><ele>61.0</ele><time>2026-04-04T07:05:36.278Z</time></trkpt><trkpt lat="43.8212295" lon="11.2203173"><ele>60.99999999999999</ele><time>2026-04-04T07:05:38.283Z</time></trkpt><trkpt lat="43.8211136" lon="11.220293"><ele>60.99999999999999</ele><time>2026-04-04T07:05:40.286Z</time></trkpt><trkpt lat="43.8209948" lon="11.2202975"><ele>61.0</ele><time>2026-04-04T07:05:42.281Z</time></trkpt><trkpt lat="43.8209207" lon="11.2203214"><ele>61.0</ele><time>2026-04-04T07:05:43.282Z</time></trkpt><trkpt lat="43.8208313" lon="11.220364"><ele>60.0</ele><time>2026-04-04T07:05:44.279Z</time></trkpt><trkpt lat="43.8207244" lon="11.2204223"><ele>59.0</ele><time>2026-04-04T07:05:45.278Z</time></trkpt><trkpt lat="43.8206044" lon="11.2204867"><ele>58.0</ele><time>2026-04-04T07:05:46.282Z</time></trkpt><trkpt lat="43.8204846" lon="11.2205523"><ele>57.0</ele><time>2026-04-04T07:05:47.284Z</time></trkpt><trkpt lat="43.8203691" lon="11.2206214"><ele>57.25</ele><time>2026-04-04T07:05:48.288Z</time></trkpt><trkpt lat="43.8202519" lon="11.2206878"><ele>57.5</ele><time>2026-04-04T07:05:49.286Z</time></trkpt><trkpt lat="43.8201334" lon="11.2207441"><ele>57.75</ele><time>2026-04-04T07:05:50.288Z</time></trkpt><trkpt lat="43.8200153" lon="11.2207982"><ele>58.0</ele><time>2026-04-04T07:05:51.284Z</time></trkpt><trkpt lat="43.8198977" lon="11.2208519"><ele>58.0</ele><time>2026-04-04T07:05:52.284Z</time></trkpt><trkpt lat="43.8197813" lon="11.2209002"><ele>58.0</ele><time>2026-04-04T07:05:53.286Z</time></trkpt><trkpt lat="43.8196661" lon="11.2209486"><ele>58.0</ele><time>2026-04-04T07:05:54.282Z</time></trkpt><trkpt lat="43.8195562" lon="11.2210012"><ele>58.0</ele><time>2026-04-04T07:05:55.279Z</time></trkpt><trkpt lat="43.8194511" lon="11.22107"><ele>58.0</ele><time>2026-04-04T07:05:56.278Z</time></trkpt><trkpt lat="43.8193515" lon="11.2211552"><ele>58.0</ele><time>2026-04-04T07:05:57.276Z</time></trkpt><trkpt lat="43.8192626" lon="11.2212422"><ele>58.0</ele><time>2026-04-04T07:05:58.278Z</time></trkpt><trkpt lat="43.8191847" lon="11.2213332"><ele>58.0</ele><time>2026-04-04T07:05:59.276Z</time></trkpt><trkpt lat="43.8191173" lon="11.2214315"><ele>58.0</ele><time>2026-04-04T07:06:00.281Z</time></trkpt><trkpt lat="43.8190533" lon="11.2215278"><ele>57.8</ele><time>2026-04-04T07:06:01.28Z</time></trkpt><trkpt lat="43.8189888" lon="11.2216315"><ele>57.599999999999994</ele><time>2026-04-04T07:06:02.282Z</time></trkpt><trkpt lat="43.8189226" lon="11.2217351"><ele>57.400000000000006</ele><time>2026-04-04T07:06:03.283Z</time></trkpt><trkpt lat="43.8188528" lon="11.2218364"><ele>57.2</ele><time>2026-04-04T07:06:04.286Z</time></trkpt><trkpt lat="43.8187804" lon="11.221935"><ele>57.0</ele><time>2026-04-04T07:06:05.282Z</time></trkpt><trkpt lat="43.818706" lon="11.2220408"><ele>57.0</ele><time>2026-04-04T07:06:06.279Z</time></trkpt><trkpt lat="43.8186243" lon="11.2221623"><ele>57.0</ele><time>2026-04-04T07:06:07.285Z</time></trkpt><trkpt lat="43.8185237" lon="11.2223072"><ele>57.0</ele><time>2026-04-04T07:06:08.278Z</time></trkpt><trkpt lat="43.8184189" lon="11.2224468"><ele>57.0</ele><time>2026-04-04T07:06:09.282Z</time></trkpt><trkpt lat="43.8183268" lon="11.2225702"><ele>57.0</ele><time>2026-04-04T07:06:10.284Z</time></trkpt><trkpt lat="43.8182419" lon="11.2226835"><ele>57.0</ele><time>2026-04-04T07:06:11.284Z</time></trkpt><trkpt lat="43.8181592" lon="11.2227974"><ele>57.0</ele><time>2026-04-04T07:06:12.294Z</time></trkpt><trkpt lat="43.8180721" lon="11.2229118"><ele>57.0</ele><time>2026-04-04T07:06:13.283Z</time></trkpt><trkpt lat="43.8179765" lon="11.2230227"><ele>57.0</ele><time>2026-04-04T07:06:14.285Z</time></trkpt><trkpt lat="43.817881" lon="11.2231296"><ele>57.0</ele><time>2026-04-04T07:06:15.284Z</time></trkpt><trkpt lat="43.8177924" lon="11.2232411"><ele>57.0</ele><time>2026-04-04T07:06:16.278Z</time></trkpt><trkpt lat="43.8177058" lon="11.2233473"><ele>57.0</ele><time>2026-04-04T07:06:17.281Z</time></trkpt><trkpt lat="43.817625" lon="11.2234455"><ele>57.0</ele><time>2026-04-04T07:06:18.281Z</time></trkpt><trkpt lat="43.817547" lon="11.223547"><ele>57.0</ele><time>2026-04-04T07:06:19.283Z</time></trkpt><trkpt lat="43.8174663" lon="11.2236544"><ele>57.0</ele><time>2026-04-04T07:06:20.285Z</time></trkpt><trkpt lat="43.817387" lon="11.2237637"><ele>57.0</ele><time>2026-04-04T07:06:21.283Z</time></trkpt><trkpt lat="43.8173071" lon="11.2238757"><ele>57.0</ele><time>2026-04-04T07:06:22.288Z</time></trkpt><trkpt lat="43.8172277" lon="11.2239891"><ele>57.0</ele><time>2026-04-04T07:06:23.284Z</time></trkpt><trkpt lat="43.8171473" lon="11.2240971"><ele>57.0</ele><time>2026-04-04T07:06:24.295Z</time></trkpt><trkpt lat="43.8170702" lon="11.2242026"><ele>57.0</ele><time>2026-04-04T07:06:25.292Z</time></trkpt><trkpt lat="43.8169944" lon="11.2243021"><ele>57.0</ele><time>2026-04-04T07:06:26.294Z</time></trkpt><trkpt lat="43.8169213" lon="11.224396"><ele>57.0</ele><time>2026-04-04T07:06:27.288Z</time></trkpt><trkpt lat="43.8168529" lon="11.2244827"><ele>57.0</ele><time>2026-04-04T07:06:28.29Z</time></trkpt><trkpt lat="43.8167927" lon="11.2245577"><ele>57.0</ele><time>2026-04-04T07:06:29.291Z</time></trkpt><trkpt lat="43.8167413" lon="11.2246253"><ele>57.0</ele><time>2026-04-04T07:06:30.292Z</time></trkpt><trkpt lat="43.8166604" lon="11.2247345"><ele>57.0</ele><time>2026-04-04T07:06:32.288Z</time></trkpt><trkpt lat="43.8166009" lon="11.2248094"><ele>57.0</ele><time>2026-04-04T07:06:34.283Z</time></trkpt><trkpt lat="43.8165462" lon="11.2248738"><ele>57.0</ele><time>2026-04-04T07:06:37.282Z</time></trkpt><trkpt lat="43.8164817" lon="11.2250118"><ele>57.0</ele><time>2026-04-04T07:06:48.277Z</time></trkpt><trkpt lat="43.8164376" lon="11.2250826"><ele>57.0</ele><time>2026-04-04T07:06:49.286Z</time></trkpt><trkpt lat="43.8163873" lon="11.22516"><ele>57.0</ele><time>2026-04-04T07:06:50.283Z</time></trkpt><trkpt lat="43.8163356" lon="11.2252458"><ele>57.0</ele><time>2026-04-04T07:06:51.288Z</time></trkpt><trkpt lat="43.8162827" lon="11.2253359"><ele>57.0</ele><time>2026-04-04T07:06:52.284Z</time></trkpt><trkpt lat="43.8162239" lon="11.2254295"><ele>57.0</ele><time>2026-04-04T07:06:53.283Z</time></trkpt><trkpt lat="43.8161608" lon="11.2255321"><ele>57.0</ele><time>2026-04-04T07:06:54.285Z</time></trkpt><trkpt lat="43.8160899" lon="11.225644"><ele>57.0</ele><time>2026-04-04T07:06:55.28Z</time></trkpt><trkpt lat="43.8160157" lon="11.2257549"><ele>57.0</ele><time>2026-04-04T07:06:56.283Z</time></trkpt><trkpt lat="43.8159325" lon="11.2258685"><ele>57.0</ele><time>2026-04-04T07:06:57.287Z</time></trkpt><trkpt lat="43.8158476" lon="11.2259807"><ele>56.75</ele><time>2026-04-04T07:06:58.294Z</time></trkpt><trkpt lat="43.8157586" lon="11.2260935"><ele>56.5</ele><time>2026-04-04T07:06:59.282Z</time></trkpt><trkpt lat="43.815666" lon="11.2262161"><ele>56.25</ele><time>2026-04-04T07:07:00.293Z</time></trkpt><trkpt lat="43.8155703" lon="11.2263399"><ele>56.0</ele><time>2026-04-04T07:07:01.283Z</time></trkpt><trkpt lat="43.8154721" lon="11.2264673"><ele>56.0</ele><time>2026-04-04T07:07:02.284Z</time></trkpt><trkpt lat="43.8153701" lon="11.2265993"><ele>56.0</ele><time>2026-04-04T07:07:03.276Z</time></trkpt><trkpt lat="43.8152649" lon="11.2267336"><ele>56.0</ele><time>2026-04-04T07:07:04.286Z</time></trkpt><trkpt lat="43.8151582" lon="11.2268714"><ele>56.0</ele><time>2026-04-04T07:07:05.28Z</time></trkpt><trkpt lat="43.8150485" lon="11.2270058"><ele>56.0</ele><time>2026-04-04T07:07:06.282Z</time></trkpt><trkpt lat="43.8149474" lon="11.2271443"><ele>56.0</ele><time>2026-04-04T07:07:07.285Z</time></trkpt><trkpt lat="43.8148511" lon="11.2272702"><ele>56.0</ele><time>2026-04-04T07:07:08.28Z</time></trkpt><trkpt lat="43.8147534" lon="11.2273919"><ele>56.0</ele><time>2026-04-04T07:07:09.284Z</time></trkpt><trkpt lat="43.814668" lon="11.2275153"><ele>56.5</ele><time>2026-04-04T07:07:10.281Z</time></trkpt><trkpt lat="43.8145754" lon="11.2276395"><ele>57.0</ele><time>2026-04-04T07:07:11.281Z</time></trkpt><trkpt lat="43.8144874" lon="11.2277567"><ele>57.5</ele><time>2026-04-04T07:07:12.287Z</time></trkpt><trkpt lat="43.8143991" lon="11.2278736"><ele>58.0</ele><time>2026-04-04T07:07:13.284Z</time></trkpt><trkpt lat="43.8143087" lon="11.2280003"><ele>58.0</ele><time>2026-04-04T07:07:14.29Z</time></trkpt><trkpt lat="43.8142159" lon="11.2281288"><ele>58.0</ele><time>2026-04-04T07:07:15.289Z</time></trkpt><trkpt lat="43.8141171" lon="11.2282562"><ele>58.0</ele><time>2026-04-04T07:07:16.283Z</time></trkpt><trkpt lat="43.8140145" lon="11.2283889"><ele>58.0</ele><time>2026-04-04T07:07:17.284Z</time></trkpt><trkpt lat="43.8139011" lon="11.2285349"><ele>58.33333333333333</ele><time>2026-04-04T07:07:18.289Z</time></trkpt><trkpt lat="43.8137709" lon="11.2287041"><ele>58.66666666666667</ele><time>2026-04-04T07:07:19.285Z</time></trkpt><trkpt lat="43.8136344" lon="11.2288899"><ele>59.0</ele><time>2026-04-04T07:07:20.289Z</time></trkpt><trkpt lat="43.813494" lon="11.2290869"><ele>58.66666666666667</ele><time>2026-04-04T07:07:21.287Z</time></trkpt><trkpt lat="43.8133444" lon="11.2292772"><ele>58.33333333333333</ele><time>2026-04-04T07:07:22.288Z</time></trkpt><trkpt lat="43.8132075" lon="11.2294539"><ele>58.0</ele><time>2026-04-04T07:07:23.286Z</time></trkpt><trkpt lat="43.8130899" lon="11.2296218"><ele>58.0</ele><time>2026-04-04T07:07:24.285Z</time></trkpt><trkpt lat="43.8129715" lon="11.2297759"><ele>58.0</ele><time>2026-04-04T07:07:25.289Z</time></trkpt><trkpt lat="43.8128403" lon="11.2299311"><ele>58.0</ele><time>2026-04-04T07:07:26.286Z</time></trkpt><trkpt lat="43.8126935" lon="11.2300727"><ele>58.666666666666664</ele><time>2026-04-04T07:07:27.28Z</time></trkpt><trkpt lat="43.8125403" lon="11.2302135"><ele>59.33333333333333</ele><time>2026-04-04T07:07:28.275Z</time></trkpt><trkpt lat="43.8123652" lon="11.2303504"><ele>60.0</ele><time>2026-04-04T07:07:29.277Z</time></trkpt><trkpt lat="43.8121615" lon="11.2304922"><ele>60.0</ele><time>2026-04-04T07:07:30.277Z</time></trkpt><trkpt lat="43.811972" lon="11.2306307"><ele>60.0</ele><time>2026-04-04T07:07:31.277Z</time></trkpt><trkpt lat="43.8117934" lon="11.2307607"><ele>60.0</ele><time>2026-04-04T07:07:32.279Z</time></trkpt><trkpt lat="43.811645" lon="11.2308749"><ele>60.25</ele><time>2026-04-04T07:07:33.272Z</time></trkpt><trkpt lat="43.8115186" lon="11.2309774"><ele>60.5</ele><time>2026-04-04T07:07:34.271Z</time></trkpt><trkpt lat="43.8113966" lon="11.2310696"><ele>60.75</ele><time>2026-04-04T07:07:35.272Z</time></trkpt><trkpt lat="43.811294" lon="11.2311697"><ele>61.0</ele><time>2026-04-04T07:07:36.276Z</time></trkpt><trkpt lat="43.811193" lon="11.2312503"><ele>61.0</ele><time>2026-04-04T07:07:37.283Z</time></trkpt><trkpt lat="43.8111087" lon="11.2313292"><ele>60.99999999999999</ele><time>2026-04-04T07:07:38.278Z</time></trkpt><trkpt lat="43.8110293" lon="11.231413"><ele>60.99999999999999</ele><time>2026-04-04T07:07:39.281Z</time></trkpt><trkpt lat="43.8109578" lon="11.2315071"><ele>61.0</ele><time>2026-04-04T07:07:40.278Z</time></trkpt><trkpt lat="43.8108862" lon="11.2316058"><ele>61.0</ele><time>2026-04-04T07:07:41.279Z</time></trkpt><trkpt lat="43.810814" lon="11.2317061"><ele>61.0</ele><time>2026-04-04T07:07:42.28Z</time></trkpt><trkpt lat="43.8107414" lon="11.2318163"><ele>60.99999999999999</ele><time>2026-04-04T07:07:43.289Z</time></trkpt><trkpt lat="43.8106678" lon="11.2319355"><ele>60.99999999999999</ele><time>2026-04-04T07:07:44.283Z</time></trkpt><trkpt lat="43.8105968" lon="11.23206"><ele>61.0</ele><time>2026-04-04T07:07:45.289Z</time></trkpt><trkpt lat="43.8105365" lon="11.2321803"><ele>61.0</ele><time>2026-04-04T07:07:46.282Z</time></trkpt><trkpt lat="43.8104873" lon="11.2322975"><ele>61.4</ele><time>2026-04-04T07:07:47.284Z</time></trkpt><trkpt lat="43.8104458" lon="11.2323991"><ele>61.8</ele><time>2026-04-04T07:07:48.287Z</time></trkpt><trkpt lat="43.8104109" lon="11.2325058"><ele>62.199999999999996</ele><time>2026-04-04T07:07:49.287Z</time></trkpt><trkpt lat="43.81038" lon="11.2326185"><ele>62.599999999999994</ele><time>2026-04-04T07:07:50.287Z</time></trkpt><trkpt lat="43.8103493" lon="11.2327433"><ele>63.0</ele><time>2026-04-04T07:07:51.285Z</time></trkpt><trkpt lat="43.8103191" lon="11.2328744"><ele>63.0</ele><time>2026-04-04T07:07:52.283Z</time></trkpt><trkpt lat="43.8102873" lon="11.233"><ele>63.0</ele><time>2026-04-04T07:07:53.282Z</time></trkpt><trkpt lat="43.8102581" lon="11.233123"><ele>63.0</ele><time>2026-04-04T07:07:54.286Z</time></trkpt><trkpt lat="43.8102308" lon="11.2332418"><ele>63.0</ele><time>2026-04-04T07:07:55.285Z</time></trkpt><trkpt lat="43.810205" lon="11.2333551"><ele>63.0</ele><time>2026-04-04T07:07:56.285Z</time></trkpt><trkpt lat="43.8101781" lon="11.2334628"><ele>63.0</ele><time>2026-04-04T07:07:57.278Z</time></trkpt><trkpt lat="43.8101576" lon="11.2335697"><ele>63.2</ele><time>2026-04-04T07:07:58.278Z</time></trkpt><trkpt lat="43.81014" lon="11.2336835"><ele>63.4</ele><time>2026-04-04T07:07:59.272Z</time></trkpt><trkpt lat="43.8101299" lon="11.2338102"><ele>63.60000000000001</ele><time>2026-04-04T07:08:00.277Z</time></trkpt><trkpt lat="43.8101315" lon="11.2339521"><ele>63.800000000000004</ele><time>2026-04-04T07:08:01.274Z</time></trkpt><trkpt lat="43.8101387" lon="11.2340988"><ele>64.0</ele><time>2026-04-04T07:08:02.276Z</time></trkpt><trkpt lat="43.8101478" lon="11.2342516"><ele>64.0</ele><time>2026-04-04T07:08:03.295Z</time></trkpt><trkpt lat="43.8101563" lon="11.2343993"><ele>64.0</ele><time>2026-04-04T07:08:04.285Z</time></trkpt><trkpt lat="43.8101673" lon="11.2345422"><ele>64.0</ele><time>2026-04-04T07:08:05.28Z</time></trkpt><trkpt lat="43.8101827" lon="11.2346889"><ele>64.0</ele><time>2026-04-04T07:08:06.282Z</time></trkpt><trkpt lat="43.8101927" lon="11.2348267"><ele>64.0</ele><time>2026-04-04T07:08:07.279Z</time></trkpt><trkpt lat="43.8101995" lon="11.2349577"><ele>63.800000000000004</ele><time>2026-04-04T07:08:08.281Z</time></trkpt><trkpt lat="43.8102031" lon="11.2350843"><ele>63.60000000000001</ele><time>2026-04-04T07:08:09.273Z</time></trkpt><trkpt lat="43.8102028" lon="11.2351904"><ele>63.4</ele><time>2026-04-04T07:08:10.286Z</time></trkpt><trkpt lat="43.810202" lon="11.2353619"><ele>63.2</ele><time>2026-04-04T07:08:12.286Z</time></trkpt><trkpt lat="43.8102276" lon="11.2354887"><ele>63.0</ele><time>2026-04-04T07:08:14.276Z</time></trkpt><trkpt lat="43.8103017" lon="11.235578"><ele>63.0</ele><time>2026-04-04T07:08:16.292Z</time></trkpt><trkpt lat="43.8103702" lon="11.2356082"><ele>63.0</ele><time>2026-04-04T07:08:17.277Z</time></trkpt><trkpt lat="43.8104412" lon="11.2356425"><ele>63.0</ele><time>2026-04-04T07:08:18.28Z</time></trkpt><trkpt lat="43.8105112" lon="11.235679"><ele>63.0</ele><time>2026-04-04T07:08:19.281Z</time></trkpt><trkpt lat="43.8105806" lon="11.2357331"><ele>63.0</ele><time>2026-04-04T07:08:20.285Z</time></trkpt><trkpt lat="43.8106517" lon="11.2357974"><ele>63.0</ele><time>2026-04-04T07:08:21.285Z</time></trkpt><trkpt lat="43.8107285" lon="11.2358698"><ele>63.2</ele><time>2026-04-04T07:08:22.28Z</time></trkpt><trkpt lat="43.8108069" lon="11.235948"><ele>63.4</ele><time>2026-04-04T07:08:23.29Z</time></trkpt><trkpt lat="43.8108845" lon="11.2360267"><ele>63.60000000000001</ele><time>2026-04-04T07:08:24.288Z</time></trkpt><trkpt lat="43.810962" lon="11.2361034"><ele>63.800000000000004</ele><time>2026-04-04T07:08:25.292Z</time></trkpt><trkpt lat="43.8110392" lon="11.236184"><ele>64.0</ele><time>2026-04-04T07:08:26.289Z</time></trkpt><trkpt lat="43.8111135" lon="11.2362652"><ele>64.33333333333333</ele><time>2026-04-04T07:08:27.29Z</time></trkpt><trkpt lat="43.8111847" lon="11.2363434"><ele>64.66666666666666</ele><time>2026-04-04T07:08:28.291Z</time></trkpt><trkpt lat="43.8112498" lon="11.2364171"><ele>65.0</ele><time>2026-04-04T07:08:29.295Z</time></trkpt><trkpt lat="43.8113006" lon="11.2364766"><ele>65.33333333333333</ele><time>2026-04-04T07:08:30.294Z</time></trkpt><trkpt lat="43.8113625" lon="11.2365583"><ele>65.66666666666667</ele><time>2026-04-04T07:08:32.286Z</time></trkpt><trkpt lat="43.8114056" lon="11.2366236"><ele>66.0</ele><time>2026-04-04T07:08:35.294Z</time></trkpt><trkpt lat="43.8114497" lon="11.2367063"><ele>66.75</ele><time>2026-04-04T07:09:23.288Z</time></trkpt><trkpt lat="43.8115542" lon="11.2368396"><ele>67.5</ele><time>2026-04-04T07:09:25.286Z</time></trkpt><trkpt lat="43.8116392" lon="11.2369365"><ele>68.25</ele><time>2026-04-04T07:09:26.286Z</time></trkpt><trkpt lat="43.8117452" lon="11.2370592"><ele>69.0</ele><time>2026-04-04T07:09:27.282Z</time></trkpt><trkpt lat="43.8118749" lon="11.2372088"><ele>68.0</ele><time>2026-04-04T07:09:28.285Z</time></trkpt><trkpt lat="43.8120516" lon="11.2374033"><ele>67.0</ele><time>2026-04-04T07:09:29.272Z</time></trkpt><trkpt lat="43.8122428" lon="11.2376011"><ele>67.0</ele><time>2026-04-04T07:09:30.286Z</time></trkpt><trkpt lat="43.8123966" lon="11.2377744"><ele>67.0</ele><time>2026-04-04T07:09:31.28Z</time></trkpt><trkpt lat="43.812527" lon="11.2379158"><ele>67.0</ele><time>2026-04-04T07:09:32.279Z</time></trkpt><trkpt lat="43.8126339" lon="11.2380365"><ele>69.75</ele><time>2026-04-04T07:09:33.278Z</time></trkpt><trkpt lat="43.8127283" lon="11.2381644"><ele>72.5</ele><time>2026-04-04T07:09:34.276Z</time></trkpt><trkpt lat="43.8128181" lon="11.2382978"><ele>75.25</ele><time>2026-04-04T07:09:35.275Z</time></trkpt><trkpt lat="43.8128936" lon="11.238446"><ele>78.0</ele><time>2026-04-04T07:09:36.273Z</time></trkpt><trkpt lat="43.8129466" lon="11.2386121"><ele>78.0</ele><time>2026-04-04T07:09:37.275Z</time></trkpt><trkpt lat="43.8129861" lon="11.2387735"><ele>78.0</ele><time>2026-04-04T07:09:38.276Z</time></trkpt><trkpt lat="43.8130058" lon="11.2389315"><ele>78.0</ele><time>2026-04-04T07:09:39.281Z</time></trkpt><trkpt lat="43.8130066" lon="11.2390996"><ele>78.0</ele><time>2026-04-04T07:09:40.281Z</time></trkpt><trkpt lat="43.8129986" lon="11.2392651"><ele>78.0</ele><time>2026-04-04T07:09:41.277Z</time></trkpt><trkpt lat="43.812976" lon="11.239434"><ele>78.0</ele><time>2026-04-04T07:09:42.283Z</time></trkpt><trkpt lat="43.812931" lon="11.2396018"><ele>78.0</ele><time>2026-04-04T07:09:43.28Z</time></trkpt><trkpt lat="43.812854" lon="11.2397782"><ele>78.0</ele><time>2026-04-04T07:09:44.279Z</time></trkpt><trkpt lat="43.8127523" lon="11.2399695"><ele>76.33333333333333</ele><time>2026-04-04T07:09:45.276Z</time></trkpt><trkpt lat="43.8126464" lon="11.2401649"><ele>74.66666666666666</ele><time>2026-04-04T07:09:46.279Z</time></trkpt><trkpt lat="43.812549" lon="11.2403618"><ele>73.0</ele><time>2026-04-04T07:09:47.285Z</time></trkpt><trkpt lat="43.8124588" lon="11.2405405"><ele>73.25</ele><time>2026-04-04T07:09:48.287Z</time></trkpt><trkpt lat="43.8123817" lon="11.2407041"><ele>73.5</ele><time>2026-04-04T07:09:49.283Z</time></trkpt><trkpt lat="43.8123136" lon="11.2408579"><ele>73.75</ele><time>2026-04-04T07:09:50.28Z</time></trkpt><trkpt lat="43.8122501" lon="11.2409993"><ele>74.0</ele><time>2026-04-04T07:09:51.281Z</time></trkpt><trkpt lat="43.8121889" lon="11.2411473"><ele>74.0</ele><time>2026-04-04T07:09:52.28Z</time></trkpt><trkpt lat="43.8121274" lon="11.2412899"><ele>74.0</ele><time>2026-04-04T07:09:53.28Z</time></trkpt><trkpt lat="43.8120649" lon="11.2414306"><ele>74.0</ele><time>2026-04-04T07:09:54.281Z</time></trkpt><trkpt lat="43.8120007" lon="11.2415738"><ele>74.0</ele><time>2026-04-04T07:09:55.282Z</time></trkpt><trkpt lat="43.811943" lon="11.2417107"><ele>74.16666666666667</ele><time>2026-04-04T07:09:56.281Z</time></trkpt><trkpt lat="43.811896" lon="11.2418258"><ele>74.33333333333334</ele><time>2026-04-04T07:09:57.273Z</time></trkpt><trkpt lat="43.8118555" lon="11.2419291"><ele>74.5</ele><time>2026-04-04T07:09:58.275Z</time></trkpt><trkpt lat="43.8118293" lon="11.2420226"><ele>74.66666666666667</ele><time>2026-04-04T07:09:59.274Z</time></trkpt><trkpt lat="43.8118176" lon="11.2421288"><ele>74.83333333333333</ele><time>2026-04-04T07:10:00.271Z</time></trkpt><trkpt lat="43.8118139" lon="11.2422449"><ele>75.0</ele><time>2026-04-04T07:10:01.277Z</time></trkpt><trkpt lat="43.8118339" lon="11.2423921"><ele>75.75</ele><time>2026-04-04T07:10:02.278Z</time></trkpt><trkpt lat="43.8118835" lon="11.2425648"><ele>76.5</ele><time>2026-04-04T07:10:03.284Z</time></trkpt><trkpt lat="43.8119368" lon="11.2427549"><ele>77.25</ele><time>2026-04-04T07:10:04.278Z</time></trkpt><trkpt lat="43.811988" lon="11.2429203"><ele>78.0</ele><time>2026-04-04T07:10:05.282Z</time></trkpt><trkpt lat="43.8120311" lon="11.2430499"><ele>78.0</ele><time>2026-04-04T07:10:06.282Z</time></trkpt><trkpt lat="43.8120773" lon="11.2431503"><ele>78.0</ele><time>2026-04-04T07:10:07.283Z</time></trkpt><trkpt lat="43.8121164" lon="11.2432392"><ele>78.0</ele><time>2026-04-04T07:10:08.277Z</time></trkpt><trkpt lat="43.8121459" lon="11.2433275"><ele>78.0</ele><time>2026-04-04T07:10:09.274Z</time></trkpt><trkpt lat="43.8121536" lon="11.2434199"><ele>78.0</ele><time>2026-04-04T07:10:10.278Z</time></trkpt><trkpt lat="43.8121389" lon="11.2435154"><ele>78.0</ele><time>2026-04-04T07:10:11.282Z</time></trkpt><trkpt lat="43.8121111" lon="11.2436499"><ele>78.0</ele><time>2026-04-04T07:10:12.289Z</time></trkpt><trkpt lat="43.8120572" lon="11.2438518"><ele>78.0</ele><time>2026-04-04T07:10:13.286Z</time></trkpt><trkpt lat="43.8119968" lon="11.2440544"><ele>78.0</ele><time>2026-04-04T07:10:14.289Z</time></trkpt><trkpt lat="43.8119273" lon="11.2442303"><ele>78.16666666666667</ele><time>2026-04-04T07:10:15.279Z</time></trkpt><trkpt lat="43.8118757" lon="11.2443666"><ele>78.33333333333333</ele><time>2026-04-04T07:10:16.289Z</time></trkpt><trkpt lat="43.8118318" lon="11.2444732"><ele>78.5</ele><time>2026-04-04T07:10:17.286Z</time></trkpt><trkpt lat="43.811793" lon="11.2445759"><ele>78.66666666666666</ele><time>2026-04-04T07:10:18.29Z</time></trkpt><trkpt lat="43.8117649" lon="11.2446667"><ele>78.83333333333333</ele><time>2026-04-04T07:10:19.297Z</time></trkpt><trkpt lat="43.8117263" lon="11.2447757"><ele>79.0</ele><time>2026-04-04T07:10:21.283Z</time></trkpt><trkpt lat="43.8117318" lon="11.2449024"><ele>79.0</ele><time>2026-04-04T07:10:25.275Z</time></trkpt><trkpt lat="43.8118247" lon="11.2449987"><ele>79.0</ele><time>2026-04-04T07:10:27.284Z</time></trkpt><trkpt lat="43.8119252" lon="11.2450591"><ele>79.0</ele><time>2026-04-04T07:10:28.289Z</time></trkpt><trkpt lat="43.8120642" lon="11.2451343"><ele>79.0</ele><time>2026-04-04T07:10:29.279Z</time></trkpt><trkpt lat="43.8122137" lon="11.2452139"><ele>79.0</ele><time>2026-04-04T07:10:30.284Z</time></trkpt><trkpt lat="43.8123725" lon="11.2452905"><ele>79.0</ele><time>2026-04-04T07:10:31.291Z</time></trkpt><trkpt lat="43.8125194" lon="11.2453691"><ele>79.0</ele><time>2026-04-04T07:10:32.28Z</time></trkpt><trkpt lat="43.8126504" lon="11.2454432"><ele>79.2</ele><time>2026-04-04T07:10:33.284Z</time></trkpt><trkpt lat="43.8127476" lon="11.2455383"><ele>79.4</ele><time>2026-04-04T07:10:34.288Z</time></trkpt><trkpt lat="43.812823" lon="11.2456469"><ele>79.6</ele><time>2026-04-04T07:10:35.29Z</time></trkpt><trkpt lat="43.8128784" lon="11.2457648"><ele>79.8</ele><time>2026-04-04T07:10:36.285Z</time></trkpt><trkpt lat="43.8129129" lon="11.2459049"><ele>80.0</ele><time>2026-04-04T07:10:37.288Z</time></trkpt><trkpt lat="43.8129289" lon="11.2460584"><ele>80.0</ele><time>2026-04-04T07:10:38.289Z</time></trkpt><trkpt lat="43.8129312" lon="11.2462127"><ele>80.0</ele><time>2026-04-04T07:10:39.28Z</time></trkpt><trkpt lat="43.8129165" lon="11.2463774"><ele>80.0</ele><time>2026-04-04T07:10:40.278Z</time></trkpt><trkpt lat="43.8128991" lon="11.2465326"><ele>80.0</ele><time>2026-04-04T07:10:41.278Z</time></trkpt><trkpt lat="43.8128811" lon="11.246672"><ele>80.0</ele><time>2026-04-04T07:10:42.275Z</time></trkpt><trkpt lat="43.8128621" lon="11.2468084"><ele>80.0</ele><time>2026-04-04T07:10:43.28Z</time></trkpt><trkpt lat="43.8128405" lon="11.2469286"><ele>80.0</ele><time>2026-04-04T07:10:44.286Z</time></trkpt><trkpt lat="43.8128201" lon="11.2470193"><ele>80.0</ele><time>2026-04-04T07:10:45.281Z</time></trkpt><trkpt lat="43.8127909" lon="11.247132"><ele>80.0</ele><time>2026-04-04T07:10:47.28Z</time></trkpt><trkpt lat="43.8127611" lon="11.2472188"><ele>80.0</ele><time>2026-04-04T07:10:49.282Z</time></trkpt><trkpt lat="43.8127154" lon="11.2473057"><ele>80.0</ele><time>2026-04-04T07:10:51.277Z</time></trkpt><trkpt lat="43.8126179" lon="11.2473614"><ele>79.83333333333334</ele><time>2026-04-04T07:10:53.281Z</time></trkpt><trkpt lat="43.812545" lon="11.2473631"><ele>79.66666666666667</ele><time>2026-04-04T07:10:54.279Z</time></trkpt><trkpt lat="43.8124616" lon="11.2473556"><ele>79.5</ele><time>2026-04-04T07:10:55.287Z</time></trkpt><trkpt lat="43.8123788" lon="11.2473564"><ele>79.33333333333333</ele><time>2026-04-04T07:10:56.274Z</time></trkpt><trkpt lat="43.8123035" lon="11.2473785"><ele>79.16666666666666</ele><time>2026-04-04T07:10:57.28Z</time></trkpt><trkpt lat="43.8122236" lon="11.2474972"><ele>79.0</ele><time>2026-04-04T07:10:59.28Z</time></trkpt><trkpt lat="43.8122188" lon="11.2475998"><ele>79.0</ele><time>2026-04-04T07:11:00.283Z</time></trkpt><trkpt lat="43.8122263" lon="11.2477399"><ele>79.0</ele><time>2026-04-04T07:11:01.277Z</time></trkpt><trkpt lat="43.8122274" lon="11.2478988"><ele>79.0</ele><time>2026-04-04T07:11:02.278Z</time></trkpt><trkpt lat="43.8122257" lon="11.2480525"><ele>79.0</ele><time>2026-04-04T07:11:03.281Z</time></trkpt><trkpt lat="43.8122156" lon="11.2482044"><ele>79.0</ele><time>2026-04-04T07:11:04.282Z</time></trkpt><trkpt lat="43.8122016" lon="11.2483467"><ele>79.80000000000001</ele><time>2026-04-04T07:11:05.28Z</time></trkpt><trkpt lat="43.8121777" lon="11.24848"><ele>80.60000000000001</ele><time>2026-04-04T07:11:06.28Z</time></trkpt><trkpt lat="43.8121548" lon="11.2485995"><ele>81.4</ele><time>2026-04-04T07:11:07.281Z</time></trkpt><trkpt lat="43.8121308" lon="11.2487204"><ele>82.2</ele><time>2026-04-04T07:11:08.279Z</time></trkpt><trkpt lat="43.8121087" lon="11.2488475"><ele>83.0</ele><time>2026-04-04T07:11:09.279Z</time></trkpt><trkpt lat="43.8120902" lon="11.2489799"><ele>83.4</ele><time>2026-04-04T07:11:10.28Z</time></trkpt><trkpt lat="43.8120704" lon="11.2491149"><ele>83.80000000000001</ele><time>2026-04-04T07:11:11.281Z</time></trkpt><trkpt lat="43.8120525" lon="11.2492504"><ele>84.2</ele><time>2026-04-04T07:11:12.277Z</time></trkpt><trkpt lat="43.8120325" lon="11.2493842"><ele>84.6</ele><time>2026-04-04T07:11:13.273Z</time></trkpt><trkpt lat="43.8120139" lon="11.2495102"><ele>85.0</ele><time>2026-04-04T07:11:14.283Z</time></trkpt><trkpt lat="43.811991" lon="11.2496239"><ele>85.0</ele><time>2026-04-04T07:11:15.274Z</time></trkpt><trkpt lat="43.8119656" lon="11.2497247"><ele>85.0</ele><time>2026-04-04T07:11:16.279Z</time></trkpt><trkpt lat="43.8119276" lon="11.2498064"><ele>85.0</ele><time>2026-04-04T07:11:17.277Z</time></trkpt><trkpt lat="43.8118611" lon="11.2498529"><ele>85.0</ele><time>2026-04-04T07:11:18.281Z</time></trkpt><trkpt lat="43.8117628" lon="11.2498731"><ele>85.0</ele><time>2026-04-04T07:11:19.281Z</time></trkpt><trkpt lat="43.8116563" lon="11.2498901"><ele>85.0</ele><time>2026-04-04T07:11:20.276Z</time></trkpt><trkpt lat="43.8115546" lon="11.2499022"><ele>86.33333333333333</ele><time>2026-04-04T07:11:21.283Z</time></trkpt><trkpt lat="43.8114627" lon="11.2499187"><ele>87.66666666666666</ele><time>2026-04-04T07:11:22.28Z</time></trkpt><trkpt lat="43.8113925" lon="11.2499376"><ele>89.0</ele><time>2026-04-04T07:11:23.285Z</time></trkpt><trkpt lat="43.8113233" lon="11.2499955"><ele>90.33333333333333</ele><time>2026-04-04T07:11:25.28Z</time></trkpt><trkpt lat="43.8112524" lon="11.2500393"><ele>91.66666666666667</ele><time>2026-04-04T07:11:28.268Z</time></trkpt><trkpt lat="43.8111685" lon="11.2500617"><ele>93.0</ele><time>2026-04-04T07:11:30.274Z</time></trkpt><trkpt lat="43.8110674" lon="11.2500443"><ele>92.5</ele><time>2026-04-04T07:11:31.267Z</time></trkpt><trkpt lat="43.8109511" lon="11.2500247"><ele>92.0</ele><time>2026-04-04T07:11:32.267Z</time></trkpt><trkpt lat="43.8108277" lon="11.2500006"><ele>91.5</ele><time>2026-04-04T07:11:33.271Z</time></trkpt><trkpt lat="43.8107024" lon="11.2499773"><ele>91.0</ele><time>2026-04-04T07:11:34.273Z</time></trkpt><trkpt lat="43.8105784" lon="11.2499607"><ele>91.0</ele><time>2026-04-04T07:11:35.273Z</time></trkpt><trkpt lat="43.8104569" lon="11.2499481"><ele>91.0</ele><time>2026-04-04T07:11:36.277Z</time></trkpt><trkpt lat="43.8103412" lon="11.2499519"><ele>91.0</ele><time>2026-04-04T07:11:37.28Z</time></trkpt><trkpt lat="43.8102218" lon="11.2499856"><ele>91.0</ele><time>2026-04-04T07:11:38.276Z</time></trkpt><trkpt lat="43.8100967" lon="11.2500545"><ele>90.66666666666666</ele><time>2026-04-04T07:11:39.277Z</time></trkpt><trkpt lat="43.8099695" lon="11.2501563"><ele>90.33333333333333</ele><time>2026-04-04T07:11:40.281Z</time></trkpt><trkpt lat="43.809834" lon="11.25027"><ele>90.0</ele><time>2026-04-04T07:11:41.279Z</time></trkpt><trkpt lat="43.8096923" lon="11.2503871"><ele>90.0</ele><time>2026-04-04T07:11:42.282Z</time></trkpt><trkpt lat="43.8095553" lon="11.2505006"><ele>90.0</ele><time>2026-04-04T07:11:43.279Z</time></trkpt><trkpt lat="43.809422" lon="11.250607"><ele>90.0</ele><time>2026-04-04T07:11:44.275Z</time></trkpt><trkpt lat="43.8092927" lon="11.2507065"><ele>89.25</ele><time>2026-04-04T07:11:45.277Z</time></trkpt><trkpt lat="43.8091739" lon="11.2508009"><ele>88.5</ele><time>2026-04-04T07:11:46.277Z</time></trkpt><trkpt lat="43.809055" lon="11.2508903"><ele>87.75</ele><time>2026-04-04T07:11:47.277Z</time></trkpt><trkpt lat="43.8089356" lon="11.2509527"><ele>87.0</ele><time>2026-04-04T07:11:48.278Z</time></trkpt><trkpt lat="43.8088158" lon="11.2510028"><ele>87.0</ele><time>2026-04-04T07:11:49.271Z</time></trkpt><trkpt lat="43.8086954" lon="11.2510254"><ele>87.0</ele><time>2026-04-04T07:11:50.273Z</time></trkpt><trkpt lat="43.8085843" lon="11.2510154"><ele>87.0</ele><time>2026-04-04T07:11:51.268Z</time></trkpt><trkpt lat="43.8084766" lon="11.2509723"><ele>87.0</ele><time>2026-04-04T07:11:52.277Z</time></trkpt><trkpt lat="43.808373" lon="11.2509165"><ele>87.19999999999999</ele><time>2026-04-04T07:11:53.266Z</time></trkpt><trkpt lat="43.8082723" lon="11.250842"><ele>87.4</ele><time>2026-04-04T07:11:54.268Z</time></trkpt><trkpt lat="43.8081786" lon="11.2507593"><ele>87.6</ele><time>2026-04-04T07:11:55.269Z</time></trkpt><trkpt lat="43.8080916" lon="11.2506807"><ele>87.80000000000001</ele><time>2026-04-04T07:11:56.276Z</time></trkpt><trkpt lat="43.8080097" lon="11.2506073"><ele>88.0</ele><time>2026-04-04T07:11:57.272Z</time></trkpt><trkpt lat="43.8079403" lon="11.2505461"><ele>88.0</ele><time>2026-04-04T07:11:58.276Z</time></trkpt><trkpt lat="43.8078824" lon="11.2505018"><ele>88.0</ele><time>2026-04-04T07:11:59.271Z</time></trkpt><trkpt lat="43.8077707" lon="11.2504915"><ele>88.0</ele><time>2026-04-04T07:12:01.276Z</time></trkpt><trkpt lat="43.8077096" lon="11.2505726"><ele>88.0</ele><time>2026-04-04T07:12:03.274Z</time></trkpt><trkpt lat="43.8076983" lon="11.2507405"><ele>88.0</ele><time>2026-04-04T07:12:05.277Z</time></trkpt><trkpt lat="43.8076868" lon="11.2508395"><ele>87.16666666666666</ele><time>2026-04-04T07:12:06.277Z</time></trkpt><trkpt lat="43.8076739" lon="11.2509548"><ele>86.33333333333333</ele><time>2026-04-04T07:12:07.276Z</time></trkpt><trkpt lat="43.8076569" lon="11.2510729"><ele>85.5</ele><time>2026-04-04T07:12:08.277Z</time></trkpt><trkpt lat="43.8076358" lon="11.2511919"><ele>84.66666666666667</ele><time>2026-04-04T07:12:09.278Z</time></trkpt><trkpt lat="43.8076202" lon="11.2513085"><ele>83.83333333333334</ele><time>2026-04-04T07:12:10.28Z</time></trkpt><trkpt lat="43.8076168" lon="11.2514194"><ele>83.0</ele><time>2026-04-04T07:12:11.276Z</time></trkpt><trkpt lat="43.8076465" lon="11.2515316"><ele>82.75</ele><time>2026-04-04T07:12:12.277Z</time></trkpt><trkpt lat="43.8076998" lon="11.2516598"><ele>82.5</ele><time>2026-04-04T07:12:13.271Z</time></trkpt><trkpt lat="43.8077707" lon="11.2517969"><ele>82.25</ele><time>2026-04-04T07:12:14.273Z</time></trkpt><trkpt lat="43.8078519" lon="11.2519331"><ele>82.0</ele><time>2026-04-04T07:12:15.281Z</time></trkpt><trkpt lat="43.8079288" lon="11.2520664"><ele>82.0</ele><time>2026-04-04T07:12:16.281Z</time></trkpt><trkpt lat="43.8079942" lon="11.2521903"><ele>82.0</ele><time>2026-04-04T07:12:17.281Z</time></trkpt><trkpt lat="43.8080498" lon="11.2522996"><ele>82.0</ele><time>2026-04-04T07:12:18.283Z</time></trkpt><trkpt lat="43.8080919" lon="11.2523919"><ele>82.0</ele><time>2026-04-04T07:12:19.279Z</time></trkpt><trkpt lat="43.8081175" lon="11.2525509"><ele>82.0</ele><time>2026-04-04T07:12:21.287Z</time></trkpt><trkpt lat="43.8081046" lon="11.2527076"><ele>83.0</ele><time>2026-04-04T07:12:23.287Z</time></trkpt><trkpt lat="43.8080518" lon="11.2527875"><ele>84.0</ele><time>2026-04-04T07:12:24.268Z</time></trkpt><trkpt lat="43.8079843" lon="11.2528808"><ele>85.0</ele><time>2026-04-04T07:12:25.273Z</time></trkpt><trkpt lat="43.8079073" lon="11.2529793"><ele>86.0</ele><time>2026-04-04T07:12:26.267Z</time></trkpt><trkpt lat="43.8078351" lon="11.253079"><ele>87.0</ele><time>2026-04-04T07:12:27.265Z</time></trkpt><trkpt lat="43.8077654" lon="11.253159"><ele>87.83333333333333</ele><time>2026-04-04T07:12:28.266Z</time></trkpt><trkpt lat="43.8076965" lon="11.2532211"><ele>88.66666666666667</ele><time>2026-04-04T07:12:29.264Z</time></trkpt><trkpt lat="43.8076375" lon="11.2532713"><ele>89.5</ele><time>2026-04-04T07:12:30.272Z</time></trkpt><trkpt lat="43.8075856" lon="11.2533251"><ele>90.33333333333334</ele><time>2026-04-04T07:12:31.266Z</time></trkpt><trkpt lat="43.8075277" lon="11.2534328"><ele>91.16666666666667</ele><time>2026-04-04T07:12:33.28Z</time></trkpt><trkpt lat="43.8075507" lon="11.2535683"><ele>92.0</ele><time>2026-04-04T07:12:35.279Z</time></trkpt><trkpt lat="43.8075899" lon="11.2536534"><ele>92.0</ele><time>2026-04-04T07:12:36.275Z</time></trkpt><trkpt lat="43.8076563" lon="11.2537547"><ele>92.0</ele><time>2026-04-04T07:12:37.283Z</time></trkpt><trkpt lat="43.8077485" lon="11.2538701"><ele>92.0</ele><time>2026-04-04T07:12:38.273Z</time></trkpt><trkpt lat="43.8078418" lon="11.2539933"><ele>92.0</ele><time>2026-04-04T07:12:39.27Z</time></trkpt><trkpt lat="43.8079434" lon="11.2541086"><ele>92.25</ele><time>2026-04-04T07:12:40.274Z</time></trkpt><trkpt lat="43.8080452" lon="11.2542154"><ele>92.5</ele><time>2026-04-04T07:12:41.279Z</time></trkpt><trkpt lat="43.8081433" lon="11.2543143"><ele>92.75</ele><time>2026-04-04T07:12:42.284Z</time></trkpt><trkpt lat="43.8082403" lon="11.2543994"><ele>93.0</ele><time>2026-04-04T07:12:43.284Z</time></trkpt><trkpt lat="43.8083322" lon="11.254475"><ele>93.0</ele><time>2026-04-04T07:12:44.28Z</time></trkpt><trkpt lat="43.8084284" lon="11.2545298"><ele>93.0</ele><time>2026-04-04T07:12:45.293Z</time></trkpt><trkpt lat="43.8085183" lon="11.2545848"><ele>93.0</ele><time>2026-04-04T07:12:46.287Z</time></trkpt><trkpt lat="43.8086041" lon="11.2546463"><ele>93.0</ele><time>2026-04-04T07:12:47.283Z</time></trkpt><trkpt lat="43.8086826" lon="11.2547164"><ele>93.0</ele><time>2026-04-04T07:12:48.278Z</time></trkpt><trkpt lat="43.8087578" lon="11.2547885"><ele>93.80000000000001</ele><time>2026-04-04T07:12:49.28Z</time></trkpt><trkpt lat="43.8088319" lon="11.2548721"><ele>94.6</ele><time>2026-04-04T07:12:50.281Z</time></trkpt><trkpt lat="43.8089073" lon="11.2549584"><ele>95.4</ele><time>2026-04-04T07:12:51.286Z</time></trkpt><trkpt lat="43.8089813" lon="11.255044"><ele>96.19999999999999</ele><time>2026-04-04T07:12:52.284Z</time></trkpt><trkpt lat="43.8090525" lon="11.2551271"><ele>97.0</ele><time>2026-04-04T07:12:53.29Z</time></trkpt><trkpt lat="43.8091195" lon="11.2552027"><ele>97.0</ele><time>2026-04-04T07:12:54.288Z</time></trkpt><trkpt lat="43.8091819" lon="11.2552612"><ele>97.0</ele><time>2026-04-04T07:12:55.286Z</time></trkpt><trkpt lat="43.8092382" lon="11.2553084"><ele>97.0</ele><time>2026-04-04T07:12:56.287Z</time></trkpt><trkpt lat="43.8092952" lon="11.2553521"><ele>97.0</ele><time>2026-04-04T07:12:57.277Z</time></trkpt><trkpt lat="43.8093549" lon="11.2553901"><ele>97.0</ele><time>2026-04-04T07:12:58.284Z</time></trkpt><trkpt lat="43.8094184" lon="11.2554178"><ele>97.0</ele><time>2026-04-04T07:12:59.271Z</time></trkpt><trkpt lat="43.8094875" lon="11.2554275"><ele>97.0</ele><time>2026-04-04T07:13:00.272Z</time></trkpt><trkpt lat="43.8095536" lon="11.2554297"><ele>96.75</ele><time>2026-04-04T07:13:01.27Z</time></trkpt><trkpt lat="43.8096735" lon="11.255426"><ele>96.5</ele><time>2026-04-04T07:13:03.272Z</time></trkpt><trkpt lat="43.809782" lon="11.2555056"><ele>96.25</ele><time>2026-04-04T07:13:05.262Z</time></trkpt><trkpt lat="43.8098541" lon="11.2555925"><ele>96.0</ele><time>2026-04-04T07:13:06.269Z</time></trkpt><trkpt lat="43.8099158" lon="11.2557293"><ele>97.19999999999999</ele><time>2026-04-04T07:13:07.266Z</time></trkpt><trkpt lat="43.8099702" lon="11.2558622"><ele>98.39999999999999</ele><time>2026-04-04T07:13:08.267Z</time></trkpt><trkpt lat="43.810022" lon="11.2560009"><ele>99.6</ele><time>2026-04-04T07:13:09.269Z</time></trkpt><trkpt lat="43.8100778" lon="11.2561308"><ele>100.8</ele><time>2026-04-04T07:13:10.276Z</time></trkpt><trkpt lat="43.8101342" lon="11.2562506"><ele>102.0</ele><time>2026-04-04T07:13:11.284Z</time></trkpt><trkpt lat="43.8101901" lon="11.256364"><ele>103.66666666666667</ele><time>2026-04-04T07:13:12.288Z</time></trkpt><trkpt lat="43.8102399" lon="11.2564751"><ele>105.33333333333334</ele><time>2026-04-04T07:13:13.291Z</time></trkpt><trkpt lat="43.8102931" lon="11.2565753"><ele>107.0</ele><time>2026-04-04T07:13:14.291Z</time></trkpt><trkpt lat="43.810343" lon="11.2566587"><ele>108.66666666666667</ele><time>2026-04-04T07:13:15.285Z</time></trkpt><trkpt lat="43.8103877" lon="11.2567269"><ele>110.33333333333334</ele><time>2026-04-04T07:13:16.29Z</time></trkpt><trkpt lat="43.8104475" lon="11.2568159"><ele>112.0</ele><time>2026-04-04T07:13:18.287Z</time></trkpt><trkpt lat="43.8104846" lon="11.2568886"><ele>112.0</ele><time>2026-04-04T07:13:20.285Z</time></trkpt><trkpt lat="43.8105269" lon="11.2569686"><ele>111.99999999999999</ele><time>2026-04-04T07:13:22.275Z</time></trkpt><trkpt lat="43.8105345" lon="11.2570812"><ele>111.99999999999999</ele><time>2026-04-04T07:13:24.28Z</time></trkpt><trkpt lat="43.8105024" lon="11.2571894"><ele>112.0</ele><time>2026-04-04T07:13:26.268Z</time></trkpt><trkpt lat="43.8104056" lon="11.2573272"><ele>112.0</ele><time>2026-04-04T07:13:28.273Z</time></trkpt><trkpt lat="43.8103297" lon="11.2574073"><ele>112.8</ele><time>2026-04-04T07:13:29.277Z</time></trkpt><trkpt lat="43.8102512" lon="11.2574959"><ele>113.6</ele><time>2026-04-04T07:13:30.281Z</time></trkpt><trkpt lat="43.8101695" lon="11.2575894"><ele>114.39999999999999</ele><time>2026-04-04T07:13:31.279Z</time></trkpt><trkpt lat="43.810092" lon="11.25769"><ele>115.19999999999999</ele><time>2026-04-04T07:13:32.277Z</time></trkpt><trkpt lat="43.8100225" lon="11.257785"><ele>116.0</ele><time>2026-04-04T07:13:33.275Z</time></trkpt><trkpt lat="43.8099606" lon="11.2578744"><ele>115.19999999999999</ele><time>2026-04-04T07:13:34.273Z</time></trkpt><trkpt lat="43.8099074" lon="11.2579682"><ele>114.39999999999999</ele><time>2026-04-04T07:13:35.272Z</time></trkpt><trkpt lat="43.8098476" lon="11.2580749"><ele>113.6</ele><time>2026-04-04T07:13:36.269Z</time></trkpt><trkpt lat="43.809796" lon="11.2582025"><ele>112.8</ele><time>2026-04-04T07:13:37.278Z</time></trkpt><trkpt lat="43.8097399" lon="11.2583604"><ele>112.0</ele><time>2026-04-04T07:13:38.274Z</time></trkpt><trkpt lat="43.8096751" lon="11.2585371"><ele>112.0</ele><time>2026-04-04T07:13:39.274Z</time></trkpt><trkpt lat="43.8096085" lon="11.2587102"><ele>112.0</ele><time>2026-04-04T07:13:40.27Z</time></trkpt><trkpt lat="43.8095468" lon="11.25887"><ele>112.0</ele><time>2026-04-04T07:13:41.27Z</time></trkpt><trkpt lat="43.8094815" lon="11.2590192"><ele>112.0</ele><time>2026-04-04T07:13:42.277Z</time></trkpt><trkpt lat="43.8094157" lon="11.2591556"><ele>111.75</ele><time>2026-04-04T07:13:43.273Z</time></trkpt><trkpt lat="43.8093446" lon="11.2592851"><ele>111.5</ele><time>2026-04-04T07:13:44.276Z</time></trkpt><trkpt lat="43.8092725" lon="11.2594129"><ele>111.25</ele><time>2026-04-04T07:13:45.276Z</time></trkpt><trkpt lat="43.8091981" lon="11.259539"><ele>111.0</ele><time>2026-04-04T07:13:46.276Z</time></trkpt><trkpt lat="43.8091258" lon="11.2596592"><ele>111.0</ele><time>2026-04-04T07:13:47.277Z</time></trkpt><trkpt lat="43.8090559" lon="11.2597766"><ele>111.0</ele><time>2026-04-04T07:13:48.279Z</time></trkpt><trkpt lat="43.8089895" lon="11.2598898"><ele>111.0</ele><time>2026-04-04T07:13:49.274Z</time></trkpt><trkpt lat="43.8089275" lon="11.2600069"><ele>111.0</ele><time>2026-04-04T07:13:50.275Z</time></trkpt><trkpt lat="43.808875" lon="11.2601202"><ele>111.0</ele><time>2026-04-04T07:13:51.277Z</time></trkpt><trkpt lat="43.8088271" lon="11.2602324"><ele>111.83333333333333</ele><time>2026-04-04T07:13:52.281Z</time></trkpt><trkpt lat="43.8087796" lon="11.2603453"><ele>112.66666666666666</ele><time>2026-04-04T07:13:53.279Z</time></trkpt><trkpt lat="43.8087329" lon="11.2604574"><ele>113.5</ele><time>2026-04-04T07:13:54.282Z</time></trkpt><trkpt lat="43.8086919" lon="11.260564"><ele>114.33333333333333</ele><time>2026-04-04T07:13:55.288Z</time></trkpt><trkpt lat="43.8086594" lon="11.2606691"><ele>115.16666666666666</ele><time>2026-04-04T07:13:56.279Z</time></trkpt><trkpt lat="43.8086364" lon="11.2607719"><ele>116.0</ele><time>2026-04-04T07:13:57.274Z</time></trkpt><trkpt lat="43.8086162" lon="11.2608745"><ele>117.0</ele><time>2026-04-04T07:13:58.267Z</time></trkpt><trkpt lat="43.8086005" lon="11.2609632"><ele>118.0</ele><time>2026-04-04T07:13:59.27Z</time></trkpt><trkpt lat="43.8086094" lon="11.2610542"><ele>119.0</ele><time>2026-04-04T07:14:01.271Z</time></trkpt><trkpt lat="43.8087011" lon="11.261092"><ele>120.0</ele><time>2026-04-04T07:14:04.275Z</time></trkpt><trkpt lat="43.8088261" lon="11.2610861"><ele>121.0</ele><time>2026-04-04T07:14:06.276Z</time></trkpt><trkpt lat="43.8089348" lon="11.2610794"><ele>121.0</ele><time>2026-04-04T07:14:07.276Z</time></trkpt><trkpt lat="43.809067" lon="11.2610703"><ele>121.0</ele><time>2026-04-04T07:14:08.276Z</time></trkpt><trkpt lat="43.809194" lon="11.2610661"><ele>121.0</ele><time>2026-04-04T07:14:09.278Z</time></trkpt><trkpt lat="43.8093083" lon="11.2610625"><ele>121.0</ele><time>2026-04-04T07:14:10.275Z</time></trkpt><trkpt lat="43.8094138" lon="11.261063"><ele>123.33333333333334</ele><time>2026-04-04T07:14:11.273Z</time></trkpt><trkpt lat="43.809507" lon="11.2610781"><ele>125.66666666666667</ele><time>2026-04-04T07:14:12.276Z</time></trkpt><trkpt lat="43.809583" lon="11.2611134"><ele>128.0</ele><time>2026-04-04T07:14:13.277Z</time></trkpt><trkpt lat="43.8096273" lon="11.2611786"><ele>130.33333333333334</ele><time>2026-04-04T07:14:14.271Z</time></trkpt><trkpt lat="43.8096477" lon="11.2612776"><ele>132.66666666666666</ele><time>2026-04-04T07:14:15.265Z</time></trkpt><trkpt lat="43.809655" lon="11.2613786"><ele>135.0</ele><time>2026-04-04T07:14:16.271Z</time></trkpt><trkpt lat="43.8096687" lon="11.2614686"><ele>135.0</ele><time>2026-04-04T07:14:17.272Z</time></trkpt><trkpt lat="43.8097611" lon="11.2616011"><ele>135.0</ele><time>2026-04-04T07:14:19.273Z</time></trkpt><trkpt lat="43.809868" lon="11.2616516"><ele>135.0</ele><time>2026-04-04T07:14:20.271Z</time></trkpt><trkpt lat="43.8099721" lon="11.2617029"><ele>135.0</ele><time>2026-04-04T07:14:21.274Z</time></trkpt><trkpt lat="43.8100695" lon="11.2617391"><ele>135.0</ele><time>2026-04-04T07:14:22.276Z</time></trkpt><trkpt lat="43.8101548" lon="11.2617477"><ele>135.0</ele><time>2026-04-04T07:14:23.274Z</time></trkpt><trkpt lat="43.8102347" lon="11.2617348"><ele>135.0</ele><time>2026-04-04T07:14:24.269Z</time></trkpt><trkpt lat="43.8103129" lon="11.2617033"><ele>135.0</ele><time>2026-04-04T07:14:25.272Z</time></trkpt><trkpt lat="43.8103776" lon="11.2616725"><ele>135.0</ele><time>2026-04-04T07:14:26.277Z</time></trkpt><trkpt lat="43.810446" lon="11.261588"><ele>135.0</ele><time>2026-04-04T07:14:28.273Z</time></trkpt><trkpt lat="43.810451" lon="11.261471"><ele>138.8</ele><time>2026-04-04T07:14:30.285Z</time></trkpt><trkpt lat="43.81036" lon="11.2613038"><ele>142.6</ele><time>2026-04-04T07:14:32.267Z</time></trkpt><trkpt lat="43.8103009" lon="11.2612033"><ele>146.4</ele><time>2026-04-04T07:14:33.27Z</time></trkpt><trkpt lat="43.8102458" lon="11.2610828"><ele>150.2</ele><time>2026-04-04T07:14:34.27Z</time></trkpt><trkpt lat="43.8102089" lon="11.2609611"><ele>154.0</ele><time>2026-04-04T07:14:35.265Z</time></trkpt><trkpt lat="43.8101866" lon="11.2608496"><ele>154.0</ele><time>2026-04-04T07:14:36.268Z</time></trkpt><trkpt lat="43.8101851" lon="11.2607462"><ele>154.0</ele><time>2026-04-04T07:14:37.269Z</time></trkpt><trkpt lat="43.8101945" lon="11.2606491"><ele>154.0</ele><time>2026-04-04T07:14:38.271Z</time></trkpt><trkpt lat="43.8102252" lon="11.2605622"><ele>154.0</ele><time>2026-04-04T07:14:39.274Z</time></trkpt><trkpt lat="43.8102806" lon="11.2605069"><ele>154.0</ele><time>2026-04-04T07:14:40.269Z</time></trkpt><trkpt lat="43.8104016" lon="11.2605173"><ele>154.0</ele><time>2026-04-04T07:14:42.276Z</time></trkpt><trkpt lat="43.8104793" lon="11.2605803"><ele>154.0</ele><time>2026-04-04T07:14:43.273Z</time></trkpt><trkpt lat="43.8105721" lon="11.2606782"><ele>154.0</ele><time>2026-04-04T07:14:44.266Z</time></trkpt><trkpt lat="43.8106682" lon="11.2607907"><ele>154.0</ele><time>2026-04-04T07:14:45.264Z</time></trkpt><trkpt lat="43.8107724" lon="11.2609094"><ele>154.0</ele><time>2026-04-04T07:14:46.263Z</time></trkpt><trkpt lat="43.8108633" lon="11.2610143"><ele>154.0</ele><time>2026-04-04T07:14:47.263Z</time></trkpt><trkpt lat="43.8109368" lon="11.2611051"><ele>154.0</ele><time>2026-04-04T07:14:48.262Z</time></trkpt><trkpt lat="43.8110038" lon="11.2611888"><ele>154.0</ele><time>2026-04-04T07:14:49.258Z</time></trkpt><trkpt lat="43.811056" lon="11.2612687"><ele>154.0</ele><time>2026-04-04T07:14:50.264Z</time></trkpt><trkpt lat="43.8111152" lon="11.2614188"><ele>154.0</ele><time>2026-04-04T07:14:52.271Z</time></trkpt><trkpt lat="43.8111336" lon="11.261518"><ele>154.33333333333334</ele><time>2026-04-04T07:14:53.275Z</time></trkpt><trkpt lat="43.8111417" lon="11.2616307"><ele>154.66666666666669</ele><time>2026-04-04T07:14:54.273Z</time></trkpt><trkpt lat="43.8111311" lon="11.2617359"><ele>155.0</ele><time>2026-04-04T07:14:55.271Z</time></trkpt><trkpt lat="43.8110918" lon="11.2618374"><ele>155.33333333333334</ele><time>2026-04-04T07:14:56.268Z</time></trkpt><trkpt lat="43.8110396" lon="11.2619437"><ele>155.66666666666666</ele><time>2026-04-04T07:14:57.277Z</time></trkpt><trkpt lat="43.8109831" lon="11.2620497"><ele>156.0</ele><time>2026-04-04T07:14:58.271Z</time></trkpt><trkpt lat="43.8109257" lon="11.2621558"><ele>156.0</ele><time>2026-04-04T07:14:59.27Z</time></trkpt><trkpt lat="43.8108828" lon="11.2622651"><ele>156.0</ele><time>2026-04-04T07:15:00.27Z</time></trkpt><trkpt lat="43.8108493" lon="11.2623847"><ele>156.0</ele><time>2026-04-04T07:15:01.274Z</time></trkpt><trkpt lat="43.8108353" lon="11.2625223"><ele>156.0</ele><time>2026-04-04T07:15:02.27Z</time></trkpt><trkpt lat="43.8108317" lon="11.2626594"><ele>156.0</ele><time>2026-04-04T07:15:03.271Z</time></trkpt><trkpt lat="43.8108349" lon="11.2627895"><ele>157.2</ele><time>2026-04-04T07:15:04.272Z</time></trkpt><trkpt lat="43.8108481" lon="11.2629103"><ele>158.39999999999998</ele><time>2026-04-04T07:15:05.269Z</time></trkpt><trkpt lat="43.810868" lon="11.2630214"><ele>159.6</ele><time>2026-04-04T07:15:06.269Z</time></trkpt><trkpt lat="43.8109048" lon="11.2631234"><ele>160.79999999999998</ele><time>2026-04-04T07:15:07.272Z</time></trkpt><trkpt lat="43.8109635" lon="11.2632214"><ele>162.0</ele><time>2026-04-04T07:15:08.271Z</time></trkpt><trkpt lat="43.8110498" lon="11.2633098"><ele>167.25</ele><time>2026-04-04T07:15:09.263Z</time></trkpt><trkpt lat="43.8111483" lon="11.2633904"><ele>172.5</ele><time>2026-04-04T07:15:10.267Z</time></trkpt><trkpt lat="43.8112532" lon="11.2634738"><ele>177.75</ele><time>2026-04-04T07:15:11.261Z</time></trkpt><trkpt lat="43.8113728" lon="11.2635571"><ele>183.0</ele><time>2026-04-04T07:15:12.262Z</time></trkpt><trkpt lat="43.8115041" lon="11.2636399"><ele>183.0</ele><time>2026-04-04T07:15:13.262Z</time></trkpt><trkpt lat="43.811643" lon="11.2637202"><ele>183.0</ele><time>2026-04-04T07:15:14.262Z</time></trkpt><trkpt lat="43.8117738" lon="11.2638144"><ele>183.0</ele><time>2026-04-04T07:15:15.262Z</time></trkpt><trkpt lat="43.8119003" lon="11.2639054"><ele>183.0</ele><time>2026-04-04T07:15:16.273Z</time></trkpt><trkpt lat="43.8120163" lon="11.263988"><ele>185.25</ele><time>2026-04-04T07:15:17.271Z</time></trkpt><trkpt lat="43.812125" lon="11.2640661"><ele>187.5</ele><time>2026-04-04T07:15:18.271Z</time></trkpt><trkpt lat="43.8122334" lon="11.2641313"><ele>189.75</ele><time>2026-04-04T07:15:19.267Z</time></trkpt><trkpt lat="43.8123432" lon="11.264188"><ele>192.0</ele><time>2026-04-04T07:15:20.27Z</time></trkpt><trkpt lat="43.812453" lon="11.264244"><ele>192.0</ele><time>2026-04-04T07:15:21.271Z</time></trkpt><trkpt lat="43.8125629" lon="11.2643072"><ele>192.0</ele><time>2026-04-04T07:15:22.273Z</time></trkpt><trkpt lat="43.8126841" lon="11.2643759"><ele>192.0</ele><time>2026-04-04T07:15:23.277Z</time></trkpt><trkpt lat="43.8128053" lon="11.2644451"><ele>192.0</ele><time>2026-04-04T07:15:24.28Z</time></trkpt><trkpt lat="43.8129111" lon="11.264516"><ele>193.6</ele><time>2026-04-04T07:15:25.274Z</time></trkpt><trkpt lat="43.8130086" lon="11.2645915"><ele>195.2</ele><time>2026-04-04T07:15:26.273Z</time></trkpt><trkpt lat="43.8130958" lon="11.2646768"><ele>196.8</ele><time>2026-04-04T07:15:27.271Z</time></trkpt><trkpt lat="43.8131705" lon="11.2647634"><ele>198.4</ele><time>2026-04-04T07:15:28.277Z</time></trkpt><trkpt lat="43.8132346" lon="11.2648538"><ele>200.0</ele><time>2026-04-04T07:15:29.261Z</time></trkpt><trkpt lat="43.8132888" lon="11.2649661"><ele>200.0</ele><time>2026-04-04T07:15:30.273Z</time></trkpt><trkpt lat="43.8132876" lon="11.265102"><ele>200.0</ele><time>2026-04-04T07:15:31.272Z</time></trkpt><trkpt lat="43.8132464" lon="11.2652588"><ele>200.0</ele><time>2026-04-04T07:15:32.275Z</time></trkpt><trkpt lat="43.8131987" lon="11.2654111"><ele>200.0</ele><time>2026-04-04T07:15:33.27Z</time></trkpt><trkpt lat="43.813146" lon="11.2655476"><ele>200.2</ele><time>2026-04-04T07:15:34.273Z</time></trkpt><trkpt lat="43.813107" lon="11.2656834"><ele>200.4</ele><time>2026-04-04T07:15:35.267Z</time></trkpt><trkpt lat="43.8130669" lon="11.2658113"><ele>200.60000000000002</ele><time>2026-04-04T07:15:36.268Z</time></trkpt><trkpt lat="43.8130346" lon="11.2659372"><ele>200.8</ele><time>2026-04-04T07:15:37.265Z</time></trkpt><trkpt lat="43.8129995" lon="11.2660749"><ele>201.0</ele><time>2026-04-04T07:15:38.261Z</time></trkpt><trkpt lat="43.8129665" lon="11.2662236"><ele>201.0</ele><time>2026-04-04T07:15:39.263Z</time></trkpt><trkpt lat="43.8129434" lon="11.2663817"><ele>201.0</ele><time>2026-04-04T07:15:40.262Z</time></trkpt><trkpt lat="43.8129273" lon="11.2665325"><ele>201.0</ele><time>2026-04-04T07:15:41.267Z</time></trkpt><trkpt lat="43.8129194" lon="11.2666662"><ele>201.0</ele><time>2026-04-04T07:15:42.264Z</time></trkpt><trkpt lat="43.8129147" lon="11.2667745"><ele>201.0</ele><time>2026-04-04T07:15:43.269Z</time></trkpt><trkpt lat="43.8129114" lon="11.2668831"><ele>201.83333333333334</ele><time>2026-04-04T07:15:44.274Z</time></trkpt><trkpt lat="43.8129117" lon="11.2669945"><ele>202.66666666666669</ele><time>2026-04-04T07:15:45.272Z</time></trkpt><trkpt lat="43.8129104" lon="11.2671092"><ele>203.5</ele><time>2026-04-04T07:15:46.274Z</time></trkpt><trkpt lat="43.8129101" lon="11.267231"><ele>204.33333333333334</ele><time>2026-04-04T07:15:47.283Z</time></trkpt><trkpt lat="43.8129148" lon="11.2673551"><ele>205.16666666666669</ele><time>2026-04-04T07:15:48.281Z</time></trkpt><trkpt lat="43.8129189" lon="11.2674803"><ele>206.0</ele><time>2026-04-04T07:15:49.279Z</time></trkpt><trkpt lat="43.8129215" lon="11.2676044"><ele>207.33333333333334</ele><time>2026-04-04T07:15:50.282Z</time></trkpt><trkpt lat="43.8129216" lon="11.2677299"><ele>208.66666666666669</ele><time>2026-04-04T07:15:51.279Z</time></trkpt><trkpt lat="43.8129253" lon="11.2678527"><ele>210.0</ele><time>2026-04-04T07:15:52.272Z</time></trkpt><trkpt lat="43.8129324" lon="11.2679665"><ele>211.33333333333331</ele><time>2026-04-04T07:15:53.271Z</time></trkpt><trkpt lat="43.8129367" lon="11.2680754"><ele>212.66666666666666</ele><time>2026-04-04T07:15:54.276Z</time></trkpt><trkpt lat="43.8129381" lon="11.2681867"><ele>214.0</ele><time>2026-04-04T07:15:55.281Z</time></trkpt><trkpt lat="43.8129383" lon="11.2682948"><ele>214.99999999999997</ele><time>2026-04-04T07:15:56.277Z</time></trkpt><trkpt lat="43.8129425" lon="11.2683916"><ele>216.0</ele><time>2026-04-04T07:15:57.275Z</time></trkpt><trkpt lat="43.8129449" lon="11.2684838"><ele>217.0</ele><time>2026-04-04T07:15:58.274Z</time></trkpt><trkpt lat="43.8129461" lon="11.268587"><ele>218.0</ele><time>2026-04-04T07:15:59.288Z</time></trkpt><trkpt lat="43.8129513" lon="11.268709"><ele>218.99999999999997</ele><time>2026-04-04T07:16:00.283Z</time></trkpt><trkpt lat="43.812955" lon="11.2688311"><ele>220.0</ele><time>2026-04-04T07:16:01.286Z</time></trkpt><trkpt lat="43.8129575" lon="11.268952"><ele>220.66666666666666</ele><time>2026-04-04T07:16:02.289Z</time></trkpt><trkpt lat="43.8129591" lon="11.2690746"><ele>221.33333333333331</ele><time>2026-04-04T07:16:03.288Z</time></trkpt><trkpt lat="43.8129633" lon="11.2691912"><ele>222.0</ele><time>2026-04-04T07:16:04.297Z</time></trkpt><trkpt lat="43.8129779" lon="11.269302"><ele>222.66666666666669</ele><time>2026-04-04T07:16:05.286Z</time></trkpt><trkpt lat="43.8130017" lon="11.269409"><ele>223.33333333333334</ele><time>2026-04-04T07:16:06.28Z</time></trkpt><trkpt lat="43.8130384" lon="11.2695071"><ele>224.0</ele><time>2026-04-04T07:16:07.285Z</time></trkpt><trkpt lat="43.8130829" lon="11.2695997"><ele>224.0</ele><time>2026-04-04T07:16:08.284Z</time></trkpt><trkpt lat="43.8131488" lon="11.2696855"><ele>223.99999999999997</ele><time>2026-04-04T07:16:09.276Z</time></trkpt><trkpt lat="43.8132212" lon="11.2697808"><ele>223.99999999999997</ele><time>2026-04-04T07:16:10.27Z</time></trkpt><trkpt lat="43.8132951" lon="11.2698936"><ele>224.0</ele><time>2026-04-04T07:16:11.277Z</time></trkpt><trkpt lat="43.8133611" lon="11.270006"><ele>224.0</ele><time>2026-04-04T07:16:12.281Z</time></trkpt><trkpt lat="43.8134233" lon="11.2701035"><ele>223.83333333333334</ele><time>2026-04-04T07:16:13.276Z</time></trkpt><trkpt lat="43.813478" lon="11.270193"><ele>223.66666666666669</ele><time>2026-04-04T07:16:14.277Z</time></trkpt><trkpt lat="43.8135313" lon="11.2702777"><ele>223.5</ele><time>2026-04-04T07:16:15.278Z</time></trkpt><trkpt lat="43.8135801" lon="11.2703664"><ele>223.33333333333331</ele><time>2026-04-04T07:16:16.279Z</time></trkpt><trkpt lat="43.8136293" lon="11.2704598"><ele>223.16666666666666</ele><time>2026-04-04T07:16:17.282Z</time></trkpt><trkpt lat="43.8136796" lon="11.2705615"><ele>223.0</ele><time>2026-04-04T07:16:18.293Z</time></trkpt><trkpt lat="43.8137339" lon="11.2706689"><ele>224.99999999999997</ele><time>2026-04-04T07:16:19.286Z</time></trkpt><trkpt lat="43.8137859" lon="11.2707742"><ele>227.0</ele><time>2026-04-04T07:16:20.285Z</time></trkpt><trkpt lat="43.8138353" lon="11.270879"><ele>229.0</ele><time>2026-04-04T07:16:21.282Z</time></trkpt><trkpt lat="43.8138842" lon="11.2709811"><ele>231.0</ele><time>2026-04-04T07:16:22.283Z</time></trkpt><trkpt lat="43.8139327" lon="11.2710788"><ele>232.99999999999997</ele><time>2026-04-04T07:16:23.284Z</time></trkpt><trkpt lat="43.8139855" lon="11.2711683"><ele>235.0</ele><time>2026-04-04T07:16:24.284Z</time></trkpt><trkpt lat="43.814043" lon="11.2712551"><ele>234.99999999999997</ele><time>2026-04-04T07:16:25.274Z</time></trkpt><trkpt lat="43.8141012" lon="11.2713413"><ele>235.0</ele><time>2026-04-04T07:16:26.279Z</time></trkpt><trkpt lat="43.8141564" lon="11.2714267"><ele>235.0</ele><time>2026-04-04T07:16:27.28Z</time></trkpt><trkpt lat="43.8142109" lon="11.2715114"><ele>235.0</ele><time>2026-04-04T07:16:28.274Z</time></trkpt><trkpt lat="43.8142693" lon="11.271609"><ele>234.99999999999997</ele><time>2026-04-04T07:16:29.283Z</time></trkpt><trkpt lat="43.8143294" lon="11.2717213"><ele>235.0</ele><time>2026-04-04T07:16:30.278Z</time></trkpt><trkpt lat="43.8143913" lon="11.2718452"><ele>237.2</ele><time>2026-04-04T07:16:31.27Z</time></trkpt><trkpt lat="43.8144521" lon="11.2719639"><ele>239.4</ele><time>2026-04-04T07:16:32.263Z</time></trkpt><trkpt lat="43.8145063" lon="11.2720648"><ele>241.60000000000002</ele><time>2026-04-04T07:16:33.269Z</time></trkpt><trkpt lat="43.8145575" lon="11.2721656"><ele>243.8</ele><time>2026-04-04T07:16:34.269Z</time></trkpt><trkpt lat="43.8146205" lon="11.2722783"><ele>246.0</ele><time>2026-04-04T07:16:35.272Z</time></trkpt><trkpt lat="43.8147" lon="11.2724191"><ele>246.66666666666669</ele><time>2026-04-04T07:16:36.275Z</time></trkpt><trkpt lat="43.8147944" lon="11.2725822"><ele>247.33333333333334</ele><time>2026-04-04T07:16:37.273Z</time></trkpt><trkpt lat="43.8148969" lon="11.272745"><ele>248.0</ele><time>2026-04-04T07:16:38.272Z</time></trkpt><trkpt lat="43.8149888" lon="11.2728973"><ele>248.0</ele><time>2026-04-04T07:16:39.275Z</time></trkpt><trkpt lat="43.8150725" lon="11.2730232"><ele>248.0</ele><time>2026-04-04T07:16:40.279Z</time></trkpt><trkpt lat="43.8151506" lon="11.2731453"><ele>248.0</ele><time>2026-04-04T07:16:41.281Z</time></trkpt><trkpt lat="43.8152278" lon="11.2732681"><ele>248.0</ele><time>2026-04-04T07:16:42.281Z</time></trkpt><trkpt lat="43.8153053" lon="11.2733931"><ele>247.25</ele><time>2026-04-04T07:16:43.28Z</time></trkpt><trkpt lat="43.815382" lon="11.273517"><ele>246.5</ele><time>2026-04-04T07:16:44.28Z</time></trkpt><trkpt lat="43.815459" lon="11.2736452"><ele>245.75</ele><time>2026-04-04T07:16:45.282Z</time></trkpt><trkpt lat="43.8155346" lon="11.2737732"><ele>245.0</ele><time>2026-04-04T07:16:46.279Z</time></trkpt><trkpt lat="43.8156103" lon="11.2739006"><ele>245.6</ele><time>2026-04-04T07:16:47.28Z</time></trkpt><trkpt lat="43.8156826" lon="11.2740215"><ele>246.2</ele><time>2026-04-04T07:16:48.282Z</time></trkpt><trkpt lat="43.8157562" lon="11.274135"><ele>246.8</ele><time>2026-04-04T07:16:49.285Z</time></trkpt><trkpt lat="43.8158273" lon="11.2742418"><ele>247.4</ele><time>2026-04-04T07:16:50.284Z</time></trkpt><trkpt lat="43.8158949" lon="11.2743405"><ele>248.0</ele><time>2026-04-04T07:16:51.282Z</time></trkpt><trkpt lat="43.8159553" lon="11.2744422"><ele>248.8</ele><time>2026-04-04T07:16:52.282Z</time></trkpt><trkpt lat="43.8160156" lon="11.2745408"><ele>249.60000000000002</ele><time>2026-04-04T07:16:53.282Z</time></trkpt><trkpt lat="43.8160695" lon="11.2746268"><ele>250.39999999999998</ele><time>2026-04-04T07:16:54.276Z</time></trkpt><trkpt lat="43.8161166" lon="11.2747012"><ele>251.2</ele><time>2026-04-04T07:16:55.287Z</time></trkpt><trkpt lat="43.8162075" lon="11.27481"><ele>252.0</ele><time>2026-04-04T07:16:57.272Z</time></trkpt><trkpt lat="43.8163357" lon="11.2748501"><ele>252.0</ele><time>2026-04-04T07:16:59.28Z</time></trkpt><trkpt lat="43.8164236" lon="11.2748627"><ele>252.0</ele><time>2026-04-04T07:17:00.284Z</time></trkpt><trkpt lat="43.8165183" lon="11.2748852"><ele>252.0</ele><time>2026-04-04T07:17:01.27Z</time></trkpt><trkpt lat="43.8166147" lon="11.2749233"><ele>252.0</ele><time>2026-04-04T07:17:02.273Z</time></trkpt><trkpt lat="43.8166982" lon="11.2749913"><ele>252.0</ele><time>2026-04-04T07:17:03.27Z</time></trkpt><trkpt lat="43.8167608" lon="11.2750867"><ele>252.0</ele><time>2026-04-04T07:17:04.269Z</time></trkpt><trkpt lat="43.8168128" lon="11.2752028"><ele>252.0</ele><time>2026-04-04T07:17:05.273Z</time></trkpt><trkpt lat="43.8168563" lon="11.2753578"><ele>252.0</ele><time>2026-04-04T07:17:06.267Z</time></trkpt><trkpt lat="43.8168897" lon="11.2755079"><ele>252.0</ele><time>2026-04-04T07:17:07.269Z</time></trkpt><trkpt lat="43.8169182" lon="11.2756483"><ele>252.0</ele><time>2026-04-04T07:17:08.274Z</time></trkpt><trkpt lat="43.8169454" lon="11.275774"><ele>251.5</ele><time>2026-04-04T07:17:09.281Z</time></trkpt><trkpt lat="43.8169746" lon="11.2758847"><ele>251.0</ele><time>2026-04-04T07:17:10.28Z</time></trkpt><trkpt lat="43.8169974" lon="11.275988"><ele>250.5</ele><time>2026-04-04T07:17:11.274Z</time></trkpt><trkpt lat="43.8170125" lon="11.2760979"><ele>250.0</ele><time>2026-04-04T07:17:12.277Z</time></trkpt><trkpt lat="43.8170215" lon="11.2762118"><ele>249.5</ele><time>2026-04-04T07:17:13.272Z</time></trkpt><trkpt lat="43.8170292" lon="11.2763296"><ele>249.0</ele><time>2026-04-04T07:17:14.272Z</time></trkpt><trkpt lat="43.8170308" lon="11.2764454"><ele>249.16666666666666</ele><time>2026-04-04T07:17:15.269Z</time></trkpt><trkpt lat="43.817015" lon="11.2765541"><ele>249.33333333333331</ele><time>2026-04-04T07:17:16.273Z</time></trkpt><trkpt lat="43.8169704" lon="11.2766544"><ele>249.5</ele><time>2026-04-04T07:17:17.275Z</time></trkpt><trkpt lat="43.8169107" lon="11.2767461"><ele>249.66666666666666</ele><time>2026-04-04T07:17:18.278Z</time></trkpt><trkpt lat="43.816849" lon="11.276833"><ele>249.83333333333331</ele><time>2026-04-04T07:17:19.268Z</time></trkpt><trkpt lat="43.8167973" lon="11.2769047"><ele>250.0</ele><time>2026-04-04T07:17:20.273Z</time></trkpt><trkpt lat="43.8167504" lon="11.2769772"><ele>249.99999999999997</ele><time>2026-04-04T07:17:21.272Z</time></trkpt><trkpt lat="43.8167071" lon="11.2770559"><ele>250.0</ele><time>2026-04-04T07:17:22.27Z</time></trkpt><trkpt lat="43.8166578" lon="11.2771336"><ele>250.0</ele><time>2026-04-04T07:17:23.272Z</time></trkpt><trkpt lat="43.8166074" lon="11.2772236"><ele>250.0</ele><time>2026-04-04T07:17:24.283Z</time></trkpt><trkpt lat="43.8165578" lon="11.2773221"><ele>249.99999999999997</ele><time>2026-04-04T07:17:25.272Z</time></trkpt><trkpt lat="43.816512" lon="11.2774279"><ele>250.0</ele><time>2026-04-04T07:17:26.28Z</time></trkpt><trkpt lat="43.8164672" lon="11.2775476"><ele>250.2</ele><time>2026-04-04T07:17:27.277Z</time></trkpt><trkpt lat="43.8164281" lon="11.2776806"><ele>250.4</ele><time>2026-04-04T07:17:28.281Z</time></trkpt><trkpt lat="43.8163948" lon="11.2778182"><ele>250.60000000000002</ele><time>2026-04-04T07:17:29.276Z</time></trkpt><trkpt lat="43.8163687" lon="11.2779465"><ele>250.8</ele><time>2026-04-04T07:17:30.273Z</time></trkpt><trkpt lat="43.816345" lon="11.2780739"><ele>251.0</ele><time>2026-04-04T07:17:31.279Z</time></trkpt><trkpt lat="43.8163191" lon="11.2781972"><ele>251.20000000000002</ele><time>2026-04-04T07:17:32.271Z</time></trkpt><trkpt lat="43.8162939" lon="11.2783273"><ele>251.40000000000003</ele><time>2026-04-04T07:17:33.272Z</time></trkpt><trkpt lat="43.8162678" lon="11.2784552"><ele>251.6</ele><time>2026-04-04T07:17:34.273Z</time></trkpt><trkpt lat="43.8162422" lon="11.2785869"><ele>251.8</ele><time>2026-04-04T07:17:35.271Z</time></trkpt><trkpt lat="43.8162148" lon="11.2787208"><ele>252.0</ele><time>2026-04-04T07:17:36.274Z</time></trkpt><trkpt lat="43.8161877" lon="11.2788557"><ele>252.0</ele><time>2026-04-04T07:17:37.281Z</time></trkpt><trkpt lat="43.8161624" lon="11.278992"><ele>252.0</ele><time>2026-04-04T07:17:38.274Z</time></trkpt><trkpt lat="43.8161389" lon="11.2791266"><ele>252.0</ele><time>2026-04-04T07:17:39.275Z</time></trkpt><trkpt lat="43.8161152" lon="11.2792503"><ele>252.0</ele><time>2026-04-04T07:17:40.274Z</time></trkpt><trkpt lat="43.8160955" lon="11.2793625"><ele>252.0</ele><time>2026-04-04T07:17:41.272Z</time></trkpt><trkpt lat="43.8160788" lon="11.279458"><ele>252.0</ele><time>2026-04-04T07:17:42.272Z</time></trkpt><trkpt lat="43.8160535" lon="11.2795886"><ele>252.0</ele><time>2026-04-04T07:17:44.272Z</time></trkpt><trkpt lat="43.8160343" lon="11.279694"><ele>252.0</ele><time>2026-04-04T07:17:47.28Z</time></trkpt><trkpt lat="43.8160249" lon="11.2798041"><ele>252.0</ele><time>2026-04-04T07:17:56.28Z</time></trkpt><trkpt lat="43.8159731" lon="11.2798644"><ele>252.0</ele><time>2026-04-04T07:17:59.277Z</time></trkpt><trkpt lat="43.81591" lon="11.2798551"><ele>252.0</ele><time>2026-04-04T07:19:22.281Z</time></trkpt><trkpt lat="43.8158441" lon="11.2799129"><ele>252.0</ele><time>2026-04-04T07:19:54.288Z</time></trkpt><trkpt lat="43.815777" lon="11.2799095"><ele>252.0</ele><time>2026-04-04T07:19:55.287Z</time></trkpt><trkpt lat="43.815674" lon="11.2799043"><ele>249.25</ele><time>2026-04-04T07:19:56.281Z</time></trkpt><trkpt lat="43.8155472" lon="11.2799401"><ele>246.5</ele><time>2026-04-04T07:19:57.275Z</time></trkpt><trkpt lat="43.8154182" lon="11.2800068"><ele>243.75</ele><time>2026-04-04T07:19:58.282Z</time></trkpt><trkpt lat="43.8153011" lon="11.2801138"><ele>241.0</ele><time>2026-04-04T07:19:59.282Z</time></trkpt><trkpt lat="43.8152112" lon="11.2802715"><ele>240.66666666666666</ele><time>2026-04-04T07:20:00.277Z</time></trkpt><trkpt lat="43.8151403" lon="11.2804623"><ele>240.33333333333331</ele><time>2026-04-04T07:20:01.276Z</time></trkpt><trkpt lat="43.8150886" lon="11.28067"><ele>240.0</ele><time>2026-04-04T07:20:02.273Z</time></trkpt><trkpt lat="43.8150634" lon="11.2808935"><ele>240.75</ele><time>2026-04-04T07:20:03.268Z</time></trkpt><trkpt lat="43.8150731" lon="11.2810947"><ele>241.5</ele><time>2026-04-04T07:20:04.272Z</time></trkpt><trkpt lat="43.8150914" lon="11.2812755"><ele>242.25</ele><time>2026-04-04T07:20:05.28Z</time></trkpt><trkpt lat="43.815112" lon="11.2814407"><ele>243.0</ele><time>2026-04-04T07:20:06.275Z</time></trkpt><trkpt lat="43.8151377" lon="11.2816186"><ele>242.0</ele><time>2026-04-04T07:20:07.277Z</time></trkpt><trkpt lat="43.8151631" lon="11.2818048"><ele>241.0</ele><time>2026-04-04T07:20:08.276Z</time></trkpt><trkpt lat="43.8151882" lon="11.2819964"><ele>240.0</ele><time>2026-04-04T07:20:09.274Z</time></trkpt><trkpt lat="43.8152082" lon="11.2821967"><ele>239.0</ele><time>2026-04-04T07:20:10.275Z</time></trkpt><trkpt lat="43.8152361" lon="11.2824055"><ele>236.5</ele><time>2026-04-04T07:20:11.275Z</time></trkpt><trkpt lat="43.8152651" lon="11.2826311"><ele>234.0</ele><time>2026-04-04T07:20:12.28Z</time></trkpt><trkpt lat="43.8152958" lon="11.2828338"><ele>231.5</ele><time>2026-04-04T07:20:13.275Z</time></trkpt><trkpt lat="43.8153219" lon="11.2830152"><ele>229.0</ele><time>2026-04-04T07:20:14.279Z</time></trkpt><trkpt lat="43.8153421" lon="11.2831946"><ele>227.25</ele><time>2026-04-04T07:20:15.278Z</time></trkpt><trkpt lat="43.8153621" lon="11.2833743"><ele>225.5</ele><time>2026-04-04T07:20:16.278Z</time></trkpt><trkpt lat="43.8153853" lon="11.2835524"><ele>223.75</ele><time>2026-04-04T07:20:17.277Z</time></trkpt><trkpt lat="43.8154073" lon="11.2837413"><ele>222.0</ele><time>2026-04-04T07:20:18.279Z</time></trkpt><trkpt lat="43.8154279" lon="11.2839275"><ele>221.75</ele><time>2026-04-04T07:20:19.278Z</time></trkpt><trkpt lat="43.8154502" lon="11.2841082"><ele>221.5</ele><time>2026-04-04T07:20:20.286Z</time></trkpt><trkpt lat="43.8154759" lon="11.2842846"><ele>221.25</ele><time>2026-04-04T07:20:21.279Z</time></trkpt><trkpt lat="43.8155" lon="11.2844582"><ele>221.0</ele><time>2026-04-04T07:20:22.279Z</time></trkpt><trkpt lat="43.8155243" lon="11.28464"><ele>221.25</ele><time>2026-04-04T07:20:23.278Z</time></trkpt><trkpt lat="43.8155443" lon="11.2848318"><ele>221.5</ele><time>2026-04-04T07:20:24.282Z</time></trkpt><trkpt lat="43.8155603" lon="11.2850325"><ele>221.75</ele><time>2026-04-04T07:20:25.277Z</time></trkpt><trkpt lat="43.8155603" lon="11.2852333"><ele>222.0</ele><time>2026-04-04T07:20:26.277Z</time></trkpt><trkpt lat="43.815541" lon="11.2854408"><ele>221.0</ele><time>2026-04-04T07:20:27.276Z</time></trkpt><trkpt lat="43.815503" lon="11.2856386"><ele>220.0</ele><time>2026-04-04T07:20:28.275Z</time></trkpt><trkpt lat="43.8154554" lon="11.2858138"><ele>219.0</ele><time>2026-04-04T07:20:29.277Z</time></trkpt><trkpt lat="43.8153805" lon="11.2859584"><ele>218.0</ele><time>2026-04-04T07:20:30.278Z</time></trkpt><trkpt lat="43.815303" lon="11.2860852"><ele>218.0</ele><time>2026-04-04T07:20:31.278Z</time></trkpt><trkpt lat="43.815222" lon="11.2861965"><ele>218.0</ele><time>2026-04-04T07:20:32.274Z</time></trkpt><trkpt lat="43.8151408" lon="11.2862799"><ele>218.0</ele><time>2026-04-04T07:20:33.274Z</time></trkpt><trkpt lat="43.8150465" lon="11.2863426"><ele>218.0</ele><time>2026-04-04T07:20:34.281Z</time></trkpt><trkpt lat="43.8149416" lon="11.2863814"><ele>218.0</ele><time>2026-04-04T07:20:35.279Z</time></trkpt><trkpt lat="43.8148136" lon="11.2863513"><ele>219.0</ele><time>2026-04-04T07:20:36.285Z</time></trkpt><trkpt lat="43.814684" lon="11.2863123"><ele>220.0</ele><time>2026-04-04T07:20:37.268Z</time></trkpt><trkpt lat="43.8145541" lon="11.2862416"><ele>221.0</ele><time>2026-04-04T07:20:38.271Z</time></trkpt><trkpt lat="43.8144475" lon="11.2861144"><ele>222.0</ele><time>2026-04-04T07:20:39.265Z</time></trkpt><trkpt lat="43.8143585" lon="11.2859829"><ele>220.8</ele><time>2026-04-04T07:20:40.272Z</time></trkpt><trkpt lat="43.8142887" lon="11.2858692"><ele>219.6</ele><time>2026-04-04T07:20:41.264Z</time></trkpt><trkpt lat="43.8142272" lon="11.285749"><ele>218.40000000000003</ele><time>2026-04-04T07:20:42.269Z</time></trkpt><trkpt lat="43.8141723" lon="11.2856197"><ele>217.20000000000002</ele><time>2026-04-04T07:20:43.269Z</time></trkpt><trkpt lat="43.8141296" lon="11.2854798"><ele>216.0</ele><time>2026-04-04T07:20:44.266Z</time></trkpt><trkpt lat="43.814089" lon="11.2853323"><ele>216.0</ele><time>2026-04-04T07:20:45.265Z</time></trkpt><trkpt lat="43.8140521" lon="11.2851727"><ele>216.0</ele><time>2026-04-04T07:20:46.271Z</time></trkpt><trkpt lat="43.8140062" lon="11.2850202"><ele>216.0</ele><time>2026-04-04T07:20:47.273Z</time></trkpt><trkpt lat="43.8139515" lon="11.2848742"><ele>216.0</ele><time>2026-04-04T07:20:48.277Z</time></trkpt><trkpt lat="43.8138782" lon="11.2847404"><ele>213.5</ele><time>2026-04-04T07:20:49.268Z</time></trkpt><trkpt lat="43.8137834" lon="11.284625"><ele>211.0</ele><time>2026-04-04T07:20:50.264Z</time></trkpt><trkpt lat="43.8136763" lon="11.2845092"><ele>208.5</ele><time>2026-04-04T07:20:51.262Z</time></trkpt><trkpt lat="43.8135551" lon="11.2844014"><ele>206.0</ele><time>2026-04-04T07:20:52.26Z</time></trkpt><trkpt lat="43.8134355" lon="11.2842857"><ele>206.0</ele><time>2026-04-04T07:20:53.264Z</time></trkpt><trkpt lat="43.8133129" lon="11.2841559"><ele>206.0</ele><time>2026-04-04T07:20:54.268Z</time></trkpt><trkpt lat="43.8131929" lon="11.2839997"><ele>206.0</ele><time>2026-04-04T07:20:55.268Z</time></trkpt><trkpt lat="43.813076" lon="11.2838635"><ele>204.25</ele><time>2026-04-04T07:20:56.265Z</time></trkpt><trkpt lat="43.8129638" lon="11.283758"><ele>202.5</ele><time>2026-04-04T07:20:57.262Z</time></trkpt><trkpt lat="43.8128511" lon="11.2836845"><ele>200.75</ele><time>2026-04-04T07:20:58.266Z</time></trkpt><trkpt lat="43.8127402" lon="11.2835987"><ele>199.0</ele><time>2026-04-04T07:20:59.268Z</time></trkpt><trkpt lat="43.8126387" lon="11.2835189"><ele>199.0</ele><time>2026-04-04T07:21:00.269Z</time></trkpt><trkpt lat="43.8125329" lon="11.2834115"><ele>199.0</ele><time>2026-04-04T07:21:01.268Z</time></trkpt><trkpt lat="43.8124397" lon="11.2832845"><ele>199.0</ele><time>2026-04-04T07:21:02.267Z</time></trkpt><trkpt lat="43.8123564" lon="11.2831577"><ele>199.0</ele><time>2026-04-04T07:21:03.269Z</time></trkpt><trkpt lat="43.8122777" lon="11.2830322"><ele>205.25</ele><time>2026-04-04T07:21:04.265Z</time></trkpt><trkpt lat="43.8121949" lon="11.2829092"><ele>211.5</ele><time>2026-04-04T07:21:05.265Z</time></trkpt><trkpt lat="43.8121066" lon="11.2827978"><ele>217.75</ele><time>2026-04-04T07:21:06.264Z</time></trkpt><trkpt lat="43.8120169" lon="11.2827021"><ele>224.0</ele><time>2026-04-04T07:21:07.266Z</time></trkpt><trkpt lat="43.8119141" lon="11.2826333"><ele>217.25</ele><time>2026-04-04T07:21:08.252Z</time></trkpt><trkpt lat="43.8118054" lon="11.2825653"><ele>210.5</ele><time>2026-04-04T07:21:09.258Z</time></trkpt><trkpt lat="43.8116869" lon="11.2824958"><ele>203.75</ele><time>2026-04-04T07:21:10.258Z</time></trkpt><trkpt lat="43.8115618" lon="11.2824312"><ele>197.0</ele><time>2026-04-04T07:21:11.259Z</time></trkpt><trkpt lat="43.8114414" lon="11.2823626"><ele>197.0</ele><time>2026-04-04T07:21:12.257Z</time></trkpt><trkpt lat="43.811325" lon="11.2822955"><ele>197.0</ele><time>2026-04-04T07:21:13.258Z</time></trkpt><trkpt lat="43.8112077" lon="11.2822362"><ele>197.0</ele><time>2026-04-04T07:21:14.264Z</time></trkpt><trkpt lat="43.8110844" lon="11.2821887"><ele>197.0</ele><time>2026-04-04T07:21:15.26Z</time></trkpt><trkpt lat="43.8109751" lon="11.2821307"><ele>196.25</ele><time>2026-04-04T07:21:16.264Z</time></trkpt><trkpt lat="43.810856" lon="11.282074"><ele>195.5</ele><time>2026-04-04T07:21:17.264Z</time></trkpt><trkpt lat="43.8107484" lon="11.2820176"><ele>194.75</ele><time>2026-04-04T07:21:18.266Z</time></trkpt><trkpt lat="43.8106464" lon="11.281952"><ele>194.0</ele><time>2026-04-04T07:21:19.261Z</time></trkpt><trkpt lat="43.8105492" lon="11.281881"><ele>194.0</ele><time>2026-04-04T07:21:20.265Z</time></trkpt><trkpt lat="43.8104566" lon="11.2818025"><ele>194.0</ele><time>2026-04-04T07:21:21.265Z</time></trkpt><trkpt lat="43.8103642" lon="11.2817145"><ele>194.0</ele><time>2026-04-04T07:21:22.268Z</time></trkpt><trkpt lat="43.8102731" lon="11.2816189"><ele>194.0</ele><time>2026-04-04T07:21:23.271Z</time></trkpt><trkpt lat="43.8101865" lon="11.2814931"><ele>191.25</ele><time>2026-04-04T07:21:24.268Z</time></trkpt><trkpt lat="43.8100992" lon="11.2813438"><ele>188.5</ele><time>2026-04-04T07:21:25.271Z</time></trkpt><trkpt lat="43.8100091" lon="11.2811867"><ele>185.75</ele><time>2026-04-04T07:21:26.27Z</time></trkpt><trkpt lat="43.8099198" lon="11.2810409"><ele>183.0</ele><time>2026-04-04T07:21:27.267Z</time></trkpt><trkpt lat="43.8098312" lon="11.2808984"><ele>183.0</ele><time>2026-04-04T07:21:28.266Z</time></trkpt><trkpt lat="43.809742" lon="11.2807658"><ele>183.0</ele><time>2026-04-04T07:21:29.268Z</time></trkpt><trkpt lat="43.8096556" lon="11.2806364"><ele>183.0</ele><time>2026-04-04T07:21:30.267Z</time></trkpt><trkpt lat="43.809578" lon="11.2805151"><ele>183.0</ele><time>2026-04-04T07:21:31.265Z</time></trkpt><trkpt lat="43.8095075" lon="11.2803976"><ele>187.5</ele><time>2026-04-04T07:21:32.267Z</time></trkpt><trkpt lat="43.8094571" lon="11.2802592"><ele>192.0</ele><time>2026-04-04T07:21:33.263Z</time></trkpt><trkpt lat="43.8094305" lon="11.2801023"><ele>196.5</ele><time>2026-04-04T07:21:34.262Z</time></trkpt><trkpt lat="43.8094151" lon="11.2799396"><ele>201.0</ele><time>2026-04-04T07:21:35.261Z</time></trkpt><trkpt lat="43.809404" lon="11.2797871"><ele>204.20000000000002</ele><time>2026-04-04T07:21:36.264Z</time></trkpt><trkpt lat="43.8093934" lon="11.2796471"><ele>207.4</ele><time>2026-04-04T07:21:37.264Z</time></trkpt><trkpt lat="43.8093708" lon="11.2795143"><ele>210.6</ele><time>2026-04-04T07:21:38.274Z</time></trkpt><trkpt lat="43.8093334" lon="11.2794004"><ele>213.8</ele><time>2026-04-04T07:21:39.266Z</time></trkpt><trkpt lat="43.8092536" lon="11.2793243"><ele>217.0</ele><time>2026-04-04T07:21:40.265Z</time></trkpt><trkpt lat="43.8091555" lon="11.2792719"><ele>214.0</ele><time>2026-04-04T07:21:41.262Z</time></trkpt><trkpt lat="43.8090574" lon="11.2792292"><ele>211.0</ele><time>2026-04-04T07:21:42.257Z</time></trkpt><trkpt lat="43.8089654" lon="11.2791841"><ele>208.0</ele><time>2026-04-04T07:21:43.253Z</time></trkpt><trkpt lat="43.8088782" lon="11.2791125"><ele>205.0</ele><time>2026-04-04T07:21:44.259Z</time></trkpt><trkpt lat="43.8087949" lon="11.2790131"><ele>202.0</ele><time>2026-04-04T07:21:45.26Z</time></trkpt><trkpt lat="43.8087195" lon="11.2788873"><ele>202.0</ele><time>2026-04-04T07:21:46.262Z</time></trkpt><trkpt lat="43.8086532" lon="11.2787592"><ele>202.0</ele><time>2026-04-04T07:21:47.263Z</time></trkpt><trkpt lat="43.8085873" lon="11.2786329"><ele>202.0</ele><time>2026-04-04T07:21:48.269Z</time></trkpt><trkpt lat="43.8085222" lon="11.2785062"><ele>202.0</ele><time>2026-04-04T07:21:49.263Z</time></trkpt><trkpt lat="43.8084566" lon="11.2783832"><ele>202.0</ele><time>2026-04-04T07:21:50.268Z</time></trkpt><trkpt lat="43.808392" lon="11.2782616"><ele>192.5</ele><time>2026-04-04T07:21:51.265Z</time></trkpt><trkpt lat="43.8083297" lon="11.2781382"><ele>183.0</ele><time>2026-04-04T07:21:52.265Z</time></trkpt><trkpt lat="43.8082703" lon="11.2780061"><ele>173.5</ele><time>2026-04-04T07:21:53.268Z</time></trkpt><trkpt lat="43.8082197" lon="11.2778576"><ele>164.0</ele><time>2026-04-04T07:21:54.267Z</time></trkpt><trkpt lat="43.8081775" lon="11.2776985"><ele>164.0</ele><time>2026-04-04T07:21:55.269Z</time></trkpt><trkpt lat="43.8081505" lon="11.2775288"><ele>164.0</ele><time>2026-04-04T07:21:56.27Z</time></trkpt><trkpt lat="43.808135" lon="11.2773512"><ele>164.0</ele><time>2026-04-04T07:21:57.277Z</time></trkpt><trkpt lat="43.8081118" lon="11.2771787"><ele>164.0</ele><time>2026-04-04T07:21:58.285Z</time></trkpt><trkpt lat="43.8080836" lon="11.2770125"><ele>164.25</ele><time>2026-04-04T07:21:59.282Z</time></trkpt><trkpt lat="43.8080406" lon="11.2768584"><ele>164.5</ele><time>2026-04-04T07:22:00.279Z</time></trkpt><trkpt lat="43.8079853" lon="11.2767139"><ele>164.75</ele><time>2026-04-04T07:22:01.276Z</time></trkpt><trkpt lat="43.8079215" lon="11.2765797"><ele>165.0</ele><time>2026-04-04T07:22:02.287Z</time></trkpt><trkpt lat="43.8078451" lon="11.2764603"><ele>164.25</ele><time>2026-04-04T07:22:03.28Z</time></trkpt><trkpt lat="43.8077577" lon="11.2763605"><ele>163.5</ele><time>2026-04-04T07:22:04.28Z</time></trkpt><trkpt lat="43.8076646" lon="11.2762741"><ele>162.75</ele><time>2026-04-04T07:22:05.281Z</time></trkpt><trkpt lat="43.8075636" lon="11.2761925"><ele>162.0</ele><time>2026-04-04T07:22:06.273Z</time></trkpt><trkpt lat="43.8074638" lon="11.2761143"><ele>159.79999999999998</ele><time>2026-04-04T07:22:07.277Z</time></trkpt><trkpt lat="43.8073679" lon="11.2760349"><ele>157.6</ele><time>2026-04-04T07:22:08.276Z</time></trkpt><trkpt lat="43.8072763" lon="11.2759529"><ele>155.39999999999998</ele><time>2026-04-04T07:22:09.282Z</time></trkpt><trkpt lat="43.8071858" lon="11.2758677"><ele>153.2</ele><time>2026-04-04T07:22:10.275Z</time></trkpt><trkpt lat="43.8070957" lon="11.2757762"><ele>151.0</ele><time>2026-04-04T07:22:11.276Z</time></trkpt><trkpt lat="43.8070118" lon="11.2756747"><ele>150.6</ele><time>2026-04-04T07:22:12.275Z</time></trkpt><trkpt lat="43.806937" lon="11.2755645"><ele>150.2</ele><time>2026-04-04T07:22:13.276Z</time></trkpt><trkpt lat="43.8068721" lon="11.2754463"><ele>149.8</ele><time>2026-04-04T07:22:14.275Z</time></trkpt><trkpt lat="43.8068123" lon="11.2753247"><ele>149.4</ele><time>2026-04-04T07:22:15.281Z</time></trkpt><trkpt lat="43.8067592" lon="11.2752068"><ele>149.0</ele><time>2026-04-04T07:22:16.275Z</time></trkpt><trkpt lat="43.806708" lon="11.2750899"><ele>149.0</ele><time>2026-04-04T07:22:17.275Z</time></trkpt><trkpt lat="43.8066629" lon="11.2749868"><ele>149.0</ele><time>2026-04-04T07:22:18.275Z</time></trkpt><trkpt lat="43.8066157" lon="11.2748893"><ele>149.0</ele><time>2026-04-04T07:22:19.277Z</time></trkpt><trkpt lat="43.8065733" lon="11.2747846"><ele>149.0</ele><time>2026-04-04T07:22:20.281Z</time></trkpt><trkpt lat="43.8065363" lon="11.2746819"><ele>149.0</ele><time>2026-04-04T07:22:21.281Z</time></trkpt><trkpt lat="43.8065014" lon="11.2745877"><ele>149.0</ele><time>2026-04-04T07:22:22.278Z</time></trkpt><trkpt lat="43.8064568" lon="11.2744962"><ele>148.6</ele><time>2026-04-04T07:22:23.274Z</time></trkpt><trkpt lat="43.8064038" lon="11.274392"><ele>148.2</ele><time>2026-04-04T07:22:24.276Z</time></trkpt><trkpt lat="43.8063425" lon="11.2742749"><ele>147.79999999999998</ele><time>2026-04-04T07:22:25.276Z</time></trkpt><trkpt lat="43.8062749" lon="11.274146"><ele>147.4</ele><time>2026-04-04T07:22:26.276Z</time></trkpt><trkpt lat="43.8062015" lon="11.274003"><ele>147.0</ele><time>2026-04-04T07:22:27.27Z</time></trkpt><trkpt lat="43.806119" lon="11.2738507"><ele>146.5</ele><time>2026-04-04T07:22:28.284Z</time></trkpt><trkpt lat="43.8060363" lon="11.2736955"><ele>146.0</ele><time>2026-04-04T07:22:29.275Z</time></trkpt><trkpt lat="43.8059565" lon="11.2735452"><ele>145.5</ele><time>2026-04-04T07:22:30.275Z</time></trkpt><trkpt lat="43.805882" lon="11.2734014"><ele>145.0</ele><time>2026-04-04T07:22:31.277Z</time></trkpt><trkpt lat="43.8058163" lon="11.2732642"><ele>145.25</ele><time>2026-04-04T07:22:32.276Z</time></trkpt><trkpt lat="43.8057506" lon="11.2731222"><ele>145.5</ele><time>2026-04-04T07:22:33.276Z</time></trkpt><trkpt lat="43.8056853" lon="11.2729769"><ele>145.75</ele><time>2026-04-04T07:22:34.272Z</time></trkpt><trkpt lat="43.8056246" lon="11.272837"><ele>146.0</ele><time>2026-04-04T07:22:35.278Z</time></trkpt><trkpt lat="43.8055582" lon="11.2727037"><ele>146.0</ele><time>2026-04-04T07:22:36.275Z</time></trkpt><trkpt lat="43.8054955" lon="11.2725738"><ele>146.0</ele><time>2026-04-04T07:22:37.271Z</time></trkpt><trkpt lat="43.8054287" lon="11.2724498"><ele>146.0</ele><time>2026-04-04T07:22:38.266Z</time></trkpt><trkpt lat="43.805365" lon="11.2723377"><ele>146.0</ele><time>2026-04-04T07:22:39.271Z</time></trkpt><trkpt lat="43.8053027" lon="11.2722432"><ele>146.0</ele><time>2026-04-04T07:22:40.277Z</time></trkpt><trkpt lat="43.805245" lon="11.2721521"><ele>145.66666666666666</ele><time>2026-04-04T07:22:41.265Z</time></trkpt><trkpt lat="43.805185" lon="11.2720647"><ele>145.33333333333331</ele><time>2026-04-04T07:22:42.268Z</time></trkpt><trkpt lat="43.8051292" lon="11.2719795"><ele>145.0</ele><time>2026-04-04T07:22:43.27Z</time></trkpt><trkpt lat="43.8050774" lon="11.2718985"><ele>144.66666666666666</ele><time>2026-04-04T07:22:44.271Z</time></trkpt><trkpt lat="43.8050264" lon="11.2718221"><ele>144.33333333333334</ele><time>2026-04-04T07:22:45.267Z</time></trkpt><trkpt lat="43.8049758" lon="11.2717525"><ele>144.0</ele><time>2026-04-04T07:22:46.27Z</time></trkpt><trkpt lat="43.8049241" lon="11.2716936"><ele>144.0</ele><time>2026-04-04T07:22:47.271Z</time></trkpt><trkpt lat="43.8048314" lon="11.2715961"><ele>144.0</ele><time>2026-04-04T07:22:49.271Z</time></trkpt><trkpt lat="43.8047469" lon="11.2715349"><ele>144.0</ele><time>2026-04-04T07:22:51.267Z</time></trkpt><trkpt lat="43.804661" lon="11.2714803"><ele>144.0</ele><time>2026-04-04T07:22:53.271Z</time></trkpt><trkpt lat="43.8045792" lon="11.2714055"><ele>144.0</ele><time>2026-04-04T07:22:55.269Z</time></trkpt><trkpt lat="43.8045029" lon="11.2713403"><ele>144.0</ele><time>2026-04-04T07:22:57.263Z</time></trkpt><trkpt lat="43.8044346" lon="11.2713947"><ele>144.0</ele><time>2026-04-04T07:22:59.267Z</time></trkpt><trkpt lat="43.8044049" lon="11.2714854"><ele>144.0</ele><time>2026-04-04T07:23:00.264Z</time></trkpt><trkpt lat="43.8043818" lon="11.2715836"><ele>144.0</ele><time>2026-04-04T07:23:01.262Z</time></trkpt><trkpt lat="43.8043673" lon="11.2716944"><ele>144.0</ele><time>2026-04-04T07:23:02.263Z</time></trkpt><trkpt lat="43.8043559" lon="11.2718181"><ele>144.0</ele><time>2026-04-04T07:23:03.263Z</time></trkpt><trkpt lat="43.8043466" lon="11.2719818"><ele>144.0</ele><time>2026-04-04T07:23:04.262Z</time></trkpt><trkpt lat="43.8043378" lon="11.2721673"><ele>144.0</ele><time>2026-04-04T07:23:05.258Z</time></trkpt><trkpt lat="43.8043245" lon="11.2723627"><ele>144.0</ele><time>2026-04-04T07:23:06.263Z</time></trkpt><trkpt lat="43.804307" lon="11.2725618"><ele>144.0</ele><time>2026-04-04T07:23:07.268Z</time></trkpt><trkpt lat="43.8042905" lon="11.2727599"><ele>142.75</ele><time>2026-04-04T07:23:08.276Z</time></trkpt><trkpt lat="43.8042761" lon="11.2729333"><ele>141.5</ele><time>2026-04-04T07:23:09.281Z</time></trkpt><trkpt lat="43.8042587" lon="11.2731035"><ele>140.25</ele><time>2026-04-04T07:23:10.281Z</time></trkpt><trkpt lat="43.804238" lon="11.2732727"><ele>139.0</ele><time>2026-04-04T07:23:11.286Z</time></trkpt><trkpt lat="43.8042177" lon="11.2734359"><ele>138.0</ele><time>2026-04-04T07:23:12.273Z</time></trkpt><trkpt lat="43.8041996" lon="11.2735919"><ele>137.0</ele><time>2026-04-04T07:23:13.265Z</time></trkpt><trkpt lat="43.8041902" lon="11.2737408"><ele>136.0</ele><time>2026-04-04T07:23:14.266Z</time></trkpt><trkpt lat="43.8041857" lon="11.2738773"><ele>135.0</ele><time>2026-04-04T07:23:15.264Z</time></trkpt><trkpt lat="43.8041852" lon="11.2740003"><ele>134.0</ele><time>2026-04-04T07:23:16.267Z</time></trkpt><trkpt lat="43.8041886" lon="11.2741104"><ele>133.4</ele><time>2026-04-04T07:23:17.258Z</time></trkpt><trkpt lat="43.8041875" lon="11.2742131"><ele>132.8</ele><time>2026-04-04T07:23:18.262Z</time></trkpt><trkpt lat="43.8041811" lon="11.2743173"><ele>132.2</ele><time>2026-04-04T07:23:19.268Z</time></trkpt><trkpt lat="43.8041707" lon="11.2744388"><ele>131.6</ele><time>2026-04-04T07:23:20.259Z</time></trkpt><trkpt lat="43.8041504" lon="11.2745812"><ele>131.0</ele><time>2026-04-04T07:23:21.26Z</time></trkpt><trkpt lat="43.8041351" lon="11.2747441"><ele>127.5</ele><time>2026-04-04T07:23:22.26Z</time></trkpt><trkpt lat="43.8041093" lon="11.2749204"><ele>124.0</ele><time>2026-04-04T07:23:23.263Z</time></trkpt><trkpt lat="43.8040832" lon="11.2751016"><ele>120.5</ele><time>2026-04-04T07:23:24.261Z</time></trkpt><trkpt lat="43.8040563" lon="11.2752924"><ele>117.0</ele><time>2026-04-04T07:23:25.264Z</time></trkpt><trkpt lat="43.8040306" lon="11.2754788"><ele>113.75</ele><time>2026-04-04T07:23:26.265Z</time></trkpt><trkpt lat="43.8040126" lon="11.2756636"><ele>110.5</ele><time>2026-04-04T07:23:27.267Z</time></trkpt><trkpt lat="43.8039912" lon="11.2758483"><ele>107.25</ele><time>2026-04-04T07:23:28.282Z</time></trkpt><trkpt lat="43.8039697" lon="11.2760297"><ele>104.0</ele><time>2026-04-04T07:23:29.28Z</time></trkpt><trkpt lat="43.8039469" lon="11.2762108"><ele>104.0</ele><time>2026-04-04T07:23:30.282Z</time></trkpt><trkpt lat="43.8039274" lon="11.2763863"><ele>104.0</ele><time>2026-04-04T07:23:31.281Z</time></trkpt><trkpt lat="43.8039076" lon="11.2765572"><ele>104.0</ele><time>2026-04-04T07:23:32.279Z</time></trkpt><trkpt lat="43.803888" lon="11.276722"><ele>104.0</ele><time>2026-04-04T07:23:33.276Z</time></trkpt><trkpt lat="43.8038689" lon="11.2768917"><ele>101.25</ele><time>2026-04-04T07:23:34.271Z</time></trkpt><trkpt lat="43.803849" lon="11.2770701"><ele>98.5</ele><time>2026-04-04T07:23:35.28Z</time></trkpt><trkpt lat="43.8038289" lon="11.2772531"><ele>95.75</ele><time>2026-04-04T07:23:36.28Z</time></trkpt><trkpt lat="43.8038111" lon="11.2774375"><ele>93.0</ele><time>2026-04-04T07:23:37.283Z</time></trkpt><trkpt lat="43.8037925" lon="11.2776149"><ele>91.80000000000001</ele><time>2026-04-04T07:23:38.27Z</time></trkpt><trkpt lat="43.8037762" lon="11.277776"><ele>90.6</ele><time>2026-04-04T07:23:39.269Z</time></trkpt><trkpt lat="43.8037605" lon="11.2779217"><ele>89.4</ele><time>2026-04-04T07:23:40.268Z</time></trkpt><trkpt lat="43.8037469" lon="11.2780562"><ele>88.19999999999999</ele><time>2026-04-04T07:23:41.27Z</time></trkpt><trkpt lat="43.8037349" lon="11.2781814"><ele>87.0</ele><time>2026-04-04T07:23:42.277Z</time></trkpt><trkpt lat="43.8037231" lon="11.2783115"><ele>86.39999999999999</ele><time>2026-04-04T07:23:43.268Z</time></trkpt><trkpt lat="43.8037084" lon="11.2784394"><ele>85.8</ele><time>2026-04-04T07:23:44.271Z</time></trkpt><trkpt lat="43.803694" lon="11.2785755"><ele>85.2</ele><time>2026-04-04T07:23:45.267Z</time></trkpt><trkpt lat="43.8036796" lon="11.2787103"><ele>84.6</ele><time>2026-04-04T07:23:46.274Z</time></trkpt><trkpt lat="43.8036662" lon="11.2788438"><ele>84.0</ele><time>2026-04-04T07:23:47.279Z</time></trkpt><trkpt lat="43.8036561" lon="11.278987"><ele>83.5</ele><time>2026-04-04T07:23:48.272Z</time></trkpt><trkpt lat="43.8036434" lon="11.2791368"><ele>83.0</ele><time>2026-04-04T07:23:49.272Z</time></trkpt><trkpt lat="43.8036279" lon="11.2792932"><ele>82.5</ele><time>2026-04-04T07:23:50.274Z</time></trkpt><trkpt lat="43.8036114" lon="11.2794498"><ele>82.0</ele><time>2026-04-04T07:23:51.278Z</time></trkpt><trkpt lat="43.8035964" lon="11.2796085"><ele>82.75</ele><time>2026-04-04T07:23:52.278Z</time></trkpt><trkpt lat="43.8035815" lon="11.2797694"><ele>83.5</ele><time>2026-04-04T07:23:53.28Z</time></trkpt><trkpt lat="43.803565" lon="11.2799295"><ele>84.25</ele><time>2026-04-04T07:23:54.279Z</time></trkpt><trkpt lat="43.8035496" lon="11.280087"><ele>85.0</ele><time>2026-04-04T07:23:55.271Z</time></trkpt><trkpt lat="43.8035371" lon="11.2802497"><ele>85.0</ele><time>2026-04-04T07:23:56.282Z</time></trkpt><trkpt lat="43.8035278" lon="11.2804098"><ele>85.0</ele><time>2026-04-04T07:23:57.275Z</time></trkpt><trkpt lat="43.8035184" lon="11.2805771"><ele>85.0</ele><time>2026-04-04T07:23:58.265Z</time></trkpt><trkpt lat="43.8035024" lon="11.2807517"><ele>85.0</ele><time>2026-04-04T07:23:59.284Z</time></trkpt><trkpt lat="43.8034892" lon="11.2809368"><ele>86.25</ele><time>2026-04-04T07:24:00.288Z</time></trkpt><trkpt lat="43.8034728" lon="11.2811356"><ele>87.5</ele><time>2026-04-04T07:24:01.278Z</time></trkpt><trkpt lat="43.8034617" lon="11.2813471"><ele>88.75</ele><time>2026-04-04T07:24:02.281Z</time></trkpt><trkpt lat="43.8034477" lon="11.2815482"><ele>90.0</ele><time>2026-04-04T07:24:03.279Z</time></trkpt><trkpt lat="43.8034347" lon="11.2817328"><ele>92.4</ele><time>2026-04-04T07:24:04.279Z</time></trkpt><trkpt lat="43.8034199" lon="11.2818993"><ele>94.8</ele><time>2026-04-04T07:24:05.275Z</time></trkpt><trkpt lat="43.8034071" lon="11.282056"><ele>97.19999999999999</ele><time>2026-04-04T07:24:06.273Z</time></trkpt><trkpt lat="43.8033979" lon="11.2821952"><ele>99.6</ele><time>2026-04-04T07:24:07.268Z</time></trkpt><trkpt lat="43.8033768" lon="11.2823378"><ele>102.0</ele><time>2026-04-04T07:24:08.265Z</time></trkpt><trkpt lat="43.8033595" lon="11.2824734"><ele>104.5</ele><time>2026-04-04T07:24:09.272Z</time></trkpt><trkpt lat="43.8033506" lon="11.2826131"><ele>107.0</ele><time>2026-04-04T07:24:10.272Z</time></trkpt><trkpt lat="43.8033452" lon="11.2827487"><ele>109.5</ele><time>2026-04-04T07:24:11.275Z</time></trkpt><trkpt lat="43.8033448" lon="11.2828681"><ele>112.0</ele><time>2026-04-04T07:24:12.273Z</time></trkpt><trkpt lat="43.8033302" lon="11.2829717"><ele>114.5</ele><time>2026-04-04T07:24:13.285Z</time></trkpt><trkpt lat="43.8033117" lon="11.2830777"><ele>117.0</ele><time>2026-04-04T07:24:14.277Z</time></trkpt><trkpt lat="43.8032758" lon="11.2832006"><ele>119.0</ele><time>2026-04-04T07:24:15.276Z</time></trkpt><trkpt lat="43.8032166" lon="11.2833371"><ele>121.0</ele><time>2026-04-04T07:24:16.273Z</time></trkpt><trkpt lat="43.8031573" lon="11.2834844"><ele>123.0</ele><time>2026-04-04T07:24:17.276Z</time></trkpt><trkpt lat="43.803093" lon="11.283639"><ele>125.0</ele><time>2026-04-04T07:24:18.266Z</time></trkpt><trkpt lat="43.8030168" lon="11.2837904"><ele>126.75</ele><time>2026-04-04T07:24:19.267Z</time></trkpt><trkpt lat="43.8029488" lon="11.2839439"><ele>128.5</ele><time>2026-04-04T07:24:20.267Z</time></trkpt><trkpt lat="43.8028849" lon="11.2840988"><ele>130.25</ele><time>2026-04-04T07:24:21.266Z</time></trkpt><trkpt lat="43.802824" lon="11.2842556"><ele>132.0</ele><time>2026-04-04T07:24:22.267Z</time></trkpt><trkpt lat="43.8027694" lon="11.2844094"><ele>132.0</ele><time>2026-04-04T07:24:23.266Z</time></trkpt><trkpt lat="43.8027283" lon="11.2845452"><ele>132.0</ele><time>2026-04-04T07:24:24.269Z</time></trkpt><trkpt lat="43.8026892" lon="11.2846628"><ele>132.0</ele><time>2026-04-04T07:24:25.273Z</time></trkpt><trkpt lat="43.8026493" lon="11.2847738"><ele>132.0</ele><time>2026-04-04T07:24:26.275Z</time></trkpt><trkpt lat="43.8026095" lon="11.2848691"><ele>132.0</ele><time>2026-04-04T07:24:27.276Z</time></trkpt><trkpt lat="43.802568" lon="11.2849505"><ele>132.0</ele><time>2026-04-04T07:24:28.276Z</time></trkpt><trkpt lat="43.8025258" lon="11.2850211"><ele>133.5</ele><time>2026-04-04T07:24:29.285Z</time></trkpt><trkpt lat="43.8024678" lon="11.2850882"><ele>135.0</ele><time>2026-04-04T07:24:30.281Z</time></trkpt><trkpt lat="43.8023965" lon="11.285149"><ele>136.5</ele><time>2026-04-04T07:24:31.279Z</time></trkpt><trkpt lat="43.8023186" lon="11.2852026"><ele>138.0</ele><time>2026-04-04T07:24:32.273Z</time></trkpt><trkpt lat="43.8022389" lon="11.2852486"><ele>139.5</ele><time>2026-04-04T07:24:33.27Z</time></trkpt><trkpt lat="43.8021618" lon="11.2853035"><ele>141.0</ele><time>2026-04-04T07:24:34.273Z</time></trkpt><trkpt lat="43.8020915" lon="11.2853648"><ele>141.0</ele><time>2026-04-04T07:24:35.269Z</time></trkpt><trkpt lat="43.802037" lon="11.2854409"><ele>141.0</ele><time>2026-04-04T07:24:36.265Z</time></trkpt><trkpt lat="43.8019818" lon="11.2855201"><ele>141.0</ele><time>2026-04-04T07:24:37.268Z</time></trkpt><trkpt lat="43.80193" lon="11.2855934"><ele>141.0</ele><time>2026-04-04T07:24:38.269Z</time></trkpt><trkpt lat="43.8018846" lon="11.2856643"><ele>141.0</ele><time>2026-04-04T07:24:39.261Z</time></trkpt><trkpt lat="43.8018208" lon="11.2857952"><ele>141.0</ele><time>2026-04-04T07:24:41.265Z</time></trkpt><trkpt lat="43.8017746" lon="11.285882"><ele>142.0</ele><time>2026-04-04T07:24:43.261Z</time></trkpt><trkpt lat="43.8017345" lon="11.2859718"><ele>143.0</ele><time>2026-04-04T07:24:46.268Z</time></trkpt><trkpt lat="43.8016984" lon="11.2860479"><ele>144.0</ele><time>2026-04-04T07:24:49.273Z</time></trkpt><trkpt lat="43.8017291" lon="11.2861453"><ele>145.0</ele><time>2026-04-04T07:24:51.266Z</time></trkpt><trkpt lat="43.8018063" lon="11.2862124"><ele>146.0</ele><time>2026-04-04T07:24:52.268Z</time></trkpt><trkpt lat="43.801879" lon="11.2862902"><ele>147.0</ele><time>2026-04-04T07:24:53.266Z</time></trkpt><trkpt lat="43.8019464" lon="11.2863927"><ele>149.25</ele><time>2026-04-04T07:24:54.26Z</time></trkpt><trkpt lat="43.8020049" lon="11.2865106"><ele>151.5</ele><time>2026-04-04T07:24:55.262Z</time></trkpt><trkpt lat="43.8020605" lon="11.2866596"><ele>153.75</ele><time>2026-04-04T07:24:56.268Z</time></trkpt><trkpt lat="43.8021185" lon="11.2868096"><ele>156.0</ele><time>2026-04-04T07:24:57.265Z</time></trkpt><trkpt lat="43.8021729" lon="11.2869687"><ele>156.0</ele><time>2026-04-04T07:24:58.27Z</time></trkpt><trkpt lat="43.8022286" lon="11.2871423"><ele>156.0</ele><time>2026-04-04T07:24:59.272Z</time></trkpt><trkpt lat="43.8022963" lon="11.2873415"><ele>156.0</ele><time>2026-04-04T07:25:00.275Z</time></trkpt><trkpt lat="43.8023703" lon="11.2875493"><ele>156.33333333333334</ele><time>2026-04-04T07:25:01.272Z</time></trkpt><trkpt lat="43.8024433" lon="11.2877613"><ele>156.66666666666669</ele><time>2026-04-04T07:25:02.27Z</time></trkpt><trkpt lat="43.8025074" lon="11.2879586"><ele>157.0</ele><time>2026-04-04T07:25:03.273Z</time></trkpt><trkpt lat="43.8025673" lon="11.2881584"><ele>157.0</ele><time>2026-04-04T07:25:04.272Z</time></trkpt><trkpt lat="43.8026159" lon="11.2883593"><ele>157.0</ele><time>2026-04-04T07:25:05.272Z</time></trkpt><trkpt lat="43.8026595" lon="11.2885617"><ele>157.0</ele><time>2026-04-04T07:25:06.266Z</time></trkpt><trkpt lat="43.8026933" lon="11.2887544"><ele>157.0</ele><time>2026-04-04T07:25:07.263Z</time></trkpt><trkpt lat="43.8027206" lon="11.2889406"><ele>158.5</ele><time>2026-04-04T07:25:08.271Z</time></trkpt><trkpt lat="43.8027383" lon="11.2891215"><ele>160.0</ele><time>2026-04-04T07:25:09.268Z</time></trkpt><trkpt lat="43.8027429" lon="11.2893009"><ele>161.5</ele><time>2026-04-04T07:25:10.264Z</time></trkpt><trkpt lat="43.8026989" lon="11.2894994"><ele>163.0</ele><time>2026-04-04T07:25:11.27Z</time></trkpt><trkpt lat="43.8026517" lon="11.2897013"><ele>164.75</ele><time>2026-04-04T07:25:12.267Z</time></trkpt><trkpt lat="43.8026008" lon="11.2898764"><ele>166.5</ele><time>2026-04-04T07:25:13.266Z</time></trkpt><trkpt lat="43.802544" lon="11.2900436"><ele>168.25</ele><time>2026-04-04T07:25:14.264Z</time></trkpt><trkpt lat="43.8024734" lon="11.2901832"><ele>170.0</ele><time>2026-04-04T07:25:15.274Z</time></trkpt><trkpt lat="43.802376" lon="11.290304"><ele>170.0</ele><time>2026-04-04T07:25:16.269Z</time></trkpt><trkpt lat="43.8022555" lon="11.2904009"><ele>170.0</ele><time>2026-04-04T07:25:17.269Z</time></trkpt><trkpt lat="43.8021192" lon="11.2904705"><ele>170.0</ele><time>2026-04-04T07:25:18.281Z</time></trkpt><trkpt lat="43.8019642" lon="11.2905248"><ele>170.0</ele><time>2026-04-04T07:25:19.282Z</time></trkpt><trkpt lat="43.8017962" lon="11.2905632"><ele>170.75</ele><time>2026-04-04T07:25:20.276Z</time></trkpt><trkpt lat="43.8016368" lon="11.2905933"><ele>171.5</ele><time>2026-04-04T07:25:21.273Z</time></trkpt><trkpt lat="43.8015014" lon="11.2906462"><ele>172.25</ele><time>2026-04-04T07:25:22.271Z</time></trkpt><trkpt lat="43.8013882" lon="11.2907213"><ele>173.0</ele><time>2026-04-04T07:25:23.278Z</time></trkpt><trkpt lat="43.8012989" lon="11.2908553"><ele>173.0</ele><time>2026-04-04T07:25:24.282Z</time></trkpt><trkpt lat="43.8012072" lon="11.2910197"><ele>173.0</ele><time>2026-04-04T07:25:25.279Z</time></trkpt><trkpt lat="43.8011137" lon="11.2912136"><ele>173.0</ele><time>2026-04-04T07:25:26.27Z</time></trkpt><trkpt lat="43.8010046" lon="11.2914012"><ele>174.0</ele><time>2026-04-04T07:25:27.277Z</time></trkpt><trkpt lat="43.8008982" lon="11.291591"><ele>175.0</ele><time>2026-04-04T07:25:28.284Z</time></trkpt><trkpt lat="43.8008153" lon="11.2917882"><ele>176.0</ele><time>2026-04-04T07:25:29.28Z</time></trkpt><trkpt lat="43.8007484" lon="11.2920001"><ele>176.0</ele><time>2026-04-04T07:25:30.28Z</time></trkpt><trkpt lat="43.8006977" lon="11.2922066"><ele>176.0</ele><time>2026-04-04T07:25:31.284Z</time></trkpt><trkpt lat="43.8006566" lon="11.2924047"><ele>176.0</ele><time>2026-04-04T07:25:32.275Z</time></trkpt><trkpt lat="43.8006188" lon="11.2925879"><ele>176.0</ele><time>2026-04-04T07:25:33.277Z</time></trkpt><trkpt lat="43.8005864" lon="11.292762"><ele>177.60000000000002</ele><time>2026-04-04T07:25:34.281Z</time></trkpt><trkpt lat="43.8005736" lon="11.292904"><ele>179.2</ele><time>2026-04-04T07:25:35.274Z</time></trkpt><trkpt lat="43.8005797" lon="11.293045"><ele>180.8</ele><time>2026-04-04T07:25:36.274Z</time></trkpt><trkpt lat="43.8006106" lon="11.2931897"><ele>182.39999999999998</ele><time>2026-04-04T07:25:37.276Z</time></trkpt><trkpt lat="43.8006932" lon="11.2933149"><ele>184.0</ele><time>2026-04-04T07:25:38.27Z</time></trkpt><trkpt lat="43.8008027" lon="11.2934384"><ele>184.0</ele><time>2026-04-04T07:25:39.27Z</time></trkpt><trkpt lat="43.8009242" lon="11.2935997"><ele>184.0</ele><time>2026-04-04T07:25:40.275Z</time></trkpt><trkpt lat="43.8010418" lon="11.2938053"><ele>184.0</ele><time>2026-04-04T07:25:41.279Z</time></trkpt><trkpt lat="43.8011493" lon="11.2940137"><ele>190.0</ele><time>2026-04-04T07:25:42.278Z</time></trkpt><trkpt lat="43.801247" lon="11.2942113"><ele>196.0</ele><time>2026-04-04T07:25:43.276Z</time></trkpt><trkpt lat="43.8013286" lon="11.2943789"><ele>202.0</ele><time>2026-04-04T07:25:44.279Z</time></trkpt><trkpt lat="43.801387" lon="11.2945586"><ele>202.0</ele><time>2026-04-04T07:25:45.272Z</time></trkpt><trkpt lat="43.8014204" lon="11.2947529"><ele>202.0</ele><time>2026-04-04T07:25:46.284Z</time></trkpt><trkpt lat="43.801417" lon="11.2949476"><ele>202.0</ele><time>2026-04-04T07:25:47.271Z</time></trkpt><trkpt lat="43.801392" lon="11.2951384"><ele>202.0</ele><time>2026-04-04T07:25:48.275Z</time></trkpt><trkpt lat="43.8013612" lon="11.2953049"><ele>203.0</ele><time>2026-04-04T07:25:49.282Z</time></trkpt><trkpt lat="43.8013545" lon="11.2954538"><ele>204.0</ele><time>2026-04-04T07:25:50.28Z</time></trkpt><trkpt lat="43.8013719" lon="11.2956232"><ele>205.0</ele><time>2026-04-04T07:25:51.281Z</time></trkpt><trkpt lat="43.8014096" lon="11.2958219"><ele>206.0</ele><time>2026-04-04T07:25:52.285Z</time></trkpt><trkpt lat="43.8014789" lon="11.296075"><ele>209.0</ele><time>2026-04-04T07:25:53.274Z</time></trkpt><trkpt lat="43.8015545" lon="11.2963319"><ele>212.0</ele><time>2026-04-04T07:25:54.27Z</time></trkpt><trkpt lat="43.8016153" lon="11.2965917"><ele>215.0</ele><time>2026-04-04T07:25:55.269Z</time></trkpt><trkpt lat="43.8016612" lon="11.2968396"><ele>216.0</ele><time>2026-04-04T07:25:56.269Z</time></trkpt><trkpt lat="43.8016986" lon="11.2970542"><ele>217.0</ele><time>2026-04-04T07:25:57.265Z</time></trkpt><trkpt lat="43.8017028" lon="11.2972442"><ele>218.0</ele><time>2026-04-04T07:25:58.267Z</time></trkpt><trkpt lat="43.801702" lon="11.2974144"><ele>219.0</ele><time>2026-04-04T07:25:59.268Z</time></trkpt><trkpt lat="43.8016908" lon="11.2975764"><ele>221.25</ele><time>2026-04-04T07:26:00.267Z</time></trkpt><trkpt lat="43.8016386" lon="11.2977389"><ele>223.5</ele><time>2026-04-04T07:26:01.269Z</time></trkpt><trkpt lat="43.8015551" lon="11.2978818"><ele>225.75</ele><time>2026-04-04T07:26:02.266Z</time></trkpt><trkpt lat="43.8014577" lon="11.2980234"><ele>228.0</ele><time>2026-04-04T07:26:03.267Z</time></trkpt><trkpt lat="43.8013392" lon="11.2981323"><ele>227.66666666666669</ele><time>2026-04-04T07:26:04.271Z</time></trkpt><trkpt lat="43.8011836" lon="11.2981534"><ele>227.33333333333334</ele><time>2026-04-04T07:26:05.265Z</time></trkpt><trkpt lat="43.8010242" lon="11.2981647"><ele>227.0</ele><time>2026-04-04T07:26:06.27Z</time></trkpt><trkpt lat="43.8008918" lon="11.2981997"><ele>227.0</ele><time>2026-04-04T07:26:07.268Z</time></trkpt><trkpt lat="43.8007791" lon="11.2982405"><ele>227.0</ele><time>2026-04-04T07:26:08.268Z</time></trkpt><trkpt lat="43.800693" lon="11.2982842"><ele>227.0</ele><time>2026-04-04T07:26:09.271Z</time></trkpt><trkpt lat="43.8006223" lon="11.2983154"><ele>227.0</ele><time>2026-04-04T07:26:10.273Z</time></trkpt><trkpt lat="43.8005706" lon="11.2984088"><ele>227.0</ele><time>2026-04-04T07:26:12.272Z</time></trkpt><trkpt lat="43.8005677" lon="11.2985926"><ele>227.0</ele><time>2026-04-04T07:26:14.274Z</time></trkpt><trkpt lat="43.8005294" lon="11.2987422"><ele>227.0</ele><time>2026-04-04T07:26:16.276Z</time></trkpt><trkpt lat="43.8004766" lon="11.2987984"><ele>227.0</ele><time>2026-04-04T07:26:17.279Z</time></trkpt><trkpt lat="43.8003977" lon="11.2988473"><ele>227.0</ele><time>2026-04-04T07:26:18.274Z</time></trkpt><trkpt lat="43.8003083" lon="11.298893"><ele>227.0</ele><time>2026-04-04T07:26:19.274Z</time></trkpt><trkpt lat="43.8002111" lon="11.2989394"><ele>227.39999999999998</ele><time>2026-04-04T07:26:20.277Z</time></trkpt><trkpt lat="43.8001058" lon="11.2989839"><ele>227.79999999999998</ele><time>2026-04-04T07:26:21.276Z</time></trkpt><trkpt lat="43.7999951" lon="11.2990161"><ele>228.2</ele><time>2026-04-04T07:26:22.272Z</time></trkpt><trkpt lat="43.7998827" lon="11.299041"><ele>228.6</ele><time>2026-04-04T07:26:23.274Z</time></trkpt><trkpt lat="43.7997737" lon="11.2990637"><ele>229.0</ele><time>2026-04-04T07:26:24.275Z</time></trkpt><trkpt lat="43.7996685" lon="11.2990952"><ele>229.0</ele><time>2026-04-04T07:26:25.277Z</time></trkpt><trkpt lat="43.7995727" lon="11.299122"><ele>228.99999999999997</ele><time>2026-04-04T07:26:26.273Z</time></trkpt><trkpt lat="43.799483" lon="11.2991501"><ele>228.99999999999997</ele><time>2026-04-04T07:26:27.279Z</time></trkpt><trkpt lat="43.7993966" lon="11.2991776"><ele>229.0</ele><time>2026-04-04T07:26:28.289Z</time></trkpt><trkpt lat="43.799313" lon="11.2992113"><ele>229.0</ele><time>2026-04-04T07:26:29.28Z</time></trkpt><trkpt lat="43.7992288" lon="11.299237"><ele>226.2</ele><time>2026-04-04T07:26:30.279Z</time></trkpt><trkpt lat="43.7991484" lon="11.2992561"><ele>223.39999999999998</ele><time>2026-04-04T07:26:31.276Z</time></trkpt><trkpt lat="43.7990768" lon="11.299273"><ele>220.6</ele><time>2026-04-04T07:26:32.278Z</time></trkpt><trkpt lat="43.7990009" lon="11.2993418"><ele>217.8</ele><time>2026-04-04T07:26:34.279Z</time></trkpt><trkpt lat="43.79898" lon="11.2994764"><ele>215.0</ele><time>2026-04-04T07:26:36.278Z</time></trkpt><trkpt lat="43.7989776" lon="11.2996528"><ele>215.0</ele><time>2026-04-04T07:26:38.269Z</time></trkpt><trkpt lat="43.7989821" lon="11.2997438"><ele>215.0</ele><time>2026-04-04T07:26:39.281Z</time></trkpt><trkpt lat="43.7989926" lon="11.2999024"><ele>215.0</ele><time>2026-04-04T07:26:41.273Z</time></trkpt><trkpt lat="43.7989885" lon="11.3000394"><ele>215.0</ele><time>2026-04-04T07:26:43.268Z</time></trkpt><trkpt lat="43.7989139" lon="11.3001575"><ele>215.0</ele><time>2026-04-04T07:26:45.269Z</time></trkpt><trkpt lat="43.7988278" lon="11.3001898"><ele>215.0</ele><time>2026-04-04T07:26:46.274Z</time></trkpt><trkpt lat="43.7987288" lon="11.3002217"><ele>215.0</ele><time>2026-04-04T07:26:47.272Z</time></trkpt><trkpt lat="43.7986317" lon="11.3002449"><ele>215.0</ele><time>2026-04-04T07:26:48.276Z</time></trkpt><trkpt lat="43.7985419" lon="11.30026"><ele>215.0</ele><time>2026-04-04T07:26:49.268Z</time></trkpt><trkpt lat="43.7984592" lon="11.3002559"><ele>215.0</ele><time>2026-04-04T07:26:50.27Z</time></trkpt><trkpt lat="43.7983723" lon="11.3002325"><ele>215.0</ele><time>2026-04-04T07:26:51.273Z</time></trkpt><trkpt lat="43.7982795" lon="11.3002109"><ele>215.0</ele><time>2026-04-04T07:26:52.275Z</time></trkpt><trkpt lat="43.7981867" lon="11.3001904"><ele>215.0</ele><time>2026-04-04T07:26:53.275Z</time></trkpt><trkpt lat="43.7980943" lon="11.3001905"><ele>215.0</ele><time>2026-04-04T07:26:54.275Z</time></trkpt><trkpt lat="43.7980021" lon="11.3002049"><ele>215.0</ele><time>2026-04-04T07:26:55.274Z</time></trkpt><trkpt lat="43.7979125" lon="11.3002388"><ele>215.0</ele><time>2026-04-04T07:26:56.275Z</time></trkpt><trkpt lat="43.7978191" lon="11.3002927"><ele>215.0</ele><time>2026-04-04T07:26:57.271Z</time></trkpt><trkpt lat="43.7977247" lon="11.3003572"><ele>215.0</ele><time>2026-04-04T07:26:58.282Z</time></trkpt><trkpt lat="43.7976233" lon="11.3004257"><ele>215.0</ele><time>2026-04-04T07:26:59.275Z</time></trkpt><trkpt lat="43.797525" lon="11.3004931"><ele>215.0</ele><time>2026-04-04T07:27:00.273Z</time></trkpt><trkpt lat="43.7974316" lon="11.3005554"><ele>215.6</ele><time>2026-04-04T07:27:01.271Z</time></trkpt><trkpt lat="43.7973479" lon="11.3006262"><ele>216.2</ele><time>2026-04-04T07:27:02.27Z</time></trkpt><trkpt lat="43.7972745" lon="11.3007078"><ele>216.8</ele><time>2026-04-04T07:27:03.281Z</time></trkpt><trkpt lat="43.797218" lon="11.3007943"><ele>217.4</ele><time>2026-04-04T07:27:04.272Z</time></trkpt><trkpt lat="43.797167" lon="11.3008923"><ele>218.0</ele><time>2026-04-04T07:27:05.267Z</time></trkpt><trkpt lat="43.7971186" lon="11.3009961"><ele>218.0</ele><time>2026-04-04T07:27:06.27Z</time></trkpt><trkpt lat="43.7970709" lon="11.3011211"><ele>218.0</ele><time>2026-04-04T07:27:07.276Z</time></trkpt><trkpt lat="43.797016" lon="11.3012462"><ele>218.0</ele><time>2026-04-04T07:27:08.278Z</time></trkpt><trkpt lat="43.7969648" lon="11.3013834"><ele>218.0</ele><time>2026-04-04T07:27:09.265Z</time></trkpt><trkpt lat="43.7969145" lon="11.3015148"><ele>218.0</ele><time>2026-04-04T07:27:10.269Z</time></trkpt><trkpt lat="43.7968716" lon="11.3016431"><ele>216.66666666666669</ele><time>2026-04-04T07:27:11.265Z</time></trkpt><trkpt lat="43.7968371" lon="11.3017641"><ele>215.33333333333334</ele><time>2026-04-04T07:27:12.27Z</time></trkpt><trkpt lat="43.7968033" lon="11.3018773"><ele>214.0</ele><time>2026-04-04T07:27:13.274Z</time></trkpt><trkpt lat="43.7967717" lon="11.301984"><ele>212.66666666666669</ele><time>2026-04-04T07:27:14.275Z</time></trkpt><trkpt lat="43.7967376" lon="11.3020839"><ele>211.33333333333334</ele><time>2026-04-04T07:27:15.28Z</time></trkpt><trkpt lat="43.7966986" lon="11.3021837"><ele>210.0</ele><time>2026-04-04T07:27:16.272Z</time></trkpt><trkpt lat="43.7966496" lon="11.3022825"><ele>210.0</ele><time>2026-04-04T07:27:17.274Z</time></trkpt><trkpt lat="43.7965857" lon="11.302376"><ele>210.0</ele><time>2026-04-04T07:27:18.273Z</time></trkpt><trkpt lat="43.7965163" lon="11.3024669"><ele>210.0</ele><time>2026-04-04T07:27:19.292Z</time></trkpt><trkpt lat="43.7964441" lon="11.3025545"><ele>210.0</ele><time>2026-04-04T07:27:20.278Z</time></trkpt><trkpt lat="43.796371" lon="11.3026279"><ele>210.0</ele><time>2026-04-04T07:27:21.276Z</time></trkpt><trkpt lat="43.796289" lon="11.302683"><ele>210.0</ele><time>2026-04-04T07:27:22.269Z</time></trkpt><trkpt lat="43.7961971" lon="11.3027294"><ele>210.0</ele><time>2026-04-04T07:27:23.274Z</time></trkpt><trkpt lat="43.796095" lon="11.3027668"><ele>210.0</ele><time>2026-04-04T07:27:24.275Z</time></trkpt><trkpt lat="43.7959891" lon="11.302804"><ele>210.0</ele><time>2026-04-04T07:27:25.274Z</time></trkpt><trkpt lat="43.7958845" lon="11.302837"><ele>210.0</ele><time>2026-04-04T07:27:26.278Z</time></trkpt><trkpt lat="43.7957836" lon="11.302878"><ele>208.8</ele><time>2026-04-04T07:27:27.273Z</time></trkpt><trkpt lat="43.7956887" lon="11.302915"><ele>207.6</ele><time>2026-04-04T07:27:28.273Z</time></trkpt><trkpt lat="43.7955939" lon="11.3029446"><ele>206.39999999999998</ele><time>2026-04-04T07:27:29.269Z</time></trkpt><trkpt lat="43.795504" lon="11.3029792"><ele>205.2</ele><time>2026-04-04T07:27:30.269Z</time></trkpt><trkpt lat="43.7954209" lon="11.3030311"><ele>204.0</ele><time>2026-04-04T07:27:31.265Z</time></trkpt><trkpt lat="43.795344" lon="11.3031105"><ele>204.0</ele><time>2026-04-04T07:27:32.266Z</time></trkpt><trkpt lat="43.7952636" lon="11.3031942"><ele>204.0</ele><time>2026-04-04T07:27:33.268Z</time></trkpt><trkpt lat="43.7951804" lon="11.3032659"><ele>204.0</ele><time>2026-04-04T07:27:34.262Z</time></trkpt><trkpt lat="43.7950918" lon="11.3033217"><ele>204.0</ele><time>2026-04-04T07:27:35.263Z</time></trkpt><trkpt lat="43.7950028" lon="11.3033714"><ele>204.0</ele><time>2026-04-04T07:27:36.263Z</time></trkpt><trkpt lat="43.7949124" lon="11.3034125"><ele>200.0</ele><time>2026-04-04T07:27:37.264Z</time></trkpt><trkpt lat="43.7948218" lon="11.3034542"><ele>196.0</ele><time>2026-04-04T07:27:38.263Z</time></trkpt><trkpt lat="43.7947354" lon="11.3035012"><ele>192.0</ele><time>2026-04-04T07:27:39.262Z</time></trkpt><trkpt lat="43.7946479" lon="11.3035459"><ele>188.0</ele><time>2026-04-04T07:27:40.264Z</time></trkpt><trkpt lat="43.7945654" lon="11.3035992"><ele>184.0</ele><time>2026-04-04T07:27:41.264Z</time></trkpt><trkpt lat="43.7944834" lon="11.3036612"><ele>184.0</ele><time>2026-04-04T07:27:42.267Z</time></trkpt><trkpt lat="43.794398" lon="11.3037233"><ele>184.0</ele><time>2026-04-04T07:27:43.267Z</time></trkpt><trkpt lat="43.7943171" lon="11.303786"><ele>184.0</ele><time>2026-04-04T07:27:44.267Z</time></trkpt><trkpt lat="43.7942465" lon="11.3038429"><ele>184.0</ele><time>2026-04-04T07:27:45.27Z</time></trkpt><trkpt lat="43.7941734" lon="11.3038931"><ele>184.0</ele><time>2026-04-04T07:27:46.271Z</time></trkpt><trkpt lat="43.7941003" lon="11.3039338"><ele>184.0</ele><time>2026-04-04T07:27:47.272Z</time></trkpt><trkpt lat="43.7940415" lon="11.3039707"><ele>182.39999999999998</ele><time>2026-04-04T07:27:48.281Z</time></trkpt><trkpt lat="43.7939324" lon="11.3039993"><ele>180.8</ele><time>2026-04-04T07:27:50.276Z</time></trkpt><trkpt lat="43.7938032" lon="11.3039848"><ele>179.2</ele><time>2026-04-04T07:27:52.269Z</time></trkpt><trkpt lat="43.7937147" lon="11.3039661"><ele>177.60000000000002</ele><time>2026-04-04T07:27:53.273Z</time></trkpt><trkpt lat="43.7936123" lon="11.3039473"><ele>176.0</ele><time>2026-04-04T07:27:54.274Z</time></trkpt><trkpt lat="43.7935112" lon="11.3039296"><ele>174.4</ele><time>2026-04-04T07:27:55.275Z</time></trkpt><trkpt lat="43.7934113" lon="11.3039279"><ele>172.8</ele><time>2026-04-04T07:27:56.272Z</time></trkpt><trkpt lat="43.7933108" lon="11.3039278"><ele>171.20000000000002</ele><time>2026-04-04T07:27:57.267Z</time></trkpt><trkpt lat="43.7932069" lon="11.3039411"><ele>169.60000000000002</ele><time>2026-04-04T07:27:58.27Z</time></trkpt><trkpt lat="43.7930983" lon="11.3039625"><ele>168.0</ele><time>2026-04-04T07:27:59.273Z</time></trkpt><trkpt lat="43.7929876" lon="11.3039801"><ele>168.0</ele><time>2026-04-04T07:28:00.27Z</time></trkpt><trkpt lat="43.792874" lon="11.3039897"><ele>168.0</ele><time>2026-04-04T07:28:01.274Z</time></trkpt><trkpt lat="43.7927609" lon="11.3039988"><ele>168.0</ele><time>2026-04-04T07:28:02.267Z</time></trkpt><trkpt lat="43.7926501" lon="11.3039998"><ele>168.0</ele><time>2026-04-04T07:28:03.261Z</time></trkpt><trkpt lat="43.7925296" lon="11.3040012"><ele>164.75</ele><time>2026-04-04T07:28:04.261Z</time></trkpt><trkpt lat="43.7924124" lon="11.3039955"><ele>161.5</ele><time>2026-04-04T07:28:05.262Z</time></trkpt><trkpt lat="43.7922972" lon="11.3039832"><ele>158.25</ele><time>2026-04-04T07:28:06.258Z</time></trkpt><trkpt lat="43.7921804" lon="11.3039894"><ele>155.0</ele><time>2026-04-04T07:28:07.259Z</time></trkpt><trkpt lat="43.7920655" lon="11.303989"><ele>155.0</ele><time>2026-04-04T07:28:08.269Z</time></trkpt><trkpt lat="43.7919496" lon="11.3039853"><ele>155.0</ele><time>2026-04-04T07:28:09.271Z</time></trkpt><trkpt lat="43.7918333" lon="11.3039757"><ele>155.0</ele><time>2026-04-04T07:28:10.273Z</time></trkpt><trkpt lat="43.7917132" lon="11.3039714"><ele>155.0</ele><time>2026-04-04T07:28:11.276Z</time></trkpt><trkpt lat="43.7915875" lon="11.3039633"><ele>153.0</ele><time>2026-04-04T07:28:12.275Z</time></trkpt><trkpt lat="43.7914596" lon="11.3039563"><ele>151.0</ele><time>2026-04-04T07:28:13.288Z</time></trkpt><trkpt lat="43.7913369" lon="11.3039489"><ele>149.0</ele><time>2026-04-04T07:28:14.274Z</time></trkpt><trkpt lat="43.7912205" lon="11.3039432"><ele>147.0</ele><time>2026-04-04T07:28:15.271Z</time></trkpt><trkpt lat="43.7911129" lon="11.3039341"><ele>147.0</ele><time>2026-04-04T07:28:16.272Z</time></trkpt><trkpt lat="43.7910142" lon="11.3039307"><ele>147.0</ele><time>2026-04-04T07:28:17.272Z</time></trkpt><trkpt lat="43.7909192" lon="11.3039313"><ele>147.0</ele><time>2026-04-04T07:28:18.286Z</time></trkpt><trkpt lat="43.7908216" lon="11.3039404"><ele>147.0</ele><time>2026-04-04T07:28:19.283Z</time></trkpt><trkpt lat="43.7907194" lon="11.3039643"><ele>147.0</ele><time>2026-04-04T07:28:20.281Z</time></trkpt><trkpt lat="43.7906052" lon="11.3039867"><ele>145.75</ele><time>2026-04-04T07:28:21.273Z</time></trkpt><trkpt lat="43.7904818" lon="11.3040045"><ele>144.5</ele><time>2026-04-04T07:28:22.277Z</time></trkpt><trkpt lat="43.790351" lon="11.3040146"><ele>143.25</ele><time>2026-04-04T07:28:23.278Z</time></trkpt><trkpt lat="43.7902281" lon="11.3040211"><ele>142.0</ele><time>2026-04-04T07:28:24.276Z</time></trkpt><trkpt lat="43.7901186" lon="11.3040264"><ele>141.0</ele><time>2026-04-04T07:28:25.278Z</time></trkpt><trkpt lat="43.7900215" lon="11.3040309"><ele>140.0</ele><time>2026-04-04T07:28:26.277Z</time></trkpt><trkpt lat="43.7899341" lon="11.3040365"><ele>139.0</ele><time>2026-04-04T07:28:27.276Z</time></trkpt><trkpt lat="43.789849" lon="11.3040352"><ele>138.0</ele><time>2026-04-04T07:28:28.287Z</time></trkpt><trkpt lat="43.789773" lon="11.3040311"><ele>137.0</ele><time>2026-04-04T07:28:29.28Z</time></trkpt><trkpt lat="43.7897017" lon="11.3040236"><ele>136.0</ele><time>2026-04-04T07:28:30.281Z</time></trkpt><trkpt lat="43.789637" lon="11.3040057"><ele>136.0</ele><time>2026-04-04T07:28:31.264Z</time></trkpt><trkpt lat="43.7895416" lon="11.3039446"><ele>136.0</ele><time>2026-04-04T07:28:33.269Z</time></trkpt><trkpt lat="43.7894977" lon="11.3037913"><ele>136.0</ele><time>2026-04-04T07:28:35.275Z</time></trkpt><trkpt lat="43.7894985" lon="11.3036716"><ele>136.0</ele><time>2026-04-04T07:28:36.268Z</time></trkpt><trkpt lat="43.7895092" lon="11.3035577"><ele>136.0</ele><time>2026-04-04T07:28:37.274Z</time></trkpt><trkpt lat="43.7895037" lon="11.3034196"><ele>136.4</ele><time>2026-04-04T07:28:39.273Z</time></trkpt><trkpt lat="43.7894327" lon="11.3033326"><ele>136.8</ele><time>2026-04-04T07:28:41.267Z</time></trkpt><trkpt lat="43.7893697" lon="11.3032993"><ele>137.20000000000002</ele><time>2026-04-04T07:28:42.264Z</time></trkpt><trkpt lat="43.7892884" lon="11.3032751"><ele>137.6</ele><time>2026-04-04T07:28:43.259Z</time></trkpt><trkpt lat="43.7891794" lon="11.3032605"><ele>138.0</ele><time>2026-04-04T07:28:44.26Z</time></trkpt><trkpt lat="43.7890553" lon="11.3032554"><ele>138.0</ele><time>2026-04-04T07:28:45.265Z</time></trkpt><trkpt lat="43.7889294" lon="11.3032649"><ele>138.0</ele><time>2026-04-04T07:28:46.265Z</time></trkpt><trkpt lat="43.788803" lon="11.3032878"><ele>138.0</ele><time>2026-04-04T07:28:47.271Z</time></trkpt><trkpt lat="43.7886847" lon="11.3033093"><ele>138.0</ele><time>2026-04-04T07:28:48.272Z</time></trkpt><trkpt lat="43.7885782" lon="11.303329"><ele>138.4</ele><time>2026-04-04T07:28:49.269Z</time></trkpt><trkpt lat="43.7884855" lon="11.3033266"><ele>138.8</ele><time>2026-04-04T07:28:50.261Z</time></trkpt><trkpt lat="43.7883926" lon="11.3033155"><ele>139.2</ele><time>2026-04-04T07:28:51.275Z</time></trkpt><trkpt lat="43.7883026" lon="11.3032866"><ele>139.6</ele><time>2026-04-04T07:28:52.272Z</time></trkpt><trkpt lat="43.7882199" lon="11.3032466"><ele>140.0</ele><time>2026-04-04T07:28:53.269Z</time></trkpt><trkpt lat="43.7881377" lon="11.3032162"><ele>140.0</ele><time>2026-04-04T07:28:54.27Z</time></trkpt><trkpt lat="43.7880551" lon="11.3031904"><ele>140.0</ele><time>2026-04-04T07:28:55.27Z</time></trkpt><trkpt lat="43.7879724" lon="11.3031828"><ele>140.0</ele><time>2026-04-04T07:28:56.268Z</time></trkpt><trkpt lat="43.7878909" lon="11.3031719"><ele>140.0</ele><time>2026-04-04T07:28:57.274Z</time></trkpt><trkpt lat="43.7878111" lon="11.30317"><ele>140.0</ele><time>2026-04-04T07:28:58.272Z</time></trkpt><trkpt lat="43.7877368" lon="11.3031554"><ele>140.0</ele><time>2026-04-04T07:28:59.272Z</time></trkpt><trkpt lat="43.7876596" lon="11.303094"><ele>139.5</ele><time>2026-04-04T07:29:00.28Z</time></trkpt><trkpt lat="43.7876135" lon="11.3029975"><ele>139.0</ele><time>2026-04-04T07:29:01.275Z</time></trkpt><trkpt lat="43.787574" lon="11.3028946"><ele>138.5</ele><time>2026-04-04T07:29:02.279Z</time></trkpt><trkpt lat="43.7875239" lon="11.3027988"><ele>138.0</ele><time>2026-04-04T07:29:03.283Z</time></trkpt><trkpt lat="43.7874679" lon="11.3026938"><ele>137.5</ele><time>2026-04-04T07:29:04.284Z</time></trkpt><trkpt lat="43.7874064" lon="11.3025832"><ele>137.0</ele><time>2026-04-04T07:29:05.279Z</time></trkpt><trkpt lat="43.7873431" lon="11.302478"><ele>137.0</ele><time>2026-04-04T07:29:06.278Z</time></trkpt><trkpt lat="43.7872775" lon="11.3023758"><ele>137.0</ele><time>2026-04-04T07:29:07.268Z</time></trkpt><trkpt lat="43.7872057" lon="11.3022884"><ele>137.0</ele><time>2026-04-04T07:29:08.266Z</time></trkpt><trkpt lat="43.787134" lon="11.3022071"><ele>137.0</ele><time>2026-04-04T07:29:09.26Z</time></trkpt><trkpt lat="43.7870527" lon="11.3021196"><ele>137.0</ele><time>2026-04-04T07:29:10.261Z</time></trkpt><trkpt lat="43.7869724" lon="11.3020257"><ele>136.4</ele><time>2026-04-04T07:29:11.278Z</time></trkpt><trkpt lat="43.7868965" lon="11.3019281"><ele>135.79999999999998</ele><time>2026-04-04T07:29:12.276Z</time></trkpt><trkpt lat="43.7868133" lon="11.3018329"><ele>135.2</ele><time>2026-04-04T07:29:13.278Z</time></trkpt><trkpt lat="43.7867243" lon="11.3017382"><ele>134.6</ele><time>2026-04-04T07:29:14.277Z</time></trkpt><trkpt lat="43.7866323" lon="11.3016475"><ele>134.0</ele><time>2026-04-04T07:29:15.265Z</time></trkpt><trkpt lat="43.7865334" lon="11.3015525"><ele>134.0</ele><time>2026-04-04T07:29:16.277Z</time></trkpt><trkpt lat="43.7864344" lon="11.3014617"><ele>134.0</ele><time>2026-04-04T07:29:17.265Z</time></trkpt><trkpt lat="43.786334" lon="11.3013803"><ele>134.0</ele><time>2026-04-04T07:29:18.265Z</time></trkpt><trkpt lat="43.7862398" lon="11.3013017"><ele>134.0</ele><time>2026-04-04T07:29:19.262Z</time></trkpt><trkpt lat="43.7861518" lon="11.3012216"><ele>133.0</ele><time>2026-04-04T07:29:20.264Z</time></trkpt><trkpt lat="43.7860694" lon="11.3011473"><ele>132.0</ele><time>2026-04-04T07:29:21.267Z</time></trkpt><trkpt lat="43.785996" lon="11.3010748"><ele>131.0</ele><time>2026-04-04T07:29:22.272Z</time></trkpt><trkpt lat="43.7859219" lon="11.3009985"><ele>130.0</ele><time>2026-04-04T07:29:23.263Z</time></trkpt><trkpt lat="43.7858514" lon="11.3009292"><ele>129.0</ele><time>2026-04-04T07:29:24.271Z</time></trkpt><trkpt lat="43.7857836" lon="11.3008715"><ele>128.0</ele><time>2026-04-04T07:29:25.268Z</time></trkpt><trkpt lat="43.7857112" lon="11.3008193"><ele>128.0</ele><time>2026-04-04T07:29:26.269Z</time></trkpt><trkpt lat="43.7856329" lon="11.3007794"><ele>128.0</ele><time>2026-04-04T07:29:27.265Z</time></trkpt><trkpt lat="43.7855454" lon="11.3007446"><ele>128.0</ele><time>2026-04-04T07:29:28.263Z</time></trkpt><trkpt lat="43.7854452" lon="11.300708"><ele>128.0</ele><time>2026-04-04T07:29:29.261Z</time></trkpt><trkpt lat="43.7853351" lon="11.3006695"><ele>128.0</ele><time>2026-04-04T07:29:30.264Z</time></trkpt><trkpt lat="43.7852294" lon="11.3006317"><ele>127.2</ele><time>2026-04-04T07:29:31.26Z</time></trkpt><trkpt lat="43.7851291" lon="11.3005953"><ele>126.4</ele><time>2026-04-04T07:29:32.256Z</time></trkpt><trkpt lat="43.7850361" lon="11.3005562"><ele>125.60000000000001</ele><time>2026-04-04T07:29:33.256Z</time></trkpt><trkpt lat="43.7849453" lon="11.3005197"><ele>124.80000000000001</ele><time>2026-04-04T07:29:34.255Z</time></trkpt><trkpt lat="43.7848613" lon="11.3004838"><ele>124.0</ele><time>2026-04-04T07:29:35.254Z</time></trkpt><trkpt lat="43.784781" lon="11.3004321"><ele>124.00000000000001</ele><time>2026-04-04T07:29:36.266Z</time></trkpt><trkpt lat="43.7847052" lon="11.3003755"><ele>124.0</ele><time>2026-04-04T07:29:37.272Z</time></trkpt><trkpt lat="43.7846353" lon="11.3003061"><ele>124.0</ele><time>2026-04-04T07:29:38.273Z</time></trkpt><trkpt lat="43.7845643" lon="11.3002299"><ele>124.0</ele><time>2026-04-04T07:29:39.274Z</time></trkpt><trkpt lat="43.7844932" lon="11.3001579"><ele>124.00000000000001</ele><time>2026-04-04T07:29:40.277Z</time></trkpt><trkpt lat="43.7844242" lon="11.3000888"><ele>124.0</ele><time>2026-04-04T07:29:41.271Z</time></trkpt><trkpt lat="43.7843598" lon="11.3000275"><ele>121.6</ele><time>2026-04-04T07:29:42.269Z</time></trkpt><trkpt lat="43.7843031" lon="11.29997"><ele>119.2</ele><time>2026-04-04T07:29:43.269Z</time></trkpt><trkpt lat="43.7842522" lon="11.2999161"><ele>116.79999999999998</ele><time>2026-04-04T07:29:44.27Z</time></trkpt><trkpt lat="43.784169" lon="11.2998437"><ele>114.39999999999999</ele><time>2026-04-04T07:29:46.266Z</time></trkpt><trkpt lat="43.7840851" lon="11.2998424"><ele>112.0</ele><time>2026-04-04T07:29:48.264Z</time></trkpt><trkpt lat="43.7839712" lon="11.2999403"><ele>112.00000000000001</ele><time>2026-04-04T07:29:50.274Z</time></trkpt><trkpt lat="43.7839071" lon="11.299998"><ele>112.0</ele><time>2026-04-04T07:29:51.278Z</time></trkpt><trkpt lat="43.7838451" lon="11.300044"><ele>112.0</ele><time>2026-04-04T07:29:52.274Z</time></trkpt><trkpt lat="43.783783" lon="11.3000791"><ele>112.0</ele><time>2026-04-04T07:29:53.281Z</time></trkpt><trkpt lat="43.7836631" lon="11.3000807"><ele>112.00000000000001</ele><time>2026-04-04T07:29:55.27Z</time></trkpt><trkpt lat="43.7835991" lon="11.3000405"><ele>112.0</ele><time>2026-04-04T07:29:56.274Z</time></trkpt><trkpt lat="43.7835293" lon="11.2999923"><ele>110.50000000000001</ele><time>2026-04-04T07:29:57.272Z</time></trkpt><trkpt lat="43.7834516" lon="11.2999379"><ele>109.0</ele><time>2026-04-04T07:29:58.275Z</time></trkpt><trkpt lat="43.7833757" lon="11.2998843"><ele>107.5</ele><time>2026-04-04T07:29:59.274Z</time></trkpt><trkpt lat="43.7833024" lon="11.2998293"><ele>106.0</ele><time>2026-04-04T07:30:00.283Z</time></trkpt><trkpt lat="43.7832307" lon="11.299773"><ele>104.50000000000001</ele><time>2026-04-04T07:30:01.278Z</time></trkpt><trkpt lat="43.7831682" lon="11.2997105"><ele>103.0</ele><time>2026-04-04T07:30:02.271Z</time></trkpt><trkpt lat="43.7831149" lon="11.2996339"><ele>103.00000000000001</ele><time>2026-04-04T07:30:03.272Z</time></trkpt><trkpt lat="43.7830727" lon="11.2995399"><ele>103.0</ele><time>2026-04-04T07:30:04.274Z</time></trkpt><trkpt lat="43.7830373" lon="11.2994301"><ele>103.0</ele><time>2026-04-04T07:30:05.277Z</time></trkpt><trkpt lat="43.7830043" lon="11.299317"><ele>103.0</ele><time>2026-04-04T07:30:06.275Z</time></trkpt><trkpt lat="43.7829666" lon="11.2992022"><ele>103.00000000000001</ele><time>2026-04-04T07:30:07.276Z</time></trkpt><trkpt lat="43.7829316" lon="11.299087"><ele>103.0</ele><time>2026-04-04T07:30:08.286Z</time></trkpt><trkpt lat="43.7829041" lon="11.298976"><ele>102.00000000000001</ele><time>2026-04-04T07:30:09.275Z</time></trkpt><trkpt lat="43.782881" lon="11.2988683"><ele>101.0</ele><time>2026-04-04T07:30:10.273Z</time></trkpt><trkpt lat="43.782866" lon="11.2987626"><ele>100.0</ele><time>2026-04-04T07:30:11.274Z</time></trkpt><trkpt lat="43.7828602" lon="11.298663"><ele>99.0</ele><time>2026-04-04T07:30:12.268Z</time></trkpt><trkpt lat="43.7828661" lon="11.2985606"><ele>98.00000000000001</ele><time>2026-04-04T07:30:13.27Z</time></trkpt><trkpt lat="43.7828867" lon="11.2984563"><ele>97.0</ele><time>2026-04-04T07:30:14.271Z</time></trkpt><trkpt lat="43.7829198" lon="11.2983559"><ele>97.00000000000001</ele><time>2026-04-04T07:30:15.273Z</time></trkpt><trkpt lat="43.7829594" lon="11.2982602"><ele>97.0</ele><time>2026-04-04T07:30:16.271Z</time></trkpt><trkpt lat="43.7830036" lon="11.2981714"><ele>97.0</ele><time>2026-04-04T07:30:17.269Z</time></trkpt><trkpt lat="43.7830512" lon="11.298083"><ele>97.0</ele><time>2026-04-04T07:30:18.266Z</time></trkpt><trkpt lat="43.7831053" lon="11.2979962"><ele>97.00000000000001</ele><time>2026-04-04T07:30:19.265Z</time></trkpt><trkpt lat="43.7831587" lon="11.2979152"><ele>97.0</ele><time>2026-04-04T07:30:20.262Z</time></trkpt><trkpt lat="43.7832133" lon="11.2978416"><ele>94.8</ele><time>2026-04-04T07:30:21.261Z</time></trkpt><trkpt lat="43.7832592" lon="11.2977754"><ele>92.6</ele><time>2026-04-04T07:30:22.262Z</time></trkpt><trkpt lat="43.7833366" lon="11.2976584"><ele>90.39999999999999</ele><time>2026-04-04T07:30:24.27Z</time></trkpt><trkpt lat="43.7833912" lon="11.297539"><ele>88.19999999999999</ele><time>2026-04-04T07:30:26.264Z</time></trkpt><trkpt lat="43.7834041" lon="11.2974021"><ele>86.0</ele><time>2026-04-04T07:30:28.264Z</time></trkpt><trkpt lat="43.7833667" lon="11.2972609"><ele>84.0</ele><time>2026-04-04T07:30:30.262Z</time></trkpt><trkpt lat="43.7833049" lon="11.2971242"><ele>82.0</ele><time>2026-04-04T07:30:32.264Z</time></trkpt><trkpt lat="43.7832542" lon="11.2970236"><ele>80.0</ele><time>2026-04-04T07:30:34.268Z</time></trkpt><trkpt lat="43.7831933" lon="11.2969593"><ele>78.0</ele><time>2026-04-04T07:30:38.271Z</time></trkpt><trkpt lat="43.7831101" lon="11.2970172"><ele>76.0</ele><time>2026-04-04T07:30:41.28Z</time></trkpt><trkpt lat="43.7830064" lon="11.2971108"><ele>76.0</ele><time>2026-04-04T07:30:43.263Z</time></trkpt><trkpt lat="43.7829386" lon="11.2971624"><ele>76.0</ele><time>2026-04-04T07:30:44.276Z</time></trkpt><trkpt lat="43.7828653" lon="11.2972212"><ele>76.0</ele><time>2026-04-04T07:30:45.262Z</time></trkpt><trkpt lat="43.7827885" lon="11.2972862"><ele>76.0</ele><time>2026-04-04T07:30:46.264Z</time></trkpt><trkpt lat="43.7827164" lon="11.2973422"><ele>76.0</ele><time>2026-04-04T07:30:47.273Z</time></trkpt><trkpt lat="43.7826385" lon="11.2974097"><ele>76.0</ele><time>2026-04-04T07:30:49.283Z</time></trkpt><trkpt lat="43.7825411" lon="11.2974802"><ele>76.2</ele><time>2026-04-04T07:31:17.279Z</time></trkpt><trkpt lat="43.7824822" lon="11.2975597"><ele>76.39999999999999</ele><time>2026-04-04T07:31:18.281Z</time></trkpt><trkpt lat="43.782419" lon="11.2976665"><ele>76.6</ele><time>2026-04-04T07:31:19.275Z</time></trkpt><trkpt lat="43.7823514" lon="11.2977804"><ele>76.8</ele><time>2026-04-04T07:31:20.27Z</time></trkpt><trkpt lat="43.7822801" lon="11.2978972"><ele>77.0</ele><time>2026-04-04T07:31:21.268Z</time></trkpt><trkpt lat="43.7822082" lon="11.2980138"><ele>78.25</ele><time>2026-04-04T07:31:22.267Z</time></trkpt><trkpt lat="43.7821355" lon="11.2981356"><ele>79.5</ele><time>2026-04-04T07:31:23.268Z</time></trkpt><trkpt lat="43.7820593" lon="11.2982656"><ele>80.75</ele><time>2026-04-04T07:31:24.267Z</time></trkpt><trkpt lat="43.7819877" lon="11.2983944"><ele>82.0</ele><time>2026-04-04T07:31:25.275Z</time></trkpt><trkpt lat="43.7819204" lon="11.2985201"><ele>82.0</ele><time>2026-04-04T07:31:26.266Z</time></trkpt><trkpt lat="43.781855" lon="11.2986339"><ele>82.0</ele><time>2026-04-04T07:31:27.271Z</time></trkpt><trkpt lat="43.781792" lon="11.2987379"><ele>82.0</ele><time>2026-04-04T07:31:28.272Z</time></trkpt><trkpt lat="43.7817338" lon="11.2988367"><ele>82.0</ele><time>2026-04-04T07:31:29.269Z</time></trkpt><trkpt lat="43.781681" lon="11.2989296"><ele>82.0</ele><time>2026-04-04T07:31:30.268Z</time></trkpt><trkpt lat="43.7816284" lon="11.29902"><ele>80.0</ele><time>2026-04-04T07:31:31.277Z</time></trkpt><trkpt lat="43.7815767" lon="11.2991114"><ele>78.0</ele><time>2026-04-04T07:31:32.271Z</time></trkpt><trkpt lat="43.781523" lon="11.2992078"><ele>76.0</ele><time>2026-04-04T07:31:33.263Z</time></trkpt><trkpt lat="43.7814693" lon="11.2993028"><ele>74.0</ele><time>2026-04-04T07:31:34.257Z</time></trkpt><trkpt lat="43.7814214" lon="11.2993945"><ele>72.0</ele><time>2026-04-04T07:31:35.262Z</time></trkpt><trkpt lat="43.7813774" lon="11.2994769"><ele>70.0</ele><time>2026-04-04T07:31:36.26Z</time></trkpt><trkpt lat="43.7813318" lon="11.29955"><ele>70.0</ele><time>2026-04-04T07:31:37.262Z</time></trkpt><trkpt lat="43.7812709" lon="11.299657"><ele>70.0</ele><time>2026-04-04T07:31:39.257Z</time></trkpt><trkpt lat="43.7812218" lon="11.2997739"><ele>70.0</ele><time>2026-04-04T07:31:55.272Z</time></trkpt><trkpt lat="43.7812139" lon="11.2998891"><ele>70.0</ele><time>2026-04-04T07:31:56.273Z</time></trkpt><trkpt lat="43.7812071" lon="11.3000305"><ele>70.0</ele><time>2026-04-04T07:31:57.271Z</time></trkpt><trkpt lat="43.7811963" lon="11.3001947"><ele>70.0</ele><time>2026-04-04T07:31:58.266Z</time></trkpt><trkpt lat="43.7811899" lon="11.3003698"><ele>70.0</ele><time>2026-04-04T07:31:59.265Z</time></trkpt><trkpt lat="43.7811832" lon="11.3005511"><ele>70.0</ele><time>2026-04-04T07:32:00.268Z</time></trkpt><trkpt lat="43.7811806" lon="11.3007194"><ele>70.0</ele><time>2026-04-04T07:32:01.265Z</time></trkpt><trkpt lat="43.781182" lon="11.3008791"><ele>70.0</ele><time>2026-04-04T07:32:02.266Z</time></trkpt><trkpt lat="43.7811823" lon="11.3010435"><ele>70.0</ele><time>2026-04-04T07:32:03.267Z</time></trkpt><trkpt lat="43.7811845" lon="11.3012174"><ele>70.0</ele><time>2026-04-04T07:32:04.271Z</time></trkpt><trkpt lat="43.7811863" lon="11.3013874"><ele>70.0</ele><time>2026-04-04T07:32:05.272Z</time></trkpt><trkpt lat="43.7811802" lon="11.3015492"><ele>70.2</ele><time>2026-04-04T07:32:06.267Z</time></trkpt><trkpt lat="43.7811769" lon="11.301697"><ele>70.4</ele><time>2026-04-04T07:32:07.266Z</time></trkpt><trkpt lat="43.7811621" lon="11.3018452"><ele>70.6</ele><time>2026-04-04T07:32:08.261Z</time></trkpt><trkpt lat="43.7811357" lon="11.3019945"><ele>70.8</ele><time>2026-04-04T07:32:09.264Z</time></trkpt><trkpt lat="43.781099" lon="11.3021519"><ele>71.0</ele><time>2026-04-04T07:32:10.262Z</time></trkpt><trkpt lat="43.7810552" lon="11.3023188"><ele>70.0</ele><time>2026-04-04T07:32:11.272Z</time></trkpt><trkpt lat="43.7810112" lon="11.3024959"><ele>69.0</ele><time>2026-04-04T07:32:12.279Z</time></trkpt><trkpt lat="43.7809748" lon="11.3026813"><ele>68.0</ele><time>2026-04-04T07:32:13.275Z</time></trkpt><trkpt lat="43.7809509" lon="11.3028806"><ele>67.0</ele><time>2026-04-04T07:32:14.273Z</time></trkpt><trkpt lat="43.7809447" lon="11.3031099"><ele>67.0</ele><time>2026-04-04T07:32:15.268Z</time></trkpt><trkpt lat="43.7809458" lon="11.3033286"><ele>67.0</ele><time>2026-04-04T07:32:16.272Z</time></trkpt><trkpt lat="43.7809536" lon="11.3035385"><ele>67.0</ele><time>2026-04-04T07:32:17.28Z</time></trkpt><trkpt lat="43.7809532" lon="11.3037258"><ele>67.0</ele><time>2026-04-04T07:32:18.277Z</time></trkpt><trkpt lat="43.7809583" lon="11.3038985"><ele>67.25</ele><time>2026-04-04T07:32:19.275Z</time></trkpt><trkpt lat="43.7809622" lon="11.304062"><ele>67.5</ele><time>2026-04-04T07:32:20.271Z</time></trkpt><trkpt lat="43.7809713" lon="11.304219"><ele>67.75</ele><time>2026-04-04T07:32:21.269Z</time></trkpt><trkpt lat="43.7809773" lon="11.3043769"><ele>68.0</ele><time>2026-04-04T07:32:22.266Z</time></trkpt><trkpt lat="43.7809812" lon="11.3045476"><ele>68.0</ele><time>2026-04-04T07:32:23.275Z</time></trkpt><trkpt lat="43.7809776" lon="11.3047155"><ele>68.0</ele><time>2026-04-04T07:32:24.273Z</time></trkpt><trkpt lat="43.7809671" lon="11.3048877"><ele>68.0</ele><time>2026-04-04T07:32:25.269Z</time></trkpt><trkpt lat="43.7809467" lon="11.305055"><ele>68.0</ele><time>2026-04-04T07:32:26.27Z</time></trkpt><trkpt lat="43.7809152" lon="11.3052237"><ele>68.25</ele><time>2026-04-04T07:32:27.279Z</time></trkpt><trkpt lat="43.7808773" lon="11.3053838"><ele>68.5</ele><time>2026-04-04T07:32:28.275Z</time></trkpt><trkpt lat="43.7808413" lon="11.3055363"><ele>68.75</ele><time>2026-04-04T07:32:29.277Z</time></trkpt><trkpt lat="43.7808168" lon="11.3056824"><ele>69.0</ele><time>2026-04-04T07:32:30.273Z</time></trkpt><trkpt lat="43.7808001" lon="11.3058322"><ele>69.75</ele><time>2026-04-04T07:32:31.274Z</time></trkpt><trkpt lat="43.7807973" lon="11.3059854"><ele>70.5</ele><time>2026-04-04T07:32:32.269Z</time></trkpt><trkpt lat="43.7808064" lon="11.3061476"><ele>71.25</ele><time>2026-04-04T07:32:33.27Z</time></trkpt><trkpt lat="43.7808241" lon="11.3063131"><ele>72.0</ele><time>2026-04-04T07:32:34.268Z</time></trkpt><trkpt lat="43.7808502" lon="11.3064802"><ele>72.0</ele><time>2026-04-04T07:32:35.267Z</time></trkpt><trkpt lat="43.7808792" lon="11.3066319"><ele>72.0</ele><time>2026-04-04T07:32:36.27Z</time></trkpt><trkpt lat="43.7809126" lon="11.3067643"><ele>72.0</ele><time>2026-04-04T07:32:37.272Z</time></trkpt><trkpt lat="43.780952" lon="11.3068677"><ele>72.0</ele><time>2026-04-04T07:32:38.266Z</time></trkpt><trkpt lat="43.7810014" lon="11.3069667"><ele>72.0</ele><time>2026-04-04T07:32:39.268Z</time></trkpt><trkpt lat="43.7810683" lon="11.3070722"><ele>73.0</ele><time>2026-04-04T07:32:40.266Z</time></trkpt><trkpt lat="43.781142" lon="11.3071976"><ele>74.0</ele><time>2026-04-04T07:32:41.266Z</time></trkpt><trkpt lat="43.7812112" lon="11.3073443"><ele>75.0</ele><time>2026-04-04T07:32:42.274Z</time></trkpt><trkpt lat="43.7812759" lon="11.3074992"><ele>76.0</ele><time>2026-04-04T07:32:43.269Z</time></trkpt><trkpt lat="43.7813347" lon="11.3076614"><ele>76.0</ele><time>2026-04-04T07:32:44.271Z</time></trkpt><trkpt lat="43.7813918" lon="11.3078191"><ele>76.0</ele><time>2026-04-04T07:32:45.271Z</time></trkpt><trkpt lat="43.7814461" lon="11.3079737"><ele>76.0</ele><time>2026-04-04T07:32:46.269Z</time></trkpt><trkpt lat="43.7815024" lon="11.3081357"><ele>76.0</ele><time>2026-04-04T07:32:47.267Z</time></trkpt><trkpt lat="43.7815573" lon="11.3083058"><ele>75.5</ele><time>2026-04-04T07:32:48.267Z</time></trkpt><trkpt lat="43.7816115" lon="11.3084773"><ele>75.0</ele><time>2026-04-04T07:32:49.266Z</time></trkpt><trkpt lat="43.7816618" lon="11.3086485"><ele>74.5</ele><time>2026-04-04T07:32:50.269Z</time></trkpt><trkpt lat="43.7817105" lon="11.3088152"><ele>74.0</ele><time>2026-04-04T07:32:51.269Z</time></trkpt><trkpt lat="43.7817527" lon="11.3089727"><ele>74.0</ele><time>2026-04-04T07:32:52.272Z</time></trkpt><trkpt lat="43.7817948" lon="11.3091169"><ele>74.0</ele><time>2026-04-04T07:32:53.267Z</time></trkpt><trkpt lat="43.7818295" lon="11.3092494"><ele>74.0</ele><time>2026-04-04T07:32:54.269Z</time></trkpt><trkpt lat="43.7818611" lon="11.3093719"><ele>74.0</ele><time>2026-04-04T07:32:55.265Z</time></trkpt><trkpt lat="43.7818859" lon="11.3094939"><ele>74.0</ele><time>2026-04-04T07:32:56.264Z</time></trkpt><trkpt lat="43.7818952" lon="11.3096119"><ele>74.4</ele><time>2026-04-04T07:32:57.27Z</time></trkpt><trkpt lat="43.7818861" lon="11.3097353"><ele>74.80000000000001</ele><time>2026-04-04T07:32:58.28Z</time></trkpt><trkpt lat="43.7818553" lon="11.3098743"><ele>75.19999999999999</ele><time>2026-04-04T07:32:59.271Z</time></trkpt><trkpt lat="43.7818121" lon="11.3100301"><ele>75.6</ele><time>2026-04-04T07:33:00.274Z</time></trkpt><trkpt lat="43.7817647" lon="11.3101924"><ele>76.0</ele><time>2026-04-04T07:33:01.272Z</time></trkpt><trkpt lat="43.7817175" lon="11.3103538"><ele>76.0</ele><time>2026-04-04T07:33:02.273Z</time></trkpt><trkpt lat="43.78166" lon="11.3104998"><ele>76.0</ele><time>2026-04-04T07:33:03.27Z</time></trkpt><trkpt lat="43.7815835" lon="11.3106295"><ele>76.0</ele><time>2026-04-04T07:33:04.274Z</time></trkpt><trkpt lat="43.781482" lon="11.3107404"><ele>76.0</ele><time>2026-04-04T07:33:05.273Z</time></trkpt><trkpt lat="43.7813552" lon="11.3108404"><ele>78.0</ele><time>2026-04-04T07:33:06.265Z</time></trkpt><trkpt lat="43.7812083" lon="11.3109371"><ele>80.0</ele><time>2026-04-04T07:33:07.272Z</time></trkpt><trkpt lat="43.7810346" lon="11.311021"><ele>82.0</ele><time>2026-04-04T07:33:08.269Z</time></trkpt><trkpt lat="43.7808486" lon="11.3110938"><ele>82.66666666666666</ele><time>2026-04-04T07:33:09.28Z</time></trkpt><trkpt lat="43.7806786" lon="11.3111538"><ele>83.33333333333333</ele><time>2026-04-04T07:33:10.278Z</time></trkpt><trkpt lat="43.7805156" lon="11.3112226"><ele>84.0</ele><time>2026-04-04T07:33:11.278Z</time></trkpt><trkpt lat="43.7803635" lon="11.3113036"><ele>86.0</ele><time>2026-04-04T07:33:12.279Z</time></trkpt><trkpt lat="43.780226" lon="11.3114084"><ele>88.0</ele><time>2026-04-04T07:33:13.274Z</time></trkpt><trkpt lat="43.7801023" lon="11.3115381"><ele>90.0</ele><time>2026-04-04T07:33:14.266Z</time></trkpt><trkpt lat="43.7799908" lon="11.3116764"><ele>90.0</ele><time>2026-04-04T07:33:15.281Z</time></trkpt><trkpt lat="43.7798905" lon="11.3118245"><ele>90.0</ele><time>2026-04-04T07:33:16.28Z</time></trkpt><trkpt lat="43.7798043" lon="11.3119556"><ele>90.0</ele><time>2026-04-04T07:33:17.279Z</time></trkpt><trkpt lat="43.7797328" lon="11.3120773"><ele>90.0</ele><time>2026-04-04T07:33:18.279Z</time></trkpt><trkpt lat="43.7796757" lon="11.3121944"><ele>91.5</ele><time>2026-04-04T07:33:19.278Z</time></trkpt><trkpt lat="43.7796382" lon="11.312329"><ele>93.0</ele><time>2026-04-04T07:33:20.273Z</time></trkpt><trkpt lat="43.7796241" lon="11.3124741"><ele>94.5</ele><time>2026-04-04T07:33:21.274Z</time></trkpt><trkpt lat="43.7796384" lon="11.3126344"><ele>96.0</ele><time>2026-04-04T07:33:22.27Z</time></trkpt><trkpt lat="43.779668" lon="11.3128072"><ele>96.0</ele><time>2026-04-04T07:33:23.275Z</time></trkpt><trkpt lat="43.779703" lon="11.3129948"><ele>96.0</ele><time>2026-04-04T07:33:24.276Z</time></trkpt><trkpt lat="43.7797334" lon="11.3132031"><ele>96.0</ele><time>2026-04-04T07:33:25.277Z</time></trkpt><trkpt lat="43.7797722" lon="11.31344"><ele>97.5</ele><time>2026-04-04T07:33:26.273Z</time></trkpt><trkpt lat="43.7798125" lon="11.3136726"><ele>99.0</ele><time>2026-04-04T07:33:27.279Z</time></trkpt><trkpt lat="43.77985" lon="11.313865"><ele>100.5</ele><time>2026-04-04T07:33:28.275Z</time></trkpt><trkpt lat="43.7798846" lon="11.3140178"><ele>102.0</ele><time>2026-04-04T07:33:29.286Z</time></trkpt><trkpt lat="43.7799284" lon="11.3141277"><ele>103.8</ele><time>2026-04-04T07:33:30.28Z</time></trkpt><trkpt lat="43.7799919" lon="11.3142094"><ele>105.6</ele><time>2026-04-04T07:33:31.282Z</time></trkpt><trkpt lat="43.7800766" lon="11.3142595"><ele>107.39999999999999</ele><time>2026-04-04T07:33:32.274Z</time></trkpt><trkpt lat="43.7801982" lon="11.3142872"><ele>109.19999999999999</ele><time>2026-04-04T07:33:33.271Z</time></trkpt><trkpt lat="43.7803438" lon="11.3143143"><ele>111.0</ele><time>2026-04-04T07:33:34.263Z</time></trkpt><trkpt lat="43.7805199" lon="11.3143426"><ele>113.33333333333334</ele><time>2026-04-04T07:33:35.27Z</time></trkpt><trkpt lat="43.7806911" lon="11.314357"><ele>115.66666666666667</ele><time>2026-04-04T07:33:36.272Z</time></trkpt><trkpt lat="43.7808374" lon="11.3143632"><ele>118.0</ele><time>2026-04-04T07:33:37.264Z</time></trkpt><trkpt lat="43.7809698" lon="11.3143667"><ele>117.4</ele><time>2026-04-04T07:33:38.272Z</time></trkpt><trkpt lat="43.7810942" lon="11.3143794"><ele>116.80000000000001</ele><time>2026-04-04T07:33:39.27Z</time></trkpt><trkpt lat="43.7812045" lon="11.3143964"><ele>116.2</ele><time>2026-04-04T07:33:40.27Z</time></trkpt><trkpt lat="43.7813" lon="11.3144284"><ele>115.6</ele><time>2026-04-04T07:33:41.271Z</time></trkpt><trkpt lat="43.7813744" lon="11.3144721"><ele>115.0</ele><time>2026-04-04T07:33:42.272Z</time></trkpt><trkpt lat="43.7814365" lon="11.3145375"><ele>115.0</ele><time>2026-04-04T07:33:43.266Z</time></trkpt><trkpt lat="43.7814877" lon="11.3146219"><ele>115.0</ele><time>2026-04-04T07:33:44.267Z</time></trkpt><trkpt lat="43.7815273" lon="11.3147311"><ele>115.0</ele><time>2026-04-04T07:33:45.261Z</time></trkpt><trkpt lat="43.7815491" lon="11.3148619"><ele>115.0</ele><time>2026-04-04T07:33:46.26Z</time></trkpt><trkpt lat="43.7815549" lon="11.315029"><ele>115.0</ele><time>2026-04-04T07:33:47.267Z</time></trkpt><trkpt lat="43.7815517" lon="11.3152392"><ele>117.33333333333334</ele><time>2026-04-04T07:33:48.26Z</time></trkpt><trkpt lat="43.7815252" lon="11.315481"><ele>119.66666666666666</ele><time>2026-04-04T07:33:49.269Z</time></trkpt><trkpt lat="43.7814779" lon="11.3157443"><ele>122.0</ele><time>2026-04-04T07:33:50.283Z</time></trkpt><trkpt lat="43.7814127" lon="11.316002"><ele>123.0</ele><time>2026-04-04T07:33:51.276Z</time></trkpt><trkpt lat="43.7813442" lon="11.3162391"><ele>124.0</ele><time>2026-04-04T07:33:52.288Z</time></trkpt><trkpt lat="43.7812905" lon="11.3164524"><ele>125.0</ele><time>2026-04-04T07:33:53.275Z</time></trkpt><trkpt lat="43.7812387" lon="11.3166435"><ele>126.0</ele><time>2026-04-04T07:33:54.277Z</time></trkpt><trkpt lat="43.7811782" lon="11.3168201"><ele>127.0</ele><time>2026-04-04T07:33:55.275Z</time></trkpt><trkpt lat="43.7811042" lon="11.3169958"><ele>128.0</ele><time>2026-04-04T07:33:56.278Z</time></trkpt><trkpt lat="43.7810231" lon="11.3171568"><ele>129.0</ele><time>2026-04-04T07:33:57.279Z</time></trkpt><trkpt lat="43.7809226" lon="11.3173147"><ele>131.66666666666666</ele><time>2026-04-04T07:33:58.284Z</time></trkpt><trkpt lat="43.7808092" lon="11.3174692"><ele>134.33333333333331</ele><time>2026-04-04T07:33:59.283Z</time></trkpt><trkpt lat="43.780684" lon="11.3176215"><ele>137.0</ele><time>2026-04-04T07:34:00.286Z</time></trkpt><trkpt lat="43.7805562" lon="11.317775"><ele>137.0</ele><time>2026-04-04T07:34:01.279Z</time></trkpt><trkpt lat="43.7804312" lon="11.3179226"><ele>137.0</ele><time>2026-04-04T07:34:02.273Z</time></trkpt><trkpt lat="43.7803147" lon="11.3180691"><ele>137.0</ele><time>2026-04-04T07:34:03.269Z</time></trkpt><trkpt lat="43.7802195" lon="11.3182137"><ele>138.6</ele><time>2026-04-04T07:34:04.268Z</time></trkpt><trkpt lat="43.7801333" lon="11.31835"><ele>140.2</ele><time>2026-04-04T07:34:05.268Z</time></trkpt><trkpt lat="43.7800484" lon="11.3184686"><ele>141.8</ele><time>2026-04-04T07:34:06.268Z</time></trkpt><trkpt lat="43.7799738" lon="11.31857"><ele>143.4</ele><time>2026-04-04T07:34:07.278Z</time></trkpt><trkpt lat="43.7799101" lon="11.3186621"><ele>145.0</ele><time>2026-04-04T07:34:08.276Z</time></trkpt><trkpt lat="43.779856" lon="11.3187441"><ele>145.0</ele><time>2026-04-04T07:34:09.277Z</time></trkpt><trkpt lat="43.7798214" lon="11.3188448"><ele>145.0</ele><time>2026-04-04T07:34:10.289Z</time></trkpt><trkpt lat="43.7798034" lon="11.3189567"><ele>145.0</ele><time>2026-04-04T07:34:11.275Z</time></trkpt><trkpt lat="43.7798032" lon="11.3190777"><ele>145.0</ele><time>2026-04-04T07:34:12.273Z</time></trkpt><trkpt lat="43.7798224" lon="11.3192118"><ele>145.0</ele><time>2026-04-04T07:34:13.272Z</time></trkpt><trkpt lat="43.7798695" lon="11.3193421"><ele>146.25</ele><time>2026-04-04T07:34:14.285Z</time></trkpt><trkpt lat="43.7799476" lon="11.3194753"><ele>147.5</ele><time>2026-04-04T07:34:15.281Z</time></trkpt><trkpt lat="43.7800632" lon="11.3196004"><ele>148.75</ele><time>2026-04-04T07:34:16.276Z</time></trkpt><trkpt lat="43.7802027" lon="11.3196958"><ele>150.0</ele><time>2026-04-04T07:34:17.278Z</time></trkpt><trkpt lat="43.7803521" lon="11.3197617"><ele>152.66666666666666</ele><time>2026-04-04T07:34:18.284Z</time></trkpt><trkpt lat="43.7805094" lon="11.3197958"><ele>155.33333333333331</ele><time>2026-04-04T07:34:19.267Z</time></trkpt><trkpt lat="43.7806719" lon="11.3198143"><ele>158.0</ele><time>2026-04-04T07:34:20.275Z</time></trkpt><trkpt lat="43.7808327" lon="11.3198306"><ele>158.0</ele><time>2026-04-04T07:34:21.286Z</time></trkpt><trkpt lat="43.780994" lon="11.3198656"><ele>158.0</ele><time>2026-04-04T07:34:22.287Z</time></trkpt><trkpt lat="43.7811544" lon="11.3199224"><ele>158.0</ele><time>2026-04-04T07:34:23.287Z</time></trkpt><trkpt lat="43.781311" lon="11.3199959"><ele>158.75</ele><time>2026-04-04T07:34:24.289Z</time></trkpt><trkpt lat="43.7814559" lon="11.3200696"><ele>159.5</ele><time>2026-04-04T07:34:25.287Z</time></trkpt><trkpt lat="43.78158" lon="11.3201357"><ele>160.25</ele><time>2026-04-04T07:34:26.284Z</time></trkpt><trkpt lat="43.7816878" lon="11.32018"><ele>161.0</ele><time>2026-04-04T07:34:27.283Z</time></trkpt><trkpt lat="43.7817745" lon="11.3202223"><ele>162.4</ele><time>2026-04-04T07:34:28.286Z</time></trkpt><trkpt lat="43.7818502" lon="11.3202642"><ele>163.8</ele><time>2026-04-04T07:34:29.287Z</time></trkpt><trkpt lat="43.7819339" lon="11.3203027"><ele>165.20000000000002</ele><time>2026-04-04T07:34:30.281Z</time></trkpt><trkpt lat="43.7820318" lon="11.3203429"><ele>166.60000000000002</ele><time>2026-04-04T07:34:31.296Z</time></trkpt><trkpt lat="43.7821327" lon="11.320389"><ele>168.0</ele><time>2026-04-04T07:34:32.283Z</time></trkpt><trkpt lat="43.7822356" lon="11.3204407"><ele>168.0</ele><time>2026-04-04T07:34:33.282Z</time></trkpt><trkpt lat="43.7823389" lon="11.3204932"><ele>168.0</ele><time>2026-04-04T07:34:34.279Z</time></trkpt><trkpt lat="43.7824343" lon="11.3205454"><ele>168.0</ele><time>2026-04-04T07:34:35.277Z</time></trkpt><trkpt lat="43.7825243" lon="11.3205962"><ele>168.0</ele><time>2026-04-04T07:34:36.281Z</time></trkpt><trkpt lat="43.7826046" lon="11.3206451"><ele>168.0</ele><time>2026-04-04T07:34:37.28Z</time></trkpt><trkpt lat="43.7826735" lon="11.3206891"><ele>168.0</ele><time>2026-04-04T07:34:38.281Z</time></trkpt><trkpt lat="43.7827375" lon="11.3207283"><ele>168.0</ele><time>2026-04-04T07:34:39.277Z</time></trkpt><trkpt lat="43.782839" lon="11.3207952"><ele>168.0</ele><time>2026-04-04T07:34:41.271Z</time></trkpt><trkpt lat="43.7828408" lon="11.320925"><ele>168.0</ele><time>2026-04-04T07:35:37.28Z</time></trkpt><trkpt lat="43.7828651" lon="11.3210655"><ele>168.0</ele><time>2026-04-04T07:35:39.275Z</time></trkpt><trkpt lat="43.7829233" lon="11.3212147"><ele>168.0</ele><time>2026-04-04T07:35:41.279Z</time></trkpt><trkpt lat="43.7829617" lon="11.3212888"><ele>168.0</ele><time>2026-04-04T07:35:42.282Z</time></trkpt><trkpt lat="43.7830024" lon="11.3213598"><ele>168.0</ele><time>2026-04-04T07:35:43.282Z</time></trkpt><trkpt lat="43.7830402" lon="11.3214402"><ele>168.0</ele><time>2026-04-04T07:35:44.279Z</time></trkpt><trkpt lat="43.7830666" lon="11.3215317"><ele>168.0</ele><time>2026-04-04T07:35:45.279Z</time></trkpt><trkpt lat="43.7830926" lon="11.3216259"><ele>168.0</ele><time>2026-04-04T07:35:46.276Z</time></trkpt><trkpt lat="43.7831202" lon="11.3217204"><ele>168.0</ele><time>2026-04-04T07:35:47.276Z</time></trkpt><trkpt lat="43.7831531" lon="11.3218165"><ele>169.16666666666666</ele><time>2026-04-04T07:35:48.275Z</time></trkpt><trkpt lat="43.7831882" lon="11.3219181"><ele>170.33333333333334</ele><time>2026-04-04T07:35:49.267Z</time></trkpt><trkpt lat="43.7832294" lon="11.3220238"><ele>171.5</ele><time>2026-04-04T07:35:50.269Z</time></trkpt><trkpt lat="43.7832755" lon="11.3221283"><ele>172.66666666666669</ele><time>2026-04-04T07:35:51.271Z</time></trkpt><trkpt lat="43.7833165" lon="11.3222345"><ele>173.83333333333334</ele><time>2026-04-04T07:35:52.271Z</time></trkpt><trkpt lat="43.7833537" lon="11.3223322"><ele>175.0</ele><time>2026-04-04T07:35:53.274Z</time></trkpt><trkpt lat="43.7833883" lon="11.3224211"><ele>175.42857142857142</ele><time>2026-04-04T07:35:54.273Z</time></trkpt><trkpt lat="43.7834237" lon="11.3225029"><ele>175.85714285714286</ele><time>2026-04-04T07:35:55.274Z</time></trkpt><trkpt lat="43.7834556" lon="11.3225838"><ele>176.28571428571428</ele><time>2026-04-04T07:35:56.271Z</time></trkpt><trkpt lat="43.7834832" lon="11.3226703"><ele>176.71428571428572</ele><time>2026-04-04T07:35:57.271Z</time></trkpt><trkpt lat="43.7835051" lon="11.3227579"><ele>177.14285714285714</ele><time>2026-04-04T07:35:58.272Z</time></trkpt><trkpt lat="43.7835138" lon="11.3228487"><ele>177.57142857142856</ele><time>2026-04-04T07:35:59.272Z</time></trkpt><trkpt lat="43.7835193" lon="11.3229984"><ele>178.0</ele><time>2026-04-04T07:36:01.28Z</time></trkpt><trkpt lat="43.7835321" lon="11.3231205"><ele>179.0</ele><time>2026-04-04T07:36:03.277Z</time></trkpt><trkpt lat="43.7835541" lon="11.3232701"><ele>180.0</ele><time>2026-04-04T07:36:05.267Z</time></trkpt><trkpt lat="43.7835946" lon="11.3234367"><ele>181.0</ele><time>2026-04-04T07:36:07.269Z</time></trkpt><trkpt lat="43.7836237" lon="11.3235215"><ele>182.0</ele><time>2026-04-04T07:36:08.268Z</time></trkpt><trkpt lat="43.7836528" lon="11.3236063"><ele>183.0</ele><time>2026-04-04T07:36:09.27Z</time></trkpt><trkpt lat="43.7836832" lon="11.323694"><ele>184.0</ele><time>2026-04-04T07:36:10.265Z</time></trkpt><trkpt lat="43.7837202" lon="11.3237756"><ele>184.0</ele><time>2026-04-04T07:36:11.272Z</time></trkpt><trkpt lat="43.7837544" lon="11.3238593"><ele>184.0</ele><time>2026-04-04T07:36:12.273Z</time></trkpt><trkpt lat="43.7837945" lon="11.3239371"><ele>184.0</ele><time>2026-04-04T07:36:13.278Z</time></trkpt><trkpt lat="43.7838367" lon="11.324012"><ele>184.0</ele><time>2026-04-04T07:36:14.28Z</time></trkpt><trkpt lat="43.7838756" lon="11.3240878"><ele>184.0</ele><time>2026-04-04T07:36:15.28Z</time></trkpt><trkpt lat="43.7839161" lon="11.3241627"><ele>184.0</ele><time>2026-04-04T07:36:16.278Z</time></trkpt><trkpt lat="43.7839573" lon="11.3242377"><ele>184.0</ele><time>2026-04-04T07:36:17.279Z</time></trkpt><trkpt lat="43.7839969" lon="11.324313"><ele>184.83333333333334</ele><time>2026-04-04T07:36:18.288Z</time></trkpt><trkpt lat="43.7840374" lon="11.3243828"><ele>185.66666666666669</ele><time>2026-04-04T07:36:19.284Z</time></trkpt><trkpt lat="43.7841188" lon="11.3245024"><ele>186.5</ele><time>2026-04-04T07:36:21.268Z</time></trkpt><trkpt lat="43.7841899" lon="11.3246086"><ele>187.33333333333334</ele><time>2026-04-04T07:36:23.274Z</time></trkpt><trkpt lat="43.7841642" lon="11.3245042"><ele>188.16666666666666</ele><time>2026-04-04T07:36:31.278Z</time></trkpt><trkpt lat="43.7841171" lon="11.3244428"><ele>189.0</ele><time>2026-04-04T07:36:33.269Z</time></trkpt><trkpt lat="43.784098" lon="11.3243541"><ele>189.0</ele><time>2026-04-04T07:36:43.28Z</time></trkpt><trkpt lat="43.7840358" lon="11.3242596"><ele>189.0</ele><time>2026-04-04T07:40:43.281Z</time></trkpt><trkpt lat="43.7839486" lon="11.3241675"><ele>189.0</ele><time>2026-04-04T07:40:45.269Z</time></trkpt><trkpt lat="43.78387" lon="11.3240843"><ele>189.0</ele><time>2026-04-04T07:40:47.275Z</time></trkpt><trkpt lat="43.7838317" lon="11.3239698"><ele>189.0</ele><time>2026-04-04T07:40:49.274Z</time></trkpt><trkpt lat="43.7837806" lon="11.3238861"><ele>188.16666666666666</ele><time>2026-04-04T07:40:51.276Z</time></trkpt><trkpt lat="43.7837357" lon="11.3237893"><ele>187.33333333333334</ele><time>2026-04-04T07:40:53.278Z</time></trkpt><trkpt lat="43.783689" lon="11.3236914"><ele>186.5</ele><time>2026-04-04T07:40:55.28Z</time></trkpt><trkpt lat="43.783647" lon="11.3236019"><ele>185.66666666666669</ele><time>2026-04-04T07:40:57.276Z</time></trkpt><trkpt lat="43.7836047" lon="11.3235152"><ele>184.83333333333334</ele><time>2026-04-04T07:40:59.269Z</time></trkpt><trkpt lat="43.7835686" lon="11.3234226"><ele>184.0</ele><time>2026-04-04T07:41:01.265Z</time></trkpt><trkpt lat="43.7835362" lon="11.3233352"><ele>184.0</ele><time>2026-04-04T07:41:03.27Z</time></trkpt><trkpt lat="43.7835143" lon="11.3232474"><ele>184.0</ele><time>2026-04-04T07:41:05.268Z</time></trkpt><trkpt lat="43.783488" lon="11.323152"><ele>184.0</ele><time>2026-04-04T07:41:07.267Z</time></trkpt><trkpt lat="43.7834647" lon="11.3230566"><ele>184.0</ele><time>2026-04-04T07:41:09.259Z</time></trkpt><trkpt lat="43.7834581" lon="11.322946"><ele>184.0</ele><time>2026-04-04T07:41:11.268Z</time></trkpt><trkpt lat="43.7834545" lon="11.3228222"><ele>184.0</ele><time>2026-04-04T07:41:13.28Z</time></trkpt><trkpt lat="43.7834429" lon="11.3226857"><ele>182.79999999999998</ele><time>2026-04-04T07:41:15.282Z</time></trkpt><trkpt lat="43.7834167" lon="11.3225391"><ele>181.6</ele><time>2026-04-04T07:41:17.271Z</time></trkpt><trkpt lat="43.7833836" lon="11.3223868"><ele>180.4</ele><time>2026-04-04T07:41:19.273Z</time></trkpt><trkpt lat="43.7833449" lon="11.3222472"><ele>179.2</ele><time>2026-04-04T07:41:21.275Z</time></trkpt><trkpt lat="43.7833031" lon="11.3221223"><ele>178.0</ele><time>2026-04-04T07:41:23.279Z</time></trkpt><trkpt lat="43.7832535" lon="11.3220105"><ele>177.4</ele><time>2026-04-04T07:41:25.282Z</time></trkpt><trkpt lat="43.7832023" lon="11.3218865"><ele>176.8</ele><time>2026-04-04T07:41:27.277Z</time></trkpt><trkpt lat="43.7831451" lon="11.3217466"><ele>176.2</ele><time>2026-04-04T07:41:29.284Z</time></trkpt><trkpt lat="43.7830828" lon="11.3216294"><ele>175.6</ele><time>2026-04-04T07:41:31.283Z</time></trkpt><trkpt lat="43.7830291" lon="11.3215184"><ele>175.0</ele><time>2026-04-04T07:41:33.279Z</time></trkpt><trkpt lat="43.7829925" lon="11.3213934"><ele>173.83333333333334</ele><time>2026-04-04T07:41:35.278Z</time></trkpt><trkpt lat="43.7829604" lon="11.3212609"><ele>172.66666666666669</ele><time>2026-04-04T07:41:37.274Z</time></trkpt><trkpt lat="43.7829271" lon="11.3211362"><ele>171.5</ele><time>2026-04-04T07:41:39.287Z</time></trkpt><trkpt lat="43.7828928" lon="11.3210313"><ele>170.33333333333334</ele><time>2026-04-04T07:41:41.28Z</time></trkpt><trkpt lat="43.7828563" lon="11.3209428"><ele>169.16666666666666</ele><time>2026-04-04T07:41:43.281Z</time></trkpt><trkpt lat="43.7828349" lon="11.3208329"><ele>168.0</ele><time>2026-04-04T07:41:46.287Z</time></trkpt><trkpt lat="43.7828085" lon="11.3207439"><ele>168.0</ele><time>2026-04-04T07:42:25.287Z</time></trkpt><trkpt lat="43.7827027" lon="11.3206874"><ele>168.0</ele><time>2026-04-04T07:42:27.283Z</time></trkpt><trkpt lat="43.7826384" lon="11.3206679"><ele>168.0</ele><time>2026-04-04T07:42:28.287Z</time></trkpt><trkpt lat="43.7825654" lon="11.3206401"><ele>168.0</ele><time>2026-04-04T07:42:29.274Z</time></trkpt><trkpt lat="43.7824831" lon="11.3205961"><ele>168.0</ele><time>2026-04-04T07:42:30.279Z</time></trkpt><trkpt lat="43.7823905" lon="11.3205333"><ele>168.0</ele><time>2026-04-04T07:42:31.282Z</time></trkpt><trkpt lat="43.7822907" lon="11.3204683"><ele>168.0</ele><time>2026-04-04T07:42:32.287Z</time></trkpt><trkpt lat="43.7821871" lon="11.3203967"><ele>168.0</ele><time>2026-04-04T07:42:33.275Z</time></trkpt><trkpt lat="43.7820824" lon="11.3203364"><ele>168.0</ele><time>2026-04-04T07:42:34.281Z</time></trkpt><trkpt lat="43.7819862" lon="11.3202883"><ele>168.0</ele><time>2026-04-04T07:42:35.279Z</time></trkpt><trkpt lat="43.7818933" lon="11.3202403"><ele>168.0</ele><time>2026-04-04T07:42:36.279Z</time></trkpt><trkpt lat="43.7818027" lon="11.3201983"><ele>166.83333333333334</ele><time>2026-04-04T07:42:37.29Z</time></trkpt><trkpt lat="43.7817151" lon="11.3201591"><ele>165.66666666666666</ele><time>2026-04-04T07:42:38.286Z</time></trkpt><trkpt lat="43.781633" lon="11.3201195"><ele>164.5</ele><time>2026-04-04T07:42:39.291Z</time></trkpt><trkpt lat="43.781559" lon="11.320086"><ele>163.33333333333331</ele><time>2026-04-04T07:42:40.289Z</time></trkpt><trkpt lat="43.781486" lon="11.3200593"><ele>162.16666666666666</ele><time>2026-04-04T07:42:41.286Z</time></trkpt><trkpt lat="43.7813905" lon="11.3200233"><ele>161.0</ele><time>2026-04-04T07:42:43.294Z</time></trkpt><trkpt lat="43.7813532" lon="11.3200997"><ele>161.0</ele><time>2026-04-04T07:42:47.292Z</time></trkpt><trkpt lat="43.7813449" lon="11.3202098"><ele>161.0</ele><time>2026-04-04T07:42:49.285Z</time></trkpt><trkpt lat="43.7813623" lon="11.3203926"><ele>161.0</ele><time>2026-04-04T07:42:51.277Z</time></trkpt><trkpt lat="43.7813662" lon="11.3204905"><ele>161.0</ele><time>2026-04-04T07:42:52.269Z</time></trkpt><trkpt lat="43.7813815" lon="11.320586"><ele>161.0</ele><time>2026-04-04T07:42:53.275Z</time></trkpt><trkpt lat="43.7813882" lon="11.320676"><ele>161.0</ele><time>2026-04-04T07:42:54.271Z</time></trkpt><trkpt lat="43.7813921" lon="11.3208058"><ele>161.60000000000002</ele><time>2026-04-04T07:42:56.267Z</time></trkpt><trkpt lat="43.7813263" lon="11.3208034"><ele>162.2</ele><time>2026-04-04T07:43:02.274Z</time></trkpt><trkpt lat="43.7812166" lon="11.3207723"><ele>162.8</ele><time>2026-04-04T07:43:05.269Z</time></trkpt><trkpt lat="43.7811209" lon="11.3207581"><ele>163.39999999999998</ele><time>2026-04-04T07:43:07.265Z</time></trkpt><trkpt lat="43.7810219" lon="11.3207149"><ele>164.0</ele><time>2026-04-04T07:43:09.268Z</time></trkpt><trkpt lat="43.780916" lon="11.3206983"><ele>162.79999999999998</ele><time>2026-04-04T07:43:11.273Z</time></trkpt><trkpt lat="43.7808283" lon="11.3206558"><ele>161.6</ele><time>2026-04-04T07:43:13.272Z</time></trkpt><trkpt lat="43.7807243" lon="11.3205613"><ele>160.4</ele><time>2026-04-04T07:43:15.272Z</time></trkpt><trkpt lat="43.7806745" lon="11.3205054"><ele>159.2</ele><time>2026-04-04T07:43:16.277Z</time></trkpt><trkpt lat="43.7805729" lon="11.3204079"><ele>158.0</ele><time>2026-04-04T07:43:18.277Z</time></trkpt><trkpt lat="43.7804784" lon="11.3203121"><ele>158.0</ele><time>2026-04-04T07:43:20.281Z</time></trkpt><trkpt lat="43.7803981" lon="11.3202522"><ele>158.0</ele><time>2026-04-04T07:43:22.279Z</time></trkpt><trkpt lat="43.7803278" lon="11.3202482"><ele>158.0</ele><time>2026-04-04T07:43:25.29Z</time></trkpt><trkpt lat="43.7802394" lon="11.3202502"><ele>158.0</ele><time>2026-04-04T07:43:28.29Z</time></trkpt><trkpt lat="43.7801627" lon="11.3202838"><ele>158.0</ele><time>2026-04-04T07:43:30.28Z</time></trkpt><trkpt lat="43.780084" lon="11.3203237"><ele>158.0</ele><time>2026-04-04T07:43:32.283Z</time></trkpt><trkpt lat="43.7800135" lon="11.3203578"><ele>157.20000000000002</ele><time>2026-04-04T07:43:34.284Z</time></trkpt><trkpt lat="43.7799278" lon="11.3204001"><ele>156.4</ele><time>2026-04-04T07:43:37.283Z</time></trkpt><trkpt lat="43.7798378" lon="11.3203721"><ele>155.60000000000002</ele><time>2026-04-04T07:43:40.281Z</time></trkpt><trkpt lat="43.7797616" lon="11.3203195"><ele>154.8</ele><time>2026-04-04T07:43:42.29Z</time></trkpt><trkpt lat="43.7796781" lon="11.3202589"><ele>154.0</ele><time>2026-04-04T07:43:44.283Z</time></trkpt><trkpt lat="43.7795838" lon="11.3201671"><ele>154.0</ele><time>2026-04-04T07:43:46.277Z</time></trkpt><trkpt lat="43.7794978" lon="11.3200626"><ele>154.0</ele><time>2026-04-04T07:43:48.278Z</time></trkpt><trkpt lat="43.779445" lon="11.3199443"><ele>154.0</ele><time>2026-04-04T07:43:50.287Z</time></trkpt><trkpt lat="43.7793824" lon="11.3198289"><ele>154.0</ele><time>2026-04-04T07:43:52.278Z</time></trkpt><trkpt lat="43.7793295" lon="11.319718"><ele>154.0</ele><time>2026-04-04T07:43:54.276Z</time></trkpt><trkpt lat="43.7792823" lon="11.3196326"><ele>153.33333333333334</ele><time>2026-04-04T07:43:56.283Z</time></trkpt><trkpt lat="43.7792418" lon="11.3195523"><ele>152.66666666666669</ele><time>2026-04-04T07:43:59.286Z</time></trkpt><trkpt lat="43.7792821" lon="11.3194589"><ele>152.0</ele><time>2026-04-04T07:44:02.29Z</time></trkpt><trkpt lat="43.7793775" lon="11.3193441"><ele>151.33333333333334</ele><time>2026-04-04T07:44:04.285Z</time></trkpt><trkpt lat="43.779434" lon="11.319274"><ele>150.66666666666666</ele><time>2026-04-04T07:44:05.284Z</time></trkpt><trkpt lat="43.7794925" lon="11.3192004"><ele>150.0</ele><time>2026-04-04T07:44:06.289Z</time></trkpt><trkpt lat="43.7795572" lon="11.3191186"><ele>150.0</ele><time>2026-04-04T07:44:07.279Z</time></trkpt><trkpt lat="43.7796152" lon="11.3190392"><ele>150.0</ele><time>2026-04-04T07:44:08.279Z</time></trkpt><trkpt lat="43.7796708" lon="11.318966"><ele>150.0</ele><time>2026-04-04T07:44:09.28Z</time></trkpt><trkpt lat="43.7797618" lon="11.3188577"><ele>150.0</ele><time>2026-04-04T07:44:11.276Z</time></trkpt><trkpt lat="43.7798262" lon="11.318779"><ele>150.0</ele><time>2026-04-04T07:44:13.277Z</time></trkpt><trkpt lat="43.7798989" lon="11.3187812"><ele>150.0</ele><time>2026-04-04T07:44:17.28Z</time></trkpt><trkpt lat="43.779933" lon="11.3188583"><ele>150.0</ele><time>2026-04-04T07:44:19.278Z</time></trkpt><trkpt lat="43.7799414" lon="11.3190315"><ele>150.0</ele><time>2026-04-04T07:44:21.278Z</time></trkpt><trkpt lat="43.7799553" lon="11.3191433"><ele>150.0</ele><time>2026-04-04T07:44:22.275Z</time></trkpt><trkpt lat="43.7799803" lon="11.3192494"><ele>150.0</ele><time>2026-04-04T07:44:23.281Z</time></trkpt><trkpt lat="43.7800354" lon="11.3193583"><ele>150.0</ele><time>2026-04-04T07:44:24.282Z</time></trkpt><trkpt lat="43.780113" lon="11.3194621"><ele>150.0</ele><time>2026-04-04T07:44:25.284Z</time></trkpt><trkpt lat="43.7801982" lon="11.3195566"><ele>150.0</ele><time>2026-04-04T07:44:26.277Z</time></trkpt><trkpt lat="43.7802894" lon="11.319638"><ele>150.0</ele><time>2026-04-04T07:44:27.283Z</time></trkpt><trkpt lat="43.7803819" lon="11.3197003"><ele>150.0</ele><time>2026-04-04T07:44:28.278Z</time></trkpt><trkpt lat="43.7804725" lon="11.3197454"><ele>150.0</ele><time>2026-04-04T07:44:29.29Z</time></trkpt><trkpt lat="43.7805729" lon="11.3197771"><ele>151.6</ele><time>2026-04-04T07:44:30.293Z</time></trkpt><trkpt lat="43.7806759" lon="11.3198039"><ele>153.2</ele><time>2026-04-04T07:44:31.289Z</time></trkpt><trkpt lat="43.7807854" lon="11.3198191"><ele>154.8</ele><time>2026-04-04T07:44:32.289Z</time></trkpt><trkpt lat="43.7808925" lon="11.3198302"><ele>156.4</ele><time>2026-04-04T07:44:33.282Z</time></trkpt><trkpt lat="43.7809967" lon="11.3198491"><ele>158.0</ele><time>2026-04-04T07:44:34.279Z</time></trkpt><trkpt lat="43.7810887" lon="11.3198688"><ele>158.5</ele><time>2026-04-04T07:44:35.286Z</time></trkpt><trkpt lat="43.7811677" lon="11.3198974"><ele>159.0</ele><time>2026-04-04T07:44:36.284Z</time></trkpt><trkpt lat="43.7812375" lon="11.3199386"><ele>159.5</ele><time>2026-04-04T07:44:37.285Z</time></trkpt><trkpt lat="43.7813116" lon="11.3199848"><ele>160.0</ele><time>2026-04-04T07:44:38.294Z</time></trkpt><trkpt lat="43.7813918" lon="11.320035"><ele>160.5</ele><time>2026-04-04T07:44:39.294Z</time></trkpt><trkpt lat="43.7814722" lon="11.3200776"><ele>161.0</ele><time>2026-04-04T07:44:40.296Z</time></trkpt><trkpt lat="43.7815578" lon="11.3201269"><ele>161.0</ele><time>2026-04-04T07:44:41.295Z</time></trkpt><trkpt lat="43.7816486" lon="11.3201746"><ele>161.0</ele><time>2026-04-04T07:44:42.285Z</time></trkpt><trkpt lat="43.7817451" lon="11.3202248"><ele>161.0</ele><time>2026-04-04T07:44:43.286Z</time></trkpt><trkpt lat="43.7818491" lon="11.3202766"><ele>161.0</ele><time>2026-04-04T07:44:44.294Z</time></trkpt><trkpt lat="43.7819549" lon="11.3203251"><ele>161.0</ele><time>2026-04-04T07:44:45.296Z</time></trkpt><trkpt lat="43.7820624" lon="11.3203743"><ele>162.4</ele><time>2026-04-04T07:44:46.299Z</time></trkpt><trkpt lat="43.7821683" lon="11.3204259"><ele>163.8</ele><time>2026-04-04T07:44:47.291Z</time></trkpt><trkpt lat="43.7822719" lon="11.3204724"><ele>165.20000000000002</ele><time>2026-04-04T07:44:48.29Z</time></trkpt><trkpt lat="43.7823713" lon="11.3205196"><ele>166.60000000000002</ele><time>2026-04-04T07:44:49.295Z</time></trkpt><trkpt lat="43.7824587" lon="11.3205633"><ele>168.0</ele><time>2026-04-04T07:44:50.291Z</time></trkpt><trkpt lat="43.7825435" lon="11.3206064"><ele>168.0</ele><time>2026-04-04T07:44:51.289Z</time></trkpt><trkpt lat="43.7826197" lon="11.3206446"><ele>168.0</ele><time>2026-04-04T07:44:52.29Z</time></trkpt><trkpt lat="43.7826888" lon="11.3206838"><ele>168.0</ele><time>2026-04-04T07:44:53.279Z</time></trkpt><trkpt lat="43.7827492" lon="11.320723"><ele>168.0</ele><time>2026-04-04T07:44:54.285Z</time></trkpt><trkpt lat="43.7828332" lon="11.3207867"><ele>168.0</ele><time>2026-04-04T07:44:56.281Z</time></trkpt><trkpt lat="43.7828973" lon="11.3208626"><ele>168.0</ele><time>2026-04-04T07:44:58.284Z</time></trkpt><trkpt lat="43.7829309" lon="11.3209803"><ele>168.0</ele><time>2026-04-04T07:45:00.256Z</time></trkpt><trkpt lat="43.7829617" lon="11.3211077"><ele>168.0</ele><time>2026-04-04T07:45:02.257Z</time></trkpt><trkpt lat="43.7829771" lon="11.321212"><ele>168.0</ele><time>2026-04-04T07:45:04.258Z</time></trkpt><trkpt lat="43.7829953" lon="11.3213"><ele>168.0</ele><time>2026-04-04T07:45:06.261Z</time></trkpt><trkpt lat="43.7830226" lon="11.3214018"><ele>168.0</ele><time>2026-04-04T07:45:08.258Z</time></trkpt><trkpt lat="43.7830448" lon="11.3215341"><ele>168.0</ele><time>2026-04-04T07:45:10.258Z</time></trkpt><trkpt lat="43.7830701" lon="11.3216737"><ele>169.4</ele><time>2026-04-04T07:45:12.271Z</time></trkpt><trkpt lat="43.7830977" lon="11.3218374"><ele>170.8</ele><time>2026-04-04T07:45:14.272Z</time></trkpt><trkpt lat="43.7831236" lon="11.3219171"><ele>172.2</ele><time>2026-04-04T07:45:15.262Z</time></trkpt><trkpt lat="43.7831857" lon="11.3220623"><ele>173.6</ele><time>2026-04-04T07:45:17.264Z</time></trkpt><trkpt lat="43.7832559" lon="11.3222008"><ele>175.0</ele><time>2026-04-04T07:45:19.262Z</time></trkpt><trkpt lat="43.783309" lon="11.3223274"><ele>175.5</ele><time>2026-04-04T07:45:21.27Z</time></trkpt><trkpt lat="43.7833526" lon="11.3224562"><ele>176.0</ele><time>2026-04-04T07:45:23.264Z</time></trkpt><trkpt lat="43.7833912" lon="11.3225764"><ele>176.5</ele><time>2026-04-04T07:45:25.26Z</time></trkpt><trkpt lat="43.7834247" lon="11.322669"><ele>177.0</ele><time>2026-04-04T07:45:27.258Z</time></trkpt><trkpt lat="43.7834514" lon="11.3227575"><ele>177.5</ele><time>2026-04-04T07:45:29.254Z</time></trkpt><trkpt lat="43.7834579" lon="11.3228512"><ele>178.0</ele><time>2026-04-04T07:45:31.256Z</time></trkpt><trkpt lat="43.7834628" lon="11.3229627"><ele>178.2</ele><time>2026-04-04T07:45:34.263Z</time></trkpt><trkpt lat="43.7834619" lon="11.3230811"><ele>178.4</ele><time>2026-04-04T07:45:37.266Z</time></trkpt><trkpt lat="43.7834794" lon="11.3231821"><ele>178.6</ele><time>2026-04-04T07:45:39.263Z</time></trkpt><trkpt lat="43.7835021" lon="11.3233186"><ele>178.79999999999998</ele><time>2026-04-04T07:45:41.263Z</time></trkpt><trkpt lat="43.7835373" lon="11.3234492"><ele>179.0</ele><time>2026-04-04T07:45:43.27Z</time></trkpt><trkpt lat="43.7835895" lon="11.3235946"><ele>179.83333333333331</ele><time>2026-04-04T07:45:45.26Z</time></trkpt><trkpt lat="43.7836531" lon="11.3237334"><ele>180.66666666666666</ele><time>2026-04-04T07:45:47.269Z</time></trkpt><trkpt lat="43.7836812" lon="11.3238115"><ele>181.5</ele><time>2026-04-04T07:45:48.272Z</time></trkpt><trkpt lat="43.783716" lon="11.3238903"><ele>182.33333333333334</ele><time>2026-04-04T07:45:49.261Z</time></trkpt><trkpt lat="43.7837518" lon="11.3239725"><ele>183.16666666666669</ele><time>2026-04-04T07:45:50.263Z</time></trkpt><trkpt lat="43.7838206" lon="11.3241226"><ele>184.0</ele><time>2026-04-04T07:45:52.281Z</time></trkpt><trkpt lat="43.7838577" lon="11.3241933"><ele>184.83333333333334</ele><time>2026-04-04T07:45:53.281Z</time></trkpt><trkpt lat="43.7839005" lon="11.3242576"><ele>185.66666666666669</ele><time>2026-04-04T07:45:54.269Z</time></trkpt><trkpt lat="43.78395" lon="11.3243264"><ele>186.5</ele><time>2026-04-04T07:45:55.283Z</time></trkpt><trkpt lat="43.7839994" lon="11.324394"><ele>187.33333333333334</ele><time>2026-04-04T07:45:56.284Z</time></trkpt><trkpt lat="43.7840462" lon="11.3244718"><ele>188.16666666666666</ele><time>2026-04-04T07:45:57.274Z</time></trkpt><trkpt lat="43.7840974" lon="11.3245685"><ele>189.0</ele><time>2026-04-04T07:45:58.279Z</time></trkpt><trkpt lat="43.7841659" lon="11.3246873"><ele>189.75</ele><time>2026-04-04T07:45:59.268Z</time></trkpt><trkpt lat="43.7842406" lon="11.3248244"><ele>190.5</ele><time>2026-04-04T07:46:00.273Z</time></trkpt><trkpt lat="43.7843235" lon="11.3249491"><ele>191.25</ele><time>2026-04-04T07:46:01.268Z</time></trkpt><trkpt lat="43.7844187" lon="11.325081"><ele>192.0</ele><time>2026-04-04T07:46:02.269Z</time></trkpt><trkpt lat="43.7845074" lon="11.3252029"><ele>194.0</ele><time>2026-04-04T07:46:03.266Z</time></trkpt><trkpt lat="43.7846082" lon="11.3253129"><ele>196.0</ele><time>2026-04-04T07:46:04.269Z</time></trkpt><trkpt lat="43.7847007" lon="11.3254178"><ele>198.0</ele><time>2026-04-04T07:46:05.268Z</time></trkpt><trkpt lat="43.7847904" lon="11.3255256"><ele>200.0</ele><time>2026-04-04T07:46:06.268Z</time></trkpt><trkpt lat="43.7848832" lon="11.3256385"><ele>200.8</ele><time>2026-04-04T07:46:07.267Z</time></trkpt><trkpt lat="43.7849573" lon="11.3257445"><ele>201.6</ele><time>2026-04-04T07:46:08.268Z</time></trkpt><trkpt lat="43.7850423" lon="11.3258338"><ele>202.39999999999998</ele><time>2026-04-04T07:46:09.274Z</time></trkpt><trkpt lat="43.7851215" lon="11.3259139"><ele>203.2</ele><time>2026-04-04T07:46:10.282Z</time></trkpt><trkpt lat="43.7852013" lon="11.325979"><ele>204.0</ele><time>2026-04-04T07:46:11.278Z</time></trkpt><trkpt lat="43.7852773" lon="11.326021"><ele>205.66666666666666</ele><time>2026-04-04T07:46:12.28Z</time></trkpt><trkpt lat="43.7853385" lon="11.3260661"><ele>207.33333333333331</ele><time>2026-04-04T07:46:13.273Z</time></trkpt><trkpt lat="43.785401" lon="11.3261155"><ele>209.0</ele><time>2026-04-04T07:46:14.271Z</time></trkpt><trkpt lat="43.7854575" lon="11.3261835"><ele>210.66666666666666</ele><time>2026-04-04T07:46:15.283Z</time></trkpt><trkpt lat="43.7855157" lon="11.3262754"><ele>212.33333333333331</ele><time>2026-04-04T07:46:16.267Z</time></trkpt><trkpt lat="43.7855736" lon="11.3263856"><ele>214.0</ele><time>2026-04-04T07:46:17.273Z</time></trkpt><trkpt lat="43.7856569" lon="11.3265062"><ele>216.25</ele><time>2026-04-04T07:46:18.273Z</time></trkpt><trkpt lat="43.7857402" lon="11.3266505"><ele>218.5</ele><time>2026-04-04T07:46:19.281Z</time></trkpt><trkpt lat="43.7858237" lon="11.3267867"><ele>220.75</ele><time>2026-04-04T07:46:20.292Z</time></trkpt><trkpt lat="43.7859055" lon="11.3269107"><ele>223.0</ele><time>2026-04-04T07:46:21.29Z</time></trkpt><trkpt lat="43.785976" lon="11.3270198"><ele>224.0</ele><time>2026-04-04T07:46:22.284Z</time></trkpt><trkpt lat="43.786048" lon="11.3271205"><ele>225.0</ele><time>2026-04-04T07:46:23.286Z</time></trkpt><trkpt lat="43.786131" lon="11.3272084"><ele>226.0</ele><time>2026-04-04T07:46:24.289Z</time></trkpt><trkpt lat="43.7862141" lon="11.3272951"><ele>227.0</ele><time>2026-04-04T07:46:25.266Z</time></trkpt><trkpt lat="43.7862966" lon="11.3273617"><ele>228.0</ele><time>2026-04-04T07:46:26.266Z</time></trkpt><trkpt lat="43.7863724" lon="11.3274031"><ele>229.5</ele><time>2026-04-04T07:46:27.267Z</time></trkpt><trkpt lat="43.7864404" lon="11.3274253"><ele>231.0</ele><time>2026-04-04T07:46:28.268Z</time></trkpt><trkpt lat="43.7865187" lon="11.3274415"><ele>232.5</ele><time>2026-04-04T07:46:29.275Z</time></trkpt><trkpt lat="43.7866051" lon="11.3274353"><ele>234.0</ele><time>2026-04-04T07:46:30.264Z</time></trkpt><trkpt lat="43.7866912" lon="11.3274227"><ele>235.5</ele><time>2026-04-04T07:46:31.274Z</time></trkpt><trkpt lat="43.7867809" lon="11.3274058"><ele>237.0</ele><time>2026-04-04T07:46:32.283Z</time></trkpt><trkpt lat="43.7868659" lon="11.3274123"><ele>237.8</ele><time>2026-04-04T07:46:33.28Z</time></trkpt><trkpt lat="43.7869476" lon="11.3274551"><ele>238.6</ele><time>2026-04-04T07:46:34.266Z</time></trkpt><trkpt lat="43.7870334" lon="11.3275346"><ele>239.40000000000003</ele><time>2026-04-04T07:46:35.264Z</time></trkpt><trkpt lat="43.78713" lon="11.3276286"><ele>240.20000000000002</ele><time>2026-04-04T07:46:36.286Z</time></trkpt><trkpt lat="43.7872204" lon="11.3277291"><ele>241.0</ele><time>2026-04-04T07:46:37.288Z</time></trkpt><trkpt lat="43.787298" lon="11.3278188"><ele>241.0</ele><time>2026-04-04T07:46:38.282Z</time></trkpt><trkpt lat="43.7873801" lon="11.3278965"><ele>241.00000000000003</ele><time>2026-04-04T07:46:39.292Z</time></trkpt><trkpt lat="43.7874563" lon="11.3279678"><ele>241.00000000000003</ele><time>2026-04-04T07:46:40.287Z</time></trkpt><trkpt lat="43.7875344" lon="11.3280401"><ele>241.0</ele><time>2026-04-04T07:46:41.282Z</time></trkpt><trkpt lat="43.7876084" lon="11.3281095"><ele>241.0</ele><time>2026-04-04T07:46:42.284Z</time></trkpt><trkpt lat="43.7876868" lon="11.3281713"><ele>241.49999999999997</ele><time>2026-04-04T07:46:43.281Z</time></trkpt><trkpt lat="43.787768" lon="11.3282309"><ele>242.0</ele><time>2026-04-04T07:46:44.285Z</time></trkpt><trkpt lat="43.7878514" lon="11.3282947"><ele>242.5</ele><time>2026-04-04T07:46:45.281Z</time></trkpt><trkpt lat="43.7879272" lon="11.3283534"><ele>243.0</ele><time>2026-04-04T07:46:46.286Z</time></trkpt><trkpt lat="43.787992" lon="11.3284127"><ele>243.49999999999997</ele><time>2026-04-04T07:46:47.279Z</time></trkpt><trkpt lat="43.7880591" lon="11.328473"><ele>244.0</ele><time>2026-04-04T07:46:48.277Z</time></trkpt><trkpt lat="43.7881217" lon="11.32854"><ele>243.99999999999997</ele><time>2026-04-04T07:46:49.277Z</time></trkpt><trkpt lat="43.7881808" lon="11.3286201"><ele>244.0</ele><time>2026-04-04T07:46:50.265Z</time></trkpt><trkpt lat="43.7882348" lon="11.32871"><ele>244.0</ele><time>2026-04-04T07:46:51.274Z</time></trkpt><trkpt lat="43.7882943" lon="11.3288088"><ele>244.0</ele><time>2026-04-04T07:46:52.285Z</time></trkpt><trkpt lat="43.7883601" lon="11.3289036"><ele>243.99999999999997</ele><time>2026-04-04T07:46:53.274Z</time></trkpt><trkpt lat="43.788417" lon="11.3289917"><ele>244.0</ele><time>2026-04-04T07:46:54.274Z</time></trkpt><trkpt lat="43.7884562" lon="11.329073"><ele>244.99999999999997</ele><time>2026-04-04T07:46:55.276Z</time></trkpt><trkpt lat="43.7884859" lon="11.3291572"><ele>246.0</ele><time>2026-04-04T07:46:56.274Z</time></trkpt><trkpt lat="43.7885015" lon="11.3292552"><ele>247.0</ele><time>2026-04-04T07:46:57.271Z</time></trkpt><trkpt lat="43.7885095" lon="11.3293728"><ele>248.0</ele><time>2026-04-04T07:46:58.269Z</time></trkpt><trkpt lat="43.7885095" lon="11.3294933"><ele>248.99999999999997</ele><time>2026-04-04T07:46:59.277Z</time></trkpt><trkpt lat="43.7885125" lon="11.3295981"><ele>250.0</ele><time>2026-04-04T07:47:00.278Z</time></trkpt><trkpt lat="43.7885253" lon="11.3296875"><ele>251.99999999999997</ele><time>2026-04-04T07:47:01.263Z</time></trkpt><trkpt lat="43.7885603" lon="11.32977"><ele>254.0</ele><time>2026-04-04T07:47:02.272Z</time></trkpt><trkpt lat="43.7886084" lon="11.3298438"><ele>256.0</ele><time>2026-04-04T07:47:03.269Z</time></trkpt><trkpt lat="43.7886636" lon="11.329917"><ele>258.0</ele><time>2026-04-04T07:47:04.273Z</time></trkpt><trkpt lat="43.7887363" lon="11.3299901"><ele>260.0</ele><time>2026-04-04T07:47:05.275Z</time></trkpt><trkpt lat="43.788833" lon="11.3300681"><ele>262.0</ele><time>2026-04-04T07:47:06.27Z</time></trkpt><trkpt lat="43.7889771" lon="11.3301574"><ele>262.0</ele><time>2026-04-04T07:47:07.272Z</time></trkpt><trkpt lat="43.7891331" lon="11.3302513"><ele>262.0</ele><time>2026-04-04T07:47:08.268Z</time></trkpt><trkpt lat="43.7892877" lon="11.3303444"><ele>262.0</ele><time>2026-04-04T07:47:09.273Z</time></trkpt><trkpt lat="43.7894493" lon="11.3304193"><ele>263.5</ele><time>2026-04-04T07:47:10.271Z</time></trkpt><trkpt lat="43.7895805" lon="11.3304669"><ele>265.0</ele><time>2026-04-04T07:47:11.262Z</time></trkpt><trkpt lat="43.7897008" lon="11.3305213"><ele>266.5</ele><time>2026-04-04T07:47:12.271Z</time></trkpt><trkpt lat="43.7898021" lon="11.330572"><ele>268.0</ele><time>2026-04-04T07:47:13.282Z</time></trkpt><trkpt lat="43.7898847" lon="11.3306167"><ele>271.4</ele><time>2026-04-04T07:47:14.285Z</time></trkpt><trkpt lat="43.7899644" lon="11.330651"><ele>274.8</ele><time>2026-04-04T07:47:15.286Z</time></trkpt><trkpt lat="43.7900524" lon="11.3306673"><ele>278.2</ele><time>2026-04-04T07:47:16.29Z</time></trkpt><trkpt lat="43.7901359" lon="11.3306881"><ele>281.6</ele><time>2026-04-04T07:47:17.265Z</time></trkpt><trkpt lat="43.7902291" lon="11.3306776"><ele>285.0</ele><time>2026-04-04T07:47:18.273Z</time></trkpt><trkpt lat="43.7903261" lon="11.3306349"><ele>284.8333333333333</ele><time>2026-04-04T07:47:19.278Z</time></trkpt><trkpt lat="43.7904178" lon="11.3305679"><ele>284.6666666666667</ele><time>2026-04-04T07:47:20.275Z</time></trkpt><trkpt lat="43.7905037" lon="11.3305012"><ele>284.5</ele><time>2026-04-04T07:47:21.278Z</time></trkpt><trkpt lat="43.7905768" lon="11.3304422"><ele>284.33333333333337</ele><time>2026-04-04T07:47:22.281Z</time></trkpt><trkpt lat="43.7906555" lon="11.3303987"><ele>284.1666666666667</ele><time>2026-04-04T07:47:23.273Z</time></trkpt><trkpt lat="43.7907294" lon="11.3303715"><ele>284.0</ele><time>2026-04-04T07:47:24.263Z</time></trkpt><trkpt lat="43.7907951" lon="11.3303513"><ele>284.0</ele><time>2026-04-04T07:47:25.266Z</time></trkpt><trkpt lat="43.7908449" lon="11.3304126"><ele>284.0</ele><time>2026-04-04T07:47:28.264Z</time></trkpt><trkpt lat="43.7908528" lon="11.3305099"><ele>284.0</ele><time>2026-04-04T07:47:30.269Z</time></trkpt><trkpt lat="43.79079" lon="11.3306621"><ele>284.0</ele><time>2026-04-04T07:47:32.266Z</time></trkpt><trkpt lat="43.7907252" lon="11.3307859"><ele>284.0</ele><time>2026-04-04T07:47:33.261Z</time></trkpt><trkpt lat="43.7906417" lon="11.3309246"><ele>289.5</ele><time>2026-04-04T07:47:34.258Z</time></trkpt><trkpt lat="43.7905505" lon="11.3310594"><ele>295.0</ele><time>2026-04-04T07:47:35.263Z</time></trkpt><trkpt lat="43.7904562" lon="11.3311769"><ele>300.5</ele><time>2026-04-04T07:47:36.261Z</time></trkpt><trkpt lat="43.7903772" lon="11.3313056"><ele>306.0</ele><time>2026-04-04T07:47:37.262Z</time></trkpt><trkpt lat="43.7903143" lon="11.3314167"><ele>305.1666666666667</ele><time>2026-04-04T07:47:38.267Z</time></trkpt><trkpt lat="43.7902627" lon="11.3315193"><ele>304.3333333333333</ele><time>2026-04-04T07:47:39.269Z</time></trkpt><trkpt lat="43.790218" lon="11.3316154"><ele>303.5</ele><time>2026-04-04T07:47:40.265Z</time></trkpt><trkpt lat="43.7901731" lon="11.3317118"><ele>302.66666666666663</ele><time>2026-04-04T07:47:41.265Z</time></trkpt><trkpt lat="43.7901642" lon="11.3318186"><ele>301.8333333333333</ele><time>2026-04-04T07:47:42.265Z</time></trkpt><trkpt lat="43.7901578" lon="11.331927"><ele>301.0</ele><time>2026-04-04T07:47:43.27Z</time></trkpt><trkpt lat="43.7901617" lon="11.3320379"><ele>301.0</ele><time>2026-04-04T07:47:44.263Z</time></trkpt><trkpt lat="43.7901662" lon="11.3321527"><ele>301.0</ele><time>2026-04-04T07:47:45.263Z</time></trkpt><trkpt lat="43.7901783" lon="11.3322718"><ele>301.0</ele><time>2026-04-04T07:47:46.264Z</time></trkpt><trkpt lat="43.7902081" lon="11.3323967"><ele>301.0</ele><time>2026-04-04T07:47:47.274Z</time></trkpt><trkpt lat="43.790249" lon="11.3325079"><ele>301.0</ele><time>2026-04-04T07:47:48.269Z</time></trkpt><trkpt lat="43.7902927" lon="11.3326177"><ele>301.0</ele><time>2026-04-04T07:47:49.269Z</time></trkpt><trkpt lat="43.7903415" lon="11.3327163"><ele>303.66666666666663</ele><time>2026-04-04T07:47:50.271Z</time></trkpt><trkpt lat="43.7903893" lon="11.3328125"><ele>306.3333333333333</ele><time>2026-04-04T07:47:51.279Z</time></trkpt><trkpt lat="43.7904465" lon="11.3328945"><ele>309.0</ele><time>2026-04-04T07:47:52.279Z</time></trkpt><trkpt lat="43.790515" lon="11.3329392"><ele>311.6666666666667</ele><time>2026-04-04T07:47:53.275Z</time></trkpt><trkpt lat="43.7905789" lon="11.3329623"><ele>314.33333333333337</ele><time>2026-04-04T07:47:54.289Z</time></trkpt><trkpt lat="43.7906797" lon="11.3329752"><ele>317.0</ele><time>2026-04-04T07:47:56.275Z</time></trkpt><trkpt lat="43.790739" lon="11.3330544"><ele>317.1666666666667</ele><time>2026-04-04T07:47:59.27Z</time></trkpt><trkpt lat="43.7907007" lon="11.3332296"><ele>317.33333333333337</ele><time>2026-04-04T07:48:01.273Z</time></trkpt><trkpt lat="43.790676" lon="11.3333246"><ele>317.5</ele><time>2026-04-04T07:48:02.271Z</time></trkpt><trkpt lat="43.7906512" lon="11.3334061"><ele>317.6666666666667</ele><time>2026-04-04T07:48:03.274Z</time></trkpt><trkpt lat="43.7906247" lon="11.3335187"><ele>317.8333333333333</ele><time>2026-04-04T07:48:05.272Z</time></trkpt><trkpt lat="43.7906179" lon="11.3336144"><ele>318.0</ele><time>2026-04-04T07:49:05.262Z</time></trkpt><trkpt lat="43.790642" lon="11.3337509"><ele>317.8</ele><time>2026-04-04T07:49:07.262Z</time></trkpt><trkpt lat="43.7906534" lon="11.3338929"><ele>317.6</ele><time>2026-04-04T07:49:08.264Z</time></trkpt><trkpt lat="43.7906606" lon="11.3340486"><ele>317.4</ele><time>2026-04-04T07:49:09.26Z</time></trkpt><trkpt lat="43.7906869" lon="11.3341994"><ele>317.2</ele><time>2026-04-04T07:49:10.256Z</time></trkpt><trkpt lat="43.7906902" lon="11.3343562"><ele>317.0</ele><time>2026-04-04T07:49:11.257Z</time></trkpt><trkpt lat="43.7907091" lon="11.3345059"><ele>317.0</ele><time>2026-04-04T07:49:12.257Z</time></trkpt><trkpt lat="43.7907152" lon="11.3346483"><ele>317.0</ele><time>2026-04-04T07:49:13.255Z</time></trkpt><trkpt lat="43.790716" lon="11.3347875"><ele>317.0</ele><time>2026-04-04T07:49:14.258Z</time></trkpt><trkpt lat="43.7907022" lon="11.3349226"><ele>317.0</ele><time>2026-04-04T07:49:15.256Z</time></trkpt><trkpt lat="43.7906796" lon="11.3350478"><ele>317.0</ele><time>2026-04-04T07:49:16.257Z</time></trkpt><trkpt lat="43.7906422" lon="11.3351653"><ele>315.0</ele><time>2026-04-04T07:49:17.256Z</time></trkpt><trkpt lat="43.7905998" lon="11.3352747"><ele>313.0</ele><time>2026-04-04T07:49:18.262Z</time></trkpt><trkpt lat="43.790561" lon="11.3353759"><ele>311.0</ele><time>2026-04-04T07:49:19.256Z</time></trkpt><trkpt lat="43.7905149" lon="11.3354793"><ele>309.0</ele><time>2026-04-04T07:49:20.27Z</time></trkpt><trkpt lat="43.7904901" lon="11.335606"><ele>307.0</ele><time>2026-04-04T07:49:21.271Z</time></trkpt><trkpt lat="43.7904734" lon="11.3357472"><ele>304.25</ele><time>2026-04-04T07:49:22.268Z</time></trkpt><trkpt lat="43.790476" lon="11.3359088"><ele>301.5</ele><time>2026-04-04T07:49:23.271Z</time></trkpt><trkpt lat="43.7905135" lon="11.3360961"><ele>298.75</ele><time>2026-04-04T07:49:24.266Z</time></trkpt><trkpt lat="43.7905671" lon="11.3362922"><ele>296.0</ele><time>2026-04-04T07:49:25.266Z</time></trkpt><trkpt lat="43.7906289" lon="11.3364996"><ele>293.0</ele><time>2026-04-04T07:49:26.267Z</time></trkpt><trkpt lat="43.7907054" lon="11.3367153"><ele>290.0</ele><time>2026-04-04T07:49:27.287Z</time></trkpt><trkpt lat="43.7908073" lon="11.336925"><ele>287.0</ele><time>2026-04-04T07:49:28.271Z</time></trkpt><trkpt lat="43.7909167" lon="11.3371265"><ele>284.0</ele><time>2026-04-04T07:49:29.272Z</time></trkpt><trkpt lat="43.7910136" lon="11.3373119"><ele>281.0</ele><time>2026-04-04T07:49:30.273Z</time></trkpt><trkpt lat="43.7911015" lon="11.3374824"><ele>278.0</ele><time>2026-04-04T07:49:31.271Z</time></trkpt><trkpt lat="43.7911897" lon="11.3376405"><ele>278.0</ele><time>2026-04-04T07:49:32.269Z</time></trkpt><trkpt lat="43.7912731" lon="11.3377761"><ele>278.0</ele><time>2026-04-04T07:49:33.262Z</time></trkpt><trkpt lat="43.791343" lon="11.3379111"><ele>278.0</ele><time>2026-04-04T07:49:34.26Z</time></trkpt><trkpt lat="43.7913979" lon="11.3380446"><ele>278.0</ele><time>2026-04-04T07:49:35.263Z</time></trkpt><trkpt lat="43.7914197" lon="11.3381842"><ele>275.75</ele><time>2026-04-04T07:49:36.264Z</time></trkpt><trkpt lat="43.7914088" lon="11.3383352"><ele>273.5</ele><time>2026-04-04T07:49:37.264Z</time></trkpt><trkpt lat="43.7913802" lon="11.3384861"><ele>271.25</ele><time>2026-04-04T07:49:38.268Z</time></trkpt><trkpt lat="43.7913391" lon="11.3386375"><ele>269.0</ele><time>2026-04-04T07:49:39.275Z</time></trkpt><trkpt lat="43.7912692" lon="11.3387992"><ele>267.0</ele><time>2026-04-04T07:49:40.267Z</time></trkpt><trkpt lat="43.7912003" lon="11.3389496"><ele>265.0</ele><time>2026-04-04T07:49:41.262Z</time></trkpt><trkpt lat="43.7911297" lon="11.3390904"><ele>263.0</ele><time>2026-04-04T07:49:42.262Z</time></trkpt><trkpt lat="43.7910727" lon="11.3392185"><ele>261.0</ele><time>2026-04-04T07:49:43.265Z</time></trkpt><trkpt lat="43.7910338" lon="11.3393447"><ele>261.0</ele><time>2026-04-04T07:49:44.277Z</time></trkpt><trkpt lat="43.7910122" lon="11.3394723"><ele>261.0</ele><time>2026-04-04T07:49:45.272Z</time></trkpt><trkpt lat="43.7910201" lon="11.3395978"><ele>261.0</ele><time>2026-04-04T07:49:46.273Z</time></trkpt><trkpt lat="43.7910609" lon="11.3397151"><ele>261.0</ele><time>2026-04-04T07:49:47.279Z</time></trkpt><trkpt lat="43.791133" lon="11.3398264"><ele>261.0</ele><time>2026-04-04T07:49:48.282Z</time></trkpt><trkpt lat="43.7912192" lon="11.3399394"><ele>259.0</ele><time>2026-04-04T07:49:49.276Z</time></trkpt><trkpt lat="43.7913088" lon="11.340059"><ele>257.0</ele><time>2026-04-04T07:49:50.277Z</time></trkpt><trkpt lat="43.7913906" lon="11.3401955"><ele>255.0</ele><time>2026-04-04T07:49:51.265Z</time></trkpt><trkpt lat="43.7914434" lon="11.3403569"><ele>253.0</ele><time>2026-04-04T07:49:52.266Z</time></trkpt><trkpt lat="43.7914879" lon="11.3405206"><ele>251.0</ele><time>2026-04-04T07:49:53.266Z</time></trkpt><trkpt lat="43.791532" lon="11.3406881"><ele>249.0</ele><time>2026-04-04T07:49:54.262Z</time></trkpt><trkpt lat="43.7915584" lon="11.3408543"><ele>247.0</ele><time>2026-04-04T07:49:55.261Z</time></trkpt><trkpt lat="43.7915777" lon="11.3410174"><ele>245.0</ele><time>2026-04-04T07:49:56.261Z</time></trkpt><trkpt lat="43.7915795" lon="11.3411769"><ele>245.0</ele><time>2026-04-04T07:49:57.271Z</time></trkpt><trkpt lat="43.7915433" lon="11.3413028"><ele>245.0</ele><time>2026-04-04T07:49:58.262Z</time></trkpt><trkpt lat="43.7914616" lon="11.3413867"><ele>245.0</ele><time>2026-04-04T07:49:59.26Z</time></trkpt><trkpt lat="43.7913499" lon="11.3414359"><ele>245.0</ele><time>2026-04-04T07:50:00.265Z</time></trkpt><trkpt lat="43.7912304" lon="11.3414643"><ele>245.0</ele><time>2026-04-04T07:50:01.266Z</time></trkpt><trkpt lat="43.7911194" lon="11.3414857"><ele>243.0</ele><time>2026-04-04T07:50:02.265Z</time></trkpt><trkpt lat="43.7910102" lon="11.3415127"><ele>241.0</ele><time>2026-04-04T07:50:03.258Z</time></trkpt><trkpt lat="43.790918" lon="11.3415764"><ele>239.0</ele><time>2026-04-04T07:50:04.264Z</time></trkpt><trkpt lat="43.7908796" lon="11.3416784"><ele>237.0</ele><time>2026-04-04T07:50:05.269Z</time></trkpt><trkpt lat="43.7908857" lon="11.3417912"><ele>235.0</ele><time>2026-04-04T07:50:06.265Z</time></trkpt><trkpt lat="43.7909268" lon="11.3418882"><ele>235.0</ele><time>2026-04-04T07:50:07.258Z</time></trkpt><trkpt lat="43.7909818" lon="11.3419736"><ele>235.0</ele><time>2026-04-04T07:50:08.263Z</time></trkpt><trkpt lat="43.7910438" lon="11.3420448"><ele>235.0</ele><time>2026-04-04T07:50:09.267Z</time></trkpt><trkpt lat="43.7911303" lon="11.3420706"><ele>235.0</ele><time>2026-04-04T07:50:10.268Z</time></trkpt><trkpt lat="43.7912297" lon="11.3420578"><ele>235.0</ele><time>2026-04-04T07:50:11.27Z</time></trkpt><trkpt lat="43.7913366" lon="11.3420342"><ele>234.8</ele><time>2026-04-04T07:50:12.268Z</time></trkpt><trkpt lat="43.7914368" lon="11.3420229"><ele>234.6</ele><time>2026-04-04T07:50:13.267Z</time></trkpt><trkpt lat="43.7915229" lon="11.3420449"><ele>234.39999999999998</ele><time>2026-04-04T07:50:14.269Z</time></trkpt><trkpt lat="43.7916104" lon="11.3421017"><ele>234.2</ele><time>2026-04-04T07:50:15.266Z</time></trkpt><trkpt lat="43.7916837" lon="11.3421835"><ele>234.0</ele><time>2026-04-04T07:50:16.266Z</time></trkpt><trkpt lat="43.7917419" lon="11.34228"><ele>231.66666666666666</ele><time>2026-04-04T07:50:17.265Z</time></trkpt><trkpt lat="43.7917782" lon="11.3423845"><ele>229.33333333333331</ele><time>2026-04-04T07:50:18.264Z</time></trkpt><trkpt lat="43.791793" lon="11.3424833"><ele>227.0</ele><time>2026-04-04T07:50:19.26Z</time></trkpt><trkpt lat="43.7917577" lon="11.3425844"><ele>224.66666666666666</ele><time>2026-04-04T07:50:20.262Z</time></trkpt><trkpt lat="43.7917" lon="11.3426549"><ele>222.33333333333331</ele><time>2026-04-04T07:50:21.26Z</time></trkpt><trkpt lat="43.7915993" lon="11.3427074"><ele>220.0</ele><time>2026-04-04T07:50:22.26Z</time></trkpt><trkpt lat="43.7914988" lon="11.342763"><ele>220.0</ele><time>2026-04-04T07:50:23.255Z</time></trkpt><trkpt lat="43.791392" lon="11.3428106"><ele>220.0</ele><time>2026-04-04T07:50:24.256Z</time></trkpt><trkpt lat="43.7912444" lon="11.3428794"><ele>220.0</ele><time>2026-04-04T07:50:25.259Z</time></trkpt><trkpt lat="43.7910823" lon="11.3429144"><ele>220.0</ele><time>2026-04-04T07:50:26.257Z</time></trkpt><trkpt lat="43.7909152" lon="11.3429236"><ele>220.33333333333331</ele><time>2026-04-04T07:50:27.259Z</time></trkpt><trkpt lat="43.7907573" lon="11.3429153"><ele>220.66666666666669</ele><time>2026-04-04T07:50:28.265Z</time></trkpt><trkpt lat="43.7906063" lon="11.3429284"><ele>221.0</ele><time>2026-04-04T07:50:29.259Z</time></trkpt><trkpt lat="43.790462" lon="11.3429717"><ele>219.25</ele><time>2026-04-04T07:50:30.265Z</time></trkpt><trkpt lat="43.790349" lon="11.3430672"><ele>217.5</ele><time>2026-04-04T07:50:31.257Z</time></trkpt><trkpt lat="43.7902658" lon="11.3431752"><ele>215.75</ele><time>2026-04-04T07:50:32.261Z</time></trkpt><trkpt lat="43.7902037" lon="11.3433186"><ele>214.0</ele><time>2026-04-04T07:50:33.263Z</time></trkpt><trkpt lat="43.7901707" lon="11.3435051"><ele>214.0</ele><time>2026-04-04T07:50:34.261Z</time></trkpt><trkpt lat="43.7901522" lon="11.3436955"><ele>214.0</ele><time>2026-04-04T07:50:35.261Z</time></trkpt><trkpt lat="43.7901426" lon="11.3438986"><ele>214.0</ele><time>2026-04-04T07:50:36.259Z</time></trkpt><trkpt lat="43.790137" lon="11.3440895"><ele>214.0</ele><time>2026-04-04T07:50:37.257Z</time></trkpt><trkpt lat="43.7901461" lon="11.3442843"><ele>211.75</ele><time>2026-04-04T07:50:38.268Z</time></trkpt><trkpt lat="43.790162" lon="11.3444647"><ele>209.5</ele><time>2026-04-04T07:50:39.262Z</time></trkpt><trkpt lat="43.7901901" lon="11.3446357"><ele>207.25</ele><time>2026-04-04T07:50:40.259Z</time></trkpt><trkpt lat="43.7902373" lon="11.34479"><ele>205.0</ele><time>2026-04-04T07:50:41.261Z</time></trkpt><trkpt lat="43.7902945" lon="11.3449388"><ele>199.75</ele><time>2026-04-04T07:50:42.26Z</time></trkpt><trkpt lat="43.7903673" lon="11.3450923"><ele>194.5</ele><time>2026-04-04T07:50:43.263Z</time></trkpt><trkpt lat="43.790437" lon="11.3452544"><ele>189.25</ele><time>2026-04-04T07:50:44.262Z</time></trkpt><trkpt lat="43.7905053" lon="11.345411"><ele>184.0</ele><time>2026-04-04T07:50:45.263Z</time></trkpt><trkpt lat="43.7905617" lon="11.3455669"><ele>182.0</ele><time>2026-04-04T07:50:46.262Z</time></trkpt><trkpt lat="43.7906008" lon="11.3457187"><ele>180.0</ele><time>2026-04-04T07:50:47.259Z</time></trkpt><trkpt lat="43.7906181" lon="11.3458678"><ele>178.0</ele><time>2026-04-04T07:50:48.258Z</time></trkpt><trkpt lat="43.7906241" lon="11.346008"><ele>176.0</ele><time>2026-04-04T07:50:49.254Z</time></trkpt><trkpt lat="43.7906142" lon="11.3461383"><ele>174.0</ele><time>2026-04-04T07:50:50.258Z</time></trkpt><trkpt lat="43.7905704" lon="11.3462527"><ele>174.0</ele><time>2026-04-04T07:50:51.259Z</time></trkpt><trkpt lat="43.7904824" lon="11.3463397"><ele>174.0</ele><time>2026-04-04T07:50:52.258Z</time></trkpt><trkpt lat="43.7903576" lon="11.3463878"><ele>174.0</ele><time>2026-04-04T07:50:53.258Z</time></trkpt><trkpt lat="43.7902223" lon="11.3464131"><ele>174.0</ele><time>2026-04-04T07:50:54.256Z</time></trkpt><trkpt lat="43.7900685" lon="11.3464253"><ele>172.5</ele><time>2026-04-04T07:50:55.259Z</time></trkpt><trkpt lat="43.789928" lon="11.3464268"><ele>171.0</ele><time>2026-04-04T07:50:56.259Z</time></trkpt><trkpt lat="43.7898019" lon="11.3464181"><ele>169.5</ele><time>2026-04-04T07:50:57.262Z</time></trkpt><trkpt lat="43.789676" lon="11.3464073"><ele>168.0</ele><time>2026-04-04T07:50:58.259Z</time></trkpt><trkpt lat="43.7895495" lon="11.3464135"><ele>168.0</ele><time>2026-04-04T07:50:59.267Z</time></trkpt><trkpt lat="43.7894509" lon="11.346471"><ele>168.0</ele><time>2026-04-04T07:51:00.26Z</time></trkpt><trkpt lat="43.7893753" lon="11.3465661"><ele>168.0</ele><time>2026-04-04T07:51:01.255Z</time></trkpt><trkpt lat="43.7893256" lon="11.3467001"><ele>168.0</ele><time>2026-04-04T07:51:02.258Z</time></trkpt><trkpt lat="43.7893225" lon="11.3468746"><ele>168.0</ele><time>2026-04-04T07:51:03.252Z</time></trkpt><trkpt lat="43.7893261" lon="11.347087"><ele>164.75</ele><time>2026-04-04T07:51:04.253Z</time></trkpt><trkpt lat="43.789356" lon="11.3472951"><ele>161.5</ele><time>2026-04-04T07:51:05.255Z</time></trkpt><trkpt lat="43.7893803" lon="11.347487"><ele>158.25</ele><time>2026-04-04T07:51:06.257Z</time></trkpt><trkpt lat="43.7893982" lon="11.3476723"><ele>155.0</ele><time>2026-04-04T07:51:07.26Z</time></trkpt><trkpt lat="43.7894058" lon="11.3478571"><ele>152.66666666666666</ele><time>2026-04-04T07:51:08.259Z</time></trkpt><trkpt lat="43.7894022" lon="11.34805"><ele>150.33333333333334</ele><time>2026-04-04T07:51:09.257Z</time></trkpt><trkpt lat="43.7893914" lon="11.3482589"><ele>148.0</ele><time>2026-04-04T07:51:10.261Z</time></trkpt><trkpt lat="43.7893495" lon="11.3485026"><ele>148.66666666666669</ele><time>2026-04-04T07:51:11.26Z</time></trkpt><trkpt lat="43.7892872" lon="11.3487836"><ele>149.33333333333334</ele><time>2026-04-04T07:51:12.261Z</time></trkpt><trkpt lat="43.7892284" lon="11.349055"><ele>150.0</ele><time>2026-04-04T07:51:13.263Z</time></trkpt><trkpt lat="43.7891791" lon="11.3493042"><ele>150.0</ele><time>2026-04-04T07:51:14.261Z</time></trkpt><trkpt lat="43.7891483" lon="11.3495226"><ele>150.0</ele><time>2026-04-04T07:51:15.263Z</time></trkpt><trkpt lat="43.789122" lon="11.3497437"><ele>150.0</ele><time>2026-04-04T07:51:16.264Z</time></trkpt><trkpt lat="43.7891259" lon="11.3499589"><ele>149.75</ele><time>2026-04-04T07:51:17.268Z</time></trkpt><trkpt lat="43.78914" lon="11.3501572"><ele>149.5</ele><time>2026-04-04T07:51:18.267Z</time></trkpt><trkpt lat="43.7891711" lon="11.3503518"><ele>149.25</ele><time>2026-04-04T07:51:19.271Z</time></trkpt><trkpt lat="43.7891922" lon="11.3505377"><ele>149.0</ele><time>2026-04-04T07:51:20.266Z</time></trkpt><trkpt lat="43.7891873" lon="11.350725"><ele>147.66666666666666</ele><time>2026-04-04T07:51:21.268Z</time></trkpt><trkpt lat="43.7891566" lon="11.3509122"><ele>146.33333333333334</ele><time>2026-04-04T07:51:22.263Z</time></trkpt><trkpt lat="43.7891048" lon="11.3511083"><ele>145.0</ele><time>2026-04-04T07:51:23.268Z</time></trkpt><trkpt lat="43.7890338" lon="11.3513118"><ele>143.75</ele><time>2026-04-04T07:51:24.269Z</time></trkpt><trkpt lat="43.788972" lon="11.3515149"><ele>142.5</ele><time>2026-04-04T07:51:25.272Z</time></trkpt><trkpt lat="43.7889215" lon="11.3517057"><ele>141.25</ele><time>2026-04-04T07:51:26.27Z</time></trkpt><trkpt lat="43.7888764" lon="11.3518857"><ele>140.0</ele><time>2026-04-04T07:51:27.272Z</time></trkpt><trkpt lat="43.7888391" lon="11.3520682"><ele>138.25</ele><time>2026-04-04T07:51:28.264Z</time></trkpt><trkpt lat="43.7888281" lon="11.3522562"><ele>136.5</ele><time>2026-04-04T07:51:29.268Z</time></trkpt><trkpt lat="43.7888583" lon="11.3524466"><ele>134.75</ele><time>2026-04-04T07:51:30.278Z</time></trkpt><trkpt lat="43.7889052" lon="11.3526483"><ele>133.0</ele><time>2026-04-04T07:51:31.268Z</time></trkpt><trkpt lat="43.7889574" lon="11.3528353"><ele>133.0</ele><time>2026-04-04T07:51:32.268Z</time></trkpt><trkpt lat="43.7889998" lon="11.3530054"><ele>133.0</ele><time>2026-04-04T07:51:33.268Z</time></trkpt><trkpt lat="43.7890283" lon="11.3531639"><ele>133.0</ele><time>2026-04-04T07:51:34.268Z</time></trkpt><trkpt lat="43.7890569" lon="11.3533235"><ele>133.0</ele><time>2026-04-04T07:51:35.266Z</time></trkpt><trkpt lat="43.7890662" lon="11.3534725"><ele>131.8</ele><time>2026-04-04T07:51:36.268Z</time></trkpt><trkpt lat="43.7890568" lon="11.3536191"><ele>130.60000000000002</ele><time>2026-04-04T07:51:37.268Z</time></trkpt><trkpt lat="43.7890491" lon="11.3537493"><ele>129.39999999999998</ele><time>2026-04-04T07:51:38.269Z</time></trkpt><trkpt lat="43.7890683" lon="11.3538667"><ele>128.2</ele><time>2026-04-04T07:51:39.267Z</time></trkpt><trkpt lat="43.7891038" lon="11.3539697"><ele>127.0</ele><time>2026-04-04T07:51:40.269Z</time></trkpt><trkpt lat="43.7891629" lon="11.3540454"><ele>125.19999999999999</ele><time>2026-04-04T07:51:41.26Z</time></trkpt><trkpt lat="43.7892467" lon="11.3540624"><ele>123.39999999999999</ele><time>2026-04-04T07:51:42.261Z</time></trkpt><trkpt lat="43.7893378" lon="11.3540288"><ele>121.60000000000001</ele><time>2026-04-04T07:51:43.261Z</time></trkpt><trkpt lat="43.7894275" lon="11.3539534"><ele>119.80000000000001</ele><time>2026-04-04T07:51:44.261Z</time></trkpt><trkpt lat="43.7895119" lon="11.3538095"><ele>118.0</ele><time>2026-04-04T07:51:45.26Z</time></trkpt><trkpt lat="43.7895808" lon="11.3536592"><ele>118.00000000000001</ele><time>2026-04-04T07:51:46.26Z</time></trkpt><trkpt lat="43.7896331" lon="11.353528"><ele>118.0</ele><time>2026-04-04T07:51:47.257Z</time></trkpt><trkpt lat="43.789689" lon="11.3534297"><ele>118.0</ele><time>2026-04-04T07:51:48.257Z</time></trkpt><trkpt lat="43.7897527" lon="11.3533876"><ele>118.0</ele><time>2026-04-04T07:51:49.258Z</time></trkpt><trkpt lat="43.7898288" lon="11.3533964"><ele>118.00000000000001</ele><time>2026-04-04T07:51:50.251Z</time></trkpt><trkpt lat="43.7899106" lon="11.3534662"><ele>118.0</ele><time>2026-04-04T07:51:51.254Z</time></trkpt><trkpt lat="43.7899725" lon="11.3535797"><ele>118.0</ele><time>2026-04-04T07:51:52.25Z</time></trkpt><trkpt lat="43.7900094" lon="11.3537211"><ele>118.0</ele><time>2026-04-04T07:51:53.252Z</time></trkpt><trkpt lat="43.7900146" lon="11.3538851"><ele>118.0</ele><time>2026-04-04T07:51:54.252Z</time></trkpt><trkpt lat="43.7899719" lon="11.3540374"><ele>118.0</ele><time>2026-04-04T07:51:55.249Z</time></trkpt><trkpt lat="43.7898758" lon="11.3541806"><ele>113.33333333333334</ele><time>2026-04-04T07:51:56.252Z</time></trkpt><trkpt lat="43.789765" lon="11.3543355"><ele>108.66666666666666</ele><time>2026-04-04T07:51:57.253Z</time></trkpt><trkpt lat="43.7896454" lon="11.3544972"><ele>104.0</ele><time>2026-04-04T07:51:58.256Z</time></trkpt><trkpt lat="43.7895215" lon="11.3546424"><ele>101.66666666666666</ele><time>2026-04-04T07:51:59.257Z</time></trkpt><trkpt lat="43.7893992" lon="11.3547702"><ele>99.33333333333334</ele><time>2026-04-04T07:52:00.259Z</time></trkpt><trkpt lat="43.7892667" lon="11.3548914"><ele>97.0</ele><time>2026-04-04T07:52:01.264Z</time></trkpt><trkpt lat="43.7891441" lon="11.355021"><ele>97.0</ele><time>2026-04-04T07:52:02.257Z</time></trkpt><trkpt lat="43.7890232" lon="11.3551446"><ele>97.0</ele><time>2026-04-04T07:52:03.261Z</time></trkpt><trkpt lat="43.7889078" lon="11.355261"><ele>97.0</ele><time>2026-04-04T07:52:04.258Z</time></trkpt><trkpt lat="43.7888059" lon="11.3553667"><ele>97.0</ele><time>2026-04-04T07:52:05.257Z</time></trkpt><trkpt lat="43.7887265" lon="11.3554648"><ele>96.8</ele><time>2026-04-04T07:52:06.259Z</time></trkpt><trkpt lat="43.7886605" lon="11.3555601"><ele>96.6</ele><time>2026-04-04T07:52:07.261Z</time></trkpt><trkpt lat="43.7885993" lon="11.355662"><ele>96.39999999999999</ele><time>2026-04-04T07:52:08.262Z</time></trkpt><trkpt lat="43.7885557" lon="11.3557648"><ele>96.19999999999999</ele><time>2026-04-04T07:52:09.261Z</time></trkpt><trkpt lat="43.7885218" lon="11.355876"><ele>96.0</ele><time>2026-04-04T07:52:10.258Z</time></trkpt><trkpt lat="43.7884807" lon="11.3559971"><ele>96.0</ele><time>2026-04-04T07:52:11.261Z</time></trkpt><trkpt lat="43.7884355" lon="11.356124"><ele>96.0</ele><time>2026-04-04T07:52:12.257Z</time></trkpt><trkpt lat="43.7883816" lon="11.3562607"><ele>96.0</ele><time>2026-04-04T07:52:13.261Z</time></trkpt><trkpt lat="43.7883251" lon="11.3563989"><ele>96.0</ele><time>2026-04-04T07:52:14.261Z</time></trkpt><trkpt lat="43.788262" lon="11.3565477"><ele>94.5</ele><time>2026-04-04T07:52:15.258Z</time></trkpt><trkpt lat="43.7881948" lon="11.356705"><ele>93.0</ele><time>2026-04-04T07:52:16.261Z</time></trkpt><trkpt lat="43.788129" lon="11.3568495"><ele>91.5</ele><time>2026-04-04T07:52:17.261Z</time></trkpt><trkpt lat="43.7880608" lon="11.3569858"><ele>90.0</ele><time>2026-04-04T07:52:18.258Z</time></trkpt><trkpt lat="43.7879983" lon="11.3571068"><ele>89.8</ele><time>2026-04-04T07:52:19.257Z</time></trkpt><trkpt lat="43.7879399" lon="11.3572244"><ele>89.6</ele><time>2026-04-04T07:52:20.263Z</time></trkpt><trkpt lat="43.787872" lon="11.3573337"><ele>89.4</ele><time>2026-04-04T07:52:21.263Z</time></trkpt><trkpt lat="43.7877978" lon="11.3574423"><ele>89.2</ele><time>2026-04-04T07:52:22.263Z</time></trkpt><trkpt lat="43.7877169" lon="11.3575463"><ele>89.0</ele><time>2026-04-04T07:52:23.264Z</time></trkpt><trkpt lat="43.7876321" lon="11.3576571"><ele>88.2</ele><time>2026-04-04T07:52:24.261Z</time></trkpt><trkpt lat="43.7875383" lon="11.3577685"><ele>87.4</ele><time>2026-04-04T07:52:25.264Z</time></trkpt><trkpt lat="43.7874479" lon="11.3578696"><ele>86.6</ele><time>2026-04-04T07:52:26.271Z</time></trkpt><trkpt lat="43.7873664" lon="11.3579679"><ele>85.8</ele><time>2026-04-04T07:52:27.271Z</time></trkpt><trkpt lat="43.7872922" lon="11.3580565"><ele>85.0</ele><time>2026-04-04T07:52:28.267Z</time></trkpt><trkpt lat="43.787227" lon="11.358139"><ele>85.0</ele><time>2026-04-04T07:52:29.274Z</time></trkpt><trkpt lat="43.7871652" lon="11.358209"><ele>85.0</ele><time>2026-04-04T07:52:30.279Z</time></trkpt><trkpt lat="43.7871061" lon="11.3582723"><ele>85.0</ele><time>2026-04-04T07:52:31.281Z</time></trkpt><trkpt lat="43.7870512" lon="11.3583217"><ele>85.0</ele><time>2026-04-04T07:52:32.277Z</time></trkpt><trkpt lat="43.7869484" lon="11.3583946"><ele>85.0</ele><time>2026-04-04T07:52:34.27Z</time></trkpt><trkpt lat="43.7868189" lon="11.3584251"><ele>84.2</ele><time>2026-04-04T07:52:36.263Z</time></trkpt><trkpt lat="43.7867352" lon="11.3584124"><ele>83.4</ele><time>2026-04-04T07:52:37.257Z</time></trkpt><trkpt lat="43.7866518" lon="11.3584246"><ele>82.6</ele><time>2026-04-04T07:52:38.259Z</time></trkpt><trkpt lat="43.7865696" lon="11.3584693"><ele>81.8</ele><time>2026-04-04T07:52:39.263Z</time></trkpt><trkpt lat="43.7864817" lon="11.3585687"><ele>81.0</ele><time>2026-04-04T07:52:40.269Z</time></trkpt><trkpt lat="43.7864035" lon="11.358705"><ele>81.0</ele><time>2026-04-04T07:52:41.271Z</time></trkpt><trkpt lat="43.7863407" lon="11.3588425"><ele>81.0</ele><time>2026-04-04T07:52:42.268Z</time></trkpt><trkpt lat="43.7862894" lon="11.3589812"><ele>81.0</ele><time>2026-04-04T07:52:43.276Z</time></trkpt><trkpt lat="43.7862397" lon="11.3591176"><ele>81.0</ele><time>2026-04-04T07:52:44.269Z</time></trkpt><trkpt lat="43.7861979" lon="11.3592596"><ele>80.83333333333333</ele><time>2026-04-04T07:52:45.27Z</time></trkpt><trkpt lat="43.7861644" lon="11.3593885"><ele>80.66666666666667</ele><time>2026-04-04T07:52:46.268Z</time></trkpt><trkpt lat="43.7861426" lon="11.3595042"><ele>80.5</ele><time>2026-04-04T07:52:47.271Z</time></trkpt><trkpt lat="43.7861187" lon="11.3596103"><ele>80.33333333333334</ele><time>2026-04-04T07:52:48.268Z</time></trkpt><trkpt lat="43.7860737" lon="11.3597034"><ele>80.16666666666667</ele><time>2026-04-04T07:52:49.268Z</time></trkpt><trkpt lat="43.7860173" lon="11.3597737"><ele>80.0</ele><time>2026-04-04T07:52:50.27Z</time></trkpt><trkpt lat="43.7859506" lon="11.3598279"><ele>79.66666666666667</ele><time>2026-04-04T07:52:51.268Z</time></trkpt><trkpt lat="43.7858812" lon="11.3598833"><ele>79.33333333333334</ele><time>2026-04-04T07:52:52.27Z</time></trkpt><trkpt lat="43.7858029" lon="11.3599227"><ele>79.0</ele><time>2026-04-04T07:52:53.278Z</time></trkpt><trkpt lat="43.7857225" lon="11.3599346"><ele>78.66666666666667</ele><time>2026-04-04T07:52:54.281Z</time></trkpt><trkpt lat="43.785638" lon="11.3599418"><ele>78.33333333333333</ele><time>2026-04-04T07:52:55.284Z</time></trkpt><trkpt lat="43.7855453" lon="11.3599454"><ele>78.0</ele><time>2026-04-04T07:52:56.276Z</time></trkpt><trkpt lat="43.7854523" lon="11.3599463"><ele>78.0</ele><time>2026-04-04T07:52:57.286Z</time></trkpt><trkpt lat="43.7853621" lon="11.3599547"><ele>78.0</ele><time>2026-04-04T07:52:58.284Z</time></trkpt><trkpt lat="43.7852747" lon="11.3599594"><ele>78.0</ele><time>2026-04-04T07:52:59.287Z</time></trkpt><trkpt lat="43.7851923" lon="11.3599693"><ele>78.0</ele><time>2026-04-04T07:53:00.271Z</time></trkpt><trkpt lat="43.7851089" lon="11.3599759"><ele>78.0</ele><time>2026-04-04T07:53:01.269Z</time></trkpt><trkpt lat="43.7850245" lon="11.3599897"><ele>78.0</ele><time>2026-04-04T07:53:02.269Z</time></trkpt><trkpt lat="43.7849486" lon="11.3600151"><ele>77.0</ele><time>2026-04-04T07:53:03.275Z</time></trkpt><trkpt lat="43.7848805" lon="11.3600483"><ele>76.0</ele><time>2026-04-04T07:53:04.272Z</time></trkpt><trkpt lat="43.7848137" lon="11.3600825"><ele>75.0</ele><time>2026-04-04T07:53:05.268Z</time></trkpt><trkpt lat="43.7847471" lon="11.3601399"><ele>74.0</ele><time>2026-04-04T07:53:06.276Z</time></trkpt><trkpt lat="43.7846816" lon="11.3602099"><ele>73.0</ele><time>2026-04-04T07:53:07.263Z</time></trkpt><trkpt lat="43.7846277" lon="11.3602832"><ele>72.0</ele><time>2026-04-04T07:53:08.269Z</time></trkpt><trkpt lat="43.7845833" lon="11.3603533"><ele>71.0</ele><time>2026-04-04T07:53:09.276Z</time></trkpt><trkpt lat="43.7845406" lon="11.3604182"><ele>71.6</ele><time>2026-04-04T07:53:10.277Z</time></trkpt><trkpt lat="43.7844583" lon="11.3605414"><ele>72.19999999999999</ele><time>2026-04-04T07:53:12.27Z</time></trkpt><trkpt lat="43.7843988" lon="11.3606656"><ele>72.80000000000001</ele><time>2026-04-04T07:53:14.266Z</time></trkpt><trkpt lat="43.7843843" lon="11.3607807"><ele>73.4</ele><time>2026-04-04T07:53:16.269Z</time></trkpt><trkpt lat="43.7843725" lon="11.3609308"><ele>74.0</ele><time>2026-04-04T07:54:46.281Z</time></trkpt><trkpt lat="43.7843638" lon="11.3610182"><ele>74.0</ele><time>2026-04-04T07:54:47.283Z</time></trkpt><trkpt lat="43.7843739" lon="11.3611124"><ele>74.0</ele><time>2026-04-04T07:54:48.283Z</time></trkpt><trkpt lat="43.7844052" lon="11.3612052"><ele>74.0</ele><time>2026-04-04T07:54:49.279Z</time></trkpt><trkpt lat="43.7844399" lon="11.3613099"><ele>74.0</ele><time>2026-04-04T07:54:50.277Z</time></trkpt><trkpt lat="43.7844784" lon="11.3614285"><ele>74.0</ele><time>2026-04-04T07:54:51.286Z</time></trkpt><trkpt lat="43.7845189" lon="11.3615301"><ele>74.0</ele><time>2026-04-04T07:54:52.276Z</time></trkpt><trkpt lat="43.7845545" lon="11.3616217"><ele>74.16666666666667</ele><time>2026-04-04T07:54:53.27Z</time></trkpt><trkpt lat="43.7845912" lon="11.3617235"><ele>74.33333333333334</ele><time>2026-04-04T07:54:54.273Z</time></trkpt><trkpt lat="43.7846205" lon="11.3618363"><ele>74.5</ele><time>2026-04-04T07:54:55.27Z</time></trkpt><trkpt lat="43.7846483" lon="11.3619543"><ele>74.66666666666667</ele><time>2026-04-04T07:54:56.264Z</time></trkpt><trkpt lat="43.7846638" lon="11.362069"><ele>74.83333333333333</ele><time>2026-04-04T07:54:57.272Z</time></trkpt><trkpt lat="43.7846728" lon="11.3621846"><ele>75.0</ele><time>2026-04-04T07:54:58.264Z</time></trkpt><trkpt lat="43.7846764" lon="11.3622969"><ele>74.66666666666667</ele><time>2026-04-04T07:54:59.272Z</time></trkpt><trkpt lat="43.7846758" lon="11.3624089"><ele>74.33333333333333</ele><time>2026-04-04T07:55:00.268Z</time></trkpt><trkpt lat="43.7846749" lon="11.362526"><ele>74.0</ele><time>2026-04-04T07:55:01.268Z</time></trkpt><trkpt lat="43.7846704" lon="11.3626414"><ele>73.66666666666666</ele><time>2026-04-04T07:55:02.269Z</time></trkpt><trkpt lat="43.7846595" lon="11.3627599"><ele>73.33333333333333</ele><time>2026-04-04T07:55:03.27Z</time></trkpt><trkpt lat="43.7846464" lon="11.3628725"><ele>73.0</ele><time>2026-04-04T07:55:04.27Z</time></trkpt><trkpt lat="43.7846349" lon="11.3629875"><ele>72.83333333333333</ele><time>2026-04-04T07:55:05.269Z</time></trkpt><trkpt lat="43.7846306" lon="11.363109"><ele>72.66666666666666</ele><time>2026-04-04T07:55:06.275Z</time></trkpt><trkpt lat="43.7846211" lon="11.3632308"><ele>72.5</ele><time>2026-04-04T07:55:07.288Z</time></trkpt><trkpt lat="43.7846118" lon="11.3633597"><ele>72.33333333333333</ele><time>2026-04-04T07:55:08.274Z</time></trkpt><trkpt lat="43.7846101" lon="11.3634832"><ele>72.16666666666667</ele><time>2026-04-04T07:55:09.276Z</time></trkpt><trkpt lat="43.7846066" lon="11.3636073"><ele>72.0</ele><time>2026-04-04T07:55:10.277Z</time></trkpt><trkpt lat="43.7846015" lon="11.3637231"><ele>72.0</ele><time>2026-04-04T07:55:11.285Z</time></trkpt><trkpt lat="43.7845934" lon="11.3638455"><ele>72.0</ele><time>2026-04-04T07:55:12.278Z</time></trkpt><trkpt lat="43.7845844" lon="11.3639682"><ele>72.0</ele><time>2026-04-04T07:55:13.289Z</time></trkpt><trkpt lat="43.7845738" lon="11.3640912"><ele>72.0</ele><time>2026-04-04T07:55:14.283Z</time></trkpt><trkpt lat="43.7845572" lon="11.364224"><ele>72.0</ele><time>2026-04-04T07:55:15.283Z</time></trkpt><trkpt lat="43.7845331" lon="11.3643661"><ele>71.8</ele><time>2026-04-04T07:55:16.287Z</time></trkpt><trkpt lat="43.7845006" lon="11.3645102"><ele>71.6</ele><time>2026-04-04T07:55:17.287Z</time></trkpt><trkpt lat="43.7844684" lon="11.3646493"><ele>71.39999999999999</ele><time>2026-04-04T07:55:18.276Z</time></trkpt><trkpt lat="43.7844364" lon="11.3647889"><ele>71.2</ele><time>2026-04-04T07:55:19.276Z</time></trkpt><trkpt lat="43.7844039" lon="11.3649297"><ele>71.0</ele><time>2026-04-04T07:55:20.28Z</time></trkpt><trkpt lat="43.7843684" lon="11.3650749"><ele>70.2</ele><time>2026-04-04T07:55:21.281Z</time></trkpt><trkpt lat="43.7843345" lon="11.3652221"><ele>69.39999999999999</ele><time>2026-04-04T07:55:22.268Z</time></trkpt><trkpt lat="43.7843004" lon="11.3653674"><ele>68.6</ele><time>2026-04-04T07:55:23.277Z</time></trkpt><trkpt lat="43.784271" lon="11.36551"><ele>67.8</ele><time>2026-04-04T07:55:24.273Z</time></trkpt><trkpt lat="43.7842394" lon="11.3656533"><ele>67.0</ele><time>2026-04-04T07:55:25.282Z</time></trkpt><trkpt lat="43.7842112" lon="11.3657925"><ele>67.0</ele><time>2026-04-04T07:55:26.277Z</time></trkpt><trkpt lat="43.78419" lon="11.3659191"><ele>67.0</ele><time>2026-04-04T07:55:27.279Z</time></trkpt><trkpt lat="43.784179" lon="11.366028"><ele>67.0</ele><time>2026-04-04T07:55:28.28Z</time></trkpt><trkpt lat="43.7841765" lon="11.3661218"><ele>67.0</ele><time>2026-04-04T07:55:29.277Z</time></trkpt><trkpt lat="43.7841744" lon="11.3662485"><ele>67.0</ele><time>2026-04-04T07:55:31.287Z</time></trkpt><trkpt lat="43.7841353" lon="11.3663422"><ele>67.0</ele><time>2026-04-04T07:56:06.281Z</time></trkpt><trkpt lat="43.7841024" lon="11.3664395"><ele>67.5</ele><time>2026-04-04T07:56:07.279Z</time></trkpt><trkpt lat="43.784065" lon="11.3665804"><ele>68.0</ele><time>2026-04-04T07:56:08.28Z</time></trkpt><trkpt lat="43.7840338" lon="11.3667712"><ele>68.5</ele><time>2026-04-04T07:56:09.283Z</time></trkpt><trkpt lat="43.7840117" lon="11.3669702"><ele>69.0</ele><time>2026-04-04T07:56:10.28Z</time></trkpt><trkpt lat="43.7839951" lon="11.3671799"><ele>69.33333333333333</ele><time>2026-04-04T07:56:11.282Z</time></trkpt><trkpt lat="43.7839907" lon="11.3674108"><ele>69.66666666666666</ele><time>2026-04-04T07:56:12.277Z</time></trkpt><trkpt lat="43.7839886" lon="11.3676501"><ele>70.0</ele><time>2026-04-04T07:56:13.277Z</time></trkpt><trkpt lat="43.7840009" lon="11.3678924"><ele>69.33333333333333</ele><time>2026-04-04T07:56:14.277Z</time></trkpt><trkpt lat="43.784016" lon="11.36812"><ele>68.66666666666667</ele><time>2026-04-04T07:56:15.278Z</time></trkpt><trkpt lat="43.7840311" lon="11.3683387"><ele>68.0</ele><time>2026-04-04T07:56:16.277Z</time></trkpt><trkpt lat="43.7840753" lon="11.3685512"><ele>68.0</ele><time>2026-04-04T07:56:17.277Z</time></trkpt><trkpt lat="43.7841315" lon="11.3687621"><ele>68.0</ele><time>2026-04-04T07:56:18.284Z</time></trkpt><trkpt lat="43.7841964" lon="11.368964"><ele>68.0</ele><time>2026-04-04T07:56:19.277Z</time></trkpt><trkpt lat="43.7842757" lon="11.3691679"><ele>69.33333333333334</ele><time>2026-04-04T07:56:20.28Z</time></trkpt><trkpt lat="43.7843727" lon="11.3693865"><ele>70.66666666666667</ele><time>2026-04-04T07:56:21.276Z</time></trkpt><trkpt lat="43.7844875" lon="11.3696224"><ele>72.0</ele><time>2026-04-04T07:56:22.279Z</time></trkpt><trkpt lat="43.7846139" lon="11.3698747"><ele>72.0</ele><time>2026-04-04T07:56:23.278Z</time></trkpt><trkpt lat="43.7847435" lon="11.3701414"><ele>72.0</ele><time>2026-04-04T07:56:24.281Z</time></trkpt><trkpt lat="43.7848835" lon="11.3704111"><ele>73.5</ele><time>2026-04-04T07:56:25.28Z</time></trkpt><trkpt lat="43.7850216" lon="11.3706795"><ele>75.0</ele><time>2026-04-04T07:56:26.274Z</time></trkpt><trkpt lat="43.7851524" lon="11.3709258"><ele>76.66666666666667</ele><time>2026-04-04T07:56:27.28Z</time></trkpt><trkpt lat="43.7852718" lon="11.3711544"><ele>78.33333333333334</ele><time>2026-04-04T07:56:28.276Z</time></trkpt><trkpt lat="43.785379" lon="11.3713757"><ele>80.0</ele><time>2026-04-04T07:56:29.279Z</time></trkpt><trkpt lat="43.7854786" lon="11.3715943"><ele>80.0</ele><time>2026-04-04T07:56:30.279Z</time></trkpt><trkpt lat="43.7855651" lon="11.3718214"><ele>80.0</ele><time>2026-04-04T07:56:31.278Z</time></trkpt><trkpt lat="43.7856443" lon="11.3720584"><ele>80.0</ele><time>2026-04-04T07:56:32.275Z</time></trkpt><trkpt lat="43.7857085" lon="11.3723092"><ele>79.66666666666667</ele><time>2026-04-04T07:56:33.274Z</time></trkpt><trkpt lat="43.7857627" lon="11.372574"><ele>79.33333333333333</ele><time>2026-04-04T07:56:34.276Z</time></trkpt><trkpt lat="43.7858155" lon="11.3728545"><ele>79.0</ele><time>2026-04-04T07:56:35.279Z</time></trkpt><trkpt lat="43.78587" lon="11.3731266"><ele>79.0</ele><time>2026-04-04T07:56:36.277Z</time></trkpt><trkpt lat="43.7859206" lon="11.3734203"><ele>79.0</ele><time>2026-04-04T07:56:37.279Z</time></trkpt><trkpt lat="43.7859768" lon="11.3736968"><ele>79.0</ele><time>2026-04-04T07:56:38.279Z</time></trkpt><trkpt lat="43.786028" lon="11.3739652"><ele>81.0</ele><time>2026-04-04T07:56:39.273Z</time></trkpt><trkpt lat="43.7860745" lon="11.3742173"><ele>83.0</ele><time>2026-04-04T07:56:40.288Z</time></trkpt><trkpt lat="43.786115" lon="11.3744401"><ele>85.0</ele><time>2026-04-04T07:56:41.282Z</time></trkpt><trkpt lat="43.7861537" lon="11.3746556"><ele>85.5</ele><time>2026-04-04T07:56:42.285Z</time></trkpt><trkpt lat="43.7861934" lon="11.374872"><ele>86.0</ele><time>2026-04-04T07:56:43.282Z</time></trkpt><trkpt lat="43.7862276" lon="11.3750824"><ele>86.5</ele><time>2026-04-04T07:56:44.283Z</time></trkpt><trkpt lat="43.7862497" lon="11.3752535"><ele>87.0</ele><time>2026-04-04T07:56:45.283Z</time></trkpt><trkpt lat="43.7862776" lon="11.3753671"><ele>87.0</ele><time>2026-04-04T07:56:46.281Z</time></trkpt><trkpt lat="43.7862749" lon="11.3754644"><ele>87.0</ele><time>2026-04-04T07:56:47.28Z</time></trkpt><trkpt lat="43.7862567" lon="11.375555"><ele>87.0</ele><time>2026-04-04T07:56:48.281Z</time></trkpt><trkpt lat="43.7861892" lon="11.3756959"><ele>87.0</ele><time>2026-04-04T07:56:50.283Z</time></trkpt><trkpt lat="43.786164" lon="11.3757831"><ele>87.0</ele><time>2026-04-04T07:56:51.271Z</time></trkpt><trkpt lat="43.7861502" lon="11.3758765"><ele>87.0</ele><time>2026-04-04T07:56:52.289Z</time></trkpt><trkpt lat="43.786167" lon="11.3759772"><ele>86.0</ele><time>2026-04-04T07:56:53.275Z</time></trkpt><trkpt lat="43.7861971" lon="11.3760965"><ele>85.0</ele><time>2026-04-04T07:56:54.288Z</time></trkpt><trkpt lat="43.7862414" lon="11.3762412"><ele>84.0</ele><time>2026-04-04T07:56:55.281Z</time></trkpt><trkpt lat="43.7862968" lon="11.3763999"><ele>83.0</ele><time>2026-04-04T07:56:56.276Z</time></trkpt><trkpt lat="43.786348" lon="11.3765664"><ele>82.25</ele><time>2026-04-04T07:56:57.285Z</time></trkpt><trkpt lat="43.7864084" lon="11.3767393"><ele>81.5</ele><time>2026-04-04T07:56:58.275Z</time></trkpt><trkpt lat="43.7864764" lon="11.3769132"><ele>80.75</ele><time>2026-04-04T07:56:59.274Z</time></trkpt><trkpt lat="43.7865485" lon="11.3770869"><ele>80.0</ele><time>2026-04-04T07:57:00.273Z</time></trkpt><trkpt lat="43.786618" lon="11.3772631"><ele>79.66666666666667</ele><time>2026-04-04T07:57:01.275Z</time></trkpt><trkpt lat="43.786682" lon="11.3774489"><ele>79.33333333333333</ele><time>2026-04-04T07:57:02.282Z</time></trkpt><trkpt lat="43.7867527" lon="11.3776514"><ele>79.0</ele><time>2026-04-04T07:57:03.275Z</time></trkpt><trkpt lat="43.786825" lon="11.3778616"><ele>83.0</ele><time>2026-04-04T07:57:04.281Z</time></trkpt><trkpt lat="43.7868955" lon="11.378061"><ele>87.0</ele><time>2026-04-04T07:57:05.287Z</time></trkpt><trkpt lat="43.7869639" lon="11.3782509"><ele>91.0</ele><time>2026-04-04T07:57:06.286Z</time></trkpt><trkpt lat="43.7870325" lon="11.3784355"><ele>91.0</ele><time>2026-04-04T07:57:07.284Z</time></trkpt><trkpt lat="43.7871136" lon="11.3785997"><ele>91.0</ele><time>2026-04-04T07:57:08.276Z</time></trkpt><trkpt lat="43.7872217" lon="11.3787464"><ele>91.0</ele><time>2026-04-04T07:57:09.275Z</time></trkpt><trkpt lat="43.7873602" lon="11.3788719"><ele>88.0</ele><time>2026-04-04T07:57:10.268Z</time></trkpt><trkpt lat="43.7875176" lon="11.3790144"><ele>85.0</ele><time>2026-04-04T07:57:11.285Z</time></trkpt><trkpt lat="43.7876579" lon="11.3792071"><ele>82.0</ele><time>2026-04-04T07:57:12.268Z</time></trkpt><trkpt lat="43.7877826" lon="11.3793945"><ele>82.0</ele><time>2026-04-04T07:57:13.269Z</time></trkpt><trkpt lat="43.7878958" lon="11.379568"><ele>82.0</ele><time>2026-04-04T07:57:14.27Z</time></trkpt><trkpt lat="43.7880152" lon="11.3797474"><ele>82.0</ele><time>2026-04-04T07:57:15.267Z</time></trkpt><trkpt lat="43.7881566" lon="11.3799379"><ele>82.0</ele><time>2026-04-04T07:57:16.266Z</time></trkpt><trkpt lat="43.7883136" lon="11.3801482"><ele>82.0</ele><time>2026-04-04T07:57:17.267Z</time></trkpt><trkpt lat="43.7885016" lon="11.3803798"><ele>81.0</ele><time>2026-04-04T07:57:18.263Z</time></trkpt><trkpt lat="43.7887052" lon="11.3806108"><ele>80.0</ele><time>2026-04-04T07:57:19.274Z</time></trkpt><trkpt lat="43.788892" lon="11.3808187"><ele>80.0</ele><time>2026-04-04T07:57:20.275Z</time></trkpt><trkpt lat="43.7890671" lon="11.3810228"><ele>80.0</ele><time>2026-04-04T07:57:21.275Z</time></trkpt><trkpt lat="43.78923" lon="11.3812229"><ele>80.0</ele><time>2026-04-04T07:57:22.273Z</time></trkpt><trkpt lat="43.7893786" lon="11.3813924"><ele>80.0</ele><time>2026-04-04T07:57:23.277Z</time></trkpt><trkpt lat="43.7895196" lon="11.3815515"><ele>80.0</ele><time>2026-04-04T07:57:24.275Z</time></trkpt><trkpt lat="43.789665" lon="11.3817027"><ele>80.0</ele><time>2026-04-04T07:57:25.273Z</time></trkpt><trkpt lat="43.7897936" lon="11.3818243"><ele>80.0</ele><time>2026-04-04T07:57:26.27Z</time></trkpt><trkpt lat="43.7899132" lon="11.3819354"><ele>80.0</ele><time>2026-04-04T07:57:27.271Z</time></trkpt><trkpt lat="43.7900144" lon="11.3820453"><ele>80.0</ele><time>2026-04-04T07:57:28.272Z</time></trkpt><trkpt lat="43.7901074" lon="11.382187"><ele>80.0</ele><time>2026-04-04T07:57:29.273Z</time></trkpt><trkpt lat="43.7901479" lon="11.3823355"><ele>79.33333333333334</ele><time>2026-04-04T07:57:30.276Z</time></trkpt><trkpt lat="43.7901674" lon="11.3825021"><ele>78.66666666666667</ele><time>2026-04-04T07:57:31.271Z</time></trkpt><trkpt lat="43.7901553" lon="11.3827211"><ele>78.0</ele><time>2026-04-04T07:57:32.271Z</time></trkpt><trkpt lat="43.7901271" lon="11.3829525"><ele>77.5</ele><time>2026-04-04T07:57:33.273Z</time></trkpt><trkpt lat="43.7900981" lon="11.3831462"><ele>77.0</ele><time>2026-04-04T07:57:34.273Z</time></trkpt><trkpt lat="43.7900939" lon="11.3833272"><ele>76.5</ele><time>2026-04-04T07:57:35.276Z</time></trkpt><trkpt lat="43.7901074" lon="11.3834982"><ele>76.0</ele><time>2026-04-04T07:57:36.269Z</time></trkpt><trkpt lat="43.7901535" lon="11.3836454"><ele>75.25</ele><time>2026-04-04T07:57:37.275Z</time></trkpt><trkpt lat="43.7902657" lon="11.3837437"><ele>74.5</ele><time>2026-04-04T07:57:38.269Z</time></trkpt><trkpt lat="43.7903886" lon="11.3838159"><ele>73.75</ele><time>2026-04-04T07:57:39.273Z</time></trkpt><trkpt lat="43.7905242" lon="11.383898"><ele>73.0</ele><time>2026-04-04T07:57:40.269Z</time></trkpt><trkpt lat="43.7906773" lon="11.3839593"><ele>73.0</ele><time>2026-04-04T07:57:41.279Z</time></trkpt><trkpt lat="43.7908288" lon="11.3840093"><ele>73.0</ele><time>2026-04-04T07:57:42.269Z</time></trkpt><trkpt lat="43.7909773" lon="11.3840361"><ele>73.0</ele><time>2026-04-04T07:57:43.268Z</time></trkpt><trkpt lat="43.7911146" lon="11.3840479"><ele>73.0</ele><time>2026-04-04T07:57:44.27Z</time></trkpt><trkpt lat="43.7912332" lon="11.3840603"><ele>73.25</ele><time>2026-04-04T07:57:45.276Z</time></trkpt><trkpt lat="43.7913558" lon="11.3840924"><ele>73.5</ele><time>2026-04-04T07:57:46.273Z</time></trkpt><trkpt lat="43.7914712" lon="11.3841185"><ele>73.75</ele><time>2026-04-04T07:57:47.277Z</time></trkpt><trkpt lat="43.7915732" lon="11.3841512"><ele>74.0</ele><time>2026-04-04T07:57:48.275Z</time></trkpt><trkpt lat="43.7916788" lon="11.384181"><ele>74.0</ele><time>2026-04-04T07:57:49.274Z</time></trkpt><trkpt lat="43.7917914" lon="11.3842235"><ele>74.0</ele><time>2026-04-04T07:57:50.27Z</time></trkpt><trkpt lat="43.7919043" lon="11.3842684"><ele>74.0</ele><time>2026-04-04T07:57:51.27Z</time></trkpt><trkpt lat="43.7920086" lon="11.3843565"><ele>74.0</ele><time>2026-04-04T07:57:52.267Z</time></trkpt><trkpt lat="43.7921177" lon="11.3844783"><ele>74.33333333333334</ele><time>2026-04-04T07:57:53.271Z</time></trkpt><trkpt lat="43.792228" lon="11.3846208"><ele>74.66666666666667</ele><time>2026-04-04T07:57:54.271Z</time></trkpt><trkpt lat="43.792316" lon="11.3847977"><ele>75.0</ele><time>2026-04-04T07:57:55.268Z</time></trkpt><trkpt lat="43.7923733" lon="11.3849833"><ele>75.0</ele><time>2026-04-04T07:57:56.268Z</time></trkpt><trkpt lat="43.7924141" lon="11.3851677"><ele>75.0</ele><time>2026-04-04T07:57:57.278Z</time></trkpt><trkpt lat="43.7924524" lon="11.3853503"><ele>75.0</ele><time>2026-04-04T07:57:58.276Z</time></trkpt><trkpt lat="43.7924772" lon="11.3855261"><ele>75.0</ele><time>2026-04-04T07:57:59.274Z</time></trkpt><trkpt lat="43.7925069" lon="11.3856896"><ele>73.75</ele><time>2026-04-04T07:58:00.274Z</time></trkpt><trkpt lat="43.7925287" lon="11.3858683"><ele>72.5</ele><time>2026-04-04T07:58:01.275Z</time></trkpt><trkpt lat="43.7925592" lon="11.3860399"><ele>71.25</ele><time>2026-04-04T07:58:02.275Z</time></trkpt><trkpt lat="43.7925975" lon="11.3862019"><ele>70.0</ele><time>2026-04-04T07:58:03.275Z</time></trkpt><trkpt lat="43.7926314" lon="11.3863682"><ele>69.75</ele><time>2026-04-04T07:58:04.276Z</time></trkpt><trkpt lat="43.7926658" lon="11.3865364"><ele>69.5</ele><time>2026-04-04T07:58:05.276Z</time></trkpt><trkpt lat="43.7927017" lon="11.3866992"><ele>69.25</ele><time>2026-04-04T07:58:06.275Z</time></trkpt><trkpt lat="43.7927399" lon="11.3868562"><ele>69.0</ele><time>2026-04-04T07:58:07.274Z</time></trkpt><trkpt lat="43.7927783" lon="11.3870103"><ele>71.25</ele><time>2026-04-04T07:58:08.275Z</time></trkpt><trkpt lat="43.7928135" lon="11.3871662"><ele>73.5</ele><time>2026-04-04T07:58:09.271Z</time></trkpt><trkpt lat="43.7928485" lon="11.3873244"><ele>75.75</ele><time>2026-04-04T07:58:10.27Z</time></trkpt><trkpt lat="43.7928831" lon="11.387479"><ele>78.0</ele><time>2026-04-04T07:58:11.272Z</time></trkpt><trkpt lat="43.7929197" lon="11.3876416"><ele>78.0</ele><time>2026-04-04T07:58:12.28Z</time></trkpt><trkpt lat="43.7929555" lon="11.3877972"><ele>78.0</ele><time>2026-04-04T07:58:13.271Z</time></trkpt><trkpt lat="43.7929881" lon="11.3879318"><ele>78.0</ele><time>2026-04-04T07:58:14.269Z</time></trkpt><trkpt lat="43.7930161" lon="11.3880542"><ele>78.0</ele><time>2026-04-04T07:58:15.272Z</time></trkpt><trkpt lat="43.7930432" lon="11.3881803"><ele>78.0</ele><time>2026-04-04T07:58:17.267Z</time></trkpt><trkpt lat="43.7930057" lon="11.388272"><ele>77.5</ele><time>2026-04-04T07:58:49.269Z</time></trkpt><trkpt lat="43.7929963" lon="11.3883721"><ele>77.0</ele><time>2026-04-04T07:58:51.275Z</time></trkpt><trkpt lat="43.7929997" lon="11.3884961"><ele>76.5</ele><time>2026-04-04T07:58:53.274Z</time></trkpt><trkpt lat="43.7929909" lon="11.3886012"><ele>76.0</ele><time>2026-04-04T07:58:55.275Z</time></trkpt><trkpt lat="43.7929645" lon="11.3887085"><ele>75.5</ele><time>2026-04-04T07:58:58.279Z</time></trkpt><trkpt lat="43.7929347" lon="11.3888466"><ele>75.0</ele><time>2026-04-04T07:59:01.278Z</time></trkpt><trkpt lat="43.7928851" lon="11.3889909"><ele>74.83333333333333</ele><time>2026-04-04T07:59:03.274Z</time></trkpt><trkpt lat="43.7928302" lon="11.3891509"><ele>74.66666666666667</ele><time>2026-04-04T07:59:05.278Z</time></trkpt><trkpt lat="43.792798" lon="11.3892333"><ele>74.5</ele><time>2026-04-04T07:59:06.273Z</time></trkpt><trkpt lat="43.7927734" lon="11.3893157"><ele>74.33333333333334</ele><time>2026-04-04T07:59:07.277Z</time></trkpt><trkpt lat="43.7927508" lon="11.3893975"><ele>74.16666666666667</ele><time>2026-04-04T07:59:08.279Z</time></trkpt><trkpt lat="43.7927255" lon="11.3894817"><ele>74.0</ele><time>2026-04-04T07:59:09.279Z</time></trkpt><trkpt lat="43.792686" lon="11.3895729"><ele>74.4</ele><time>2026-04-04T07:59:10.277Z</time></trkpt><trkpt lat="43.7926326" lon="11.3896655"><ele>74.80000000000001</ele><time>2026-04-04T07:59:11.278Z</time></trkpt><trkpt lat="43.7925569" lon="11.3897594"><ele>75.19999999999999</ele><time>2026-04-04T07:59:12.276Z</time></trkpt><trkpt lat="43.7924758" lon="11.3898622"><ele>75.6</ele><time>2026-04-04T07:59:13.277Z</time></trkpt><trkpt lat="43.792392" lon="11.3899686"><ele>76.0</ele><time>2026-04-04T07:59:14.284Z</time></trkpt><trkpt lat="43.792315" lon="11.3900872"><ele>76.0</ele><time>2026-04-04T07:59:15.275Z</time></trkpt><trkpt lat="43.7922372" lon="11.3902033"><ele>76.0</ele><time>2026-04-04T07:59:16.275Z</time></trkpt><trkpt lat="43.7921603" lon="11.3903197"><ele>76.0</ele><time>2026-04-04T07:59:17.276Z</time></trkpt><trkpt lat="43.7920832" lon="11.390433"><ele>76.0</ele><time>2026-04-04T07:59:18.278Z</time></trkpt><trkpt lat="43.7920009" lon="11.3905444"><ele>75.75</ele><time>2026-04-04T07:59:19.279Z</time></trkpt><trkpt lat="43.7919076" lon="11.3906552"><ele>75.5</ele><time>2026-04-04T07:59:20.278Z</time></trkpt><trkpt lat="43.7918028" lon="11.3907632"><ele>75.25</ele><time>2026-04-04T07:59:21.279Z</time></trkpt><trkpt lat="43.7916954" lon="11.3908663"><ele>75.0</ele><time>2026-04-04T07:59:22.271Z</time></trkpt><trkpt lat="43.7915967" lon="11.3909647"><ele>75.0</ele><time>2026-04-04T07:59:23.271Z</time></trkpt><trkpt lat="43.7915046" lon="11.391052"><ele>75.0</ele><time>2026-04-04T07:59:24.277Z</time></trkpt><trkpt lat="43.7914206" lon="11.3911414"><ele>75.0</ele><time>2026-04-04T07:59:25.276Z</time></trkpt><trkpt lat="43.7913541" lon="11.3912338"><ele>75.0</ele><time>2026-04-04T07:59:26.276Z</time></trkpt><trkpt lat="43.7912996" lon="11.3913305"><ele>75.0</ele><time>2026-04-04T07:59:27.276Z</time></trkpt><trkpt lat="43.7912555" lon="11.3914246"><ele>75.4</ele><time>2026-04-04T07:59:28.274Z</time></trkpt><trkpt lat="43.7912291" lon="11.3915355"><ele>75.8</ele><time>2026-04-04T07:59:29.272Z</time></trkpt><trkpt lat="43.7912191" lon="11.3916948"><ele>76.2</ele><time>2026-04-04T07:59:30.276Z</time></trkpt><trkpt lat="43.7912293" lon="11.3918579"><ele>76.6</ele><time>2026-04-04T07:59:31.276Z</time></trkpt><trkpt lat="43.7912376" lon="11.3920079"><ele>77.0</ele><time>2026-04-04T07:59:32.274Z</time></trkpt><trkpt lat="43.7912415" lon="11.3921521"><ele>77.4</ele><time>2026-04-04T07:59:33.27Z</time></trkpt><trkpt lat="43.7912414" lon="11.3922865"><ele>77.80000000000001</ele><time>2026-04-04T07:59:34.27Z</time></trkpt><trkpt lat="43.791229" lon="11.3924146"><ele>78.2</ele><time>2026-04-04T07:59:35.273Z</time></trkpt><trkpt lat="43.7912037" lon="11.3925183"><ele>78.60000000000001</ele><time>2026-04-04T07:59:36.275Z</time></trkpt><trkpt lat="43.7911255" lon="11.3926198"><ele>79.0</ele><time>2026-04-04T07:59:38.271Z</time></trkpt><trkpt lat="43.7910351" lon="11.3926855"><ele>78.4</ele><time>2026-04-04T07:59:40.27Z</time></trkpt><trkpt lat="43.7909328" lon="11.3927086"><ele>77.80000000000001</ele><time>2026-04-04T07:59:42.275Z</time></trkpt><trkpt lat="43.7908077" lon="11.3927225"><ele>77.19999999999999</ele><time>2026-04-04T07:59:44.269Z</time></trkpt><trkpt lat="43.7907104" lon="11.3927386"><ele>76.6</ele><time>2026-04-04T07:59:46.271Z</time></trkpt><trkpt lat="43.790643" lon="11.3927511"><ele>76.0</ele><time>2026-04-04T07:59:50.268Z</time></trkpt><trkpt lat="43.7905498" lon="11.3927502"><ele>76.0</ele><time>2026-04-04T07:59:54.296Z</time></trkpt><trkpt lat="43.7904604" lon="11.3927733"><ele>76.0</ele><time>2026-04-04T07:59:56.277Z</time></trkpt><trkpt lat="43.7903914" lon="11.3928074"><ele>76.0</ele><time>2026-04-04T07:59:57.29Z</time></trkpt><trkpt lat="43.7903194" lon="11.3928416"><ele>76.0</ele><time>2026-04-04T07:59:58.268Z</time></trkpt><trkpt lat="43.7902546" lon="11.3928849"><ele>76.0</ele><time>2026-04-04T07:59:59.281Z</time></trkpt><trkpt lat="43.7901839" lon="11.3929404"><ele>76.0</ele><time>2026-04-04T08:00:00.284Z</time></trkpt><trkpt lat="43.7901073" lon="11.3930119"><ele>76.6</ele><time>2026-04-04T08:00:01.279Z</time></trkpt><trkpt lat="43.7900258" lon="11.3931034"><ele>77.19999999999999</ele><time>2026-04-04T08:00:02.276Z</time></trkpt><trkpt lat="43.7899458" lon="11.3931967"><ele>77.80000000000001</ele><time>2026-04-04T08:00:03.283Z</time></trkpt><trkpt lat="43.7898702" lon="11.3932926"><ele>78.4</ele><time>2026-04-04T08:00:04.282Z</time></trkpt><trkpt lat="43.7897969" lon="11.3933869"><ele>79.0</ele><time>2026-04-04T08:00:05.29Z</time></trkpt><trkpt lat="43.7897247" lon="11.3934752"><ele>79.0</ele><time>2026-04-04T08:00:06.292Z</time></trkpt><trkpt lat="43.7896583" lon="11.3935482"><ele>79.0</ele><time>2026-04-04T08:00:07.287Z</time></trkpt><trkpt lat="43.7895782" lon="11.3936277"><ele>79.0</ele><time>2026-04-04T08:00:08.301Z</time></trkpt><trkpt lat="43.7894883" lon="11.3937064"><ele>79.0</ele><time>2026-04-04T08:00:09.296Z</time></trkpt><trkpt lat="43.7893877" lon="11.3937858"><ele>79.0</ele><time>2026-04-04T08:00:10.282Z</time></trkpt><trkpt lat="43.7892867" lon="11.3938561"><ele>78.8</ele><time>2026-04-04T08:00:11.285Z</time></trkpt><trkpt lat="43.789189" lon="11.3939214"><ele>78.60000000000001</ele><time>2026-04-04T08:00:12.286Z</time></trkpt><trkpt lat="43.7890974" lon="11.3939841"><ele>78.4</ele><time>2026-04-04T08:00:13.277Z</time></trkpt><trkpt lat="43.7890081" lon="11.3940405"><ele>78.2</ele><time>2026-04-04T08:00:14.288Z</time></trkpt><trkpt lat="43.7889323" lon="11.3940929"><ele>78.0</ele><time>2026-04-04T08:00:15.277Z</time></trkpt><trkpt lat="43.7888696" lon="11.3941338"><ele>78.0</ele><time>2026-04-04T08:00:16.29Z</time></trkpt><trkpt lat="43.7888089" lon="11.3941761"><ele>78.0</ele><time>2026-04-04T08:00:18.272Z</time></trkpt><trkpt lat="43.7887429" lon="11.3942178"><ele>78.0</ele><time>2026-04-04T08:00:21.283Z</time></trkpt><trkpt lat="43.7886713" lon="11.3942623"><ele>78.0</ele><time>2026-04-04T08:00:23.275Z</time></trkpt><trkpt lat="43.7885939" lon="11.3943101"><ele>78.0</ele><time>2026-04-04T08:00:25.271Z</time></trkpt><trkpt lat="43.7885217" lon="11.3943685"><ele>78.0</ele><time>2026-04-04T08:00:34.267Z</time></trkpt><trkpt lat="43.7884297" lon="11.3944422"><ele>78.0</ele><time>2026-04-04T08:00:36.274Z</time></trkpt><trkpt lat="43.7883686" lon="11.3944882"><ele>78.0</ele><time>2026-04-04T08:00:37.274Z</time></trkpt><trkpt lat="43.7882974" lon="11.3945384"><ele>78.0</ele><time>2026-04-04T08:00:38.277Z</time></trkpt><trkpt lat="43.7882266" lon="11.3945988"><ele>78.0</ele><time>2026-04-04T08:00:39.275Z</time></trkpt><trkpt lat="43.7881464" lon="11.3946622"><ele>78.0</ele><time>2026-04-04T08:00:40.268Z</time></trkpt><trkpt lat="43.7880663" lon="11.3947261"><ele>78.0</ele><time>2026-04-04T08:00:41.269Z</time></trkpt><trkpt lat="43.7879857" lon="11.3947895"><ele>78.0</ele><time>2026-04-04T08:00:42.27Z</time></trkpt><trkpt lat="43.7879055" lon="11.3948505"><ele>78.0</ele><time>2026-04-04T08:00:43.266Z</time></trkpt><trkpt lat="43.7878225" lon="11.3949189"><ele>78.0</ele><time>2026-04-04T08:00:44.273Z</time></trkpt><trkpt lat="43.787735" lon="11.3949933"><ele>78.0</ele><time>2026-04-04T08:00:45.281Z</time></trkpt><trkpt lat="43.7876484" lon="11.3950626"><ele>78.0</ele><time>2026-04-04T08:00:46.272Z</time></trkpt><trkpt lat="43.7875642" lon="11.3951387"><ele>78.0</ele><time>2026-04-04T08:00:47.294Z</time></trkpt><trkpt lat="43.7874846" lon="11.3952325"><ele>78.0</ele><time>2026-04-04T08:00:48.273Z</time></trkpt><trkpt lat="43.7874082" lon="11.3953609"><ele>78.0</ele><time>2026-04-04T08:00:49.271Z</time></trkpt><trkpt lat="43.7873377" lon="11.3955056"><ele>78.0</ele><time>2026-04-04T08:00:50.272Z</time></trkpt><trkpt lat="43.7872764" lon="11.3956745"><ele>78.0</ele><time>2026-04-04T08:00:51.273Z</time></trkpt><trkpt lat="43.7872144" lon="11.3958421"><ele>78.0</ele><time>2026-04-04T08:00:52.274Z</time></trkpt><trkpt lat="43.7871484" lon="11.3960069"><ele>78.0</ele><time>2026-04-04T08:00:53.276Z</time></trkpt><trkpt lat="43.7870881" lon="11.3961701"><ele>78.0</ele><time>2026-04-04T08:00:54.273Z</time></trkpt><trkpt lat="43.7870324" lon="11.3963221"><ele>78.0</ele><time>2026-04-04T08:00:55.274Z</time></trkpt><trkpt lat="43.7869771" lon="11.3964658"><ele>78.0</ele><time>2026-04-04T08:00:56.272Z</time></trkpt><trkpt lat="43.786927" lon="11.3966027"><ele>78.0</ele><time>2026-04-04T08:00:57.274Z</time></trkpt><trkpt lat="43.7868774" lon="11.396743"><ele>78.0</ele><time>2026-04-04T08:00:58.274Z</time></trkpt><trkpt lat="43.7868195" lon="11.3968807"><ele>78.0</ele><time>2026-04-04T08:00:59.272Z</time></trkpt><trkpt lat="43.7867628" lon="11.3970162"><ele>78.0</ele><time>2026-04-04T08:01:00.273Z</time></trkpt><trkpt lat="43.7867134" lon="11.3971449"><ele>78.0</ele><time>2026-04-04T08:01:01.273Z</time></trkpt><trkpt lat="43.7866684" lon="11.3972597"><ele>78.0</ele><time>2026-04-04T08:01:02.273Z</time></trkpt><trkpt lat="43.7866207" lon="11.3973648"><ele>78.0</ele><time>2026-04-04T08:01:03.273Z</time></trkpt><trkpt lat="43.7865778" lon="11.3974608"><ele>77.83333333333333</ele><time>2026-04-04T08:01:04.273Z</time></trkpt><trkpt lat="43.7865368" lon="11.3975421"><ele>77.66666666666667</ele><time>2026-04-04T08:01:05.273Z</time></trkpt><trkpt lat="43.7864973" lon="11.3976198"><ele>77.5</ele><time>2026-04-04T08:01:06.274Z</time></trkpt><trkpt lat="43.7864538" lon="11.397686"><ele>77.33333333333334</ele><time>2026-04-04T08:01:07.269Z</time></trkpt><trkpt lat="43.7863731" lon="11.3977541"><ele>77.16666666666667</ele><time>2026-04-04T08:01:09.267Z</time></trkpt><trkpt lat="43.7862814" lon="11.3977895"><ele>77.0</ele><time>2026-04-04T08:01:11.277Z</time></trkpt><trkpt lat="43.7861909" lon="11.3978692"><ele>77.4</ele><time>2026-04-04T08:01:13.277Z</time></trkpt><trkpt lat="43.7861653" lon="11.3980483"><ele>77.80000000000001</ele><time>2026-04-04T08:01:15.276Z</time></trkpt><trkpt lat="43.7861761" lon="11.3981637"><ele>78.2</ele><time>2026-04-04T08:01:16.281Z</time></trkpt><trkpt lat="43.7861792" lon="11.3982763"><ele>78.60000000000001</ele><time>2026-04-04T08:01:17.292Z</time></trkpt><trkpt lat="43.7861799" lon="11.3983831"><ele>79.0</ele><time>2026-04-04T08:01:18.28Z</time></trkpt><trkpt lat="43.786171" lon="11.3985028"><ele>79.0</ele><time>2026-04-04T08:01:19.275Z</time></trkpt><trkpt lat="43.7861346" lon="11.3986409"><ele>79.0</ele><time>2026-04-04T08:01:20.273Z</time></trkpt><trkpt lat="43.7860836" lon="11.398823"><ele>79.0</ele><time>2026-04-04T08:01:21.273Z</time></trkpt><trkpt lat="43.7860063" lon="11.3990247"><ele>79.0</ele><time>2026-04-04T08:01:22.278Z</time></trkpt><trkpt lat="43.7859031" lon="11.3992598"><ele>79.0</ele><time>2026-04-04T08:01:23.277Z</time></trkpt><trkpt lat="43.7858135" lon="11.3994535"><ele>79.0</ele><time>2026-04-04T08:01:24.278Z</time></trkpt><trkpt lat="43.7857395" lon="11.3995985"><ele>79.0</ele><time>2026-04-04T08:01:25.274Z</time></trkpt><trkpt lat="43.7856831" lon="11.3997181"><ele>79.0</ele><time>2026-04-04T08:01:26.275Z</time></trkpt><trkpt lat="43.7856217" lon="11.3998482"><ele>79.75</ele><time>2026-04-04T08:01:27.277Z</time></trkpt><trkpt lat="43.7855471" lon="11.3999787"><ele>80.5</ele><time>2026-04-04T08:01:28.274Z</time></trkpt><trkpt lat="43.7854821" lon="11.4001175"><ele>81.25</ele><time>2026-04-04T08:01:29.278Z</time></trkpt><trkpt lat="43.7854111" lon="11.4002587"><ele>82.0</ele><time>2026-04-04T08:01:30.277Z</time></trkpt><trkpt lat="43.7853453" lon="11.4003956"><ele>82.25</ele><time>2026-04-04T08:01:31.281Z</time></trkpt><trkpt lat="43.7852778" lon="11.4005258"><ele>82.5</ele><time>2026-04-04T08:01:32.279Z</time></trkpt><trkpt lat="43.7852116" lon="11.4006672"><ele>82.75</ele><time>2026-04-04T08:01:33.278Z</time></trkpt><trkpt lat="43.7851436" lon="11.4008139"><ele>83.0</ele><time>2026-04-04T08:01:34.274Z</time></trkpt><trkpt lat="43.7850792" lon="11.4009537"><ele>83.0</ele><time>2026-04-04T08:01:35.281Z</time></trkpt><trkpt lat="43.7850294" lon="11.40107"><ele>83.0</ele><time>2026-04-04T08:01:36.281Z</time></trkpt><trkpt lat="43.7849867" lon="11.4011595"><ele>83.0</ele><time>2026-04-04T08:01:37.282Z</time></trkpt><trkpt lat="43.7849409" lon="11.401248"><ele>83.0</ele><time>2026-04-04T08:01:38.273Z</time></trkpt><trkpt lat="43.7848975" lon="11.4013392"><ele>83.0</ele><time>2026-04-04T08:01:39.272Z</time></trkpt><trkpt lat="43.7848509" lon="11.4014409"><ele>83.0</ele><time>2026-04-04T08:01:40.281Z</time></trkpt><trkpt lat="43.7848068" lon="11.4015409"><ele>83.0</ele><time>2026-04-04T08:01:41.28Z</time></trkpt><trkpt lat="43.7847659" lon="11.401643"><ele>83.0</ele><time>2026-04-04T08:01:42.278Z</time></trkpt><trkpt lat="43.7847212" lon="11.4017437"><ele>83.0</ele><time>2026-04-04T08:01:43.281Z</time></trkpt><trkpt lat="43.7846768" lon="11.4018538"><ele>83.0</ele><time>2026-04-04T08:01:44.277Z</time></trkpt><trkpt lat="43.7846276" lon="11.4019661"><ele>83.0</ele><time>2026-04-04T08:01:45.279Z</time></trkpt><trkpt lat="43.7845781" lon="11.4020792"><ele>83.0</ele><time>2026-04-04T08:01:46.283Z</time></trkpt><trkpt lat="43.7845244" lon="11.4021968"><ele>83.0</ele><time>2026-04-04T08:01:47.284Z</time></trkpt><trkpt lat="43.7844661" lon="11.402325"><ele>83.0</ele><time>2026-04-04T08:01:48.282Z</time></trkpt><trkpt lat="43.7844049" lon="11.4024688"><ele>83.0</ele><time>2026-04-04T08:01:49.28Z</time></trkpt><trkpt lat="43.7843327" lon="11.4026207"><ele>82.66666666666667</ele><time>2026-04-04T08:01:50.278Z</time></trkpt><trkpt lat="43.7842586" lon="11.4027862"><ele>82.33333333333333</ele><time>2026-04-04T08:01:51.282Z</time></trkpt><trkpt lat="43.7841673" lon="11.4029663"><ele>82.0</ele><time>2026-04-04T08:01:52.277Z</time></trkpt><trkpt lat="43.7840736" lon="11.4031542"><ele>82.5</ele><time>2026-04-04T08:01:53.273Z</time></trkpt><trkpt lat="43.7839748" lon="11.4032985"><ele>83.0</ele><time>2026-04-04T08:01:54.278Z</time></trkpt><trkpt lat="43.7838755" lon="11.4034458"><ele>83.5</ele><time>2026-04-04T08:01:55.28Z</time></trkpt><trkpt lat="43.7837837" lon="11.4035916"><ele>84.0</ele><time>2026-04-04T08:01:56.281Z</time></trkpt><trkpt lat="43.7836915" lon="11.4037454"><ele>84.0</ele><time>2026-04-04T08:01:57.28Z</time></trkpt><trkpt lat="43.7836014" lon="11.4039055"><ele>84.0</ele><time>2026-04-04T08:01:58.283Z</time></trkpt><trkpt lat="43.7835099" lon="11.4040611"><ele>84.0</ele><time>2026-04-04T08:01:59.278Z</time></trkpt><trkpt lat="43.7834121" lon="11.4042548"><ele>83.5</ele><time>2026-04-04T08:02:00.28Z</time></trkpt><trkpt lat="43.7833077" lon="11.4044984"><ele>83.0</ele><time>2026-04-04T08:02:01.274Z</time></trkpt><trkpt lat="43.7831842" lon="11.4047931"><ele>84.0</ele><time>2026-04-04T08:02:02.274Z</time></trkpt><trkpt lat="43.7830649" lon="11.4050995"><ele>85.0</ele><time>2026-04-04T08:02:03.269Z</time></trkpt><trkpt lat="43.7829409" lon="11.4053776"><ele>84.66666666666666</ele><time>2026-04-04T08:02:04.276Z</time></trkpt><trkpt lat="43.7828029" lon="11.4056315"><ele>84.33333333333333</ele><time>2026-04-04T08:02:05.275Z</time></trkpt><trkpt lat="43.7826715" lon="11.4058532"><ele>84.0</ele><time>2026-04-04T08:02:06.272Z</time></trkpt><trkpt lat="43.7825526" lon="11.4060485"><ele>83.66666666666667</ele><time>2026-04-04T08:02:07.276Z</time></trkpt><trkpt lat="43.7824416" lon="11.4062438"><ele>83.33333333333334</ele><time>2026-04-04T08:02:08.28Z</time></trkpt><trkpt lat="43.7823159" lon="11.4064248"><ele>83.0</ele><time>2026-04-04T08:02:09.273Z</time></trkpt><trkpt lat="43.7821647" lon="11.4065696"><ele>83.0</ele><time>2026-04-04T08:02:10.273Z</time></trkpt><trkpt lat="43.7819946" lon="11.406675"><ele>83.0</ele><time>2026-04-04T08:02:11.276Z</time></trkpt><trkpt lat="43.7818088" lon="11.4067823"><ele>83.0</ele><time>2026-04-04T08:02:12.276Z</time></trkpt><trkpt lat="43.7816111" lon="11.4068944"><ele>83.0</ele><time>2026-04-04T08:02:13.276Z</time></trkpt><trkpt lat="43.781419" lon="11.4070257"><ele>83.0</ele><time>2026-04-04T08:02:14.274Z</time></trkpt><trkpt lat="43.7812208" lon="11.4071735"><ele>83.0</ele><time>2026-04-04T08:02:15.275Z</time></trkpt><trkpt lat="43.7810311" lon="11.4073399"><ele>83.0</ele><time>2026-04-04T08:02:16.27Z</time></trkpt><trkpt lat="43.7808737" lon="11.4074901"><ele>83.0</ele><time>2026-04-04T08:02:17.277Z</time></trkpt><trkpt lat="43.7807608" lon="11.4075997"><ele>83.0</ele><time>2026-04-04T08:02:18.277Z</time></trkpt><trkpt lat="43.7806836" lon="11.4076537"><ele>83.0</ele><time>2026-04-04T08:02:19.284Z</time></trkpt><trkpt lat="43.780613" lon="11.4077345"><ele>83.0</ele><time>2026-04-04T08:02:20.272Z</time></trkpt><trkpt lat="43.7805269" lon="11.4078157"><ele>83.0</ele><time>2026-04-04T08:02:21.28Z</time></trkpt><trkpt lat="43.7804399" lon="11.4078967"><ele>83.0</ele><time>2026-04-04T08:02:22.277Z</time></trkpt><trkpt lat="43.780347" lon="11.4079757"><ele>83.0</ele><time>2026-04-04T08:02:23.273Z</time></trkpt><trkpt lat="43.7802514" lon="11.4080595"><ele>83.0</ele><time>2026-04-04T08:02:24.272Z</time></trkpt><trkpt lat="43.7801617" lon="11.408147"><ele>82.25</ele><time>2026-04-04T08:02:25.276Z</time></trkpt><trkpt lat="43.7800702" lon="11.4082362"><ele>81.5</ele><time>2026-04-04T08:02:26.274Z</time></trkpt><trkpt lat="43.7799748" lon="11.4083218"><ele>80.75</ele><time>2026-04-04T08:02:27.277Z</time></trkpt><trkpt lat="43.7798805" lon="11.4084123"><ele>80.0</ele><time>2026-04-04T08:02:28.276Z</time></trkpt><trkpt lat="43.7797854" lon="11.4085056"><ele>80.0</ele><time>2026-04-04T08:02:29.275Z</time></trkpt><trkpt lat="43.7796969" lon="11.4086049"><ele>80.0</ele><time>2026-04-04T08:02:30.272Z</time></trkpt><trkpt lat="43.7796112" lon="11.4087201"><ele>80.0</ele><time>2026-04-04T08:02:31.272Z</time></trkpt><trkpt lat="43.7795397" lon="11.4088508"><ele>80.0</ele><time>2026-04-04T08:02:32.275Z</time></trkpt><trkpt lat="43.7794819" lon="11.4090048"><ele>79.5</ele><time>2026-04-04T08:02:33.273Z</time></trkpt><trkpt lat="43.7794391" lon="11.4091678"><ele>79.0</ele><time>2026-04-04T08:02:34.278Z</time></trkpt><trkpt lat="43.7793947" lon="11.4093315"><ele>78.5</ele><time>2026-04-04T08:02:35.277Z</time></trkpt><trkpt lat="43.779355" lon="11.4094945"><ele>78.0</ele><time>2026-04-04T08:02:36.277Z</time></trkpt><trkpt lat="43.7793142" lon="11.4096578"><ele>78.0</ele><time>2026-04-04T08:02:37.274Z</time></trkpt><trkpt lat="43.779265" lon="11.4098193"><ele>78.0</ele><time>2026-04-04T08:02:38.277Z</time></trkpt><trkpt lat="43.7792168" lon="11.4099752"><ele>78.0</ele><time>2026-04-04T08:02:39.281Z</time></trkpt><trkpt lat="43.7791642" lon="11.4101335"><ele>78.0</ele><time>2026-04-04T08:02:40.282Z</time></trkpt><trkpt lat="43.7791023" lon="11.4102828"><ele>78.0</ele><time>2026-04-04T08:02:41.28Z</time></trkpt><trkpt lat="43.7790309" lon="11.410422"><ele>78.0</ele><time>2026-04-04T08:02:42.277Z</time></trkpt><trkpt lat="43.7789527" lon="11.4105485"><ele>78.0</ele><time>2026-04-04T08:02:43.274Z</time></trkpt><trkpt lat="43.7788679" lon="11.4106729"><ele>78.0</ele><time>2026-04-04T08:02:44.272Z</time></trkpt><trkpt lat="43.7787768" lon="11.4107969"><ele>78.0</ele><time>2026-04-04T08:02:45.281Z</time></trkpt><trkpt lat="43.7786803" lon="11.4109242"><ele>78.0</ele><time>2026-04-04T08:02:46.275Z</time></trkpt><trkpt lat="43.7785837" lon="11.4110619"><ele>78.0</ele><time>2026-04-04T08:02:47.282Z</time></trkpt><trkpt lat="43.7784869" lon="11.4112063"><ele>78.0</ele><time>2026-04-04T08:02:48.277Z</time></trkpt><trkpt lat="43.778396" lon="11.4113625"><ele>79.0</ele><time>2026-04-04T08:02:49.275Z</time></trkpt><trkpt lat="43.7783103" lon="11.411513"><ele>80.0</ele><time>2026-04-04T08:02:50.282Z</time></trkpt><trkpt lat="43.7782245" lon="11.4116685"><ele>81.0</ele><time>2026-04-04T08:02:51.275Z</time></trkpt><trkpt lat="43.7781358" lon="11.4118251"><ele>82.0</ele><time>2026-04-04T08:02:52.272Z</time></trkpt><trkpt lat="43.7780488" lon="11.4119859"><ele>82.0</ele><time>2026-04-04T08:02:53.276Z</time></trkpt><trkpt lat="43.7779598" lon="11.4121411"><ele>82.0</ele><time>2026-04-04T08:02:54.27Z</time></trkpt><trkpt lat="43.7778707" lon="11.4122982"><ele>82.0</ele><time>2026-04-04T08:02:55.271Z</time></trkpt><trkpt lat="43.7777776" lon="11.4124545"><ele>82.0</ele><time>2026-04-04T08:02:56.277Z</time></trkpt><trkpt lat="43.7776926" lon="11.412619"><ele>81.25</ele><time>2026-04-04T08:02:57.28Z</time></trkpt><trkpt lat="43.7776051" lon="11.4127763"><ele>80.5</ele><time>2026-04-04T08:02:58.269Z</time></trkpt><trkpt lat="43.7775245" lon="11.4129355"><ele>79.75</ele><time>2026-04-04T08:02:59.277Z</time></trkpt><trkpt lat="43.7774409" lon="11.4131024"><ele>79.0</ele><time>2026-04-04T08:03:00.272Z</time></trkpt><trkpt lat="43.7773568" lon="11.4132755"><ele>81.25</ele><time>2026-04-04T08:03:01.279Z</time></trkpt><trkpt lat="43.7772863" lon="11.4134506"><ele>83.5</ele><time>2026-04-04T08:03:02.275Z</time></trkpt><trkpt lat="43.7772119" lon="11.413622"><ele>85.75</ele><time>2026-04-04T08:03:03.273Z</time></trkpt><trkpt lat="43.7771344" lon="11.4137968"><ele>88.0</ele><time>2026-04-04T08:03:04.273Z</time></trkpt><trkpt lat="43.7770627" lon="11.4139795"><ele>86.0</ele><time>2026-04-04T08:03:05.277Z</time></trkpt><trkpt lat="43.7770001" lon="11.4141317"><ele>84.0</ele><time>2026-04-04T08:03:06.274Z</time></trkpt><trkpt lat="43.7769393" lon="11.4142691"><ele>82.0</ele><time>2026-04-04T08:03:07.269Z</time></trkpt><trkpt lat="43.7768892" lon="11.4144279"><ele>80.0</ele><time>2026-04-04T08:03:08.276Z</time></trkpt><trkpt lat="43.7768263" lon="11.4145804"><ele>80.75</ele><time>2026-04-04T08:03:09.274Z</time></trkpt><trkpt lat="43.7767707" lon="11.4147283"><ele>81.5</ele><time>2026-04-04T08:03:10.284Z</time></trkpt><trkpt lat="43.7767123" lon="11.4148852"><ele>82.25</ele><time>2026-04-04T08:03:11.28Z</time></trkpt><trkpt lat="43.7766528" lon="11.4150449"><ele>83.0</ele><time>2026-04-04T08:03:12.279Z</time></trkpt><trkpt lat="43.776588" lon="11.4151965"><ele>83.0</ele><time>2026-04-04T08:03:13.281Z</time></trkpt><trkpt lat="43.7765171" lon="11.4153421"><ele>83.0</ele><time>2026-04-04T08:03:14.285Z</time></trkpt><trkpt lat="43.7764356" lon="11.4154883"><ele>83.0</ele><time>2026-04-04T08:03:15.284Z</time></trkpt><trkpt lat="43.7763462" lon="11.415622"><ele>83.0</ele><time>2026-04-04T08:03:16.279Z</time></trkpt><trkpt lat="43.7762441" lon="11.4157543"><ele>83.25</ele><time>2026-04-04T08:03:17.283Z</time></trkpt><trkpt lat="43.7761348" lon="11.4158703"><ele>83.5</ele><time>2026-04-04T08:03:18.279Z</time></trkpt><trkpt lat="43.7760178" lon="11.415969"><ele>83.75</ele><time>2026-04-04T08:03:19.275Z</time></trkpt><trkpt lat="43.7758935" lon="11.416055"><ele>84.0</ele><time>2026-04-04T08:03:20.279Z</time></trkpt><trkpt lat="43.7757621" lon="11.4161277"><ele>83.25</ele><time>2026-04-04T08:03:21.295Z</time></trkpt><trkpt lat="43.7756221" lon="11.4161984"><ele>82.5</ele><time>2026-04-04T08:03:22.283Z</time></trkpt><trkpt lat="43.7754821" lon="11.4162749"><ele>81.75</ele><time>2026-04-04T08:03:23.279Z</time></trkpt><trkpt lat="43.7753562" lon="11.4163251"><ele>81.0</ele><time>2026-04-04T08:03:24.285Z</time></trkpt><trkpt lat="43.7752565" lon="11.4163711"><ele>81.16666666666667</ele><time>2026-04-04T08:03:25.282Z</time></trkpt><trkpt lat="43.7751723" lon="11.4164097"><ele>81.33333333333333</ele><time>2026-04-04T08:03:26.284Z</time></trkpt><trkpt lat="43.7750847" lon="11.4164302"><ele>81.5</ele><time>2026-04-04T08:03:27.287Z</time></trkpt><trkpt lat="43.7750006" lon="11.4164382"><ele>81.66666666666666</ele><time>2026-04-04T08:03:28.29Z</time></trkpt><trkpt lat="43.7749211" lon="11.4164225"><ele>81.83333333333333</ele><time>2026-04-04T08:03:29.285Z</time></trkpt><trkpt lat="43.7748489" lon="11.4164018"><ele>82.0</ele><time>2026-04-04T08:03:30.281Z</time></trkpt><trkpt lat="43.7747728" lon="11.4163733"><ele>82.0</ele><time>2026-04-04T08:03:31.278Z</time></trkpt><trkpt lat="43.7746927" lon="11.4163335"><ele>82.0</ele><time>2026-04-04T08:03:32.287Z</time></trkpt><trkpt lat="43.7746064" lon="11.4162822"><ele>82.0</ele><time>2026-04-04T08:03:33.278Z</time></trkpt><trkpt lat="43.7745169" lon="11.416236"><ele>82.0</ele><time>2026-04-04T08:03:34.275Z</time></trkpt><trkpt lat="43.7744173" lon="11.4162067"><ele>82.0</ele><time>2026-04-04T08:03:35.285Z</time></trkpt><trkpt lat="43.7743067" lon="11.4162074"><ele>81.8</ele><time>2026-04-04T08:03:36.272Z</time></trkpt><trkpt lat="43.7742017" lon="11.4162461"><ele>81.6</ele><time>2026-04-04T08:03:37.272Z</time></trkpt><trkpt lat="43.7741189" lon="11.4163411"><ele>81.39999999999999</ele><time>2026-04-04T08:03:38.283Z</time></trkpt><trkpt lat="43.7740648" lon="11.4164671"><ele>81.19999999999999</ele><time>2026-04-04T08:03:39.286Z</time></trkpt><trkpt lat="43.7740082" lon="11.416593"><ele>81.0</ele><time>2026-04-04T08:03:40.29Z</time></trkpt><trkpt lat="43.7739402" lon="11.4167174"><ele>81.0</ele><time>2026-04-04T08:03:41.287Z</time></trkpt><trkpt lat="43.773875" lon="11.416861"><ele>81.0</ele><time>2026-04-04T08:03:42.287Z</time></trkpt><trkpt lat="43.7738085" lon="11.4170237"><ele>81.0</ele><time>2026-04-04T08:03:43.28Z</time></trkpt><trkpt lat="43.7737388" lon="11.4171958"><ele>81.0</ele><time>2026-04-04T08:03:44.274Z</time></trkpt><trkpt lat="43.773667" lon="11.4173793"><ele>81.0</ele><time>2026-04-04T08:03:45.279Z</time></trkpt><trkpt lat="43.7735883" lon="11.4176023"><ele>81.0</ele><time>2026-04-04T08:03:46.282Z</time></trkpt><trkpt lat="43.7735055" lon="11.4178449"><ele>81.0</ele><time>2026-04-04T08:03:47.284Z</time></trkpt><trkpt lat="43.773439" lon="11.4181084"><ele>81.0</ele><time>2026-04-04T08:03:48.282Z</time></trkpt><trkpt lat="43.7733773" lon="11.4183694"><ele>81.0</ele><time>2026-04-04T08:03:49.285Z</time></trkpt><trkpt lat="43.7733233" lon="11.4186221"><ele>81.0</ele><time>2026-04-04T08:03:50.281Z</time></trkpt><trkpt lat="43.7732826" lon="11.4188363"><ele>81.0</ele><time>2026-04-04T08:03:51.283Z</time></trkpt><trkpt lat="43.7732377" lon="11.4190356"><ele>81.0</ele><time>2026-04-04T08:03:52.292Z</time></trkpt><trkpt lat="43.7731946" lon="11.4192275"><ele>81.0</ele><time>2026-04-04T08:03:53.285Z</time></trkpt><trkpt lat="43.7731376" lon="11.4194184"><ele>81.0</ele><time>2026-04-04T08:03:54.284Z</time></trkpt><trkpt lat="43.7730913" lon="11.4196386"><ele>81.0</ele><time>2026-04-04T08:03:55.282Z</time></trkpt><trkpt lat="43.7730333" lon="11.419882"><ele>81.0</ele><time>2026-04-04T08:03:56.281Z</time></trkpt><trkpt lat="43.7729763" lon="11.4201283"><ele>81.0</ele><time>2026-04-04T08:03:57.287Z</time></trkpt><trkpt lat="43.7729126" lon="11.420383"><ele>81.0</ele><time>2026-04-04T08:03:58.286Z</time></trkpt><trkpt lat="43.7728473" lon="11.4206314"><ele>81.0</ele><time>2026-04-04T08:03:59.286Z</time></trkpt><trkpt lat="43.7727853" lon="11.4208553"><ele>81.0</ele><time>2026-04-04T08:04:00.284Z</time></trkpt><trkpt lat="43.7727287" lon="11.4210759"><ele>80.66666666666667</ele><time>2026-04-04T08:04:01.283Z</time></trkpt><trkpt lat="43.7726788" lon="11.4212983"><ele>80.33333333333334</ele><time>2026-04-04T08:04:02.288Z</time></trkpt><trkpt lat="43.7726305" lon="11.4215196"><ele>80.0</ele><time>2026-04-04T08:04:03.291Z</time></trkpt><trkpt lat="43.7725782" lon="11.4217573"><ele>80.0</ele><time>2026-04-04T08:04:04.299Z</time></trkpt><trkpt lat="43.7725126" lon="11.4220438"><ele>80.0</ele><time>2026-04-04T08:04:05.297Z</time></trkpt><trkpt lat="43.772455" lon="11.4223567"><ele>80.33333333333334</ele><time>2026-04-04T08:04:06.312Z</time></trkpt><trkpt lat="43.7723937" lon="11.4226571"><ele>80.66666666666667</ele><time>2026-04-04T08:04:07.3Z</time></trkpt><trkpt lat="43.7723162" lon="11.4229475"><ele>81.0</ele><time>2026-04-04T08:04:08.304Z</time></trkpt><trkpt lat="43.7722472" lon="11.4232262"><ele>81.33333333333333</ele><time>2026-04-04T08:04:09.305Z</time></trkpt><trkpt lat="43.7721814" lon="11.4234821"><ele>81.66666666666666</ele><time>2026-04-04T08:04:10.3Z</time></trkpt><trkpt lat="43.7721196" lon="11.4237143"><ele>82.0</ele><time>2026-04-04T08:04:11.299Z</time></trkpt><trkpt lat="43.7720651" lon="11.4239419"><ele>82.0</ele><time>2026-04-04T08:04:12.306Z</time></trkpt><trkpt lat="43.7720074" lon="11.4241669"><ele>82.0</ele><time>2026-04-04T08:04:13.3Z</time></trkpt><trkpt lat="43.7719596" lon="11.4243827"><ele>82.0</ele><time>2026-04-04T08:04:14.294Z</time></trkpt><trkpt lat="43.7719098" lon="11.424597"><ele>81.66666666666666</ele><time>2026-04-04T08:04:15.299Z</time></trkpt><trkpt lat="43.7718507" lon="11.4248093"><ele>81.33333333333333</ele><time>2026-04-04T08:04:16.295Z</time></trkpt><trkpt lat="43.7717978" lon="11.4250326"><ele>81.0</ele><time>2026-04-04T08:04:17.291Z</time></trkpt><trkpt lat="43.7717519" lon="11.4252496"><ele>81.0</ele><time>2026-04-04T08:04:18.295Z</time></trkpt><trkpt lat="43.7717041" lon="11.4254719"><ele>81.0</ele><time>2026-04-04T08:04:19.29Z</time></trkpt><trkpt lat="43.7716523" lon="11.425693"><ele>81.0</ele><time>2026-04-04T08:04:20.287Z</time></trkpt><trkpt lat="43.7715995" lon="11.4259226"><ele>81.0</ele><time>2026-04-04T08:04:21.289Z</time></trkpt><trkpt lat="43.7715482" lon="11.4261532"><ele>81.0</ele><time>2026-04-04T08:04:22.289Z</time></trkpt><trkpt lat="43.7714958" lon="11.4263711"><ele>81.0</ele><time>2026-04-04T08:04:23.325Z</time></trkpt><trkpt lat="43.7714403" lon="11.4265918"><ele>81.0</ele><time>2026-04-04T08:04:24.292Z</time></trkpt><trkpt lat="43.7713901" lon="11.426789"><ele>81.0</ele><time>2026-04-04T08:04:25.296Z</time></trkpt><trkpt lat="43.7713411" lon="11.4269879"><ele>81.0</ele><time>2026-04-04T08:04:26.288Z</time></trkpt><trkpt lat="43.771295" lon="11.4271894"><ele>81.33333333333333</ele><time>2026-04-04T08:04:27.29Z</time></trkpt><trkpt lat="43.7712422" lon="11.4274021"><ele>81.66666666666666</ele><time>2026-04-04T08:04:28.294Z</time></trkpt><trkpt lat="43.7711888" lon="11.4276294"><ele>82.0</ele><time>2026-04-04T08:04:29.29Z</time></trkpt><trkpt lat="43.7711359" lon="11.4278539"><ele>82.33333333333333</ele><time>2026-04-04T08:04:30.291Z</time></trkpt><trkpt lat="43.771081" lon="11.4280843"><ele>82.66666666666667</ele><time>2026-04-04T08:04:31.288Z</time></trkpt><trkpt lat="43.771027" lon="11.428311"><ele>83.0</ele><time>2026-04-04T08:04:32.293Z</time></trkpt><trkpt lat="43.770979" lon="11.4285199"><ele>82.60000000000001</ele><time>2026-04-04T08:04:33.289Z</time></trkpt><trkpt lat="43.7709401" lon="11.4286958"><ele>82.2</ele><time>2026-04-04T08:04:34.291Z</time></trkpt><trkpt lat="43.7708999" lon="11.4288208"><ele>81.8</ele><time>2026-04-04T08:04:35.291Z</time></trkpt><trkpt lat="43.7708649" lon="11.4289423"><ele>81.4</ele><time>2026-04-04T08:04:36.296Z</time></trkpt><trkpt lat="43.7708386" lon="11.4290537"><ele>81.0</ele><time>2026-04-04T08:04:37.281Z</time></trkpt><trkpt lat="43.7708129" lon="11.4291841"><ele>81.0</ele><time>2026-04-04T08:04:38.294Z</time></trkpt><trkpt lat="43.770769" lon="11.4293227"><ele>81.0</ele><time>2026-04-04T08:04:39.286Z</time></trkpt><trkpt lat="43.7707193" lon="11.429492"><ele>81.0</ele><time>2026-04-04T08:04:40.282Z</time></trkpt><trkpt lat="43.7706606" lon="11.4296774"><ele>81.0</ele><time>2026-04-04T08:04:41.287Z</time></trkpt><trkpt lat="43.7705904" lon="11.4298802"><ele>81.0</ele><time>2026-04-04T08:04:42.278Z</time></trkpt><trkpt lat="43.7705172" lon="11.4300908"><ele>81.0</ele><time>2026-04-04T08:04:43.279Z</time></trkpt><trkpt lat="43.7704401" lon="11.4303155"><ele>81.0</ele><time>2026-04-04T08:04:44.275Z</time></trkpt><trkpt lat="43.7703509" lon="11.4305569"><ele>81.33333333333333</ele><time>2026-04-04T08:04:45.28Z</time></trkpt><trkpt lat="43.7702625" lon="11.4307911"><ele>81.66666666666666</ele><time>2026-04-04T08:04:46.281Z</time></trkpt><trkpt lat="43.770183" lon="11.4310305"><ele>82.0</ele><time>2026-04-04T08:04:47.281Z</time></trkpt><trkpt lat="43.7701018" lon="11.4312576"><ele>81.33333333333333</ele><time>2026-04-04T08:04:48.28Z</time></trkpt><trkpt lat="43.7700262" lon="11.431469"><ele>80.66666666666667</ele><time>2026-04-04T08:04:49.283Z</time></trkpt><trkpt lat="43.7699558" lon="11.431673"><ele>80.0</ele><time>2026-04-04T08:04:50.283Z</time></trkpt><trkpt lat="43.7698847" lon="11.4318756"><ele>80.0</ele><time>2026-04-04T08:04:51.284Z</time></trkpt><trkpt lat="43.76981" lon="11.4320855"><ele>80.0</ele><time>2026-04-04T08:04:52.279Z</time></trkpt><trkpt lat="43.7697433" lon="11.432289"><ele>80.0</ele><time>2026-04-04T08:04:53.289Z</time></trkpt><trkpt lat="43.769678" lon="11.4324994"><ele>80.66666666666667</ele><time>2026-04-04T08:04:54.283Z</time></trkpt><trkpt lat="43.7696146" lon="11.4327085"><ele>81.33333333333333</ele><time>2026-04-04T08:04:55.282Z</time></trkpt><trkpt lat="43.7695639" lon="11.4329215"><ele>82.0</ele><time>2026-04-04T08:04:56.284Z</time></trkpt><trkpt lat="43.769511" lon="11.4331375"><ele>82.0</ele><time>2026-04-04T08:04:57.278Z</time></trkpt><trkpt lat="43.7694607" lon="11.4333704"><ele>82.0</ele><time>2026-04-04T08:04:58.282Z</time></trkpt><trkpt lat="43.769417" lon="11.4336091"><ele>82.0</ele><time>2026-04-04T08:04:59.28Z</time></trkpt><trkpt lat="43.7693758" lon="11.4338563"><ele>81.66666666666666</ele><time>2026-04-04T08:05:00.279Z</time></trkpt><trkpt lat="43.7693376" lon="11.4341079"><ele>81.33333333333333</ele><time>2026-04-04T08:05:01.276Z</time></trkpt><trkpt lat="43.7693079" lon="11.4343515"><ele>81.0</ele><time>2026-04-04T08:05:02.278Z</time></trkpt><trkpt lat="43.7692927" lon="11.4346044"><ele>81.33333333333333</ele><time>2026-04-04T08:05:03.276Z</time></trkpt><trkpt lat="43.769291" lon="11.43487"><ele>81.66666666666666</ele><time>2026-04-04T08:05:04.272Z</time></trkpt><trkpt lat="43.769294" lon="11.4351252"><ele>82.0</ele><time>2026-04-04T08:05:05.275Z</time></trkpt><trkpt lat="43.7692995" lon="11.4353906"><ele>81.66666666666666</ele><time>2026-04-04T08:05:06.273Z</time></trkpt><trkpt lat="43.7693041" lon="11.4356424"><ele>81.33333333333333</ele><time>2026-04-04T08:05:07.271Z</time></trkpt><trkpt lat="43.769323" lon="11.4359115"><ele>81.0</ele><time>2026-04-04T08:05:08.276Z</time></trkpt><trkpt lat="43.7693519" lon="11.4361662"><ele>81.66666666666667</ele><time>2026-04-04T08:05:09.275Z</time></trkpt><trkpt lat="43.7693841" lon="11.4364109"><ele>82.33333333333334</ele><time>2026-04-04T08:05:10.274Z</time></trkpt><trkpt lat="43.769419" lon="11.4366537"><ele>83.0</ele><time>2026-04-04T08:05:11.274Z</time></trkpt><trkpt lat="43.7694645" lon="11.4368893"><ele>83.0</ele><time>2026-04-04T08:05:12.274Z</time></trkpt><trkpt lat="43.7695141" lon="11.4371066"><ele>83.0</ele><time>2026-04-04T08:05:13.274Z</time></trkpt><trkpt lat="43.7695619" lon="11.4373348"><ele>83.0</ele><time>2026-04-04T08:05:14.274Z</time></trkpt><trkpt lat="43.7696141" lon="11.4375462"><ele>83.0</ele><time>2026-04-04T08:05:15.279Z</time></trkpt><trkpt lat="43.7696781" lon="11.4377556"><ele>83.0</ele><time>2026-04-04T08:05:16.279Z</time></trkpt><trkpt lat="43.7697438" lon="11.4379651"><ele>83.0</ele><time>2026-04-04T08:05:17.278Z</time></trkpt><trkpt lat="43.7698105" lon="11.4381736"><ele>83.0</ele><time>2026-04-04T08:05:18.279Z</time></trkpt><trkpt lat="43.7698812" lon="11.4383691"><ele>83.0</ele><time>2026-04-04T08:05:19.281Z</time></trkpt><trkpt lat="43.7699452" lon="11.4385562"><ele>83.0</ele><time>2026-04-04T08:05:20.28Z</time></trkpt><trkpt lat="43.7700068" lon="11.4387467"><ele>83.25</ele><time>2026-04-04T08:05:21.28Z</time></trkpt><trkpt lat="43.7700678" lon="11.438929"><ele>83.5</ele><time>2026-04-04T08:05:22.277Z</time></trkpt><trkpt lat="43.7701347" lon="11.4391078"><ele>83.75</ele><time>2026-04-04T08:05:23.277Z</time></trkpt><trkpt lat="43.7702041" lon="11.4392937"><ele>84.0</ele><time>2026-04-04T08:05:24.291Z</time></trkpt><trkpt lat="43.7702713" lon="11.4394832"><ele>83.33333333333333</ele><time>2026-04-04T08:05:25.282Z</time></trkpt><trkpt lat="43.7703478" lon="11.439697"><ele>82.66666666666666</ele><time>2026-04-04T08:05:26.287Z</time></trkpt><trkpt lat="43.7704268" lon="11.43991"><ele>82.0</ele><time>2026-04-04T08:05:27.291Z</time></trkpt><trkpt lat="43.7705022" lon="11.4401193"><ele>82.0</ele><time>2026-04-04T08:05:28.286Z</time></trkpt><trkpt lat="43.7705818" lon="11.4403355"><ele>82.0</ele><time>2026-04-04T08:05:29.288Z</time></trkpt><trkpt lat="43.770653" lon="11.4405534"><ele>82.0</ele><time>2026-04-04T08:05:30.291Z</time></trkpt><trkpt lat="43.770728" lon="11.4407736"><ele>81.33333333333333</ele><time>2026-04-04T08:05:31.308Z</time></trkpt><trkpt lat="43.7708079" lon="11.4409966"><ele>80.66666666666667</ele><time>2026-04-04T08:05:32.289Z</time></trkpt><trkpt lat="43.7708828" lon="11.4412437"><ele>80.0</ele><time>2026-04-04T08:05:33.286Z</time></trkpt><trkpt lat="43.7709596" lon="11.4415077"><ele>80.0</ele><time>2026-04-04T08:05:34.282Z</time></trkpt><trkpt lat="43.7710355" lon="11.4417945"><ele>80.0</ele><time>2026-04-04T08:05:35.281Z</time></trkpt><trkpt lat="43.7711048" lon="11.442118"><ele>80.0</ele><time>2026-04-04T08:05:36.282Z</time></trkpt><trkpt lat="43.7711674" lon="11.4424698"><ele>80.0</ele><time>2026-04-04T08:05:37.278Z</time></trkpt><trkpt lat="43.7712129" lon="11.4428422"><ele>80.5</ele><time>2026-04-04T08:05:38.287Z</time></trkpt><trkpt lat="43.7712444" lon="11.443223"><ele>81.0</ele><time>2026-04-04T08:05:39.281Z</time></trkpt><trkpt lat="43.7712583" lon="11.4436161"><ele>82.0</ele><time>2026-04-04T08:05:40.291Z</time></trkpt><trkpt lat="43.7712767" lon="11.4440139"><ele>83.0</ele><time>2026-04-04T08:05:41.285Z</time></trkpt><trkpt lat="43.7712988" lon="11.4443948"><ele>83.0</ele><time>2026-04-04T08:05:42.28Z</time></trkpt><trkpt lat="43.7713206" lon="11.444731"><ele>83.0</ele><time>2026-04-04T08:05:43.281Z</time></trkpt><trkpt lat="43.7713461" lon="11.4450443"><ele>83.0</ele><time>2026-04-04T08:05:44.279Z</time></trkpt><trkpt lat="43.7713634" lon="11.4453593"><ele>83.0</ele><time>2026-04-04T08:05:45.282Z</time></trkpt><trkpt lat="43.7713786" lon="11.4456695"><ele>82.66666666666667</ele><time>2026-04-04T08:05:46.287Z</time></trkpt><trkpt lat="43.7714059" lon="11.4459693"><ele>82.33333333333333</ele><time>2026-04-04T08:05:47.285Z</time></trkpt><trkpt lat="43.7714329" lon="11.4462567"><ele>82.0</ele><time>2026-04-04T08:05:48.283Z</time></trkpt><trkpt lat="43.7714601" lon="11.4465408"><ele>82.66666666666666</ele><time>2026-04-04T08:05:49.284Z</time></trkpt><trkpt lat="43.7714914" lon="11.4468204"><ele>83.33333333333333</ele><time>2026-04-04T08:05:50.281Z</time></trkpt><trkpt lat="43.7715424" lon="11.4470922"><ele>84.0</ele><time>2026-04-04T08:05:51.282Z</time></trkpt><trkpt lat="43.7716032" lon="11.4473474"><ele>84.0</ele><time>2026-04-04T08:05:52.281Z</time></trkpt><trkpt lat="43.7716751" lon="11.4475837"><ele>84.0</ele><time>2026-04-04T08:05:53.282Z</time></trkpt><trkpt lat="43.7717395" lon="11.4478113"><ele>84.0</ele><time>2026-04-04T08:05:54.282Z</time></trkpt><trkpt lat="43.7718218" lon="11.4480424"><ele>84.33333333333333</ele><time>2026-04-04T08:05:55.292Z</time></trkpt><trkpt lat="43.7719029" lon="11.4482636"><ele>84.66666666666666</ele><time>2026-04-04T08:05:56.281Z</time></trkpt><trkpt lat="43.771985" lon="11.4484732"><ele>85.0</ele><time>2026-04-04T08:05:57.28Z</time></trkpt><trkpt lat="43.7720668" lon="11.4486659"><ele>85.75</ele><time>2026-04-04T08:05:58.284Z</time></trkpt><trkpt lat="43.7721523" lon="11.4488371"><ele>86.5</ele><time>2026-04-04T08:05:59.281Z</time></trkpt><trkpt lat="43.7722359" lon="11.4489984"><ele>87.25</ele><time>2026-04-04T08:06:00.281Z</time></trkpt><trkpt lat="43.7723223" lon="11.4491415"><ele>88.0</ele><time>2026-04-04T08:06:01.28Z</time></trkpt><trkpt lat="43.7724009" lon="11.4492668"><ele>88.0</ele><time>2026-04-04T08:06:02.284Z</time></trkpt><trkpt lat="43.7724723" lon="11.4493749"><ele>88.0</ele><time>2026-04-04T08:06:03.282Z</time></trkpt><trkpt lat="43.7725367" lon="11.4494771"><ele>88.0</ele><time>2026-04-04T08:06:04.286Z</time></trkpt><trkpt lat="43.7726025" lon="11.4495946"><ele>88.0</ele><time>2026-04-04T08:06:05.281Z</time></trkpt><trkpt lat="43.7726483" lon="11.4497189"><ele>88.0</ele><time>2026-04-04T08:06:06.282Z</time></trkpt><trkpt lat="43.772688" lon="11.4498641"><ele>89.0</ele><time>2026-04-04T08:06:07.287Z</time></trkpt><trkpt lat="43.7727112" lon="11.4500164"><ele>90.0</ele><time>2026-04-04T08:06:08.287Z</time></trkpt><trkpt lat="43.7727358" lon="11.4501785"><ele>91.0</ele><time>2026-04-04T08:06:09.282Z</time></trkpt><trkpt lat="43.7727646" lon="11.4503516"><ele>92.0</ele><time>2026-04-04T08:06:10.288Z</time></trkpt><trkpt lat="43.7728057" lon="11.4505219"><ele>93.0</ele><time>2026-04-04T08:06:11.285Z</time></trkpt><trkpt lat="43.7728567" lon="11.4506868"><ele>94.0</ele><time>2026-04-04T08:06:12.284Z</time></trkpt><trkpt lat="43.7729199" lon="11.4508451"><ele>95.0</ele><time>2026-04-04T08:06:13.285Z</time></trkpt><trkpt lat="43.7729949" lon="11.4509901"><ele>96.0</ele><time>2026-04-04T08:06:14.285Z</time></trkpt><trkpt lat="43.7730973" lon="11.4511109"><ele>96.0</ele><time>2026-04-04T08:06:15.285Z</time></trkpt><trkpt lat="43.7732124" lon="11.451209"><ele>96.0</ele><time>2026-04-04T08:06:16.286Z</time></trkpt><trkpt lat="43.7733225" lon="11.4512877"><ele>96.0</ele><time>2026-04-04T08:06:17.283Z</time></trkpt><trkpt lat="43.7734184" lon="11.4513596"><ele>96.0</ele><time>2026-04-04T08:06:18.282Z</time></trkpt><trkpt lat="43.773517" lon="11.4514333"><ele>98.83333333333333</ele><time>2026-04-04T08:06:19.288Z</time></trkpt><trkpt lat="43.7736082" lon="11.4515064"><ele>101.66666666666666</ele><time>2026-04-04T08:06:20.288Z</time></trkpt><trkpt lat="43.7736904" lon="11.451571"><ele>104.5</ele><time>2026-04-04T08:06:21.287Z</time></trkpt><trkpt lat="43.7737624" lon="11.451643"><ele>107.33333333333333</ele><time>2026-04-04T08:06:22.282Z</time></trkpt><trkpt lat="43.7738225" lon="11.4517191"><ele>110.16666666666666</ele><time>2026-04-04T08:06:23.287Z</time></trkpt><trkpt lat="43.7738578" lon="11.451805"><ele>113.0</ele><time>2026-04-04T08:06:24.285Z</time></trkpt><trkpt lat="43.7738696" lon="11.4518913"><ele>113.0</ele><time>2026-04-04T08:06:25.282Z</time></trkpt><trkpt lat="43.7738503" lon="11.4519901"><ele>113.00000000000001</ele><time>2026-04-04T08:06:26.294Z</time></trkpt><trkpt lat="43.7738044" lon="11.4521044"><ele>113.00000000000001</ele><time>2026-04-04T08:06:27.288Z</time></trkpt><trkpt lat="43.7737378" lon="11.4522397"><ele>113.0</ele><time>2026-04-04T08:06:28.289Z</time></trkpt><trkpt lat="43.7736629" lon="11.4523872"><ele>113.0</ele><time>2026-04-04T08:06:29.287Z</time></trkpt><trkpt lat="43.773589" lon="11.4525419"><ele>114.0</ele><time>2026-04-04T08:06:30.288Z</time></trkpt><trkpt lat="43.7735195" lon="11.4527033"><ele>115.0</ele><time>2026-04-04T08:06:31.284Z</time></trkpt><trkpt lat="43.7734427" lon="11.4528722"><ele>116.0</ele><time>2026-04-04T08:06:32.287Z</time></trkpt><trkpt lat="43.7733618" lon="11.4530605"><ele>117.0</ele><time>2026-04-04T08:06:33.289Z</time></trkpt><trkpt lat="43.7732667" lon="11.453278"><ele>117.0</ele><time>2026-04-04T08:06:34.286Z</time></trkpt><trkpt lat="43.7731819" lon="11.4534952"><ele>117.0</ele><time>2026-04-04T08:06:35.288Z</time></trkpt><trkpt lat="43.773113" lon="11.4537101"><ele>117.0</ele><time>2026-04-04T08:06:36.287Z</time></trkpt><trkpt lat="43.7730625" lon="11.4539364"><ele>120.33333333333334</ele><time>2026-04-04T08:06:37.283Z</time></trkpt><trkpt lat="43.7730187" lon="11.4541916"><ele>123.66666666666667</ele><time>2026-04-04T08:06:38.287Z</time></trkpt><trkpt lat="43.7729842" lon="11.4544239"><ele>127.0</ele><time>2026-04-04T08:06:39.288Z</time></trkpt><trkpt lat="43.7729424" lon="11.4546264"><ele>129.75</ele><time>2026-04-04T08:06:40.291Z</time></trkpt><trkpt lat="43.7728674" lon="11.4547756"><ele>132.5</ele><time>2026-04-04T08:06:41.284Z</time></trkpt><trkpt lat="43.7727845" lon="11.4549119"><ele>135.25</ele><time>2026-04-04T08:06:42.287Z</time></trkpt><trkpt lat="43.7727018" lon="11.4550391"><ele>138.0</ele><time>2026-04-04T08:06:43.291Z</time></trkpt><trkpt lat="43.7726253" lon="11.4551734"><ele>136.16666666666666</ele><time>2026-04-04T08:06:44.288Z</time></trkpt><trkpt lat="43.7725556" lon="11.4552992"><ele>134.33333333333334</ele><time>2026-04-04T08:06:45.286Z</time></trkpt><trkpt lat="43.7725086" lon="11.4554144"><ele>132.5</ele><time>2026-04-04T08:06:46.294Z</time></trkpt><trkpt lat="43.7724676" lon="11.455512"><ele>130.66666666666669</ele><time>2026-04-04T08:06:47.294Z</time></trkpt><trkpt lat="43.7724331" lon="11.4555997"><ele>128.83333333333334</ele><time>2026-04-04T08:06:48.288Z</time></trkpt><trkpt lat="43.772394" lon="11.4556786"><ele>127.0</ele><time>2026-04-04T08:06:49.286Z</time></trkpt><trkpt lat="43.7723257" lon="11.4558142"><ele>127.0</ele><time>2026-04-04T08:06:51.286Z</time></trkpt><trkpt lat="43.7722912" lon="11.4559528"><ele>126.99999999999999</ele><time>2026-04-04T08:06:53.289Z</time></trkpt><trkpt lat="43.7723511" lon="11.4561142"><ele>126.99999999999999</ele><time>2026-04-04T08:06:55.278Z</time></trkpt><trkpt lat="43.772413" lon="11.4562142"><ele>127.0</ele><time>2026-04-04T08:06:56.276Z</time></trkpt><trkpt lat="43.7724805" lon="11.4563385"><ele>127.0</ele><time>2026-04-04T08:06:57.295Z</time></trkpt><trkpt lat="43.7725404" lon="11.4565064"><ele>127.66666666666667</ele><time>2026-04-04T08:06:58.282Z</time></trkpt><trkpt lat="43.7725722" lon="11.4567127"><ele>128.33333333333334</ele><time>2026-04-04T08:06:59.277Z</time></trkpt><trkpt lat="43.7726031" lon="11.4569206"><ele>129.0</ele><time>2026-04-04T08:07:00.281Z</time></trkpt><trkpt lat="43.772649" lon="11.4571252"><ele>129.2</ele><time>2026-04-04T08:07:01.275Z</time></trkpt><trkpt lat="43.7726796" lon="11.4572759"><ele>129.4</ele><time>2026-04-04T08:07:02.271Z</time></trkpt><trkpt lat="43.7727227" lon="11.4574094"><ele>129.6</ele><time>2026-04-04T08:07:03.278Z</time></trkpt><trkpt lat="43.7727771" lon="11.4575326"><ele>129.8</ele><time>2026-04-04T08:07:04.275Z</time></trkpt><trkpt lat="43.7728311" lon="11.4576607"><ele>130.0</ele><time>2026-04-04T08:07:05.275Z</time></trkpt><trkpt lat="43.7728823" lon="11.4577866"><ele>138.0</ele><time>2026-04-04T08:07:06.276Z</time></trkpt><trkpt lat="43.7729403" lon="11.4579203"><ele>146.0</ele><time>2026-04-04T08:07:07.276Z</time></trkpt><trkpt lat="43.7729982" lon="11.4580534"><ele>154.0</ele><time>2026-04-04T08:07:08.277Z</time></trkpt><trkpt lat="43.773049" lon="11.4581984"><ele>162.0</ele><time>2026-04-04T08:07:09.275Z</time></trkpt><trkpt lat="43.7730868" lon="11.4583392"><ele>162.0</ele><time>2026-04-04T08:07:10.271Z</time></trkpt><trkpt lat="43.7731167" lon="11.4584824"><ele>162.0</ele><time>2026-04-04T08:07:11.274Z</time></trkpt><trkpt lat="43.7731183" lon="11.4586196"><ele>162.0</ele><time>2026-04-04T08:07:12.281Z</time></trkpt><trkpt lat="43.7730773" lon="11.4587627"><ele>162.0</ele><time>2026-04-04T08:07:13.279Z</time></trkpt><trkpt lat="43.7730132" lon="11.4589084"><ele>162.0</ele><time>2026-04-04T08:07:14.276Z</time></trkpt><trkpt lat="43.772953" lon="11.4590485"><ele>163.0</ele><time>2026-04-04T08:07:15.28Z</time></trkpt><trkpt lat="43.7729161" lon="11.4591782"><ele>164.0</ele><time>2026-04-04T08:07:16.278Z</time></trkpt><trkpt lat="43.7728935" lon="11.4593123"><ele>165.0</ele><time>2026-04-04T08:07:17.278Z</time></trkpt><trkpt lat="43.7728893" lon="11.4594544"><ele>166.0</ele><time>2026-04-04T08:07:18.283Z</time></trkpt><trkpt lat="43.7728901" lon="11.4595932"><ele>167.0</ele><time>2026-04-04T08:07:19.281Z</time></trkpt><trkpt lat="43.7728992" lon="11.4597288"><ele>167.8</ele><time>2026-04-04T08:07:20.276Z</time></trkpt><trkpt lat="43.7728906" lon="11.4598532"><ele>168.6</ele><time>2026-04-04T08:07:21.282Z</time></trkpt><trkpt lat="43.7728654" lon="11.4599818"><ele>169.4</ele><time>2026-04-04T08:07:22.285Z</time></trkpt><trkpt lat="43.7728105" lon="11.4601167"><ele>170.20000000000002</ele><time>2026-04-04T08:07:23.281Z</time></trkpt><trkpt lat="43.7727424" lon="11.4602701"><ele>171.0</ele><time>2026-04-04T08:07:24.281Z</time></trkpt><trkpt lat="43.7726775" lon="11.4604231"><ele>169.0</ele><time>2026-04-04T08:07:25.281Z</time></trkpt><trkpt lat="43.7726148" lon="11.4605703"><ele>167.0</ele><time>2026-04-04T08:07:26.28Z</time></trkpt><trkpt lat="43.7725689" lon="11.4607164"><ele>165.0</ele><time>2026-04-04T08:07:27.285Z</time></trkpt><trkpt lat="43.772534" lon="11.4608568"><ele>163.0</ele><time>2026-04-04T08:07:28.289Z</time></trkpt><trkpt lat="43.7724969" lon="11.460983"><ele>161.0</ele><time>2026-04-04T08:07:29.278Z</time></trkpt><trkpt lat="43.7724519" lon="11.4610994"><ele>161.0</ele><time>2026-04-04T08:07:30.28Z</time></trkpt><trkpt lat="43.772393" lon="11.4612014"><ele>161.0</ele><time>2026-04-04T08:07:31.287Z</time></trkpt><trkpt lat="43.7723084" lon="11.4612726"><ele>161.0</ele><time>2026-04-04T08:07:32.277Z</time></trkpt><trkpt lat="43.7722179" lon="11.4613266"><ele>161.0</ele><time>2026-04-04T08:07:33.282Z</time></trkpt><trkpt lat="43.7721123" lon="11.4613628"><ele>161.0</ele><time>2026-04-04T08:07:34.28Z</time></trkpt><trkpt lat="43.7719915" lon="11.461393"><ele>165.75</ele><time>2026-04-04T08:07:35.275Z</time></trkpt><trkpt lat="43.7718512" lon="11.4614156"><ele>170.5</ele><time>2026-04-04T08:07:36.275Z</time></trkpt><trkpt lat="43.7717028" lon="11.4614424"><ele>175.25</ele><time>2026-04-04T08:07:37.272Z</time></trkpt><trkpt lat="43.7715531" lon="11.4614779"><ele>180.0</ele><time>2026-04-04T08:07:38.273Z</time></trkpt><trkpt lat="43.7714113" lon="11.461537"><ele>180.0</ele><time>2026-04-04T08:07:39.275Z</time></trkpt><trkpt lat="43.7712731" lon="11.4616045"><ele>180.0</ele><time>2026-04-04T08:07:40.276Z</time></trkpt><trkpt lat="43.771135" lon="11.4616882"><ele>180.0</ele><time>2026-04-04T08:07:41.282Z</time></trkpt><trkpt lat="43.7710131" lon="11.461766"><ele>180.0</ele><time>2026-04-04T08:07:42.278Z</time></trkpt><trkpt lat="43.7709212" lon="11.4618284"><ele>180.33333333333334</ele><time>2026-04-04T08:07:43.284Z</time></trkpt><trkpt lat="43.7708514" lon="11.4618747"><ele>180.66666666666666</ele><time>2026-04-04T08:07:44.283Z</time></trkpt><trkpt lat="43.7707831" lon="11.4619308"><ele>181.0</ele><time>2026-04-04T08:07:45.286Z</time></trkpt><trkpt lat="43.7707164" lon="11.4619839"><ele>181.33333333333331</ele><time>2026-04-04T08:07:46.283Z</time></trkpt><trkpt lat="43.7706527" lon="11.4620446"><ele>181.66666666666666</ele><time>2026-04-04T08:07:47.284Z</time></trkpt><trkpt lat="43.7706029" lon="11.4621268"><ele>182.0</ele><time>2026-04-04T08:07:48.283Z</time></trkpt><trkpt lat="43.770565" lon="11.4622297"><ele>182.0</ele><time>2026-04-04T08:07:49.288Z</time></trkpt><trkpt lat="43.7705668" lon="11.462377"><ele>182.0</ele><time>2026-04-04T08:07:50.278Z</time></trkpt><trkpt lat="43.770583" lon="11.4625646"><ele>182.0</ele><time>2026-04-04T08:07:51.281Z</time></trkpt><trkpt lat="43.7706082" lon="11.462767"><ele>182.0</ele><time>2026-04-04T08:07:52.285Z</time></trkpt><trkpt lat="43.770637" lon="11.4629703"><ele>183.5</ele><time>2026-04-04T08:07:53.285Z</time></trkpt><trkpt lat="43.7706648" lon="11.4631654"><ele>185.0</ele><time>2026-04-04T08:07:54.284Z</time></trkpt><trkpt lat="43.7706847" lon="11.4633483"><ele>186.5</ele><time>2026-04-04T08:07:55.28Z</time></trkpt><trkpt lat="43.7707013" lon="11.4635049"><ele>188.0</ele><time>2026-04-04T08:07:56.281Z</time></trkpt><trkpt lat="43.7707122" lon="11.4636542"><ele>188.8</ele><time>2026-04-04T08:07:57.285Z</time></trkpt><trkpt lat="43.7707128" lon="11.4637948"><ele>189.60000000000002</ele><time>2026-04-04T08:07:58.281Z</time></trkpt><trkpt lat="43.7707207" lon="11.4639427"><ele>190.39999999999998</ele><time>2026-04-04T08:07:59.291Z</time></trkpt><trkpt lat="43.7707286" lon="11.4640918"><ele>191.2</ele><time>2026-04-04T08:08:00.281Z</time></trkpt><trkpt lat="43.7707371" lon="11.4642497"><ele>192.0</ele><time>2026-04-04T08:08:01.281Z</time></trkpt><trkpt lat="43.7707311" lon="11.4644101"><ele>192.0</ele><time>2026-04-04T08:08:02.279Z</time></trkpt><trkpt lat="43.7707201" lon="11.4645752"><ele>192.0</ele><time>2026-04-04T08:08:03.28Z</time></trkpt><trkpt lat="43.7706942" lon="11.4647436"><ele>192.0</ele><time>2026-04-04T08:08:04.278Z</time></trkpt><trkpt lat="43.7706581" lon="11.4649012"><ele>192.0</ele><time>2026-04-04T08:08:05.284Z</time></trkpt><trkpt lat="43.770611" lon="11.4650509"><ele>193.0</ele><time>2026-04-04T08:08:06.279Z</time></trkpt><trkpt lat="43.770561" lon="11.465184"><ele>194.0</ele><time>2026-04-04T08:08:07.286Z</time></trkpt><trkpt lat="43.770515" lon="11.4652966"><ele>195.0</ele><time>2026-04-04T08:08:08.288Z</time></trkpt><trkpt lat="43.7704714" lon="11.4654143"><ele>196.0</ele><time>2026-04-04T08:08:09.289Z</time></trkpt><trkpt lat="43.7704319" lon="11.4655388"><ele>197.0</ele><time>2026-04-04T08:08:10.286Z</time></trkpt><trkpt lat="43.7703898" lon="11.465659"><ele>197.33333333333334</ele><time>2026-04-04T08:08:11.287Z</time></trkpt><trkpt lat="43.7703428" lon="11.4657679"><ele>197.66666666666669</ele><time>2026-04-04T08:08:12.285Z</time></trkpt><trkpt lat="43.7702959" lon="11.4658552"><ele>198.0</ele><time>2026-04-04T08:08:13.285Z</time></trkpt><trkpt lat="43.7702654" lon="11.4659413"><ele>198.33333333333331</ele><time>2026-04-04T08:08:14.287Z</time></trkpt><trkpt lat="43.7702549" lon="11.4660297"><ele>198.66666666666666</ele><time>2026-04-04T08:08:15.287Z</time></trkpt><trkpt lat="43.7702726" lon="11.4661214"><ele>199.0</ele><time>2026-04-04T08:08:16.284Z</time></trkpt><trkpt lat="43.7702918" lon="11.4662476"><ele>200.2</ele><time>2026-04-04T08:08:17.284Z</time></trkpt><trkpt lat="43.7703008" lon="11.4664078"><ele>201.39999999999998</ele><time>2026-04-04T08:08:18.285Z</time></trkpt><trkpt lat="43.7703032" lon="11.4665659"><ele>202.6</ele><time>2026-04-04T08:08:19.29Z</time></trkpt><trkpt lat="43.7702999" lon="11.4667192"><ele>203.8</ele><time>2026-04-04T08:08:20.286Z</time></trkpt><trkpt lat="43.7702952" lon="11.4668658"><ele>205.0</ele><time>2026-04-04T08:08:21.284Z</time></trkpt><trkpt lat="43.7702948" lon="11.4670274"><ele>205.66666666666666</ele><time>2026-04-04T08:08:22.284Z</time></trkpt><trkpt lat="43.7702985" lon="11.4672039"><ele>206.33333333333331</ele><time>2026-04-04T08:08:23.286Z</time></trkpt><trkpt lat="43.770303" lon="11.4674437"><ele>207.0</ele><time>2026-04-04T08:08:24.284Z</time></trkpt><trkpt lat="43.7703023" lon="11.4677177"><ele>208.66666666666669</ele><time>2026-04-04T08:08:25.282Z</time></trkpt><trkpt lat="43.770316" lon="11.4679865"><ele>210.33333333333334</ele><time>2026-04-04T08:08:26.283Z</time></trkpt><trkpt lat="43.7703441" lon="11.4682394"><ele>212.0</ele><time>2026-04-04T08:08:27.283Z</time></trkpt><trkpt lat="43.7703636" lon="11.4685029"><ele>212.0</ele><time>2026-04-04T08:08:28.283Z</time></trkpt><trkpt lat="43.7703811" lon="11.4687615"><ele>212.0</ele><time>2026-04-04T08:08:29.283Z</time></trkpt><trkpt lat="43.7703947" lon="11.4689955"><ele>212.0</ele><time>2026-04-04T08:08:30.296Z</time></trkpt><trkpt lat="43.7704025" lon="11.4692218"><ele>214.0</ele><time>2026-04-04T08:08:31.283Z</time></trkpt><trkpt lat="43.770413" lon="11.4694429"><ele>216.0</ele><time>2026-04-04T08:08:32.284Z</time></trkpt><trkpt lat="43.7704229" lon="11.4696602"><ele>218.0</ele><time>2026-04-04T08:08:33.286Z</time></trkpt><trkpt lat="43.7704257" lon="11.4698425"><ele>220.0</ele><time>2026-04-04T08:08:34.288Z</time></trkpt><trkpt lat="43.7704352" lon="11.4700195"><ele>221.4</ele><time>2026-04-04T08:08:35.281Z</time></trkpt><trkpt lat="43.7704414" lon="11.47019"><ele>222.8</ele><time>2026-04-04T08:08:36.284Z</time></trkpt><trkpt lat="43.7704259" lon="11.4703474"><ele>224.2</ele><time>2026-04-04T08:08:37.281Z</time></trkpt><trkpt lat="43.7703985" lon="11.4704859"><ele>225.6</ele><time>2026-04-04T08:08:38.278Z</time></trkpt><trkpt lat="43.7703483" lon="11.4706048"><ele>227.0</ele><time>2026-04-04T08:08:39.278Z</time></trkpt><trkpt lat="43.7702789" lon="11.4707008"><ele>228.25</ele><time>2026-04-04T08:08:40.285Z</time></trkpt><trkpt lat="43.7701834" lon="11.4707565"><ele>229.5</ele><time>2026-04-04T08:08:41.289Z</time></trkpt><trkpt lat="43.7700708" lon="11.4707809"><ele>230.75</ele><time>2026-04-04T08:08:42.29Z</time></trkpt><trkpt lat="43.7699435" lon="11.4707682"><ele>232.0</ele><time>2026-04-04T08:08:43.277Z</time></trkpt><trkpt lat="43.7698182" lon="11.4707485"><ele>232.0</ele><time>2026-04-04T08:08:44.288Z</time></trkpt><trkpt lat="43.7697027" lon="11.4707324"><ele>232.0</ele><time>2026-04-04T08:08:45.28Z</time></trkpt><trkpt lat="43.7695937" lon="11.4707295"><ele>232.0</ele><time>2026-04-04T08:08:46.284Z</time></trkpt><trkpt lat="43.7694975" lon="11.4707523"><ele>232.0</ele><time>2026-04-04T08:08:47.285Z</time></trkpt><trkpt lat="43.7694112" lon="11.4707972"><ele>232.0</ele><time>2026-04-04T08:08:48.291Z</time></trkpt><trkpt lat="43.7693511" lon="11.4708847"><ele>233.0</ele><time>2026-04-04T08:08:49.288Z</time></trkpt><trkpt lat="43.769312" lon="11.4709874"><ele>234.0</ele><time>2026-04-04T08:08:50.293Z</time></trkpt><trkpt lat="43.7693167" lon="11.4711086"><ele>235.0</ele><time>2026-04-04T08:08:51.292Z</time></trkpt><trkpt lat="43.7693584" lon="11.4712261"><ele>236.0</ele><time>2026-04-04T08:08:52.285Z</time></trkpt><trkpt lat="43.7694385" lon="11.4713439"><ele>237.0</ele><time>2026-04-04T08:08:53.282Z</time></trkpt><trkpt lat="43.7695348" lon="11.4714495"><ele>237.0</ele><time>2026-04-04T08:08:54.28Z</time></trkpt><trkpt lat="43.7696432" lon="11.471561"><ele>237.0</ele><time>2026-04-04T08:08:55.285Z</time></trkpt><trkpt lat="43.769749" lon="11.4716698"><ele>237.0</ele><time>2026-04-04T08:08:56.285Z</time></trkpt><trkpt lat="43.7698479" lon="11.4717761"><ele>237.0</ele><time>2026-04-04T08:08:57.287Z</time></trkpt><trkpt lat="43.7699442" lon="11.4718769"><ele>237.0</ele><time>2026-04-04T08:08:58.289Z</time></trkpt><trkpt lat="43.7700473" lon="11.4719712"><ele>237.0</ele><time>2026-04-04T08:08:59.282Z</time></trkpt><trkpt lat="43.7701575" lon="11.4720482"><ele>237.0</ele><time>2026-04-04T08:09:00.281Z</time></trkpt><trkpt lat="43.7702755" lon="11.472104"><ele>237.0</ele><time>2026-04-04T08:09:01.29Z</time></trkpt><trkpt lat="43.7703962" lon="11.4721517"><ele>238.75</ele><time>2026-04-04T08:09:02.286Z</time></trkpt><trkpt lat="43.7705152" lon="11.4722123"><ele>240.5</ele><time>2026-04-04T08:09:03.282Z</time></trkpt><trkpt lat="43.7706296" lon="11.4722804"><ele>242.25</ele><time>2026-04-04T08:09:04.28Z</time></trkpt><trkpt lat="43.7707275" lon="11.472346"><ele>244.0</ele><time>2026-04-04T08:09:05.278Z</time></trkpt><trkpt lat="43.7708095" lon="11.4724203"><ele>243.99999999999997</ele><time>2026-04-04T08:09:06.285Z</time></trkpt><trkpt lat="43.770888" lon="11.4725047"><ele>244.0</ele><time>2026-04-04T08:09:07.285Z</time></trkpt><trkpt lat="43.7709548" lon="11.4726085"><ele>244.0</ele><time>2026-04-04T08:09:08.284Z</time></trkpt><trkpt lat="43.7710152" lon="11.4726998"><ele>244.0</ele><time>2026-04-04T08:09:09.282Z</time></trkpt><trkpt lat="43.7710677" lon="11.4727811"><ele>243.99999999999997</ele><time>2026-04-04T08:09:10.281Z</time></trkpt><trkpt lat="43.7711298" lon="11.4728409"><ele>244.0</ele><time>2026-04-04T08:09:11.283Z</time></trkpt><trkpt lat="43.7712057" lon="11.4728721"><ele>246.2</ele><time>2026-04-04T08:09:12.283Z</time></trkpt><trkpt lat="43.7712946" lon="11.4728641"><ele>248.39999999999998</ele><time>2026-04-04T08:09:13.285Z</time></trkpt><trkpt lat="43.7713994" lon="11.4728265"><ele>250.6</ele><time>2026-04-04T08:09:14.283Z</time></trkpt><trkpt lat="43.7715064" lon="11.4727769"><ele>252.8</ele><time>2026-04-04T08:09:15.277Z</time></trkpt><trkpt lat="43.7716096" lon="11.4727265"><ele>255.0</ele><time>2026-04-04T08:09:16.281Z</time></trkpt><trkpt lat="43.7717224" lon="11.4726868"><ele>255.0</ele><time>2026-04-04T08:09:17.29Z</time></trkpt><trkpt lat="43.7718381" lon="11.4726578"><ele>255.0</ele><time>2026-04-04T08:09:18.289Z</time></trkpt><trkpt lat="43.7719484" lon="11.4726374"><ele>255.0</ele><time>2026-04-04T08:09:19.29Z</time></trkpt><trkpt lat="43.772051" lon="11.4726307"><ele>255.0</ele><time>2026-04-04T08:09:20.282Z</time></trkpt><trkpt lat="43.7721423" lon="11.4726487"><ele>255.0</ele><time>2026-04-04T08:09:21.281Z</time></trkpt><trkpt lat="43.7722243" lon="11.4726946"><ele>256.75</ele><time>2026-04-04T08:09:22.287Z</time></trkpt><trkpt lat="43.7723109" lon="11.4727781"><ele>258.5</ele><time>2026-04-04T08:09:23.282Z</time></trkpt><trkpt lat="43.7724075" lon="11.4728874"><ele>260.25</ele><time>2026-04-04T08:09:24.285Z</time></trkpt><trkpt lat="43.7725142" lon="11.4730087"><ele>262.0</ele><time>2026-04-04T08:09:25.284Z</time></trkpt><trkpt lat="43.7726198" lon="11.4731317"><ele>264.5</ele><time>2026-04-04T08:09:26.28Z</time></trkpt><trkpt lat="43.7727204" lon="11.4732388"><ele>267.0</ele><time>2026-04-04T08:09:27.288Z</time></trkpt><trkpt lat="43.772825" lon="11.4733419"><ele>269.5</ele><time>2026-04-04T08:09:28.291Z</time></trkpt><trkpt lat="43.7729233" lon="11.4734482"><ele>272.0</ele><time>2026-04-04T08:09:29.289Z</time></trkpt><trkpt lat="43.7730184" lon="11.4735616"><ele>272.0</ele><time>2026-04-04T08:09:30.288Z</time></trkpt><trkpt lat="43.7731079" lon="11.4736842"><ele>272.0</ele><time>2026-04-04T08:09:31.289Z</time></trkpt><trkpt lat="43.773189" lon="11.4738429"><ele>272.0</ele><time>2026-04-04T08:09:32.295Z</time></trkpt><trkpt lat="43.77325" lon="11.4740453"><ele>272.0</ele><time>2026-04-04T08:09:33.28Z</time></trkpt><trkpt lat="43.7732829" lon="11.474246"><ele>272.25</ele><time>2026-04-04T08:09:34.28Z</time></trkpt><trkpt lat="43.7732904" lon="11.4744213"><ele>272.5</ele><time>2026-04-04T08:09:35.285Z</time></trkpt><trkpt lat="43.773311" lon="11.4745987"><ele>272.75</ele><time>2026-04-04T08:09:36.287Z</time></trkpt><trkpt lat="43.7733335" lon="11.4747685"><ele>273.0</ele><time>2026-04-04T08:09:37.288Z</time></trkpt><trkpt lat="43.7733652" lon="11.474933"><ele>273.5</ele><time>2026-04-04T08:09:38.289Z</time></trkpt><trkpt lat="43.7733973" lon="11.4750974"><ele>274.0</ele><time>2026-04-04T08:09:39.286Z</time></trkpt><trkpt lat="43.7734387" lon="11.4752289"><ele>274.5</ele><time>2026-04-04T08:09:40.284Z</time></trkpt><trkpt lat="43.7735021" lon="11.4753578"><ele>275.0</ele><time>2026-04-04T08:09:41.286Z</time></trkpt><trkpt lat="43.7735968" lon="11.47549"><ele>278.0</ele><time>2026-04-04T08:09:42.286Z</time></trkpt><trkpt lat="43.7737213" lon="11.4756334"><ele>281.0</ele><time>2026-04-04T08:09:43.286Z</time></trkpt><trkpt lat="43.7738875" lon="11.4758286"><ele>284.0</ele><time>2026-04-04T08:09:44.283Z</time></trkpt><trkpt lat="43.7740543" lon="11.4760218"><ele>284.0</ele><time>2026-04-04T08:09:45.279Z</time></trkpt><trkpt lat="43.7741866" lon="11.4761746"><ele>284.0</ele><time>2026-04-04T08:09:46.289Z</time></trkpt><trkpt lat="43.7743037" lon="11.476308"><ele>284.0</ele><time>2026-04-04T08:09:47.288Z</time></trkpt><trkpt lat="43.7744234" lon="11.4764152"><ele>285.6666666666667</ele><time>2026-04-04T08:09:48.286Z</time></trkpt><trkpt lat="43.7745609" lon="11.4765195"><ele>287.3333333333333</ele><time>2026-04-04T08:09:49.294Z</time></trkpt><trkpt lat="43.7747253" lon="11.4766164"><ele>289.0</ele><time>2026-04-04T08:09:50.294Z</time></trkpt><trkpt lat="43.7749034" lon="11.4767129"><ele>289.0</ele><time>2026-04-04T08:09:51.293Z</time></trkpt><trkpt lat="43.7751054" lon="11.4768358"><ele>289.0</ele><time>2026-04-04T08:09:52.297Z</time></trkpt><trkpt lat="43.7753129" lon="11.4769599"><ele>289.0</ele><time>2026-04-04T08:09:53.295Z</time></trkpt><trkpt lat="43.7755223" lon="11.4770765"><ele>290.66666666666663</ele><time>2026-04-04T08:09:54.293Z</time></trkpt><trkpt lat="43.7756985" lon="11.4772007"><ele>292.3333333333333</ele><time>2026-04-04T08:09:55.286Z</time></trkpt><trkpt lat="43.7758486" lon="11.4773195"><ele>294.0</ele><time>2026-04-04T08:09:56.291Z</time></trkpt><trkpt lat="43.7759723" lon="11.4774561"><ele>299.0</ele><time>2026-04-04T08:09:57.298Z</time></trkpt><trkpt lat="43.7760765" lon="11.477616"><ele>304.0</ele><time>2026-04-04T08:09:58.295Z</time></trkpt><trkpt lat="43.776169" lon="11.4777949"><ele>309.0</ele><time>2026-04-04T08:09:59.295Z</time></trkpt><trkpt lat="43.776256" lon="11.4779704"><ele>309.0</ele><time>2026-04-04T08:10:00.293Z</time></trkpt><trkpt lat="43.776336" lon="11.4781461"><ele>309.0</ele><time>2026-04-04T08:10:01.294Z</time></trkpt><trkpt lat="43.776385" lon="11.4783183"><ele>309.0</ele><time>2026-04-04T08:10:02.279Z</time></trkpt><trkpt lat="43.7764166" lon="11.4784707"><ele>309.0</ele><time>2026-04-04T08:10:03.29Z</time></trkpt><trkpt lat="43.7764324" lon="11.4786042"><ele>309.0</ele><time>2026-04-04T08:10:04.287Z</time></trkpt><trkpt lat="43.7764525" lon="11.4787363"><ele>309.0</ele><time>2026-04-04T08:10:05.289Z</time></trkpt><trkpt lat="43.7764706" lon="11.4788701"><ele>309.0</ele><time>2026-04-04T08:10:06.288Z</time></trkpt><trkpt lat="43.7765141" lon="11.4789872"><ele>309.0</ele><time>2026-04-04T08:10:07.284Z</time></trkpt><trkpt lat="43.776573" lon="11.4790825"><ele>309.0</ele><time>2026-04-04T08:10:08.289Z</time></trkpt><trkpt lat="43.7766633" lon="11.4791477"><ele>308.25</ele><time>2026-04-04T08:10:09.288Z</time></trkpt><trkpt lat="43.7767837" lon="11.4791874"><ele>307.5</ele><time>2026-04-04T08:10:10.289Z</time></trkpt><trkpt lat="43.776928" lon="11.4792113"><ele>306.75</ele><time>2026-04-04T08:10:11.282Z</time></trkpt><trkpt lat="43.7770812" lon="11.4792256"><ele>306.0</ele><time>2026-04-04T08:10:12.285Z</time></trkpt><trkpt lat="43.7772412" lon="11.4792406"><ele>308.75</ele><time>2026-04-04T08:10:13.283Z</time></trkpt><trkpt lat="43.7773714" lon="11.4792447"><ele>311.5</ele><time>2026-04-04T08:10:14.279Z</time></trkpt><trkpt lat="43.7774792" lon="11.4792529"><ele>314.25</ele><time>2026-04-04T08:10:15.283Z</time></trkpt><trkpt lat="43.7775855" lon="11.4792753"><ele>317.0</ele><time>2026-04-04T08:10:16.286Z</time></trkpt><trkpt lat="43.7776927" lon="11.4793072"><ele>319.0</ele><time>2026-04-04T08:10:17.282Z</time></trkpt><trkpt lat="43.7777969" lon="11.479354"><ele>321.0</ele><time>2026-04-04T08:10:18.281Z</time></trkpt><trkpt lat="43.7778967" lon="11.4794358"><ele>323.0</ele><time>2026-04-04T08:10:19.277Z</time></trkpt><trkpt lat="43.7779853" lon="11.4795458"><ele>325.0</ele><time>2026-04-04T08:10:20.279Z</time></trkpt><trkpt lat="43.7780584" lon="11.479694"><ele>325.0</ele><time>2026-04-04T08:10:21.28Z</time></trkpt><trkpt lat="43.778126" lon="11.479864"><ele>325.0</ele><time>2026-04-04T08:10:22.284Z</time></trkpt><trkpt lat="43.7781958" lon="11.4800257"><ele>325.0</ele><time>2026-04-04T08:10:23.282Z</time></trkpt><trkpt lat="43.778265" lon="11.4801835"><ele>325.0</ele><time>2026-04-04T08:10:24.28Z</time></trkpt><trkpt lat="43.7783374" lon="11.4803364"><ele>323.0</ele><time>2026-04-04T08:10:25.286Z</time></trkpt><trkpt lat="43.7784112" lon="11.4804872"><ele>321.0</ele><time>2026-04-04T08:10:26.281Z</time></trkpt><trkpt lat="43.7784952" lon="11.4806311"><ele>319.0</ele><time>2026-04-04T08:10:27.288Z</time></trkpt><trkpt lat="43.7785775" lon="11.4807689"><ele>317.0</ele><time>2026-04-04T08:10:28.285Z</time></trkpt><trkpt lat="43.7786592" lon="11.4808853"><ele>321.5</ele><time>2026-04-04T08:10:29.285Z</time></trkpt><trkpt lat="43.7787525" lon="11.4809887"><ele>326.0</ele><time>2026-04-04T08:10:30.28Z</time></trkpt><trkpt lat="43.7788549" lon="11.4810773"><ele>330.5</ele><time>2026-04-04T08:10:31.279Z</time></trkpt><trkpt lat="43.778972" lon="11.4811486"><ele>335.0</ele><time>2026-04-04T08:10:32.28Z</time></trkpt><trkpt lat="43.7790912" lon="11.4812008"><ele>335.0</ele><time>2026-04-04T08:10:33.283Z</time></trkpt><trkpt lat="43.7792106" lon="11.4812431"><ele>335.0</ele><time>2026-04-04T08:10:34.3Z</time></trkpt><trkpt lat="43.7793299" lon="11.4812925"><ele>335.0</ele><time>2026-04-04T08:10:35.274Z</time></trkpt><trkpt lat="43.7794478" lon="11.4813601"><ele>335.0</ele><time>2026-04-04T08:10:36.287Z</time></trkpt><trkpt lat="43.7795658" lon="11.4814798"><ele>337.0</ele><time>2026-04-04T08:10:37.281Z</time></trkpt><trkpt lat="43.7796846" lon="11.4816525"><ele>339.0</ele><time>2026-04-04T08:10:38.28Z</time></trkpt><trkpt lat="43.7798184" lon="11.4819016"><ele>341.0</ele><time>2026-04-04T08:10:39.276Z</time></trkpt><trkpt lat="43.7799431" lon="11.4821229"><ele>341.0</ele><time>2026-04-04T08:10:40.277Z</time></trkpt><trkpt lat="43.7800573" lon="11.4823259"><ele>341.0</ele><time>2026-04-04T08:10:41.274Z</time></trkpt><trkpt lat="43.7801695" lon="11.4825025"><ele>341.0</ele><time>2026-04-04T08:10:42.288Z</time></trkpt><trkpt lat="43.7802617" lon="11.4826716"><ele>344.0</ele><time>2026-04-04T08:10:43.279Z</time></trkpt><trkpt lat="43.7803351" lon="11.4828401"><ele>347.0</ele><time>2026-04-04T08:10:44.282Z</time></trkpt><trkpt lat="43.7804008" lon="11.4830026"><ele>350.0</ele><time>2026-04-04T08:10:45.281Z</time></trkpt><trkpt lat="43.7804494" lon="11.4831668"><ele>353.0</ele><time>2026-04-04T08:10:46.285Z</time></trkpt><trkpt lat="43.7804747" lon="11.4833448"><ele>354.0</ele><time>2026-04-04T08:10:47.317Z</time></trkpt><trkpt lat="43.780462" lon="11.4835418"><ele>355.0</ele><time>2026-04-04T08:10:48.286Z</time></trkpt><trkpt lat="43.7804625" lon="11.4837376"><ele>356.0</ele><time>2026-04-04T08:10:49.287Z</time></trkpt><trkpt lat="43.7804659" lon="11.4839077"><ele>357.0</ele><time>2026-04-04T08:10:50.292Z</time></trkpt><trkpt lat="43.7804972" lon="11.4840827"><ele>358.3333333333333</ele><time>2026-04-04T08:10:51.287Z</time></trkpt><trkpt lat="43.780536" lon="11.4842834"><ele>359.66666666666663</ele><time>2026-04-04T08:10:52.294Z</time></trkpt><trkpt lat="43.7806278" lon="11.4845271"><ele>361.0</ele><time>2026-04-04T08:10:53.288Z</time></trkpt><trkpt lat="43.7807226" lon="11.4848118"><ele>362.0</ele><time>2026-04-04T08:10:54.296Z</time></trkpt><trkpt lat="43.7808257" lon="11.4851148"><ele>363.0</ele><time>2026-04-04T08:10:55.281Z</time></trkpt><trkpt lat="43.7809182" lon="11.4853789"><ele>363.3333333333333</ele><time>2026-04-04T08:10:56.282Z</time></trkpt><trkpt lat="43.7810132" lon="11.4856072"><ele>363.66666666666663</ele><time>2026-04-04T08:10:57.284Z</time></trkpt><trkpt lat="43.7811156" lon="11.4858276"><ele>364.0</ele><time>2026-04-04T08:10:58.284Z</time></trkpt><trkpt lat="43.7812057" lon="11.4860281"><ele>368.0</ele><time>2026-04-04T08:10:59.28Z</time></trkpt><trkpt lat="43.781271" lon="11.4862279"><ele>372.0</ele><time>2026-04-04T08:11:00.284Z</time></trkpt><trkpt lat="43.7812762" lon="11.4864384"><ele>376.0</ele><time>2026-04-04T08:11:01.283Z</time></trkpt><trkpt lat="43.7812518" lon="11.4866626"><ele>376.66666666666663</ele><time>2026-04-04T08:11:02.281Z</time></trkpt><trkpt lat="43.7812068" lon="11.4869177"><ele>377.3333333333333</ele><time>2026-04-04T08:11:03.282Z</time></trkpt><trkpt lat="43.7811727" lon="11.487185"><ele>378.0</ele><time>2026-04-04T08:11:04.281Z</time></trkpt><trkpt lat="43.7811427" lon="11.4874359"><ele>380.33333333333337</ele><time>2026-04-04T08:11:05.286Z</time></trkpt><trkpt lat="43.7810997" lon="11.4876698"><ele>382.6666666666667</ele><time>2026-04-04T08:11:06.282Z</time></trkpt><trkpt lat="43.7810437" lon="11.4878654"><ele>385.0</ele><time>2026-04-04T08:11:07.282Z</time></trkpt><trkpt lat="43.7809873" lon="11.4880361"><ele>385.25</ele><time>2026-04-04T08:11:08.285Z</time></trkpt><trkpt lat="43.7809457" lon="11.4881952"><ele>385.5</ele><time>2026-04-04T08:11:09.287Z</time></trkpt><trkpt lat="43.7809198" lon="11.4883555"><ele>385.75</ele><time>2026-04-04T08:11:10.289Z</time></trkpt><trkpt lat="43.7809186" lon="11.4885216"><ele>386.0</ele><time>2026-04-04T08:11:11.285Z</time></trkpt><trkpt lat="43.7809595" lon="11.4887081"><ele>390.66666666666663</ele><time>2026-04-04T08:11:12.292Z</time></trkpt><trkpt lat="43.7810302" lon="11.4888932"><ele>395.33333333333337</ele><time>2026-04-04T08:11:13.285Z</time></trkpt><trkpt lat="43.7811141" lon="11.4890902"><ele>400.0</ele><time>2026-04-04T08:11:14.285Z</time></trkpt><trkpt lat="43.7812162" lon="11.4892851"><ele>400.0</ele><time>2026-04-04T08:11:15.285Z</time></trkpt><trkpt lat="43.7813293" lon="11.4894662"><ele>400.0</ele><time>2026-04-04T08:11:16.289Z</time></trkpt><trkpt lat="43.7814584" lon="11.4896249"><ele>400.0</ele><time>2026-04-04T08:11:17.281Z</time></trkpt><trkpt lat="43.781612" lon="11.4897477"><ele>400.0</ele><time>2026-04-04T08:11:18.278Z</time></trkpt><trkpt lat="43.7817897" lon="11.489878"><ele>400.0</ele><time>2026-04-04T08:11:19.282Z</time></trkpt><trkpt lat="43.7819765" lon="11.4900157"><ele>400.0</ele><time>2026-04-04T08:11:20.286Z</time></trkpt><trkpt lat="43.7821534" lon="11.4901611"><ele>400.0</ele><time>2026-04-04T08:11:21.285Z</time></trkpt><trkpt lat="43.7823195" lon="11.4902992"><ele>400.0</ele><time>2026-04-04T08:11:22.283Z</time></trkpt><trkpt lat="43.7824677" lon="11.4904517"><ele>400.0</ele><time>2026-04-04T08:11:23.284Z</time></trkpt><trkpt lat="43.7825752" lon="11.4906495"><ele>400.0</ele><time>2026-04-04T08:11:24.288Z</time></trkpt><trkpt lat="43.7826395" lon="11.4908833"><ele>400.0</ele><time>2026-04-04T08:11:25.287Z</time></trkpt><trkpt lat="43.7826961" lon="11.4911461"><ele>400.0</ele><time>2026-04-04T08:11:26.29Z</time></trkpt><trkpt lat="43.782729" lon="11.4914191"><ele>404.6666666666667</ele><time>2026-04-04T08:11:27.286Z</time></trkpt><trkpt lat="43.7827667" lon="11.4916949"><ele>409.33333333333337</ele><time>2026-04-04T08:11:28.287Z</time></trkpt><trkpt lat="43.7827944" lon="11.4919599"><ele>414.0</ele><time>2026-04-04T08:11:29.283Z</time></trkpt><trkpt lat="43.7828161" lon="11.4922271"><ele>416.33333333333337</ele><time>2026-04-04T08:11:30.282Z</time></trkpt><trkpt lat="43.7828184" lon="11.4924875"><ele>418.6666666666667</ele><time>2026-04-04T08:11:31.28Z</time></trkpt><trkpt lat="43.782805" lon="11.4927263"><ele>421.0</ele><time>2026-04-04T08:11:32.296Z</time></trkpt><trkpt lat="43.7827786" lon="11.4929182"><ele>422.0</ele><time>2026-04-04T08:11:33.292Z</time></trkpt><trkpt lat="43.7827845" lon="11.4930957"><ele>423.0</ele><time>2026-04-04T08:11:34.288Z</time></trkpt><trkpt lat="43.7828223" lon="11.4932541"><ele>424.0</ele><time>2026-04-04T08:11:35.289Z</time></trkpt><trkpt lat="43.7829123" lon="11.4933906"><ele>425.0</ele><time>2026-04-04T08:11:36.293Z</time></trkpt><trkpt lat="43.783058" lon="11.4935253"><ele>425.0</ele><time>2026-04-04T08:11:37.286Z</time></trkpt><trkpt lat="43.7832302" lon="11.4936843"><ele>425.0</ele><time>2026-04-04T08:11:38.298Z</time></trkpt><trkpt lat="43.7833923" lon="11.4938539"><ele>425.0</ele><time>2026-04-04T08:11:39.285Z</time></trkpt><trkpt lat="43.7835361" lon="11.4940156"><ele>428.3333333333333</ele><time>2026-04-04T08:11:40.292Z</time></trkpt><trkpt lat="43.7836482" lon="11.494181"><ele>431.66666666666663</ele><time>2026-04-04T08:11:41.286Z</time></trkpt><trkpt lat="43.7837406" lon="11.4943538"><ele>435.0</ele><time>2026-04-04T08:11:42.286Z</time></trkpt><trkpt lat="43.7837603" lon="11.4945857"><ele>436.33333333333337</ele><time>2026-04-04T08:11:43.282Z</time></trkpt><trkpt lat="43.7837796" lon="11.4948291"><ele>437.6666666666667</ele><time>2026-04-04T08:11:44.285Z</time></trkpt><trkpt lat="43.7838148" lon="11.4950957"><ele>439.0</ele><time>2026-04-04T08:11:45.288Z</time></trkpt><trkpt lat="43.7838946" lon="11.4953658"><ele>441.0</ele><time>2026-04-04T08:11:46.288Z</time></trkpt><trkpt lat="43.783975" lon="11.495654"><ele>443.0</ele><time>2026-04-04T08:11:47.285Z</time></trkpt><trkpt lat="43.7840289" lon="11.4959296"><ele>445.0</ele><time>2026-04-04T08:11:48.289Z</time></trkpt><trkpt lat="43.7840577" lon="11.4961762"><ele>447.33333333333337</ele><time>2026-04-04T08:11:49.292Z</time></trkpt><trkpt lat="43.7840598" lon="11.4964139"><ele>449.66666666666663</ele><time>2026-04-04T08:11:50.283Z</time></trkpt><trkpt lat="43.7840518" lon="11.4966285"><ele>452.0</ele><time>2026-04-04T08:11:51.281Z</time></trkpt><trkpt lat="43.7840168" lon="11.4968588"><ele>452.0</ele><time>2026-04-04T08:11:52.288Z</time></trkpt><trkpt lat="43.7839277" lon="11.4970852"><ele>452.0</ele><time>2026-04-04T08:11:53.28Z</time></trkpt><trkpt lat="43.7838297" lon="11.4972893"><ele>452.0</ele><time>2026-04-04T08:11:54.282Z</time></trkpt><trkpt lat="43.7837444" lon="11.4974536"><ele>453.25</ele><time>2026-04-04T08:11:55.294Z</time></trkpt><trkpt lat="43.7837035" lon="11.4975991"><ele>454.5</ele><time>2026-04-04T08:11:56.288Z</time></trkpt><trkpt lat="43.7837099" lon="11.4977482"><ele>455.75</ele><time>2026-04-04T08:11:57.293Z</time></trkpt><trkpt lat="43.7837851" lon="11.4978827"><ele>457.0</ele><time>2026-04-04T08:11:58.291Z</time></trkpt><trkpt lat="43.7839111" lon="11.4980234"><ele>458.0</ele><time>2026-04-04T08:11:59.295Z</time></trkpt><trkpt lat="43.7840516" lon="11.4981724"><ele>459.0</ele><time>2026-04-04T08:12:00.291Z</time></trkpt><trkpt lat="43.7841944" lon="11.4983657"><ele>460.0</ele><time>2026-04-04T08:12:01.286Z</time></trkpt><trkpt lat="43.7843225" lon="11.498552"><ele>459.6666666666667</ele><time>2026-04-04T08:12:02.284Z</time></trkpt><trkpt lat="43.7844231" lon="11.4987389"><ele>459.33333333333337</ele><time>2026-04-04T08:12:03.283Z</time></trkpt><trkpt lat="43.7845032" lon="11.4988977"><ele>459.0</ele><time>2026-04-04T08:12:04.282Z</time></trkpt><trkpt lat="43.7845729" lon="11.4990734"><ele>459.66666666666663</ele><time>2026-04-04T08:12:05.288Z</time></trkpt><trkpt lat="43.7845823" lon="11.4992798"><ele>460.3333333333333</ele><time>2026-04-04T08:12:06.278Z</time></trkpt><trkpt lat="43.7845461" lon="11.4994896"><ele>461.0</ele><time>2026-04-04T08:12:07.296Z</time></trkpt><trkpt lat="43.7844872" lon="11.4997094"><ele>461.66666666666663</ele><time>2026-04-04T08:12:08.281Z</time></trkpt><trkpt lat="43.7844061" lon="11.4999443"><ele>462.33333333333337</ele><time>2026-04-04T08:12:09.285Z</time></trkpt><trkpt lat="43.7843373" lon="11.5001482"><ele>463.0</ele><time>2026-04-04T08:12:10.287Z</time></trkpt><trkpt lat="43.784286" lon="11.5003028"><ele>465.0</ele><time>2026-04-04T08:12:11.288Z</time></trkpt><trkpt lat="43.7842512" lon="11.5004434"><ele>466.99999999999994</ele><time>2026-04-04T08:12:12.288Z</time></trkpt><trkpt lat="43.7842284" lon="11.5005679"><ele>468.99999999999994</ele><time>2026-04-04T08:12:13.286Z</time></trkpt><trkpt lat="43.7842195" lon="11.5007135"><ele>471.0</ele><time>2026-04-04T08:12:14.291Z</time></trkpt><trkpt lat="43.7842295" lon="11.5008628"><ele>473.0</ele><time>2026-04-04T08:12:15.285Z</time></trkpt><trkpt lat="43.7842588" lon="11.5010112"><ele>473.0</ele><time>2026-04-04T08:12:16.287Z</time></trkpt><trkpt lat="43.7843121" lon="11.5011615"><ele>473.0</ele><time>2026-04-04T08:12:17.283Z</time></trkpt><trkpt lat="43.7843809" lon="11.5013157"><ele>473.0</ele><time>2026-04-04T08:12:18.281Z</time></trkpt><trkpt lat="43.7844507" lon="11.501469"><ele>473.0</ele><time>2026-04-04T08:12:19.284Z</time></trkpt><trkpt lat="43.7845144" lon="11.5016174"><ele>474.2</ele><time>2026-04-04T08:12:20.282Z</time></trkpt><trkpt lat="43.7845727" lon="11.5017517"><ele>475.4</ele><time>2026-04-04T08:12:21.284Z</time></trkpt><trkpt lat="43.7846221" lon="11.5018803"><ele>476.59999999999997</ele><time>2026-04-04T08:12:22.286Z</time></trkpt><trkpt lat="43.7846619" lon="11.5020133"><ele>477.79999999999995</ele><time>2026-04-04T08:12:23.279Z</time></trkpt><trkpt lat="43.784692" lon="11.5021477"><ele>479.0</ele><time>2026-04-04T08:12:24.271Z</time></trkpt><trkpt lat="43.7847063" lon="11.5022882"><ele>479.4</ele><time>2026-04-04T08:12:25.275Z</time></trkpt><trkpt lat="43.7847088" lon="11.5024289"><ele>479.79999999999995</ele><time>2026-04-04T08:12:26.274Z</time></trkpt><trkpt lat="43.7846943" lon="11.5025718"><ele>480.20000000000005</ele><time>2026-04-04T08:12:27.277Z</time></trkpt><trkpt lat="43.7846741" lon="11.5027142"><ele>480.6</ele><time>2026-04-04T08:12:28.279Z</time></trkpt><trkpt lat="43.784642" lon="11.5028553"><ele>481.0</ele><time>2026-04-04T08:12:29.28Z</time></trkpt><trkpt lat="43.7846027" lon="11.5029907"><ele>481.6</ele><time>2026-04-04T08:12:30.288Z</time></trkpt><trkpt lat="43.7845556" lon="11.5031244"><ele>482.20000000000005</ele><time>2026-04-04T08:12:31.282Z</time></trkpt><trkpt lat="43.7845202" lon="11.5032574"><ele>482.79999999999995</ele><time>2026-04-04T08:12:32.276Z</time></trkpt><trkpt lat="43.784504" lon="11.50338"><ele>483.4</ele><time>2026-04-04T08:12:33.277Z</time></trkpt><trkpt lat="43.7845001" lon="11.5034996"><ele>484.0</ele><time>2026-04-04T08:12:34.279Z</time></trkpt><trkpt lat="43.7845108" lon="11.503628"><ele>484.0</ele><time>2026-04-04T08:12:35.286Z</time></trkpt><trkpt lat="43.7845378" lon="11.5037602"><ele>484.0</ele><time>2026-04-04T08:12:36.292Z</time></trkpt><trkpt lat="43.7845643" lon="11.5038945"><ele>484.0</ele><time>2026-04-04T08:12:37.3Z</time></trkpt><trkpt lat="43.7845967" lon="11.5040337"><ele>484.0</ele><time>2026-04-04T08:12:38.291Z</time></trkpt><trkpt lat="43.7846288" lon="11.5041767"><ele>484.0</ele><time>2026-04-04T08:12:39.293Z</time></trkpt><trkpt lat="43.7846588" lon="11.5043229"><ele>484.0</ele><time>2026-04-04T08:12:40.3Z</time></trkpt><trkpt lat="43.7846869" lon="11.5044568"><ele>484.0</ele><time>2026-04-04T08:12:41.285Z</time></trkpt><trkpt lat="43.7847092" lon="11.5045838"><ele>484.0</ele><time>2026-04-04T08:12:42.287Z</time></trkpt><trkpt lat="43.7847369" lon="11.504723"><ele>484.0</ele><time>2026-04-04T08:12:43.284Z</time></trkpt><trkpt lat="43.7847572" lon="11.504875"><ele>484.0</ele><time>2026-04-04T08:12:44.285Z</time></trkpt><trkpt lat="43.7847825" lon="11.5050305"><ele>485.25</ele><time>2026-04-04T08:12:45.288Z</time></trkpt><trkpt lat="43.784807" lon="11.5051947"><ele>486.5</ele><time>2026-04-04T08:12:46.305Z</time></trkpt><trkpt lat="43.784834" lon="11.5053553"><ele>487.75</ele><time>2026-04-04T08:12:47.284Z</time></trkpt><trkpt lat="43.7848611" lon="11.5055193"><ele>489.0</ele><time>2026-04-04T08:12:48.293Z</time></trkpt><trkpt lat="43.7848845" lon="11.5056895"><ele>490.0</ele><time>2026-04-04T08:12:49.293Z</time></trkpt><trkpt lat="43.7849076" lon="11.5058774"><ele>491.0</ele><time>2026-04-04T08:12:50.284Z</time></trkpt><trkpt lat="43.784932" lon="11.5060978"><ele>492.0</ele><time>2026-04-04T08:12:51.289Z</time></trkpt><trkpt lat="43.7849526" lon="11.5063693"><ele>494.33333333333337</ele><time>2026-04-04T08:12:52.277Z</time></trkpt><trkpt lat="43.7849862" lon="11.506631"><ele>496.6666666666667</ele><time>2026-04-04T08:12:53.276Z</time></trkpt><trkpt lat="43.785026" lon="11.5069121"><ele>499.0</ele><time>2026-04-04T08:12:54.275Z</time></trkpt><trkpt lat="43.7850689" lon="11.5071986"><ele>498.6666666666667</ele><time>2026-04-04T08:12:55.282Z</time></trkpt><trkpt lat="43.7851263" lon="11.5074813"><ele>498.33333333333337</ele><time>2026-04-04T08:12:56.282Z</time></trkpt><trkpt lat="43.7851908" lon="11.5077566"><ele>498.0</ele><time>2026-04-04T08:12:57.285Z</time></trkpt><trkpt lat="43.7852695" lon="11.5080383"><ele>503.5</ele><time>2026-04-04T08:12:58.283Z</time></trkpt><trkpt lat="43.7853588" lon="11.5083239"><ele>509.0</ele><time>2026-04-04T08:12:59.277Z</time></trkpt><trkpt lat="43.7854677" lon="11.5086067"><ele>511.0</ele><time>2026-04-04T08:13:00.28Z</time></trkpt><trkpt lat="43.7855841" lon="11.5088519"><ele>513.0</ele><time>2026-04-04T08:13:01.289Z</time></trkpt><trkpt lat="43.7856789" lon="11.5090664"><ele>515.0</ele><time>2026-04-04T08:13:02.28Z</time></trkpt><trkpt lat="43.7857558" lon="11.5092571"><ele>515.0</ele><time>2026-04-04T08:13:03.281Z</time></trkpt><trkpt lat="43.7858462" lon="11.509426"><ele>515.0</ele><time>2026-04-04T08:13:04.286Z</time></trkpt><trkpt lat="43.7859617" lon="11.5095973"><ele>515.0</ele><time>2026-04-04T08:13:05.29Z</time></trkpt><trkpt lat="43.7860891" lon="11.5097617"><ele>515.6666666666666</ele><time>2026-04-04T08:13:06.292Z</time></trkpt><trkpt lat="43.7862391" lon="11.509938"><ele>516.3333333333334</ele><time>2026-04-04T08:13:07.274Z</time></trkpt><trkpt lat="43.7863928" lon="11.5101144"><ele>517.0</ele><time>2026-04-04T08:13:08.288Z</time></trkpt><trkpt lat="43.7865252" lon="11.5102748"><ele>517.0</ele><time>2026-04-04T08:13:09.283Z</time></trkpt><trkpt lat="43.7866403" lon="11.5103974"><ele>517.0</ele><time>2026-04-04T08:13:10.281Z</time></trkpt><trkpt lat="43.7867409" lon="11.5104986"><ele>517.0</ele><time>2026-04-04T08:13:11.286Z</time></trkpt><trkpt lat="43.7868218" lon="11.5105972"><ele>517.0</ele><time>2026-04-04T08:13:12.28Z</time></trkpt><trkpt lat="43.7868909" lon="11.5107003"><ele>518.0</ele><time>2026-04-04T08:13:13.278Z</time></trkpt><trkpt lat="43.7869476" lon="11.5107874"><ele>519.0</ele><time>2026-04-04T08:13:14.28Z</time></trkpt><trkpt lat="43.787022" lon="11.5108862"><ele>520.0</ele><time>2026-04-04T08:13:15.283Z</time></trkpt><trkpt lat="43.7870899" lon="11.5109772"><ele>521.0</ele><time>2026-04-04T08:13:16.285Z</time></trkpt><trkpt lat="43.7871632" lon="11.5110695"><ele>522.0</ele><time>2026-04-04T08:13:17.283Z</time></trkpt><trkpt lat="43.78724" lon="11.5111526"><ele>522.6</ele><time>2026-04-04T08:13:18.287Z</time></trkpt><trkpt lat="43.7873127" lon="11.5112439"><ele>523.2</ele><time>2026-04-04T08:13:19.284Z</time></trkpt><trkpt lat="43.7873817" lon="11.5113313"><ele>523.8</ele><time>2026-04-04T08:13:20.288Z</time></trkpt><trkpt lat="43.7874613" lon="11.5114283"><ele>524.4</ele><time>2026-04-04T08:13:21.285Z</time></trkpt><trkpt lat="43.7875439" lon="11.5115313"><ele>525.0</ele><time>2026-04-04T08:13:22.28Z</time></trkpt><trkpt lat="43.7876293" lon="11.5116466"><ele>524.75</ele><time>2026-04-04T08:13:23.288Z</time></trkpt><trkpt lat="43.7877199" lon="11.511776"><ele>524.5</ele><time>2026-04-04T08:13:24.294Z</time></trkpt><trkpt lat="43.7878181" lon="11.5119094"><ele>524.25</ele><time>2026-04-04T08:13:25.299Z</time></trkpt><trkpt lat="43.7879223" lon="11.5120547"><ele>524.0</ele><time>2026-04-04T08:13:26.281Z</time></trkpt><trkpt lat="43.7880479" lon="11.5122335"><ele>525.6666666666666</ele><time>2026-04-04T08:13:27.29Z</time></trkpt><trkpt lat="43.7882101" lon="11.5124317"><ele>527.3333333333334</ele><time>2026-04-04T08:13:28.288Z</time></trkpt><trkpt lat="43.7883699" lon="11.5126388"><ele>529.0</ele><time>2026-04-04T08:13:29.285Z</time></trkpt><trkpt lat="43.7885211" lon="11.5128328"><ele>531.3333333333334</ele><time>2026-04-04T08:13:30.284Z</time></trkpt><trkpt lat="43.788659" lon="11.5130045"><ele>533.6666666666666</ele><time>2026-04-04T08:13:31.281Z</time></trkpt><trkpt lat="43.7887761" lon="11.5131514"><ele>536.0</ele><time>2026-04-04T08:13:32.298Z</time></trkpt><trkpt lat="43.788896" lon="11.5132727"><ele>536.0</ele><time>2026-04-04T08:13:33.279Z</time></trkpt><trkpt lat="43.7890269" lon="11.5133678"><ele>536.0</ele><time>2026-04-04T08:13:34.281Z</time></trkpt><trkpt lat="43.7891827" lon="11.5134178"><ele>536.0</ele><time>2026-04-04T08:13:35.277Z</time></trkpt><trkpt lat="43.7893494" lon="11.5134264"><ele>538.6666666666666</ele><time>2026-04-04T08:13:36.279Z</time></trkpt><trkpt lat="43.7895513" lon="11.5134056"><ele>541.3333333333334</ele><time>2026-04-04T08:13:37.282Z</time></trkpt><trkpt lat="43.7897553" lon="11.5133514"><ele>544.0</ele><time>2026-04-04T08:13:38.284Z</time></trkpt><trkpt lat="43.7899591" lon="11.5132742"><ele>544.0</ele><time>2026-04-04T08:13:39.293Z</time></trkpt><trkpt lat="43.7901609" lon="11.5132005"><ele>544.0</ele><time>2026-04-04T08:13:40.284Z</time></trkpt><trkpt lat="43.7903443" lon="11.5131298"><ele>544.0</ele><time>2026-04-04T08:13:41.295Z</time></trkpt><trkpt lat="43.7904955" lon="11.5130909"><ele>547.0</ele><time>2026-04-04T08:13:42.282Z</time></trkpt><trkpt lat="43.790641" lon="11.5130427"><ele>550.0</ele><time>2026-04-04T08:13:43.284Z</time></trkpt><trkpt lat="43.7907763" lon="11.5130081"><ele>553.0</ele><time>2026-04-04T08:13:44.281Z</time></trkpt><trkpt lat="43.7908882" lon="11.5129759"><ele>556.0</ele><time>2026-04-04T08:13:45.281Z</time></trkpt><trkpt lat="43.7909981" lon="11.512957"><ele>558.0</ele><time>2026-04-04T08:13:46.283Z</time></trkpt><trkpt lat="43.7910871" lon="11.5129266"><ele>560.0</ele><time>2026-04-04T08:13:47.28Z</time></trkpt><trkpt lat="43.7912024" lon="11.5129326"><ele>562.0</ele><time>2026-04-04T08:13:49.282Z</time></trkpt><trkpt lat="43.7912883" lon="11.5129475"><ele>564.0</ele><time>2026-04-04T08:13:50.276Z</time></trkpt><trkpt lat="43.7913871" lon="11.5129667"><ele>566.0</ele><time>2026-04-04T08:13:51.283Z</time></trkpt><trkpt lat="43.7915127" lon="11.5129984"><ele>566.0</ele><time>2026-04-04T08:13:52.279Z</time></trkpt><trkpt lat="43.7916846" lon="11.5130569"><ele>566.0</ele><time>2026-04-04T08:13:53.274Z</time></trkpt><trkpt lat="43.7918698" lon="11.5131137"><ele>566.0</ele><time>2026-04-04T08:13:54.275Z</time></trkpt><trkpt lat="43.7920447" lon="11.5131828"><ele>567.75</ele><time>2026-04-04T08:13:55.277Z</time></trkpt><trkpt lat="43.7921967" lon="11.5132499"><ele>569.5</ele><time>2026-04-04T08:13:56.279Z</time></trkpt><trkpt lat="43.7923328" lon="11.5133308"><ele>571.25</ele><time>2026-04-04T08:13:57.28Z</time></trkpt><trkpt lat="43.7924307" lon="11.513439"><ele>573.0</ele><time>2026-04-04T08:13:58.281Z</time></trkpt><trkpt lat="43.7924951" lon="11.5135829"><ele>576.25</ele><time>2026-04-04T08:13:59.281Z</time></trkpt><trkpt lat="43.7925283" lon="11.5137512"><ele>579.5</ele><time>2026-04-04T08:14:00.277Z</time></trkpt><trkpt lat="43.7925292" lon="11.5139196"><ele>582.75</ele><time>2026-04-04T08:14:01.275Z</time></trkpt><trkpt lat="43.7925216" lon="11.5140783"><ele>586.0</ele><time>2026-04-04T08:14:02.277Z</time></trkpt><trkpt lat="43.7924754" lon="11.5142377"><ele>586.0</ele><time>2026-04-04T08:14:03.276Z</time></trkpt><trkpt lat="43.7923902" lon="11.5143658"><ele>586.0</ele><time>2026-04-04T08:14:04.277Z</time></trkpt><trkpt lat="43.7922602" lon="11.5144574"><ele>586.0</ele><time>2026-04-04T08:14:05.282Z</time></trkpt><trkpt lat="43.7920881" lon="11.5145378"><ele>589.6666666666667</ele><time>2026-04-04T08:14:06.277Z</time></trkpt><trkpt lat="43.7919003" lon="11.5146192"><ele>593.3333333333334</ele><time>2026-04-04T08:14:07.277Z</time></trkpt><trkpt lat="43.7917234" lon="11.5147131"><ele>597.0</ele><time>2026-04-04T08:14:08.281Z</time></trkpt><trkpt lat="43.791577" lon="11.5148054"><ele>597.0</ele><time>2026-04-04T08:14:09.28Z</time></trkpt><trkpt lat="43.7914486" lon="11.5149141"><ele>597.0</ele><time>2026-04-04T08:14:10.288Z</time></trkpt><trkpt lat="43.7913365" lon="11.5150181"><ele>597.0</ele><time>2026-04-04T08:14:11.279Z</time></trkpt><trkpt lat="43.7912374" lon="11.5151115"><ele>597.0</ele><time>2026-04-04T08:14:12.277Z</time></trkpt><trkpt lat="43.7911517" lon="11.5152231"><ele>597.0</ele><time>2026-04-04T08:14:13.288Z</time></trkpt><trkpt lat="43.7910971" lon="11.515335"><ele>597.0</ele><time>2026-04-04T08:14:14.291Z</time></trkpt><trkpt lat="43.7911012" lon="11.5154744"><ele>597.0</ele><time>2026-04-04T08:14:15.293Z</time></trkpt><trkpt lat="43.7911513" lon="11.5156065"><ele>597.0</ele><time>2026-04-04T08:14:16.298Z</time></trkpt><trkpt lat="43.79122" lon="11.5157152"><ele>597.0</ele><time>2026-04-04T08:14:17.291Z</time></trkpt><trkpt lat="43.7913335" lon="11.5158232"><ele>599.0</ele><time>2026-04-04T08:14:18.301Z</time></trkpt><trkpt lat="43.7914502" lon="11.5159459"><ele>601.0</ele><time>2026-04-04T08:14:19.294Z</time></trkpt><trkpt lat="43.7915712" lon="11.5160775"><ele>603.0</ele><time>2026-04-04T08:14:20.292Z</time></trkpt><trkpt lat="43.7916943" lon="11.5162115"><ele>600.0</ele><time>2026-04-04T08:14:21.291Z</time></trkpt><trkpt lat="43.7917982" lon="11.5163353"><ele>597.0</ele><time>2026-04-04T08:14:22.282Z</time></trkpt><trkpt lat="43.7918757" lon="11.5164469"><ele>594.0</ele><time>2026-04-04T08:14:23.288Z</time></trkpt><trkpt lat="43.7919565" lon="11.5165743"><ele>591.0</ele><time>2026-04-04T08:14:24.283Z</time></trkpt><trkpt lat="43.7920652" lon="11.5167265"><ele>595.6666666666666</ele><time>2026-04-04T08:14:25.287Z</time></trkpt><trkpt lat="43.7922168" lon="11.5168823"><ele>600.3333333333333</ele><time>2026-04-04T08:14:26.284Z</time></trkpt><trkpt lat="43.7924146" lon="11.5170153"><ele>605.0</ele><time>2026-04-04T08:14:27.282Z</time></trkpt><trkpt lat="43.7926088" lon="11.5171944"><ele>620.0</ele><time>2026-04-04T08:14:28.279Z</time></trkpt><trkpt lat="43.7927907" lon="11.5174155"><ele>635.0</ele><time>2026-04-04T08:14:29.274Z</time></trkpt><trkpt lat="43.7929324" lon="11.5176408"><ele>635.0</ele><time>2026-04-04T08:14:30.285Z</time></trkpt><trkpt lat="43.7930714" lon="11.5178436"><ele>635.0</ele><time>2026-04-04T08:14:31.272Z</time></trkpt><trkpt lat="43.7931973" lon="11.5180303"><ele>635.0</ele><time>2026-04-04T08:14:32.275Z</time></trkpt><trkpt lat="43.7932961" lon="11.5181923"><ele>635.4</ele><time>2026-04-04T08:14:33.269Z</time></trkpt><trkpt lat="43.7933695" lon="11.5183354"><ele>635.8</ele><time>2026-04-04T08:14:34.263Z</time></trkpt><trkpt lat="43.7934322" lon="11.5184661"><ele>636.2</ele><time>2026-04-04T08:14:35.266Z</time></trkpt><trkpt lat="43.7934818" lon="11.5185854"><ele>636.6</ele><time>2026-04-04T08:14:36.269Z</time></trkpt><trkpt lat="43.7935197" lon="11.5187013"><ele>637.0</ele><time>2026-04-04T08:14:37.27Z</time></trkpt><trkpt lat="43.7935408" lon="11.518822"><ele>635.25</ele><time>2026-04-04T08:14:38.276Z</time></trkpt><trkpt lat="43.7935044" lon="11.5189523"><ele>633.5</ele><time>2026-04-04T08:14:39.276Z</time></trkpt><trkpt lat="43.7934184" lon="11.5190713"><ele>631.75</ele><time>2026-04-04T08:14:40.271Z</time></trkpt><trkpt lat="43.7933157" lon="11.5192067"><ele>630.0</ele><time>2026-04-04T08:14:41.287Z</time></trkpt><trkpt lat="43.7931984" lon="11.5193397"><ele>630.0</ele><time>2026-04-04T08:14:42.282Z</time></trkpt><trkpt lat="43.7930566" lon="11.5194773"><ele>630.0</ele><time>2026-04-04T08:14:43.284Z</time></trkpt><trkpt lat="43.7929164" lon="11.5196044"><ele>630.0</ele><time>2026-04-04T08:14:44.287Z</time></trkpt><trkpt lat="43.7927827" lon="11.5197478"><ele>629.0</ele><time>2026-04-04T08:14:45.284Z</time></trkpt><trkpt lat="43.7926735" lon="11.5199371"><ele>628.0</ele><time>2026-04-04T08:14:46.286Z</time></trkpt><trkpt lat="43.7925913" lon="11.5201325"><ele>627.0</ele><time>2026-04-04T08:14:47.284Z</time></trkpt><trkpt lat="43.7925358" lon="11.5203182"><ele>631.0</ele><time>2026-04-04T08:14:48.281Z</time></trkpt><trkpt lat="43.7925164" lon="11.5205125"><ele>635.0</ele><time>2026-04-04T08:14:49.28Z</time></trkpt><trkpt lat="43.7925208" lon="11.5207205"><ele>639.0</ele><time>2026-04-04T08:14:50.282Z</time></trkpt><trkpt lat="43.7925739" lon="11.5209447"><ele>639.0</ele><time>2026-04-04T08:14:51.277Z</time></trkpt><trkpt lat="43.7926296" lon="11.5212015"><ele>639.0</ele><time>2026-04-04T08:14:52.274Z</time></trkpt><trkpt lat="43.7926561" lon="11.5214849"><ele>639.0</ele><time>2026-04-04T08:14:53.274Z</time></trkpt><trkpt lat="43.7926724" lon="11.521778"><ele>648.3333333333334</ele><time>2026-04-04T08:14:54.276Z</time></trkpt><trkpt lat="43.7926793" lon="11.5220395"><ele>657.6666666666667</ele><time>2026-04-04T08:14:55.277Z</time></trkpt><trkpt lat="43.7926957" lon="11.5222504"><ele>667.0</ele><time>2026-04-04T08:14:56.278Z</time></trkpt><trkpt lat="43.7927398" lon="11.5224593"><ele>668.5</ele><time>2026-04-04T08:14:57.28Z</time></trkpt><trkpt lat="43.7927782" lon="11.5226688"><ele>670.0</ele><time>2026-04-04T08:14:58.279Z</time></trkpt><trkpt lat="43.7928053" lon="11.5228542"><ele>671.5</ele><time>2026-04-04T08:14:59.275Z</time></trkpt><trkpt lat="43.7927865" lon="11.5230424"><ele>673.0</ele><time>2026-04-04T08:15:00.27Z</time></trkpt><trkpt lat="43.7927384" lon="11.5232377"><ele>674.3333333333334</ele><time>2026-04-04T08:15:01.277Z</time></trkpt><trkpt lat="43.7926374" lon="11.5234395"><ele>675.6666666666666</ele><time>2026-04-04T08:15:02.273Z</time></trkpt><trkpt lat="43.792526" lon="11.5236517"><ele>677.0</ele><time>2026-04-04T08:15:03.279Z</time></trkpt><trkpt lat="43.7924348" lon="11.5238696"><ele>677.0</ele><time>2026-04-04T08:15:04.278Z</time></trkpt><trkpt lat="43.7923492" lon="11.5240837"><ele>677.0</ele><time>2026-04-04T08:15:05.281Z</time></trkpt><trkpt lat="43.7922723" lon="11.5242667"><ele>677.0</ele><time>2026-04-04T08:15:06.272Z</time></trkpt><trkpt lat="43.7921681" lon="11.524386"><ele>677.0</ele><time>2026-04-04T08:15:07.289Z</time></trkpt><trkpt lat="43.792044" lon="11.5244658"><ele>677.0</ele><time>2026-04-04T08:15:08.281Z</time></trkpt><trkpt lat="43.7919493" lon="11.5245378"><ele>677.0</ele><time>2026-04-04T08:15:09.28Z</time></trkpt><trkpt lat="43.791894" lon="11.5246281"><ele>677.0</ele><time>2026-04-04T08:15:10.286Z</time></trkpt><trkpt lat="43.7918815" lon="11.524768"><ele>677.0</ele><time>2026-04-04T08:15:11.277Z</time></trkpt><trkpt lat="43.7919093" lon="11.5249319"><ele>681.0</ele><time>2026-04-04T08:15:12.288Z</time></trkpt><trkpt lat="43.7919884" lon="11.5251318"><ele>685.0</ele><time>2026-04-04T08:15:13.278Z</time></trkpt><trkpt lat="43.792053" lon="11.5253321"><ele>689.0</ele><time>2026-04-04T08:15:14.274Z</time></trkpt><trkpt lat="43.792095" lon="11.525517"><ele>693.3333333333333</ele><time>2026-04-04T08:15:15.28Z</time></trkpt><trkpt lat="43.7920883" lon="11.5257077"><ele>697.6666666666666</ele><time>2026-04-04T08:15:16.275Z</time></trkpt><trkpt lat="43.7920129" lon="11.5259009"><ele>702.0</ele><time>2026-04-04T08:15:17.272Z</time></trkpt><trkpt lat="43.7919312" lon="11.5260944"><ele>706.6666666666666</ele><time>2026-04-04T08:15:18.272Z</time></trkpt><trkpt lat="43.7918524" lon="11.5262822"><ele>711.3333333333333</ele><time>2026-04-04T08:15:19.277Z</time></trkpt><trkpt lat="43.7917946" lon="11.5264858"><ele>716.0</ele><time>2026-04-04T08:15:20.272Z</time></trkpt><trkpt lat="43.7917676" lon="11.5266799"><ele>709.0</ele><time>2026-04-04T08:15:21.273Z</time></trkpt><trkpt lat="43.7917763" lon="11.526883"><ele>702.0</ele><time>2026-04-04T08:15:22.275Z</time></trkpt><trkpt lat="43.7918025" lon="11.5270953"><ele>695.0</ele><time>2026-04-04T08:15:23.273Z</time></trkpt><trkpt lat="43.7918031" lon="11.5273021"><ele>695.0</ele><time>2026-04-04T08:15:24.269Z</time></trkpt><trkpt lat="43.791775" lon="11.5274647"><ele>695.0</ele><time>2026-04-04T08:15:25.274Z</time></trkpt><trkpt lat="43.7916908" lon="11.527615"><ele>695.0</ele><time>2026-04-04T08:15:26.273Z</time></trkpt><trkpt lat="43.7916311" lon="11.5277797"><ele>695.0</ele><time>2026-04-04T08:15:27.278Z</time></trkpt><trkpt lat="43.7916121" lon="11.5279481"><ele>695.6666666666666</ele><time>2026-04-04T08:15:28.276Z</time></trkpt><trkpt lat="43.791657" lon="11.528137"><ele>696.3333333333334</ele><time>2026-04-04T08:15:29.272Z</time></trkpt><trkpt lat="43.7917531" lon="11.5283227"><ele>697.0</ele><time>2026-04-04T08:15:30.274Z</time></trkpt><trkpt lat="43.7918595" lon="11.528535"><ele>707.3333333333334</ele><time>2026-04-04T08:15:31.274Z</time></trkpt><trkpt lat="43.7919538" lon="11.5287587"><ele>717.6666666666666</ele><time>2026-04-04T08:15:32.27Z</time></trkpt><trkpt lat="43.7920219" lon="11.529015"><ele>728.0</ele><time>2026-04-04T08:15:33.273Z</time></trkpt><trkpt lat="43.7920529" lon="11.5292712"><ele>728.0</ele><time>2026-04-04T08:15:34.271Z</time></trkpt><trkpt lat="43.7920717" lon="11.5295005"><ele>728.0</ele><time>2026-04-04T08:15:35.271Z</time></trkpt><trkpt lat="43.792079" lon="11.5296744"><ele>728.0</ele><time>2026-04-04T08:15:36.271Z</time></trkpt><trkpt lat="43.7921377" lon="11.5298442"><ele>728.0</ele><time>2026-04-04T08:15:37.274Z</time></trkpt><trkpt lat="43.7922384" lon="11.5300019"><ele>725.3333333333333</ele><time>2026-04-04T08:15:38.276Z</time></trkpt><trkpt lat="43.7923495" lon="11.5301507"><ele>722.6666666666666</ele><time>2026-04-04T08:15:39.279Z</time></trkpt><trkpt lat="43.7924974" lon="11.5302647"><ele>720.0</ele><time>2026-04-04T08:15:40.276Z</time></trkpt><trkpt lat="43.7926419" lon="11.5303788"><ele>724.75</ele><time>2026-04-04T08:15:41.277Z</time></trkpt><trkpt lat="43.7927965" lon="11.5304833"><ele>729.5</ele><time>2026-04-04T08:15:42.27Z</time></trkpt><trkpt lat="43.7929288" lon="11.5305568"><ele>734.25</ele><time>2026-04-04T08:15:43.284Z</time></trkpt><trkpt lat="43.7930329" lon="11.5305938"><ele>739.0</ele><time>2026-04-04T08:15:44.275Z</time></trkpt><trkpt lat="43.7931402" lon="11.5306753"><ele>739.0</ele><time>2026-04-04T08:15:45.274Z</time></trkpt><trkpt lat="43.7932101" lon="11.5308021"><ele>739.0</ele><time>2026-04-04T08:15:46.271Z</time></trkpt><trkpt lat="43.7932373" lon="11.5309879"><ele>739.0</ele><time>2026-04-04T08:15:47.275Z</time></trkpt><trkpt lat="43.793209" lon="11.5311808"><ele>739.0</ele><time>2026-04-04T08:15:48.269Z</time></trkpt><trkpt lat="43.79317" lon="11.5313828"><ele>740.0</ele><time>2026-04-04T08:15:49.267Z</time></trkpt><trkpt lat="43.7931303" lon="11.5315963"><ele>741.0</ele><time>2026-04-04T08:15:50.267Z</time></trkpt><trkpt lat="43.7931199" lon="11.5318242"><ele>742.0</ele><time>2026-04-04T08:15:51.267Z</time></trkpt><trkpt lat="43.7931007" lon="11.5320982"><ele>743.6666666666667</ele><time>2026-04-04T08:15:52.271Z</time></trkpt><trkpt lat="43.7930688" lon="11.5323736"><ele>745.3333333333334</ele><time>2026-04-04T08:15:53.271Z</time></trkpt><trkpt lat="43.7930352" lon="11.5326188"><ele>747.0</ele><time>2026-04-04T08:15:54.271Z</time></trkpt><trkpt lat="43.7930054" lon="11.5328259"><ele>747.25</ele><time>2026-04-04T08:15:55.27Z</time></trkpt><trkpt lat="43.7929793" lon="11.5330174"><ele>747.5</ele><time>2026-04-04T08:15:56.276Z</time></trkpt><trkpt lat="43.7929595" lon="11.5331935"><ele>747.75</ele><time>2026-04-04T08:15:57.28Z</time></trkpt><trkpt lat="43.7929657" lon="11.5333604"><ele>748.0</ele><time>2026-04-04T08:15:58.277Z</time></trkpt><trkpt lat="43.7929843" lon="11.5335193"><ele>748.0</ele><time>2026-04-04T08:15:59.279Z</time></trkpt><trkpt lat="43.7930044" lon="11.5336855"><ele>748.0</ele><time>2026-04-04T08:16:00.277Z</time></trkpt><trkpt lat="43.7930013" lon="11.5338529"><ele>748.0</ele><time>2026-04-04T08:16:01.273Z</time></trkpt><trkpt lat="43.7929964" lon="11.5340155"><ele>748.0</ele><time>2026-04-04T08:16:02.279Z</time></trkpt><trkpt lat="43.793001" lon="11.5341773"><ele>747.25</ele><time>2026-04-04T08:16:03.278Z</time></trkpt><trkpt lat="43.7930151" lon="11.5343409"><ele>746.5</ele><time>2026-04-04T08:16:04.277Z</time></trkpt><trkpt lat="43.7930444" lon="11.5345116"><ele>745.75</ele><time>2026-04-04T08:16:05.275Z</time></trkpt><trkpt lat="43.7930766" lon="11.5346798"><ele>745.0</ele><time>2026-04-04T08:16:06.274Z</time></trkpt><trkpt lat="43.793117" lon="11.5348644"><ele>743.0</ele><time>2026-04-04T08:16:07.273Z</time></trkpt><trkpt lat="43.7931627" lon="11.5350498"><ele>741.0</ele><time>2026-04-04T08:16:08.271Z</time></trkpt><trkpt lat="43.7932179" lon="11.5352387"><ele>739.0</ele><time>2026-04-04T08:16:09.273Z</time></trkpt><trkpt lat="43.7932795" lon="11.5354174"><ele>737.0</ele><time>2026-04-04T08:16:10.271Z</time></trkpt><trkpt lat="43.7933394" lon="11.5355763"><ele>735.8</ele><time>2026-04-04T08:16:11.273Z</time></trkpt><trkpt lat="43.7933972" lon="11.535714"><ele>734.6</ele><time>2026-04-04T08:16:12.274Z</time></trkpt><trkpt lat="43.7934361" lon="11.5358359"><ele>733.4</ele><time>2026-04-04T08:16:13.283Z</time></trkpt><trkpt lat="43.7934808" lon="11.5359584"><ele>732.1999999999999</ele><time>2026-04-04T08:16:14.274Z</time></trkpt><trkpt lat="43.7935241" lon="11.5360703"><ele>731.0</ele><time>2026-04-04T08:16:15.276Z</time></trkpt><trkpt lat="43.7935627" lon="11.5361846"><ele>734.0</ele><time>2026-04-04T08:16:16.279Z</time></trkpt><trkpt lat="43.7936034" lon="11.5362954"><ele>737.0</ele><time>2026-04-04T08:16:17.28Z</time></trkpt><trkpt lat="43.7936378" lon="11.5364056"><ele>740.0</ele><time>2026-04-04T08:16:18.276Z</time></trkpt><trkpt lat="43.7936737" lon="11.5365162"><ele>743.0</ele><time>2026-04-04T08:16:19.278Z</time></trkpt><trkpt lat="43.7937141" lon="11.536631"><ele>746.0</ele><time>2026-04-04T08:16:20.278Z</time></trkpt><trkpt lat="43.7937502" lon="11.5367451"><ele>749.0</ele><time>2026-04-04T08:16:21.278Z</time></trkpt><trkpt lat="43.7937921" lon="11.536862"><ele>749.0</ele><time>2026-04-04T08:16:22.278Z</time></trkpt><trkpt lat="43.7938363" lon="11.5369765"><ele>749.0</ele><time>2026-04-04T08:16:23.277Z</time></trkpt><trkpt lat="43.7938856" lon="11.537092"><ele>749.0</ele><time>2026-04-04T08:16:24.278Z</time></trkpt><trkpt lat="43.7939415" lon="11.5372147"><ele>749.0</ele><time>2026-04-04T08:16:25.287Z</time></trkpt><trkpt lat="43.7940126" lon="11.5373514"><ele>749.0</ele><time>2026-04-04T08:16:26.283Z</time></trkpt><trkpt lat="43.794116" lon="11.5375002"><ele>748.0</ele><time>2026-04-04T08:16:27.279Z</time></trkpt><trkpt lat="43.794237" lon="11.5376503"><ele>747.0</ele><time>2026-04-04T08:16:28.278Z</time></trkpt><trkpt lat="43.7943648" lon="11.5378071"><ele>746.0</ele><time>2026-04-04T08:16:29.278Z</time></trkpt><trkpt lat="43.7944593" lon="11.537968"><ele>744.75</ele><time>2026-04-04T08:16:30.28Z</time></trkpt><trkpt lat="43.7944985" lon="11.5381191"><ele>743.5</ele><time>2026-04-04T08:16:31.28Z</time></trkpt><trkpt lat="43.7944957" lon="11.5382942"><ele>742.25</ele><time>2026-04-04T08:16:32.278Z</time></trkpt><trkpt lat="43.7944541" lon="11.5384553"><ele>741.0</ele><time>2026-04-04T08:16:33.275Z</time></trkpt><trkpt lat="43.7944313" lon="11.5386179"><ele>740.25</ele><time>2026-04-04T08:16:34.281Z</time></trkpt><trkpt lat="43.7944355" lon="11.5387766"><ele>739.5</ele><time>2026-04-04T08:16:35.277Z</time></trkpt><trkpt lat="43.7944941" lon="11.5389181"><ele>738.75</ele><time>2026-04-04T08:16:36.277Z</time></trkpt><trkpt lat="43.7945863" lon="11.5390258"><ele>738.0</ele><time>2026-04-04T08:16:37.278Z</time></trkpt><trkpt lat="43.7946881" lon="11.5391086"><ele>738.0</ele><time>2026-04-04T08:16:38.274Z</time></trkpt><trkpt lat="43.7948203" lon="11.5391777"><ele>738.0</ele><time>2026-04-04T08:16:39.273Z</time></trkpt><trkpt lat="43.7949433" lon="11.5392541"><ele>738.0</ele><time>2026-04-04T08:16:40.273Z</time></trkpt><trkpt lat="43.7950549" lon="11.5393286"><ele>738.0</ele><time>2026-04-04T08:16:41.278Z</time></trkpt><trkpt lat="43.7951521" lon="11.539395"><ele>737.2</ele><time>2026-04-04T08:16:42.277Z</time></trkpt><trkpt lat="43.7952358" lon="11.5394692"><ele>736.4</ele><time>2026-04-04T08:16:43.272Z</time></trkpt><trkpt lat="43.795299" lon="11.5395599"><ele>735.6</ele><time>2026-04-04T08:16:44.288Z</time></trkpt><trkpt lat="43.7953475" lon="11.5396593"><ele>734.8000000000001</ele><time>2026-04-04T08:16:45.28Z</time></trkpt><trkpt lat="43.7953892" lon="11.5397688"><ele>734.0</ele><time>2026-04-04T08:16:46.279Z</time></trkpt><trkpt lat="43.7954156" lon="11.5398867"><ele>734.0</ele><time>2026-04-04T08:16:47.279Z</time></trkpt><trkpt lat="43.7954325" lon="11.5400175"><ele>734.0</ele><time>2026-04-04T08:16:48.277Z</time></trkpt><trkpt lat="43.7954238" lon="11.5401565"><ele>734.0</ele><time>2026-04-04T08:16:49.279Z</time></trkpt><trkpt lat="43.7954062" lon="11.5402944"><ele>734.0</ele><time>2026-04-04T08:16:50.278Z</time></trkpt><trkpt lat="43.7953801" lon="11.5404301"><ele>734.0</ele><time>2026-04-04T08:16:51.281Z</time></trkpt><trkpt lat="43.7953566" lon="11.5405706"><ele>735.5</ele><time>2026-04-04T08:16:52.283Z</time></trkpt><trkpt lat="43.7953293" lon="11.5407181"><ele>737.0</ele><time>2026-04-04T08:16:53.279Z</time></trkpt><trkpt lat="43.7952982" lon="11.5408766"><ele>738.5</ele><time>2026-04-04T08:16:54.275Z</time></trkpt><trkpt lat="43.7952773" lon="11.5410463"><ele>740.0</ele><time>2026-04-04T08:16:55.279Z</time></trkpt><trkpt lat="43.79526" lon="11.5412101"><ele>741.5</ele><time>2026-04-04T08:16:56.277Z</time></trkpt><trkpt lat="43.7952483" lon="11.5413714"><ele>743.0</ele><time>2026-04-04T08:16:57.288Z</time></trkpt><trkpt lat="43.7952547" lon="11.5415271"><ele>744.5</ele><time>2026-04-04T08:16:58.287Z</time></trkpt><trkpt lat="43.7952731" lon="11.5416863"><ele>746.0</ele><time>2026-04-04T08:16:59.28Z</time></trkpt><trkpt lat="43.7952934" lon="11.5418431"><ele>746.0</ele><time>2026-04-04T08:17:00.279Z</time></trkpt><trkpt lat="43.7953203" lon="11.5419982"><ele>746.0</ele><time>2026-04-04T08:17:01.287Z</time></trkpt><trkpt lat="43.7953444" lon="11.5421505"><ele>746.0</ele><time>2026-04-04T08:17:02.292Z</time></trkpt><trkpt lat="43.7953667" lon="11.542292"><ele>746.0</ele><time>2026-04-04T08:17:03.288Z</time></trkpt><trkpt lat="43.7953826" lon="11.5424257"><ele>746.0</ele><time>2026-04-04T08:17:04.291Z</time></trkpt><trkpt lat="43.7953948" lon="11.5425562"><ele>746.4</ele><time>2026-04-04T08:17:05.285Z</time></trkpt><trkpt lat="43.7953953" lon="11.5426845"><ele>746.8</ele><time>2026-04-04T08:17:06.287Z</time></trkpt><trkpt lat="43.7953863" lon="11.5428158"><ele>747.1999999999999</ele><time>2026-04-04T08:17:07.288Z</time></trkpt><trkpt lat="43.7953635" lon="11.5429491"><ele>747.5999999999999</ele><time>2026-04-04T08:17:08.295Z</time></trkpt><trkpt lat="43.7953332" lon="11.5430908"><ele>748.0</ele><time>2026-04-04T08:17:09.291Z</time></trkpt><trkpt lat="43.7953031" lon="11.543246"><ele>747.0</ele><time>2026-04-04T08:17:10.29Z</time></trkpt><trkpt lat="43.7952696" lon="11.5434067"><ele>746.0</ele><time>2026-04-04T08:17:11.294Z</time></trkpt><trkpt lat="43.7952443" lon="11.543552"><ele>745.0</ele><time>2026-04-04T08:17:12.29Z</time></trkpt><trkpt lat="43.7952217" lon="11.5436801"><ele>744.0</ele><time>2026-04-04T08:17:13.29Z</time></trkpt><trkpt lat="43.7951937" lon="11.5437992"><ele>743.0</ele><time>2026-04-04T08:17:14.281Z</time></trkpt><trkpt lat="43.7951657" lon="11.5439223"><ele>748.4</ele><time>2026-04-04T08:17:15.295Z</time></trkpt><trkpt lat="43.79514" lon="11.5440562"><ele>753.8</ele><time>2026-04-04T08:17:16.288Z</time></trkpt><trkpt lat="43.7951165" lon="11.5442014"><ele>759.2</ele><time>2026-04-04T08:17:17.286Z</time></trkpt><trkpt lat="43.7950922" lon="11.5443624"><ele>764.6</ele><time>2026-04-04T08:17:18.286Z</time></trkpt><trkpt lat="43.7950678" lon="11.5445268"><ele>770.0</ele><time>2026-04-04T08:17:19.287Z</time></trkpt><trkpt lat="43.7950453" lon="11.5446836"><ele>770.0</ele><time>2026-04-04T08:17:20.285Z</time></trkpt><trkpt lat="43.7950203" lon="11.5448391"><ele>770.0</ele><time>2026-04-04T08:17:21.287Z</time></trkpt><trkpt lat="43.7949892" lon="11.5449901"><ele>770.0</ele><time>2026-04-04T08:17:22.286Z</time></trkpt><trkpt lat="43.7949504" lon="11.5451391"><ele>770.0</ele><time>2026-04-04T08:17:23.289Z</time></trkpt><trkpt lat="43.7949046" lon="11.5452886"><ele>769.0</ele><time>2026-04-04T08:17:24.284Z</time></trkpt><trkpt lat="43.7948499" lon="11.5454486"><ele>768.0</ele><time>2026-04-04T08:17:25.286Z</time></trkpt><trkpt lat="43.7948011" lon="11.5456089"><ele>767.0</ele><time>2026-04-04T08:17:26.279Z</time></trkpt><trkpt lat="43.7947522" lon="11.545762"><ele>766.0</ele><time>2026-04-04T08:17:27.287Z</time></trkpt><trkpt lat="43.7947102" lon="11.5459107"><ele>766.0</ele><time>2026-04-04T08:17:28.309Z</time></trkpt><trkpt lat="43.7946793" lon="11.546061"><ele>766.0</ele><time>2026-04-04T08:17:29.284Z</time></trkpt><trkpt lat="43.794651" lon="11.5462149"><ele>766.0</ele><time>2026-04-04T08:17:30.279Z</time></trkpt><trkpt lat="43.7946341" lon="11.5463767"><ele>766.0</ele><time>2026-04-04T08:17:31.282Z</time></trkpt><trkpt lat="43.7946237" lon="11.5465324"><ele>765.8333333333334</ele><time>2026-04-04T08:17:32.279Z</time></trkpt><trkpt lat="43.7946251" lon="11.5466647"><ele>765.6666666666667</ele><time>2026-04-04T08:17:33.28Z</time></trkpt><trkpt lat="43.7946373" lon="11.5467824"><ele>765.5</ele><time>2026-04-04T08:17:34.28Z</time></trkpt><trkpt lat="43.7946573" lon="11.5468988"><ele>765.3333333333334</ele><time>2026-04-04T08:17:35.275Z</time></trkpt><trkpt lat="43.7946721" lon="11.547016"><ele>765.1666666666666</ele><time>2026-04-04T08:17:36.279Z</time></trkpt><trkpt lat="43.7946737" lon="11.5471418"><ele>765.0</ele><time>2026-04-04T08:17:37.273Z</time></trkpt><trkpt lat="43.7946614" lon="11.5472805"><ele>765.0</ele><time>2026-04-04T08:17:38.272Z</time></trkpt><trkpt lat="43.7946389" lon="11.547416"><ele>765.0</ele><time>2026-04-04T08:17:39.273Z</time></trkpt><trkpt lat="43.7945994" lon="11.5475272"><ele>765.0</ele><time>2026-04-04T08:17:40.271Z</time></trkpt><trkpt lat="43.794552" lon="11.5476216"><ele>765.0</ele><time>2026-04-04T08:17:41.262Z</time></trkpt><trkpt lat="43.7945038" lon="11.5477049"><ele>765.0</ele><time>2026-04-04T08:17:42.266Z</time></trkpt><trkpt lat="43.7944346" lon="11.5477438"><ele>765.0</ele><time>2026-04-04T08:17:43.263Z</time></trkpt><trkpt lat="43.7943173" lon="11.5477332"><ele>768.75</ele><time>2026-04-04T08:17:44.263Z</time></trkpt><trkpt lat="43.7941791" lon="11.5477214"><ele>772.5</ele><time>2026-04-04T08:17:45.259Z</time></trkpt><trkpt lat="43.7940389" lon="11.547717"><ele>776.25</ele><time>2026-04-04T08:17:46.271Z</time></trkpt><trkpt lat="43.7938932" lon="11.5476935"><ele>780.0</ele><time>2026-04-04T08:17:47.262Z</time></trkpt><trkpt lat="43.793756" lon="11.5476676"><ele>780.0</ele><time>2026-04-04T08:17:48.276Z</time></trkpt><trkpt lat="43.7936199" lon="11.5476494"><ele>780.0</ele><time>2026-04-04T08:17:49.271Z</time></trkpt><trkpt lat="43.79348" lon="11.5476446"><ele>780.0</ele><time>2026-04-04T08:17:50.267Z</time></trkpt><trkpt lat="43.7933445" lon="11.5476861"><ele>780.0</ele><time>2026-04-04T08:17:51.259Z</time></trkpt><trkpt lat="43.7932261" lon="11.5477755"><ele>779.25</ele><time>2026-04-04T08:17:52.264Z</time></trkpt><trkpt lat="43.7931135" lon="11.5478873"><ele>778.5</ele><time>2026-04-04T08:17:53.263Z</time></trkpt><trkpt lat="43.793018" lon="11.5480277"><ele>777.75</ele><time>2026-04-04T08:17:54.266Z</time></trkpt><trkpt lat="43.7929446" lon="11.5482175"><ele>777.0</ele><time>2026-04-04T08:17:55.268Z</time></trkpt><trkpt lat="43.7928881" lon="11.5484218"><ele>777.0</ele><time>2026-04-04T08:17:56.279Z</time></trkpt><trkpt lat="43.7928667" lon="11.5487476"><ele>777.0</ele><time>2026-04-04T08:17:57.286Z</time></trkpt><trkpt lat="43.7928812" lon="11.5491515"><ele>777.0</ele><time>2026-04-04T08:17:58.285Z</time></trkpt><trkpt lat="43.7928986" lon="11.549522"><ele>777.0</ele><time>2026-04-04T08:17:59.285Z</time></trkpt><trkpt lat="43.7929021" lon="11.549847"><ele>778.0</ele><time>2026-04-04T08:18:00.266Z</time></trkpt><trkpt lat="43.7928969" lon="11.5501163"><ele>779.0</ele><time>2026-04-04T08:18:01.263Z</time></trkpt><trkpt lat="43.7928848" lon="11.5503285"><ele>780.0</ele><time>2026-04-04T08:18:02.272Z</time></trkpt><trkpt lat="43.7928746" lon="11.5505417"><ele>781.75</ele><time>2026-04-04T08:18:03.278Z</time></trkpt><trkpt lat="43.7928765" lon="11.5507454"><ele>783.5</ele><time>2026-04-04T08:18:04.284Z</time></trkpt><trkpt lat="43.7928965" lon="11.5509493"><ele>785.25</ele><time>2026-04-04T08:18:05.302Z</time></trkpt><trkpt lat="43.7929312" lon="11.5511395"><ele>787.0</ele><time>2026-04-04T08:18:06.288Z</time></trkpt><trkpt lat="43.792964" lon="11.5513133"><ele>788.0</ele><time>2026-04-04T08:18:07.29Z</time></trkpt><trkpt lat="43.7929958" lon="11.5514884"><ele>789.0</ele><time>2026-04-04T08:18:08.29Z</time></trkpt><trkpt lat="43.7930123" lon="11.5516614"><ele>790.0</ele><time>2026-04-04T08:18:09.286Z</time></trkpt><trkpt lat="43.7930291" lon="11.5518288"><ele>791.0</ele><time>2026-04-04T08:18:10.288Z</time></trkpt><trkpt lat="43.7930449" lon="11.5519987"><ele>792.8</ele><time>2026-04-04T08:18:11.294Z</time></trkpt><trkpt lat="43.7930596" lon="11.5521605"><ele>794.5999999999999</ele><time>2026-04-04T08:18:12.289Z</time></trkpt><trkpt lat="43.7930787" lon="11.5523222"><ele>796.4</ele><time>2026-04-04T08:18:13.28Z</time></trkpt><trkpt lat="43.7930996" lon="11.5524671"><ele>798.2</ele><time>2026-04-04T08:18:14.288Z</time></trkpt><trkpt lat="43.7931202" lon="11.5525989"><ele>800.0</ele><time>2026-04-04T08:18:15.289Z</time></trkpt><trkpt lat="43.7931367" lon="11.5527151"><ele>800.0</ele><time>2026-04-04T08:18:16.291Z</time></trkpt><trkpt lat="43.7931482" lon="11.5528241"><ele>800.0</ele><time>2026-04-04T08:18:17.299Z</time></trkpt><trkpt lat="43.7931535" lon="11.5529456"><ele>800.0</ele><time>2026-04-04T08:18:18.276Z</time></trkpt><trkpt lat="43.7931441" lon="11.5530706"><ele>800.0</ele><time>2026-04-04T08:18:19.28Z</time></trkpt><trkpt lat="43.7931191" lon="11.5531967"><ele>800.0</ele><time>2026-04-04T08:18:20.29Z</time></trkpt><trkpt lat="43.7930599" lon="11.553313"><ele>800.6666666666667</ele><time>2026-04-04T08:18:21.292Z</time></trkpt><trkpt lat="43.7929558" lon="11.5534489"><ele>801.3333333333333</ele><time>2026-04-04T08:18:22.285Z</time></trkpt><trkpt lat="43.7928179" lon="11.5536194"><ele>802.0</ele><time>2026-04-04T08:18:23.281Z</time></trkpt><trkpt lat="43.7926283" lon="11.5538636"><ele>804.3333333333333</ele><time>2026-04-04T08:18:24.279Z</time></trkpt><trkpt lat="43.7924767" lon="11.5541157"><ele>806.6666666666667</ele><time>2026-04-04T08:18:25.289Z</time></trkpt><trkpt lat="43.792342" lon="11.5543229"><ele>809.0</ele><time>2026-04-04T08:18:26.281Z</time></trkpt><trkpt lat="43.7921984" lon="11.5545103"><ele>807.75</ele><time>2026-04-04T08:18:27.285Z</time></trkpt><trkpt lat="43.7920736" lon="11.5546518"><ele>806.5</ele><time>2026-04-04T08:18:28.277Z</time></trkpt><trkpt lat="43.7919418" lon="11.5547534"><ele>805.25</ele><time>2026-04-04T08:18:29.269Z</time></trkpt><trkpt lat="43.7918274" lon="11.5548566"><ele>804.0</ele><time>2026-04-04T08:18:30.27Z</time></trkpt><trkpt lat="43.7917221" lon="11.554954"><ele>808.5</ele><time>2026-04-04T08:18:31.262Z</time></trkpt><trkpt lat="43.7916346" lon="11.5550757"><ele>813.0</ele><time>2026-04-04T08:18:32.266Z</time></trkpt><trkpt lat="43.7915886" lon="11.5552273"><ele>817.5</ele><time>2026-04-04T08:18:33.265Z</time></trkpt><trkpt lat="43.7915469" lon="11.5553886"><ele>822.0</ele><time>2026-04-04T08:18:34.27Z</time></trkpt><trkpt lat="43.7915539" lon="11.5555507"><ele>824.0</ele><time>2026-04-04T08:18:35.263Z</time></trkpt><trkpt lat="43.7915834" lon="11.5557151"><ele>826.0</ele><time>2026-04-04T08:18:36.265Z</time></trkpt><trkpt lat="43.7916355" lon="11.5558715"><ele>828.0</ele><time>2026-04-04T08:18:37.27Z</time></trkpt><trkpt lat="43.791736" lon="11.5560157"><ele>830.0</ele><time>2026-04-04T08:18:38.263Z</time></trkpt><trkpt lat="43.7918505" lon="11.5561511"><ele>823.25</ele><time>2026-04-04T08:18:39.282Z</time></trkpt><trkpt lat="43.7919701" lon="11.5562875"><ele>816.5</ele><time>2026-04-04T08:18:40.267Z</time></trkpt><trkpt lat="43.7920711" lon="11.5564291"><ele>809.75</ele><time>2026-04-04T08:18:41.272Z</time></trkpt><trkpt lat="43.7921423" lon="11.5565814"><ele>803.0</ele><time>2026-04-04T08:18:42.27Z</time></trkpt><trkpt lat="43.7921558" lon="11.55676"><ele>803.0</ele><time>2026-04-04T08:18:43.281Z</time></trkpt><trkpt lat="43.7921456" lon="11.5569276"><ele>803.0</ele><time>2026-04-04T08:18:44.274Z</time></trkpt><trkpt lat="43.7921039" lon="11.5570469"><ele>803.0</ele><time>2026-04-04T08:18:45.262Z</time></trkpt><trkpt lat="43.7920247" lon="11.5571644"><ele>803.0</ele><time>2026-04-04T08:18:46.279Z</time></trkpt><trkpt lat="43.7919267" lon="11.5572364"><ele>803.0</ele><time>2026-04-04T08:18:47.277Z</time></trkpt><trkpt lat="43.7918138" lon="11.5573121"><ele>807.2</ele><time>2026-04-04T08:18:48.279Z</time></trkpt><trkpt lat="43.7917357" lon="11.5573962"><ele>811.4</ele><time>2026-04-04T08:18:49.266Z</time></trkpt><trkpt lat="43.7916932" lon="11.5575046"><ele>815.6</ele><time>2026-04-04T08:18:50.271Z</time></trkpt><trkpt lat="43.7916791" lon="11.5576563"><ele>819.8000000000001</ele><time>2026-04-04T08:18:51.267Z</time></trkpt><trkpt lat="43.7916885" lon="11.5578245"><ele>824.0</ele><time>2026-04-04T08:18:52.28Z</time></trkpt><trkpt lat="43.791701" lon="11.5579767"><ele>824.0</ele><time>2026-04-04T08:18:53.276Z</time></trkpt><trkpt lat="43.7917164" lon="11.5581328"><ele>824.0</ele><time>2026-04-04T08:18:54.277Z</time></trkpt><trkpt lat="43.7916578" lon="11.558265"><ele>824.0</ele><time>2026-04-04T08:18:55.274Z</time></trkpt><trkpt lat="43.7915898" lon="11.5583988"><ele>824.0</ele><time>2026-04-04T08:18:56.267Z</time></trkpt><trkpt lat="43.7915091" lon="11.5585479"><ele>824.0</ele><time>2026-04-04T08:18:57.277Z</time></trkpt><trkpt lat="43.7914049" lon="11.5586816"><ele>824.0</ele><time>2026-04-04T08:18:58.279Z</time></trkpt><trkpt lat="43.7912651" lon="11.5588403"><ele>824.0</ele><time>2026-04-04T08:18:59.274Z</time></trkpt><trkpt lat="43.7910908" lon="11.5589913"><ele>827.0</ele><time>2026-04-04T08:19:00.274Z</time></trkpt><trkpt lat="43.7909195" lon="11.5591349"><ele>830.0</ele><time>2026-04-04T08:19:01.276Z</time></trkpt><trkpt lat="43.7907657" lon="11.5592882"><ele>833.0</ele><time>2026-04-04T08:19:02.277Z</time></trkpt><trkpt lat="43.7906186" lon="11.5594816"><ele>834.6666666666667</ele><time>2026-04-04T08:19:03.266Z</time></trkpt><trkpt lat="43.7905262" lon="11.5597113"><ele>836.3333333333333</ele><time>2026-04-04T08:19:04.272Z</time></trkpt><trkpt lat="43.7904579" lon="11.5599599"><ele>838.0</ele><time>2026-04-04T08:19:05.27Z</time></trkpt><trkpt lat="43.7904305" lon="11.5602132"><ele>842.0</ele><time>2026-04-04T08:19:06.268Z</time></trkpt><trkpt lat="43.7903934" lon="11.5604455"><ele>846.0</ele><time>2026-04-04T08:19:07.269Z</time></trkpt><trkpt lat="43.7903557" lon="11.5606573"><ele>850.0</ele><time>2026-04-04T08:19:08.276Z</time></trkpt><trkpt lat="43.7902944" lon="11.5608517"><ele>850.0</ele><time>2026-04-04T08:19:09.274Z</time></trkpt><trkpt lat="43.7902084" lon="11.5610266"><ele>850.0</ele><time>2026-04-04T08:19:10.275Z</time></trkpt><trkpt lat="43.7901208" lon="11.5612205"><ele>850.0</ele><time>2026-04-04T08:19:11.276Z</time></trkpt><trkpt lat="43.7900565" lon="11.5614457"><ele>844.6666666666666</ele><time>2026-04-04T08:19:12.275Z</time></trkpt><trkpt lat="43.7900114" lon="11.5616826"><ele>839.3333333333333</ele><time>2026-04-04T08:19:13.276Z</time></trkpt><trkpt lat="43.7899901" lon="11.5619168"><ele>834.0</ele><time>2026-04-04T08:19:14.269Z</time></trkpt><trkpt lat="43.7899876" lon="11.5621472"><ele>833.0</ele><time>2026-04-04T08:19:15.281Z</time></trkpt><trkpt lat="43.7900276" lon="11.5624168"><ele>832.0</ele><time>2026-04-04T08:19:16.278Z</time></trkpt><trkpt lat="43.7901028" lon="11.5627001"><ele>831.0</ele><time>2026-04-04T08:19:17.28Z</time></trkpt><trkpt lat="43.7901575" lon="11.5629832"><ele>832.3333333333333</ele><time>2026-04-04T08:19:18.278Z</time></trkpt><trkpt lat="43.7901889" lon="11.5632725"><ele>833.6666666666666</ele><time>2026-04-04T08:19:19.29Z</time></trkpt><trkpt lat="43.7901975" lon="11.5635633"><ele>835.0</ele><time>2026-04-04T08:19:20.278Z</time></trkpt><trkpt lat="43.7901637" lon="11.5638561"><ele>835.0</ele><time>2026-04-04T08:19:21.286Z</time></trkpt><trkpt lat="43.7901002" lon="11.5641418"><ele>835.0</ele><time>2026-04-04T08:19:22.282Z</time></trkpt><trkpt lat="43.7900334" lon="11.5644202"><ele>835.0</ele><time>2026-04-04T08:19:23.28Z</time></trkpt><trkpt lat="43.7899606" lon="11.5646769"><ele>838.0</ele><time>2026-04-04T08:19:24.28Z</time></trkpt><trkpt lat="43.7899117" lon="11.5648939"><ele>841.0</ele><time>2026-04-04T08:19:25.279Z</time></trkpt><trkpt lat="43.789871" lon="11.5651032"><ele>844.0</ele><time>2026-04-04T08:19:26.275Z</time></trkpt><trkpt lat="43.7898285" lon="11.5653033"><ele>849.0</ele><time>2026-04-04T08:19:27.278Z</time></trkpt><trkpt lat="43.7897681" lon="11.5654624"><ele>854.0</ele><time>2026-04-04T08:19:28.275Z</time></trkpt><trkpt lat="43.7896579" lon="11.565578"><ele>859.0</ele><time>2026-04-04T08:19:29.279Z</time></trkpt><trkpt lat="43.7895243" lon="11.5656852"><ele>864.0</ele><time>2026-04-04T08:19:30.264Z</time></trkpt><trkpt lat="43.7893778" lon="11.5658415"><ele>863.0</ele><time>2026-04-04T08:19:31.283Z</time></trkpt><trkpt lat="43.7892343" lon="11.5660117"><ele>862.0</ele><time>2026-04-04T08:19:32.281Z</time></trkpt><trkpt lat="43.7891049" lon="11.5661941"><ele>861.0</ele><time>2026-04-04T08:19:33.275Z</time></trkpt><trkpt lat="43.7889807" lon="11.5663866"><ele>861.0</ele><time>2026-04-04T08:19:34.277Z</time></trkpt><trkpt lat="43.7888874" lon="11.5666036"><ele>861.0</ele><time>2026-04-04T08:19:35.278Z</time></trkpt><trkpt lat="43.7888028" lon="11.5668525"><ele>861.0</ele><time>2026-04-04T08:19:36.281Z</time></trkpt><trkpt lat="43.7887163" lon="11.5671069"><ele>858.0</ele><time>2026-04-04T08:19:37.278Z</time></trkpt><trkpt lat="43.7886149" lon="11.567343"><ele>855.0</ele><time>2026-04-04T08:19:38.279Z</time></trkpt><trkpt lat="43.7884876" lon="11.5675407"><ele>852.0</ele><time>2026-04-04T08:19:39.274Z</time></trkpt><trkpt lat="43.7883579" lon="11.5676789"><ele>852.0</ele><time>2026-04-04T08:19:40.271Z</time></trkpt><trkpt lat="43.7882518" lon="11.5678264"><ele>852.0</ele><time>2026-04-04T08:19:41.266Z</time></trkpt><trkpt lat="43.7881707" lon="11.5679602"><ele>852.0</ele><time>2026-04-04T08:19:42.264Z</time></trkpt><trkpt lat="43.78811" lon="11.568098"><ele>852.0</ele><time>2026-04-04T08:19:43.268Z</time></trkpt><trkpt lat="43.7880979" lon="11.5682748"><ele>857.0</ele><time>2026-04-04T08:19:44.263Z</time></trkpt><trkpt lat="43.7881285" lon="11.5685066"><ele>862.0</ele><time>2026-04-04T08:19:45.266Z</time></trkpt><trkpt lat="43.7881467" lon="11.5687819"><ele>867.0</ele><time>2026-04-04T08:19:46.267Z</time></trkpt><trkpt lat="43.7881554" lon="11.5690613"><ele>870.3333333333333</ele><time>2026-04-04T08:19:47.26Z</time></trkpt><trkpt lat="43.7881526" lon="11.5693509"><ele>873.6666666666666</ele><time>2026-04-04T08:19:48.259Z</time></trkpt><trkpt lat="43.7881077" lon="11.5696204"><ele>877.0</ele><time>2026-04-04T08:19:49.263Z</time></trkpt><trkpt lat="43.7880682" lon="11.5698241"><ele>879.75</ele><time>2026-04-04T08:19:50.271Z</time></trkpt><trkpt lat="43.7880272" lon="11.5700098"><ele>882.5</ele><time>2026-04-04T08:19:51.262Z</time></trkpt><trkpt lat="43.7879881" lon="11.570169"><ele>885.25</ele><time>2026-04-04T08:19:52.276Z</time></trkpt><trkpt lat="43.7879377" lon="11.5703083"><ele>888.0</ele><time>2026-04-04T08:19:53.262Z</time></trkpt><trkpt lat="43.7878665" lon="11.5704284"><ele>889.5</ele><time>2026-04-04T08:19:54.267Z</time></trkpt><trkpt lat="43.7877747" lon="11.5705258"><ele>891.0</ele><time>2026-04-04T08:19:55.266Z</time></trkpt><trkpt lat="43.7876647" lon="11.5706428"><ele>892.5</ele><time>2026-04-04T08:19:56.27Z</time></trkpt><trkpt lat="43.7875518" lon="11.5708066"><ele>894.0</ele><time>2026-04-04T08:19:57.269Z</time></trkpt><trkpt lat="43.7874691" lon="11.571014"><ele>890.3333333333333</ele><time>2026-04-04T08:19:58.268Z</time></trkpt><trkpt lat="43.787386" lon="11.5712646"><ele>886.6666666666666</ele><time>2026-04-04T08:19:59.268Z</time></trkpt><trkpt lat="43.787324" lon="11.5715263"><ele>883.0</ele><time>2026-04-04T08:20:00.267Z</time></trkpt><trkpt lat="43.7872644" lon="11.5718134"><ele>885.0</ele><time>2026-04-04T08:20:01.266Z</time></trkpt><trkpt lat="43.7872196" lon="11.5720909"><ele>887.0</ele><time>2026-04-04T08:20:02.269Z</time></trkpt><trkpt lat="43.7871923" lon="11.5723317"><ele>889.0</ele><time>2026-04-04T08:20:03.261Z</time></trkpt><trkpt lat="43.7871863" lon="11.572556"><ele>889.0</ele><time>2026-04-04T08:20:04.262Z</time></trkpt><trkpt lat="43.7871735" lon="11.5727692"><ele>889.0</ele><time>2026-04-04T08:20:05.273Z</time></trkpt><trkpt lat="43.7871522" lon="11.5729724"><ele>889.0</ele><time>2026-04-04T08:20:06.283Z</time></trkpt><trkpt lat="43.7871164" lon="11.5731654"><ele>889.0</ele><time>2026-04-04T08:20:07.274Z</time></trkpt><trkpt lat="43.7870499" lon="11.5733396"><ele>891.0</ele><time>2026-04-04T08:20:08.277Z</time></trkpt><trkpt lat="43.7869645" lon="11.5735124"><ele>893.0</ele><time>2026-04-04T08:20:09.281Z</time></trkpt><trkpt lat="43.7868531" lon="11.5736908"><ele>895.0</ele><time>2026-04-04T08:20:10.282Z</time></trkpt><trkpt lat="43.7866911" lon="11.5738869"><ele>898.0</ele><time>2026-04-04T08:20:11.269Z</time></trkpt><trkpt lat="43.7865374" lon="11.5741094"><ele>901.0</ele><time>2026-04-04T08:20:12.273Z</time></trkpt><trkpt lat="43.7863925" lon="11.5743629"><ele>904.0</ele><time>2026-04-04T08:20:13.282Z</time></trkpt><trkpt lat="43.7862665" lon="11.5745816"><ele>907.0</ele><time>2026-04-04T08:20:14.291Z</time></trkpt><trkpt lat="43.7861525" lon="11.5747714"><ele>910.0</ele><time>2026-04-04T08:20:15.283Z</time></trkpt><trkpt lat="43.7860222" lon="11.5749482"><ele>908.3333333333333</ele><time>2026-04-04T08:20:16.288Z</time></trkpt><trkpt lat="43.7858718" lon="11.5750745"><ele>906.6666666666667</ele><time>2026-04-04T08:20:17.271Z</time></trkpt><trkpt lat="43.7857284" lon="11.5752077"><ele>905.0</ele><time>2026-04-04T08:20:18.274Z</time></trkpt><trkpt lat="43.7855985" lon="11.5753654"><ele>909.3333333333334</ele><time>2026-04-04T08:20:19.271Z</time></trkpt><trkpt lat="43.7854776" lon="11.5755378"><ele>913.6666666666667</ele><time>2026-04-04T08:20:20.281Z</time></trkpt><trkpt lat="43.7853873" lon="11.5757268"><ele>918.0</ele><time>2026-04-04T08:20:21.294Z</time></trkpt><trkpt lat="43.7853228" lon="11.5759267"><ele>918.0</ele><time>2026-04-04T08:20:22.271Z</time></trkpt><trkpt lat="43.7852859" lon="11.5761302"><ele>918.0</ele><time>2026-04-04T08:20:23.281Z</time></trkpt><trkpt lat="43.7852787" lon="11.5763623"><ele>918.0</ele><time>2026-04-04T08:20:24.273Z</time></trkpt><trkpt lat="43.7852611" lon="11.5766124"><ele>920.0</ele><time>2026-04-04T08:20:25.272Z</time></trkpt><trkpt lat="43.7852354" lon="11.5768883"><ele>922.0</ele><time>2026-04-04T08:20:26.272Z</time></trkpt><trkpt lat="43.7852088" lon="11.5771452"><ele>924.0</ele><time>2026-04-04T08:20:27.273Z</time></trkpt><trkpt lat="43.785167" lon="11.5773765"><ele>924.0</ele><time>2026-04-04T08:20:28.287Z</time></trkpt><trkpt lat="43.7851088" lon="11.5775959"><ele>924.0</ele><time>2026-04-04T08:20:29.274Z</time></trkpt><trkpt lat="43.7850607" lon="11.5778158"><ele>924.0</ele><time>2026-04-04T08:20:30.276Z</time></trkpt><trkpt lat="43.785029" lon="11.5780104"><ele>928.25</ele><time>2026-04-04T08:20:31.271Z</time></trkpt><trkpt lat="43.7850047" lon="11.578186"><ele>932.5</ele><time>2026-04-04T08:20:32.275Z</time></trkpt><trkpt lat="43.7849667" lon="11.5783473"><ele>936.75</ele><time>2026-04-04T08:20:33.274Z</time></trkpt><trkpt lat="43.7849002" lon="11.5784877"><ele>941.0</ele><time>2026-04-04T08:20:34.276Z</time></trkpt><trkpt lat="43.7847846" lon="11.5785784"><ele>941.0</ele><time>2026-04-04T08:20:35.274Z</time></trkpt><trkpt lat="43.7846367" lon="11.5786354"><ele>941.0</ele><time>2026-04-04T08:20:36.27Z</time></trkpt><trkpt lat="43.7844835" lon="11.5786668"><ele>941.0</ele><time>2026-04-04T08:20:37.262Z</time></trkpt><trkpt lat="43.7843278" lon="11.5786946"><ele>943.25</ele><time>2026-04-04T08:20:38.267Z</time></trkpt><trkpt lat="43.7841901" lon="11.5787324"><ele>945.5</ele><time>2026-04-04T08:20:39.265Z</time></trkpt><trkpt lat="43.7840625" lon="11.5788144"><ele>947.75</ele><time>2026-04-04T08:20:40.262Z</time></trkpt><trkpt lat="43.783949" lon="11.5789425"><ele>950.0</ele><time>2026-04-04T08:20:41.27Z</time></trkpt><trkpt lat="43.7838679" lon="11.5790955"><ele>950.0</ele><time>2026-04-04T08:20:42.276Z</time></trkpt><trkpt lat="43.7838295" lon="11.5792694"><ele>950.0</ele><time>2026-04-04T08:20:43.271Z</time></trkpt><trkpt lat="43.7838052" lon="11.5794281"><ele>950.0</ele><time>2026-04-04T08:20:44.272Z</time></trkpt><trkpt lat="43.7837734" lon="11.5795723"><ele>950.0</ele><time>2026-04-04T08:20:45.275Z</time></trkpt><trkpt lat="43.7837304" lon="11.5796975"><ele>952.25</ele><time>2026-04-04T08:20:46.267Z</time></trkpt><trkpt lat="43.7836597" lon="11.5797785"><ele>954.5</ele><time>2026-04-04T08:20:47.268Z</time></trkpt><trkpt lat="43.783565" lon="11.579847"><ele>956.75</ele><time>2026-04-04T08:20:48.265Z</time></trkpt><trkpt lat="43.7834369" lon="11.5799153"><ele>959.0</ele><time>2026-04-04T08:20:49.26Z</time></trkpt><trkpt lat="43.7832848" lon="11.5799989"><ele>959.0</ele><time>2026-04-04T08:20:50.259Z</time></trkpt><trkpt lat="43.7831503" lon="11.5800786"><ele>959.0</ele><time>2026-04-04T08:20:51.262Z</time></trkpt><trkpt lat="43.7830229" lon="11.5801598"><ele>959.0</ele><time>2026-04-04T08:20:52.27Z</time></trkpt><trkpt lat="43.7828938" lon="11.5802678"><ele>959.0</ele><time>2026-04-04T08:20:53.262Z</time></trkpt><trkpt lat="43.7828037" lon="11.5804348"><ele>958.3333333333334</ele><time>2026-04-04T08:20:54.26Z</time></trkpt><trkpt lat="43.7827499" lon="11.5806374"><ele>957.6666666666667</ele><time>2026-04-04T08:20:55.264Z</time></trkpt><trkpt lat="43.7826781" lon="11.5808265"><ele>957.0</ele><time>2026-04-04T08:20:56.271Z</time></trkpt><trkpt lat="43.7825984" lon="11.5810143"><ele>957.0</ele><time>2026-04-04T08:20:57.278Z</time></trkpt><trkpt lat="43.7824947" lon="11.5811813"><ele>957.0</ele><time>2026-04-04T08:20:58.281Z</time></trkpt><trkpt lat="43.7824112" lon="11.5813588"><ele>957.0</ele><time>2026-04-04T08:20:59.268Z</time></trkpt><trkpt lat="43.7823184" lon="11.5815075"><ele>959.25</ele><time>2026-04-04T08:21:00.284Z</time></trkpt><trkpt lat="43.7822152" lon="11.5816271"><ele>961.5</ele><time>2026-04-04T08:21:01.283Z</time></trkpt><trkpt lat="43.7820926" lon="11.5817278"><ele>963.75</ele><time>2026-04-04T08:21:02.275Z</time></trkpt><trkpt lat="43.7819546" lon="11.581819"><ele>966.0</ele><time>2026-04-04T08:21:03.272Z</time></trkpt><trkpt lat="43.7818131" lon="11.5819007"><ele>966.0</ele><time>2026-04-04T08:21:04.267Z</time></trkpt><trkpt lat="43.7816556" lon="11.5819536"><ele>966.0</ele><time>2026-04-04T08:21:05.269Z</time></trkpt><trkpt lat="43.7815204" lon="11.5819719"><ele>966.0</ele><time>2026-04-04T08:21:06.27Z</time></trkpt><trkpt lat="43.781402" lon="11.5820142"><ele>966.0</ele><time>2026-04-04T08:21:07.27Z</time></trkpt><trkpt lat="43.7813034" lon="11.582105"><ele>971.75</ele><time>2026-04-04T08:21:08.266Z</time></trkpt><trkpt lat="43.7812356" lon="11.5822383"><ele>977.5</ele><time>2026-04-04T08:21:09.269Z</time></trkpt><trkpt lat="43.7812241" lon="11.5824004"><ele>983.25</ele><time>2026-04-04T08:21:10.268Z</time></trkpt><trkpt lat="43.7812178" lon="11.5825961"><ele>989.0</ele><time>2026-04-04T08:21:11.266Z</time></trkpt><trkpt lat="43.7812181" lon="11.5827696"><ele>991.2</ele><time>2026-04-04T08:21:12.267Z</time></trkpt><trkpt lat="43.7812346" lon="11.5829154"><ele>993.4000000000001</ele><time>2026-04-04T08:21:13.264Z</time></trkpt><trkpt lat="43.7812487" lon="11.583024"><ele>995.6</ele><time>2026-04-04T08:21:14.26Z</time></trkpt><trkpt lat="43.7812552" lon="11.5831142"><ele>997.8</ele><time>2026-04-04T08:21:15.265Z</time></trkpt><trkpt lat="43.781261" lon="11.5832744"><ele>1000.0</ele><time>2026-04-04T08:21:17.289Z</time></trkpt><trkpt lat="43.7812504" lon="11.5834334"><ele>999.9999999999999</ele><time>2026-04-04T08:21:19.292Z</time></trkpt><trkpt lat="43.7812214" lon="11.5835127"><ele>1000.0</ele><time>2026-04-04T08:21:20.272Z</time></trkpt><trkpt lat="43.7811509" lon="11.5836302"><ele>1000.0</ele><time>2026-04-04T08:21:22.271Z</time></trkpt><trkpt lat="43.7810775" lon="11.5836488"><ele>1000.0</ele><time>2026-04-04T08:21:23.286Z</time></trkpt><trkpt lat="43.7810041" lon="11.5836747"><ele>999.9999999999999</ele><time>2026-04-04T08:21:24.279Z</time></trkpt><trkpt lat="43.7809449" lon="11.5837137"><ele>1000.0</ele><time>2026-04-04T08:21:25.273Z</time></trkpt><trkpt lat="43.7808988" lon="11.583779"><ele>999.1666666666666</ele><time>2026-04-04T08:21:26.267Z</time></trkpt><trkpt lat="43.7808603" lon="11.5838594"><ele>998.3333333333333</ele><time>2026-04-04T08:21:27.275Z</time></trkpt><trkpt lat="43.7808312" lon="11.5839486"><ele>997.5</ele><time>2026-04-04T08:21:28.283Z</time></trkpt><trkpt lat="43.780813" lon="11.5841295"><ele>996.6666666666667</ele><time>2026-04-04T08:21:30.287Z</time></trkpt><trkpt lat="43.7808004" lon="11.5842332"><ele>995.8333333333334</ele><time>2026-04-04T08:21:31.288Z</time></trkpt><trkpt lat="43.7807798" lon="11.5843435"><ele>995.0</ele><time>2026-04-04T08:21:32.292Z</time></trkpt><trkpt lat="43.7807346" lon="11.5844573"><ele>997.1666666666667</ele><time>2026-04-04T08:21:33.291Z</time></trkpt><trkpt lat="43.7806743" lon="11.5845619"><ele>999.3333333333334</ele><time>2026-04-04T08:21:34.297Z</time></trkpt><trkpt lat="43.7806055" lon="11.5846522"><ele>1001.5</ele><time>2026-04-04T08:21:35.282Z</time></trkpt><trkpt lat="43.7805254" lon="11.5847255"><ele>1003.6666666666667</ele><time>2026-04-04T08:21:36.308Z</time></trkpt><trkpt lat="43.7804587" lon="11.584793"><ele>1005.8333333333334</ele><time>2026-04-04T08:21:37.271Z</time></trkpt><trkpt lat="43.780399" lon="11.5848605"><ele>1008.0</ele><time>2026-04-04T08:21:38.271Z</time></trkpt><trkpt lat="43.7803391" lon="11.5849396"><ele>1008.0</ele><time>2026-04-04T08:21:39.268Z</time></trkpt><trkpt lat="43.7802682" lon="11.5850349"><ele>1008.0</ele><time>2026-04-04T08:21:40.278Z</time></trkpt><trkpt lat="43.7802044" lon="11.5851384"><ele>1008.0</ele><time>2026-04-04T08:21:41.272Z</time></trkpt><trkpt lat="43.7801379" lon="11.5852396"><ele>1008.0</ele><time>2026-04-04T08:21:42.276Z</time></trkpt><trkpt lat="43.7800664" lon="11.585338"><ele>1008.0</ele><time>2026-04-04T08:21:43.268Z</time></trkpt><trkpt lat="43.7800016" lon="11.5854278"><ele>1009.4285714285714</ele><time>2026-04-04T08:21:44.268Z</time></trkpt><trkpt lat="43.7799341" lon="11.585485"><ele>1010.8571428571429</ele><time>2026-04-04T08:21:45.272Z</time></trkpt><trkpt lat="43.77986" lon="11.5855212"><ele>1012.2857142857142</ele><time>2026-04-04T08:21:46.27Z</time></trkpt><trkpt lat="43.7797891" lon="11.5855415"><ele>1013.7142857142857</ele><time>2026-04-04T08:21:47.274Z</time></trkpt><trkpt lat="43.7797281" lon="11.5855792"><ele>1015.1428571428571</ele><time>2026-04-04T08:21:48.274Z</time></trkpt><trkpt lat="43.7796651" lon="11.5856157"><ele>1016.5714285714284</ele><time>2026-04-04T08:21:49.275Z</time></trkpt><trkpt lat="43.7796059" lon="11.5856761"><ele>1017.9999999999999</ele><time>2026-04-04T08:21:50.269Z</time></trkpt><trkpt lat="43.7795537" lon="11.5857447"><ele>1017.9999999999999</ele><time>2026-04-04T08:21:51.27Z</time></trkpt><trkpt lat="43.7795208" lon="11.5858311"><ele>1018.0</ele><time>2026-04-04T08:21:52.276Z</time></trkpt><trkpt lat="43.7794928" lon="11.5859224"><ele>1018.0</ele><time>2026-04-04T08:21:53.27Z</time></trkpt><trkpt lat="43.7794755" lon="11.5860235"><ele>1018.0</ele><time>2026-04-04T08:21:54.277Z</time></trkpt><trkpt lat="43.7794687" lon="11.5861212"><ele>1017.9999999999999</ele><time>2026-04-04T08:21:55.272Z</time></trkpt><trkpt lat="43.7794581" lon="11.5862073"><ele>1018.0</ele><time>2026-04-04T08:21:56.268Z</time></trkpt><trkpt lat="43.7794215" lon="11.5863675"><ele>1017.8</ele><time>2026-04-04T08:21:58.271Z</time></trkpt><trkpt lat="43.7793765" lon="11.5864488"><ele>1017.5999999999999</ele><time>2026-04-04T08:21:59.275Z</time></trkpt><trkpt lat="43.7793079" lon="11.5865385"><ele>1017.4000000000001</ele><time>2026-04-04T08:22:00.271Z</time></trkpt><trkpt lat="43.7792266" lon="11.5866423"><ele>1017.2</ele><time>2026-04-04T08:22:01.276Z</time></trkpt><trkpt lat="43.7791465" lon="11.5867492"><ele>1017.0</ele><time>2026-04-04T08:22:02.281Z</time></trkpt><trkpt lat="43.7790729" lon="11.5868513"><ele>1016.4000000000001</ele><time>2026-04-04T08:22:03.28Z</time></trkpt><trkpt lat="43.77901" lon="11.5869591"><ele>1015.8000000000001</ele><time>2026-04-04T08:22:04.283Z</time></trkpt><trkpt lat="43.778956" lon="11.5870779"><ele>1015.2</ele><time>2026-04-04T08:22:05.284Z</time></trkpt><trkpt lat="43.7789118" lon="11.5872124"><ele>1014.6</ele><time>2026-04-04T08:22:06.287Z</time></trkpt><trkpt lat="43.7788795" lon="11.5873511"><ele>1014.0</ele><time>2026-04-04T08:22:07.28Z</time></trkpt><trkpt lat="43.7788591" lon="11.5874875"><ele>1014.0</ele><time>2026-04-04T08:22:08.279Z</time></trkpt><trkpt lat="43.7788475" lon="11.5876164"><ele>1014.0000000000001</ele><time>2026-04-04T08:22:09.279Z</time></trkpt><trkpt lat="43.7788535" lon="11.5877425"><ele>1014.0000000000001</ele><time>2026-04-04T08:22:10.279Z</time></trkpt><trkpt lat="43.7788605" lon="11.5878699"><ele>1014.0</ele><time>2026-04-04T08:22:11.27Z</time></trkpt><trkpt lat="43.7788687" lon="11.5879999"><ele>1014.0</ele><time>2026-04-04T08:22:12.27Z</time></trkpt><trkpt lat="43.7788833" lon="11.5881293"><ele>1013.2</ele><time>2026-04-04T08:22:13.27Z</time></trkpt><trkpt lat="43.7788999" lon="11.5882623"><ele>1012.4000000000001</ele><time>2026-04-04T08:22:14.266Z</time></trkpt><trkpt lat="43.7789178" lon="11.5883962"><ele>1011.6</ele><time>2026-04-04T08:22:15.265Z</time></trkpt><trkpt lat="43.7789238" lon="11.5885371"><ele>1010.8</ele><time>2026-04-04T08:22:16.266Z</time></trkpt><trkpt lat="43.7789159" lon="11.5886814"><ele>1010.0</ele><time>2026-04-04T08:22:17.269Z</time></trkpt><trkpt lat="43.7788898" lon="11.5888307"><ele>1009.0</ele><time>2026-04-04T08:22:18.269Z</time></trkpt><trkpt lat="43.7788616" lon="11.5889775"><ele>1008.0</ele><time>2026-04-04T08:22:19.272Z</time></trkpt><trkpt lat="43.778829" lon="11.5891125"><ele>1007.0</ele><time>2026-04-04T08:22:20.273Z</time></trkpt><trkpt lat="43.7787826" lon="11.5892368"><ele>1006.0</ele><time>2026-04-04T08:22:21.273Z</time></trkpt><trkpt lat="43.7787313" lon="11.5893519"><ele>1005.0</ele><time>2026-04-04T08:22:22.276Z</time></trkpt><trkpt lat="43.7786693" lon="11.58947"><ele>1004.0</ele><time>2026-04-04T08:22:23.278Z</time></trkpt><trkpt lat="43.7785938" lon="11.5895759"><ele>1003.0</ele><time>2026-04-04T08:22:24.272Z</time></trkpt><trkpt lat="43.7785083" lon="11.5896733"><ele>1002.0</ele><time>2026-04-04T08:22:25.291Z</time></trkpt><trkpt lat="43.7784256" lon="11.5897694"><ele>1001.0</ele><time>2026-04-04T08:22:26.275Z</time></trkpt><trkpt lat="43.7783534" lon="11.5898542"><ele>1000.0</ele><time>2026-04-04T08:22:27.283Z</time></trkpt><trkpt lat="43.7783056" lon="11.5899285"><ele>1003.4999999999999</ele><time>2026-04-04T08:22:28.279Z</time></trkpt><trkpt lat="43.7782694" lon="11.5900079"><ele>1007.0</ele><time>2026-04-04T08:22:29.28Z</time></trkpt><trkpt lat="43.7782349" lon="11.5900972"><ele>1010.5</ele><time>2026-04-04T08:22:30.281Z</time></trkpt><trkpt lat="43.7782039" lon="11.5902053"><ele>1014.0</ele><time>2026-04-04T08:22:31.279Z</time></trkpt><trkpt lat="43.7781732" lon="11.5903303"><ele>1017.4999999999999</ele><time>2026-04-04T08:22:32.278Z</time></trkpt><trkpt lat="43.7781559" lon="11.5904729"><ele>1021.0</ele><time>2026-04-04T08:22:33.277Z</time></trkpt><trkpt lat="43.7781423" lon="11.5906088"><ele>1021.0</ele><time>2026-04-04T08:22:34.279Z</time></trkpt><trkpt lat="43.7781463" lon="11.5907545"><ele>1020.9999999999999</ele><time>2026-04-04T08:22:35.276Z</time></trkpt><trkpt lat="43.7781555" lon="11.5909027"><ele>1020.9999999999999</ele><time>2026-04-04T08:22:36.27Z</time></trkpt><trkpt lat="43.7781785" lon="11.5910481"><ele>1021.0</ele><time>2026-04-04T08:22:37.264Z</time></trkpt><trkpt lat="43.7782015" lon="11.5911869"><ele>1021.0</ele><time>2026-04-04T08:22:38.263Z</time></trkpt><trkpt lat="43.7782203" lon="11.5913213"><ele>1021.0</ele><time>2026-04-04T08:22:39.262Z</time></trkpt><trkpt lat="43.7782317" lon="11.5914514"><ele>1020.9999999999999</ele><time>2026-04-04T08:22:40.265Z</time></trkpt><trkpt lat="43.7782395" lon="11.5915794"><ele>1020.9999999999999</ele><time>2026-04-04T08:22:41.263Z</time></trkpt><trkpt lat="43.7782493" lon="11.5917062"><ele>1021.0</ele><time>2026-04-04T08:22:42.274Z</time></trkpt><trkpt lat="43.778244" lon="11.5918356"><ele>1021.0</ele><time>2026-04-04T08:22:43.266Z</time></trkpt><trkpt lat="43.7782376" lon="11.591971"><ele>1021.4999999999999</ele><time>2026-04-04T08:22:44.267Z</time></trkpt><trkpt lat="43.7782146" lon="11.5921087"><ele>1022.0</ele><time>2026-04-04T08:22:45.268Z</time></trkpt><trkpt lat="43.7781835" lon="11.5922402"><ele>1022.5</ele><time>2026-04-04T08:22:46.277Z</time></trkpt><trkpt lat="43.7781533" lon="11.5923672"><ele>1023.0</ele><time>2026-04-04T08:22:47.278Z</time></trkpt><trkpt lat="43.7781328" lon="11.5924768"><ele>1023.4999999999999</ele><time>2026-04-04T08:22:48.263Z</time></trkpt><trkpt lat="43.7781243" lon="11.5925689"><ele>1024.0</ele><time>2026-04-04T08:22:49.267Z</time></trkpt><trkpt lat="43.7781306" lon="11.5926565"><ele>1024.0</ele><time>2026-04-04T08:22:50.265Z</time></trkpt><trkpt lat="43.7781603" lon="11.5927406"><ele>1024.0</ele><time>2026-04-04T08:22:51.273Z</time></trkpt><trkpt lat="43.7782435" lon="11.5928156"><ele>1024.0</ele><time>2026-04-04T08:22:53.268Z</time></trkpt><trkpt lat="43.7783172" lon="11.5928099"><ele>1024.0</ele><time>2026-04-04T08:22:54.261Z</time></trkpt><trkpt lat="43.7784249" lon="11.5927693"><ele>1024.0</ele><time>2026-04-04T08:22:55.265Z</time></trkpt><trkpt lat="43.7785398" lon="11.592694"><ele>1023.5</ele><time>2026-04-04T08:22:56.275Z</time></trkpt><trkpt lat="43.7786534" lon="11.5926154"><ele>1023.0</ele><time>2026-04-04T08:22:57.261Z</time></trkpt><trkpt lat="43.778774" lon="11.5925431"><ele>1022.5</ele><time>2026-04-04T08:22:58.264Z</time></trkpt><trkpt lat="43.7788877" lon="11.5924872"><ele>1022.0</ele><time>2026-04-04T08:22:59.264Z</time></trkpt><trkpt lat="43.7789803" lon="11.5924457"><ele>1022.0000000000001</ele><time>2026-04-04T08:23:00.264Z</time></trkpt><trkpt lat="43.7790684" lon="11.592416"><ele>1022.0</ele><time>2026-04-04T08:23:01.263Z</time></trkpt><trkpt lat="43.7791565" lon="11.5923865"><ele>1022.0</ele><time>2026-04-04T08:23:02.263Z</time></trkpt><trkpt lat="43.779249" lon="11.5923849"><ele>1022.0</ele><time>2026-04-04T08:23:03.263Z</time></trkpt><trkpt lat="43.7793335" lon="11.5923934"><ele>1022.0000000000001</ele><time>2026-04-04T08:23:04.261Z</time></trkpt><trkpt lat="43.7794146" lon="11.5924026"><ele>1022.0</ele><time>2026-04-04T08:23:05.267Z</time></trkpt><trkpt lat="43.7794885" lon="11.5924585"><ele>1021.4000000000001</ele><time>2026-04-04T08:23:06.258Z</time></trkpt><trkpt lat="43.7795505" lon="11.5925319"><ele>1020.8000000000001</ele><time>2026-04-04T08:23:07.264Z</time></trkpt><trkpt lat="43.7796095" lon="11.5926215"><ele>1020.2</ele><time>2026-04-04T08:23:08.278Z</time></trkpt><trkpt lat="43.7796685" lon="11.5927253"><ele>1019.6</ele><time>2026-04-04T08:23:09.265Z</time></trkpt><trkpt lat="43.779719" lon="11.5928546"><ele>1019.0</ele><time>2026-04-04T08:23:10.267Z</time></trkpt><trkpt lat="43.7797609" lon="11.592991"><ele>1019.0</ele><time>2026-04-04T08:23:11.271Z</time></trkpt><trkpt lat="43.7797911" lon="11.593122"><ele>1019.0000000000001</ele><time>2026-04-04T08:23:12.275Z</time></trkpt><trkpt lat="43.7797985" lon="11.593252"><ele>1019.0000000000001</ele><time>2026-04-04T08:23:13.266Z</time></trkpt><trkpt lat="43.7797816" lon="11.5933796"><ele>1019.0</ele><time>2026-04-04T08:23:14.277Z</time></trkpt><trkpt lat="43.7797579" lon="11.5935086"><ele>1019.0</ele><time>2026-04-04T08:23:15.274Z</time></trkpt><trkpt lat="43.7797198" lon="11.5936471"><ele>1018.4000000000001</ele><time>2026-04-04T08:23:16.272Z</time></trkpt><trkpt lat="43.7796881" lon="11.5937966"><ele>1017.8000000000001</ele><time>2026-04-04T08:23:17.263Z</time></trkpt><trkpt lat="43.779666" lon="11.5939473"><ele>1017.1999999999999</ele><time>2026-04-04T08:23:18.27Z</time></trkpt><trkpt lat="43.7796546" lon="11.5941009"><ele>1016.5999999999999</ele><time>2026-04-04T08:23:19.271Z</time></trkpt><trkpt lat="43.7796492" lon="11.5942503"><ele>1016.0</ele><time>2026-04-04T08:23:20.278Z</time></trkpt><trkpt lat="43.7796522" lon="11.5944001"><ele>1016.4</ele><time>2026-04-04T08:23:21.277Z</time></trkpt><trkpt lat="43.7796579" lon="11.5945478"><ele>1016.8</ele><time>2026-04-04T08:23:22.274Z</time></trkpt><trkpt lat="43.7796646" lon="11.5947012"><ele>1017.1999999999999</ele><time>2026-04-04T08:23:23.267Z</time></trkpt><trkpt lat="43.779678" lon="11.5948589"><ele>1017.5999999999999</ele><time>2026-04-04T08:23:24.269Z</time></trkpt><trkpt lat="43.7796977" lon="11.5950101"><ele>1018.0</ele><time>2026-04-04T08:23:25.27Z</time></trkpt><trkpt lat="43.7797288" lon="11.595153"><ele>1017.9999999999999</ele><time>2026-04-04T08:23:26.268Z</time></trkpt><trkpt lat="43.7797743" lon="11.5952767"><ele>1018.0</ele><time>2026-04-04T08:23:27.288Z</time></trkpt><trkpt lat="43.7798344" lon="11.5953832"><ele>1018.0</ele><time>2026-04-04T08:23:28.274Z</time></trkpt><trkpt lat="43.7799022" lon="11.5954653"><ele>1018.0</ele><time>2026-04-04T08:23:29.264Z</time></trkpt><trkpt lat="43.7799678" lon="11.5955345"><ele>1017.9999999999999</ele><time>2026-04-04T08:23:30.266Z</time></trkpt><trkpt lat="43.7800291" lon="11.5955904"><ele>1018.0</ele><time>2026-04-04T08:23:31.275Z</time></trkpt><trkpt lat="43.7800908" lon="11.5956428"><ele>1017.8333333333333</ele><time>2026-04-04T08:23:32.275Z</time></trkpt><trkpt lat="43.7801488" lon="11.5956879"><ele>1017.6666666666666</ele><time>2026-04-04T08:23:33.277Z</time></trkpt><trkpt lat="43.7802107" lon="11.5957338"><ele>1017.5</ele><time>2026-04-04T08:23:34.278Z</time></trkpt><trkpt lat="43.7802651" lon="11.5957796"><ele>1017.3333333333333</ele><time>2026-04-04T08:23:35.276Z</time></trkpt><trkpt lat="43.7803204" lon="11.5958263"><ele>1017.1666666666666</ele><time>2026-04-04T08:23:36.271Z</time></trkpt><trkpt lat="43.7803737" lon="11.5958778"><ele>1017.0</ele><time>2026-04-04T08:23:37.271Z</time></trkpt><trkpt lat="43.7804737" lon="11.5959839"><ele>1017.0</ele><time>2026-04-04T08:23:39.275Z</time></trkpt><trkpt lat="43.7805673" lon="11.5960884"><ele>1017.0</ele><time>2026-04-04T08:23:41.263Z</time></trkpt><trkpt lat="43.7806576" lon="11.5962007"><ele>1017.0</ele><time>2026-04-04T08:23:43.269Z</time></trkpt><trkpt lat="43.7807096" lon="11.5962598"><ele>1017.0</ele><time>2026-04-04T08:23:44.27Z</time></trkpt><trkpt lat="43.7807661" lon="11.5963243"><ele>1017.0</ele><time>2026-04-04T08:23:45.277Z</time></trkpt><trkpt lat="43.7808234" lon="11.5963859"><ele>1017.8333333333334</ele><time>2026-04-04T08:23:46.273Z</time></trkpt><trkpt lat="43.7808769" lon="11.5964427"><ele>1018.6666666666667</ele><time>2026-04-04T08:23:47.27Z</time></trkpt><trkpt lat="43.7809337" lon="11.5964929"><ele>1019.5</ele><time>2026-04-04T08:23:48.3Z</time></trkpt><trkpt lat="43.7810387" lon="11.5965795"><ele>1020.3333333333334</ele><time>2026-04-04T08:23:50.277Z</time></trkpt><trkpt lat="43.7811304" lon="11.5966944"><ele>1021.1666666666667</ele><time>2026-04-04T08:23:52.274Z</time></trkpt><trkpt lat="43.7811658" lon="11.5967701"><ele>1022.0</ele><time>2026-04-04T08:23:53.272Z</time></trkpt><trkpt lat="43.7812341" lon="11.5969273"><ele>1022.6</ele><time>2026-04-04T08:23:55.268Z</time></trkpt><trkpt lat="43.7812773" lon="11.5970164"><ele>1023.2</ele><time>2026-04-04T08:23:56.274Z</time></trkpt><trkpt lat="43.781331" lon="11.597126"><ele>1023.8</ele><time>2026-04-04T08:23:57.286Z</time></trkpt><trkpt lat="43.781392" lon="11.5972449"><ele>1024.4</ele><time>2026-04-04T08:23:58.287Z</time></trkpt><trkpt lat="43.781469" lon="11.5973642"><ele>1025.0</ele><time>2026-04-04T08:23:59.28Z</time></trkpt><trkpt lat="43.7815596" lon="11.5974794"><ele>1025.0</ele><time>2026-04-04T08:24:00.28Z</time></trkpt><trkpt lat="43.781668" lon="11.5975926"><ele>1025.0</ele><time>2026-04-04T08:24:01.286Z</time></trkpt><trkpt lat="43.7817907" lon="11.5976953"><ele>1025.0</ele><time>2026-04-04T08:24:02.275Z</time></trkpt><trkpt lat="43.781948" lon="11.5977894"><ele>1029.3333333333335</ele><time>2026-04-04T08:24:03.274Z</time></trkpt><trkpt lat="43.782123" lon="11.5978711"><ele>1033.6666666666667</ele><time>2026-04-04T08:24:04.277Z</time></trkpt><trkpt lat="43.7822551" lon="11.5979506"><ele>1038.0</ele><time>2026-04-04T08:24:05.276Z</time></trkpt><trkpt lat="43.7823846" lon="11.5980475"><ele>1038.0</ele><time>2026-04-04T08:24:06.277Z</time></trkpt><trkpt lat="43.7825023" lon="11.5981544"><ele>1038.0</ele><time>2026-04-04T08:24:07.279Z</time></trkpt><trkpt lat="43.7826063" lon="11.5982762"><ele>1038.0</ele><time>2026-04-04T08:24:08.285Z</time></trkpt><trkpt lat="43.7826765" lon="11.5984173"><ele>1038.0</ele><time>2026-04-04T08:24:09.278Z</time></trkpt><trkpt lat="43.7827317" lon="11.5985827"><ele>1041.25</ele><time>2026-04-04T08:24:10.274Z</time></trkpt><trkpt lat="43.7827872" lon="11.5987489"><ele>1044.5</ele><time>2026-04-04T08:24:11.274Z</time></trkpt><trkpt lat="43.7828339" lon="11.5989107"><ele>1047.75</ele><time>2026-04-04T08:24:12.283Z</time></trkpt><trkpt lat="43.7828738" lon="11.5990793"><ele>1051.0</ele><time>2026-04-04T08:24:13.279Z</time></trkpt><trkpt lat="43.7829113" lon="11.5992514"><ele>1051.0</ele><time>2026-04-04T08:24:14.272Z</time></trkpt><trkpt lat="43.7829313" lon="11.5994302"><ele>1051.0</ele><time>2026-04-04T08:24:15.274Z</time></trkpt><trkpt lat="43.7829415" lon="11.5996216"><ele>1051.0</ele><time>2026-04-04T08:24:16.285Z</time></trkpt><trkpt lat="43.782949" lon="11.5998189"><ele>1051.0</ele><time>2026-04-04T08:24:17.281Z</time></trkpt><trkpt lat="43.7829569" lon="11.6000267"><ele>1052.25</ele><time>2026-04-04T08:24:18.279Z</time></trkpt><trkpt lat="43.7829644" lon="11.6002294"><ele>1053.5</ele><time>2026-04-04T08:24:19.288Z</time></trkpt><trkpt lat="43.7829695" lon="11.6004179"><ele>1054.75</ele><time>2026-04-04T08:24:20.278Z</time></trkpt><trkpt lat="43.7829782" lon="11.6006118"><ele>1056.0</ele><time>2026-04-04T08:24:21.277Z</time></trkpt><trkpt lat="43.7829761" lon="11.6007886"><ele>1058.0</ele><time>2026-04-04T08:24:22.285Z</time></trkpt><trkpt lat="43.7829679" lon="11.6009566"><ele>1060.0</ele><time>2026-04-04T08:24:23.291Z</time></trkpt><trkpt lat="43.7829437" lon="11.6011059"><ele>1062.0</ele><time>2026-04-04T08:24:24.284Z</time></trkpt><trkpt lat="43.7829349" lon="11.6012411"><ele>1064.0</ele><time>2026-04-04T08:24:25.28Z</time></trkpt><trkpt lat="43.7829285" lon="11.6013582"><ele>1066.0</ele><time>2026-04-04T08:24:26.286Z</time></trkpt><trkpt lat="43.7829295" lon="11.6014553"><ele>1066.3999999999999</ele><time>2026-04-04T08:24:27.297Z</time></trkpt><trkpt lat="43.782907" lon="11.6015697"><ele>1066.8</ele><time>2026-04-04T08:24:29.287Z</time></trkpt><trkpt lat="43.782883" lon="11.6016707"><ele>1067.1999999999998</ele><time>2026-04-04T08:24:32.294Z</time></trkpt><trkpt lat="43.7828306" lon="11.6016116"><ele>1067.6</ele><time>2026-04-04T08:25:17.283Z</time></trkpt><trkpt lat="43.7828035" lon="11.6014574"><ele>1068.0</ele><time>2026-04-04T08:25:19.288Z</time></trkpt><trkpt lat="43.782797" lon="11.6012952"><ele>1068.0</ele><time>2026-04-04T08:25:21.283Z</time></trkpt><trkpt lat="43.7827988" lon="11.6011769"><ele>1068.0</ele><time>2026-04-04T08:25:23.28Z</time></trkpt><trkpt lat="43.7827586" lon="11.6010958"><ele>1066.0</ele><time>2026-04-04T08:25:33.286Z</time></trkpt></trkseg><trkseg><trkpt lat="43.7881208" lon="11.6222465"><ele>929.0000000000001</ele><time>2026-04-04T08:44:42.008Z</time></trkpt><trkpt lat="43.7881839" lon="11.6222548"><ele>929.0</ele><time>2026-04-04T08:45:27.27Z</time></trkpt><trkpt lat="43.7881819" lon="11.6221511"><ele>929.0</ele><time>2026-04-04T08:45:30.279Z</time></trkpt><trkpt lat="43.7881167" lon="11.622153"><ele>929.0</ele><time>2026-04-04T08:45:32.271Z</time></trkpt><trkpt lat="43.788034" lon="11.622231"><ele>929.0000000000001</ele><time>2026-04-04T08:45:34.269Z</time></trkpt><trkpt lat="43.7879885" lon="11.6223199"><ele>929.0</ele><time>2026-04-04T08:45:36.27Z</time></trkpt><trkpt lat="43.7879731" lon="11.6224366"><ele>929.0</ele><time>2026-04-04T08:45:38.271Z</time></trkpt><trkpt lat="43.7880406" lon="11.622614"><ele>929.0</ele><time>2026-04-04T08:45:40.271Z</time></trkpt><trkpt lat="43.7881004" lon="11.6227434"><ele>929.0</ele><time>2026-04-04T08:45:41.274Z</time></trkpt><trkpt lat="43.788164" lon="11.6228977"><ele>929.0</ele><time>2026-04-04T08:45:42.274Z</time></trkpt><trkpt lat="43.788227" lon="11.6230622"><ele>929.0</ele><time>2026-04-04T08:45:43.271Z</time></trkpt><trkpt lat="43.7882879" lon="11.6232323"><ele>929.0</ele><time>2026-04-04T08:45:44.274Z</time></trkpt><trkpt lat="43.78834" lon="11.6234037"><ele>929.0</ele><time>2026-04-04T08:45:45.27Z</time></trkpt><trkpt lat="43.788389" lon="11.6235761"><ele>929.0</ele><time>2026-04-04T08:45:46.268Z</time></trkpt><trkpt lat="43.7884271" lon="11.6237539"><ele>932.25</ele><time>2026-04-04T08:45:47.269Z</time></trkpt><trkpt lat="43.7884403" lon="11.6239339"><ele>935.5</ele><time>2026-04-04T08:45:48.265Z</time></trkpt><trkpt lat="43.7884359" lon="11.6241042"><ele>938.75</ele><time>2026-04-04T08:45:49.265Z</time></trkpt><trkpt lat="43.7883891" lon="11.6242524"><ele>942.0</ele><time>2026-04-04T08:45:50.265Z</time></trkpt><trkpt lat="43.788312" lon="11.6243516"><ele>942.0</ele><time>2026-04-04T08:45:51.267Z</time></trkpt><trkpt lat="43.7881927" lon="11.6244127"><ele>942.0</ele><time>2026-04-04T08:45:52.264Z</time></trkpt><trkpt lat="43.7880274" lon="11.6244555"><ele>942.0</ele><time>2026-04-04T08:45:53.268Z</time></trkpt><trkpt lat="43.7878425" lon="11.6245007"><ele>945.0</ele><time>2026-04-04T08:45:54.262Z</time></trkpt><trkpt lat="43.7876684" lon="11.6245633"><ele>948.0</ele><time>2026-04-04T08:45:55.259Z</time></trkpt><trkpt lat="43.7875019" lon="11.6246108"><ele>951.0</ele><time>2026-04-04T08:45:56.257Z</time></trkpt><trkpt lat="43.7873559" lon="11.6246513"><ele>951.0</ele><time>2026-04-04T08:45:57.262Z</time></trkpt><trkpt lat="43.7872461" lon="11.6247061"><ele>951.0</ele><time>2026-04-04T08:45:58.262Z</time></trkpt><trkpt lat="43.7871582" lon="11.6248033"><ele>951.0</ele><time>2026-04-04T08:45:59.264Z</time></trkpt><trkpt lat="43.7870873" lon="11.624929"><ele>951.0</ele><time>2026-04-04T08:46:00.267Z</time></trkpt><trkpt lat="43.7870276" lon="11.625056"><ele>951.0</ele><time>2026-04-04T08:46:01.264Z</time></trkpt><trkpt lat="43.7869731" lon="11.6251849"><ele>950.9999999999999</ele><time>2026-04-04T08:46:02.263Z</time></trkpt><trkpt lat="43.7869363" lon="11.6253163"><ele>950.9999999999999</ele><time>2026-04-04T08:46:03.264Z</time></trkpt><trkpt lat="43.7869128" lon="11.625458"><ele>951.0</ele><time>2026-04-04T08:46:04.264Z</time></trkpt><trkpt lat="43.7868979" lon="11.6256011"><ele>951.0</ele><time>2026-04-04T08:46:05.265Z</time></trkpt><trkpt lat="43.7869278" lon="11.6257676"><ele>954.6666666666667</ele><time>2026-04-04T08:46:06.264Z</time></trkpt><trkpt lat="43.7869906" lon="11.6259499"><ele>958.3333333333334</ele><time>2026-04-04T08:46:07.27Z</time></trkpt><trkpt lat="43.7870785" lon="11.6261369"><ele>962.0</ele><time>2026-04-04T08:46:08.272Z</time></trkpt><trkpt lat="43.7872179" lon="11.6263328"><ele>962.3333333333334</ele><time>2026-04-04T08:46:09.256Z</time></trkpt><trkpt lat="43.7873757" lon="11.6265131"><ele>962.6666666666667</ele><time>2026-04-04T08:46:10.251Z</time></trkpt><trkpt lat="43.7875258" lon="11.6266896"><ele>963.0</ele><time>2026-04-04T08:46:11.258Z</time></trkpt><trkpt lat="43.7876577" lon="11.6268635"><ele>969.6666666666667</ele><time>2026-04-04T08:46:12.25Z</time></trkpt><trkpt lat="43.7877548" lon="11.627035"><ele>976.3333333333334</ele><time>2026-04-04T08:46:13.253Z</time></trkpt><trkpt lat="43.7878417" lon="11.6272343"><ele>983.0</ele><time>2026-04-04T08:46:14.257Z</time></trkpt><trkpt lat="43.7879326" lon="11.6274145"><ele>983.0</ele><time>2026-04-04T08:46:15.253Z</time></trkpt><trkpt lat="43.7880144" lon="11.6275649"><ele>983.0</ele><time>2026-04-04T08:46:16.254Z</time></trkpt><trkpt lat="43.7880661" lon="11.6276976"><ele>983.0</ele><time>2026-04-04T08:46:17.25Z</time></trkpt><trkpt lat="43.7880796" lon="11.6278221"><ele>983.0</ele><time>2026-04-04T08:46:18.251Z</time></trkpt><trkpt lat="43.7880467" lon="11.6279383"><ele>983.0</ele><time>2026-04-04T08:46:19.257Z</time></trkpt><trkpt lat="43.7879784" lon="11.6280314"><ele>982.0</ele><time>2026-04-04T08:46:20.248Z</time></trkpt><trkpt lat="43.7878701" lon="11.6280873"><ele>981.0</ele><time>2026-04-04T08:46:21.247Z</time></trkpt><trkpt lat="43.7877541" lon="11.6281313"><ele>980.0</ele><time>2026-04-04T08:46:22.252Z</time></trkpt><trkpt lat="43.787619" lon="11.6281949"><ele>979.0</ele><time>2026-04-04T08:46:23.247Z</time></trkpt><trkpt lat="43.7874984" lon="11.628277"><ele>979.0</ele><time>2026-04-04T08:46:24.247Z</time></trkpt><trkpt lat="43.7874012" lon="11.6283663"><ele>979.0000000000001</ele><time>2026-04-04T08:46:25.253Z</time></trkpt><trkpt lat="43.7873322" lon="11.6284673"><ele>979.0000000000001</ele><time>2026-04-04T08:46:26.257Z</time></trkpt><trkpt lat="43.7872929" lon="11.6285845"><ele>979.0</ele><time>2026-04-04T08:46:27.25Z</time></trkpt><trkpt lat="43.7873163" lon="11.6287055"><ele>979.0</ele><time>2026-04-04T08:46:28.249Z</time></trkpt><trkpt lat="43.7873754" lon="11.6288068"><ele>977.5</ele><time>2026-04-04T08:46:29.253Z</time></trkpt><trkpt lat="43.7874612" lon="11.6289077"><ele>976.0</ele><time>2026-04-04T08:46:30.264Z</time></trkpt><trkpt lat="43.7875657" lon="11.629013"><ele>974.5</ele><time>2026-04-04T08:46:31.253Z</time></trkpt><trkpt lat="43.787669" lon="11.6291357"><ele>973.0</ele><time>2026-04-04T08:46:32.26Z</time></trkpt><trkpt lat="43.7877513" lon="11.6292703"><ele>973.75</ele><time>2026-04-04T08:46:33.26Z</time></trkpt><trkpt lat="43.7877874" lon="11.6294192"><ele>974.5</ele><time>2026-04-04T08:46:34.259Z</time></trkpt><trkpt lat="43.7877775" lon="11.6295676"><ele>975.25</ele><time>2026-04-04T08:46:35.257Z</time></trkpt><trkpt lat="43.7877248" lon="11.6297138"><ele>976.0</ele><time>2026-04-04T08:46:36.257Z</time></trkpt><trkpt lat="43.7876378" lon="11.6298537"><ele>976.0</ele><time>2026-04-04T08:46:37.254Z</time></trkpt><trkpt lat="43.7875344" lon="11.6299843"><ele>976.0</ele><time>2026-04-04T08:46:38.247Z</time></trkpt><trkpt lat="43.7874269" lon="11.6301302"><ele>976.0</ele><time>2026-04-04T08:46:39.259Z</time></trkpt><trkpt lat="43.7873161" lon="11.6302748"><ele>976.0</ele><time>2026-04-04T08:46:40.252Z</time></trkpt><trkpt lat="43.7872412" lon="11.6304161"><ele>975.25</ele><time>2026-04-04T08:46:41.25Z</time></trkpt><trkpt lat="43.7872079" lon="11.6305672"><ele>974.5</ele><time>2026-04-04T08:46:42.252Z</time></trkpt><trkpt lat="43.7871956" lon="11.6307064"><ele>973.75</ele><time>2026-04-04T08:46:43.25Z</time></trkpt><trkpt lat="43.7872376" lon="11.6308377"><ele>973.0</ele><time>2026-04-04T08:46:44.253Z</time></trkpt><trkpt lat="43.7873334" lon="11.6309749"><ele>973.0</ele><time>2026-04-04T08:46:45.253Z</time></trkpt><trkpt lat="43.7874573" lon="11.6311121"><ele>973.0</ele><time>2026-04-04T08:46:46.257Z</time></trkpt><trkpt lat="43.7875913" lon="11.6312381"><ele>973.0</ele><time>2026-04-04T08:46:47.26Z</time></trkpt><trkpt lat="43.7877192" lon="11.6313503"><ele>970.75</ele><time>2026-04-04T08:46:48.262Z</time></trkpt><trkpt lat="43.7878394" lon="11.6314336"><ele>968.5</ele><time>2026-04-04T08:46:49.263Z</time></trkpt><trkpt lat="43.7879686" lon="11.6315043"><ele>966.25</ele><time>2026-04-04T08:46:50.261Z</time></trkpt><trkpt lat="43.7880929" lon="11.6315775"><ele>964.0</ele><time>2026-04-04T08:46:51.259Z</time></trkpt><trkpt lat="43.7881936" lon="11.6316926"><ele>964.0</ele><time>2026-04-04T08:46:52.261Z</time></trkpt><trkpt lat="43.7882418" lon="11.6318684"><ele>964.0</ele><time>2026-04-04T08:46:53.259Z</time></trkpt><trkpt lat="43.7882701" lon="11.6320909"><ele>964.0</ele><time>2026-04-04T08:46:54.258Z</time></trkpt><trkpt lat="43.7882977" lon="11.632325"><ele>963.0</ele><time>2026-04-04T08:46:55.255Z</time></trkpt><trkpt lat="43.7883292" lon="11.6325797"><ele>962.0</ele><time>2026-04-04T08:46:56.255Z</time></trkpt><trkpt lat="43.7883633" lon="11.6328709"><ele>961.0</ele><time>2026-04-04T08:46:57.265Z</time></trkpt><trkpt lat="43.7883811" lon="11.6331485"><ele>959.0</ele><time>2026-04-04T08:46:58.266Z</time></trkpt><trkpt lat="43.788406" lon="11.633416"><ele>957.0</ele><time>2026-04-04T08:46:59.267Z</time></trkpt><trkpt lat="43.7884326" lon="11.6336657"><ele>955.0</ele><time>2026-04-04T08:47:00.267Z</time></trkpt><trkpt lat="43.7884539" lon="11.6338989"><ele>955.0</ele><time>2026-04-04T08:47:01.262Z</time></trkpt><trkpt lat="43.7884654" lon="11.634122"><ele>955.0</ele><time>2026-04-04T08:47:02.262Z</time></trkpt><trkpt lat="43.7884458" lon="11.6343216"><ele>955.0</ele><time>2026-04-04T08:47:03.264Z</time></trkpt><trkpt lat="43.7883615" lon="11.6344978"><ele>957.3333333333333</ele><time>2026-04-04T08:47:04.268Z</time></trkpt><trkpt lat="43.7882593" lon="11.6346646"><ele>959.6666666666667</ele><time>2026-04-04T08:47:05.259Z</time></trkpt><trkpt lat="43.788146" lon="11.6348341"><ele>962.0</ele><time>2026-04-04T08:47:06.262Z</time></trkpt><trkpt lat="43.7880392" lon="11.6349899"><ele>962.0</ele><time>2026-04-04T08:47:07.261Z</time></trkpt><trkpt lat="43.7879445" lon="11.6351589"><ele>962.0</ele><time>2026-04-04T08:47:08.255Z</time></trkpt><trkpt lat="43.7878856" lon="11.6353443"><ele>962.0</ele><time>2026-04-04T08:47:09.256Z</time></trkpt><trkpt lat="43.7878478" lon="11.6355381"><ele>962.0</ele><time>2026-04-04T08:47:10.267Z</time></trkpt><trkpt lat="43.7878317" lon="11.635719"><ele>964.3333333333334</ele><time>2026-04-04T08:47:11.25Z</time></trkpt><trkpt lat="43.7878398" lon="11.6359131"><ele>966.6666666666667</ele><time>2026-04-04T08:47:12.247Z</time></trkpt><trkpt lat="43.787876" lon="11.6361155"><ele>969.0</ele><time>2026-04-04T08:47:13.247Z</time></trkpt><trkpt lat="43.7879077" lon="11.6363343"><ele>969.6666666666667</ele><time>2026-04-04T08:47:14.244Z</time></trkpt><trkpt lat="43.7879238" lon="11.6365774"><ele>970.3333333333334</ele><time>2026-04-04T08:47:15.248Z</time></trkpt><trkpt lat="43.7879211" lon="11.6368401"><ele>971.0</ele><time>2026-04-04T08:47:16.249Z</time></trkpt><trkpt lat="43.7879144" lon="11.6371256"><ele>969.3333333333334</ele><time>2026-04-04T08:47:17.251Z</time></trkpt><trkpt lat="43.787904" lon="11.637409"><ele>967.6666666666667</ele><time>2026-04-04T08:47:18.253Z</time></trkpt><trkpt lat="43.7879095" lon="11.6376864"><ele>966.0</ele><time>2026-04-04T08:47:19.255Z</time></trkpt><trkpt lat="43.7879286" lon="11.6379455"><ele>963.6666666666667</ele><time>2026-04-04T08:47:20.254Z</time></trkpt><trkpt lat="43.7879495" lon="11.6381991"><ele>961.3333333333334</ele><time>2026-04-04T08:47:21.256Z</time></trkpt><trkpt lat="43.7879683" lon="11.6384437"><ele>959.0</ele><time>2026-04-04T08:47:22.258Z</time></trkpt><trkpt lat="43.7879632" lon="11.6386695"><ele>957.6666666666667</ele><time>2026-04-04T08:47:23.256Z</time></trkpt><trkpt lat="43.7879209" lon="11.6388948"><ele>956.3333333333333</ele><time>2026-04-04T08:47:24.259Z</time></trkpt><trkpt lat="43.7878665" lon="11.6391089"><ele>955.0</ele><time>2026-04-04T08:47:25.259Z</time></trkpt><trkpt lat="43.7878065" lon="11.6392808"><ele>955.0</ele><time>2026-04-04T08:47:26.256Z</time></trkpt><trkpt lat="43.7877256" lon="11.6394205"><ele>955.0</ele><time>2026-04-04T08:47:27.259Z</time></trkpt><trkpt lat="43.7876088" lon="11.6395051"><ele>955.0</ele><time>2026-04-04T08:47:28.258Z</time></trkpt><trkpt lat="43.7874414" lon="11.6395388"><ele>955.0</ele><time>2026-04-04T08:47:29.268Z</time></trkpt><trkpt lat="43.787285" lon="11.6395664"><ele>957.5</ele><time>2026-04-04T08:47:30.257Z</time></trkpt><trkpt lat="43.7871361" lon="11.6396204"><ele>960.0</ele><time>2026-04-04T08:47:31.249Z</time></trkpt><trkpt lat="43.7870387" lon="11.6396917"><ele>962.5</ele><time>2026-04-04T08:47:32.253Z</time></trkpt><trkpt lat="43.7869663" lon="11.6397846"><ele>965.0</ele><time>2026-04-04T08:47:33.253Z</time></trkpt><trkpt lat="43.7869196" lon="11.6398877"><ele>965.0</ele><time>2026-04-04T08:47:34.261Z</time></trkpt><trkpt lat="43.7869068" lon="11.6400198"><ele>965.0</ele><time>2026-04-04T08:47:35.257Z</time></trkpt><trkpt lat="43.7869138" lon="11.6401648"><ele>965.0</ele><time>2026-04-04T08:47:36.251Z</time></trkpt><trkpt lat="43.7869651" lon="11.6403117"><ele>965.0</ele><time>2026-04-04T08:47:37.258Z</time></trkpt><trkpt lat="43.7870432" lon="11.6404626"><ele>965.3333333333334</ele><time>2026-04-04T08:47:38.262Z</time></trkpt><trkpt lat="43.7871294" lon="11.6406269"><ele>965.6666666666667</ele><time>2026-04-04T08:47:39.265Z</time></trkpt><trkpt lat="43.7872067" lon="11.6408093"><ele>966.0</ele><time>2026-04-04T08:47:40.255Z</time></trkpt><trkpt lat="43.7872619" lon="11.6410128"><ele>964.3333333333333</ele><time>2026-04-04T08:47:41.264Z</time></trkpt><trkpt lat="43.7872975" lon="11.6412322"><ele>962.6666666666666</ele><time>2026-04-04T08:47:42.262Z</time></trkpt><trkpt lat="43.7872713" lon="11.6414595"><ele>961.0</ele><time>2026-04-04T08:47:43.254Z</time></trkpt><trkpt lat="43.787203" lon="11.6416709"><ele>961.0</ele><time>2026-04-04T08:47:44.259Z</time></trkpt><trkpt lat="43.7871307" lon="11.6419014"><ele>961.0</ele><time>2026-04-04T08:47:45.262Z</time></trkpt><trkpt lat="43.7870742" lon="11.6421193"><ele>961.0</ele><time>2026-04-04T08:47:46.261Z</time></trkpt><trkpt lat="43.7870316" lon="11.6423326"><ele>960.3333333333333</ele><time>2026-04-04T08:47:47.264Z</time></trkpt><trkpt lat="43.787002" lon="11.6425518"><ele>959.6666666666667</ele><time>2026-04-04T08:47:48.265Z</time></trkpt><trkpt lat="43.7869925" lon="11.6427824"><ele>959.0</ele><time>2026-04-04T08:47:49.261Z</time></trkpt><trkpt lat="43.7869953" lon="11.6430307"><ele>959.6666666666667</ele><time>2026-04-04T08:47:50.271Z</time></trkpt><trkpt lat="43.7870055" lon="11.6432844"><ele>960.3333333333333</ele><time>2026-04-04T08:47:51.264Z</time></trkpt><trkpt lat="43.7870402" lon="11.6435195"><ele>961.0</ele><time>2026-04-04T08:47:52.265Z</time></trkpt><trkpt lat="43.7871138" lon="11.6437411"><ele>961.0</ele><time>2026-04-04T08:47:53.261Z</time></trkpt><trkpt lat="43.7872155" lon="11.6439426"><ele>961.0</ele><time>2026-04-04T08:47:54.265Z</time></trkpt><trkpt lat="43.7873165" lon="11.644163"><ele>961.0</ele><time>2026-04-04T08:47:55.259Z</time></trkpt><trkpt lat="43.7874025" lon="11.6443685"><ele>960.0</ele><time>2026-04-04T08:47:56.26Z</time></trkpt><trkpt lat="43.7874702" lon="11.6445562"><ele>959.0</ele><time>2026-04-04T08:47:57.254Z</time></trkpt><trkpt lat="43.7875034" lon="11.6447497"><ele>958.0</ele><time>2026-04-04T08:47:58.256Z</time></trkpt><trkpt lat="43.7874928" lon="11.6449581"><ele>957.0</ele><time>2026-04-04T08:47:59.249Z</time></trkpt><trkpt lat="43.787449" lon="11.6451632"><ele>958.6666666666667</ele><time>2026-04-04T08:48:00.26Z</time></trkpt><trkpt lat="43.7873808" lon="11.6453691"><ele>960.3333333333334</ele><time>2026-04-04T08:48:01.252Z</time></trkpt><trkpt lat="43.7872888" lon="11.6455863"><ele>962.0</ele><time>2026-04-04T08:48:02.254Z</time></trkpt><trkpt lat="43.7871953" lon="11.6458091"><ele>962.0</ele><time>2026-04-04T08:48:03.252Z</time></trkpt><trkpt lat="43.787104" lon="11.6460384"><ele>962.0</ele><time>2026-04-04T08:48:04.256Z</time></trkpt><trkpt lat="43.7870199" lon="11.6462864"><ele>962.0</ele><time>2026-04-04T08:48:05.257Z</time></trkpt><trkpt lat="43.786938" lon="11.6465462"><ele>963.0</ele><time>2026-04-04T08:48:06.256Z</time></trkpt><trkpt lat="43.7868517" lon="11.6467953"><ele>964.0</ele><time>2026-04-04T08:48:07.259Z</time></trkpt><trkpt lat="43.7867693" lon="11.6470358"><ele>965.0</ele><time>2026-04-04T08:48:08.259Z</time></trkpt><trkpt lat="43.7867003" lon="11.6472582"><ele>959.3333333333334</ele><time>2026-04-04T08:48:09.26Z</time></trkpt><trkpt lat="43.7866297" lon="11.6474703"><ele>953.6666666666667</ele><time>2026-04-04T08:48:10.262Z</time></trkpt><trkpt lat="43.7865702" lon="11.6476691"><ele>948.0</ele><time>2026-04-04T08:48:11.26Z</time></trkpt><trkpt lat="43.7865316" lon="11.6478705"><ele>948.0</ele><time>2026-04-04T08:48:12.268Z</time></trkpt><trkpt lat="43.7865068" lon="11.6480925"><ele>948.0</ele><time>2026-04-04T08:48:13.256Z</time></trkpt><trkpt lat="43.7865128" lon="11.6483266"><ele>948.0</ele><time>2026-04-04T08:48:14.257Z</time></trkpt><trkpt lat="43.7865391" lon="11.6485765"><ele>949.0</ele><time>2026-04-04T08:48:15.26Z</time></trkpt><trkpt lat="43.786568" lon="11.6488256"><ele>950.0</ele><time>2026-04-04T08:48:16.259Z</time></trkpt><trkpt lat="43.786587" lon="11.6490515"><ele>951.0</ele><time>2026-04-04T08:48:17.259Z</time></trkpt><trkpt lat="43.7865768" lon="11.6492744"><ele>952.25</ele><time>2026-04-04T08:48:18.261Z</time></trkpt><trkpt lat="43.7865414" lon="11.6494847"><ele>953.5</ele><time>2026-04-04T08:48:19.257Z</time></trkpt><trkpt lat="43.7864839" lon="11.6496774"><ele>954.75</ele><time>2026-04-04T08:48:20.265Z</time></trkpt><trkpt lat="43.7864161" lon="11.6498454"><ele>956.0</ele><time>2026-04-04T08:48:21.262Z</time></trkpt><trkpt lat="43.7863198" lon="11.6499981"><ele>956.0</ele><time>2026-04-04T08:48:22.261Z</time></trkpt><trkpt lat="43.7861961" lon="11.6501337"><ele>956.0</ele><time>2026-04-04T08:48:23.263Z</time></trkpt><trkpt lat="43.7860444" lon="11.650234"><ele>956.0</ele><time>2026-04-04T08:48:24.261Z</time></trkpt><trkpt lat="43.7858993" lon="11.6503481"><ele>956.0</ele><time>2026-04-04T08:48:25.263Z</time></trkpt><trkpt lat="43.7857634" lon="11.6504598"><ele>956.0</ele><time>2026-04-04T08:48:26.258Z</time></trkpt><trkpt lat="43.785637" lon="11.6505487"><ele>956.0</ele><time>2026-04-04T08:48:27.263Z</time></trkpt><trkpt lat="43.7855039" lon="11.6505962"><ele>956.0</ele><time>2026-04-04T08:48:28.259Z</time></trkpt><trkpt lat="43.7853599" lon="11.6506078"><ele>956.0</ele><time>2026-04-04T08:48:29.259Z</time></trkpt><trkpt lat="43.7852083" lon="11.6505528"><ele>956.0</ele><time>2026-04-04T08:48:30.258Z</time></trkpt><trkpt lat="43.7850542" lon="11.650477"><ele>956.0</ele><time>2026-04-04T08:48:31.252Z</time></trkpt><trkpt lat="43.7849058" lon="11.6503784"><ele>953.6666666666667</ele><time>2026-04-04T08:48:32.254Z</time></trkpt><trkpt lat="43.7847485" lon="11.6502704"><ele>951.3333333333333</ele><time>2026-04-04T08:48:33.255Z</time></trkpt><trkpt lat="43.7845813" lon="11.6501774"><ele>949.0</ele><time>2026-04-04T08:48:34.256Z</time></trkpt><trkpt lat="43.7844023" lon="11.6500803"><ele>951.0</ele><time>2026-04-04T08:48:35.253Z</time></trkpt><trkpt lat="43.7842272" lon="11.6499892"><ele>953.0</ele><time>2026-04-04T08:48:36.25Z</time></trkpt><trkpt lat="43.7840572" lon="11.6498993"><ele>955.0</ele><time>2026-04-04T08:48:37.249Z</time></trkpt><trkpt lat="43.7839027" lon="11.6498101"><ele>955.0</ele><time>2026-04-04T08:48:38.248Z</time></trkpt><trkpt lat="43.7837529" lon="11.6497342"><ele>955.0</ele><time>2026-04-04T08:48:39.245Z</time></trkpt><trkpt lat="43.7836087" lon="11.649683"><ele>955.0</ele><time>2026-04-04T08:48:40.253Z</time></trkpt><trkpt lat="43.7834508" lon="11.6496692"><ele>956.0</ele><time>2026-04-04T08:48:41.252Z</time></trkpt><trkpt lat="43.7832823" lon="11.6496794"><ele>957.0</ele><time>2026-04-04T08:48:42.256Z</time></trkpt><trkpt lat="43.78313" lon="11.649695"><ele>958.0</ele><time>2026-04-04T08:48:43.278Z</time></trkpt><trkpt lat="43.7829854" lon="11.6497274"><ele>958.0</ele><time>2026-04-04T08:48:44.262Z</time></trkpt><trkpt lat="43.7828379" lon="11.6497711"><ele>958.0</ele><time>2026-04-04T08:48:45.259Z</time></trkpt><trkpt lat="43.7826912" lon="11.6498426"><ele>958.0</ele><time>2026-04-04T08:48:46.259Z</time></trkpt><trkpt lat="43.7825502" lon="11.6499487"><ele>962.0</ele><time>2026-04-04T08:48:47.259Z</time></trkpt><trkpt lat="43.7824158" lon="11.6500735"><ele>966.0</ele><time>2026-04-04T08:48:48.257Z</time></trkpt><trkpt lat="43.7822687" lon="11.6502243"><ele>970.0</ele><time>2026-04-04T08:48:49.256Z</time></trkpt><trkpt lat="43.7821053" lon="11.650373"><ele>970.0</ele><time>2026-04-04T08:48:50.252Z</time></trkpt><trkpt lat="43.7819341" lon="11.6505177"><ele>970.0</ele><time>2026-04-04T08:48:51.252Z</time></trkpt><trkpt lat="43.7817644" lon="11.650626"><ele>970.0</ele><time>2026-04-04T08:48:52.253Z</time></trkpt><trkpt lat="43.781615" lon="11.6507366"><ele>967.0</ele><time>2026-04-04T08:48:53.25Z</time></trkpt><trkpt lat="43.7814836" lon="11.6508531"><ele>964.0</ele><time>2026-04-04T08:48:54.254Z</time></trkpt><trkpt lat="43.7813785" lon="11.6509906"><ele>961.0</ele><time>2026-04-04T08:48:55.257Z</time></trkpt><trkpt lat="43.7812974" lon="11.6511474"><ele>958.0</ele><time>2026-04-04T08:48:56.257Z</time></trkpt><trkpt lat="43.7812473" lon="11.6513269"><ele>958.0</ele><time>2026-04-04T08:48:57.258Z</time></trkpt><trkpt lat="43.7812213" lon="11.6515343"><ele>958.0</ele><time>2026-04-04T08:48:58.254Z</time></trkpt><trkpt lat="43.7812116" lon="11.6517716"><ele>958.0</ele><time>2026-04-04T08:48:59.258Z</time></trkpt><trkpt lat="43.7812029" lon="11.6520177"><ele>957.6666666666666</ele><time>2026-04-04T08:49:00.257Z</time></trkpt><trkpt lat="43.7811797" lon="11.652251"><ele>957.3333333333333</ele><time>2026-04-04T08:49:01.254Z</time></trkpt><trkpt lat="43.7811637" lon="11.6524519"><ele>957.0</ele><time>2026-04-04T08:49:02.256Z</time></trkpt><trkpt lat="43.7811621" lon="11.6526389"><ele>955.6666666666667</ele><time>2026-04-04T08:49:03.257Z</time></trkpt><trkpt lat="43.7811952" lon="11.6528327"><ele>954.3333333333334</ele><time>2026-04-04T08:49:04.264Z</time></trkpt><trkpt lat="43.7812711" lon="11.6530129"><ele>953.0</ele><time>2026-04-04T08:49:05.263Z</time></trkpt><trkpt lat="43.7813552" lon="11.65322"><ele>953.0</ele><time>2026-04-04T08:49:06.26Z</time></trkpt><trkpt lat="43.781403" lon="11.6534539"><ele>953.0</ele><time>2026-04-04T08:49:07.264Z</time></trkpt><trkpt lat="43.7814207" lon="11.653704"><ele>953.0</ele><time>2026-04-04T08:49:08.259Z</time></trkpt><trkpt lat="43.7814426" lon="11.6539183"><ele>949.0</ele><time>2026-04-04T08:49:09.261Z</time></trkpt><trkpt lat="43.7814962" lon="11.6541055"><ele>945.0</ele><time>2026-04-04T08:49:10.26Z</time></trkpt><trkpt lat="43.7815829" lon="11.6542876"><ele>941.0</ele><time>2026-04-04T08:49:11.257Z</time></trkpt><trkpt lat="43.7816976" lon="11.6544644"><ele>943.6666666666667</ele><time>2026-04-04T08:49:12.26Z</time></trkpt><trkpt lat="43.7818328" lon="11.6546386"><ele>946.3333333333333</ele><time>2026-04-04T08:49:13.27Z</time></trkpt><trkpt lat="43.7819871" lon="11.6548335"><ele>949.0</ele><time>2026-04-04T08:49:14.258Z</time></trkpt><trkpt lat="43.782139" lon="11.6550226"><ele>949.0</ele><time>2026-04-04T08:49:15.26Z</time></trkpt><trkpt lat="43.7822713" lon="11.6551997"><ele>949.0</ele><time>2026-04-04T08:49:16.265Z</time></trkpt><trkpt lat="43.7823884" lon="11.6553799"><ele>949.0</ele><time>2026-04-04T08:49:17.264Z</time></trkpt><trkpt lat="43.7824786" lon="11.6555798"><ele>947.6666666666666</ele><time>2026-04-04T08:49:18.262Z</time></trkpt><trkpt lat="43.7825171" lon="11.6557983"><ele>946.3333333333333</ele><time>2026-04-04T08:49:19.258Z</time></trkpt><trkpt lat="43.7825289" lon="11.656036"><ele>945.0</ele><time>2026-04-04T08:49:20.258Z</time></trkpt><trkpt lat="43.7825171" lon="11.6562855"><ele>945.0</ele><time>2026-04-04T08:49:21.261Z</time></trkpt><trkpt lat="43.7824532" lon="11.6565029"><ele>945.0</ele><time>2026-04-04T08:49:22.264Z</time></trkpt><trkpt lat="43.7823523" lon="11.6566797"><ele>945.0</ele><time>2026-04-04T08:49:23.26Z</time></trkpt><trkpt lat="43.7822078" lon="11.6568445"><ele>944.6666666666667</ele><time>2026-04-04T08:49:24.26Z</time></trkpt><trkpt lat="43.7820292" lon="11.6569662"><ele>944.3333333333334</ele><time>2026-04-04T08:49:25.261Z</time></trkpt><trkpt lat="43.7818467" lon="11.6570991"><ele>944.0</ele><time>2026-04-04T08:49:26.261Z</time></trkpt><trkpt lat="43.7816883" lon="11.6572307"><ele>944.0</ele><time>2026-04-04T08:49:27.259Z</time></trkpt><trkpt lat="43.7815588" lon="11.657354"><ele>944.0</ele><time>2026-04-04T08:49:28.263Z</time></trkpt><trkpt lat="43.7814638" lon="11.6574993"><ele>944.0</ele><time>2026-04-04T08:49:29.261Z</time></trkpt><trkpt lat="43.7814212" lon="11.6576886"><ele>944.0</ele><time>2026-04-04T08:49:30.261Z</time></trkpt><trkpt lat="43.7814111" lon="11.6579084"><ele>946.0</ele><time>2026-04-04T08:49:31.257Z</time></trkpt><trkpt lat="43.7814116" lon="11.6581447"><ele>948.0</ele><time>2026-04-04T08:49:32.261Z</time></trkpt><trkpt lat="43.7814242" lon="11.6584111"><ele>950.0</ele><time>2026-04-04T08:49:33.262Z</time></trkpt><trkpt lat="43.7814398" lon="11.6586797"><ele>950.0</ele><time>2026-04-04T08:49:34.261Z</time></trkpt><trkpt lat="43.7814582" lon="11.6589257"><ele>950.0</ele><time>2026-04-04T08:49:35.258Z</time></trkpt><trkpt lat="43.7814704" lon="11.6591459"><ele>950.0</ele><time>2026-04-04T08:49:36.259Z</time></trkpt><trkpt lat="43.7814772" lon="11.6593487"><ele>949.0</ele><time>2026-04-04T08:49:37.259Z</time></trkpt><trkpt lat="43.7814942" lon="11.6595239"><ele>948.0</ele><time>2026-04-04T08:49:38.261Z</time></trkpt><trkpt lat="43.7815149" lon="11.6596829"><ele>947.0</ele><time>2026-04-04T08:49:39.263Z</time></trkpt><trkpt lat="43.7815481" lon="11.6598323"><ele>946.0</ele><time>2026-04-04T08:49:40.263Z</time></trkpt><trkpt lat="43.7815813" lon="11.6599952"><ele>946.0</ele><time>2026-04-04T08:49:41.265Z</time></trkpt><trkpt lat="43.78161" lon="11.660153"><ele>946.0</ele><time>2026-04-04T08:49:42.266Z</time></trkpt><trkpt lat="43.7816197" lon="11.660317"><ele>946.0</ele><time>2026-04-04T08:49:43.265Z</time></trkpt><trkpt lat="43.7816131" lon="11.6604821"><ele>946.0</ele><time>2026-04-04T08:49:44.275Z</time></trkpt><trkpt lat="43.7815859" lon="11.6606418"><ele>945.1999999999999</ele><time>2026-04-04T08:49:45.263Z</time></trkpt><trkpt lat="43.7815344" lon="11.6607959"><ele>944.3999999999999</ele><time>2026-04-04T08:49:46.263Z</time></trkpt><trkpt lat="43.7814792" lon="11.6609253"><ele>943.6</ele><time>2026-04-04T08:49:47.264Z</time></trkpt><trkpt lat="43.7814299" lon="11.6610511"><ele>942.8</ele><time>2026-04-04T08:49:48.264Z</time></trkpt><trkpt lat="43.7813943" lon="11.6611719"><ele>942.0</ele><time>2026-04-04T08:49:49.262Z</time></trkpt><trkpt lat="43.7813769" lon="11.6612932"><ele>940.75</ele><time>2026-04-04T08:49:50.261Z</time></trkpt><trkpt lat="43.7813764" lon="11.6614172"><ele>939.5</ele><time>2026-04-04T08:49:51.264Z</time></trkpt><trkpt lat="43.7814031" lon="11.6615617"><ele>938.25</ele><time>2026-04-04T08:49:52.275Z</time></trkpt><trkpt lat="43.781456" lon="11.6617386"><ele>937.0</ele><time>2026-04-04T08:49:53.265Z</time></trkpt><trkpt lat="43.7815181" lon="11.6619253"><ele>935.25</ele><time>2026-04-04T08:49:54.268Z</time></trkpt><trkpt lat="43.7815745" lon="11.6621147"><ele>933.5</ele><time>2026-04-04T08:49:55.265Z</time></trkpt><trkpt lat="43.781629" lon="11.6622927"><ele>931.75</ele><time>2026-04-04T08:49:56.264Z</time></trkpt><trkpt lat="43.7816732" lon="11.6624686"><ele>930.0</ele><time>2026-04-04T08:49:57.266Z</time></trkpt><trkpt lat="43.7817147" lon="11.6626504"><ele>928.5</ele><time>2026-04-04T08:49:58.267Z</time></trkpt><trkpt lat="43.7817457" lon="11.6628255"><ele>927.0</ele><time>2026-04-04T08:49:59.267Z</time></trkpt><trkpt lat="43.7817704" lon="11.6630063"><ele>925.5</ele><time>2026-04-04T08:50:00.272Z</time></trkpt><trkpt lat="43.7817829" lon="11.6631885"><ele>924.0</ele><time>2026-04-04T08:50:01.261Z</time></trkpt><trkpt lat="43.781775" lon="11.6633752"><ele>924.0</ele><time>2026-04-04T08:50:02.259Z</time></trkpt><trkpt lat="43.7817537" lon="11.6635607"><ele>924.0</ele><time>2026-04-04T08:50:03.259Z</time></trkpt><trkpt lat="43.7817102" lon="11.6637431"><ele>924.0</ele><time>2026-04-04T08:50:04.26Z</time></trkpt><trkpt lat="43.7816483" lon="11.6639163"><ele>924.0</ele><time>2026-04-04T08:50:05.254Z</time></trkpt><trkpt lat="43.7815765" lon="11.6640848"><ele>925.0</ele><time>2026-04-04T08:50:06.258Z</time></trkpt><trkpt lat="43.781503" lon="11.6642294"><ele>926.0</ele><time>2026-04-04T08:50:07.262Z</time></trkpt><trkpt lat="43.7814244" lon="11.664361"><ele>927.0</ele><time>2026-04-04T08:50:08.26Z</time></trkpt><trkpt lat="43.7813547" lon="11.6644905"><ele>928.0</ele><time>2026-04-04T08:50:09.261Z</time></trkpt><trkpt lat="43.7812876" lon="11.6646128"><ele>928.5</ele><time>2026-04-04T08:50:10.262Z</time></trkpt><trkpt lat="43.7812252" lon="11.6647448"><ele>929.0</ele><time>2026-04-04T08:50:11.261Z</time></trkpt><trkpt lat="43.781162" lon="11.6648821"><ele>929.5</ele><time>2026-04-04T08:50:12.261Z</time></trkpt><trkpt lat="43.7810934" lon="11.6650244"><ele>930.0</ele><time>2026-04-04T08:50:13.26Z</time></trkpt><trkpt lat="43.7810234" lon="11.6651799"><ele>923.0</ele><time>2026-04-04T08:50:14.264Z</time></trkpt><trkpt lat="43.780949" lon="11.6653395"><ele>916.0</ele><time>2026-04-04T08:50:15.272Z</time></trkpt><trkpt lat="43.7808787" lon="11.665501"><ele>909.0</ele><time>2026-04-04T08:50:16.263Z</time></trkpt><trkpt lat="43.7808229" lon="11.6656699"><ele>902.0</ele><time>2026-04-04T08:50:17.258Z</time></trkpt><trkpt lat="43.7807803" lon="11.6658532"><ele>902.0</ele><time>2026-04-04T08:50:18.261Z</time></trkpt><trkpt lat="43.7807661" lon="11.6660524"><ele>902.0</ele><time>2026-04-04T08:50:19.259Z</time></trkpt><trkpt lat="43.7807727" lon="11.666256"><ele>902.0</ele><time>2026-04-04T08:50:20.261Z</time></trkpt><trkpt lat="43.7807842" lon="11.6664456"><ele>902.0</ele><time>2026-04-04T08:50:21.261Z</time></trkpt><trkpt lat="43.7807824" lon="11.6666124"><ele>900.75</ele><time>2026-04-04T08:50:22.261Z</time></trkpt><trkpt lat="43.7807986" lon="11.6667747"><ele>899.5</ele><time>2026-04-04T08:50:23.262Z</time></trkpt><trkpt lat="43.7808469" lon="11.6669411"><ele>898.25</ele><time>2026-04-04T08:50:24.262Z</time></trkpt><trkpt lat="43.7809261" lon="11.6671068"><ele>897.0</ele><time>2026-04-04T08:50:25.262Z</time></trkpt><trkpt lat="43.7810258" lon="11.6672736"><ele>899.5</ele><time>2026-04-04T08:50:26.258Z</time></trkpt><trkpt lat="43.7811241" lon="11.6674446"><ele>902.0</ele><time>2026-04-04T08:50:27.261Z</time></trkpt><trkpt lat="43.7812034" lon="11.667604"><ele>904.5</ele><time>2026-04-04T08:50:28.259Z</time></trkpt><trkpt lat="43.7812607" lon="11.6677826"><ele>907.0</ele><time>2026-04-04T08:50:29.257Z</time></trkpt><trkpt lat="43.7812731" lon="11.6679921"><ele>907.0</ele><time>2026-04-04T08:50:30.266Z</time></trkpt><trkpt lat="43.7812464" lon="11.6682309"><ele>907.0</ele><time>2026-04-04T08:50:31.254Z</time></trkpt><trkpt lat="43.7812245" lon="11.6684493"><ele>907.0</ele><time>2026-04-04T08:50:32.254Z</time></trkpt><trkpt lat="43.7812257" lon="11.6686449"><ele>905.25</ele><time>2026-04-04T08:50:33.256Z</time></trkpt><trkpt lat="43.7812392" lon="11.6688391"><ele>903.5</ele><time>2026-04-04T08:50:34.257Z</time></trkpt><trkpt lat="43.7812713" lon="11.669033"><ele>901.75</ele><time>2026-04-04T08:50:35.256Z</time></trkpt><trkpt lat="43.781331" lon="11.6692292"><ele>900.0</ele><time>2026-04-04T08:50:36.257Z</time></trkpt><trkpt lat="43.7814128" lon="11.6694219"><ele>896.25</ele><time>2026-04-04T08:50:37.265Z</time></trkpt><trkpt lat="43.7814752" lon="11.6696127"><ele>892.5</ele><time>2026-04-04T08:50:38.253Z</time></trkpt><trkpt lat="43.7814997" lon="11.6697868"><ele>888.75</ele><time>2026-04-04T08:50:39.253Z</time></trkpt><trkpt lat="43.781506" lon="11.6699778"><ele>885.0</ele><time>2026-04-04T08:50:40.255Z</time></trkpt><trkpt lat="43.7814953" lon="11.6701871"><ele>884.25</ele><time>2026-04-04T08:50:41.253Z</time></trkpt><trkpt lat="43.7814688" lon="11.6703892"><ele>883.5</ele><time>2026-04-04T08:50:42.252Z</time></trkpt><trkpt lat="43.7814314" lon="11.6705866"><ele>882.75</ele><time>2026-04-04T08:50:43.252Z</time></trkpt><trkpt lat="43.7813811" lon="11.6707679"><ele>882.0</ele><time>2026-04-04T08:50:44.254Z</time></trkpt><trkpt lat="43.7813295" lon="11.6709643"><ele>882.0</ele><time>2026-04-04T08:50:45.253Z</time></trkpt><trkpt lat="43.7812834" lon="11.6711636"><ele>882.0</ele><time>2026-04-04T08:50:46.265Z</time></trkpt><trkpt lat="43.7812313" lon="11.6713583"><ele>882.0</ele><time>2026-04-04T08:50:47.255Z</time></trkpt><trkpt lat="43.7811657" lon="11.6715509"><ele>882.0</ele><time>2026-04-04T08:50:48.256Z</time></trkpt><trkpt lat="43.7810921" lon="11.6717469"><ele>882.0</ele><time>2026-04-04T08:50:49.253Z</time></trkpt><trkpt lat="43.7810158" lon="11.6719186"><ele>882.0</ele><time>2026-04-04T08:50:50.255Z</time></trkpt><trkpt lat="43.7809436" lon="11.672079"><ele>882.0</ele><time>2026-04-04T08:50:51.253Z</time></trkpt><trkpt lat="43.7808745" lon="11.6722413"><ele>877.5</ele><time>2026-04-04T08:50:52.252Z</time></trkpt><trkpt lat="43.7807953" lon="11.6724033"><ele>873.0</ele><time>2026-04-04T08:50:53.254Z</time></trkpt><trkpt lat="43.780704" lon="11.6725651"><ele>868.5</ele><time>2026-04-04T08:50:54.254Z</time></trkpt><trkpt lat="43.7806207" lon="11.6727236"><ele>864.0</ele><time>2026-04-04T08:50:55.256Z</time></trkpt><trkpt lat="43.7805469" lon="11.6728846"><ele>864.0</ele><time>2026-04-04T08:50:56.254Z</time></trkpt><trkpt lat="43.7804757" lon="11.6730334"><ele>864.0</ele><time>2026-04-04T08:50:57.251Z</time></trkpt><trkpt lat="43.7803884" lon="11.6731406"><ele>864.0</ele><time>2026-04-04T08:50:58.254Z</time></trkpt><trkpt lat="43.7802803" lon="11.673208"><ele>864.0</ele><time>2026-04-04T08:50:59.253Z</time></trkpt><trkpt lat="43.7801503" lon="11.6732474"><ele>860.25</ele><time>2026-04-04T08:51:00.265Z</time></trkpt><trkpt lat="43.7800215" lon="11.6732959"><ele>856.5</ele><time>2026-04-04T08:51:01.252Z</time></trkpt><trkpt lat="43.7799104" lon="11.6733613"><ele>852.75</ele><time>2026-04-04T08:51:02.25Z</time></trkpt><trkpt lat="43.7798247" lon="11.6734592"><ele>849.0</ele><time>2026-04-04T08:51:03.251Z</time></trkpt><trkpt lat="43.7797495" lon="11.6735761"><ele>848.25</ele><time>2026-04-04T08:51:04.253Z</time></trkpt><trkpt lat="43.7797077" lon="11.6737242"><ele>847.5</ele><time>2026-04-04T08:51:05.247Z</time></trkpt><trkpt lat="43.7796963" lon="11.6739029"><ele>846.75</ele><time>2026-04-04T08:51:06.254Z</time></trkpt><trkpt lat="43.7797167" lon="11.6741394"><ele>846.0</ele><time>2026-04-04T08:51:07.256Z</time></trkpt><trkpt lat="43.7797661" lon="11.674463"><ele>844.0</ele><time>2026-04-04T08:51:08.252Z</time></trkpt><trkpt lat="43.7797546" lon="11.674782"><ele>842.0</ele><time>2026-04-04T08:51:09.256Z</time></trkpt><trkpt lat="43.7797152" lon="11.6750822"><ele>841.0</ele><time>2026-04-04T08:51:10.254Z</time></trkpt><trkpt lat="43.7796578" lon="11.6754052"><ele>840.0</ele><time>2026-04-04T08:51:11.258Z</time></trkpt><trkpt lat="43.7796078" lon="11.6757318"><ele>840.0</ele><time>2026-04-04T08:51:12.258Z</time></trkpt><trkpt lat="43.7795556" lon="11.6760535"><ele>840.0</ele><time>2026-04-04T08:51:13.258Z</time></trkpt><trkpt lat="43.7795044" lon="11.6763601"><ele>839.0</ele><time>2026-04-04T08:51:14.258Z</time></trkpt><trkpt lat="43.77945" lon="11.6766442"><ele>838.0</ele><time>2026-04-04T08:51:15.256Z</time></trkpt><trkpt lat="43.779386" lon="11.6769145"><ele>837.0</ele><time>2026-04-04T08:51:16.257Z</time></trkpt><trkpt lat="43.7793195" lon="11.6771722"><ele>830.3333333333333</ele><time>2026-04-04T08:51:17.268Z</time></trkpt><trkpt lat="43.7792576" lon="11.6774158"><ele>823.6666666666666</ele><time>2026-04-04T08:51:18.256Z</time></trkpt><trkpt lat="43.7792038" lon="11.6776576"><ele>817.0</ele><time>2026-04-04T08:51:19.256Z</time></trkpt><trkpt lat="43.7791602" lon="11.677892"><ele>817.0</ele><time>2026-04-04T08:51:20.252Z</time></trkpt><trkpt lat="43.7791205" lon="11.6781007"><ele>817.0</ele><time>2026-04-04T08:51:21.254Z</time></trkpt><trkpt lat="43.779071" lon="11.6782766"><ele>817.0</ele><time>2026-04-04T08:51:22.253Z</time></trkpt><trkpt lat="43.7789895" lon="11.6784089"><ele>817.0</ele><time>2026-04-04T08:51:23.252Z</time></trkpt><trkpt lat="43.7788723" lon="11.6785055"><ele>817.0</ele><time>2026-04-04T08:51:24.252Z</time></trkpt><trkpt lat="43.7787307" lon="11.6785624"><ele>817.0</ele><time>2026-04-04T08:51:25.256Z</time></trkpt><trkpt lat="43.7785641" lon="11.6785836"><ele>817.0</ele><time>2026-04-04T08:51:26.249Z</time></trkpt><trkpt lat="43.7783897" lon="11.6786049"><ele>814.0</ele><time>2026-04-04T08:51:27.252Z</time></trkpt><trkpt lat="43.7782357" lon="11.6786286"><ele>811.0</ele><time>2026-04-04T08:51:28.252Z</time></trkpt><trkpt lat="43.7781072" lon="11.6786622"><ele>808.0</ele><time>2026-04-04T08:51:29.249Z</time></trkpt><trkpt lat="43.7780029" lon="11.6787182"><ele>805.0</ele><time>2026-04-04T08:51:30.256Z</time></trkpt><trkpt lat="43.7779142" lon="11.678815"><ele>805.0</ele><time>2026-04-04T08:51:31.252Z</time></trkpt><trkpt lat="43.7778599" lon="11.6789966"><ele>805.0</ele><time>2026-04-04T08:51:32.253Z</time></trkpt><trkpt lat="43.7778184" lon="11.6792285"><ele>805.0</ele><time>2026-04-04T08:51:33.249Z</time></trkpt><trkpt lat="43.7777823" lon="11.6794848"><ele>804.0</ele><time>2026-04-04T08:51:34.247Z</time></trkpt><trkpt lat="43.7777663" lon="11.6797422"><ele>803.0</ele><time>2026-04-04T08:51:35.25Z</time></trkpt><trkpt lat="43.7777715" lon="11.6799981"><ele>802.0</ele><time>2026-04-04T08:51:36.248Z</time></trkpt><trkpt lat="43.7778003" lon="11.680246"><ele>798.0</ele><time>2026-04-04T08:51:37.256Z</time></trkpt><trkpt lat="43.7778429" lon="11.680491"><ele>794.0</ele><time>2026-04-04T08:51:38.256Z</time></trkpt><trkpt lat="43.7778854" lon="11.6807282"><ele>790.0</ele><time>2026-04-04T08:51:39.254Z</time></trkpt><trkpt lat="43.7779261" lon="11.6809495"><ele>788.25</ele><time>2026-04-04T08:51:40.251Z</time></trkpt><trkpt lat="43.7779535" lon="11.681159"><ele>786.5</ele><time>2026-04-04T08:51:41.252Z</time></trkpt><trkpt lat="43.7779731" lon="11.6813556"><ele>784.75</ele><time>2026-04-04T08:51:42.252Z</time></trkpt><trkpt lat="43.7779912" lon="11.681542"><ele>783.0</ele><time>2026-04-04T08:51:43.257Z</time></trkpt><trkpt lat="43.7780153" lon="11.6817345"><ele>783.0</ele><time>2026-04-04T08:51:44.255Z</time></trkpt><trkpt lat="43.7780335" lon="11.6819113"><ele>783.0</ele><time>2026-04-04T08:51:45.257Z</time></trkpt><trkpt lat="43.7780429" lon="11.6820852"><ele>783.0</ele><time>2026-04-04T08:51:46.258Z</time></trkpt><trkpt lat="43.7780273" lon="11.6822788"><ele>783.0</ele><time>2026-04-04T08:51:47.255Z</time></trkpt><trkpt lat="43.7779752" lon="11.6824707"><ele>783.0</ele><time>2026-04-04T08:51:48.262Z</time></trkpt><trkpt lat="43.7779053" lon="11.6826516"><ele>783.0</ele><time>2026-04-04T08:51:49.253Z</time></trkpt><trkpt lat="43.7778168" lon="11.6828289"><ele>783.0</ele><time>2026-04-04T08:51:50.254Z</time></trkpt><trkpt lat="43.7777279" lon="11.6829816"><ele>783.0</ele><time>2026-04-04T08:51:51.253Z</time></trkpt><trkpt lat="43.7776451" lon="11.6831105"><ele>780.8</ele><time>2026-04-04T08:51:52.256Z</time></trkpt><trkpt lat="43.7775687" lon="11.683227"><ele>778.5999999999999</ele><time>2026-04-04T08:51:53.254Z</time></trkpt><trkpt lat="43.7775054" lon="11.6833436"><ele>776.4000000000001</ele><time>2026-04-04T08:51:54.257Z</time></trkpt><trkpt lat="43.7774535" lon="11.6834419"><ele>774.2</ele><time>2026-04-04T08:51:55.26Z</time></trkpt><trkpt lat="43.7774033" lon="11.6835386"><ele>772.0</ele><time>2026-04-04T08:51:56.258Z</time></trkpt><trkpt lat="43.7773614" lon="11.6836429"><ele>772.0</ele><time>2026-04-04T08:51:57.256Z</time></trkpt><trkpt lat="43.7773284" lon="11.6837661"><ele>772.0</ele><time>2026-04-04T08:51:58.281Z</time></trkpt><trkpt lat="43.7772946" lon="11.6838971"><ele>772.0</ele><time>2026-04-04T08:51:59.257Z</time></trkpt><trkpt lat="43.7772574" lon="11.6840264"><ele>772.0</ele><time>2026-04-04T08:52:00.262Z</time></trkpt><trkpt lat="43.7772133" lon="11.6841476"><ele>772.0</ele><time>2026-04-04T08:52:01.253Z</time></trkpt><trkpt lat="43.7771627" lon="11.6842618"><ele>772.0</ele><time>2026-04-04T08:52:02.253Z</time></trkpt><trkpt lat="43.7771005" lon="11.6843607"><ele>772.0</ele><time>2026-04-04T08:52:03.256Z</time></trkpt><trkpt lat="43.7770298" lon="11.6844398"><ele>772.0</ele><time>2026-04-04T08:52:04.255Z</time></trkpt><trkpt lat="43.7769577" lon="11.6845241"><ele>772.0</ele><time>2026-04-04T08:52:05.254Z</time></trkpt><trkpt lat="43.7768946" lon="11.6846171"><ele>772.0</ele><time>2026-04-04T08:52:06.255Z</time></trkpt><trkpt lat="43.7768401" lon="11.6847247"><ele>769.2</ele><time>2026-04-04T08:52:07.258Z</time></trkpt><trkpt lat="43.7767935" lon="11.6848404"><ele>766.4000000000001</ele><time>2026-04-04T08:52:08.257Z</time></trkpt><trkpt lat="43.776751" lon="11.6849575"><ele>763.5999999999999</ele><time>2026-04-04T08:52:09.257Z</time></trkpt><trkpt lat="43.7767037" lon="11.6850734"><ele>760.8</ele><time>2026-04-04T08:52:10.257Z</time></trkpt><trkpt lat="43.7766477" lon="11.6851895"><ele>758.0</ele><time>2026-04-04T08:52:11.254Z</time></trkpt><trkpt lat="43.7765822" lon="11.6852951"><ele>758.0</ele><time>2026-04-04T08:52:12.255Z</time></trkpt><trkpt lat="43.7765029" lon="11.6853911"><ele>758.0</ele><time>2026-04-04T08:52:13.257Z</time></trkpt><trkpt lat="43.7763995" lon="11.6854563"><ele>758.0</ele><time>2026-04-04T08:52:14.255Z</time></trkpt><trkpt lat="43.7762847" lon="11.6855115"><ele>758.0</ele><time>2026-04-04T08:52:15.253Z</time></trkpt><trkpt lat="43.7761635" lon="11.6855536"><ele>758.0</ele><time>2026-04-04T08:52:16.255Z</time></trkpt><trkpt lat="43.7760402" lon="11.6855873"><ele>758.0</ele><time>2026-04-04T08:52:17.258Z</time></trkpt><trkpt lat="43.7759183" lon="11.6856249"><ele>758.0</ele><time>2026-04-04T08:52:18.255Z</time></trkpt><trkpt lat="43.7757973" lon="11.6856716"><ele>758.0</ele><time>2026-04-04T08:52:19.265Z</time></trkpt><trkpt lat="43.7756809" lon="11.6857419"><ele>757.25</ele><time>2026-04-04T08:52:20.253Z</time></trkpt><trkpt lat="43.7755709" lon="11.6858263"><ele>756.5</ele><time>2026-04-04T08:52:21.253Z</time></trkpt><trkpt lat="43.7754695" lon="11.6859156"><ele>755.75</ele><time>2026-04-04T08:52:22.254Z</time></trkpt><trkpt lat="43.7753747" lon="11.686009"><ele>755.0</ele><time>2026-04-04T08:52:23.254Z</time></trkpt><trkpt lat="43.7752856" lon="11.6861044"><ele>755.0</ele><time>2026-04-04T08:52:24.257Z</time></trkpt><trkpt lat="43.7752044" lon="11.6861909"><ele>755.0</ele><time>2026-04-04T08:52:25.264Z</time></trkpt><trkpt lat="43.7751262" lon="11.6862757"><ele>755.0</ele><time>2026-04-04T08:52:26.261Z</time></trkpt><trkpt lat="43.7750553" lon="11.6863648"><ele>755.0</ele><time>2026-04-04T08:52:27.259Z</time></trkpt><trkpt lat="43.774994" lon="11.6864624"><ele>755.0</ele><time>2026-04-04T08:52:28.261Z</time></trkpt><trkpt lat="43.7749381" lon="11.6865738"><ele>750.6</ele><time>2026-04-04T08:52:29.262Z</time></trkpt><trkpt lat="43.7749115" lon="11.6866981"><ele>746.2</ele><time>2026-04-04T08:52:30.266Z</time></trkpt><trkpt lat="43.7749261" lon="11.6868352"><ele>741.8</ele><time>2026-04-04T08:52:31.273Z</time></trkpt><trkpt lat="43.7749662" lon="11.6869825"><ele>737.4</ele><time>2026-04-04T08:52:32.263Z</time></trkpt><trkpt lat="43.7750056" lon="11.6871275"><ele>733.0</ele><time>2026-04-04T08:52:33.257Z</time></trkpt><trkpt lat="43.7750312" lon="11.6872761"><ele>733.0</ele><time>2026-04-04T08:52:34.253Z</time></trkpt><trkpt lat="43.7750222" lon="11.6874205"><ele>733.0</ele><time>2026-04-04T08:52:35.252Z</time></trkpt><trkpt lat="43.7749932" lon="11.6875661"><ele>733.0</ele><time>2026-04-04T08:52:36.258Z</time></trkpt><trkpt lat="43.7749275" lon="11.6876994"><ele>733.0</ele><time>2026-04-04T08:52:37.254Z</time></trkpt><trkpt lat="43.7748465" lon="11.6878227"><ele>734.75</ele><time>2026-04-04T08:52:38.254Z</time></trkpt><trkpt lat="43.7747712" lon="11.6879662"><ele>736.5</ele><time>2026-04-04T08:52:39.254Z</time></trkpt><trkpt lat="43.7747087" lon="11.6881103"><ele>738.25</ele><time>2026-04-04T08:52:40.255Z</time></trkpt><trkpt lat="43.7746697" lon="11.6882667"><ele>740.0</ele><time>2026-04-04T08:52:41.253Z</time></trkpt><trkpt lat="43.7746479" lon="11.6884245"><ele>740.0</ele><time>2026-04-04T08:52:42.253Z</time></trkpt><trkpt lat="43.7746432" lon="11.6885864"><ele>740.0</ele><time>2026-04-04T08:52:43.253Z</time></trkpt><trkpt lat="43.7746415" lon="11.6887479"><ele>740.0</ele><time>2026-04-04T08:52:44.253Z</time></trkpt><trkpt lat="43.7746577" lon="11.688914"><ele>740.0</ele><time>2026-04-04T08:52:45.255Z</time></trkpt><trkpt lat="43.7746718" lon="11.6890905"><ele>739.25</ele><time>2026-04-04T08:52:46.254Z</time></trkpt><trkpt lat="43.7746777" lon="11.6892715"><ele>738.5</ele><time>2026-04-04T08:52:47.253Z</time></trkpt><trkpt lat="43.774683" lon="11.6894495"><ele>737.75</ele><time>2026-04-04T08:52:48.256Z</time></trkpt><trkpt lat="43.7746878" lon="11.6896263"><ele>737.0</ele><time>2026-04-04T08:52:49.256Z</time></trkpt><trkpt lat="43.774692" lon="11.6898068"><ele>734.0</ele><time>2026-04-04T08:52:50.264Z</time></trkpt><trkpt lat="43.7746957" lon="11.6899863"><ele>731.0</ele><time>2026-04-04T08:52:51.259Z</time></trkpt><trkpt lat="43.7747004" lon="11.6901672"><ele>728.0</ele><time>2026-04-04T08:52:52.257Z</time></trkpt><trkpt lat="43.7747098" lon="11.6903497"><ele>725.0</ele><time>2026-04-04T08:52:53.257Z</time></trkpt><trkpt lat="43.7747254" lon="11.6905348"><ele>723.4</ele><time>2026-04-04T08:52:54.257Z</time></trkpt><trkpt lat="43.7747471" lon="11.690712"><ele>721.8</ele><time>2026-04-04T08:52:55.256Z</time></trkpt><trkpt lat="43.7747741" lon="11.6908727"><ele>720.2</ele><time>2026-04-04T08:52:56.255Z</time></trkpt><trkpt lat="43.7748051" lon="11.6910107"><ele>718.6</ele><time>2026-04-04T08:52:57.255Z</time></trkpt><trkpt lat="43.7748304" lon="11.6911364"><ele>717.0</ele><time>2026-04-04T08:52:58.259Z</time></trkpt><trkpt lat="43.7748617" lon="11.6912521"><ele>715.5714285714286</ele><time>2026-04-04T08:52:59.257Z</time></trkpt><trkpt lat="43.7748942" lon="11.6913672"><ele>714.1428571428571</ele><time>2026-04-04T08:53:00.257Z</time></trkpt><trkpt lat="43.7749225" lon="11.6914712"><ele>712.7142857142858</ele><time>2026-04-04T08:53:01.253Z</time></trkpt><trkpt lat="43.7749579" lon="11.6915618"><ele>711.2857142857142</ele><time>2026-04-04T08:53:02.253Z</time></trkpt><trkpt lat="43.7749971" lon="11.6916333"><ele>709.8571428571429</ele><time>2026-04-04T08:53:03.266Z</time></trkpt><trkpt lat="43.7750535" lon="11.6916742"><ele>708.4285714285714</ele><time>2026-04-04T08:53:04.274Z</time></trkpt><trkpt lat="43.7751239" lon="11.6916855"><ele>707.0</ele><time>2026-04-04T08:53:05.26Z</time></trkpt><trkpt lat="43.7752078" lon="11.6916669"><ele>707.0</ele><time>2026-04-04T08:53:06.259Z</time></trkpt><trkpt lat="43.7752974" lon="11.6916043"><ele>707.0</ele><time>2026-04-04T08:53:07.259Z</time></trkpt><trkpt lat="43.7753928" lon="11.6915081"><ele>707.0</ele><time>2026-04-04T08:53:08.258Z</time></trkpt><trkpt lat="43.7754823" lon="11.6914135"><ele>707.0</ele><time>2026-04-04T08:53:09.263Z</time></trkpt><trkpt lat="43.775579" lon="11.6913371"><ele>707.0</ele><time>2026-04-04T08:53:10.263Z</time></trkpt><trkpt lat="43.7756718" lon="11.6913122"><ele>707.0</ele><time>2026-04-04T08:53:11.262Z</time></trkpt><trkpt lat="43.7757536" lon="11.6913425"><ele>707.0</ele><time>2026-04-04T08:53:12.255Z</time></trkpt><trkpt lat="43.7758217" lon="11.6914255"><ele>707.0</ele><time>2026-04-04T08:53:13.258Z</time></trkpt><trkpt lat="43.7758849" lon="11.6915292"><ele>707.0</ele><time>2026-04-04T08:53:14.253Z</time></trkpt><trkpt lat="43.7759502" lon="11.6916349"><ele>707.0</ele><time>2026-04-04T08:53:15.266Z</time></trkpt><trkpt lat="43.7760114" lon="11.6917336"><ele>707.1666666666666</ele><time>2026-04-04T08:53:16.255Z</time></trkpt><trkpt lat="43.776075" lon="11.691821"><ele>707.3333333333333</ele><time>2026-04-04T08:53:17.258Z</time></trkpt><trkpt lat="43.7761391" lon="11.6919023"><ele>707.5</ele><time>2026-04-04T08:53:18.262Z</time></trkpt><trkpt lat="43.7762129" lon="11.691963"><ele>707.6666666666666</ele><time>2026-04-04T08:53:19.26Z</time></trkpt><trkpt lat="43.7762806" lon="11.6920115"><ele>707.8333333333334</ele><time>2026-04-04T08:53:20.261Z</time></trkpt><trkpt lat="43.7763416" lon="11.6920675"><ele>708.0</ele><time>2026-04-04T08:53:21.267Z</time></trkpt><trkpt lat="43.7763917" lon="11.6921329"><ele>708.0</ele><time>2026-04-04T08:53:22.256Z</time></trkpt><trkpt lat="43.7764277" lon="11.6922319"><ele>708.0</ele><time>2026-04-04T08:53:23.254Z</time></trkpt><trkpt lat="43.7764334" lon="11.6923472"><ele>708.0</ele><time>2026-04-04T08:53:24.256Z</time></trkpt><trkpt lat="43.7764335" lon="11.6924731"><ele>708.0</ele><time>2026-04-04T08:53:25.258Z</time></trkpt><trkpt lat="43.7764219" lon="11.6925969"><ele>708.0</ele><time>2026-04-04T08:53:26.255Z</time></trkpt><trkpt lat="43.7764" lon="11.6927248"><ele>708.0</ele><time>2026-04-04T08:53:27.256Z</time></trkpt><trkpt lat="43.7763518" lon="11.6928523"><ele>707.2</ele><time>2026-04-04T08:53:28.259Z</time></trkpt><trkpt lat="43.7762856" lon="11.692964"><ele>706.4</ele><time>2026-04-04T08:53:29.254Z</time></trkpt><trkpt lat="43.7762133" lon="11.6930705"><ele>705.6</ele><time>2026-04-04T08:53:30.261Z</time></trkpt><trkpt lat="43.7761371" lon="11.6931736"><ele>704.8000000000001</ele><time>2026-04-04T08:53:31.257Z</time></trkpt><trkpt lat="43.776061" lon="11.6932822"><ele>704.0</ele><time>2026-04-04T08:53:32.254Z</time></trkpt><trkpt lat="43.7759785" lon="11.6933916"><ele>702.6</ele><time>2026-04-04T08:53:33.254Z</time></trkpt><trkpt lat="43.7759034" lon="11.6935013"><ele>701.2</ele><time>2026-04-04T08:53:34.256Z</time></trkpt><trkpt lat="43.7758339" lon="11.6936074"><ele>699.8000000000001</ele><time>2026-04-04T08:53:35.256Z</time></trkpt><trkpt lat="43.7757699" lon="11.6937184"><ele>698.4000000000001</ele><time>2026-04-04T08:53:36.253Z</time></trkpt><trkpt lat="43.7757109" lon="11.6938308"><ele>697.0</ele><time>2026-04-04T08:53:37.255Z</time></trkpt><trkpt lat="43.7756638" lon="11.693943"><ele>697.0</ele><time>2026-04-04T08:53:38.257Z</time></trkpt><trkpt lat="43.7756221" lon="11.6940408"><ele>697.0</ele><time>2026-04-04T08:53:39.261Z</time></trkpt><trkpt lat="43.7755865" lon="11.6941361"><ele>697.0</ele><time>2026-04-04T08:53:40.26Z</time></trkpt><trkpt lat="43.7755604" lon="11.6942281"><ele>697.0</ele><time>2026-04-04T08:53:41.259Z</time></trkpt><trkpt lat="43.7755438" lon="11.6943278"><ele>697.0</ele><time>2026-04-04T08:53:42.259Z</time></trkpt><trkpt lat="43.7755322" lon="11.6944427"><ele>697.0</ele><time>2026-04-04T08:53:43.26Z</time></trkpt><trkpt lat="43.775523" lon="11.6945921"><ele>695.5</ele><time>2026-04-04T08:53:44.265Z</time></trkpt><trkpt lat="43.7755281" lon="11.6947763"><ele>694.0</ele><time>2026-04-04T08:53:45.26Z</time></trkpt><trkpt lat="43.7755474" lon="11.6949735"><ele>692.5</ele><time>2026-04-04T08:53:46.259Z</time></trkpt><trkpt lat="43.7755779" lon="11.6951789"><ele>691.0</ele><time>2026-04-04T08:53:47.26Z</time></trkpt><trkpt lat="43.7756384" lon="11.6953695"><ele>689.75</ele><time>2026-04-04T08:53:48.262Z</time></trkpt><trkpt lat="43.775732" lon="11.6955465"><ele>688.5</ele><time>2026-04-04T08:53:49.26Z</time></trkpt><trkpt lat="43.7757995" lon="11.6957226"><ele>687.25</ele><time>2026-04-04T08:53:50.257Z</time></trkpt><trkpt lat="43.7758381" lon="11.6959075"><ele>686.0</ele><time>2026-04-04T08:53:51.259Z</time></trkpt><trkpt lat="43.7758573" lon="11.696118"><ele>683.75</ele><time>2026-04-04T08:53:52.266Z</time></trkpt><trkpt lat="43.775864" lon="11.6963221"><ele>681.5</ele><time>2026-04-04T08:53:53.261Z</time></trkpt><trkpt lat="43.7758564" lon="11.6965078"><ele>679.25</ele><time>2026-04-04T08:53:54.258Z</time></trkpt><trkpt lat="43.7758394" lon="11.6966884"><ele>677.0</ele><time>2026-04-04T08:53:55.258Z</time></trkpt><trkpt lat="43.7757893" lon="11.6968511"><ele>672.75</ele><time>2026-04-04T08:53:56.257Z</time></trkpt><trkpt lat="43.7756959" lon="11.6969873"><ele>668.5</ele><time>2026-04-04T08:53:57.257Z</time></trkpt><trkpt lat="43.775578" lon="11.6970631"><ele>664.25</ele><time>2026-04-04T08:53:58.261Z</time></trkpt><trkpt lat="43.7754145" lon="11.6970948"><ele>660.0</ele><time>2026-04-04T08:53:59.253Z</time></trkpt><trkpt lat="43.7752897" lon="11.697164"><ele>662.0</ele><time>2026-04-04T08:54:00.254Z</time></trkpt><trkpt lat="43.7751701" lon="11.697264"><ele>664.0</ele><time>2026-04-04T08:54:01.254Z</time></trkpt><trkpt lat="43.7750708" lon="11.6973898"><ele>666.0</ele><time>2026-04-04T08:54:02.255Z</time></trkpt><trkpt lat="43.7749506" lon="11.697474"><ele>668.0</ele><time>2026-04-04T08:54:03.252Z</time></trkpt><trkpt lat="43.7748097" lon="11.697508"><ele>668.0</ele><time>2026-04-04T08:54:04.251Z</time></trkpt><trkpt lat="43.77466" lon="11.6974961"><ele>668.0</ele><time>2026-04-04T08:54:05.254Z</time></trkpt><trkpt lat="43.7745144" lon="11.697404"><ele>668.0</ele><time>2026-04-04T08:54:06.251Z</time></trkpt><trkpt lat="43.7744113" lon="11.6972559"><ele>665.25</ele><time>2026-04-04T08:54:07.248Z</time></trkpt><trkpt lat="43.7743327" lon="11.6970849"><ele>662.5</ele><time>2026-04-04T08:54:08.249Z</time></trkpt><trkpt lat="43.7742779" lon="11.6968902"><ele>659.75</ele><time>2026-04-04T08:54:09.257Z</time></trkpt><trkpt lat="43.7742681" lon="11.6966877"><ele>657.0</ele><time>2026-04-04T08:54:10.254Z</time></trkpt><trkpt lat="43.7742779" lon="11.6964925"><ele>657.0</ele><time>2026-04-04T08:54:11.256Z</time></trkpt><trkpt lat="43.7743005" lon="11.696278"><ele>657.0</ele><time>2026-04-04T08:54:12.256Z</time></trkpt><trkpt lat="43.7743276" lon="11.6960686"><ele>657.0</ele><time>2026-04-04T08:54:13.255Z</time></trkpt><trkpt lat="43.7743525" lon="11.6958319"><ele>666.6666666666666</ele><time>2026-04-04T08:54:14.254Z</time></trkpt><trkpt lat="43.7743724" lon="11.6955993"><ele>676.3333333333333</ele><time>2026-04-04T08:54:15.252Z</time></trkpt><trkpt lat="43.7743893" lon="11.695354"><ele>686.0</ele><time>2026-04-04T08:54:16.249Z</time></trkpt><trkpt lat="43.7744059" lon="11.6951199"><ele>686.0</ele><time>2026-04-04T08:54:17.246Z</time></trkpt><trkpt lat="43.7744375" lon="11.6949116"><ele>686.0</ele><time>2026-04-04T08:54:18.246Z</time></trkpt><trkpt lat="43.7744683" lon="11.6947174"><ele>686.0</ele><time>2026-04-04T08:54:19.25Z</time></trkpt><trkpt lat="43.7745077" lon="11.6945442"><ele>686.0</ele><time>2026-04-04T08:54:20.246Z</time></trkpt><trkpt lat="43.7745567" lon="11.6944119"><ele>685.0</ele><time>2026-04-04T08:54:21.248Z</time></trkpt><trkpt lat="43.7746024" lon="11.6942875"><ele>684.0</ele><time>2026-04-04T08:54:22.248Z</time></trkpt><trkpt lat="43.7746387" lon="11.6941821"><ele>683.0</ele><time>2026-04-04T08:54:23.254Z</time></trkpt><trkpt lat="43.7746437" lon="11.6940751"><ele>682.0</ele><time>2026-04-04T08:54:24.249Z</time></trkpt><trkpt lat="43.7746023" lon="11.6939899"><ele>681.0</ele><time>2026-04-04T08:54:25.249Z</time></trkpt><trkpt lat="43.7745412" lon="11.6939128"><ele>680.0</ele><time>2026-04-04T08:54:26.246Z</time></trkpt><trkpt lat="43.774469" lon="11.6938653"><ele>680.0</ele><time>2026-04-04T08:54:27.247Z</time></trkpt><trkpt lat="43.7743739" lon="11.6938872"><ele>680.0</ele><time>2026-04-04T08:54:28.252Z</time></trkpt><trkpt lat="43.7742763" lon="11.6939717"><ele>680.0</ele><time>2026-04-04T08:54:29.248Z</time></trkpt><trkpt lat="43.7741883" lon="11.6941217"><ele>680.0</ele><time>2026-04-04T08:54:30.256Z</time></trkpt><trkpt lat="43.7741091" lon="11.6943226"><ele>673.6666666666666</ele><time>2026-04-04T08:54:31.244Z</time></trkpt><trkpt lat="43.7740089" lon="11.6945961"><ele>667.3333333333334</ele><time>2026-04-04T08:54:32.236Z</time></trkpt><trkpt lat="43.7739137" lon="11.6948588"><ele>661.0</ele><time>2026-04-04T08:54:33.249Z</time></trkpt><trkpt lat="43.7738158" lon="11.6950628"><ele>661.0</ele><time>2026-04-04T08:54:34.245Z</time></trkpt><trkpt lat="43.7737252" lon="11.6951989"><ele>661.0</ele><time>2026-04-04T08:54:35.254Z</time></trkpt><trkpt lat="43.7736258" lon="11.6953142"><ele>661.0</ele><time>2026-04-04T08:54:36.245Z</time></trkpt><trkpt lat="43.7735414" lon="11.6953407"><ele>661.0</ele><time>2026-04-04T08:54:37.243Z</time></trkpt><trkpt lat="43.7734444" lon="11.695331"><ele>661.0</ele><time>2026-04-04T08:54:38.247Z</time></trkpt><trkpt lat="43.7733753" lon="11.6952552"><ele>657.5</ele><time>2026-04-04T08:54:39.253Z</time></trkpt><trkpt lat="43.7733504" lon="11.6950999"><ele>654.0</ele><time>2026-04-04T08:54:40.257Z</time></trkpt><trkpt lat="43.7733654" lon="11.6949156"><ele>650.5</ele><time>2026-04-04T08:54:41.243Z</time></trkpt><trkpt lat="43.7733621" lon="11.6947712"><ele>647.0</ele><time>2026-04-04T08:54:42.247Z</time></trkpt><trkpt lat="43.773319" lon="11.6946293"><ele>647.0</ele><time>2026-04-04T08:54:43.252Z</time></trkpt><trkpt lat="43.7732626" lon="11.6944985"><ele>647.0</ele><time>2026-04-04T08:54:44.252Z</time></trkpt><trkpt lat="43.773176" lon="11.6943892"><ele>647.0</ele><time>2026-04-04T08:54:45.251Z</time></trkpt><trkpt lat="43.773071" lon="11.6943044"><ele>647.0</ele><time>2026-04-04T08:54:46.248Z</time></trkpt><trkpt lat="43.7729396" lon="11.6942804"><ele>644.0</ele><time>2026-04-04T08:54:47.248Z</time></trkpt><trkpt lat="43.772803" lon="11.6942827"><ele>641.0</ele><time>2026-04-04T08:54:48.26Z</time></trkpt><trkpt lat="43.7726766" lon="11.6942695"><ele>638.0</ele><time>2026-04-04T08:54:49.267Z</time></trkpt><trkpt lat="43.7725714" lon="11.6942358"><ele>635.0</ele><time>2026-04-04T08:54:50.27Z</time></trkpt><trkpt lat="43.7724875" lon="11.6941679"><ele>635.0</ele><time>2026-04-04T08:54:51.271Z</time></trkpt><trkpt lat="43.7724361" lon="11.6940835"><ele>635.0</ele><time>2026-04-04T08:54:52.284Z</time></trkpt><trkpt lat="43.7724347" lon="11.6939582"><ele>635.0</ele><time>2026-04-04T08:54:53.28Z</time></trkpt><trkpt lat="43.7724673" lon="11.6937998"><ele>635.0</ele><time>2026-04-04T08:54:54.282Z</time></trkpt><trkpt lat="43.7725004" lon="11.6936461"><ele>635.0</ele><time>2026-04-04T08:54:55.266Z</time></trkpt><trkpt lat="43.7725269" lon="11.6935045"><ele>634.8333333333333</ele><time>2026-04-04T08:54:56.266Z</time></trkpt><trkpt lat="43.772544" lon="11.6933736"><ele>634.6666666666666</ele><time>2026-04-04T08:54:57.268Z</time></trkpt><trkpt lat="43.7725274" lon="11.6932624"><ele>634.5</ele><time>2026-04-04T08:54:58.263Z</time></trkpt><trkpt lat="43.7724679" lon="11.6931836"><ele>634.3333333333334</ele><time>2026-04-04T08:54:59.263Z</time></trkpt><trkpt lat="43.7723768" lon="11.6931538"><ele>634.1666666666667</ele><time>2026-04-04T08:55:00.265Z</time></trkpt><trkpt lat="43.7722876" lon="11.6931948"><ele>634.0</ele><time>2026-04-04T08:55:01.258Z</time></trkpt><trkpt lat="43.7722098" lon="11.6932888"><ele>634.0</ele><time>2026-04-04T08:55:02.263Z</time></trkpt><trkpt lat="43.7721595" lon="11.6934358"><ele>634.0</ele><time>2026-04-04T08:55:03.257Z</time></trkpt><trkpt lat="43.7721323" lon="11.6936217"><ele>634.0</ele><time>2026-04-04T08:55:04.257Z</time></trkpt><trkpt lat="43.772086" lon="11.6938223"><ele>634.0</ele><time>2026-04-04T08:55:05.263Z</time></trkpt><trkpt lat="43.7720056" lon="11.6940047"><ele>634.3333333333334</ele><time>2026-04-04T08:55:06.262Z</time></trkpt><trkpt lat="43.7718981" lon="11.6941648"><ele>634.6666666666666</ele><time>2026-04-04T08:55:07.263Z</time></trkpt><trkpt lat="43.7717766" lon="11.6942946"><ele>635.0</ele><time>2026-04-04T08:55:08.265Z</time></trkpt><trkpt lat="43.7716585" lon="11.6944019"><ele>631.25</ele><time>2026-04-04T08:55:09.265Z</time></trkpt><trkpt lat="43.7715555" lon="11.6945138"><ele>627.5</ele><time>2026-04-04T08:55:10.26Z</time></trkpt><trkpt lat="43.7714588" lon="11.6946223"><ele>623.75</ele><time>2026-04-04T08:55:11.268Z</time></trkpt><trkpt lat="43.77138" lon="11.6947294"><ele>620.0</ele><time>2026-04-04T08:55:12.271Z</time></trkpt><trkpt lat="43.7713049" lon="11.6948625"><ele>620.0</ele><time>2026-04-04T08:55:13.271Z</time></trkpt><trkpt lat="43.7712574" lon="11.6950423"><ele>620.0</ele><time>2026-04-04T08:55:14.267Z</time></trkpt><trkpt lat="43.7712296" lon="11.6952698"><ele>620.0</ele><time>2026-04-04T08:55:15.257Z</time></trkpt><trkpt lat="43.771196" lon="11.6955105"><ele>619.3333333333333</ele><time>2026-04-04T08:55:16.254Z</time></trkpt><trkpt lat="43.7711553" lon="11.6957498"><ele>618.6666666666666</ele><time>2026-04-04T08:55:17.261Z</time></trkpt><trkpt lat="43.7710986" lon="11.6959834"><ele>618.0</ele><time>2026-04-04T08:55:18.274Z</time></trkpt><trkpt lat="43.7710464" lon="11.6961961"><ele>612.75</ele><time>2026-04-04T08:55:19.267Z</time></trkpt><trkpt lat="43.7710025" lon="11.6963885"><ele>607.5</ele><time>2026-04-04T08:55:20.265Z</time></trkpt><trkpt lat="43.7709672" lon="11.6965555"><ele>602.25</ele><time>2026-04-04T08:55:21.272Z</time></trkpt><trkpt lat="43.7709445" lon="11.6967119"><ele>597.0</ele><time>2026-04-04T08:55:22.266Z</time></trkpt><trkpt lat="43.7709504" lon="11.6968908"><ele>597.0</ele><time>2026-04-04T08:55:23.268Z</time></trkpt><trkpt lat="43.7709863" lon="11.6970992"><ele>597.0</ele><time>2026-04-04T08:55:24.27Z</time></trkpt><trkpt lat="43.771025" lon="11.6973016"><ele>597.0</ele><time>2026-04-04T08:55:25.283Z</time></trkpt><trkpt lat="43.7710592" lon="11.6974989"><ele>597.0</ele><time>2026-04-04T08:55:26.272Z</time></trkpt><trkpt lat="43.771072" lon="11.6976958"><ele>597.0</ele><time>2026-04-04T08:55:27.276Z</time></trkpt><trkpt lat="43.7710488" lon="11.6978938"><ele>597.0</ele><time>2026-04-04T08:55:28.274Z</time></trkpt><trkpt lat="43.7709926" lon="11.698076"><ele>597.0</ele><time>2026-04-04T08:55:29.268Z</time></trkpt><trkpt lat="43.7709064" lon="11.6982547"><ele>594.0</ele><time>2026-04-04T08:55:30.273Z</time></trkpt><trkpt lat="43.770802" lon="11.6984192"><ele>591.0</ele><time>2026-04-04T08:55:31.267Z</time></trkpt><trkpt lat="43.770674" lon="11.6985648"><ele>588.0</ele><time>2026-04-04T08:55:32.267Z</time></trkpt><trkpt lat="43.7705261" lon="11.6986971"><ele>585.3333333333334</ele><time>2026-04-04T08:55:33.268Z</time></trkpt><trkpt lat="43.7703714" lon="11.6988336"><ele>582.6666666666667</ele><time>2026-04-04T08:55:34.259Z</time></trkpt><trkpt lat="43.7702298" lon="11.6989859"><ele>580.0</ele><time>2026-04-04T08:55:35.275Z</time></trkpt><trkpt lat="43.7701076" lon="11.6991626"><ele>579.6666666666667</ele><time>2026-04-04T08:55:36.266Z</time></trkpt><trkpt lat="43.7699972" lon="11.6993697"><ele>579.3333333333334</ele><time>2026-04-04T08:55:37.274Z</time></trkpt><trkpt lat="43.7699258" lon="11.6996061"><ele>579.0</ele><time>2026-04-04T08:55:38.265Z</time></trkpt><trkpt lat="43.7698663" lon="11.6998399"><ele>577.25</ele><time>2026-04-04T08:55:39.277Z</time></trkpt><trkpt lat="43.769812" lon="11.7000455"><ele>575.5</ele><time>2026-04-04T08:55:40.268Z</time></trkpt><trkpt lat="43.7697505" lon="11.700231"><ele>573.75</ele><time>2026-04-04T08:55:41.272Z</time></trkpt><trkpt lat="43.7696814" lon="11.7003984"><ele>572.0</ele><time>2026-04-04T08:55:42.275Z</time></trkpt><trkpt lat="43.769599" lon="11.7005673"><ele>570.0</ele><time>2026-04-04T08:55:43.268Z</time></trkpt><trkpt lat="43.7694952" lon="11.700715"><ele>568.0</ele><time>2026-04-04T08:55:44.269Z</time></trkpt><trkpt lat="43.7693726" lon="11.700871"><ele>566.0</ele><time>2026-04-04T08:55:45.272Z</time></trkpt><trkpt lat="43.7692293" lon="11.7010406"><ele>564.3333333333333</ele><time>2026-04-04T08:55:46.274Z</time></trkpt><trkpt lat="43.7690819" lon="11.7012171"><ele>562.6666666666666</ele><time>2026-04-04T08:55:47.279Z</time></trkpt><trkpt lat="43.7689302" lon="11.7014071"><ele>561.0</ele><time>2026-04-04T08:55:48.269Z</time></trkpt><trkpt lat="43.7687727" lon="11.7015896"><ele>561.0</ele><time>2026-04-04T08:55:49.266Z</time></trkpt><trkpt lat="43.7686161" lon="11.7017677"><ele>561.0</ele><time>2026-04-04T08:55:50.262Z</time></trkpt><trkpt lat="43.7684633" lon="11.7019479"><ele>561.0</ele><time>2026-04-04T08:55:51.272Z</time></trkpt><trkpt lat="43.7683205" lon="11.7021141"><ele>562.0</ele><time>2026-04-04T08:55:52.276Z</time></trkpt><trkpt lat="43.7681793" lon="11.7022701"><ele>563.0</ele><time>2026-04-04T08:55:53.276Z</time></trkpt><trkpt lat="43.7680413" lon="11.7024246"><ele>564.0</ele><time>2026-04-04T08:55:54.274Z</time></trkpt><trkpt lat="43.7679017" lon="11.7025775"><ele>564.0</ele><time>2026-04-04T08:55:55.279Z</time></trkpt><trkpt lat="43.7677601" lon="11.7027299"><ele>564.0</ele><time>2026-04-04T08:55:56.28Z</time></trkpt><trkpt lat="43.7676113" lon="11.702858"><ele>564.0</ele><time>2026-04-04T08:55:57.27Z</time></trkpt><trkpt lat="43.7674508" lon="11.7029502"><ele>562.3333333333334</ele><time>2026-04-04T08:55:58.275Z</time></trkpt><trkpt lat="43.7672764" lon="11.7030015"><ele>560.6666666666667</ele><time>2026-04-04T08:55:59.269Z</time></trkpt><trkpt lat="43.7671076" lon="11.7030188"><ele>559.0</ele><time>2026-04-04T08:56:00.277Z</time></trkpt><trkpt lat="43.7669387" lon="11.703002"><ele>559.0</ele><time>2026-04-04T08:56:01.272Z</time></trkpt><trkpt lat="43.766771" lon="11.7029475"><ele>559.0</ele><time>2026-04-04T08:56:02.271Z</time></trkpt><trkpt lat="43.7666158" lon="11.7028713"><ele>559.0</ele><time>2026-04-04T08:56:03.276Z</time></trkpt><trkpt lat="43.7664789" lon="11.7028017"><ele>559.0</ele><time>2026-04-04T08:56:04.27Z</time></trkpt><trkpt lat="43.766353" lon="11.7027593"><ele>559.0</ele><time>2026-04-04T08:56:05.272Z</time></trkpt><trkpt lat="43.7662388" lon="11.7027687"><ele>559.0</ele><time>2026-04-04T08:56:06.272Z</time></trkpt><trkpt lat="43.7661267" lon="11.7028512"><ele>559.0</ele><time>2026-04-04T08:56:07.271Z</time></trkpt><trkpt lat="43.7660192" lon="11.7029656"><ele>556.75</ele><time>2026-04-04T08:56:08.268Z</time></trkpt><trkpt lat="43.7659355" lon="11.7031044"><ele>554.5</ele><time>2026-04-04T08:56:09.26Z</time></trkpt><trkpt lat="43.7658806" lon="11.7032746"><ele>552.25</ele><time>2026-04-04T08:56:10.271Z</time></trkpt><trkpt lat="43.7658417" lon="11.7034544"><ele>550.0</ele><time>2026-04-04T08:56:11.272Z</time></trkpt><trkpt lat="43.7658333" lon="11.7036603"><ele>548.6666666666667</ele><time>2026-04-04T08:56:12.272Z</time></trkpt><trkpt lat="43.7658482" lon="11.7039039"><ele>547.3333333333334</ele><time>2026-04-04T08:56:13.275Z</time></trkpt><trkpt lat="43.7658423" lon="11.7041469"><ele>546.0</ele><time>2026-04-04T08:56:14.27Z</time></trkpt><trkpt lat="43.7657907" lon="11.7043779"><ele>546.0</ele><time>2026-04-04T08:56:15.264Z</time></trkpt><trkpt lat="43.7656995" lon="11.704607"><ele>546.0</ele><time>2026-04-04T08:56:16.262Z</time></trkpt><trkpt lat="43.7655786" lon="11.7048118"><ele>546.0</ele><time>2026-04-04T08:56:17.259Z</time></trkpt><trkpt lat="43.765443" lon="11.705005"><ele>546.0</ele><time>2026-04-04T08:56:18.26Z</time></trkpt><trkpt lat="43.765281" lon="11.7051799"><ele>546.0</ele><time>2026-04-04T08:56:19.258Z</time></trkpt><trkpt lat="43.765116" lon="11.7053559"><ele>546.0</ele><time>2026-04-04T08:56:20.268Z</time></trkpt><trkpt lat="43.7649407" lon="11.7055101"><ele>544.0</ele><time>2026-04-04T08:56:21.26Z</time></trkpt><trkpt lat="43.7647534" lon="11.7056558"><ele>542.0</ele><time>2026-04-04T08:56:22.26Z</time></trkpt><trkpt lat="43.7645654" lon="11.7058003"><ele>540.0</ele><time>2026-04-04T08:56:23.267Z</time></trkpt><trkpt lat="43.7643963" lon="11.7059421"><ele>539.0</ele><time>2026-04-04T08:56:24.26Z</time></trkpt><trkpt lat="43.7642344" lon="11.7060786"><ele>538.0</ele><time>2026-04-04T08:56:25.269Z</time></trkpt><trkpt lat="43.7640665" lon="11.7062158"><ele>537.0</ele><time>2026-04-04T08:56:26.272Z</time></trkpt><trkpt lat="43.7639108" lon="11.7063474"><ele>537.0</ele><time>2026-04-04T08:56:27.294Z</time></trkpt><trkpt lat="43.7637646" lon="11.7064763"><ele>537.0</ele><time>2026-04-04T08:56:28.277Z</time></trkpt><trkpt lat="43.7636275" lon="11.706615"><ele>537.0</ele><time>2026-04-04T08:56:29.275Z</time></trkpt><trkpt lat="43.7634858" lon="11.7067776"><ele>534.6666666666666</ele><time>2026-04-04T08:56:30.278Z</time></trkpt><trkpt lat="43.7633535" lon="11.7069665"><ele>532.3333333333333</ele><time>2026-04-04T08:56:31.275Z</time></trkpt><trkpt lat="43.76323" lon="11.7071555"><ele>530.0</ele><time>2026-04-04T08:56:32.275Z</time></trkpt><trkpt lat="43.7631088" lon="11.7073282"><ele>530.0</ele><time>2026-04-04T08:56:33.274Z</time></trkpt><trkpt lat="43.7629881" lon="11.7074939"><ele>530.0</ele><time>2026-04-04T08:56:34.28Z</time></trkpt><trkpt lat="43.7628774" lon="11.7076512"><ele>530.0</ele><time>2026-04-04T08:56:35.272Z</time></trkpt><trkpt lat="43.7627862" lon="11.7078006"><ele>529.3333333333333</ele><time>2026-04-04T08:56:36.268Z</time></trkpt><trkpt lat="43.7627036" lon="11.7079571"><ele>528.6666666666666</ele><time>2026-04-04T08:56:37.272Z</time></trkpt><trkpt lat="43.7626306" lon="11.708159"><ele>528.0</ele><time>2026-04-04T08:56:38.265Z</time></trkpt><trkpt lat="43.7625804" lon="11.7083797"><ele>524.3333333333334</ele><time>2026-04-04T08:56:39.283Z</time></trkpt><trkpt lat="43.7625169" lon="11.7085799"><ele>520.6666666666667</ele><time>2026-04-04T08:56:40.27Z</time></trkpt><trkpt lat="43.7624436" lon="11.7087678"><ele>517.0</ele><time>2026-04-04T08:56:41.264Z</time></trkpt><trkpt lat="43.7623575" lon="11.7089415"><ele>517.0</ele><time>2026-04-04T08:56:42.263Z</time></trkpt><trkpt lat="43.7622453" lon="11.7090625"><ele>517.0</ele><time>2026-04-04T08:56:43.27Z</time></trkpt><trkpt lat="43.7621041" lon="11.7091183"><ele>517.0</ele><time>2026-04-04T08:56:44.262Z</time></trkpt><trkpt lat="43.7619442" lon="11.7091634"><ele>515.0</ele><time>2026-04-04T08:56:45.264Z</time></trkpt><trkpt lat="43.7617567" lon="11.7091936"><ele>513.0</ele><time>2026-04-04T08:56:46.256Z</time></trkpt><trkpt lat="43.7615616" lon="11.7092267"><ele>511.0</ele><time>2026-04-04T08:56:47.262Z</time></trkpt><trkpt lat="43.7613596" lon="11.7092758"><ele>511.0</ele><time>2026-04-04T08:56:48.264Z</time></trkpt><trkpt lat="43.7611601" lon="11.7093466"><ele>511.0</ele><time>2026-04-04T08:56:49.262Z</time></trkpt><trkpt lat="43.7609765" lon="11.7094453"><ele>511.0</ele><time>2026-04-04T08:56:50.262Z</time></trkpt><trkpt lat="43.7608147" lon="11.709554"><ele>509.6666666666667</ele><time>2026-04-04T08:56:51.262Z</time></trkpt><trkpt lat="43.7606593" lon="11.709649"><ele>508.33333333333337</ele><time>2026-04-04T08:56:52.271Z</time></trkpt><trkpt lat="43.7605161" lon="11.7097463"><ele>507.0</ele><time>2026-04-04T08:56:53.271Z</time></trkpt><trkpt lat="43.7603835" lon="11.7098662"><ele>507.0</ele><time>2026-04-04T08:56:54.277Z</time></trkpt><trkpt lat="43.7602536" lon="11.7100072"><ele>507.0</ele><time>2026-04-04T08:56:55.278Z</time></trkpt><trkpt lat="43.7601323" lon="11.7101878"><ele>507.0</ele><time>2026-04-04T08:56:56.28Z</time></trkpt><trkpt lat="43.7600086" lon="11.7103659"><ele>505.0</ele><time>2026-04-04T08:56:57.282Z</time></trkpt><trkpt lat="43.7598995" lon="11.7105746"><ele>503.0</ele><time>2026-04-04T08:56:58.271Z</time></trkpt><trkpt lat="43.7598152" lon="11.7108266"><ele>501.0</ele><time>2026-04-04T08:56:59.262Z</time></trkpt><trkpt lat="43.7597304" lon="11.7110881"><ele>501.0</ele><time>2026-04-04T08:57:00.279Z</time></trkpt><trkpt lat="43.75964" lon="11.7113551"><ele>501.0</ele><time>2026-04-04T08:57:01.269Z</time></trkpt><trkpt lat="43.7595547" lon="11.7116056"><ele>501.0</ele><time>2026-04-04T08:57:02.275Z</time></trkpt><trkpt lat="43.7594807" lon="11.7118588"><ele>502.33333333333337</ele><time>2026-04-04T08:57:03.269Z</time></trkpt><trkpt lat="43.7594075" lon="11.7121252"><ele>503.6666666666667</ele><time>2026-04-04T08:57:04.264Z</time></trkpt><trkpt lat="43.759347" lon="11.7123864"><ele>505.0</ele><time>2026-04-04T08:57:05.278Z</time></trkpt><trkpt lat="43.7592929" lon="11.7126293"><ele>501.6666666666667</ele><time>2026-04-04T08:57:06.268Z</time></trkpt><trkpt lat="43.759237" lon="11.7128512"><ele>498.33333333333337</ele><time>2026-04-04T08:57:07.268Z</time></trkpt><trkpt lat="43.7591686" lon="11.7130552"><ele>495.0</ele><time>2026-04-04T08:57:08.267Z</time></trkpt><trkpt lat="43.7590825" lon="11.7132248"><ele>495.0</ele><time>2026-04-04T08:57:09.268Z</time></trkpt><trkpt lat="43.7589757" lon="11.7133721"><ele>495.0</ele><time>2026-04-04T08:57:10.263Z</time></trkpt><trkpt lat="43.7588717" lon="11.713502"><ele>495.0</ele><time>2026-04-04T08:57:11.269Z</time></trkpt><trkpt lat="43.758799" lon="11.7136463"><ele>495.0</ele><time>2026-04-04T08:57:12.277Z</time></trkpt><trkpt lat="43.7587436" lon="11.7138246"><ele>497.33333333333337</ele><time>2026-04-04T08:57:13.273Z</time></trkpt><trkpt lat="43.7587026" lon="11.7140481"><ele>499.6666666666667</ele><time>2026-04-04T08:57:14.275Z</time></trkpt><trkpt lat="43.758669" lon="11.714272"><ele>502.0</ele><time>2026-04-04T08:57:15.277Z</time></trkpt><trkpt lat="43.7586343" lon="11.7144873"><ele>502.0</ele><time>2026-04-04T08:57:16.282Z</time></trkpt><trkpt lat="43.758617" lon="11.7146886"><ele>502.0</ele><time>2026-04-04T08:57:17.276Z</time></trkpt><trkpt lat="43.7586218" lon="11.7148969"><ele>502.0</ele><time>2026-04-04T08:57:18.283Z</time></trkpt><trkpt lat="43.7586482" lon="11.71512"><ele>501.33333333333337</ele><time>2026-04-04T08:57:19.272Z</time></trkpt><trkpt lat="43.7586925" lon="11.7153521"><ele>500.66666666666663</ele><time>2026-04-04T08:57:20.281Z</time></trkpt><trkpt lat="43.7587278" lon="11.7155788"><ele>500.0</ele><time>2026-04-04T08:57:21.278Z</time></trkpt><trkpt lat="43.7587241" lon="11.7157963"><ele>500.0</ele><time>2026-04-04T08:57:22.277Z</time></trkpt><trkpt lat="43.75869" lon="11.7160115"><ele>500.0</ele><time>2026-04-04T08:57:23.268Z</time></trkpt><trkpt lat="43.7586065" lon="11.7162007"><ele>500.0</ele><time>2026-04-04T08:57:24.267Z</time></trkpt><trkpt lat="43.7584991" lon="11.7163775"><ele>496.0</ele><time>2026-04-04T08:57:25.269Z</time></trkpt><trkpt lat="43.7583556" lon="11.7165495"><ele>492.0</ele><time>2026-04-04T08:57:26.27Z</time></trkpt><trkpt lat="43.7582041" lon="11.7166999"><ele>488.0</ele><time>2026-04-04T08:57:27.278Z</time></trkpt><trkpt lat="43.7580633" lon="11.7168407"><ele>488.0</ele><time>2026-04-04T08:57:28.279Z</time></trkpt><trkpt lat="43.7579285" lon="11.7169385"><ele>488.0</ele><time>2026-04-04T08:57:29.268Z</time></trkpt><trkpt lat="43.7578007" lon="11.7170118"><ele>488.0</ele><time>2026-04-04T08:57:30.275Z</time></trkpt><trkpt lat="43.757685" lon="11.7170821"><ele>488.0</ele><time>2026-04-04T08:57:31.272Z</time></trkpt><trkpt lat="43.7575758" lon="11.7171486"><ele>485.75</ele><time>2026-04-04T08:57:32.264Z</time></trkpt><trkpt lat="43.757463" lon="11.7172163"><ele>483.5</ele><time>2026-04-04T08:57:33.269Z</time></trkpt><trkpt lat="43.7573418" lon="11.7172956"><ele>481.25</ele><time>2026-04-04T08:57:34.275Z</time></trkpt><trkpt lat="43.7572097" lon="11.717368"><ele>479.0</ele><time>2026-04-04T08:57:35.275Z</time></trkpt><trkpt lat="43.7570704" lon="11.7174205"><ele>479.0</ele><time>2026-04-04T08:57:36.282Z</time></trkpt><trkpt lat="43.7569111" lon="11.7174151"><ele>479.0</ele><time>2026-04-04T08:57:37.276Z</time></trkpt><trkpt lat="43.7567577" lon="11.7173853"><ele>479.0</ele><time>2026-04-04T08:57:38.269Z</time></trkpt><trkpt lat="43.7566112" lon="11.7173764"><ele>476.25</ele><time>2026-04-04T08:57:39.265Z</time></trkpt><trkpt lat="43.7564751" lon="11.7174035"><ele>473.5</ele><time>2026-04-04T08:57:40.27Z</time></trkpt><trkpt lat="43.7563415" lon="11.7174603"><ele>470.75</ele><time>2026-04-04T08:57:41.267Z</time></trkpt><trkpt lat="43.7562063" lon="11.7175226"><ele>468.0</ele><time>2026-04-04T08:57:42.276Z</time></trkpt><trkpt lat="43.756077" lon="11.7175927"><ele>466.5</ele><time>2026-04-04T08:57:43.273Z</time></trkpt><trkpt lat="43.7559524" lon="11.7176615"><ele>465.0</ele><time>2026-04-04T08:57:44.272Z</time></trkpt><trkpt lat="43.7558404" lon="11.7177483"><ele>463.5</ele><time>2026-04-04T08:57:45.272Z</time></trkpt><trkpt lat="43.755741" lon="11.7178482"><ele>462.0</ele><time>2026-04-04T08:57:46.274Z</time></trkpt><trkpt lat="43.7556488" lon="11.7179659"><ele>462.0</ele><time>2026-04-04T08:57:47.269Z</time></trkpt><trkpt lat="43.7555713" lon="11.7180824"><ele>462.0</ele><time>2026-04-04T08:57:48.273Z</time></trkpt><trkpt lat="43.7555063" lon="11.7182236"><ele>462.0</ele><time>2026-04-04T08:57:49.275Z</time></trkpt><trkpt lat="43.7554713" lon="11.7184158"><ele>462.0</ele><time>2026-04-04T08:57:50.267Z</time></trkpt><trkpt lat="43.7554427" lon="11.7186142"><ele>461.75</ele><time>2026-04-04T08:57:51.273Z</time></trkpt><trkpt lat="43.7553971" lon="11.7188029"><ele>461.5</ele><time>2026-04-04T08:57:52.276Z</time></trkpt><trkpt lat="43.75533" lon="11.7189554"><ele>461.25</ele><time>2026-04-04T08:57:53.271Z</time></trkpt><trkpt lat="43.7552484" lon="11.7190773"><ele>461.0</ele><time>2026-04-04T08:57:54.272Z</time></trkpt><trkpt lat="43.7551642" lon="11.7191937"><ele>459.20000000000005</ele><time>2026-04-04T08:57:55.271Z</time></trkpt><trkpt lat="43.7550903" lon="11.7193059"><ele>457.40000000000003</ele><time>2026-04-04T08:57:56.27Z</time></trkpt><trkpt lat="43.7550134" lon="11.7194157"><ele>455.6</ele><time>2026-04-04T08:57:57.273Z</time></trkpt><trkpt lat="43.7549259" lon="11.719522"><ele>453.8</ele><time>2026-04-04T08:57:58.274Z</time></trkpt><trkpt lat="43.7548411" lon="11.7196206"><ele>452.0</ele><time>2026-04-04T08:57:59.279Z</time></trkpt><trkpt lat="43.7547558" lon="11.7196992"><ele>452.0</ele><time>2026-04-04T08:58:00.275Z</time></trkpt><trkpt lat="43.754672" lon="11.7197617"><ele>452.00000000000006</ele><time>2026-04-04T08:58:01.27Z</time></trkpt><trkpt lat="43.7545853" lon="11.7197943"><ele>452.00000000000006</ele><time>2026-04-04T08:58:02.264Z</time></trkpt><trkpt lat="43.7544938" lon="11.7198094"><ele>452.0</ele><time>2026-04-04T08:58:03.264Z</time></trkpt><trkpt lat="43.7544014" lon="11.7198224"><ele>452.0</ele><time>2026-04-04T08:58:04.271Z</time></trkpt><trkpt lat="43.7543115" lon="11.7198366"><ele>450.66666666666663</ele><time>2026-04-04T08:58:05.265Z</time></trkpt><trkpt lat="43.7542177" lon="11.7198588"><ele>449.3333333333333</ele><time>2026-04-04T08:58:06.268Z</time></trkpt><trkpt lat="43.7541287" lon="11.719879"><ele>448.0</ele><time>2026-04-04T08:58:07.275Z</time></trkpt><trkpt lat="43.7540423" lon="11.7198984"><ele>446.66666666666663</ele><time>2026-04-04T08:58:08.27Z</time></trkpt><trkpt lat="43.7539622" lon="11.7199234"><ele>445.3333333333333</ele><time>2026-04-04T08:58:09.272Z</time></trkpt><trkpt lat="43.7538905" lon="11.7199568"><ele>444.0</ele><time>2026-04-04T08:58:10.269Z</time></trkpt><trkpt lat="43.7538227" lon="11.7200026"><ele>444.0</ele><time>2026-04-04T08:58:11.268Z</time></trkpt><trkpt lat="43.7537592" lon="11.7200582"><ele>444.0</ele><time>2026-04-04T08:58:12.275Z</time></trkpt><trkpt lat="43.7537062" lon="11.7201251"><ele>444.0</ele><time>2026-04-04T08:58:13.274Z</time></trkpt><trkpt lat="43.7536611" lon="11.7202145"><ele>444.0</ele><time>2026-04-04T08:58:14.27Z</time></trkpt><trkpt lat="43.7536218" lon="11.7203237"><ele>444.0</ele><time>2026-04-04T08:58:15.268Z</time></trkpt><trkpt lat="43.7535871" lon="11.7204447"><ele>444.0</ele><time>2026-04-04T08:58:16.271Z</time></trkpt><trkpt lat="43.7535552" lon="11.7205713"><ele>442.6</ele><time>2026-04-04T08:58:17.271Z</time></trkpt><trkpt lat="43.7535249" lon="11.720706"><ele>441.2</ele><time>2026-04-04T08:58:18.273Z</time></trkpt><trkpt lat="43.7534914" lon="11.7208357"><ele>439.80000000000007</ele><time>2026-04-04T08:58:19.279Z</time></trkpt><trkpt lat="43.7534557" lon="11.7209567"><ele>438.40000000000003</ele><time>2026-04-04T08:58:20.277Z</time></trkpt><trkpt lat="43.7534085" lon="11.7210698"><ele>437.0</ele><time>2026-04-04T08:58:21.271Z</time></trkpt><trkpt lat="43.7533538" lon="11.7211686"><ele>436.99999999999994</ele><time>2026-04-04T08:58:22.289Z</time></trkpt><trkpt lat="43.75329" lon="11.7212569"><ele>437.0</ele><time>2026-04-04T08:58:23.275Z</time></trkpt><trkpt lat="43.753215" lon="11.7213356"><ele>437.0</ele><time>2026-04-04T08:58:24.277Z</time></trkpt><trkpt lat="43.7531364" lon="11.721396"><ele>437.0</ele><time>2026-04-04T08:58:25.275Z</time></trkpt><trkpt lat="43.7530579" lon="11.7214415"><ele>436.99999999999994</ele><time>2026-04-04T08:58:26.278Z</time></trkpt><trkpt lat="43.7529859" lon="11.7214859"><ele>437.0</ele><time>2026-04-04T08:58:27.273Z</time></trkpt><trkpt lat="43.7529171" lon="11.7215381"><ele>436.99999999999994</ele><time>2026-04-04T08:58:28.277Z</time></trkpt><trkpt lat="43.752859" lon="11.7216067"><ele>437.0</ele><time>2026-04-04T08:58:29.277Z</time></trkpt><trkpt lat="43.7528041" lon="11.7216991"><ele>437.0</ele><time>2026-04-04T08:58:30.296Z</time></trkpt><trkpt lat="43.7527622" lon="11.721818"><ele>437.0</ele><time>2026-04-04T08:58:31.279Z</time></trkpt><trkpt lat="43.7527282" lon="11.721945"><ele>436.99999999999994</ele><time>2026-04-04T08:58:32.276Z</time></trkpt><trkpt lat="43.7527047" lon="11.7220684"><ele>437.0</ele><time>2026-04-04T08:58:33.27Z</time></trkpt><trkpt lat="43.7526843" lon="11.7221729"><ele>434.8333333333333</ele><time>2026-04-04T08:58:34.269Z</time></trkpt><trkpt lat="43.7526589" lon="11.7222982"><ele>432.66666666666663</ele><time>2026-04-04T08:58:36.276Z</time></trkpt><trkpt lat="43.752649" lon="11.7223998"><ele>430.5</ele><time>2026-04-04T08:58:38.281Z</time></trkpt><trkpt lat="43.7526064" lon="11.7225549"><ele>428.33333333333337</ele><time>2026-04-04T08:58:40.285Z</time></trkpt><trkpt lat="43.7525692" lon="11.722645"><ele>426.1666666666667</ele><time>2026-04-04T08:58:41.285Z</time></trkpt><trkpt lat="43.752523" lon="11.7227272"><ele>424.0</ele><time>2026-04-04T08:58:42.285Z</time></trkpt><trkpt lat="43.7524703" lon="11.7228072"><ele>423.0</ele><time>2026-04-04T08:58:43.287Z</time></trkpt><trkpt lat="43.7523988" lon="11.7228781"><ele>422.0</ele><time>2026-04-04T08:58:44.28Z</time></trkpt><trkpt lat="43.7523159" lon="11.7229416"><ele>421.0</ele><time>2026-04-04T08:58:45.289Z</time></trkpt><trkpt lat="43.752223" lon="11.7230005"><ele>420.0</ele><time>2026-04-04T08:58:46.285Z</time></trkpt><trkpt lat="43.7521254" lon="11.7230597"><ele>419.0</ele><time>2026-04-04T08:58:47.285Z</time></trkpt><trkpt lat="43.7520179" lon="11.7231236"><ele>419.0</ele><time>2026-04-04T08:58:48.285Z</time></trkpt><trkpt lat="43.7519004" lon="11.7231892"><ele>419.0</ele><time>2026-04-04T08:58:49.282Z</time></trkpt><trkpt lat="43.7517793" lon="11.7232605"><ele>419.0</ele><time>2026-04-04T08:58:50.282Z</time></trkpt><trkpt lat="43.7516589" lon="11.7233286"><ele>419.0</ele><time>2026-04-04T08:58:51.275Z</time></trkpt><trkpt lat="43.7515478" lon="11.7233954"><ele>419.2</ele><time>2026-04-04T08:58:52.296Z</time></trkpt><trkpt lat="43.7514404" lon="11.7234617"><ele>419.4</ele><time>2026-04-04T08:58:53.285Z</time></trkpt><trkpt lat="43.7513372" lon="11.7235295"><ele>419.6</ele><time>2026-04-04T08:58:54.276Z</time></trkpt><trkpt lat="43.7512424" lon="11.723599"><ele>419.8</ele><time>2026-04-04T08:58:55.276Z</time></trkpt><trkpt lat="43.7511479" lon="11.7236661"><ele>420.0</ele><time>2026-04-04T08:58:56.274Z</time></trkpt><trkpt lat="43.7510627" lon="11.7237305"><ele>421.1666666666667</ele><time>2026-04-04T08:58:57.268Z</time></trkpt><trkpt lat="43.7509807" lon="11.723794"><ele>422.33333333333337</ele><time>2026-04-04T08:58:58.273Z</time></trkpt><trkpt lat="43.7509077" lon="11.7238531"><ele>423.5</ele><time>2026-04-04T08:58:59.263Z</time></trkpt><trkpt lat="43.750842" lon="11.7239051"><ele>424.6666666666667</ele><time>2026-04-04T08:59:00.264Z</time></trkpt><trkpt lat="43.7507776" lon="11.7239432"><ele>425.83333333333337</ele><time>2026-04-04T08:59:01.266Z</time></trkpt><trkpt lat="43.7507158" lon="11.7239929"><ele>427.0</ele><time>2026-04-04T08:59:02.265Z</time></trkpt><trkpt lat="43.7506503" lon="11.7240403"><ele>427.00000000000006</ele><time>2026-04-04T08:59:03.263Z</time></trkpt><trkpt lat="43.750583" lon="11.7240873"><ele>427.0</ele><time>2026-04-04T08:59:04.276Z</time></trkpt><trkpt lat="43.7505124" lon="11.7241416"><ele>427.0</ele><time>2026-04-04T08:59:05.273Z</time></trkpt><trkpt lat="43.7504344" lon="11.7242025"><ele>427.0</ele><time>2026-04-04T08:59:06.269Z</time></trkpt><trkpt lat="43.7503585" lon="11.7242704"><ele>427.00000000000006</ele><time>2026-04-04T08:59:07.276Z</time></trkpt><trkpt lat="43.7502785" lon="11.7243456"><ele>427.0</ele><time>2026-04-04T08:59:08.275Z</time></trkpt><trkpt lat="43.7502002" lon="11.7244179"><ele>426.33333333333337</ele><time>2026-04-04T08:59:09.269Z</time></trkpt><trkpt lat="43.7501203" lon="11.7244887"><ele>425.6666666666667</ele><time>2026-04-04T08:59:10.274Z</time></trkpt><trkpt lat="43.7500404" lon="11.7245548"><ele>425.0</ele><time>2026-04-04T08:59:11.267Z</time></trkpt><trkpt lat="43.7499723" lon="11.7246191"><ele>424.33333333333337</ele><time>2026-04-04T08:59:12.27Z</time></trkpt><trkpt lat="43.749907" lon="11.724681"><ele>423.6666666666667</ele><time>2026-04-04T08:59:13.272Z</time></trkpt><trkpt lat="43.7498377" lon="11.724757"><ele>423.0</ele><time>2026-04-04T08:59:14.266Z</time></trkpt><trkpt lat="43.7497704" lon="11.7248476"><ele>423.0</ele><time>2026-04-04T08:59:15.277Z</time></trkpt><trkpt lat="43.7497058" lon="11.7249487"><ele>423.0</ele><time>2026-04-04T08:59:16.271Z</time></trkpt><trkpt lat="43.7496353" lon="11.7250403"><ele>423.0</ele><time>2026-04-04T08:59:17.275Z</time></trkpt><trkpt lat="43.7495681" lon="11.7251292"><ele>423.0</ele><time>2026-04-04T08:59:18.276Z</time></trkpt><trkpt lat="43.7495004" lon="11.7252206"><ele>423.0</ele><time>2026-04-04T08:59:19.273Z</time></trkpt><trkpt lat="43.7494332" lon="11.7253105"><ele>422.3333333333333</ele><time>2026-04-04T08:59:20.271Z</time></trkpt><trkpt lat="43.7493683" lon="11.7253929"><ele>421.66666666666663</ele><time>2026-04-04T08:59:21.258Z</time></trkpt><trkpt lat="43.7493125" lon="11.7254769"><ele>421.0</ele><time>2026-04-04T08:59:22.264Z</time></trkpt><trkpt lat="43.7492587" lon="11.7255469"><ele>420.3333333333333</ele><time>2026-04-04T08:59:23.261Z</time></trkpt><trkpt lat="43.749212" lon="11.7256155"><ele>419.66666666666663</ele><time>2026-04-04T08:59:24.264Z</time></trkpt><trkpt lat="43.7491513" lon="11.7256799"><ele>419.0</ele><time>2026-04-04T08:59:25.273Z</time></trkpt><trkpt lat="43.7490905" lon="11.7257491"><ele>418.99999999999994</ele><time>2026-04-04T08:59:26.282Z</time></trkpt><trkpt lat="43.7490263" lon="11.7258239"><ele>419.0</ele><time>2026-04-04T08:59:27.29Z</time></trkpt><trkpt lat="43.7489662" lon="11.7258864"><ele>419.0</ele><time>2026-04-04T08:59:28.285Z</time></trkpt><trkpt lat="43.7489015" lon="11.72595"><ele>419.0</ele><time>2026-04-04T08:59:29.287Z</time></trkpt><trkpt lat="43.748827" lon="11.725988"><ele>418.99999999999994</ele><time>2026-04-04T08:59:30.282Z</time></trkpt><trkpt lat="43.7487337" lon="11.7259809"><ele>419.0</ele><time>2026-04-04T08:59:31.274Z</time></trkpt><trkpt lat="43.7486187" lon="11.7259658"><ele>419.25</ele><time>2026-04-04T08:59:32.295Z</time></trkpt><trkpt lat="43.7484969" lon="11.7259757"><ele>419.5</ele><time>2026-04-04T08:59:33.273Z</time></trkpt><trkpt lat="43.7483761" lon="11.7260121"><ele>419.75</ele><time>2026-04-04T08:59:34.277Z</time></trkpt><trkpt lat="43.748254" lon="11.7260808"><ele>420.0</ele><time>2026-04-04T08:59:35.274Z</time></trkpt><trkpt lat="43.7481281" lon="11.7261853"><ele>420.0</ele><time>2026-04-04T08:59:36.282Z</time></trkpt><trkpt lat="43.7479986" lon="11.7262955"><ele>420.0</ele><time>2026-04-04T08:59:37.291Z</time></trkpt><trkpt lat="43.7478645" lon="11.7263811"><ele>420.0</ele><time>2026-04-04T08:59:38.275Z</time></trkpt><trkpt lat="43.7477293" lon="11.7264375"><ele>420.0</ele><time>2026-04-04T08:59:39.281Z</time></trkpt><trkpt lat="43.7475712" lon="11.7264296"><ele>418.5</ele><time>2026-04-04T08:59:40.279Z</time></trkpt><trkpt lat="43.7474288" lon="11.7264417"><ele>417.0</ele><time>2026-04-04T08:59:41.273Z</time></trkpt><trkpt lat="43.7472928" lon="11.7264805"><ele>415.5</ele><time>2026-04-04T08:59:42.275Z</time></trkpt><trkpt lat="43.7471679" lon="11.7265552"><ele>414.0</ele><time>2026-04-04T08:59:43.274Z</time></trkpt><trkpt lat="43.7470658" lon="11.7266656"><ele>414.0</ele><time>2026-04-04T08:59:44.274Z</time></trkpt><trkpt lat="43.7469697" lon="11.7268174"><ele>414.0</ele><time>2026-04-04T08:59:45.279Z</time></trkpt><trkpt lat="43.7468709" lon="11.7270147"><ele>414.0</ele><time>2026-04-04T08:59:46.277Z</time></trkpt><trkpt lat="43.7467612" lon="11.7272362"><ele>411.66666666666663</ele><time>2026-04-04T08:59:47.269Z</time></trkpt><trkpt lat="43.7466554" lon="11.7274521"><ele>409.3333333333333</ele><time>2026-04-04T08:59:48.278Z</time></trkpt><trkpt lat="43.746546" lon="11.727679"><ele>407.0</ele><time>2026-04-04T08:59:49.292Z</time></trkpt><trkpt lat="43.7464332" lon="11.7278879"><ele>407.0</ele><time>2026-04-04T08:59:50.285Z</time></trkpt><trkpt lat="43.7463224" lon="11.7280705"><ele>407.0</ele><time>2026-04-04T08:59:51.282Z</time></trkpt><trkpt lat="43.7462014" lon="11.7282674"><ele>407.0</ele><time>2026-04-04T08:59:52.286Z</time></trkpt><trkpt lat="43.7460786" lon="11.728452"><ele>404.3333333333333</ele><time>2026-04-04T08:59:53.296Z</time></trkpt><trkpt lat="43.7459358" lon="11.7286271"><ele>401.66666666666663</ele><time>2026-04-04T08:59:54.294Z</time></trkpt><trkpt lat="43.7457999" lon="11.7287813"><ele>399.0</ele><time>2026-04-04T08:59:55.288Z</time></trkpt><trkpt lat="43.7456656" lon="11.7289212"><ele>399.0</ele><time>2026-04-04T08:59:56.282Z</time></trkpt><trkpt lat="43.7455485" lon="11.729066"><ele>399.0</ele><time>2026-04-04T08:59:57.288Z</time></trkpt><trkpt lat="43.7454503" lon="11.729232"><ele>399.0</ele><time>2026-04-04T08:59:58.288Z</time></trkpt><trkpt lat="43.7453563" lon="11.7294344"><ele>400.0</ele><time>2026-04-04T08:59:59.282Z</time></trkpt><trkpt lat="43.7452711" lon="11.7296702"><ele>401.0</ele><time>2026-04-04T09:00:00.289Z</time></trkpt><trkpt lat="43.74521" lon="11.7299305"><ele>402.0</ele><time>2026-04-04T09:00:01.279Z</time></trkpt><trkpt lat="43.7451572" lon="11.730208"><ele>397.0</ele><time>2026-04-04T09:00:02.281Z</time></trkpt><trkpt lat="43.7451" lon="11.7304781"><ele>392.0</ele><time>2026-04-04T09:00:03.294Z</time></trkpt><trkpt lat="43.7450394" lon="11.7307218"><ele>387.0</ele><time>2026-04-04T09:00:04.266Z</time></trkpt><trkpt lat="43.744974" lon="11.7309619"><ele>388.33333333333337</ele><time>2026-04-04T09:00:05.283Z</time></trkpt><trkpt lat="43.7449062" lon="11.7311924"><ele>389.6666666666667</ele><time>2026-04-04T09:00:06.274Z</time></trkpt><trkpt lat="43.7448284" lon="11.7314309"><ele>391.0</ele><time>2026-04-04T09:00:07.274Z</time></trkpt><trkpt lat="43.7447323" lon="11.731679"><ele>391.33333333333337</ele><time>2026-04-04T09:00:08.277Z</time></trkpt><trkpt lat="43.7446219" lon="11.7319131"><ele>391.66666666666663</ele><time>2026-04-04T09:00:09.274Z</time></trkpt><trkpt lat="43.74451" lon="11.7321405"><ele>392.0</ele><time>2026-04-04T09:00:10.277Z</time></trkpt><trkpt lat="43.744399" lon="11.7323635"><ele>387.3333333333333</ele><time>2026-04-04T09:00:11.277Z</time></trkpt><trkpt lat="43.7442999" lon="11.7325832"><ele>382.66666666666663</ele><time>2026-04-04T09:00:12.274Z</time></trkpt><trkpt lat="43.744208" lon="11.7327972"><ele>378.0</ele><time>2026-04-04T09:00:13.278Z</time></trkpt><trkpt lat="43.7441275" lon="11.7330026"><ele>378.0</ele><time>2026-04-04T09:00:14.279Z</time></trkpt><trkpt lat="43.7440549" lon="11.7331968"><ele>378.0</ele><time>2026-04-04T09:00:15.281Z</time></trkpt><trkpt lat="43.7439935" lon="11.7333935"><ele>378.0</ele><time>2026-04-04T09:00:16.284Z</time></trkpt><trkpt lat="43.7439359" lon="11.7335857"><ele>377.0</ele><time>2026-04-04T09:00:17.279Z</time></trkpt><trkpt lat="43.7438718" lon="11.7337874"><ele>376.0</ele><time>2026-04-04T09:00:18.279Z</time></trkpt><trkpt lat="43.7437985" lon="11.7339876"><ele>375.0</ele><time>2026-04-04T09:00:19.288Z</time></trkpt><trkpt lat="43.7437258" lon="11.7341768"><ele>375.0</ele><time>2026-04-04T09:00:20.283Z</time></trkpt><trkpt lat="43.7436593" lon="11.7343552"><ele>375.0</ele><time>2026-04-04T09:00:21.284Z</time></trkpt><trkpt lat="43.7435997" lon="11.7345143"><ele>375.0</ele><time>2026-04-04T09:00:22.285Z</time></trkpt><trkpt lat="43.7435353" lon="11.7346616"><ele>375.0</ele><time>2026-04-04T09:00:23.281Z</time></trkpt><trkpt lat="43.7434668" lon="11.7347967"><ele>372.75</ele><time>2026-04-04T09:00:24.285Z</time></trkpt><trkpt lat="43.7433992" lon="11.7349369"><ele>370.5</ele><time>2026-04-04T09:00:25.282Z</time></trkpt><trkpt lat="43.7433335" lon="11.7350911"><ele>368.25</ele><time>2026-04-04T09:00:26.28Z</time></trkpt><trkpt lat="43.743272" lon="11.7352557"><ele>366.0</ele><time>2026-04-04T09:00:27.278Z</time></trkpt><trkpt lat="43.7432154" lon="11.7354058"><ele>365.25</ele><time>2026-04-04T09:00:28.276Z</time></trkpt><trkpt lat="43.7431638" lon="11.735551"><ele>364.5</ele><time>2026-04-04T09:00:29.279Z</time></trkpt><trkpt lat="43.7431193" lon="11.7357004"><ele>363.75</ele><time>2026-04-04T09:00:30.277Z</time></trkpt><trkpt lat="43.7430944" lon="11.7358649"><ele>363.0</ele><time>2026-04-04T09:00:31.299Z</time></trkpt><trkpt lat="43.7431001" lon="11.7360658"><ele>361.0</ele><time>2026-04-04T09:00:32.28Z</time></trkpt><trkpt lat="43.7431123" lon="11.7362818"><ele>359.0</ele><time>2026-04-04T09:00:33.292Z</time></trkpt><trkpt lat="43.7431172" lon="11.7364892"><ele>357.0</ele><time>2026-04-04T09:00:34.277Z</time></trkpt><trkpt lat="43.7431092" lon="11.7366934"><ele>356.0</ele><time>2026-04-04T09:00:35.276Z</time></trkpt><trkpt lat="43.7430788" lon="11.7368956"><ele>355.0</ele><time>2026-04-04T09:00:36.281Z</time></trkpt><trkpt lat="43.7430194" lon="11.7370956"><ele>354.0</ele><time>2026-04-04T09:00:37.28Z</time></trkpt><trkpt lat="43.7429287" lon="11.7372835"><ele>354.0</ele><time>2026-04-04T09:00:38.285Z</time></trkpt><trkpt lat="43.7427916" lon="11.7374242"><ele>354.0</ele><time>2026-04-04T09:00:39.28Z</time></trkpt><trkpt lat="43.7426496" lon="11.7375547"><ele>354.0</ele><time>2026-04-04T09:00:40.282Z</time></trkpt><trkpt lat="43.7425096" lon="11.7376799"><ele>354.3333333333333</ele><time>2026-04-04T09:00:41.283Z</time></trkpt><trkpt lat="43.7423747" lon="11.7378178"><ele>354.66666666666663</ele><time>2026-04-04T09:00:42.286Z</time></trkpt><trkpt lat="43.7422251" lon="11.7379609"><ele>355.0</ele><time>2026-04-04T09:00:43.282Z</time></trkpt><trkpt lat="43.7420926" lon="11.7380898"><ele>355.0</ele><time>2026-04-04T09:00:44.288Z</time></trkpt><trkpt lat="43.7419827" lon="11.7382024"><ele>355.0</ele><time>2026-04-04T09:00:45.284Z</time></trkpt><trkpt lat="43.7418629" lon="11.7383268"><ele>355.0</ele><time>2026-04-04T09:00:46.286Z</time></trkpt><trkpt lat="43.7417349" lon="11.7384485"><ele>355.0</ele><time>2026-04-04T09:00:47.289Z</time></trkpt><trkpt lat="43.7415989" lon="11.7385817"><ele>354.66666666666663</ele><time>2026-04-04T09:00:48.297Z</time></trkpt><trkpt lat="43.7414604" lon="11.738723"><ele>354.3333333333333</ele><time>2026-04-04T09:00:49.295Z</time></trkpt><trkpt lat="43.7413185" lon="11.7388727"><ele>354.0</ele><time>2026-04-04T09:00:50.301Z</time></trkpt><trkpt lat="43.7411756" lon="11.7390231"><ele>353.3333333333333</ele><time>2026-04-04T09:00:51.301Z</time></trkpt><trkpt lat="43.7410383" lon="11.7391626"><ele>352.66666666666663</ele><time>2026-04-04T09:00:52.303Z</time></trkpt><trkpt lat="43.7409104" lon="11.7392877"><ele>352.0</ele><time>2026-04-04T09:00:53.3Z</time></trkpt><trkpt lat="43.7407945" lon="11.7394122"><ele>351.75</ele><time>2026-04-04T09:00:54.294Z</time></trkpt><trkpt lat="43.7406898" lon="11.7395337"><ele>351.5</ele><time>2026-04-04T09:00:55.295Z</time></trkpt><trkpt lat="43.7405882" lon="11.7396608"><ele>351.25</ele><time>2026-04-04T09:00:56.289Z</time></trkpt><trkpt lat="43.7405249" lon="11.7397934"><ele>351.0</ele><time>2026-04-04T09:00:57.291Z</time></trkpt><trkpt lat="43.7404923" lon="11.7399467"><ele>351.0</ele><time>2026-04-04T09:00:58.3Z</time></trkpt><trkpt lat="43.7404985" lon="11.7401017"><ele>351.0</ele><time>2026-04-04T09:00:59.294Z</time></trkpt><trkpt lat="43.7405242" lon="11.7402874"><ele>351.0</ele><time>2026-04-04T09:01:00.294Z</time></trkpt><trkpt lat="43.7405637" lon="11.7404865"><ele>351.0</ele><time>2026-04-04T09:01:01.281Z</time></trkpt><trkpt lat="43.7406003" lon="11.7406711"><ele>351.0</ele><time>2026-04-04T09:01:02.281Z</time></trkpt><trkpt lat="43.740621" lon="11.7408419"><ele>351.0</ele><time>2026-04-04T09:01:03.284Z</time></trkpt><trkpt lat="43.7406265" lon="11.7410052"><ele>351.0</ele><time>2026-04-04T09:01:04.287Z</time></trkpt><trkpt lat="43.740609" lon="11.7411737"><ele>351.0</ele><time>2026-04-04T09:01:05.284Z</time></trkpt><trkpt lat="43.7405591" lon="11.7413334"><ele>351.25</ele><time>2026-04-04T09:01:06.286Z</time></trkpt><trkpt lat="43.7404991" lon="11.7415146"><ele>351.5</ele><time>2026-04-04T09:01:07.286Z</time></trkpt><trkpt lat="43.7404379" lon="11.7416969"><ele>351.75</ele><time>2026-04-04T09:01:08.28Z</time></trkpt><trkpt lat="43.7403791" lon="11.7418879"><ele>352.0</ele><time>2026-04-04T09:01:09.285Z</time></trkpt><trkpt lat="43.7403163" lon="11.7420818"><ele>352.3333333333333</ele><time>2026-04-04T09:01:10.282Z</time></trkpt><trkpt lat="43.740254" lon="11.7422769"><ele>352.6666666666667</ele><time>2026-04-04T09:01:11.288Z</time></trkpt><trkpt lat="43.7401923" lon="11.7424795"><ele>353.0</ele><time>2026-04-04T09:01:12.286Z</time></trkpt><trkpt lat="43.7401295" lon="11.7426889"><ele>353.0</ele><time>2026-04-04T09:01:13.291Z</time></trkpt><trkpt lat="43.7400614" lon="11.7429137"><ele>353.0</ele><time>2026-04-04T09:01:14.29Z</time></trkpt><trkpt lat="43.7399888" lon="11.7431564"><ele>353.0</ele><time>2026-04-04T09:01:15.305Z</time></trkpt><trkpt lat="43.7399225" lon="11.7433919"><ele>353.33333333333337</ele><time>2026-04-04T09:01:16.295Z</time></trkpt><trkpt lat="43.7398594" lon="11.7435965"><ele>353.6666666666667</ele><time>2026-04-04T09:01:17.289Z</time></trkpt><trkpt lat="43.7397992" lon="11.7438009"><ele>354.0</ele><time>2026-04-04T09:01:18.295Z</time></trkpt><trkpt lat="43.739743" lon="11.7440112"><ele>354.0</ele><time>2026-04-04T09:01:19.284Z</time></trkpt><trkpt lat="43.7396791" lon="11.7442273"><ele>354.0</ele><time>2026-04-04T09:01:20.291Z</time></trkpt><trkpt lat="43.7396092" lon="11.7444616"><ele>354.0</ele><time>2026-04-04T09:01:21.285Z</time></trkpt><trkpt lat="43.7395404" lon="11.7447"><ele>354.0</ele><time>2026-04-04T09:01:22.296Z</time></trkpt><trkpt lat="43.7394689" lon="11.744932"><ele>354.0</ele><time>2026-04-04T09:01:23.29Z</time></trkpt><trkpt lat="43.739405" lon="11.745157"><ele>354.0</ele><time>2026-04-04T09:01:24.299Z</time></trkpt><trkpt lat="43.7393421" lon="11.745382"><ele>354.0</ele><time>2026-04-04T09:01:25.285Z</time></trkpt><trkpt lat="43.7392751" lon="11.7456141"><ele>354.0</ele><time>2026-04-04T09:01:26.29Z</time></trkpt><trkpt lat="43.7392047" lon="11.7458395"><ele>354.0</ele><time>2026-04-04T09:01:27.294Z</time></trkpt><trkpt lat="43.7391352" lon="11.7460696"><ele>354.3333333333333</ele><time>2026-04-04T09:01:28.29Z</time></trkpt><trkpt lat="43.7390706" lon="11.7462955"><ele>354.66666666666663</ele><time>2026-04-04T09:01:29.291Z</time></trkpt><trkpt lat="43.7390127" lon="11.7464941"><ele>355.0</ele><time>2026-04-04T09:01:30.29Z</time></trkpt><trkpt lat="43.7389575" lon="11.746694"><ele>354.66666666666663</ele><time>2026-04-04T09:01:31.294Z</time></trkpt><trkpt lat="43.7389" lon="11.7468884"><ele>354.3333333333333</ele><time>2026-04-04T09:01:32.299Z</time></trkpt><trkpt lat="43.7388466" lon="11.7470806"><ele>354.0</ele><time>2026-04-04T09:01:33.296Z</time></trkpt><trkpt lat="43.7387844" lon="11.747281"><ele>354.0</ele><time>2026-04-04T09:01:34.297Z</time></trkpt><trkpt lat="43.738731" lon="11.7474782"><ele>354.0</ele><time>2026-04-04T09:01:35.342Z</time></trkpt><trkpt lat="43.7386664" lon="11.7476807"><ele>354.0</ele><time>2026-04-04T09:01:36.296Z</time></trkpt><trkpt lat="43.7386001" lon="11.7478834"><ele>353.3333333333333</ele><time>2026-04-04T09:01:37.3Z</time></trkpt><trkpt lat="43.7385348" lon="11.7480852"><ele>352.66666666666663</ele><time>2026-04-04T09:01:38.307Z</time></trkpt><trkpt lat="43.738475" lon="11.7482868"><ele>352.0</ele><time>2026-04-04T09:01:39.289Z</time></trkpt><trkpt lat="43.7384109" lon="11.7484836"><ele>352.5</ele><time>2026-04-04T09:01:40.287Z</time></trkpt><trkpt lat="43.738351" lon="11.7486815"><ele>353.0</ele><time>2026-04-04T09:01:41.302Z</time></trkpt><trkpt lat="43.7382995" lon="11.7488723"><ele>353.5</ele><time>2026-04-04T09:01:42.298Z</time></trkpt><trkpt lat="43.7382544" lon="11.7490502"><ele>354.0</ele><time>2026-04-04T09:01:43.313Z</time></trkpt><trkpt lat="43.7382083" lon="11.7492118"><ele>354.75</ele><time>2026-04-04T09:01:44.296Z</time></trkpt><trkpt lat="43.7381666" lon="11.7493762"><ele>355.5</ele><time>2026-04-04T09:01:45.303Z</time></trkpt><trkpt lat="43.7381263" lon="11.749539"><ele>356.25</ele><time>2026-04-04T09:01:46.313Z</time></trkpt><trkpt lat="43.7380934" lon="11.7497045"><ele>357.0</ele><time>2026-04-04T09:01:47.311Z</time></trkpt><trkpt lat="43.7380575" lon="11.7498661"><ele>357.0</ele><time>2026-04-04T09:01:48.312Z</time></trkpt><trkpt lat="43.738019" lon="11.7500332"><ele>357.0</ele><time>2026-04-04T09:01:49.3Z</time></trkpt><trkpt lat="43.7379862" lon="11.7501934"><ele>357.0</ele><time>2026-04-04T09:01:50.296Z</time></trkpt><trkpt lat="43.7379611" lon="11.7503417"><ele>357.0</ele><time>2026-04-04T09:01:51.306Z</time></trkpt><trkpt lat="43.7379343" lon="11.7504853"><ele>357.20000000000005</ele><time>2026-04-04T09:01:52.311Z</time></trkpt><trkpt lat="43.7379081" lon="11.7506291"><ele>357.4</ele><time>2026-04-04T09:01:53.31Z</time></trkpt><trkpt lat="43.7378817" lon="11.7507647"><ele>357.6</ele><time>2026-04-04T09:01:54.31Z</time></trkpt><trkpt lat="43.7378546" lon="11.7508978"><ele>357.79999999999995</ele><time>2026-04-04T09:01:55.313Z</time></trkpt><trkpt lat="43.7378307" lon="11.7510234"><ele>358.0</ele><time>2026-04-04T09:01:56.314Z</time></trkpt><trkpt lat="43.7378059" lon="11.7511448"><ele>358.0</ele><time>2026-04-04T09:01:57.311Z</time></trkpt><trkpt lat="43.7377827" lon="11.7512609"><ele>358.0</ele><time>2026-04-04T09:01:58.301Z</time></trkpt><trkpt lat="43.7377602" lon="11.7513754"><ele>358.0</ele><time>2026-04-04T09:01:59.297Z</time></trkpt><trkpt lat="43.7377417" lon="11.7514855"><ele>358.0</ele><time>2026-04-04T09:02:00.293Z</time></trkpt><trkpt lat="43.7377235" lon="11.7515921"><ele>358.0</ele><time>2026-04-04T09:02:01.299Z</time></trkpt><trkpt lat="43.737703" lon="11.7517"><ele>358.0</ele><time>2026-04-04T09:02:02.289Z</time></trkpt><trkpt lat="43.7376829" lon="11.7518084"><ele>357.8333333333333</ele><time>2026-04-04T09:02:03.288Z</time></trkpt><trkpt lat="43.7376648" lon="11.7519124"><ele>357.66666666666663</ele><time>2026-04-04T09:02:04.28Z</time></trkpt><trkpt lat="43.7376512" lon="11.7520114"><ele>357.5</ele><time>2026-04-04T09:02:05.284Z</time></trkpt><trkpt lat="43.7376459" lon="11.7521084"><ele>357.3333333333333</ele><time>2026-04-04T09:02:06.294Z</time></trkpt><trkpt lat="43.7376554" lon="11.7522062"><ele>357.1666666666667</ele><time>2026-04-04T09:02:07.286Z</time></trkpt><trkpt lat="43.737682" lon="11.7523043"><ele>357.0</ele><time>2026-04-04T09:02:08.294Z</time></trkpt><trkpt lat="43.7377223" lon="11.7524056"><ele>357.0</ele><time>2026-04-04T09:02:09.297Z</time></trkpt><trkpt lat="43.7377659" lon="11.7525031"><ele>357.0</ele><time>2026-04-04T09:02:10.295Z</time></trkpt><trkpt lat="43.7377965" lon="11.7526022"><ele>357.0</ele><time>2026-04-04T09:02:11.286Z</time></trkpt><trkpt lat="43.7378152" lon="11.7527079"><ele>357.0</ele><time>2026-04-04T09:02:12.283Z</time></trkpt><trkpt lat="43.7378192" lon="11.7528166"><ele>357.0</ele><time>2026-04-04T09:02:13.289Z</time></trkpt><trkpt lat="43.7377986" lon="11.7529274"><ele>357.0</ele><time>2026-04-04T09:02:14.277Z</time></trkpt><trkpt lat="43.7377581" lon="11.7530318"><ele>356.40000000000003</ele><time>2026-04-04T09:02:15.281Z</time></trkpt><trkpt lat="43.7377031" lon="11.7531343"><ele>355.8</ele><time>2026-04-04T09:02:16.283Z</time></trkpt><trkpt lat="43.7376334" lon="11.7532223"><ele>355.2</ele><time>2026-04-04T09:02:17.286Z</time></trkpt><trkpt lat="43.737554" lon="11.7533111"><ele>354.6</ele><time>2026-04-04T09:02:18.281Z</time></trkpt><trkpt lat="43.7374814" lon="11.7533956"><ele>354.0</ele><time>2026-04-04T09:02:19.289Z</time></trkpt><trkpt lat="43.7374154" lon="11.7534806"><ele>355.0</ele><time>2026-04-04T09:02:20.286Z</time></trkpt><trkpt lat="43.7373474" lon="11.7535662"><ele>356.0</ele><time>2026-04-04T09:02:21.292Z</time></trkpt><trkpt lat="43.7372828" lon="11.7536569"><ele>357.0</ele><time>2026-04-04T09:02:22.295Z</time></trkpt><trkpt lat="43.7372183" lon="11.7537514"><ele>358.0</ele><time>2026-04-04T09:02:23.285Z</time></trkpt><trkpt lat="43.737158" lon="11.75385"><ele>359.0</ele><time>2026-04-04T09:02:24.293Z</time></trkpt><trkpt lat="43.7370956" lon="11.7539456"><ele>359.0</ele><time>2026-04-04T09:02:25.292Z</time></trkpt><trkpt lat="43.7370243" lon="11.7540435"><ele>359.0</ele><time>2026-04-04T09:02:26.281Z</time></trkpt><trkpt lat="43.7369465" lon="11.7541405"><ele>359.0</ele><time>2026-04-04T09:02:27.292Z</time></trkpt><trkpt lat="43.7368658" lon="11.7542418"><ele>359.0</ele><time>2026-04-04T09:02:28.286Z</time></trkpt><trkpt lat="43.7367774" lon="11.7543452"><ele>359.0</ele><time>2026-04-04T09:02:29.293Z</time></trkpt><trkpt lat="43.7366843" lon="11.7544522"><ele>358.5</ele><time>2026-04-04T09:02:30.28Z</time></trkpt><trkpt lat="43.73659" lon="11.7545679"><ele>358.0</ele><time>2026-04-04T09:02:31.282Z</time></trkpt><trkpt lat="43.7364914" lon="11.7546849"><ele>357.5</ele><time>2026-04-04T09:02:32.283Z</time></trkpt><trkpt lat="43.7363877" lon="11.7548072"><ele>357.0</ele><time>2026-04-04T09:02:33.286Z</time></trkpt><trkpt lat="43.7362863" lon="11.7549372"><ele>357.0</ele><time>2026-04-04T09:02:34.274Z</time></trkpt><trkpt lat="43.7361942" lon="11.7550817"><ele>357.0</ele><time>2026-04-04T09:02:35.277Z</time></trkpt><trkpt lat="43.7361177" lon="11.7552252"><ele>357.0</ele><time>2026-04-04T09:02:36.284Z</time></trkpt><trkpt lat="43.7360581" lon="11.7553681"><ele>357.0</ele><time>2026-04-04T09:02:37.287Z</time></trkpt><trkpt lat="43.7360028" lon="11.755523"><ele>357.0</ele><time>2026-04-04T09:02:38.309Z</time></trkpt><trkpt lat="43.735939" lon="11.7556668"><ele>357.0</ele><time>2026-04-04T09:02:39.299Z</time></trkpt><trkpt lat="43.7358678" lon="11.7557935"><ele>357.0</ele><time>2026-04-04T09:02:40.305Z</time></trkpt><trkpt lat="43.7357967" lon="11.7559237"><ele>357.0</ele><time>2026-04-04T09:02:41.288Z</time></trkpt><trkpt lat="43.7357177" lon="11.7560504"><ele>357.0</ele><time>2026-04-04T09:02:42.294Z</time></trkpt><trkpt lat="43.7356363" lon="11.7561702"><ele>357.0</ele><time>2026-04-04T09:02:43.297Z</time></trkpt><trkpt lat="43.735558" lon="11.7562856"><ele>357.0</ele><time>2026-04-04T09:02:44.294Z</time></trkpt><trkpt lat="43.7354774" lon="11.7563945"><ele>357.0</ele><time>2026-04-04T09:02:45.298Z</time></trkpt><trkpt lat="43.7353976" lon="11.7565071"><ele>357.0</ele><time>2026-04-04T09:02:46.301Z</time></trkpt><trkpt lat="43.7353211" lon="11.7566249"><ele>357.0</ele><time>2026-04-04T09:02:47.298Z</time></trkpt><trkpt lat="43.7352506" lon="11.7567465"><ele>357.0</ele><time>2026-04-04T09:02:48.296Z</time></trkpt><trkpt lat="43.7351807" lon="11.7568719"><ele>357.0</ele><time>2026-04-04T09:02:49.294Z</time></trkpt><trkpt lat="43.7351219" lon="11.7570002"><ele>357.20000000000005</ele><time>2026-04-04T09:02:50.289Z</time></trkpt><trkpt lat="43.735075" lon="11.7571299"><ele>357.4</ele><time>2026-04-04T09:02:51.298Z</time></trkpt><trkpt lat="43.7350329" lon="11.757253"><ele>357.6</ele><time>2026-04-04T09:02:52.289Z</time></trkpt><trkpt lat="43.7349829" lon="11.7573806"><ele>357.79999999999995</ele><time>2026-04-04T09:02:53.287Z</time></trkpt><trkpt lat="43.7349323" lon="11.7575056"><ele>358.0</ele><time>2026-04-04T09:02:54.292Z</time></trkpt><trkpt lat="43.7348756" lon="11.7576202"><ele>357.4</ele><time>2026-04-04T09:02:55.287Z</time></trkpt><trkpt lat="43.7348056" lon="11.7577293"><ele>356.79999999999995</ele><time>2026-04-04T09:02:56.301Z</time></trkpt><trkpt lat="43.7347335" lon="11.7578379"><ele>356.2</ele><time>2026-04-04T09:02:57.294Z</time></trkpt><trkpt lat="43.7346547" lon="11.7579504"><ele>355.6</ele><time>2026-04-04T09:02:58.288Z</time></trkpt><trkpt lat="43.7345782" lon="11.7580624"><ele>355.0</ele><time>2026-04-04T09:02:59.289Z</time></trkpt><trkpt lat="43.7345077" lon="11.7581783"><ele>355.0</ele><time>2026-04-04T09:03:00.284Z</time></trkpt><trkpt lat="43.7344408" lon="11.7582953"><ele>355.0</ele><time>2026-04-04T09:03:01.292Z</time></trkpt><trkpt lat="43.7343861" lon="11.7584137"><ele>355.0</ele><time>2026-04-04T09:03:02.294Z</time></trkpt><trkpt lat="43.7343353" lon="11.7585384"><ele>355.0</ele><time>2026-04-04T09:03:03.303Z</time></trkpt><trkpt lat="43.7342945" lon="11.758663"><ele>355.0</ele><time>2026-04-04T09:03:04.291Z</time></trkpt><trkpt lat="43.7342559" lon="11.7587848"><ele>354.0</ele><time>2026-04-04T09:03:05.296Z</time></trkpt><trkpt lat="43.7342195" lon="11.7589096"><ele>353.0</ele><time>2026-04-04T09:03:06.29Z</time></trkpt><trkpt lat="43.734184" lon="11.7590365"><ele>352.0</ele><time>2026-04-04T09:03:07.29Z</time></trkpt><trkpt lat="43.7341483" lon="11.7591726"><ele>351.0</ele><time>2026-04-04T09:03:08.299Z</time></trkpt><trkpt lat="43.734111" lon="11.7593147"><ele>350.0</ele><time>2026-04-04T09:03:09.294Z</time></trkpt><trkpt lat="43.7340747" lon="11.7594573"><ele>350.0</ele><time>2026-04-04T09:03:10.286Z</time></trkpt><trkpt lat="43.7340357" lon="11.759607"><ele>350.0</ele><time>2026-04-04T09:03:11.287Z</time></trkpt><trkpt lat="43.7339972" lon="11.7597549"><ele>350.0</ele><time>2026-04-04T09:03:12.299Z</time></trkpt><trkpt lat="43.7339586" lon="11.7599015"><ele>350.0</ele><time>2026-04-04T09:03:13.283Z</time></trkpt><trkpt lat="43.7339122" lon="11.7600438"><ele>350.0</ele><time>2026-04-04T09:03:14.287Z</time></trkpt><trkpt lat="43.7338596" lon="11.7601861"><ele>350.0</ele><time>2026-04-04T09:03:15.282Z</time></trkpt><trkpt lat="43.7338024" lon="11.7603226"><ele>350.0</ele><time>2026-04-04T09:03:16.285Z</time></trkpt><trkpt lat="43.7337381" lon="11.7604484"><ele>350.0</ele><time>2026-04-04T09:03:17.286Z</time></trkpt><trkpt lat="43.7336679" lon="11.7605704"><ele>350.4</ele><time>2026-04-04T09:03:18.282Z</time></trkpt><trkpt lat="43.73359" lon="11.760677"><ele>350.8</ele><time>2026-04-04T09:03:19.292Z</time></trkpt><trkpt lat="43.7335135" lon="11.7607806"><ele>351.20000000000005</ele><time>2026-04-04T09:03:20.281Z</time></trkpt><trkpt lat="43.7334462" lon="11.7608854"><ele>351.6</ele><time>2026-04-04T09:03:21.285Z</time></trkpt><trkpt lat="43.7333805" lon="11.7609981"><ele>352.0</ele><time>2026-04-04T09:03:22.291Z</time></trkpt><trkpt lat="43.733316" lon="11.7611085"><ele>351.20000000000005</ele><time>2026-04-04T09:03:23.285Z</time></trkpt><trkpt lat="43.7332495" lon="11.7612264"><ele>350.4</ele><time>2026-04-04T09:03:24.288Z</time></trkpt><trkpt lat="43.7331904" lon="11.7613491"><ele>349.6</ele><time>2026-04-04T09:03:25.288Z</time></trkpt><trkpt lat="43.733141" lon="11.7614695"><ele>348.79999999999995</ele><time>2026-04-04T09:03:26.287Z</time></trkpt><trkpt lat="43.7330968" lon="11.7615818"><ele>348.0</ele><time>2026-04-04T09:03:27.293Z</time></trkpt><trkpt lat="43.7330641" lon="11.7616858"><ele>348.0</ele><time>2026-04-04T09:03:28.292Z</time></trkpt><trkpt lat="43.7330339" lon="11.7617961"><ele>348.0</ele><time>2026-04-04T09:03:29.288Z</time></trkpt><trkpt lat="43.7330029" lon="11.7619165"><ele>348.0</ele><time>2026-04-04T09:03:30.293Z</time></trkpt><trkpt lat="43.7329681" lon="11.7620474"><ele>348.0</ele><time>2026-04-04T09:03:31.29Z</time></trkpt><trkpt lat="43.7329319" lon="11.7621873"><ele>348.0</ele><time>2026-04-04T09:03:32.28Z</time></trkpt><trkpt lat="43.732898" lon="11.7623189"><ele>348.1666666666667</ele><time>2026-04-04T09:03:33.289Z</time></trkpt><trkpt lat="43.7328723" lon="11.7624384"><ele>348.3333333333333</ele><time>2026-04-04T09:03:34.286Z</time></trkpt><trkpt lat="43.7328434" lon="11.7625347"><ele>348.5</ele><time>2026-04-04T09:03:35.276Z</time></trkpt><trkpt lat="43.7328168" lon="11.7626291"><ele>348.66666666666663</ele><time>2026-04-04T09:03:36.283Z</time></trkpt><trkpt lat="43.7327929" lon="11.7627169"><ele>348.8333333333333</ele><time>2026-04-04T09:03:37.285Z</time></trkpt><trkpt lat="43.7327564" lon="11.7628714"><ele>349.0</ele><time>2026-04-04T09:03:39.3Z</time></trkpt><trkpt lat="43.7327348" lon="11.7629802"><ele>348.3333333333333</ele><time>2026-04-04T09:03:41.288Z</time></trkpt><trkpt lat="43.7327122" lon="11.763122"><ele>347.66666666666663</ele><time>2026-04-04T09:03:44.289Z</time></trkpt><trkpt lat="43.7326906" lon="11.7632142"><ele>347.0</ele><time>2026-04-04T09:03:45.285Z</time></trkpt><trkpt lat="43.7326624" lon="11.7633104"><ele>346.3333333333333</ele><time>2026-04-04T09:03:46.287Z</time></trkpt><trkpt lat="43.7326327" lon="11.7634078"><ele>345.6666666666667</ele><time>2026-04-04T09:03:47.288Z</time></trkpt><trkpt lat="43.7326069" lon="11.7635004"><ele>345.0</ele><time>2026-04-04T09:03:48.286Z</time></trkpt><trkpt lat="43.7325839" lon="11.7635965"><ele>345.0</ele><time>2026-04-04T09:03:49.283Z</time></trkpt><trkpt lat="43.7325578" lon="11.7636864"><ele>345.0</ele><time>2026-04-04T09:03:50.28Z</time></trkpt><trkpt lat="43.7325335" lon="11.763783"><ele>345.0</ele><time>2026-04-04T09:03:51.286Z</time></trkpt><trkpt lat="43.7325097" lon="11.7638789"><ele>345.0</ele><time>2026-04-04T09:03:52.285Z</time></trkpt><trkpt lat="43.7324841" lon="11.7639791"><ele>345.0</ele><time>2026-04-04T09:03:53.289Z</time></trkpt><trkpt lat="43.7324579" lon="11.764081"><ele>345.0</ele><time>2026-04-04T09:03:54.287Z</time></trkpt><trkpt lat="43.732433" lon="11.7641896"><ele>345.0</ele><time>2026-04-04T09:03:55.279Z</time></trkpt><trkpt lat="43.7324054" lon="11.7643046"><ele>345.0</ele><time>2026-04-04T09:03:56.295Z</time></trkpt><trkpt lat="43.7323772" lon="11.7644275"><ele>345.0</ele><time>2026-04-04T09:03:57.284Z</time></trkpt><trkpt lat="43.7323471" lon="11.7645457"><ele>345.0</ele><time>2026-04-04T09:03:58.287Z</time></trkpt><trkpt lat="43.7323192" lon="11.7646604"><ele>345.0</ele><time>2026-04-04T09:03:59.287Z</time></trkpt><trkpt lat="43.732293" lon="11.7647798"><ele>345.0</ele><time>2026-04-04T09:04:00.284Z</time></trkpt><trkpt lat="43.7322621" lon="11.764902"><ele>345.0</ele><time>2026-04-04T09:04:01.288Z</time></trkpt><trkpt lat="43.7322286" lon="11.7650278"><ele>345.0</ele><time>2026-04-04T09:04:02.283Z</time></trkpt><trkpt lat="43.7321961" lon="11.7651544"><ele>345.0</ele><time>2026-04-04T09:04:03.316Z</time></trkpt><trkpt lat="43.7321633" lon="11.7652799"><ele>345.0</ele><time>2026-04-04T09:04:04.283Z</time></trkpt><trkpt lat="43.7321347" lon="11.765405"><ele>345.0</ele><time>2026-04-04T09:04:05.282Z</time></trkpt><trkpt lat="43.7321032" lon="11.7655182"><ele>345.0</ele><time>2026-04-04T09:04:06.28Z</time></trkpt><trkpt lat="43.7320748" lon="11.7656212"><ele>345.0</ele><time>2026-04-04T09:04:07.286Z</time></trkpt><trkpt lat="43.7320524" lon="11.7657225"><ele>345.0</ele><time>2026-04-04T09:04:08.285Z</time></trkpt><trkpt lat="43.7320315" lon="11.7658228"><ele>345.0</ele><time>2026-04-04T09:04:09.288Z</time></trkpt><trkpt lat="43.7320089" lon="11.7659307"><ele>345.0</ele><time>2026-04-04T09:04:10.303Z</time></trkpt><trkpt lat="43.7319817" lon="11.766037"><ele>345.0</ele><time>2026-04-04T09:04:11.294Z</time></trkpt><trkpt lat="43.731953" lon="11.7661454"><ele>345.1666666666667</ele><time>2026-04-04T09:04:12.312Z</time></trkpt><trkpt lat="43.7319269" lon="11.7662514"><ele>345.3333333333333</ele><time>2026-04-04T09:04:13.294Z</time></trkpt><trkpt lat="43.7318948" lon="11.7663576"><ele>345.5</ele><time>2026-04-04T09:04:14.292Z</time></trkpt><trkpt lat="43.7318559" lon="11.7664549"><ele>345.66666666666663</ele><time>2026-04-04T09:04:15.288Z</time></trkpt><trkpt lat="43.7318013" lon="11.7665336"><ele>345.8333333333333</ele><time>2026-04-04T09:04:16.282Z</time></trkpt><trkpt lat="43.7317319" lon="11.7666121"><ele>346.0</ele><time>2026-04-04T09:04:17.285Z</time></trkpt><trkpt lat="43.7316461" lon="11.7666743"><ele>346.0</ele><time>2026-04-04T09:04:18.292Z</time></trkpt><trkpt lat="43.7315492" lon="11.766724"><ele>346.0</ele><time>2026-04-04T09:04:19.28Z</time></trkpt><trkpt lat="43.7314589" lon="11.7667687"><ele>346.0</ele><time>2026-04-04T09:04:20.275Z</time></trkpt><trkpt lat="43.7313758" lon="11.7668125"><ele>346.0</ele><time>2026-04-04T09:04:21.28Z</time></trkpt><trkpt lat="43.7312951" lon="11.7668546"><ele>346.0</ele><time>2026-04-04T09:04:22.282Z</time></trkpt><trkpt lat="43.731216" lon="11.7669042"><ele>345.8333333333333</ele><time>2026-04-04T09:04:23.274Z</time></trkpt><trkpt lat="43.7311336" lon="11.7669578"><ele>345.66666666666663</ele><time>2026-04-04T09:04:24.277Z</time></trkpt><trkpt lat="43.7310469" lon="11.7670118"><ele>345.5</ele><time>2026-04-04T09:04:25.28Z</time></trkpt><trkpt lat="43.7309683" lon="11.7670661"><ele>345.3333333333333</ele><time>2026-04-04T09:04:26.292Z</time></trkpt><trkpt lat="43.7308907" lon="11.7671201"><ele>345.1666666666667</ele><time>2026-04-04T09:04:27.284Z</time></trkpt><trkpt lat="43.7308148" lon="11.7671708"><ele>345.0</ele><time>2026-04-04T09:04:28.274Z</time></trkpt><trkpt lat="43.7307426" lon="11.7672263"><ele>345.0</ele><time>2026-04-04T09:04:29.295Z</time></trkpt><trkpt lat="43.7306694" lon="11.7672756"><ele>345.0</ele><time>2026-04-04T09:04:30.286Z</time></trkpt><trkpt lat="43.7305956" lon="11.7673255"><ele>345.0</ele><time>2026-04-04T09:04:31.283Z</time></trkpt><trkpt lat="43.7305181" lon="11.7673784"><ele>345.0</ele><time>2026-04-04T09:04:32.289Z</time></trkpt><trkpt lat="43.7304428" lon="11.7674313"><ele>345.0</ele><time>2026-04-04T09:04:33.285Z</time></trkpt><trkpt lat="43.7303702" lon="11.7674796"><ele>345.0</ele><time>2026-04-04T09:04:34.288Z</time></trkpt><trkpt lat="43.730306" lon="11.7675216"><ele>345.0</ele><time>2026-04-04T09:04:35.278Z</time></trkpt><trkpt lat="43.7302108" lon="11.7675925"><ele>345.0</ele><time>2026-04-04T09:04:37.288Z</time></trkpt><trkpt lat="43.7301308" lon="11.7676425"><ele>345.0</ele><time>2026-04-04T09:04:39.292Z</time></trkpt><trkpt lat="43.7300424" lon="11.7677058"><ele>345.0</ele><time>2026-04-04T09:04:41.297Z</time></trkpt><trkpt lat="43.7299344" lon="11.7677812"><ele>345.0</ele><time>2026-04-04T09:04:43.271Z</time></trkpt><trkpt lat="43.7298788" lon="11.7678233"><ele>345.0</ele><time>2026-04-04T09:04:44.28Z</time></trkpt><trkpt lat="43.7298227" lon="11.7678653"><ele>345.0</ele><time>2026-04-04T09:04:45.272Z</time></trkpt><trkpt lat="43.7297068" lon="11.7679423"><ele>345.0</ele><time>2026-04-04T09:04:47.269Z</time></trkpt><trkpt lat="43.7296475" lon="11.7679811"><ele>345.0</ele><time>2026-04-04T09:04:48.271Z</time></trkpt><trkpt lat="43.7295907" lon="11.7680217"><ele>345.0</ele><time>2026-04-04T09:04:49.269Z</time></trkpt><trkpt lat="43.7294781" lon="11.7680973"><ele>345.0</ele><time>2026-04-04T09:04:51.279Z</time></trkpt><trkpt lat="43.7294215" lon="11.7681371"><ele>344.8</ele><time>2026-04-04T09:04:52.27Z</time></trkpt><trkpt lat="43.7293105" lon="11.7682125"><ele>344.6</ele><time>2026-04-04T09:04:54.274Z</time></trkpt><trkpt lat="43.7292074" lon="11.7682874"><ele>344.4</ele><time>2026-04-04T09:04:56.279Z</time></trkpt><trkpt lat="43.7291145" lon="11.7683451"><ele>344.2</ele><time>2026-04-04T09:04:58.279Z</time></trkpt><trkpt lat="43.729026" lon="11.7684008"><ele>344.0</ele><time>2026-04-04T09:05:00.27Z</time></trkpt><trkpt lat="43.7289493" lon="11.7684586"><ele>344.0</ele><time>2026-04-04T09:05:02.279Z</time></trkpt><trkpt lat="43.728884" lon="11.768505"><ele>344.0</ele><time>2026-04-04T09:05:06.277Z</time></trkpt><trkpt lat="43.7288243" lon="11.7685608"><ele>344.0</ele><time>2026-04-04T09:05:10.302Z</time></trkpt><trkpt lat="43.728747" lon="11.7686407"><ele>344.0</ele><time>2026-04-04T09:05:13.268Z</time></trkpt><trkpt lat="43.7286661" lon="11.7687208"><ele>344.0</ele><time>2026-04-04T09:05:15.296Z</time></trkpt><trkpt lat="43.728574" lon="11.7688015"><ele>344.0</ele><time>2026-04-04T09:05:17.266Z</time></trkpt><trkpt lat="43.7284844" lon="11.7688907"><ele>344.0</ele><time>2026-04-04T09:05:19.264Z</time></trkpt><trkpt lat="43.7283925" lon="11.7690139"><ele>344.0</ele><time>2026-04-04T09:05:21.27Z</time></trkpt><trkpt lat="43.7283426" lon="11.7690896"><ele>344.0</ele><time>2026-04-04T09:05:22.277Z</time></trkpt><trkpt lat="43.7282929" lon="11.7691756"><ele>344.0</ele><time>2026-04-04T09:05:23.277Z</time></trkpt><trkpt lat="43.7282359" lon="11.7692552"><ele>344.0</ele><time>2026-04-04T09:05:24.292Z</time></trkpt><trkpt lat="43.728174" lon="11.7693349"><ele>344.0</ele><time>2026-04-04T09:05:25.282Z</time></trkpt><trkpt lat="43.7281146" lon="11.7694171"><ele>344.0</ele><time>2026-04-04T09:05:26.277Z</time></trkpt><trkpt lat="43.7280604" lon="11.7695002"><ele>344.0</ele><time>2026-04-04T09:05:27.277Z</time></trkpt><trkpt lat="43.7280109" lon="11.7695825"><ele>344.0</ele><time>2026-04-04T09:05:28.274Z</time></trkpt><trkpt lat="43.7279666" lon="11.7696603"><ele>344.0</ele><time>2026-04-04T09:05:29.274Z</time></trkpt><trkpt lat="43.7278936" lon="11.7697782"><ele>344.0</ele><time>2026-04-04T09:05:31.269Z</time></trkpt><trkpt lat="43.727838" lon="11.7698756"><ele>344.0</ele><time>2026-04-04T09:05:33.271Z</time></trkpt><trkpt lat="43.7277842" lon="11.7699786"><ele>344.0</ele><time>2026-04-04T09:05:35.265Z</time></trkpt><trkpt lat="43.7277121" lon="11.7701091"><ele>344.0</ele><time>2026-04-04T09:05:37.268Z</time></trkpt><trkpt lat="43.7276658" lon="11.7701894"><ele>344.0</ele><time>2026-04-04T09:05:38.269Z</time></trkpt><trkpt lat="43.7276149" lon="11.7702763"><ele>344.00000000000006</ele><time>2026-04-04T09:05:39.273Z</time></trkpt><trkpt lat="43.7275625" lon="11.770358"><ele>344.0</ele><time>2026-04-04T09:05:40.269Z</time></trkpt><trkpt lat="43.7275094" lon="11.7704447"><ele>344.0</ele><time>2026-04-04T09:05:41.278Z</time></trkpt><trkpt lat="43.727462" lon="11.7705318"><ele>344.0</ele><time>2026-04-04T09:05:42.285Z</time></trkpt><trkpt lat="43.7274194" lon="11.7706085"><ele>344.0</ele><time>2026-04-04T09:05:43.295Z</time></trkpt><trkpt lat="43.7273835" lon="11.7706858"><ele>344.00000000000006</ele><time>2026-04-04T09:05:44.282Z</time></trkpt><trkpt lat="43.7273484" lon="11.7707647"><ele>344.0</ele><time>2026-04-04T09:05:45.275Z</time></trkpt><trkpt lat="43.7273161" lon="11.7708555"><ele>344.00000000000006</ele><time>2026-04-04T09:05:46.281Z</time></trkpt><trkpt lat="43.7272857" lon="11.7709443"><ele>344.0</ele><time>2026-04-04T09:05:47.288Z</time></trkpt><trkpt lat="43.7272601" lon="11.7710308"><ele>344.0</ele><time>2026-04-04T09:05:48.284Z</time></trkpt><trkpt lat="43.7272352" lon="11.7711152"><ele>344.0</ele><time>2026-04-04T09:05:49.275Z</time></trkpt><trkpt lat="43.7272145" lon="11.7712007"><ele>344.0</ele><time>2026-04-04T09:05:50.274Z</time></trkpt><trkpt lat="43.7271933" lon="11.7712915"><ele>344.00000000000006</ele><time>2026-04-04T09:05:51.273Z</time></trkpt><trkpt lat="43.7271713" lon="11.7713903"><ele>344.0</ele><time>2026-04-04T09:05:52.275Z</time></trkpt><trkpt lat="43.7271459" lon="11.7714973"><ele>343.83333333333337</ele><time>2026-04-04T09:05:53.275Z</time></trkpt><trkpt lat="43.7271179" lon="11.771605"><ele>343.6666666666667</ele><time>2026-04-04T09:05:54.284Z</time></trkpt><trkpt lat="43.7270868" lon="11.7717139"><ele>343.5</ele><time>2026-04-04T09:05:55.284Z</time></trkpt><trkpt lat="43.7270575" lon="11.7718136"><ele>343.3333333333333</ele><time>2026-04-04T09:05:56.276Z</time></trkpt><trkpt lat="43.7270312" lon="11.7719071"><ele>343.16666666666663</ele><time>2026-04-04T09:05:57.272Z</time></trkpt><trkpt lat="43.7269878" lon="11.7720641"><ele>343.0</ele><time>2026-04-04T09:05:59.293Z</time></trkpt><trkpt lat="43.7269476" lon="11.7721954"><ele>343.0</ele><time>2026-04-04T09:06:01.284Z</time></trkpt><trkpt lat="43.7269087" lon="11.7723296"><ele>343.0</ele><time>2026-04-04T09:06:03.286Z</time></trkpt><trkpt lat="43.7268479" lon="11.7724341"><ele>343.0</ele><time>2026-04-04T09:06:05.282Z</time></trkpt><trkpt lat="43.7268019" lon="11.7724971"><ele>343.0</ele><time>2026-04-04T09:06:06.275Z</time></trkpt><trkpt lat="43.7267646" lon="11.7725783"><ele>343.0</ele><time>2026-04-04T09:06:07.281Z</time></trkpt><trkpt lat="43.7267465" lon="11.7726837"><ele>343.0</ele><time>2026-04-04T09:06:08.283Z</time></trkpt><trkpt lat="43.7267462" lon="11.772792"><ele>342.4</ele><time>2026-04-04T09:06:09.284Z</time></trkpt><trkpt lat="43.7267503" lon="11.7729063"><ele>341.79999999999995</ele><time>2026-04-04T09:06:10.271Z</time></trkpt><trkpt lat="43.7267319" lon="11.7730254"><ele>341.2</ele><time>2026-04-04T09:06:11.273Z</time></trkpt><trkpt lat="43.7266979" lon="11.7731492"><ele>340.6</ele><time>2026-04-04T09:06:12.276Z</time></trkpt><trkpt lat="43.7266512" lon="11.7732755"><ele>340.0</ele><time>2026-04-04T09:06:13.273Z</time></trkpt><trkpt lat="43.7265971" lon="11.7734028"><ele>342.25</ele><time>2026-04-04T09:06:14.301Z</time></trkpt><trkpt lat="43.7265383" lon="11.7735303"><ele>344.5</ele><time>2026-04-04T09:06:15.273Z</time></trkpt><trkpt lat="43.7264701" lon="11.7736698"><ele>346.75</ele><time>2026-04-04T09:06:16.269Z</time></trkpt><trkpt lat="43.7263919" lon="11.7738103"><ele>349.0</ele><time>2026-04-04T09:06:17.276Z</time></trkpt><trkpt lat="43.7263043" lon="11.7739595"><ele>349.0</ele><time>2026-04-04T09:06:18.274Z</time></trkpt><trkpt lat="43.7262143" lon="11.7741025"><ele>349.0</ele><time>2026-04-04T09:06:19.299Z</time></trkpt><trkpt lat="43.7261289" lon="11.7742348"><ele>349.0</ele><time>2026-04-04T09:06:20.28Z</time></trkpt><trkpt lat="43.7260469" lon="11.774347"><ele>349.0</ele><time>2026-04-04T09:06:21.277Z</time></trkpt><trkpt lat="43.7259664" lon="11.7744503"><ele>347.25</ele><time>2026-04-04T09:06:22.277Z</time></trkpt><trkpt lat="43.7258786" lon="11.7745414"><ele>345.5</ele><time>2026-04-04T09:06:23.277Z</time></trkpt><trkpt lat="43.725784" lon="11.7746228"><ele>343.75</ele><time>2026-04-04T09:06:24.279Z</time></trkpt><trkpt lat="43.7256807" lon="11.7746928"><ele>342.0</ele><time>2026-04-04T09:06:25.281Z</time></trkpt><trkpt lat="43.7255632" lon="11.7747498"><ele>342.0</ele><time>2026-04-04T09:06:26.281Z</time></trkpt><trkpt lat="43.7254394" lon="11.774794"><ele>342.0</ele><time>2026-04-04T09:06:27.287Z</time></trkpt><trkpt lat="43.7253138" lon="11.774837"><ele>342.0</ele><time>2026-04-04T09:06:28.285Z</time></trkpt><trkpt lat="43.7251888" lon="11.7748783"><ele>342.0</ele><time>2026-04-04T09:06:29.289Z</time></trkpt><trkpt lat="43.725062" lon="11.7749259"><ele>342.0</ele><time>2026-04-04T09:06:30.287Z</time></trkpt><trkpt lat="43.7249327" lon="11.7749747"><ele>342.0</ele><time>2026-04-04T09:06:31.283Z</time></trkpt><trkpt lat="43.7247951" lon="11.7750187"><ele>342.0</ele><time>2026-04-04T09:06:32.281Z</time></trkpt><trkpt lat="43.7246586" lon="11.7750629"><ele>342.0</ele><time>2026-04-04T09:06:33.281Z</time></trkpt><trkpt lat="43.7245295" lon="11.7750984"><ele>342.0</ele><time>2026-04-04T09:06:34.29Z</time></trkpt><trkpt lat="43.7244036" lon="11.775135"><ele>342.0</ele><time>2026-04-04T09:06:35.278Z</time></trkpt><trkpt lat="43.7242777" lon="11.7751737"><ele>342.0</ele><time>2026-04-04T09:06:36.285Z</time></trkpt><trkpt lat="43.7241498" lon="11.7752121"><ele>342.0</ele><time>2026-04-04T09:06:37.284Z</time></trkpt><trkpt lat="43.7240184" lon="11.7752511"><ele>342.0</ele><time>2026-04-04T09:06:38.28Z</time></trkpt><trkpt lat="43.7238918" lon="11.7752929"><ele>342.0</ele><time>2026-04-04T09:06:39.285Z</time></trkpt><trkpt lat="43.7237658" lon="11.7753351"><ele>342.0</ele><time>2026-04-04T09:06:40.287Z</time></trkpt><trkpt lat="43.7236355" lon="11.7753772"><ele>342.0</ele><time>2026-04-04T09:06:41.278Z</time></trkpt><trkpt lat="43.7234933" lon="11.7754187"><ele>341.3333333333333</ele><time>2026-04-04T09:06:42.281Z</time></trkpt><trkpt lat="43.7233269" lon="11.7754731"><ele>340.66666666666663</ele><time>2026-04-04T09:06:43.278Z</time></trkpt><trkpt lat="43.7231595" lon="11.7755463"><ele>340.0</ele><time>2026-04-04T09:06:44.287Z</time></trkpt><trkpt lat="43.7229995" lon="11.7756191"><ele>340.0</ele><time>2026-04-04T09:06:45.298Z</time></trkpt><trkpt lat="43.7228476" lon="11.7757074"><ele>340.0</ele><time>2026-04-04T09:06:46.292Z</time></trkpt><trkpt lat="43.7227038" lon="11.7758026"><ele>340.0</ele><time>2026-04-04T09:06:47.286Z</time></trkpt><trkpt lat="43.7225732" lon="11.7759092"><ele>339.75</ele><time>2026-04-04T09:06:48.287Z</time></trkpt><trkpt lat="43.7224563" lon="11.7760335"><ele>339.5</ele><time>2026-04-04T09:06:49.284Z</time></trkpt><trkpt lat="43.7223461" lon="11.7761646"><ele>339.25</ele><time>2026-04-04T09:06:50.286Z</time></trkpt><trkpt lat="43.7222387" lon="11.7762904"><ele>339.0</ele><time>2026-04-04T09:06:51.288Z</time></trkpt><trkpt lat="43.7221352" lon="11.7764236"><ele>339.0</ele><time>2026-04-04T09:06:52.282Z</time></trkpt><trkpt lat="43.7220519" lon="11.7765503"><ele>339.0</ele><time>2026-04-04T09:06:53.282Z</time></trkpt><trkpt lat="43.7219827" lon="11.7766785"><ele>339.0</ele><time>2026-04-04T09:06:54.282Z</time></trkpt><trkpt lat="43.7219224" lon="11.7768073"><ele>339.0</ele><time>2026-04-04T09:06:55.285Z</time></trkpt><trkpt lat="43.7218631" lon="11.7769411"><ele>337.75</ele><time>2026-04-04T09:06:56.28Z</time></trkpt><trkpt lat="43.7218133" lon="11.7770809"><ele>336.5</ele><time>2026-04-04T09:06:57.281Z</time></trkpt><trkpt lat="43.7217606" lon="11.7772298"><ele>335.25</ele><time>2026-04-04T09:06:58.283Z</time></trkpt><trkpt lat="43.7217118" lon="11.7773873"><ele>334.0</ele><time>2026-04-04T09:06:59.284Z</time></trkpt><trkpt lat="43.7216562" lon="11.7775446"><ele>334.0</ele><time>2026-04-04T09:07:00.283Z</time></trkpt><trkpt lat="43.7215986" lon="11.7777076"><ele>334.0</ele><time>2026-04-04T09:07:01.282Z</time></trkpt><trkpt lat="43.72154" lon="11.7778643"><ele>334.0</ele><time>2026-04-04T09:07:02.284Z</time></trkpt><trkpt lat="43.7214791" lon="11.7780103"><ele>334.0</ele><time>2026-04-04T09:07:03.28Z</time></trkpt><trkpt lat="43.7214128" lon="11.7781387"><ele>334.0</ele><time>2026-04-04T09:07:04.28Z</time></trkpt><trkpt lat="43.7213423" lon="11.7782592"><ele>334.0</ele><time>2026-04-04T09:07:05.285Z</time></trkpt><trkpt lat="43.7212649" lon="11.7783708"><ele>334.0</ele><time>2026-04-04T09:07:06.283Z</time></trkpt><trkpt lat="43.7211849" lon="11.7784736"><ele>334.0</ele><time>2026-04-04T09:07:07.285Z</time></trkpt><trkpt lat="43.7211091" lon="11.7785752"><ele>334.0</ele><time>2026-04-04T09:07:08.279Z</time></trkpt><trkpt lat="43.7210344" lon="11.7786676"><ele>334.0</ele><time>2026-04-04T09:07:09.284Z</time></trkpt><trkpt lat="43.7209484" lon="11.7787525"><ele>334.0</ele><time>2026-04-04T09:07:10.294Z</time></trkpt><trkpt lat="43.7208507" lon="11.7788397"><ele>334.0</ele><time>2026-04-04T09:07:11.279Z</time></trkpt><trkpt lat="43.7207223" lon="11.7789427"><ele>334.0</ele><time>2026-04-04T09:07:12.269Z</time></trkpt><trkpt lat="43.7205874" lon="11.77905"><ele>334.0</ele><time>2026-04-04T09:07:13.273Z</time></trkpt><trkpt lat="43.7204469" lon="11.7791527"><ele>334.0</ele><time>2026-04-04T09:07:14.27Z</time></trkpt><trkpt lat="43.7203182" lon="11.7792372"><ele>334.0</ele><time>2026-04-04T09:07:15.286Z</time></trkpt><trkpt lat="43.7202086" lon="11.7793187"><ele>334.0</ele><time>2026-04-04T09:07:16.288Z</time></trkpt><trkpt lat="43.7201011" lon="11.7794035"><ele>334.0</ele><time>2026-04-04T09:07:17.279Z</time></trkpt><trkpt lat="43.7199914" lon="11.7794974"><ele>334.0</ele><time>2026-04-04T09:07:18.28Z</time></trkpt><trkpt lat="43.7198609" lon="11.7795976"><ele>334.0</ele><time>2026-04-04T09:07:19.274Z</time></trkpt><trkpt lat="43.7197074" lon="11.7797301"><ele>334.0</ele><time>2026-04-04T09:07:20.277Z</time></trkpt><trkpt lat="43.7195076" lon="11.7799056"><ele>334.0</ele><time>2026-04-04T09:07:21.277Z</time></trkpt><trkpt lat="43.7193015" lon="11.780067"><ele>333.66666666666663</ele><time>2026-04-04T09:07:22.276Z</time></trkpt><trkpt lat="43.7191028" lon="11.7802109"><ele>333.3333333333333</ele><time>2026-04-04T09:07:23.281Z</time></trkpt><trkpt lat="43.7189143" lon="11.7803527"><ele>333.0</ele><time>2026-04-04T09:07:24.275Z</time></trkpt><trkpt lat="43.7187334" lon="11.7804961"><ele>332.3333333333333</ele><time>2026-04-04T09:07:25.283Z</time></trkpt><trkpt lat="43.7185614" lon="11.7806294"><ele>331.66666666666663</ele><time>2026-04-04T09:07:26.283Z</time></trkpt><trkpt lat="43.7183735" lon="11.7808084"><ele>331.0</ele><time>2026-04-04T09:07:27.281Z</time></trkpt><trkpt lat="43.7181361" lon="11.7810026"><ele>331.5</ele><time>2026-04-04T09:07:28.283Z</time></trkpt><trkpt lat="43.717855" lon="11.7812214"><ele>332.0</ele><time>2026-04-04T09:07:29.279Z</time></trkpt><trkpt lat="43.7175651" lon="11.781449"><ele>332.0</ele><time>2026-04-04T09:07:30.273Z</time></trkpt><trkpt lat="43.717271" lon="11.7816709"><ele>332.0</ele><time>2026-04-04T09:07:31.272Z</time></trkpt><trkpt lat="43.7169841" lon="11.7818923"><ele>331.5</ele><time>2026-04-04T09:07:32.275Z</time></trkpt><trkpt lat="43.7167129" lon="11.7821018"><ele>331.0</ele><time>2026-04-04T09:07:33.278Z</time></trkpt><trkpt lat="43.7164651" lon="11.7822883"><ele>331.0</ele><time>2026-04-04T09:07:34.279Z</time></trkpt><trkpt lat="43.7162428" lon="11.7824722"><ele>331.0</ele><time>2026-04-04T09:07:35.28Z</time></trkpt><trkpt lat="43.716028" lon="11.78264"><ele>332.0</ele><time>2026-04-04T09:07:36.281Z</time></trkpt><trkpt lat="43.715813" lon="11.7827902"><ele>333.0</ele><time>2026-04-04T09:07:37.279Z</time></trkpt><trkpt lat="43.7155979" lon="11.7829285"><ele>333.0</ele><time>2026-04-04T09:07:38.28Z</time></trkpt><trkpt lat="43.7153891" lon="11.7830551"><ele>333.0</ele><time>2026-04-04T09:07:39.28Z</time></trkpt><trkpt lat="43.7151753" lon="11.783181"><ele>332.5</ele><time>2026-04-04T09:07:40.275Z</time></trkpt><trkpt lat="43.7149571" lon="11.7833103"><ele>332.0</ele><time>2026-04-04T09:07:41.277Z</time></trkpt><trkpt lat="43.7147394" lon="11.7834282"><ele>333.0</ele><time>2026-04-04T09:07:42.273Z</time></trkpt><trkpt lat="43.7145173" lon="11.7835474"><ele>334.0</ele><time>2026-04-04T09:07:43.277Z</time></trkpt><trkpt lat="43.7142868" lon="11.7836706"><ele>334.0</ele><time>2026-04-04T09:07:44.277Z</time></trkpt><trkpt lat="43.7140572" lon="11.7837943"><ele>334.0</ele><time>2026-04-04T09:07:45.274Z</time></trkpt><trkpt lat="43.7138337" lon="11.783916"><ele>334.0</ele><time>2026-04-04T09:07:46.275Z</time></trkpt><trkpt lat="43.7136129" lon="11.7840349"><ele>334.0</ele><time>2026-04-04T09:07:47.302Z</time></trkpt><trkpt lat="43.7133905" lon="11.7841614"><ele>333.0</ele><time>2026-04-04T09:07:48.278Z</time></trkpt><trkpt lat="43.7131686" lon="11.7842812"><ele>332.0</ele><time>2026-04-04T09:07:49.289Z</time></trkpt><trkpt lat="43.7129547" lon="11.7844098"><ele>333.5</ele><time>2026-04-04T09:07:50.275Z</time></trkpt><trkpt lat="43.7127439" lon="11.7845328"><ele>335.0</ele><time>2026-04-04T09:07:51.273Z</time></trkpt><trkpt lat="43.7125341" lon="11.7846559"><ele>335.0</ele><time>2026-04-04T09:07:52.279Z</time></trkpt><trkpt lat="43.7123201" lon="11.7847722"><ele>335.0</ele><time>2026-04-04T09:07:53.273Z</time></trkpt><trkpt lat="43.7121103" lon="11.7848819"><ele>335.0</ele><time>2026-04-04T09:07:54.275Z</time></trkpt><trkpt lat="43.7119077" lon="11.7849879"><ele>335.0</ele><time>2026-04-04T09:07:55.279Z</time></trkpt><trkpt lat="43.7117215" lon="11.7851032"><ele>335.0</ele><time>2026-04-04T09:07:56.275Z</time></trkpt><trkpt lat="43.7115364" lon="11.7852275"><ele>335.6666666666667</ele><time>2026-04-04T09:07:57.277Z</time></trkpt><trkpt lat="43.7113593" lon="11.785373"><ele>336.3333333333333</ele><time>2026-04-04T09:07:58.279Z</time></trkpt><trkpt lat="43.7111907" lon="11.7855283"><ele>337.0</ele><time>2026-04-04T09:07:59.276Z</time></trkpt><trkpt lat="43.7110271" lon="11.7857011"><ele>337.3333333333333</ele><time>2026-04-04T09:08:00.278Z</time></trkpt><trkpt lat="43.7108622" lon="11.7858902"><ele>337.6666666666667</ele><time>2026-04-04T09:08:01.279Z</time></trkpt><trkpt lat="43.7107098" lon="11.7861077"><ele>338.0</ele><time>2026-04-04T09:08:02.279Z</time></trkpt><trkpt lat="43.7105642" lon="11.7863319"><ele>338.0</ele><time>2026-04-04T09:08:03.274Z</time></trkpt><trkpt lat="43.7104283" lon="11.7865757"><ele>338.0</ele><time>2026-04-04T09:08:04.276Z</time></trkpt><trkpt lat="43.710291" lon="11.7868342"><ele>336.5</ele><time>2026-04-04T09:08:05.278Z</time></trkpt><trkpt lat="43.7101436" lon="11.7871064"><ele>335.0</ele><time>2026-04-04T09:08:06.274Z</time></trkpt><trkpt lat="43.7099935" lon="11.7873647"><ele>335.0</ele><time>2026-04-04T09:08:07.275Z</time></trkpt><trkpt lat="43.7098482" lon="11.7876095"><ele>335.0</ele><time>2026-04-04T09:08:08.267Z</time></trkpt><trkpt lat="43.7097167" lon="11.7878447"><ele>335.0</ele><time>2026-04-04T09:08:09.268Z</time></trkpt><trkpt lat="43.7095908" lon="11.788076"><ele>335.0</ele><time>2026-04-04T09:08:10.269Z</time></trkpt><trkpt lat="43.7094588" lon="11.7883025"><ele>335.0</ele><time>2026-04-04T09:08:11.271Z</time></trkpt><trkpt lat="43.7093243" lon="11.7885214"><ele>335.0</ele><time>2026-04-04T09:08:12.271Z</time></trkpt><trkpt lat="43.7091748" lon="11.7887395"><ele>335.0</ele><time>2026-04-04T09:08:13.272Z</time></trkpt><trkpt lat="43.7090154" lon="11.7889449"><ele>335.0</ele><time>2026-04-04T09:08:14.27Z</time></trkpt><trkpt lat="43.7088461" lon="11.7891331"><ele>335.0</ele><time>2026-04-04T09:08:15.269Z</time></trkpt><trkpt lat="43.7086567" lon="11.7893108"><ele>334.5</ele><time>2026-04-04T09:08:16.272Z</time></trkpt><trkpt lat="43.7084578" lon="11.7894827"><ele>334.0</ele><time>2026-04-04T09:08:17.284Z</time></trkpt><trkpt lat="43.7082456" lon="11.7896434"><ele>334.0</ele><time>2026-04-04T09:08:18.27Z</time></trkpt><trkpt lat="43.7080226" lon="11.7898005"><ele>334.0</ele><time>2026-04-04T09:08:19.276Z</time></trkpt><trkpt lat="43.7078061" lon="11.789964"><ele>334.0</ele><time>2026-04-04T09:08:20.271Z</time></trkpt><trkpt lat="43.7075898" lon="11.7901341"><ele>334.0</ele><time>2026-04-04T09:08:21.274Z</time></trkpt><trkpt lat="43.7073743" lon="11.7903265"><ele>334.0</ele><time>2026-04-04T09:08:22.273Z</time></trkpt><trkpt lat="43.7071578" lon="11.7905152"><ele>334.0</ele><time>2026-04-04T09:08:23.271Z</time></trkpt><trkpt lat="43.7069405" lon="11.7907079"><ele>335.0</ele><time>2026-04-04T09:08:24.275Z</time></trkpt><trkpt lat="43.7067282" lon="11.7909022"><ele>336.0</ele><time>2026-04-04T09:08:25.278Z</time></trkpt><trkpt lat="43.7065226" lon="11.7910839"><ele>336.0</ele><time>2026-04-04T09:08:26.271Z</time></trkpt><trkpt lat="43.7063235" lon="11.7912619"><ele>336.0</ele><time>2026-04-04T09:08:27.277Z</time></trkpt><trkpt lat="43.7061289" lon="11.7914335"><ele>333.0</ele><time>2026-04-04T09:08:28.278Z</time></trkpt><trkpt lat="43.7059309" lon="11.7915953"><ele>330.0</ele><time>2026-04-04T09:08:29.28Z</time></trkpt><trkpt lat="43.7057415" lon="11.7917603"><ele>330.3333333333333</ele><time>2026-04-04T09:08:30.28Z</time></trkpt><trkpt lat="43.7055619" lon="11.7919188"><ele>330.66666666666663</ele><time>2026-04-04T09:08:31.28Z</time></trkpt><trkpt lat="43.7053884" lon="11.7920696"><ele>331.0</ele><time>2026-04-04T09:08:32.276Z</time></trkpt><trkpt lat="43.7052268" lon="11.7922112"><ele>331.0</ele><time>2026-04-04T09:08:33.278Z</time></trkpt><trkpt lat="43.7050622" lon="11.7923495"><ele>331.0</ele><time>2026-04-04T09:08:34.279Z</time></trkpt><trkpt lat="43.7048983" lon="11.7924819"><ele>331.0</ele><time>2026-04-04T09:08:35.28Z</time></trkpt><trkpt lat="43.7047233" lon="11.7926041"><ele>330.5</ele><time>2026-04-04T09:08:36.277Z</time></trkpt><trkpt lat="43.7045213" lon="11.7927231"><ele>330.0</ele><time>2026-04-04T09:08:37.279Z</time></trkpt><trkpt lat="43.7043035" lon="11.7928292"><ele>330.0</ele><time>2026-04-04T09:08:38.278Z</time></trkpt><trkpt lat="43.704075" lon="11.7929204"><ele>330.0</ele><time>2026-04-04T09:08:39.281Z</time></trkpt><trkpt lat="43.7038359" lon="11.7930046"><ele>330.0</ele><time>2026-04-04T09:08:40.279Z</time></trkpt><trkpt lat="43.7035808" lon="11.7930998"><ele>330.0</ele><time>2026-04-04T09:08:41.282Z</time></trkpt><trkpt lat="43.7033288" lon="11.7931975"><ele>328.0</ele><time>2026-04-04T09:08:42.28Z</time></trkpt><trkpt lat="43.7030834" lon="11.7932877"><ele>326.0</ele><time>2026-04-04T09:08:43.28Z</time></trkpt><trkpt lat="43.7028477" lon="11.793375"><ele>326.5</ele><time>2026-04-04T09:08:44.285Z</time></trkpt><trkpt lat="43.70261" lon="11.7934568"><ele>327.0</ele><time>2026-04-04T09:08:45.278Z</time></trkpt><trkpt lat="43.7023778" lon="11.7935545"><ele>327.0</ele><time>2026-04-04T09:08:46.277Z</time></trkpt><trkpt lat="43.7021514" lon="11.7936742"><ele>327.0</ele><time>2026-04-04T09:08:47.279Z</time></trkpt><trkpt lat="43.7019379" lon="11.7938146"><ele>325.5</ele><time>2026-04-04T09:08:48.285Z</time></trkpt><trkpt lat="43.7017392" lon="11.7939762"><ele>324.0</ele><time>2026-04-04T09:08:49.282Z</time></trkpt><trkpt lat="43.7015409" lon="11.7941572"><ele>324.0</ele><time>2026-04-04T09:08:50.28Z</time></trkpt><trkpt lat="43.7013516" lon="11.7943537"><ele>324.0</ele><time>2026-04-04T09:08:51.282Z</time></trkpt><trkpt lat="43.7011687" lon="11.794563"><ele>324.0</ele><time>2026-04-04T09:08:52.283Z</time></trkpt><trkpt lat="43.7009978" lon="11.7947927"><ele>324.0</ele><time>2026-04-04T09:08:53.277Z</time></trkpt><trkpt lat="43.7008332" lon="11.7950373"><ele>324.5</ele><time>2026-04-04T09:08:54.292Z</time></trkpt><trkpt lat="43.7006724" lon="11.7952898"><ele>325.0</ele><time>2026-04-04T09:08:55.28Z</time></trkpt><trkpt lat="43.7005038" lon="11.7955427"><ele>325.0</ele><time>2026-04-04T09:08:56.283Z</time></trkpt><trkpt lat="43.7003383" lon="11.7957962"><ele>325.0</ele><time>2026-04-04T09:08:57.28Z</time></trkpt><trkpt lat="43.700172" lon="11.7960497"><ele>324.0</ele><time>2026-04-04T09:08:58.282Z</time></trkpt><trkpt lat="43.7000059" lon="11.7962916"><ele>323.0</ele><time>2026-04-04T09:08:59.279Z</time></trkpt><trkpt lat="43.6998471" lon="11.7965235"><ele>323.0</ele><time>2026-04-04T09:09:00.284Z</time></trkpt><trkpt lat="43.6996967" lon="11.7967442"><ele>323.0</ele><time>2026-04-04T09:09:01.279Z</time></trkpt><trkpt lat="43.6995387" lon="11.7969698"><ele>323.0</ele><time>2026-04-04T09:09:02.278Z</time></trkpt><trkpt lat="43.6993753" lon="11.7972103"><ele>324.0</ele><time>2026-04-04T09:09:03.279Z</time></trkpt><trkpt lat="43.6991993" lon="11.7974468"><ele>325.0</ele><time>2026-04-04T09:09:04.28Z</time></trkpt><trkpt lat="43.699019" lon="11.7976755"><ele>326.0</ele><time>2026-04-04T09:09:05.278Z</time></trkpt><trkpt lat="43.6988185" lon="11.7978955"><ele>327.0</ele><time>2026-04-04T09:09:06.279Z</time></trkpt><trkpt lat="43.6986108" lon="11.7980945"><ele>325.5</ele><time>2026-04-04T09:09:07.28Z</time></trkpt><trkpt lat="43.6984021" lon="11.7982779"><ele>324.0</ele><time>2026-04-04T09:09:08.277Z</time></trkpt><trkpt lat="43.6982023" lon="11.7984368"><ele>324.0</ele><time>2026-04-04T09:09:09.278Z</time></trkpt><trkpt lat="43.6980201" lon="11.7985791"><ele>324.0</ele><time>2026-04-04T09:09:10.278Z</time></trkpt><trkpt lat="43.697851" lon="11.7986965"><ele>324.0</ele><time>2026-04-04T09:09:11.279Z</time></trkpt><trkpt lat="43.6977076" lon="11.7988033"><ele>324.0</ele><time>2026-04-04T09:09:12.28Z</time></trkpt><trkpt lat="43.6975694" lon="11.7989059"><ele>324.0</ele><time>2026-04-04T09:09:13.275Z</time></trkpt><trkpt lat="43.6974307" lon="11.7990035"><ele>324.0</ele><time>2026-04-04T09:09:14.276Z</time></trkpt><trkpt lat="43.6973041" lon="11.7990943"><ele>324.0</ele><time>2026-04-04T09:09:15.278Z</time></trkpt><trkpt lat="43.6971863" lon="11.7991813"><ele>324.0</ele><time>2026-04-04T09:09:16.282Z</time></trkpt><trkpt lat="43.697075" lon="11.7992679"><ele>324.0</ele><time>2026-04-04T09:09:17.283Z</time></trkpt><trkpt lat="43.696967" lon="11.7993604"><ele>324.0</ele><time>2026-04-04T09:09:18.277Z</time></trkpt><trkpt lat="43.6968588" lon="11.7994459"><ele>323.79999999999995</ele><time>2026-04-04T09:09:19.289Z</time></trkpt><trkpt lat="43.696753" lon="11.7995212"><ele>323.59999999999997</ele><time>2026-04-04T09:09:20.279Z</time></trkpt><trkpt lat="43.6966572" lon="11.799588"><ele>323.4</ele><time>2026-04-04T09:09:21.281Z</time></trkpt><trkpt lat="43.6965829" lon="11.799632"><ele>323.2</ele><time>2026-04-04T09:09:22.276Z</time></trkpt><trkpt lat="43.6964748" lon="11.7996857"><ele>323.0</ele><time>2026-04-04T09:09:24.277Z</time></trkpt><trkpt lat="43.6964121" lon="11.7996945"><ele>323.0</ele><time>2026-04-04T09:09:25.278Z</time></trkpt><trkpt lat="43.696338" lon="11.7996927"><ele>323.0</ele><time>2026-04-04T09:09:26.276Z</time></trkpt><trkpt lat="43.6962494" lon="11.7996846"><ele>323.0</ele><time>2026-04-04T09:09:27.283Z</time></trkpt><trkpt lat="43.696158" lon="11.7996843"><ele>323.0</ele><time>2026-04-04T09:09:28.276Z</time></trkpt><trkpt lat="43.6960709" lon="11.7996996"><ele>323.0</ele><time>2026-04-04T09:09:29.279Z</time></trkpt><trkpt lat="43.6960008" lon="11.7997426"><ele>323.0</ele><time>2026-04-04T09:09:30.276Z</time></trkpt><trkpt lat="43.6959459" lon="11.7997983"><ele>323.0</ele><time>2026-04-04T09:09:31.275Z</time></trkpt><trkpt lat="43.695907" lon="11.7998672"><ele>323.0</ele><time>2026-04-04T09:09:32.275Z</time></trkpt><trkpt lat="43.6958858" lon="11.8000287"><ele>323.0</ele><time>2026-04-04T09:09:34.279Z</time></trkpt><trkpt lat="43.6959164" lon="11.8001994"><ele>323.0</ele><time>2026-04-04T09:09:36.278Z</time></trkpt><trkpt lat="43.6959592" lon="11.8002849"><ele>323.0</ele><time>2026-04-04T09:09:37.28Z</time></trkpt><trkpt lat="43.6960193" lon="11.800367"><ele>323.2</ele><time>2026-04-04T09:09:38.279Z</time></trkpt><trkpt lat="43.6960911" lon="11.8004387"><ele>323.4</ele><time>2026-04-04T09:09:39.28Z</time></trkpt><trkpt lat="43.6961719" lon="11.8004962"><ele>323.59999999999997</ele><time>2026-04-04T09:09:40.281Z</time></trkpt><trkpt lat="43.696267" lon="11.8005288"><ele>323.79999999999995</ele><time>2026-04-04T09:09:41.274Z</time></trkpt><trkpt lat="43.6963646" lon="11.8005413"><ele>324.0</ele><time>2026-04-04T09:09:42.278Z</time></trkpt><trkpt lat="43.6964706" lon="11.8005006"><ele>324.0</ele><time>2026-04-04T09:09:43.278Z</time></trkpt><trkpt lat="43.6965825" lon="11.8004364"><ele>324.0</ele><time>2026-04-04T09:09:44.276Z</time></trkpt><trkpt lat="43.6967036" lon="11.8003761"><ele>324.0</ele><time>2026-04-04T09:09:45.275Z</time></trkpt><trkpt lat="43.6968274" lon="11.8003413"><ele>324.0</ele><time>2026-04-04T09:09:46.278Z</time></trkpt><trkpt lat="43.6969662" lon="11.8003332"><ele>325.0</ele><time>2026-04-04T09:09:47.28Z</time></trkpt><trkpt lat="43.6971176" lon="11.8003572"><ele>326.0</ele><time>2026-04-04T09:09:48.273Z</time></trkpt><trkpt lat="43.6972829" lon="11.8004122"><ele>327.0</ele><time>2026-04-04T09:09:49.275Z</time></trkpt><trkpt lat="43.6974438" lon="11.8004945"><ele>327.0</ele><time>2026-04-04T09:09:50.279Z</time></trkpt><trkpt lat="43.6975949" lon="11.8006101"><ele>327.0</ele><time>2026-04-04T09:09:51.279Z</time></trkpt><trkpt lat="43.6977322" lon="11.8007493"><ele>327.0</ele><time>2026-04-04T09:09:52.276Z</time></trkpt><trkpt lat="43.6978491" lon="11.8009039"><ele>328.3333333333333</ele><time>2026-04-04T09:09:53.276Z</time></trkpt><trkpt lat="43.6979478" lon="11.8010883"><ele>329.66666666666663</ele><time>2026-04-04T09:09:54.274Z</time></trkpt><trkpt lat="43.6980346" lon="11.8012922"><ele>331.0</ele><time>2026-04-04T09:09:55.277Z</time></trkpt><trkpt lat="43.6981147" lon="11.8015041"><ele>331.0</ele><time>2026-04-04T09:09:56.276Z</time></trkpt><trkpt lat="43.6981915" lon="11.8016946"><ele>331.0</ele><time>2026-04-04T09:09:57.278Z</time></trkpt><trkpt lat="43.69828" lon="11.8018554"><ele>331.0</ele><time>2026-04-04T09:09:58.272Z</time></trkpt><trkpt lat="43.6983724" lon="11.8020024"><ele>331.0</ele><time>2026-04-04T09:09:59.276Z</time></trkpt><trkpt lat="43.6984661" lon="11.8021236"><ele>331.5</ele><time>2026-04-04T09:10:00.277Z</time></trkpt><trkpt lat="43.6985715" lon="11.8022353"><ele>332.0</ele><time>2026-04-04T09:10:01.275Z</time></trkpt><trkpt lat="43.6986888" lon="11.8023464"><ele>332.5</ele><time>2026-04-04T09:10:02.275Z</time></trkpt><trkpt lat="43.6988076" lon="11.8024435"><ele>333.0</ele><time>2026-04-04T09:10:03.274Z</time></trkpt><trkpt lat="43.6989349" lon="11.802524"><ele>333.0</ele><time>2026-04-04T09:10:04.272Z</time></trkpt><trkpt lat="43.6990693" lon="11.8025784"><ele>333.0</ele><time>2026-04-04T09:10:05.27Z</time></trkpt><trkpt lat="43.6992056" lon="11.8026305"><ele>333.0</ele><time>2026-04-04T09:10:06.28Z</time></trkpt><trkpt lat="43.699327" lon="11.8026744"><ele>333.0</ele><time>2026-04-04T09:10:07.278Z</time></trkpt><trkpt lat="43.6994392" lon="11.8027262"><ele>333.0</ele><time>2026-04-04T09:10:08.277Z</time></trkpt><trkpt lat="43.6995258" lon="11.8027872"><ele>333.0</ele><time>2026-04-04T09:10:09.275Z</time></trkpt><trkpt lat="43.6996079" lon="11.8028511"><ele>333.0</ele><time>2026-04-04T09:10:10.275Z</time></trkpt><trkpt lat="43.699678" lon="11.8029272"><ele>333.0</ele><time>2026-04-04T09:10:11.273Z</time></trkpt><trkpt lat="43.6997222" lon="11.8030347"><ele>333.0</ele><time>2026-04-04T09:10:12.278Z</time></trkpt><trkpt lat="43.6997563" lon="11.8031752"><ele>333.0</ele><time>2026-04-04T09:10:13.273Z</time></trkpt><trkpt lat="43.6997867" lon="11.8033511"><ele>333.0</ele><time>2026-04-04T09:10:14.276Z</time></trkpt><trkpt lat="43.6998043" lon="11.8035315"><ele>333.0</ele><time>2026-04-04T09:10:15.277Z</time></trkpt><trkpt lat="43.6997856" lon="11.8037454"><ele>333.0</ele><time>2026-04-04T09:10:16.282Z</time></trkpt><trkpt lat="43.6997682" lon="11.8040044"><ele>334.0</ele><time>2026-04-04T09:10:17.276Z</time></trkpt><trkpt lat="43.6997787" lon="11.8042885"><ele>335.0</ele><time>2026-04-04T09:10:18.274Z</time></trkpt><trkpt lat="43.6998384" lon="11.8046197"><ele>335.6666666666667</ele><time>2026-04-04T09:10:19.27Z</time></trkpt><trkpt lat="43.6998886" lon="11.8048984"><ele>336.3333333333333</ele><time>2026-04-04T09:10:20.275Z</time></trkpt><trkpt lat="43.6999314" lon="11.8051558"><ele>337.0</ele><time>2026-04-04T09:10:21.283Z</time></trkpt><trkpt lat="43.6999843" lon="11.8054116"><ele>335.66666666666663</ele><time>2026-04-04T09:10:22.273Z</time></trkpt><trkpt lat="43.7000447" lon="11.8056665"><ele>334.3333333333333</ele><time>2026-04-04T09:10:23.275Z</time></trkpt><trkpt lat="43.7001079" lon="11.8059168"><ele>333.0</ele><time>2026-04-04T09:10:24.269Z</time></trkpt><trkpt lat="43.7001787" lon="11.8061456"><ele>333.6666666666667</ele><time>2026-04-04T09:10:25.273Z</time></trkpt><trkpt lat="43.7002535" lon="11.8063633"><ele>334.33333333333337</ele><time>2026-04-04T09:10:26.269Z</time></trkpt><trkpt lat="43.7003242" lon="11.8065707"><ele>335.0</ele><time>2026-04-04T09:10:27.273Z</time></trkpt><trkpt lat="43.7004043" lon="11.8067694"><ele>334.25</ele><time>2026-04-04T09:10:28.275Z</time></trkpt><trkpt lat="43.700482" lon="11.8069557"><ele>333.5</ele><time>2026-04-04T09:10:29.275Z</time></trkpt><trkpt lat="43.70055" lon="11.8071416"><ele>332.75</ele><time>2026-04-04T09:10:30.276Z</time></trkpt><trkpt lat="43.7006182" lon="11.8073145"><ele>332.0</ele><time>2026-04-04T09:10:31.275Z</time></trkpt><trkpt lat="43.7006768" lon="11.8074837"><ele>332.0</ele><time>2026-04-04T09:10:32.273Z</time></trkpt><trkpt lat="43.7007401" lon="11.8076486"><ele>332.0</ele><time>2026-04-04T09:10:33.274Z</time></trkpt><trkpt lat="43.7007991" lon="11.8078184"><ele>332.0</ele><time>2026-04-04T09:10:34.277Z</time></trkpt><trkpt lat="43.7008538" lon="11.8079858"><ele>332.0</ele><time>2026-04-04T09:10:35.279Z</time></trkpt><trkpt lat="43.7009055" lon="11.8081405"><ele>332.33333333333337</ele><time>2026-04-04T09:10:36.277Z</time></trkpt><trkpt lat="43.700948" lon="11.8082663"><ele>332.6666666666667</ele><time>2026-04-04T09:10:37.276Z</time></trkpt><trkpt lat="43.7009812" lon="11.808379"><ele>333.0</ele><time>2026-04-04T09:10:38.274Z</time></trkpt><trkpt lat="43.701006" lon="11.8084776"><ele>333.3333333333333</ele><time>2026-04-04T09:10:39.276Z</time></trkpt><trkpt lat="43.7010248" lon="11.8085706"><ele>333.66666666666663</ele><time>2026-04-04T09:10:40.273Z</time></trkpt><trkpt lat="43.7010386" lon="11.8086746"><ele>334.0</ele><time>2026-04-04T09:10:41.272Z</time></trkpt><trkpt lat="43.7010517" lon="11.8087894"><ele>334.0</ele><time>2026-04-04T09:10:42.275Z</time></trkpt><trkpt lat="43.7010513" lon="11.8089196"><ele>334.0</ele><time>2026-04-04T09:10:43.27Z</time></trkpt><trkpt lat="43.7010105" lon="11.8090594"><ele>334.0</ele><time>2026-04-04T09:10:44.277Z</time></trkpt><trkpt lat="43.7009459" lon="11.809207"><ele>334.0</ele><time>2026-04-04T09:10:45.272Z</time></trkpt><trkpt lat="43.7008795" lon="11.8093568"><ele>334.6</ele><time>2026-04-04T09:10:46.276Z</time></trkpt><trkpt lat="43.7008133" lon="11.8094995"><ele>335.2</ele><time>2026-04-04T09:10:47.273Z</time></trkpt><trkpt lat="43.700753" lon="11.809633"><ele>335.8</ele><time>2026-04-04T09:10:48.275Z</time></trkpt><trkpt lat="43.7006978" lon="11.8097539"><ele>336.40000000000003</ele><time>2026-04-04T09:10:49.273Z</time></trkpt><trkpt lat="43.7006425" lon="11.8098683"><ele>337.0</ele><time>2026-04-04T09:10:50.272Z</time></trkpt><trkpt lat="43.7005882" lon="11.8099771"><ele>337.0</ele><time>2026-04-04T09:10:51.29Z</time></trkpt><trkpt lat="43.7005379" lon="11.8100845"><ele>337.0</ele><time>2026-04-04T09:10:52.282Z</time></trkpt><trkpt lat="43.7004844" lon="11.8101999"><ele>337.0</ele><time>2026-04-04T09:10:53.273Z</time></trkpt><trkpt lat="43.7004292" lon="11.8103218"><ele>337.0</ele><time>2026-04-04T09:10:54.276Z</time></trkpt><trkpt lat="43.7003645" lon="11.8104432"><ele>337.0</ele><time>2026-04-04T09:10:55.274Z</time></trkpt><trkpt lat="43.700292" lon="11.8105549"><ele>337.25</ele><time>2026-04-04T09:10:56.273Z</time></trkpt><trkpt lat="43.7002087" lon="11.8106636"><ele>337.5</ele><time>2026-04-04T09:10:57.275Z</time></trkpt><trkpt lat="43.7001137" lon="11.8107655"><ele>337.75</ele><time>2026-04-04T09:10:58.269Z</time></trkpt><trkpt lat="43.7000127" lon="11.8108588"><ele>338.0</ele><time>2026-04-04T09:10:59.268Z</time></trkpt><trkpt lat="43.6999113" lon="11.8109314"><ele>338.0</ele><time>2026-04-04T09:11:00.27Z</time></trkpt><trkpt lat="43.6998112" lon="11.8109691"><ele>338.0</ele><time>2026-04-04T09:11:01.27Z</time></trkpt><trkpt lat="43.6997047" lon="11.8109727"><ele>338.0</ele><time>2026-04-04T09:11:02.27Z</time></trkpt><trkpt lat="43.6996055" lon="11.8109539"><ele>338.0</ele><time>2026-04-04T09:11:03.269Z</time></trkpt><trkpt lat="43.6995107" lon="11.8109216"><ele>338.0</ele><time>2026-04-04T09:11:04.271Z</time></trkpt><trkpt lat="43.6994182" lon="11.8108965"><ele>337.6666666666667</ele><time>2026-04-04T09:11:05.27Z</time></trkpt><trkpt lat="43.6993282" lon="11.8108831"><ele>337.33333333333337</ele><time>2026-04-04T09:11:06.269Z</time></trkpt><trkpt lat="43.6992365" lon="11.8108772"><ele>337.0</ele><time>2026-04-04T09:11:07.27Z</time></trkpt><trkpt lat="43.699145" lon="11.8108714"><ele>336.6666666666667</ele><time>2026-04-04T09:11:08.27Z</time></trkpt><trkpt lat="43.6990542" lon="11.8108628"><ele>336.3333333333333</ele><time>2026-04-04T09:11:09.27Z</time></trkpt><trkpt lat="43.698971" lon="11.8108537"><ele>336.0</ele><time>2026-04-04T09:11:10.271Z</time></trkpt><trkpt lat="43.6988925" lon="11.8108349"><ele>336.0</ele><time>2026-04-04T09:11:11.268Z</time></trkpt><trkpt lat="43.6988194" lon="11.8108193"><ele>336.0</ele><time>2026-04-04T09:11:12.268Z</time></trkpt><trkpt lat="43.6987427" lon="11.8108043"><ele>336.0</ele><time>2026-04-04T09:11:13.284Z</time></trkpt><trkpt lat="43.698656" lon="11.8107969"><ele>336.0</ele><time>2026-04-04T09:11:14.273Z</time></trkpt><trkpt lat="43.6985642" lon="11.810792"><ele>336.0</ele><time>2026-04-04T09:11:15.269Z</time></trkpt><trkpt lat="43.6984644" lon="11.8107867"><ele>336.0</ele><time>2026-04-04T09:11:16.273Z</time></trkpt><trkpt lat="43.6983554" lon="11.8107809"><ele>336.25</ele><time>2026-04-04T09:11:17.273Z</time></trkpt><trkpt lat="43.6982416" lon="11.8107749"><ele>336.5</ele><time>2026-04-04T09:11:18.274Z</time></trkpt><trkpt lat="43.6981237" lon="11.8107708"><ele>336.75</ele><time>2026-04-04T09:11:19.279Z</time></trkpt><trkpt lat="43.6980058" lon="11.8107714"><ele>337.0</ele><time>2026-04-04T09:11:20.269Z</time></trkpt><trkpt lat="43.6978906" lon="11.8107647"><ele>337.0</ele><time>2026-04-04T09:11:21.269Z</time></trkpt><trkpt lat="43.6977783" lon="11.8107537"><ele>337.0</ele><time>2026-04-04T09:11:22.271Z</time></trkpt><trkpt lat="43.6976673" lon="11.8107497"><ele>337.0</ele><time>2026-04-04T09:11:23.289Z</time></trkpt><trkpt lat="43.6975514" lon="11.810744"><ele>337.0</ele><time>2026-04-04T09:11:24.271Z</time></trkpt><trkpt lat="43.6974428" lon="11.8107393"><ele>337.0</ele><time>2026-04-04T09:11:25.27Z</time></trkpt><trkpt lat="43.6973428" lon="11.8107305"><ele>337.6</ele><time>2026-04-04T09:11:26.271Z</time></trkpt><trkpt lat="43.6972586" lon="11.8107173"><ele>338.20000000000005</ele><time>2026-04-04T09:11:27.27Z</time></trkpt><trkpt lat="43.697188" lon="11.8107103"><ele>338.8</ele><time>2026-04-04T09:11:28.259Z</time></trkpt><trkpt lat="43.6971118" lon="11.8107107"><ele>339.4</ele><time>2026-04-04T09:11:29.257Z</time></trkpt><trkpt lat="43.6969913" lon="11.8107067"><ele>340.0</ele><time>2026-04-04T09:11:31.257Z</time></trkpt><trkpt lat="43.6968724" lon="11.8106978"><ele>340.0</ele><time>2026-04-04T09:11:33.258Z</time></trkpt><trkpt lat="43.6968054" lon="11.8106943"><ele>340.0</ele><time>2026-04-04T09:11:34.258Z</time></trkpt><trkpt lat="43.6967373" lon="11.8106926"><ele>340.0</ele><time>2026-04-04T09:11:35.258Z</time></trkpt><trkpt lat="43.6966672" lon="11.8106821"><ele>340.0</ele><time>2026-04-04T09:11:36.267Z</time></trkpt><trkpt lat="43.6965975" lon="11.8106828"><ele>340.0</ele><time>2026-04-04T09:11:37.258Z</time></trkpt><trkpt lat="43.6965281" lon="11.8106749"><ele>340.0</ele><time>2026-04-04T09:11:38.26Z</time></trkpt><trkpt lat="43.6964562" lon="11.8106711"><ele>340.0</ele><time>2026-04-04T09:11:39.26Z</time></trkpt><trkpt lat="43.6963838" lon="11.8106674"><ele>340.0</ele><time>2026-04-04T09:11:40.265Z</time></trkpt><trkpt lat="43.6963124" lon="11.8106662"><ele>340.0</ele><time>2026-04-04T09:11:41.265Z</time></trkpt><trkpt lat="43.6962374" lon="11.8106613"><ele>340.0</ele><time>2026-04-04T09:11:42.263Z</time></trkpt><trkpt lat="43.696166" lon="11.810657"><ele>340.0</ele><time>2026-04-04T09:11:43.265Z</time></trkpt><trkpt lat="43.6960927" lon="11.8106559"><ele>340.0</ele><time>2026-04-04T09:11:44.269Z</time></trkpt><trkpt lat="43.6960248" lon="11.8106617"><ele>340.0</ele><time>2026-04-04T09:11:45.263Z</time></trkpt><trkpt lat="43.695955" lon="11.8106603"><ele>340.0</ele><time>2026-04-04T09:11:46.269Z</time></trkpt><trkpt lat="43.695881" lon="11.8106565"><ele>339.5</ele><time>2026-04-04T09:11:47.262Z</time></trkpt><trkpt lat="43.695809" lon="11.8106567"><ele>339.0</ele><time>2026-04-04T09:11:48.264Z</time></trkpt><trkpt lat="43.695739" lon="11.810658"><ele>338.5</ele><time>2026-04-04T09:11:49.264Z</time></trkpt><trkpt lat="43.6956671" lon="11.8106667"><ele>338.0</ele><time>2026-04-04T09:11:50.266Z</time></trkpt><trkpt lat="43.6956029" lon="11.8106741"><ele>337.5</ele><time>2026-04-04T09:11:51.267Z</time></trkpt><trkpt lat="43.6955054" lon="11.8106742"><ele>337.0</ele><time>2026-04-04T09:11:53.265Z</time></trkpt><trkpt lat="43.695419" lon="11.8106749"><ele>337.0</ele><time>2026-04-04T09:12:00.272Z</time></trkpt><trkpt lat="43.6952807" lon="11.8106891"><ele>337.0</ele><time>2026-04-04T09:12:02.274Z</time></trkpt><trkpt lat="43.6951919" lon="11.8106967"><ele>337.0</ele><time>2026-04-04T09:12:03.274Z</time></trkpt><trkpt lat="43.6950977" lon="11.8107042"><ele>337.0</ele><time>2026-04-04T09:12:04.277Z</time></trkpt><trkpt lat="43.6950051" lon="11.810714"><ele>337.0</ele><time>2026-04-04T09:12:05.28Z</time></trkpt><trkpt lat="43.6949123" lon="11.8107242"><ele>336.8</ele><time>2026-04-04T09:12:06.276Z</time></trkpt><trkpt lat="43.6948157" lon="11.8107296"><ele>336.6</ele><time>2026-04-04T09:12:07.27Z</time></trkpt><trkpt lat="43.6947145" lon="11.8107336"><ele>336.40000000000003</ele><time>2026-04-04T09:12:08.278Z</time></trkpt><trkpt lat="43.6946172" lon="11.8107353"><ele>336.20000000000005</ele><time>2026-04-04T09:12:09.278Z</time></trkpt><trkpt lat="43.6945201" lon="11.8107403"><ele>336.0</ele><time>2026-04-04T09:12:10.282Z</time></trkpt><trkpt lat="43.6944303" lon="11.8107449"><ele>336.20000000000005</ele><time>2026-04-04T09:12:11.278Z</time></trkpt><trkpt lat="43.6943464" lon="11.8107486"><ele>336.40000000000003</ele><time>2026-04-04T09:12:12.278Z</time></trkpt><trkpt lat="43.6942732" lon="11.8107533"><ele>336.6</ele><time>2026-04-04T09:12:13.281Z</time></trkpt><trkpt lat="43.6942099" lon="11.8107534"><ele>336.8</ele><time>2026-04-04T09:12:14.275Z</time></trkpt><trkpt lat="43.6940974" lon="11.8107736"><ele>337.0</ele><time>2026-04-04T09:12:16.278Z</time></trkpt><trkpt lat="43.6940155" lon="11.8108902"><ele>337.0</ele><time>2026-04-04T09:12:18.27Z</time></trkpt><trkpt lat="43.6939729" lon="11.8109803"><ele>337.0</ele><time>2026-04-04T09:12:19.274Z</time></trkpt><trkpt lat="43.693911" lon="11.8110631"><ele>337.0</ele><time>2026-04-04T09:12:20.268Z</time></trkpt><trkpt lat="43.6938346" lon="11.8111237"><ele>337.0</ele><time>2026-04-04T09:12:21.277Z</time></trkpt><trkpt lat="43.6937265" lon="11.8111464"><ele>337.0</ele><time>2026-04-04T09:12:22.275Z</time></trkpt><trkpt lat="43.6936154" lon="11.8111736"><ele>337.8</ele><time>2026-04-04T09:12:23.269Z</time></trkpt><trkpt lat="43.6935037" lon="11.8111876"><ele>338.6</ele><time>2026-04-04T09:12:24.282Z</time></trkpt><trkpt lat="43.6933992" lon="11.8112123"><ele>339.40000000000003</ele><time>2026-04-04T09:12:25.275Z</time></trkpt><trkpt lat="43.6933019" lon="11.8112412"><ele>340.20000000000005</ele><time>2026-04-04T09:12:26.275Z</time></trkpt><trkpt lat="43.6932088" lon="11.8112918"><ele>341.0</ele><time>2026-04-04T09:12:27.277Z</time></trkpt><trkpt lat="43.6931267" lon="11.811376"><ele>341.0</ele><time>2026-04-04T09:12:28.275Z</time></trkpt><trkpt lat="43.6930609" lon="11.8114911"><ele>341.0</ele><time>2026-04-04T09:12:29.271Z</time></trkpt><trkpt lat="43.693012" lon="11.811621"><ele>341.0</ele><time>2026-04-04T09:12:30.275Z</time></trkpt><trkpt lat="43.6929704" lon="11.8117553"><ele>341.0</ele><time>2026-04-04T09:12:31.271Z</time></trkpt><trkpt lat="43.6929387" lon="11.8118782"><ele>341.0</ele><time>2026-04-04T09:12:32.274Z</time></trkpt><trkpt lat="43.6929147" lon="11.8119959"><ele>342.33333333333337</ele><time>2026-04-04T09:12:33.269Z</time></trkpt><trkpt lat="43.692894" lon="11.8121195"><ele>343.6666666666667</ele><time>2026-04-04T09:12:34.267Z</time></trkpt><trkpt lat="43.6928705" lon="11.8122591"><ele>345.0</ele><time>2026-04-04T09:12:35.269Z</time></trkpt><trkpt lat="43.6928497" lon="11.8123791"><ele>346.3333333333333</ele><time>2026-04-04T09:12:36.268Z</time></trkpt><trkpt lat="43.6928316" lon="11.8124887"><ele>347.66666666666663</ele><time>2026-04-04T09:12:37.27Z</time></trkpt><trkpt lat="43.6928157" lon="11.8125868"><ele>349.0</ele><time>2026-04-04T09:12:38.268Z</time></trkpt><trkpt lat="43.6927972" lon="11.8126811"><ele>347.79999999999995</ele><time>2026-04-04T09:12:39.266Z</time></trkpt><trkpt lat="43.6927755" lon="11.8127876"><ele>346.59999999999997</ele><time>2026-04-04T09:12:40.269Z</time></trkpt><trkpt lat="43.6927448" lon="11.8129174"><ele>345.4</ele><time>2026-04-04T09:12:41.265Z</time></trkpt><trkpt lat="43.6927102" lon="11.8130746"><ele>344.2</ele><time>2026-04-04T09:12:42.282Z</time></trkpt><trkpt lat="43.6926729" lon="11.8132436"><ele>343.0</ele><time>2026-04-04T09:12:43.267Z</time></trkpt><trkpt lat="43.6926388" lon="11.8134127"><ele>344.59999999999997</ele><time>2026-04-04T09:12:44.269Z</time></trkpt><trkpt lat="43.6926079" lon="11.8135723"><ele>346.2</ele><time>2026-04-04T09:12:45.268Z</time></trkpt><trkpt lat="43.6925849" lon="11.8137099"><ele>347.8</ele><time>2026-04-04T09:12:46.272Z</time></trkpt><trkpt lat="43.6925783" lon="11.8138255"><ele>349.4</ele><time>2026-04-04T09:12:47.269Z</time></trkpt><trkpt lat="43.6925895" lon="11.8139261"><ele>351.0</ele><time>2026-04-04T09:12:48.272Z</time></trkpt><trkpt lat="43.6926338" lon="11.8140032"><ele>351.0</ele><time>2026-04-04T09:12:49.27Z</time></trkpt><trkpt lat="43.6927021" lon="11.8140314"><ele>351.0</ele><time>2026-04-04T09:12:50.27Z</time></trkpt><trkpt lat="43.6927855" lon="11.8140045"><ele>351.0</ele><time>2026-04-04T09:12:51.267Z</time></trkpt><trkpt lat="43.6928642" lon="11.8139128"><ele>351.0</ele><time>2026-04-04T09:12:52.27Z</time></trkpt><trkpt lat="43.6929317" lon="11.8137643"><ele>351.0</ele><time>2026-04-04T09:12:53.267Z</time></trkpt><trkpt lat="43.693012" lon="11.8135986"><ele>352.5</ele><time>2026-04-04T09:12:54.258Z</time></trkpt><trkpt lat="43.693095" lon="11.8134379"><ele>354.0</ele><time>2026-04-04T09:12:55.269Z</time></trkpt><trkpt lat="43.6931904" lon="11.8133079"><ele>355.5</ele><time>2026-04-04T09:12:56.264Z</time></trkpt><trkpt lat="43.6932949" lon="11.8132286"><ele>357.0</ele><time>2026-04-04T09:12:57.271Z</time></trkpt><trkpt lat="43.6934205" lon="11.8131901"><ele>357.0</ele><time>2026-04-04T09:12:58.268Z</time></trkpt><trkpt lat="43.6935595" lon="11.8131742"><ele>357.0</ele><time>2026-04-04T09:12:59.268Z</time></trkpt><trkpt lat="43.6937005" lon="11.813167"><ele>357.0</ele><time>2026-04-04T09:13:00.27Z</time></trkpt><trkpt lat="43.693834" lon="11.8131611"><ele>357.0</ele><time>2026-04-04T09:13:01.27Z</time></trkpt><trkpt lat="43.6939792" lon="11.8131643"><ele>359.25</ele><time>2026-04-04T09:13:02.271Z</time></trkpt><trkpt lat="43.6941261" lon="11.8131728"><ele>361.5</ele><time>2026-04-04T09:13:03.274Z</time></trkpt><trkpt lat="43.6942722" lon="11.8131927"><ele>363.75</ele><time>2026-04-04T09:13:04.272Z</time></trkpt><trkpt lat="43.6944029" lon="11.8132163"><ele>366.0</ele><time>2026-04-04T09:13:05.272Z</time></trkpt><trkpt lat="43.6945269" lon="11.8132474"><ele>366.6</ele><time>2026-04-04T09:13:06.271Z</time></trkpt><trkpt lat="43.6946392" lon="11.8132774"><ele>367.20000000000005</ele><time>2026-04-04T09:13:07.279Z</time></trkpt><trkpt lat="43.6947423" lon="11.81331"><ele>367.79999999999995</ele><time>2026-04-04T09:13:08.273Z</time></trkpt><trkpt lat="43.6948362" lon="11.8133637"><ele>368.4</ele><time>2026-04-04T09:13:09.276Z</time></trkpt><trkpt lat="43.694922" lon="11.8134506"><ele>369.0</ele><time>2026-04-04T09:13:10.279Z</time></trkpt><trkpt lat="43.6950006" lon="11.8135616"><ele>369.75</ele><time>2026-04-04T09:13:11.273Z</time></trkpt><trkpt lat="43.6950752" lon="11.8136993"><ele>370.5</ele><time>2026-04-04T09:13:12.275Z</time></trkpt><trkpt lat="43.6951597" lon="11.8138436"><ele>371.25</ele><time>2026-04-04T09:13:13.274Z</time></trkpt><trkpt lat="43.6952518" lon="11.8139886"><ele>372.0</ele><time>2026-04-04T09:13:14.282Z</time></trkpt><trkpt lat="43.6953592" lon="11.814124"><ele>372.0</ele><time>2026-04-04T09:13:15.278Z</time></trkpt><trkpt lat="43.6954735" lon="11.8142512"><ele>372.0</ele><time>2026-04-04T09:13:16.271Z</time></trkpt><trkpt lat="43.6955804" lon="11.8143607"><ele>372.0</ele><time>2026-04-04T09:13:17.282Z</time></trkpt><trkpt lat="43.6956877" lon="11.814449"><ele>372.0</ele><time>2026-04-04T09:13:18.271Z</time></trkpt><trkpt lat="43.6957858" lon="11.8145423"><ele>374.25</ele><time>2026-04-04T09:13:19.285Z</time></trkpt><trkpt lat="43.6958971" lon="11.8146184"><ele>376.5</ele><time>2026-04-04T09:13:20.292Z</time></trkpt><trkpt lat="43.6960148" lon="11.8146892"><ele>378.75</ele><time>2026-04-04T09:13:21.285Z</time></trkpt><trkpt lat="43.6961441" lon="11.8147539"><ele>381.0</ele><time>2026-04-04T09:13:22.278Z</time></trkpt><trkpt lat="43.6962805" lon="11.8148024"><ele>381.20000000000005</ele><time>2026-04-04T09:13:23.274Z</time></trkpt><trkpt lat="43.6964037" lon="11.8148289"><ele>381.40000000000003</ele><time>2026-04-04T09:13:24.27Z</time></trkpt><trkpt lat="43.6965069" lon="11.8148538"><ele>381.6</ele><time>2026-04-04T09:13:25.279Z</time></trkpt><trkpt lat="43.6966107" lon="11.8148612"><ele>381.8</ele><time>2026-04-04T09:13:26.273Z</time></trkpt><trkpt lat="43.6967148" lon="11.8148522"><ele>382.0</ele><time>2026-04-04T09:13:27.275Z</time></trkpt><trkpt lat="43.6968085" lon="11.8147941"><ele>382.0</ele><time>2026-04-04T09:13:28.277Z</time></trkpt><trkpt lat="43.6968994" lon="11.8146901"><ele>382.0</ele><time>2026-04-04T09:13:29.262Z</time></trkpt><trkpt lat="43.6969826" lon="11.8145684"><ele>382.0</ele><time>2026-04-04T09:13:30.261Z</time></trkpt><trkpt lat="43.6970445" lon="11.8144457"><ele>382.0</ele><time>2026-04-04T09:13:31.265Z</time></trkpt><trkpt lat="43.6971043" lon="11.8143376"><ele>382.0</ele><time>2026-04-04T09:13:32.271Z</time></trkpt><trkpt lat="43.6971606" lon="11.8142542"><ele>381.20000000000005</ele><time>2026-04-04T09:13:33.274Z</time></trkpt><trkpt lat="43.6972231" lon="11.8142049"><ele>380.4</ele><time>2026-04-04T09:13:34.272Z</time></trkpt><trkpt lat="43.6972948" lon="11.8142359"><ele>379.6</ele><time>2026-04-04T09:13:35.271Z</time></trkpt><trkpt lat="43.6973595" lon="11.8143288"><ele>378.79999999999995</ele><time>2026-04-04T09:13:36.265Z</time></trkpt><trkpt lat="43.6973996" lon="11.8144539"><ele>378.0</ele><time>2026-04-04T09:13:37.277Z</time></trkpt><trkpt lat="43.6973964" lon="11.8146133"><ele>378.0</ele><time>2026-04-04T09:13:38.28Z</time></trkpt><trkpt lat="43.6973449" lon="11.814779"><ele>378.0</ele><time>2026-04-04T09:13:39.269Z</time></trkpt><trkpt lat="43.6972727" lon="11.8149713"><ele>378.0</ele><time>2026-04-04T09:13:40.263Z</time></trkpt><trkpt lat="43.6972033" lon="11.8151791"><ele>380.33333333333337</ele><time>2026-04-04T09:13:41.267Z</time></trkpt><trkpt lat="43.6971448" lon="11.8153885"><ele>382.6666666666667</ele><time>2026-04-04T09:13:42.262Z</time></trkpt><trkpt lat="43.6970956" lon="11.8155879"><ele>385.0</ele><time>2026-04-04T09:13:43.272Z</time></trkpt><trkpt lat="43.6970538" lon="11.8157747"><ele>385.0</ele><time>2026-04-04T09:13:44.27Z</time></trkpt><trkpt lat="43.6970169" lon="11.81595"><ele>385.0</ele><time>2026-04-04T09:13:45.266Z</time></trkpt><trkpt lat="43.6969779" lon="11.8160984"><ele>385.0</ele><time>2026-04-04T09:13:46.272Z</time></trkpt><trkpt lat="43.6969306" lon="11.8162281"><ele>385.0</ele><time>2026-04-04T09:13:47.281Z</time></trkpt><trkpt lat="43.6968777" lon="11.8163333"><ele>385.0</ele><time>2026-04-04T09:13:48.268Z</time></trkpt><trkpt lat="43.6968135" lon="11.8164014"><ele>387.2</ele><time>2026-04-04T09:13:49.276Z</time></trkpt><trkpt lat="43.6967444" lon="11.8164465"><ele>389.4</ele><time>2026-04-04T09:13:50.267Z</time></trkpt><trkpt lat="43.6966638" lon="11.8164582"><ele>391.6</ele><time>2026-04-04T09:13:51.27Z</time></trkpt><trkpt lat="43.6965692" lon="11.816447"><ele>393.8</ele><time>2026-04-04T09:13:52.265Z</time></trkpt><trkpt lat="43.6964555" lon="11.8163962"><ele>396.0</ele><time>2026-04-04T09:13:53.269Z</time></trkpt><trkpt lat="43.6963353" lon="11.8163453"><ele>396.0</ele><time>2026-04-04T09:13:54.264Z</time></trkpt><trkpt lat="43.696194" lon="11.8162946"><ele>396.0</ele><time>2026-04-04T09:13:55.266Z</time></trkpt><trkpt lat="43.6960445" lon="11.816239"><ele>396.0</ele><time>2026-04-04T09:13:56.261Z</time></trkpt><trkpt lat="43.6958687" lon="11.8161679"><ele>395.66666666666663</ele><time>2026-04-04T09:13:57.274Z</time></trkpt><trkpt lat="43.6956791" lon="11.8160905"><ele>395.3333333333333</ele><time>2026-04-04T09:13:58.271Z</time></trkpt><trkpt lat="43.69548" lon="11.8160166"><ele>395.0</ele><time>2026-04-04T09:13:59.275Z</time></trkpt><trkpt lat="43.695283" lon="11.8159525"><ele>397.3333333333333</ele><time>2026-04-04T09:14:00.276Z</time></trkpt><trkpt lat="43.695101" lon="11.8158932"><ele>399.66666666666663</ele><time>2026-04-04T09:14:01.272Z</time></trkpt><trkpt lat="43.69495" lon="11.8158509"><ele>402.0</ele><time>2026-04-04T09:14:02.27Z</time></trkpt><trkpt lat="43.6948064" lon="11.8158048"><ele>402.0</ele><time>2026-04-04T09:14:03.264Z</time></trkpt><trkpt lat="43.6946647" lon="11.8157544"><ele>402.0</ele><time>2026-04-04T09:14:04.27Z</time></trkpt><trkpt lat="43.6945238" lon="11.8157091"><ele>402.0</ele><time>2026-04-04T09:14:05.273Z</time></trkpt><trkpt lat="43.6943997" lon="11.8156758"><ele>402.0</ele><time>2026-04-04T09:14:06.275Z</time></trkpt><trkpt lat="43.6942959" lon="11.8156531"><ele>403.0</ele><time>2026-04-04T09:14:07.275Z</time></trkpt><trkpt lat="43.6942211" lon="11.815629"><ele>404.0</ele><time>2026-04-04T09:14:08.275Z</time></trkpt><trkpt lat="43.6941151" lon="11.815648"><ele>405.0</ele><time>2026-04-04T09:14:10.276Z</time></trkpt><trkpt lat="43.6940815" lon="11.8157895"><ele>406.0</ele><time>2026-04-04T09:14:12.277Z</time></trkpt><trkpt lat="43.6941386" lon="11.8159018"><ele>407.0</ele><time>2026-04-04T09:14:14.28Z</time></trkpt><trkpt lat="43.6942038" lon="11.815904"><ele>407.0</ele><time>2026-04-04T09:14:15.271Z</time></trkpt><trkpt lat="43.6943001" lon="11.8158813"><ele>407.0</ele><time>2026-04-04T09:14:16.273Z</time></trkpt><trkpt lat="43.6944089" lon="11.8158765"><ele>407.0</ele><time>2026-04-04T09:14:17.271Z</time></trkpt><trkpt lat="43.6945193" lon="11.8159041"><ele>407.0</ele><time>2026-04-04T09:14:18.265Z</time></trkpt><trkpt lat="43.69464" lon="11.8159348"><ele>407.0</ele><time>2026-04-04T09:14:19.268Z</time></trkpt><trkpt lat="43.6947559" lon="11.8159643"><ele>410.25</ele><time>2026-04-04T09:14:20.263Z</time></trkpt><trkpt lat="43.6948716" lon="11.8159937"><ele>413.5</ele><time>2026-04-04T09:14:21.266Z</time></trkpt><trkpt lat="43.6949886" lon="11.8160399"><ele>416.75</ele><time>2026-04-04T09:14:22.263Z</time></trkpt><trkpt lat="43.6951005" lon="11.8161044"><ele>420.0</ele><time>2026-04-04T09:14:23.266Z</time></trkpt><trkpt lat="43.6952051" lon="11.8162061"><ele>417.25</ele><time>2026-04-04T09:14:24.261Z</time></trkpt><trkpt lat="43.6953093" lon="11.8163262"><ele>414.5</ele><time>2026-04-04T09:14:25.268Z</time></trkpt><trkpt lat="43.6954136" lon="11.8164357"><ele>411.75</ele><time>2026-04-04T09:14:26.26Z</time></trkpt><trkpt lat="43.6955202" lon="11.8165336"><ele>409.0</ele><time>2026-04-04T09:14:27.263Z</time></trkpt><trkpt lat="43.6956355" lon="11.8166053"><ele>409.0</ele><time>2026-04-04T09:14:28.267Z</time></trkpt><trkpt lat="43.6957568" lon="11.8166569"><ele>409.0</ele><time>2026-04-04T09:14:29.269Z</time></trkpt><trkpt lat="43.6958762" lon="11.8166977"><ele>409.0</ele><time>2026-04-04T09:14:30.26Z</time></trkpt><trkpt lat="43.6959901" lon="11.8167225"><ele>409.0</ele><time>2026-04-04T09:14:31.264Z</time></trkpt><trkpt lat="43.6960845" lon="11.8167487"><ele>408.1666666666667</ele><time>2026-04-04T09:14:32.262Z</time></trkpt><trkpt lat="43.6961694" lon="11.8167744"><ele>407.33333333333337</ele><time>2026-04-04T09:14:33.27Z</time></trkpt><trkpt lat="43.6962404" lon="11.8168046"><ele>406.5</ele><time>2026-04-04T09:14:34.276Z</time></trkpt><trkpt lat="43.6963075" lon="11.8168682"><ele>405.66666666666663</ele><time>2026-04-04T09:14:35.282Z</time></trkpt><trkpt lat="43.696346" lon="11.8169624"><ele>404.8333333333333</ele><time>2026-04-04T09:14:36.279Z</time></trkpt><trkpt lat="43.6963772" lon="11.8170938"><ele>404.0</ele><time>2026-04-04T09:14:37.277Z</time></trkpt><trkpt lat="43.6963854" lon="11.8172771"><ele>404.0</ele><time>2026-04-04T09:14:38.284Z</time></trkpt><trkpt lat="43.6963882" lon="11.8174704"><ele>404.0</ele><time>2026-04-04T09:14:39.271Z</time></trkpt><trkpt lat="43.6964045" lon="11.817648"><ele>404.0</ele><time>2026-04-04T09:14:40.282Z</time></trkpt><trkpt lat="43.6964348" lon="11.8178104"><ele>404.0</ele><time>2026-04-04T09:14:41.281Z</time></trkpt><trkpt lat="43.6964785" lon="11.8179555"><ele>403.8333333333333</ele><time>2026-04-04T09:14:42.278Z</time></trkpt><trkpt lat="43.6965305" lon="11.8180776"><ele>403.66666666666663</ele><time>2026-04-04T09:14:43.278Z</time></trkpt><trkpt lat="43.6965818" lon="11.8181762"><ele>403.5</ele><time>2026-04-04T09:14:44.266Z</time></trkpt><trkpt lat="43.6966184" lon="11.8182667"><ele>403.33333333333337</ele><time>2026-04-04T09:14:45.268Z</time></trkpt><trkpt lat="43.6966439" lon="11.8183729"><ele>403.1666666666667</ele><time>2026-04-04T09:14:46.274Z</time></trkpt><trkpt lat="43.6966648" lon="11.8184945"><ele>403.0</ele><time>2026-04-04T09:14:47.269Z</time></trkpt><trkpt lat="43.6966943" lon="11.8186119"><ele>403.0</ele><time>2026-04-04T09:14:48.267Z</time></trkpt><trkpt lat="43.6967372" lon="11.8187206"><ele>403.0</ele><time>2026-04-04T09:14:49.266Z</time></trkpt><trkpt lat="43.6967963" lon="11.8188205"><ele>403.0</ele><time>2026-04-04T09:14:50.258Z</time></trkpt><trkpt lat="43.6968653" lon="11.8189047"><ele>403.0</ele><time>2026-04-04T09:14:51.268Z</time></trkpt><trkpt lat="43.6969531" lon="11.8189726"><ele>403.0</ele><time>2026-04-04T09:14:52.26Z</time></trkpt><trkpt lat="43.6970491" lon="11.8190381"><ele>404.0</ele><time>2026-04-04T09:14:53.26Z</time></trkpt><trkpt lat="43.6971709" lon="11.8190951"><ele>405.0</ele><time>2026-04-04T09:14:54.26Z</time></trkpt><trkpt lat="43.6973015" lon="11.8191403"><ele>406.0</ele><time>2026-04-04T09:14:55.258Z</time></trkpt><trkpt lat="43.6974274" lon="11.8191828"><ele>407.0</ele><time>2026-04-04T09:14:56.255Z</time></trkpt><trkpt lat="43.6975474" lon="11.8192293"><ele>407.0</ele><time>2026-04-04T09:14:57.257Z</time></trkpt><trkpt lat="43.6976638" lon="11.8192774"><ele>407.0</ele><time>2026-04-04T09:14:58.26Z</time></trkpt><trkpt lat="43.6977806" lon="11.8193249"><ele>407.0</ele><time>2026-04-04T09:14:59.276Z</time></trkpt><trkpt lat="43.697891" lon="11.819377"><ele>407.0</ele><time>2026-04-04T09:15:00.251Z</time></trkpt><trkpt lat="43.6979968" lon="11.8194295"><ele>405.75</ele><time>2026-04-04T09:15:01.256Z</time></trkpt><trkpt lat="43.6981042" lon="11.8194811"><ele>404.5</ele><time>2026-04-04T09:15:02.253Z</time></trkpt><trkpt lat="43.6982093" lon="11.8195356"><ele>403.25</ele><time>2026-04-04T09:15:03.257Z</time></trkpt><trkpt lat="43.6983177" lon="11.8195925"><ele>402.0</ele><time>2026-04-04T09:15:04.273Z</time></trkpt><trkpt lat="43.6984244" lon="11.8196506"><ele>402.0</ele><time>2026-04-04T09:15:05.266Z</time></trkpt><trkpt lat="43.6985256" lon="11.8197019"><ele>402.0</ele><time>2026-04-04T09:15:06.274Z</time></trkpt><trkpt lat="43.6986287" lon="11.8197517"><ele>402.0</ele><time>2026-04-04T09:15:07.272Z</time></trkpt><trkpt lat="43.6987307" lon="11.819802"><ele>402.0</ele><time>2026-04-04T09:15:08.284Z</time></trkpt><trkpt lat="43.6988341" lon="11.8198528"><ele>402.0</ele><time>2026-04-04T09:15:09.286Z</time></trkpt><trkpt lat="43.6989322" lon="11.8199033"><ele>402.20000000000005</ele><time>2026-04-04T09:15:10.289Z</time></trkpt><trkpt lat="43.6990248" lon="11.8199506"><ele>402.4</ele><time>2026-04-04T09:15:11.271Z</time></trkpt><trkpt lat="43.6991153" lon="11.8199936"><ele>402.6</ele><time>2026-04-04T09:15:12.275Z</time></trkpt><trkpt lat="43.6991985" lon="11.8200398"><ele>402.79999999999995</ele><time>2026-04-04T09:15:13.272Z</time></trkpt><trkpt lat="43.6992781" lon="11.8200809"><ele>403.0</ele><time>2026-04-04T09:15:14.27Z</time></trkpt><trkpt lat="43.6993535" lon="11.82012"><ele>403.6666666666667</ele><time>2026-04-04T09:15:15.27Z</time></trkpt><trkpt lat="43.69942" lon="11.820162"><ele>404.33333333333337</ele><time>2026-04-04T09:15:16.277Z</time></trkpt><trkpt lat="43.6994781" lon="11.8202034"><ele>405.0</ele><time>2026-04-04T09:15:17.281Z</time></trkpt><trkpt lat="43.6995882" lon="11.8202768"><ele>405.66666666666663</ele><time>2026-04-04T09:15:19.277Z</time></trkpt><trkpt lat="43.6996466" lon="11.820312"><ele>406.3333333333333</ele><time>2026-04-04T09:15:20.264Z</time></trkpt><trkpt lat="43.6997587" lon="11.8203629"><ele>407.0</ele><time>2026-04-04T09:15:22.264Z</time></trkpt><trkpt lat="43.6998248" lon="11.8203948"><ele>407.0</ele><time>2026-04-04T09:15:23.259Z</time></trkpt><trkpt lat="43.6999046" lon="11.8204391"><ele>407.0</ele><time>2026-04-04T09:15:24.26Z</time></trkpt><trkpt lat="43.7000018" lon="11.8204962"><ele>407.0</ele><time>2026-04-04T09:15:25.266Z</time></trkpt><trkpt lat="43.7001269" lon="11.8205657"><ele>407.0</ele><time>2026-04-04T09:15:26.266Z</time></trkpt><trkpt lat="43.7002712" lon="11.8206429"><ele>407.66666666666663</ele><time>2026-04-04T09:15:27.27Z</time></trkpt><trkpt lat="43.700435" lon="11.820731"><ele>408.33333333333337</ele><time>2026-04-04T09:15:28.265Z</time></trkpt><trkpt lat="43.7006191" lon="11.8208288"><ele>409.0</ele><time>2026-04-04T09:15:29.267Z</time></trkpt><trkpt lat="43.7008039" lon="11.8209178"><ele>408.33333333333337</ele><time>2026-04-04T09:15:30.27Z</time></trkpt><trkpt lat="43.7009584" lon="11.8209927"><ele>407.66666666666663</ele><time>2026-04-04T09:15:31.268Z</time></trkpt><trkpt lat="43.7011079" lon="11.8210486"><ele>407.0</ele><time>2026-04-04T09:15:32.275Z</time></trkpt><trkpt lat="43.701272" lon="11.8211265"><ele>407.0</ele><time>2026-04-04T09:15:33.274Z</time></trkpt><trkpt lat="43.7014358" lon="11.8211856"><ele>407.0</ele><time>2026-04-04T09:15:34.271Z</time></trkpt><trkpt lat="43.7016025" lon="11.8212359"><ele>407.0</ele><time>2026-04-04T09:15:35.273Z</time></trkpt><trkpt lat="43.7017701" lon="11.8212719"><ele>407.0</ele><time>2026-04-04T09:15:36.274Z</time></trkpt><trkpt lat="43.7019345" lon="11.8213055"><ele>407.0</ele><time>2026-04-04T09:15:37.272Z</time></trkpt><trkpt lat="43.7020913" lon="11.821333"><ele>407.0</ele><time>2026-04-04T09:15:38.275Z</time></trkpt><trkpt lat="43.7022263" lon="11.8213638"><ele>407.0</ele><time>2026-04-04T09:15:39.273Z</time></trkpt><trkpt lat="43.7023656" lon="11.8213946"><ele>407.0</ele><time>2026-04-04T09:15:40.274Z</time></trkpt><trkpt lat="43.7025131" lon="11.8214212"><ele>407.0</ele><time>2026-04-04T09:15:41.281Z</time></trkpt><trkpt lat="43.702675" lon="11.821442"><ele>407.0</ele><time>2026-04-04T09:15:42.275Z</time></trkpt><trkpt lat="43.7028436" lon="11.8214493"><ele>407.0</ele><time>2026-04-04T09:15:43.275Z</time></trkpt><trkpt lat="43.7030224" lon="11.8214552"><ele>407.0</ele><time>2026-04-04T09:15:44.266Z</time></trkpt><trkpt lat="43.7032" lon="11.8214588"><ele>407.0</ele><time>2026-04-04T09:15:45.27Z</time></trkpt><trkpt lat="43.7033767" lon="11.8214416"><ele>407.0</ele><time>2026-04-04T09:15:46.285Z</time></trkpt><trkpt lat="43.7035528" lon="11.8214002"><ele>407.0</ele><time>2026-04-04T09:15:47.275Z</time></trkpt><trkpt lat="43.7037242" lon="11.8213488"><ele>407.66666666666663</ele><time>2026-04-04T09:15:48.277Z</time></trkpt><trkpt lat="43.703902" lon="11.8213071"><ele>408.33333333333337</ele><time>2026-04-04T09:15:49.265Z</time></trkpt><trkpt lat="43.7040801" lon="11.8213055"><ele>409.0</ele><time>2026-04-04T09:15:50.276Z</time></trkpt><trkpt lat="43.7042497" lon="11.821326"><ele>409.25</ele><time>2026-04-04T09:15:51.27Z</time></trkpt><trkpt lat="43.704414" lon="11.8213577"><ele>409.5</ele><time>2026-04-04T09:15:52.262Z</time></trkpt><trkpt lat="43.7045586" lon="11.8213921"><ele>409.75</ele><time>2026-04-04T09:15:53.257Z</time></trkpt><trkpt lat="43.7046749" lon="11.8214265"><ele>410.0</ele><time>2026-04-04T09:15:54.264Z</time></trkpt><trkpt lat="43.7047769" lon="11.821469"><ele>409.99999999999994</ele><time>2026-04-04T09:15:55.264Z</time></trkpt><trkpt lat="43.7048859" lon="11.8214829"><ele>410.0</ele><time>2026-04-04T09:15:56.263Z</time></trkpt><trkpt lat="43.7049842" lon="11.8214843"><ele>410.0</ele><time>2026-04-04T09:15:57.269Z</time></trkpt><trkpt lat="43.7050725" lon="11.8214679"><ele>410.0</ele><time>2026-04-04T09:15:58.265Z</time></trkpt><trkpt lat="43.7051433" lon="11.8214473"><ele>409.99999999999994</ele><time>2026-04-04T09:15:59.265Z</time></trkpt><trkpt lat="43.7052165" lon="11.8214229"><ele>410.0</ele><time>2026-04-04T09:16:00.274Z</time></trkpt><trkpt lat="43.7052974" lon="11.8214001"><ele>409.5</ele><time>2026-04-04T09:16:01.26Z</time></trkpt><trkpt lat="43.7053914" lon="11.8213739"><ele>409.0</ele><time>2026-04-04T09:16:02.259Z</time></trkpt><trkpt lat="43.7055006" lon="11.8213403"><ele>408.5</ele><time>2026-04-04T09:16:03.258Z</time></trkpt><trkpt lat="43.7056296" lon="11.8213003"><ele>408.0</ele><time>2026-04-04T09:16:04.258Z</time></trkpt><trkpt lat="43.7057808" lon="11.8212584"><ele>408.0</ele><time>2026-04-04T09:16:05.259Z</time></trkpt><trkpt lat="43.7059517" lon="11.8212218"><ele>408.0</ele><time>2026-04-04T09:16:06.261Z</time></trkpt><trkpt lat="43.706142" lon="11.821185"><ele>408.0</ele><time>2026-04-04T09:16:07.261Z</time></trkpt><trkpt lat="43.7063226" lon="11.8211446"><ele>407.0</ele><time>2026-04-04T09:16:08.265Z</time></trkpt><trkpt lat="43.7064861" lon="11.821097"><ele>406.0</ele><time>2026-04-04T09:16:09.261Z</time></trkpt><trkpt lat="43.7066504" lon="11.8210608"><ele>405.0</ele><time>2026-04-04T09:16:10.264Z</time></trkpt><trkpt lat="43.7068201" lon="11.8210411"><ele>403.66666666666663</ele><time>2026-04-04T09:16:11.269Z</time></trkpt><trkpt lat="43.7069926" lon="11.8210387"><ele>402.3333333333333</ele><time>2026-04-04T09:16:12.272Z</time></trkpt><trkpt lat="43.7071746" lon="11.8210719"><ele>401.0</ele><time>2026-04-04T09:16:13.273Z</time></trkpt><trkpt lat="43.7073495" lon="11.8211137"><ele>401.0</ele><time>2026-04-04T09:16:14.262Z</time></trkpt><trkpt lat="43.7075248" lon="11.8211496"><ele>401.0</ele><time>2026-04-04T09:16:15.266Z</time></trkpt><trkpt lat="43.7076979" lon="11.821199"><ele>401.0</ele><time>2026-04-04T09:16:16.267Z</time></trkpt><trkpt lat="43.7078659" lon="11.8212604"><ele>400.3333333333333</ele><time>2026-04-04T09:16:17.265Z</time></trkpt><trkpt lat="43.70802" lon="11.8213356"><ele>399.66666666666663</ele><time>2026-04-04T09:16:18.265Z</time></trkpt><trkpt lat="43.7081827" lon="11.8214327"><ele>399.0</ele><time>2026-04-04T09:16:19.261Z</time></trkpt><trkpt lat="43.7083484" lon="11.8215576"><ele>399.0</ele><time>2026-04-04T09:16:20.264Z</time></trkpt><trkpt lat="43.7085154" lon="11.8217036"><ele>399.0</ele><time>2026-04-04T09:16:21.265Z</time></trkpt><trkpt lat="43.7086745" lon="11.8218635"><ele>399.0</ele><time>2026-04-04T09:16:22.264Z</time></trkpt><trkpt lat="43.7088349" lon="11.8220332"><ele>399.0</ele><time>2026-04-04T09:16:23.263Z</time></trkpt><trkpt lat="43.7089904" lon="11.8222094"><ele>399.0</ele><time>2026-04-04T09:16:24.261Z</time></trkpt><trkpt lat="43.7091375" lon="11.8223761"><ele>399.0</ele><time>2026-04-04T09:16:25.285Z</time></trkpt><trkpt lat="43.7092687" lon="11.8225304"><ele>399.33333333333337</ele><time>2026-04-04T09:16:26.278Z</time></trkpt><trkpt lat="43.7093937" lon="11.8226733"><ele>399.6666666666667</ele><time>2026-04-04T09:16:27.272Z</time></trkpt><trkpt lat="43.7095265" lon="11.8228116"><ele>400.0</ele><time>2026-04-04T09:16:28.268Z</time></trkpt><trkpt lat="43.7096602" lon="11.8229491"><ele>401.6666666666667</ele><time>2026-04-04T09:16:29.277Z</time></trkpt><trkpt lat="43.7097892" lon="11.8230889"><ele>403.33333333333337</ele><time>2026-04-04T09:16:30.276Z</time></trkpt><trkpt lat="43.7099267" lon="11.8232305"><ele>405.0</ele><time>2026-04-04T09:16:31.272Z</time></trkpt><trkpt lat="43.7100615" lon="11.8233917"><ele>406.0</ele><time>2026-04-04T09:16:32.267Z</time></trkpt><trkpt lat="43.7102038" lon="11.8235637"><ele>407.0</ele><time>2026-04-04T09:16:33.265Z</time></trkpt><trkpt lat="43.7103462" lon="11.8237485"><ele>408.0</ele><time>2026-04-04T09:16:34.266Z</time></trkpt><trkpt lat="43.7104957" lon="11.8239234"><ele>408.0</ele><time>2026-04-04T09:16:35.263Z</time></trkpt><trkpt lat="43.710638" lon="11.8240943"><ele>408.0</ele><time>2026-04-04T09:16:36.264Z</time></trkpt><trkpt lat="43.7107667" lon="11.8242639"><ele>408.0</ele><time>2026-04-04T09:16:37.263Z</time></trkpt><trkpt lat="43.7108944" lon="11.824429"><ele>407.66666666666663</ele><time>2026-04-04T09:16:38.263Z</time></trkpt><trkpt lat="43.7110198" lon="11.8245957"><ele>407.3333333333333</ele><time>2026-04-04T09:16:39.262Z</time></trkpt><trkpt lat="43.711147" lon="11.8247591"><ele>407.0</ele><time>2026-04-04T09:16:40.263Z</time></trkpt><trkpt lat="43.7112688" lon="11.8249261"><ele>407.0</ele><time>2026-04-04T09:16:41.262Z</time></trkpt><trkpt lat="43.7113958" lon="11.8251118"><ele>407.0</ele><time>2026-04-04T09:16:42.262Z</time></trkpt><trkpt lat="43.7115207" lon="11.8253003"><ele>407.0</ele><time>2026-04-04T09:16:43.262Z</time></trkpt><trkpt lat="43.711646" lon="11.8254949"><ele>406.3333333333333</ele><time>2026-04-04T09:16:44.26Z</time></trkpt><trkpt lat="43.7117679" lon="11.8256965"><ele>405.66666666666663</ele><time>2026-04-04T09:16:45.259Z</time></trkpt><trkpt lat="43.7118876" lon="11.8259032"><ele>405.0</ele><time>2026-04-04T09:16:46.261Z</time></trkpt><trkpt lat="43.7120061" lon="11.8261031"><ele>406.66666666666663</ele><time>2026-04-04T09:16:47.26Z</time></trkpt><trkpt lat="43.7121187" lon="11.8263089"><ele>408.3333333333333</ele><time>2026-04-04T09:16:48.261Z</time></trkpt><trkpt lat="43.7122369" lon="11.8265044"><ele>410.0</ele><time>2026-04-04T09:16:49.261Z</time></trkpt><trkpt lat="43.7123511" lon="11.8267045"><ele>410.3333333333333</ele><time>2026-04-04T09:16:50.259Z</time></trkpt><trkpt lat="43.7124663" lon="11.8269086"><ele>410.66666666666663</ele><time>2026-04-04T09:16:51.267Z</time></trkpt><trkpt lat="43.7125822" lon="11.827116"><ele>411.0</ele><time>2026-04-04T09:16:52.265Z</time></trkpt><trkpt lat="43.7126971" lon="11.8273237"><ele>410.66666666666663</ele><time>2026-04-04T09:16:53.269Z</time></trkpt><trkpt lat="43.7128202" lon="11.8275322"><ele>410.3333333333333</ele><time>2026-04-04T09:16:54.255Z</time></trkpt><trkpt lat="43.7129397" lon="11.8277292"><ele>410.0</ele><time>2026-04-04T09:16:55.271Z</time></trkpt><trkpt lat="43.7130473" lon="11.8279185"><ele>410.0</ele><time>2026-04-04T09:16:56.263Z</time></trkpt><trkpt lat="43.7131658" lon="11.8281093"><ele>410.0</ele><time>2026-04-04T09:16:57.267Z</time></trkpt><trkpt lat="43.7132804" lon="11.8282803"><ele>410.0</ele><time>2026-04-04T09:16:58.261Z</time></trkpt><trkpt lat="43.7134016" lon="11.8284305"><ele>410.3333333333333</ele><time>2026-04-04T09:16:59.259Z</time></trkpt><trkpt lat="43.7135351" lon="11.8285552"><ele>410.66666666666663</ele><time>2026-04-04T09:17:00.262Z</time></trkpt><trkpt lat="43.7136962" lon="11.8286698"><ele>411.0</ele><time>2026-04-04T09:17:01.263Z</time></trkpt><trkpt lat="43.7138555" lon="11.8287769"><ele>411.0</ele><time>2026-04-04T09:17:02.268Z</time></trkpt><trkpt lat="43.7140259" lon="11.8288408"><ele>411.0</ele><time>2026-04-04T09:17:03.256Z</time></trkpt><trkpt lat="43.7142106" lon="11.8288979"><ele>411.0</ele><time>2026-04-04T09:17:04.254Z</time></trkpt><trkpt lat="43.7144107" lon="11.828929"><ele>411.33333333333337</ele><time>2026-04-04T09:17:05.256Z</time></trkpt><trkpt lat="43.7146131" lon="11.8289531"><ele>411.6666666666667</ele><time>2026-04-04T09:17:06.256Z</time></trkpt><trkpt lat="43.7148242" lon="11.8289659"><ele>412.0</ele><time>2026-04-04T09:17:07.26Z</time></trkpt><trkpt lat="43.7150334" lon="11.828984"><ele>413.0</ele><time>2026-04-04T09:17:08.26Z</time></trkpt><trkpt lat="43.715241" lon="11.829024"><ele>414.0</ele><time>2026-04-04T09:17:09.26Z</time></trkpt><trkpt lat="43.7154374" lon="11.8290784"><ele>415.0</ele><time>2026-04-04T09:17:10.26Z</time></trkpt><trkpt lat="43.7156311" lon="11.8291418"><ele>415.0</ele><time>2026-04-04T09:17:11.26Z</time></trkpt><trkpt lat="43.7158014" lon="11.8291958"><ele>415.0</ele><time>2026-04-04T09:17:12.257Z</time></trkpt><trkpt lat="43.7159546" lon="11.8292609"><ele>415.0</ele><time>2026-04-04T09:17:13.257Z</time></trkpt><trkpt lat="43.7160986" lon="11.8293363"><ele>415.6666666666667</ele><time>2026-04-04T09:17:14.259Z</time></trkpt><trkpt lat="43.7162348" lon="11.8294145"><ele>416.33333333333337</ele><time>2026-04-04T09:17:15.256Z</time></trkpt><trkpt lat="43.7163648" lon="11.8295163"><ele>417.0</ele><time>2026-04-04T09:17:16.258Z</time></trkpt><trkpt lat="43.7164929" lon="11.8296667"><ele>417.0</ele><time>2026-04-04T09:17:17.255Z</time></trkpt><trkpt lat="43.7166146" lon="11.8298246"><ele>417.0</ele><time>2026-04-04T09:17:18.253Z</time></trkpt><trkpt lat="43.7167361" lon="11.8300126"><ele>417.0</ele><time>2026-04-04T09:17:19.255Z</time></trkpt><trkpt lat="43.7168644" lon="11.8302158"><ele>417.66666666666663</ele><time>2026-04-04T09:17:20.255Z</time></trkpt><trkpt lat="43.7170109" lon="11.830415"><ele>418.3333333333333</ele><time>2026-04-04T09:17:21.259Z</time></trkpt><trkpt lat="43.7171596" lon="11.8306154"><ele>419.0</ele><time>2026-04-04T09:17:22.252Z</time></trkpt><trkpt lat="43.7173167" lon="11.8308279"><ele>418.0</ele><time>2026-04-04T09:17:23.259Z</time></trkpt><trkpt lat="43.7174975" lon="11.8310299"><ele>417.0</ele><time>2026-04-04T09:17:24.257Z</time></trkpt><trkpt lat="43.7176851" lon="11.8312261"><ele>420.0</ele><time>2026-04-04T09:17:25.26Z</time></trkpt><trkpt lat="43.7178822" lon="11.8314157"><ele>423.0</ele><time>2026-04-04T09:17:26.261Z</time></trkpt><trkpt lat="43.7180868" lon="11.8316101"><ele>419.5</ele><time>2026-04-04T09:17:27.266Z</time></trkpt><trkpt lat="43.7182933" lon="11.8318096"><ele>416.0</ele><time>2026-04-04T09:17:28.259Z</time></trkpt><trkpt lat="43.7185013" lon="11.832016"><ele>421.5</ele><time>2026-04-04T09:17:29.26Z</time></trkpt><trkpt lat="43.7187069" lon="11.8322162"><ele>427.0</ele><time>2026-04-04T09:17:30.262Z</time></trkpt><trkpt lat="43.7189071" lon="11.832415"><ele>427.0</ele><time>2026-04-04T09:17:31.259Z</time></trkpt><trkpt lat="43.719091" lon="11.8326053"><ele>427.0</ele><time>2026-04-04T09:17:32.257Z</time></trkpt><trkpt lat="43.7192619" lon="11.8327939"><ele>427.0</ele><time>2026-04-04T09:17:33.265Z</time></trkpt><trkpt lat="43.7194147" lon="11.8329694"><ele>428.0</ele><time>2026-04-04T09:17:34.255Z</time></trkpt><trkpt lat="43.7195694" lon="11.8331328"><ele>429.0</ele><time>2026-04-04T09:17:35.254Z</time></trkpt><trkpt lat="43.7197282" lon="11.833301"><ele>430.0</ele><time>2026-04-04T09:17:36.251Z</time></trkpt><trkpt lat="43.719882" lon="11.8334608"><ele>429.33333333333337</ele><time>2026-04-04T09:17:37.253Z</time></trkpt><trkpt lat="43.7200459" lon="11.8336263"><ele>428.66666666666663</ele><time>2026-04-04T09:17:38.26Z</time></trkpt><trkpt lat="43.7201964" lon="11.8337797"><ele>428.0</ele><time>2026-04-04T09:17:39.259Z</time></trkpt><trkpt lat="43.7203311" lon="11.8339167"><ele>428.5</ele><time>2026-04-04T09:17:40.26Z</time></trkpt><trkpt lat="43.7204533" lon="11.8340329"><ele>429.0</ele><time>2026-04-04T09:17:41.262Z</time></trkpt><trkpt lat="43.7205772" lon="11.8341396"><ele>429.5</ele><time>2026-04-04T09:17:42.258Z</time></trkpt><trkpt lat="43.720702" lon="11.834247"><ele>430.0</ele><time>2026-04-04T09:17:43.261Z</time></trkpt><trkpt lat="43.7208309" lon="11.8343574"><ele>430.0</ele><time>2026-04-04T09:17:44.264Z</time></trkpt><trkpt lat="43.720959" lon="11.8344567"><ele>430.0</ele><time>2026-04-04T09:17:45.261Z</time></trkpt><trkpt lat="43.7210742" lon="11.8345558"><ele>430.0</ele><time>2026-04-04T09:17:46.261Z</time></trkpt><trkpt lat="43.7211849" lon="11.8346577"><ele>430.0</ele><time>2026-04-04T09:17:47.264Z</time></trkpt><trkpt lat="43.7212954" lon="11.8347814"><ele>431.0</ele><time>2026-04-04T09:17:48.26Z</time></trkpt><trkpt lat="43.7213961" lon="11.8349288"><ele>432.0</ele><time>2026-04-04T09:17:49.261Z</time></trkpt><trkpt lat="43.7214935" lon="11.8351012"><ele>433.0</ele><time>2026-04-04T09:17:50.26Z</time></trkpt><trkpt lat="43.7215829" lon="11.8352794"><ele>433.59999999999997</ele><time>2026-04-04T09:17:51.264Z</time></trkpt><trkpt lat="43.7216547" lon="11.8354426"><ele>434.19999999999993</ele><time>2026-04-04T09:17:52.264Z</time></trkpt><trkpt lat="43.7217163" lon="11.8355865"><ele>434.8</ele><time>2026-04-04T09:17:53.261Z</time></trkpt><trkpt lat="43.7217715" lon="11.8356997"><ele>435.4</ele><time>2026-04-04T09:17:54.262Z</time></trkpt><trkpt lat="43.7218086" lon="11.8358067"><ele>436.0</ele><time>2026-04-04T09:17:55.26Z</time></trkpt><trkpt lat="43.7218328" lon="11.8359409"><ele>436.0</ele><time>2026-04-04T09:17:57.262Z</time></trkpt><trkpt lat="43.7218435" lon="11.8360352"><ele>436.0</ele><time>2026-04-04T09:18:38.268Z</time></trkpt><trkpt lat="43.7219048" lon="11.8361881"><ele>436.0</ele><time>2026-04-04T09:18:40.266Z</time></trkpt><trkpt lat="43.7219546" lon="11.8362915"><ele>436.0</ele><time>2026-04-04T09:18:41.263Z</time></trkpt><trkpt lat="43.7220193" lon="11.8364113"><ele>436.0</ele><time>2026-04-04T09:18:42.263Z</time></trkpt><trkpt lat="43.7220996" lon="11.8365385"><ele>437.25</ele><time>2026-04-04T09:18:43.262Z</time></trkpt><trkpt lat="43.7221878" lon="11.8366642"><ele>438.5</ele><time>2026-04-04T09:18:44.26Z</time></trkpt><trkpt lat="43.722286" lon="11.8367849"><ele>439.75</ele><time>2026-04-04T09:18:45.26Z</time></trkpt><trkpt lat="43.7223881" lon="11.8369048"><ele>441.0</ele><time>2026-04-04T09:18:46.264Z</time></trkpt><trkpt lat="43.7224949" lon="11.8370131"><ele>438.5</ele><time>2026-04-04T09:18:47.256Z</time></trkpt><trkpt lat="43.7226076" lon="11.8371152"><ele>436.0</ele><time>2026-04-04T09:18:48.255Z</time></trkpt><trkpt lat="43.7227267" lon="11.8371901"><ele>433.5</ele><time>2026-04-04T09:18:49.254Z</time></trkpt><trkpt lat="43.7228513" lon="11.8372373"><ele>431.0</ele><time>2026-04-04T09:18:50.257Z</time></trkpt><trkpt lat="43.7229782" lon="11.8372649"><ele>431.0</ele><time>2026-04-04T09:18:51.265Z</time></trkpt><trkpt lat="43.7231221" lon="11.8372541"><ele>431.0</ele><time>2026-04-04T09:18:52.261Z</time></trkpt><trkpt lat="43.723275" lon="11.8372288"><ele>431.0</ele><time>2026-04-04T09:18:53.27Z</time></trkpt><trkpt lat="43.723439" lon="11.8371917"><ele>432.75</ele><time>2026-04-04T09:18:54.269Z</time></trkpt><trkpt lat="43.7236083" lon="11.837161"><ele>434.5</ele><time>2026-04-04T09:18:55.272Z</time></trkpt><trkpt lat="43.7237484" lon="11.8371338"><ele>436.25</ele><time>2026-04-04T09:18:56.258Z</time></trkpt><trkpt lat="43.723869" lon="11.8371075"><ele>438.0</ele><time>2026-04-04T09:18:57.26Z</time></trkpt><trkpt lat="43.7239754" lon="11.8370869"><ele>438.0</ele><time>2026-04-04T09:18:58.26Z</time></trkpt><trkpt lat="43.7240703" lon="11.8371173"><ele>437.99999999999994</ele><time>2026-04-04T09:18:59.27Z</time></trkpt><trkpt lat="43.7241482" lon="11.8371718"><ele>437.99999999999994</ele><time>2026-04-04T09:19:00.272Z</time></trkpt><trkpt lat="43.7241807" lon="11.8372939"><ele>438.0</ele><time>2026-04-04T09:19:01.254Z</time></trkpt><trkpt lat="43.7241932" lon="11.837434"><ele>438.0</ele><time>2026-04-04T09:19:02.249Z</time></trkpt><trkpt lat="43.724202" lon="11.8375695"><ele>440.25</ele><time>2026-04-04T09:19:03.255Z</time></trkpt><trkpt lat="43.7241534" lon="11.8376914"><ele>442.5</ele><time>2026-04-04T09:19:04.264Z</time></trkpt><trkpt lat="43.7240472" lon="11.8378104"><ele>444.75</ele><time>2026-04-04T09:19:05.252Z</time></trkpt><trkpt lat="43.7238756" lon="11.8378775"><ele>447.0</ele><time>2026-04-04T09:19:06.262Z</time></trkpt><trkpt lat="43.7236675" lon="11.8379309"><ele>444.0</ele><time>2026-04-04T09:19:07.257Z</time></trkpt><trkpt lat="43.7234497" lon="11.837984"><ele>441.0</ele><time>2026-04-04T09:19:08.255Z</time></trkpt><trkpt lat="43.7232516" lon="11.8380761"><ele>438.0</ele><time>2026-04-04T09:19:09.261Z</time></trkpt><trkpt lat="43.7230402" lon="11.838169"><ele>438.0</ele><time>2026-04-04T09:19:10.265Z</time></trkpt><trkpt lat="43.7228303" lon="11.8382845"><ele>438.0</ele><time>2026-04-04T09:19:11.266Z</time></trkpt><trkpt lat="43.7226329" lon="11.8383909"><ele>438.0</ele><time>2026-04-04T09:19:12.26Z</time></trkpt><trkpt lat="43.7224665" lon="11.8384884"><ele>439.0</ele><time>2026-04-04T09:19:13.269Z</time></trkpt><trkpt lat="43.7223434" lon="11.8386109"><ele>440.0</ele><time>2026-04-04T09:19:14.268Z</time></trkpt><trkpt lat="43.722245" lon="11.8387545"><ele>441.0</ele><time>2026-04-04T09:19:15.258Z</time></trkpt><trkpt lat="43.7221557" lon="11.8389251"><ele>442.0</ele><time>2026-04-04T09:19:16.261Z</time></trkpt><trkpt lat="43.7220779" lon="11.839101"><ele>442.0</ele><time>2026-04-04T09:19:17.264Z</time></trkpt><trkpt lat="43.7220025" lon="11.8392555"><ele>442.0</ele><time>2026-04-04T09:19:18.269Z</time></trkpt><trkpt lat="43.7219144" lon="11.8393686"><ele>442.0</ele><time>2026-04-04T09:19:19.269Z</time></trkpt><trkpt lat="43.7217959" lon="11.8394575"><ele>442.0</ele><time>2026-04-04T09:19:20.257Z</time></trkpt><trkpt lat="43.7216496" lon="11.8395116"><ele>441.6666666666667</ele><time>2026-04-04T09:19:21.26Z</time></trkpt><trkpt lat="43.7214748" lon="11.8394812"><ele>441.33333333333337</ele><time>2026-04-04T09:19:22.257Z</time></trkpt><trkpt lat="43.7213134" lon="11.8394415"><ele>441.0</ele><time>2026-04-04T09:19:23.262Z</time></trkpt><trkpt lat="43.721155" lon="11.8393988"><ele>440.0</ele><time>2026-04-04T09:19:24.266Z</time></trkpt><trkpt lat="43.7209915" lon="11.8393681"><ele>439.0</ele><time>2026-04-04T09:19:25.276Z</time></trkpt><trkpt lat="43.7208403" lon="11.8393547"><ele>438.0</ele><time>2026-04-04T09:19:26.27Z</time></trkpt><trkpt lat="43.7207068" lon="11.8393688"><ele>438.0</ele><time>2026-04-04T09:19:27.272Z</time></trkpt><trkpt lat="43.7205978" lon="11.8394553"><ele>438.0</ele><time>2026-04-04T09:19:28.264Z</time></trkpt><trkpt lat="43.7204816" lon="11.8395838"><ele>438.0</ele><time>2026-04-04T09:19:29.265Z</time></trkpt><trkpt lat="43.720358" lon="11.8397787"><ele>438.66666666666663</ele><time>2026-04-04T09:19:30.264Z</time></trkpt><trkpt lat="43.7202237" lon="11.8399812"><ele>439.3333333333333</ele><time>2026-04-04T09:19:31.266Z</time></trkpt><trkpt lat="43.7200618" lon="11.8401512"><ele>440.0</ele><time>2026-04-04T09:19:32.266Z</time></trkpt><trkpt lat="43.7199038" lon="11.8402894"><ele>440.0</ele><time>2026-04-04T09:19:33.267Z</time></trkpt><trkpt lat="43.7197561" lon="11.8403674"><ele>440.0</ele><time>2026-04-04T09:19:34.262Z</time></trkpt><trkpt lat="43.7196113" lon="11.8404299"><ele>440.0</ele><time>2026-04-04T09:19:35.263Z</time></trkpt><trkpt lat="43.7194866" lon="11.8404829"><ele>440.0</ele><time>2026-04-04T09:19:36.271Z</time></trkpt><trkpt lat="43.7193835" lon="11.8405499"><ele>439.0</ele><time>2026-04-04T09:19:37.284Z</time></trkpt><trkpt lat="43.7192832" lon="11.8406752"><ele>438.0</ele><time>2026-04-04T09:19:38.278Z</time></trkpt><trkpt lat="43.7192235" lon="11.8408572"><ele>437.0</ele><time>2026-04-04T09:19:39.28Z</time></trkpt><trkpt lat="43.7192039" lon="11.8410698"><ele>436.0</ele><time>2026-04-04T09:19:40.271Z</time></trkpt><trkpt lat="43.7191981" lon="11.8412851"><ele>436.0</ele><time>2026-04-04T09:19:41.276Z</time></trkpt><trkpt lat="43.7192086" lon="11.8415028"><ele>436.0</ele><time>2026-04-04T09:19:42.275Z</time></trkpt><trkpt lat="43.7192277" lon="11.8417012"><ele>436.0</ele><time>2026-04-04T09:19:43.268Z</time></trkpt><trkpt lat="43.7192387" lon="11.8418778"><ele>436.0</ele><time>2026-04-04T09:19:44.265Z</time></trkpt><trkpt lat="43.7192214" lon="11.8420128"><ele>437.0</ele><time>2026-04-04T09:19:45.267Z</time></trkpt><trkpt lat="43.7191655" lon="11.8421047"><ele>438.0</ele><time>2026-04-04T09:19:46.271Z</time></trkpt><trkpt lat="43.7190841" lon="11.8421677"><ele>439.0</ele><time>2026-04-04T09:19:47.274Z</time></trkpt><trkpt lat="43.718959" lon="11.8421559"><ele>440.0</ele><time>2026-04-04T09:19:48.266Z</time></trkpt><trkpt lat="43.7188485" lon="11.8421506"><ele>441.0</ele><time>2026-04-04T09:19:49.271Z</time></trkpt><trkpt lat="43.7187213" lon="11.8421102"><ele>441.0</ele><time>2026-04-04T09:19:50.268Z</time></trkpt><trkpt lat="43.7186237" lon="11.8420354"><ele>441.0</ele><time>2026-04-04T09:19:51.264Z</time></trkpt><trkpt lat="43.7185528" lon="11.8418843"><ele>441.0</ele><time>2026-04-04T09:19:52.262Z</time></trkpt><trkpt lat="43.7184791" lon="11.8416563"><ele>441.0</ele><time>2026-04-04T09:19:53.258Z</time></trkpt><trkpt lat="43.7184043" lon="11.8414023"><ele>439.33333333333337</ele><time>2026-04-04T09:19:54.253Z</time></trkpt><trkpt lat="43.7183197" lon="11.8411512"><ele>437.6666666666667</ele><time>2026-04-04T09:19:55.255Z</time></trkpt><trkpt lat="43.7182329" lon="11.8409215"><ele>436.0</ele><time>2026-04-04T09:19:56.252Z</time></trkpt><trkpt lat="43.7181134" lon="11.8407264"><ele>436.0</ele><time>2026-04-04T09:19:57.265Z</time></trkpt><trkpt lat="43.7179774" lon="11.8405196"><ele>436.0</ele><time>2026-04-04T09:19:58.263Z</time></trkpt><trkpt lat="43.7178478" lon="11.8403304"><ele>436.0</ele><time>2026-04-04T09:19:59.271Z</time></trkpt><trkpt lat="43.717732" lon="11.840174"><ele>436.25</ele><time>2026-04-04T09:20:00.273Z</time></trkpt><trkpt lat="43.7176152" lon="11.840067"><ele>436.5</ele><time>2026-04-04T09:20:01.27Z</time></trkpt><trkpt lat="43.7174865" lon="11.840025"><ele>436.75</ele><time>2026-04-04T09:20:02.27Z</time></trkpt><trkpt lat="43.7173603" lon="11.840034"><ele>437.0</ele><time>2026-04-04T09:20:03.273Z</time></trkpt><trkpt lat="43.7172462" lon="11.84011"><ele>440.3333333333333</ele><time>2026-04-04T09:20:04.276Z</time></trkpt><trkpt lat="43.71714" lon="11.8402431"><ele>443.66666666666663</ele><time>2026-04-04T09:20:05.271Z</time></trkpt><trkpt lat="43.7170411" lon="11.8404042"><ele>447.0</ele><time>2026-04-04T09:20:06.276Z</time></trkpt><trkpt lat="43.7169244" lon="11.8405961"><ele>445.0</ele><time>2026-04-04T09:20:07.275Z</time></trkpt><trkpt lat="43.716806" lon="11.8407568"><ele>443.0</ele><time>2026-04-04T09:20:08.275Z</time></trkpt><trkpt lat="43.7167101" lon="11.8409056"><ele>441.0</ele><time>2026-04-04T09:20:09.264Z</time></trkpt><trkpt lat="43.7166525" lon="11.8410737"><ele>439.0</ele><time>2026-04-04T09:20:10.273Z</time></trkpt><trkpt lat="43.7166201" lon="11.8412973"><ele>439.0</ele><time>2026-04-04T09:20:11.271Z</time></trkpt><trkpt lat="43.7165738" lon="11.8415164"><ele>439.0</ele><time>2026-04-04T09:20:12.278Z</time></trkpt><trkpt lat="43.7165006" lon="11.8417241"><ele>439.0</ele><time>2026-04-04T09:20:13.278Z</time></trkpt><trkpt lat="43.7164009" lon="11.8419186"><ele>440.25</ele><time>2026-04-04T09:20:14.272Z</time></trkpt><trkpt lat="43.7162931" lon="11.8420676"><ele>441.5</ele><time>2026-04-04T09:20:15.273Z</time></trkpt><trkpt lat="43.716197" lon="11.8421883"><ele>442.75</ele><time>2026-04-04T09:20:16.273Z</time></trkpt><trkpt lat="43.7161134" lon="11.8423309"><ele>444.0</ele><time>2026-04-04T09:20:17.28Z</time></trkpt><trkpt lat="43.7160671" lon="11.8424937"><ele>444.5</ele><time>2026-04-04T09:20:18.266Z</time></trkpt><trkpt lat="43.7160605" lon="11.8426908"><ele>445.0</ele><time>2026-04-04T09:20:19.268Z</time></trkpt><trkpt lat="43.7160891" lon="11.8428962"><ele>445.5</ele><time>2026-04-04T09:20:20.265Z</time></trkpt><trkpt lat="43.7161244" lon="11.8430983"><ele>446.0</ele><time>2026-04-04T09:20:21.263Z</time></trkpt><trkpt lat="43.7161456" lon="11.8433475"><ele>447.66666666666663</ele><time>2026-04-04T09:20:22.265Z</time></trkpt><trkpt lat="43.7161499" lon="11.8436121"><ele>449.33333333333337</ele><time>2026-04-04T09:20:23.267Z</time></trkpt><trkpt lat="43.7161032" lon="11.8438699"><ele>451.0</ele><time>2026-04-04T09:20:24.261Z</time></trkpt><trkpt lat="43.7160517" lon="11.8441198"><ele>447.33333333333337</ele><time>2026-04-04T09:20:25.263Z</time></trkpt><trkpt lat="43.7160124" lon="11.8443478"><ele>443.66666666666663</ele><time>2026-04-04T09:20:26.268Z</time></trkpt><trkpt lat="43.7159702" lon="11.8445563"><ele>440.0</ele><time>2026-04-04T09:20:27.266Z</time></trkpt><trkpt lat="43.7159313" lon="11.8447381"><ele>440.0</ele><time>2026-04-04T09:20:28.26Z</time></trkpt><trkpt lat="43.7158973" lon="11.844917"><ele>440.0</ele><time>2026-04-04T09:20:29.267Z</time></trkpt><trkpt lat="43.7158484" lon="11.8450644"><ele>440.0</ele><time>2026-04-04T09:20:30.258Z</time></trkpt><trkpt lat="43.7157813" lon="11.8451801"><ele>440.0</ele><time>2026-04-04T09:20:31.257Z</time></trkpt><trkpt lat="43.7157094" lon="11.8452735"><ele>442.0</ele><time>2026-04-04T09:20:32.262Z</time></trkpt><trkpt lat="43.7156097" lon="11.8453215"><ele>444.0</ele><time>2026-04-04T09:20:33.268Z</time></trkpt><trkpt lat="43.7154832" lon="11.8453094"><ele>446.0</ele><time>2026-04-04T09:20:34.26Z</time></trkpt><trkpt lat="43.7153534" lon="11.84524"><ele>448.0</ele><time>2026-04-04T09:20:35.252Z</time></trkpt><trkpt lat="43.7152157" lon="11.8451367"><ele>448.33333333333337</ele><time>2026-04-04T09:20:36.253Z</time></trkpt><trkpt lat="43.715077" lon="11.8450268"><ele>448.66666666666663</ele><time>2026-04-04T09:20:37.263Z</time></trkpt><trkpt lat="43.7149228" lon="11.8448858"><ele>449.0</ele><time>2026-04-04T09:20:38.265Z</time></trkpt><trkpt lat="43.7147926" lon="11.8447275"><ele>449.0</ele><time>2026-04-04T09:20:39.268Z</time></trkpt><trkpt lat="43.7146639" lon="11.8445861"><ele>449.0</ele><time>2026-04-04T09:20:40.266Z</time></trkpt><trkpt lat="43.7145646" lon="11.8443971"><ele>449.0</ele><time>2026-04-04T09:20:41.266Z</time></trkpt><trkpt lat="43.7144781" lon="11.8442455"><ele>449.2</ele><time>2026-04-04T09:20:42.267Z</time></trkpt><trkpt lat="43.7143751" lon="11.8441131"><ele>449.4</ele><time>2026-04-04T09:20:43.259Z</time></trkpt><trkpt lat="43.7142746" lon="11.8440447"><ele>449.6</ele><time>2026-04-04T09:20:44.262Z</time></trkpt><trkpt lat="43.714194" lon="11.8440926"><ele>449.8</ele><time>2026-04-04T09:20:45.263Z</time></trkpt><trkpt lat="43.714122" lon="11.8442032"><ele>450.0</ele><time>2026-04-04T09:20:46.254Z</time></trkpt><trkpt lat="43.7140473" lon="11.8443218"><ele>452.5</ele><time>2026-04-04T09:20:47.255Z</time></trkpt><trkpt lat="43.7139491" lon="11.8444521"><ele>455.0</ele><time>2026-04-04T09:20:48.26Z</time></trkpt><trkpt lat="43.7138598" lon="11.8445732"><ele>457.5</ele><time>2026-04-04T09:20:49.263Z</time></trkpt><trkpt lat="43.7137683" lon="11.8446543"><ele>460.0</ele><time>2026-04-04T09:20:50.263Z</time></trkpt><trkpt lat="43.713648" lon="11.8446798"><ele>463.0</ele><time>2026-04-04T09:20:51.262Z</time></trkpt><trkpt lat="43.7134979" lon="11.8446257"><ele>466.0</ele><time>2026-04-04T09:20:52.264Z</time></trkpt><trkpt lat="43.7133316" lon="11.8445591"><ele>469.0</ele><time>2026-04-04T09:20:53.267Z</time></trkpt><trkpt lat="43.7131522" lon="11.8445013"><ele>469.0</ele><time>2026-04-04T09:20:54.27Z</time></trkpt><trkpt lat="43.712972" lon="11.8444809"><ele>469.0</ele><time>2026-04-04T09:20:55.283Z</time></trkpt><trkpt lat="43.7127931" lon="11.8444863"><ele>469.0</ele><time>2026-04-04T09:20:56.284Z</time></trkpt><trkpt lat="43.7126487" lon="11.844488"><ele>467.2</ele><time>2026-04-04T09:20:57.276Z</time></trkpt><trkpt lat="43.7125317" lon="11.8445033"><ele>465.4</ele><time>2026-04-04T09:20:58.283Z</time></trkpt><trkpt lat="43.7124275" lon="11.8445331"><ele>463.6</ele><time>2026-04-04T09:20:59.269Z</time></trkpt><trkpt lat="43.7123529" lon="11.8446076"><ele>461.8</ele><time>2026-04-04T09:21:00.263Z</time></trkpt><trkpt lat="43.7123019" lon="11.8447193"><ele>460.0</ele><time>2026-04-04T09:21:01.268Z</time></trkpt><trkpt lat="43.7123027" lon="11.8448622"><ele>460.0</ele><time>2026-04-04T09:21:02.266Z</time></trkpt><trkpt lat="43.7123296" lon="11.8450291"><ele>460.0</ele><time>2026-04-04T09:21:03.276Z</time></trkpt><trkpt lat="43.7123876" lon="11.8452293"><ele>460.0</ele><time>2026-04-04T09:21:04.279Z</time></trkpt><trkpt lat="43.712458" lon="11.8454475"><ele>460.6666666666667</ele><time>2026-04-04T09:21:05.271Z</time></trkpt><trkpt lat="43.7125114" lon="11.8456904"><ele>461.33333333333337</ele><time>2026-04-04T09:21:06.265Z</time></trkpt><trkpt lat="43.7125101" lon="11.8459279"><ele>462.0</ele><time>2026-04-04T09:21:07.266Z</time></trkpt><trkpt lat="43.7124545" lon="11.8461683"><ele>462.66666666666663</ele><time>2026-04-04T09:21:08.263Z</time></trkpt><trkpt lat="43.7123898" lon="11.8463877"><ele>463.3333333333333</ele><time>2026-04-04T09:21:09.264Z</time></trkpt><trkpt lat="43.7123242" lon="11.8466265"><ele>464.0</ele><time>2026-04-04T09:21:10.281Z</time></trkpt><trkpt lat="43.7122679" lon="11.8468917"><ele>466.3333333333333</ele><time>2026-04-04T09:21:11.272Z</time></trkpt><trkpt lat="43.7122176" lon="11.8471462"><ele>468.66666666666663</ele><time>2026-04-04T09:21:12.273Z</time></trkpt><trkpt lat="43.712169" lon="11.8473622"><ele>471.0</ele><time>2026-04-04T09:21:13.262Z</time></trkpt><trkpt lat="43.7121215" lon="11.8475445"><ele>470.25</ele><time>2026-04-04T09:21:14.255Z</time></trkpt><trkpt lat="43.7120948" lon="11.8477262"><ele>469.5</ele><time>2026-04-04T09:21:15.257Z</time></trkpt><trkpt lat="43.7121002" lon="11.8479164"><ele>468.75</ele><time>2026-04-04T09:21:16.259Z</time></trkpt><trkpt lat="43.7121584" lon="11.8481097"><ele>468.0</ele><time>2026-04-04T09:21:17.267Z</time></trkpt><trkpt lat="43.7122543" lon="11.8483126"><ele>465.0</ele><time>2026-04-04T09:21:18.249Z</time></trkpt><trkpt lat="43.7123594" lon="11.8485251"><ele>462.0</ele><time>2026-04-04T09:21:19.267Z</time></trkpt><trkpt lat="43.7124565" lon="11.8487476"><ele>459.0</ele><time>2026-04-04T09:21:20.261Z</time></trkpt><trkpt lat="43.7125501" lon="11.8489615"><ele>459.0</ele><time>2026-04-04T09:21:21.258Z</time></trkpt><trkpt lat="43.7126433" lon="11.8491795"><ele>459.0</ele><time>2026-04-04T09:21:22.259Z</time></trkpt><trkpt lat="43.7127288" lon="11.849351"><ele>459.0</ele><time>2026-04-04T09:21:23.257Z</time></trkpt><trkpt lat="43.7127986" lon="11.849499"><ele>458.75</ele><time>2026-04-04T09:21:24.256Z</time></trkpt><trkpt lat="43.7128301" lon="11.8496484"><ele>458.5</ele><time>2026-04-04T09:21:25.261Z</time></trkpt><trkpt lat="43.7128037" lon="11.8497924"><ele>458.25</ele><time>2026-04-04T09:21:26.26Z</time></trkpt><trkpt lat="43.7127383" lon="11.8499305"><ele>458.0</ele><time>2026-04-04T09:21:27.262Z</time></trkpt><trkpt lat="43.712636" lon="11.8500646"><ele>459.0</ele><time>2026-04-04T09:21:28.257Z</time></trkpt><trkpt lat="43.7125312" lon="11.8501907"><ele>460.0</ele><time>2026-04-04T09:21:29.255Z</time></trkpt><trkpt lat="43.7124292" lon="11.8503194"><ele>461.0</ele><time>2026-04-04T09:21:30.264Z</time></trkpt><trkpt lat="43.7123437" lon="11.8504606"><ele>462.0</ele><time>2026-04-04T09:21:31.268Z</time></trkpt><trkpt lat="43.7122679" lon="11.8506185"><ele>462.0</ele><time>2026-04-04T09:21:32.264Z</time></trkpt><trkpt lat="43.7122288" lon="11.850807"><ele>462.0</ele><time>2026-04-04T09:21:33.264Z</time></trkpt><trkpt lat="43.7122442" lon="11.8510343"><ele>462.0</ele><time>2026-04-04T09:21:34.258Z</time></trkpt><trkpt lat="43.7122799" lon="11.8512702"><ele>462.0</ele><time>2026-04-04T09:21:35.26Z</time></trkpt><trkpt lat="43.7123593" lon="11.8515104"><ele>462.0</ele><time>2026-04-04T09:21:36.263Z</time></trkpt><trkpt lat="43.7124506" lon="11.8517282"><ele>462.0</ele><time>2026-04-04T09:21:37.266Z</time></trkpt><trkpt lat="43.7125853" lon="11.8519228"><ele>462.33333333333337</ele><time>2026-04-04T09:21:38.268Z</time></trkpt><trkpt lat="43.7127589" lon="11.8520942"><ele>462.6666666666667</ele><time>2026-04-04T09:21:39.265Z</time></trkpt><trkpt lat="43.7129506" lon="11.8522321"><ele>463.0</ele><time>2026-04-04T09:21:40.263Z</time></trkpt><trkpt lat="43.7131334" lon="11.8523309"><ele>463.0</ele><time>2026-04-04T09:21:41.271Z</time></trkpt><trkpt lat="43.713289" lon="11.8524176"><ele>463.0</ele><time>2026-04-04T09:21:42.264Z</time></trkpt><trkpt lat="43.7134104" lon="11.852527"><ele>463.0</ele><time>2026-04-04T09:21:43.261Z</time></trkpt><trkpt lat="43.7134867" lon="11.8526663"><ele>463.0</ele><time>2026-04-04T09:21:44.259Z</time></trkpt><trkpt lat="43.7135026" lon="11.8528389"><ele>462.75</ele><time>2026-04-04T09:21:45.258Z</time></trkpt><trkpt lat="43.7134675" lon="11.8530131"><ele>462.5</ele><time>2026-04-04T09:21:46.263Z</time></trkpt><trkpt lat="43.7133797" lon="11.8531977"><ele>462.25</ele><time>2026-04-04T09:21:47.257Z</time></trkpt><trkpt lat="43.7132726" lon="11.8533297"><ele>462.0</ele><time>2026-04-04T09:21:48.267Z</time></trkpt><trkpt lat="43.7131522" lon="11.8534204"><ele>461.25</ele><time>2026-04-04T09:21:49.265Z</time></trkpt><trkpt lat="43.7130251" lon="11.8535068"><ele>460.5</ele><time>2026-04-04T09:21:50.269Z</time></trkpt><trkpt lat="43.7129039" lon="11.8536067"><ele>459.75</ele><time>2026-04-04T09:21:51.275Z</time></trkpt><trkpt lat="43.7127915" lon="11.8537501"><ele>459.0</ele><time>2026-04-04T09:21:52.278Z</time></trkpt><trkpt lat="43.7127206" lon="11.8539526"><ele>459.0</ele><time>2026-04-04T09:21:53.273Z</time></trkpt><trkpt lat="43.7126819" lon="11.8541506"><ele>459.0</ele><time>2026-04-04T09:21:54.275Z</time></trkpt><trkpt lat="43.7126707" lon="11.8543383"><ele>459.0</ele><time>2026-04-04T09:21:55.268Z</time></trkpt><trkpt lat="43.7126888" lon="11.8545076"><ele>459.0</ele><time>2026-04-04T09:21:56.272Z</time></trkpt><trkpt lat="43.7127512" lon="11.8546603"><ele>461.33333333333337</ele><time>2026-04-04T09:21:57.277Z</time></trkpt><trkpt lat="43.7128545" lon="11.8548188"><ele>463.6666666666667</ele><time>2026-04-04T09:21:58.273Z</time></trkpt><trkpt lat="43.7129964" lon="11.8549665"><ele>466.0</ele><time>2026-04-04T09:21:59.274Z</time></trkpt><trkpt lat="43.7131549" lon="11.8551247"><ele>466.0</ele><time>2026-04-04T09:22:00.271Z</time></trkpt><trkpt lat="43.7132854" lon="11.8552768"><ele>466.0</ele><time>2026-04-04T09:22:01.27Z</time></trkpt><trkpt lat="43.7133932" lon="11.8554037"><ele>466.0</ele><time>2026-04-04T09:22:02.272Z</time></trkpt><trkpt lat="43.7134868" lon="11.8555328"><ele>466.0</ele><time>2026-04-04T09:22:03.264Z</time></trkpt><trkpt lat="43.7135587" lon="11.8556706"><ele>466.20000000000005</ele><time>2026-04-04T09:22:04.262Z</time></trkpt><trkpt lat="43.7136035" lon="11.8558043"><ele>466.40000000000003</ele><time>2026-04-04T09:22:05.261Z</time></trkpt><trkpt lat="43.7136127" lon="11.8559521"><ele>466.6</ele><time>2026-04-04T09:22:06.283Z</time></trkpt><trkpt lat="43.7136006" lon="11.8560841"><ele>466.8</ele><time>2026-04-04T09:22:07.262Z</time></trkpt><trkpt lat="43.7135701" lon="11.8562111"><ele>467.0</ele><time>2026-04-04T09:22:08.274Z</time></trkpt><trkpt lat="43.7135251" lon="11.8563426"><ele>466.99999999999994</ele><time>2026-04-04T09:22:09.264Z</time></trkpt><trkpt lat="43.7134719" lon="11.8564592"><ele>467.0</ele><time>2026-04-04T09:22:10.269Z</time></trkpt><trkpt lat="43.7134327" lon="11.8565634"><ele>467.0</ele><time>2026-04-04T09:22:11.27Z</time></trkpt><trkpt lat="43.7134046" lon="11.856658"><ele>467.0</ele><time>2026-04-04T09:22:12.279Z</time></trkpt><trkpt lat="43.7133788" lon="11.8567538"><ele>466.99999999999994</ele><time>2026-04-04T09:22:13.274Z</time></trkpt><trkpt lat="43.7133598" lon="11.8568479"><ele>467.0</ele><time>2026-04-04T09:22:14.27Z</time></trkpt><trkpt lat="43.7133466" lon="11.856951"><ele>466.75</ele><time>2026-04-04T09:22:15.269Z</time></trkpt><trkpt lat="43.71334" lon="11.8570713"><ele>466.5</ele><time>2026-04-04T09:22:16.271Z</time></trkpt><trkpt lat="43.7133448" lon="11.8572235"><ele>466.25</ele><time>2026-04-04T09:22:17.271Z</time></trkpt><trkpt lat="43.7133722" lon="11.8574105"><ele>466.0</ele><time>2026-04-04T09:22:18.27Z</time></trkpt><trkpt lat="43.7134256" lon="11.8576408"><ele>465.0</ele><time>2026-04-04T09:22:19.267Z</time></trkpt><trkpt lat="43.7134826" lon="11.8578975"><ele>464.0</ele><time>2026-04-04T09:22:20.268Z</time></trkpt><trkpt lat="43.7135011" lon="11.858125"><ele>463.0</ele><time>2026-04-04T09:22:21.273Z</time></trkpt><trkpt lat="43.7134993" lon="11.8583435"><ele>463.0</ele><time>2026-04-04T09:22:22.275Z</time></trkpt><trkpt lat="43.7134787" lon="11.8585596"><ele>463.0</ele><time>2026-04-04T09:22:23.273Z</time></trkpt><trkpt lat="43.7134519" lon="11.8587521"><ele>463.0</ele><time>2026-04-04T09:22:24.272Z</time></trkpt><trkpt lat="43.7134013" lon="11.8589222"><ele>463.0</ele><time>2026-04-04T09:22:25.275Z</time></trkpt><trkpt lat="43.7133501" lon="11.8590719"><ele>463.0</ele><time>2026-04-04T09:22:26.271Z</time></trkpt><trkpt lat="43.713293" lon="11.8592064"><ele>462.99999999999994</ele><time>2026-04-04T09:22:27.272Z</time></trkpt><trkpt lat="43.7132646" lon="11.8593427"><ele>462.99999999999994</ele><time>2026-04-04T09:22:28.274Z</time></trkpt><trkpt lat="43.7132874" lon="11.8594646"><ele>463.0</ele><time>2026-04-04T09:22:29.306Z</time></trkpt><trkpt lat="43.713359" lon="11.8596063"><ele>463.0</ele><time>2026-04-04T09:22:30.273Z</time></trkpt><trkpt lat="43.7134395" lon="11.8597787"><ele>463.0</ele><time>2026-04-04T09:22:31.271Z</time></trkpt><trkpt lat="43.713522" lon="11.8599685"><ele>463.0</ele><time>2026-04-04T09:22:32.267Z</time></trkpt><trkpt lat="43.7136025" lon="11.8601787"><ele>463.0</ele><time>2026-04-04T09:22:33.262Z</time></trkpt><trkpt lat="43.7136617" lon="11.8603957"><ele>463.0</ele><time>2026-04-04T09:22:34.262Z</time></trkpt><trkpt lat="43.7136979" lon="11.8606247"><ele>463.0</ele><time>2026-04-04T09:22:35.264Z</time></trkpt><trkpt lat="43.7137164" lon="11.8608748"><ele>463.0</ele><time>2026-04-04T09:22:36.263Z</time></trkpt><trkpt lat="43.7137296" lon="11.861111"><ele>463.75</ele><time>2026-04-04T09:22:37.264Z</time></trkpt><trkpt lat="43.7137299" lon="11.8613201"><ele>464.5</ele><time>2026-04-04T09:22:38.289Z</time></trkpt><trkpt lat="43.7137289" lon="11.8615286"><ele>465.25</ele><time>2026-04-04T09:22:39.261Z</time></trkpt><trkpt lat="43.713727" lon="11.8617312"><ele>466.0</ele><time>2026-04-04T09:22:40.263Z</time></trkpt><trkpt lat="43.7137466" lon="11.8619324"><ele>462.33333333333337</ele><time>2026-04-04T09:22:41.256Z</time></trkpt><trkpt lat="43.7138003" lon="11.8621533"><ele>458.66666666666663</ele><time>2026-04-04T09:22:42.261Z</time></trkpt><trkpt lat="43.7138595" lon="11.8623626"><ele>455.0</ele><time>2026-04-04T09:22:43.283Z</time></trkpt><trkpt lat="43.7139237" lon="11.8625572"><ele>451.0</ele><time>2026-04-04T09:22:44.263Z</time></trkpt><trkpt lat="43.7139814" lon="11.8627204"><ele>447.0</ele><time>2026-04-04T09:22:45.266Z</time></trkpt><trkpt lat="43.7140575" lon="11.8628538"><ele>443.0</ele><time>2026-04-04T09:22:46.267Z</time></trkpt><trkpt lat="43.7141664" lon="11.8629842"><ele>439.0</ele><time>2026-04-04T09:22:47.27Z</time></trkpt><trkpt lat="43.7143014" lon="11.8631"><ele>442.6666666666667</ele><time>2026-04-04T09:22:48.262Z</time></trkpt><trkpt lat="43.7144553" lon="11.8631879"><ele>446.33333333333337</ele><time>2026-04-04T09:22:49.264Z</time></trkpt><trkpt lat="43.7145953" lon="11.8632709"><ele>450.0</ele><time>2026-04-04T09:22:50.262Z</time></trkpt><trkpt lat="43.714726" lon="11.8633533"><ele>450.0</ele><time>2026-04-04T09:22:51.262Z</time></trkpt><trkpt lat="43.7148438" lon="11.8634191"><ele>450.0</ele><time>2026-04-04T09:22:52.262Z</time></trkpt><trkpt lat="43.7149303" lon="11.8635158"><ele>450.0</ele><time>2026-04-04T09:22:53.261Z</time></trkpt><trkpt lat="43.7149967" lon="11.8636297"><ele>450.0</ele><time>2026-04-04T09:22:54.26Z</time></trkpt><trkpt lat="43.7150356" lon="11.8637785"><ele>446.0</ele><time>2026-04-04T09:22:55.26Z</time></trkpt><trkpt lat="43.715024" lon="11.8639812"><ele>442.0</ele><time>2026-04-04T09:22:56.286Z</time></trkpt><trkpt lat="43.7150125" lon="11.8642062"><ele>438.0</ele><time>2026-04-04T09:22:57.263Z</time></trkpt><trkpt lat="43.7150035" lon="11.8644274"><ele>437.75</ele><time>2026-04-04T09:22:58.263Z</time></trkpt><trkpt lat="43.7149808" lon="11.8646347"><ele>437.5</ele><time>2026-04-04T09:22:59.272Z</time></trkpt><trkpt lat="43.7149536" lon="11.8648264"><ele>437.25</ele><time>2026-04-04T09:23:00.271Z</time></trkpt><trkpt lat="43.7149301" lon="11.8649985"><ele>437.0</ele><time>2026-04-04T09:23:01.274Z</time></trkpt><trkpt lat="43.7149307" lon="11.8651564"><ele>435.25</ele><time>2026-04-04T09:23:02.272Z</time></trkpt><trkpt lat="43.7149503" lon="11.8653326"><ele>433.5</ele><time>2026-04-04T09:23:03.274Z</time></trkpt><trkpt lat="43.7149972" lon="11.8655135"><ele>431.75</ele><time>2026-04-04T09:23:04.266Z</time></trkpt><trkpt lat="43.7150611" lon="11.865688"><ele>430.0</ele><time>2026-04-04T09:23:05.276Z</time></trkpt><trkpt lat="43.715138" lon="11.865849"><ele>429.2</ele><time>2026-04-04T09:23:06.269Z</time></trkpt><trkpt lat="43.715226" lon="11.8659802"><ele>428.4</ele><time>2026-04-04T09:23:07.285Z</time></trkpt><trkpt lat="43.7153176" lon="11.8660782"><ele>427.6</ele><time>2026-04-04T09:23:08.278Z</time></trkpt><trkpt lat="43.7153963" lon="11.8661676"><ele>426.8</ele><time>2026-04-04T09:23:09.269Z</time></trkpt><trkpt lat="43.7154802" lon="11.8662351"><ele>426.0</ele><time>2026-04-04T09:23:10.269Z</time></trkpt><trkpt lat="43.715586" lon="11.866262"><ele>426.0</ele><time>2026-04-04T09:23:11.27Z</time></trkpt><trkpt lat="43.7157192" lon="11.8662555"><ele>426.0</ele><time>2026-04-04T09:23:12.283Z</time></trkpt><trkpt lat="43.7158702" lon="11.8662343"><ele>426.0</ele><time>2026-04-04T09:23:13.273Z</time></trkpt><trkpt lat="43.7160362" lon="11.8662213"><ele>428.5</ele><time>2026-04-04T09:23:14.264Z</time></trkpt><trkpt lat="43.7161976" lon="11.8662096"><ele>431.0</ele><time>2026-04-04T09:23:15.262Z</time></trkpt><trkpt lat="43.7163439" lon="11.8662078"><ele>433.5</ele><time>2026-04-04T09:23:16.263Z</time></trkpt><trkpt lat="43.7164661" lon="11.8662212"><ele>436.0</ele><time>2026-04-04T09:23:17.266Z</time></trkpt><trkpt lat="43.7165718" lon="11.8662514"><ele>436.0</ele><time>2026-04-04T09:23:18.26Z</time></trkpt><trkpt lat="43.7166527" lon="11.8662797"><ele>436.0</ele><time>2026-04-04T09:23:19.26Z</time></trkpt><trkpt lat="43.7167277" lon="11.8663355"><ele>436.0</ele><time>2026-04-04T09:23:20.253Z</time></trkpt><trkpt lat="43.7167892" lon="11.8664439"><ele>436.0</ele><time>2026-04-04T09:23:21.261Z</time></trkpt><trkpt lat="43.7168292" lon="11.866581"><ele>436.0</ele><time>2026-04-04T09:23:22.26Z</time></trkpt><trkpt lat="43.7168085" lon="11.8667514"><ele>438.75</ele><time>2026-04-04T09:23:23.26Z</time></trkpt><trkpt lat="43.7167578" lon="11.8669274"><ele>441.5</ele><time>2026-04-04T09:23:24.256Z</time></trkpt><trkpt lat="43.7166873" lon="11.8670994"><ele>444.25</ele><time>2026-04-04T09:23:25.262Z</time></trkpt><trkpt lat="43.7166101" lon="11.867244"><ele>447.0</ele><time>2026-04-04T09:23:26.258Z</time></trkpt><trkpt lat="43.7165109" lon="11.8673287"><ele>447.0</ele><time>2026-04-04T09:23:27.266Z</time></trkpt><trkpt lat="43.7164167" lon="11.8673471"><ele>447.00000000000006</ele><time>2026-04-04T09:23:28.259Z</time></trkpt><trkpt lat="43.7163347" lon="11.8673793"><ele>447.00000000000006</ele><time>2026-04-04T09:23:29.27Z</time></trkpt><trkpt lat="43.7162599" lon="11.8674304"><ele>447.0</ele><time>2026-04-04T09:23:30.274Z</time></trkpt><trkpt lat="43.7161959" lon="11.8675397"><ele>447.0</ele><time>2026-04-04T09:23:31.264Z</time></trkpt><trkpt lat="43.7161418" lon="11.8677053"><ele>447.75</ele><time>2026-04-04T09:23:32.262Z</time></trkpt><trkpt lat="43.7160902" lon="11.8678827"><ele>448.5</ele><time>2026-04-04T09:23:33.263Z</time></trkpt><trkpt lat="43.7160308" lon="11.8680355"><ele>449.25</ele><time>2026-04-04T09:23:34.263Z</time></trkpt><trkpt lat="43.7159872" lon="11.8681726"><ele>450.0</ele><time>2026-04-04T09:23:35.271Z</time></trkpt><trkpt lat="43.7159614" lon="11.8682944"><ele>448.6</ele><time>2026-04-04T09:23:36.278Z</time></trkpt><trkpt lat="43.7159785" lon="11.8684247"><ele>447.2</ele><time>2026-04-04T09:23:37.279Z</time></trkpt><trkpt lat="43.7160355" lon="11.8685494"><ele>445.79999999999995</ele><time>2026-04-04T09:23:38.277Z</time></trkpt><trkpt lat="43.7161152" lon="11.8686681"><ele>444.4</ele><time>2026-04-04T09:23:39.264Z</time></trkpt><trkpt lat="43.7161957" lon="11.8687884"><ele>443.0</ele><time>2026-04-04T09:23:40.262Z</time></trkpt><trkpt lat="43.7162584" lon="11.8689223"><ele>443.0</ele><time>2026-04-04T09:23:41.261Z</time></trkpt><trkpt lat="43.7163043" lon="11.8690717"><ele>443.0</ele><time>2026-04-04T09:23:42.262Z</time></trkpt><trkpt lat="43.7163142" lon="11.8692253"><ele>443.0</ele><time>2026-04-04T09:23:43.274Z</time></trkpt><trkpt lat="43.7162845" lon="11.8693762"><ele>443.0</ele><time>2026-04-04T09:23:44.269Z</time></trkpt><trkpt lat="43.7162588" lon="11.8695253"><ele>440.75</ele><time>2026-04-04T09:23:45.262Z</time></trkpt><trkpt lat="43.7162493" lon="11.8696731"><ele>438.5</ele><time>2026-04-04T09:23:46.27Z</time></trkpt><trkpt lat="43.7162557" lon="11.8698246"><ele>436.25</ele><time>2026-04-04T09:23:47.274Z</time></trkpt><trkpt lat="43.7162931" lon="11.8699899"><ele>434.0</ele><time>2026-04-04T09:23:48.291Z</time></trkpt><trkpt lat="43.7163494" lon="11.8701631"><ele>429.25</ele><time>2026-04-04T09:23:49.271Z</time></trkpt><trkpt lat="43.7164036" lon="11.8703279"><ele>424.5</ele><time>2026-04-04T09:23:50.273Z</time></trkpt><trkpt lat="43.7164614" lon="11.8704768"><ele>419.75</ele><time>2026-04-04T09:23:51.271Z</time></trkpt><trkpt lat="43.7165281" lon="11.8706167"><ele>415.0</ele><time>2026-04-04T09:23:52.274Z</time></trkpt><trkpt lat="43.7165905" lon="11.8707389"><ele>415.0</ele><time>2026-04-04T09:23:53.273Z</time></trkpt><trkpt lat="43.7166641" lon="11.8708325"><ele>415.0</ele><time>2026-04-04T09:23:54.272Z</time></trkpt><trkpt lat="43.7167281" lon="11.8709178"><ele>415.0</ele><time>2026-04-04T09:23:55.273Z</time></trkpt><trkpt lat="43.7167939" lon="11.8709925"><ele>415.0</ele><time>2026-04-04T09:23:56.277Z</time></trkpt><trkpt lat="43.7168498" lon="11.8710855"><ele>415.0</ele><time>2026-04-04T09:23:57.276Z</time></trkpt><trkpt lat="43.7168899" lon="11.8711951"><ele>413.0</ele><time>2026-04-04T09:23:58.271Z</time></trkpt><trkpt lat="43.7168932" lon="11.8713342"><ele>411.0</ele><time>2026-04-04T09:23:59.269Z</time></trkpt><trkpt lat="43.7168776" lon="11.87152"><ele>409.0</ele><time>2026-04-04T09:24:00.267Z</time></trkpt><trkpt lat="43.7168671" lon="11.8717228"><ele>407.0</ele><time>2026-04-04T09:24:01.29Z</time></trkpt><trkpt lat="43.7168849" lon="11.8719482"><ele>406.66666666666663</ele><time>2026-04-04T09:24:02.266Z</time></trkpt><trkpt lat="43.7169177" lon="11.8721975"><ele>406.33333333333337</ele><time>2026-04-04T09:24:03.266Z</time></trkpt><trkpt lat="43.7169551" lon="11.8724491"><ele>406.0</ele><time>2026-04-04T09:24:04.268Z</time></trkpt><trkpt lat="43.7169905" lon="11.8726654"><ele>406.0</ele><time>2026-04-04T09:24:05.262Z</time></trkpt><trkpt lat="43.7170126" lon="11.8728495"><ele>406.0</ele><time>2026-04-04T09:24:06.266Z</time></trkpt><trkpt lat="43.7170318" lon="11.8730237"><ele>406.0</ele><time>2026-04-04T09:24:07.27Z</time></trkpt><trkpt lat="43.7170281" lon="11.8731858"><ele>406.0</ele><time>2026-04-04T09:24:08.271Z</time></trkpt><trkpt lat="43.7169777" lon="11.873337"><ele>409.75</ele><time>2026-04-04T09:24:09.273Z</time></trkpt><trkpt lat="43.716886" lon="11.8734745"><ele>413.5</ele><time>2026-04-04T09:24:10.274Z</time></trkpt><trkpt lat="43.7167712" lon="11.8735829"><ele>417.25</ele><time>2026-04-04T09:24:11.27Z</time></trkpt><trkpt lat="43.716631" lon="11.8736437"><ele>421.0</ele><time>2026-04-04T09:24:12.27Z</time></trkpt><trkpt lat="43.7164705" lon="11.873677"><ele>421.0</ele><time>2026-04-04T09:24:13.269Z</time></trkpt><trkpt lat="43.7163187" lon="11.8737342"><ele>421.0</ele><time>2026-04-04T09:24:14.272Z</time></trkpt><trkpt lat="43.7161813" lon="11.8738043"><ele>421.0</ele><time>2026-04-04T09:24:15.279Z</time></trkpt><trkpt lat="43.7160692" lon="11.8738796"><ele>421.0</ele><time>2026-04-04T09:24:16.273Z</time></trkpt><trkpt lat="43.7159663" lon="11.8739748"><ele>420.75</ele><time>2026-04-04T09:24:17.272Z</time></trkpt><trkpt lat="43.7158856" lon="11.8741005"><ele>420.5</ele><time>2026-04-04T09:24:18.274Z</time></trkpt><trkpt lat="43.7158501" lon="11.8742749"><ele>420.25</ele><time>2026-04-04T09:24:19.272Z</time></trkpt><trkpt lat="43.7158564" lon="11.8744669"><ele>420.0</ele><time>2026-04-04T09:24:20.267Z</time></trkpt><trkpt lat="43.7158934" lon="11.8746694"><ele>420.0</ele><time>2026-04-04T09:24:21.276Z</time></trkpt><trkpt lat="43.7159503" lon="11.8748748"><ele>420.0</ele><time>2026-04-04T09:24:22.271Z</time></trkpt><trkpt lat="43.7160202" lon="11.8751208"><ele>420.0</ele><time>2026-04-04T09:24:23.265Z</time></trkpt><trkpt lat="43.7160537" lon="11.8753578"><ele>421.0</ele><time>2026-04-04T09:24:24.268Z</time></trkpt><trkpt lat="43.716061" lon="11.8755501"><ele>422.0</ele><time>2026-04-04T09:24:25.266Z</time></trkpt><trkpt lat="43.7160391" lon="11.8757328"><ele>423.0</ele><time>2026-04-04T09:24:26.265Z</time></trkpt><trkpt lat="43.7159944" lon="11.8759208"><ele>424.0</ele><time>2026-04-04T09:24:27.282Z</time></trkpt><trkpt lat="43.7159079" lon="11.8761069"><ele>427.0</ele><time>2026-04-04T09:24:28.26Z</time></trkpt><trkpt lat="43.7157986" lon="11.8762856"><ele>430.0</ele><time>2026-04-04T09:24:29.258Z</time></trkpt><trkpt lat="43.7156899" lon="11.8764318"><ele>433.0</ele><time>2026-04-04T09:24:30.262Z</time></trkpt><trkpt lat="43.7155839" lon="11.8764986"><ele>436.0</ele><time>2026-04-04T09:24:31.258Z</time></trkpt><trkpt lat="43.7154829" lon="11.8765832"><ele>436.0</ele><time>2026-04-04T09:24:32.265Z</time></trkpt><trkpt lat="43.7154137" lon="11.8766863"><ele>436.0</ele><time>2026-04-04T09:24:33.26Z</time></trkpt><trkpt lat="43.7153449" lon="11.8768039"><ele>436.0</ele><time>2026-04-04T09:24:34.257Z</time></trkpt><trkpt lat="43.7153083" lon="11.8769253"><ele>436.0</ele><time>2026-04-04T09:24:35.26Z</time></trkpt><trkpt lat="43.7152182" lon="11.8770065"><ele>436.0</ele><time>2026-04-04T09:24:37.259Z</time></trkpt><trkpt lat="43.7151511" lon="11.8769969"><ele>437.0</ele><time>2026-04-04T09:24:38.289Z</time></trkpt><trkpt lat="43.7150547" lon="11.8769024"><ele>438.0</ele><time>2026-04-04T09:24:39.26Z</time></trkpt><trkpt lat="43.714982" lon="11.8767889"><ele>439.0</ele><time>2026-04-04T09:24:40.264Z</time></trkpt><trkpt lat="43.7149486" lon="11.8766394"><ele>440.0</ele><time>2026-04-04T09:24:41.265Z</time></trkpt><trkpt lat="43.7149813" lon="11.8764747"><ele>440.0</ele><time>2026-04-04T09:24:42.261Z</time></trkpt><trkpt lat="43.7150525" lon="11.8763047"><ele>440.0</ele><time>2026-04-04T09:24:43.283Z</time></trkpt><trkpt lat="43.7151392" lon="11.8761107"><ele>440.0</ele><time>2026-04-04T09:24:44.253Z</time></trkpt><trkpt lat="43.7152307" lon="11.8759111"><ele>436.0</ele><time>2026-04-04T09:24:45.253Z</time></trkpt><trkpt lat="43.7153096" lon="11.8757194"><ele>432.0</ele><time>2026-04-04T09:24:46.262Z</time></trkpt><trkpt lat="43.7153613" lon="11.8755391"><ele>428.0</ele><time>2026-04-04T09:24:47.256Z</time></trkpt><trkpt lat="43.7153646" lon="11.8753802"><ele>424.0</ele><time>2026-04-04T09:24:48.259Z</time></trkpt><trkpt lat="43.715332" lon="11.8751915"><ele>422.6666666666667</ele><time>2026-04-04T09:24:49.258Z</time></trkpt><trkpt lat="43.7152618" lon="11.8749798"><ele>421.33333333333337</ele><time>2026-04-04T09:24:50.254Z</time></trkpt><trkpt lat="43.7151837" lon="11.8747445"><ele>420.0</ele><time>2026-04-04T09:24:51.261Z</time></trkpt><trkpt lat="43.7151011" lon="11.8745084"><ele>426.25</ele><time>2026-04-04T09:24:52.264Z</time></trkpt><trkpt lat="43.7150439" lon="11.8742885"><ele>432.5</ele><time>2026-04-04T09:24:53.26Z</time></trkpt><trkpt lat="43.7150026" lon="11.874095"><ele>438.75</ele><time>2026-04-04T09:24:54.261Z</time></trkpt><trkpt lat="43.7149409" lon="11.8739478"><ele>445.0</ele><time>2026-04-04T09:24:55.258Z</time></trkpt><trkpt lat="43.7148646" lon="11.8738001"><ele>445.0</ele><time>2026-04-04T09:24:56.26Z</time></trkpt><trkpt lat="43.7147578" lon="11.8736613"><ele>445.0</ele><time>2026-04-04T09:24:57.274Z</time></trkpt><trkpt lat="43.7146389" lon="11.8735223"><ele>445.0</ele><time>2026-04-04T09:24:58.261Z</time></trkpt><trkpt lat="43.714522" lon="11.8734158"><ele>445.0</ele><time>2026-04-04T09:24:59.273Z</time></trkpt><trkpt lat="43.7144061" lon="11.8733462"><ele>447.0</ele><time>2026-04-04T09:25:00.272Z</time></trkpt><trkpt lat="43.7142808" lon="11.8733266"><ele>449.0</ele><time>2026-04-04T09:25:01.267Z</time></trkpt><trkpt lat="43.7141504" lon="11.8733477"><ele>451.0</ele><time>2026-04-04T09:25:02.27Z</time></trkpt><trkpt lat="43.7140158" lon="11.873371"><ele>453.0</ele><time>2026-04-04T09:25:03.269Z</time></trkpt><trkpt lat="43.7138854" lon="11.8733456"><ele>453.0</ele><time>2026-04-04T09:25:04.271Z</time></trkpt><trkpt lat="43.7137725" lon="11.8732194"><ele>453.0</ele><time>2026-04-04T09:25:05.275Z</time></trkpt><trkpt lat="43.7136692" lon="11.8730682"><ele>453.0</ele><time>2026-04-04T09:25:06.269Z</time></trkpt><trkpt lat="43.7135425" lon="11.8729597"><ele>453.0</ele><time>2026-04-04T09:25:07.265Z</time></trkpt><trkpt lat="43.7133819" lon="11.8728979"><ele>455.66666666666663</ele><time>2026-04-04T09:25:08.263Z</time></trkpt><trkpt lat="43.713191" lon="11.8728392"><ele>458.3333333333333</ele><time>2026-04-04T09:25:09.264Z</time></trkpt><trkpt lat="43.7129875" lon="11.8727462"><ele>461.0</ele><time>2026-04-04T09:25:10.264Z</time></trkpt><trkpt lat="43.7127781" lon="11.8726228"><ele>460.0</ele><time>2026-04-04T09:25:11.259Z</time></trkpt><trkpt lat="43.7125762" lon="11.8725364"><ele>459.0</ele><time>2026-04-04T09:25:12.259Z</time></trkpt><trkpt lat="43.7123772" lon="11.8724767"><ele>458.0</ele><time>2026-04-04T09:25:13.259Z</time></trkpt><trkpt lat="43.7121979" lon="11.8724278"><ele>458.0</ele><time>2026-04-04T09:25:14.258Z</time></trkpt><trkpt lat="43.7120441" lon="11.8724046"><ele>458.0</ele><time>2026-04-04T09:25:15.275Z</time></trkpt><trkpt lat="43.7119213" lon="11.8723746"><ele>458.0</ele><time>2026-04-04T09:25:16.262Z</time></trkpt><trkpt lat="43.7118028" lon="11.87238"><ele>458.0</ele><time>2026-04-04T09:25:17.288Z</time></trkpt><trkpt lat="43.7117046" lon="11.8724157"><ele>460.59999999999997</ele><time>2026-04-04T09:25:18.274Z</time></trkpt><trkpt lat="43.7116092" lon="11.872482"><ele>463.19999999999993</ele><time>2026-04-04T09:25:19.268Z</time></trkpt><trkpt lat="43.7115155" lon="11.8725337"><ele>465.8</ele><time>2026-04-04T09:25:20.281Z</time></trkpt><trkpt lat="43.7114273" lon="11.8725213"><ele>468.4</ele><time>2026-04-04T09:25:21.275Z</time></trkpt><trkpt lat="43.7113619" lon="11.8724058"><ele>471.0</ele><time>2026-04-04T09:25:22.278Z</time></trkpt><trkpt lat="43.71132" lon="11.8722303"><ele>471.0</ele><time>2026-04-04T09:25:23.276Z</time></trkpt><trkpt lat="43.7113238" lon="11.8720464"><ele>471.0</ele><time>2026-04-04T09:25:24.278Z</time></trkpt><trkpt lat="43.7113487" lon="11.8718607"><ele>471.0</ele><time>2026-04-04T09:25:25.269Z</time></trkpt><trkpt lat="43.7113757" lon="11.8716842"><ele>471.0</ele><time>2026-04-04T09:25:26.27Z</time></trkpt><trkpt lat="43.7113883" lon="11.8715406"><ele>472.0</ele><time>2026-04-04T09:25:27.274Z</time></trkpt><trkpt lat="43.7113706" lon="11.8714348"><ele>473.0</ele><time>2026-04-04T09:25:28.268Z</time></trkpt><trkpt lat="43.7113166" lon="11.8713632"><ele>474.0</ele><time>2026-04-04T09:25:29.27Z</time></trkpt><trkpt lat="43.7112314" lon="11.8713073"><ele>475.0</ele><time>2026-04-04T09:25:30.283Z</time></trkpt><trkpt lat="43.7111108" lon="11.8712933"><ele>476.0</ele><time>2026-04-04T09:25:31.268Z</time></trkpt><trkpt lat="43.7109702" lon="11.8713245"><ele>476.0</ele><time>2026-04-04T09:25:32.274Z</time></trkpt><trkpt lat="43.7108291" lon="11.8714021"><ele>476.0</ele><time>2026-04-04T09:25:33.261Z</time></trkpt><trkpt lat="43.7106887" lon="11.8714987"><ele>476.0</ele><time>2026-04-04T09:25:34.266Z</time></trkpt><trkpt lat="43.7105635" lon="11.8716539"><ele>480.25</ele><time>2026-04-04T09:25:35.269Z</time></trkpt><trkpt lat="43.7104579" lon="11.8718011"><ele>484.5</ele><time>2026-04-04T09:25:36.265Z</time></trkpt><trkpt lat="43.7103767" lon="11.8719362"><ele>488.75</ele><time>2026-04-04T09:25:37.27Z</time></trkpt><trkpt lat="43.7103332" lon="11.872088"><ele>493.0</ele><time>2026-04-04T09:25:38.257Z</time></trkpt><trkpt lat="43.7102779" lon="11.8722381"><ele>490.75</ele><time>2026-04-04T09:25:39.256Z</time></trkpt><trkpt lat="43.7102153" lon="11.8723615"><ele>488.5</ele><time>2026-04-04T09:25:40.255Z</time></trkpt><trkpt lat="43.7101277" lon="11.8724553"><ele>486.25</ele><time>2026-04-04T09:25:41.253Z</time></trkpt><trkpt lat="43.7100155" lon="11.8725166"><ele>484.0</ele><time>2026-04-04T09:25:42.259Z</time></trkpt><trkpt lat="43.7098989" lon="11.8725832"><ele>488.0</ele><time>2026-04-04T09:25:43.254Z</time></trkpt><trkpt lat="43.7097806" lon="11.8726484"><ele>492.0</ele><time>2026-04-04T09:25:44.258Z</time></trkpt><trkpt lat="43.7096605" lon="11.8727082"><ele>496.0</ele><time>2026-04-04T09:25:45.257Z</time></trkpt><trkpt lat="43.7095464" lon="11.8727586"><ele>500.0</ele><time>2026-04-04T09:25:46.266Z</time></trkpt><trkpt lat="43.7094207" lon="11.8727734"><ele>499.25</ele><time>2026-04-04T09:25:47.264Z</time></trkpt><trkpt lat="43.7092967" lon="11.8727741"><ele>498.5</ele><time>2026-04-04T09:25:48.272Z</time></trkpt><trkpt lat="43.7091724" lon="11.8727904"><ele>497.75</ele><time>2026-04-04T09:25:49.268Z</time></trkpt><trkpt lat="43.709056" lon="11.8728576"><ele>497.0</ele><time>2026-04-04T09:25:50.273Z</time></trkpt><trkpt lat="43.7089678" lon="11.8729618"><ele>497.0</ele><time>2026-04-04T09:25:51.268Z</time></trkpt><trkpt lat="43.7088978" lon="11.8730931"><ele>497.0</ele><time>2026-04-04T09:25:52.265Z</time></trkpt><trkpt lat="43.7088462" lon="11.8732448"><ele>497.0</ele><time>2026-04-04T09:25:53.262Z</time></trkpt><trkpt lat="43.7087859" lon="11.8733781"><ele>497.0</ele><time>2026-04-04T09:25:54.266Z</time></trkpt><trkpt lat="43.7087066" lon="11.8734964"><ele>498.75</ele><time>2026-04-04T09:25:55.269Z</time></trkpt><trkpt lat="43.7086034" lon="11.8735862"><ele>500.5</ele><time>2026-04-04T09:25:56.264Z</time></trkpt><trkpt lat="43.7084692" lon="11.8736391"><ele>502.25</ele><time>2026-04-04T09:25:57.265Z</time></trkpt><trkpt lat="43.7083327" lon="11.8736587"><ele>504.0</ele><time>2026-04-04T09:25:58.257Z</time></trkpt><trkpt lat="43.7082066" lon="11.8736749"><ele>504.0</ele><time>2026-04-04T09:25:59.262Z</time></trkpt><trkpt lat="43.7080922" lon="11.8737193"><ele>504.0</ele><time>2026-04-04T09:26:00.261Z</time></trkpt><trkpt lat="43.7079862" lon="11.8737894"><ele>504.0</ele><time>2026-04-04T09:26:01.264Z</time></trkpt><trkpt lat="43.7079089" lon="11.8739193"><ele>504.0</ele><time>2026-04-04T09:26:02.263Z</time></trkpt><trkpt lat="43.7078591" lon="11.8741269"><ele>505.5</ele><time>2026-04-04T09:26:03.264Z</time></trkpt><trkpt lat="43.7078195" lon="11.87436"><ele>507.0</ele><time>2026-04-04T09:26:04.263Z</time></trkpt><trkpt lat="43.7077681" lon="11.8745458"><ele>508.5</ele><time>2026-04-04T09:26:05.264Z</time></trkpt><trkpt lat="43.7077051" lon="11.874696"><ele>510.0</ele><time>2026-04-04T09:26:06.263Z</time></trkpt><trkpt lat="43.7076231" lon="11.8747992"><ele>510.0</ele><time>2026-04-04T09:26:07.268Z</time></trkpt><trkpt lat="43.707513" lon="11.8748331"><ele>510.0</ele><time>2026-04-04T09:26:08.266Z</time></trkpt><trkpt lat="43.707386" lon="11.874846"><ele>510.0</ele><time>2026-04-04T09:26:09.267Z</time></trkpt><trkpt lat="43.7072636" lon="11.8748906"><ele>510.0</ele><time>2026-04-04T09:26:10.262Z</time></trkpt><trkpt lat="43.7071481" lon="11.8749719"><ele>510.0</ele><time>2026-04-04T09:26:11.267Z</time></trkpt><trkpt lat="43.7070342" lon="11.8750844"><ele>510.0</ele><time>2026-04-04T09:26:12.27Z</time></trkpt><trkpt lat="43.7069287" lon="11.8752423"><ele>510.0</ele><time>2026-04-04T09:26:13.268Z</time></trkpt><trkpt lat="43.7068408" lon="11.8754226"><ele>509.5</ele><time>2026-04-04T09:26:14.265Z</time></trkpt><trkpt lat="43.7067782" lon="11.8756103"><ele>509.0</ele><time>2026-04-04T09:26:15.272Z</time></trkpt><trkpt lat="43.7067342" lon="11.8757958"><ele>508.5</ele><time>2026-04-04T09:26:16.268Z</time></trkpt><trkpt lat="43.7067224" lon="11.8759787"><ele>508.0</ele><time>2026-04-04T09:26:17.269Z</time></trkpt><trkpt lat="43.7067297" lon="11.8761616"><ele>509.0</ele><time>2026-04-04T09:26:18.265Z</time></trkpt><trkpt lat="43.7067785" lon="11.8763467"><ele>510.0</ele><time>2026-04-04T09:26:19.286Z</time></trkpt><trkpt lat="43.7068243" lon="11.8765296"><ele>511.0</ele><time>2026-04-04T09:26:20.267Z</time></trkpt><trkpt lat="43.7068454" lon="11.8767203"><ele>512.0</ele><time>2026-04-04T09:26:21.272Z</time></trkpt><trkpt lat="43.7068262" lon="11.8769215"><ele>514.0</ele><time>2026-04-04T09:26:22.269Z</time></trkpt><trkpt lat="43.7067602" lon="11.8771213"><ele>516.0</ele><time>2026-04-04T09:26:23.264Z</time></trkpt><trkpt lat="43.7066858" lon="11.8773259"><ele>518.0</ele><time>2026-04-04T09:26:24.269Z</time></trkpt><trkpt lat="43.706647" lon="11.8775406"><ele>519.3333333333333</ele><time>2026-04-04T09:26:25.272Z</time></trkpt><trkpt lat="43.7066477" lon="11.8777611"><ele>520.6666666666666</ele><time>2026-04-04T09:26:26.264Z</time></trkpt><trkpt lat="43.7066654" lon="11.8779739"><ele>522.0</ele><time>2026-04-04T09:26:27.287Z</time></trkpt><trkpt lat="43.7066681" lon="11.878161"><ele>522.0</ele><time>2026-04-04T09:26:28.268Z</time></trkpt><trkpt lat="43.7066676" lon="11.8783157"><ele>522.0</ele><time>2026-04-04T09:26:29.268Z</time></trkpt><trkpt lat="43.7066463" lon="11.8784749"><ele>522.0</ele><time>2026-04-04T09:26:30.261Z</time></trkpt><trkpt lat="43.7065862" lon="11.8786201"><ele>522.0</ele><time>2026-04-04T09:26:31.259Z</time></trkpt><trkpt lat="43.706503" lon="11.8787449"><ele>522.4</ele><time>2026-04-04T09:26:32.267Z</time></trkpt><trkpt lat="43.7063914" lon="11.8788354"><ele>522.8000000000001</ele><time>2026-04-04T09:26:33.271Z</time></trkpt><trkpt lat="43.7062934" lon="11.8789154"><ele>523.2</ele><time>2026-04-04T09:26:34.268Z</time></trkpt><trkpt lat="43.7062117" lon="11.8789751"><ele>523.6</ele><time>2026-04-04T09:26:35.268Z</time></trkpt><trkpt lat="43.7061276" lon="11.8790289"><ele>524.0</ele><time>2026-04-04T09:26:36.268Z</time></trkpt><trkpt lat="43.7060377" lon="11.8790555"><ele>527.25</ele><time>2026-04-04T09:26:37.262Z</time></trkpt><trkpt lat="43.7059511" lon="11.8790015"><ele>530.5</ele><time>2026-04-04T09:26:38.269Z</time></trkpt><trkpt lat="43.7058599" lon="11.8788731"><ele>533.75</ele><time>2026-04-04T09:26:39.257Z</time></trkpt><trkpt lat="43.7057678" lon="11.878736"><ele>537.0</ele><time>2026-04-04T09:26:40.258Z</time></trkpt><trkpt lat="43.7056657" lon="11.8786181"><ele>537.0</ele><time>2026-04-04T09:26:41.261Z</time></trkpt><trkpt lat="43.7055592" lon="11.878532"><ele>537.0</ele><time>2026-04-04T09:26:42.258Z</time></trkpt><trkpt lat="43.7054504" lon="11.8785097"><ele>537.0</ele><time>2026-04-04T09:26:43.264Z</time></trkpt><trkpt lat="43.7053369" lon="11.8785284"><ele>537.0</ele><time>2026-04-04T09:26:44.26Z</time></trkpt><trkpt lat="43.7052198" lon="11.8785466"><ele>536.0</ele><time>2026-04-04T09:26:45.265Z</time></trkpt><trkpt lat="43.7051057" lon="11.8785341"><ele>535.0</ele><time>2026-04-04T09:26:46.267Z</time></trkpt><trkpt lat="43.7050054" lon="11.8784679"><ele>534.0</ele><time>2026-04-04T09:26:47.262Z</time></trkpt><trkpt lat="43.7049094" lon="11.8783222"><ele>533.0</ele><time>2026-04-04T09:26:48.27Z</time></trkpt><trkpt lat="43.7047931" lon="11.8781518"><ele>533.0</ele><time>2026-04-04T09:26:49.264Z</time></trkpt><trkpt lat="43.7046793" lon="11.8779838"><ele>533.0</ele><time>2026-04-04T09:26:50.261Z</time></trkpt><trkpt lat="43.7045683" lon="11.877815"><ele>533.0</ele><time>2026-04-04T09:26:51.263Z</time></trkpt><trkpt lat="43.7044736" lon="11.8776721"><ele>533.1999999999999</ele><time>2026-04-04T09:26:52.264Z</time></trkpt><trkpt lat="43.7043932" lon="11.8775467"><ele>533.4</ele><time>2026-04-04T09:26:53.264Z</time></trkpt><trkpt lat="43.7043151" lon="11.8774598"><ele>533.5999999999999</ele><time>2026-04-04T09:26:54.272Z</time></trkpt><trkpt lat="43.7042244" lon="11.8774143"><ele>533.8</ele><time>2026-04-04T09:26:55.27Z</time></trkpt><trkpt lat="43.7041166" lon="11.8774363"><ele>534.0</ele><time>2026-04-04T09:26:56.279Z</time></trkpt><trkpt lat="43.704002" lon="11.8774798"><ele>534.0</ele><time>2026-04-04T09:26:57.276Z</time></trkpt><trkpt lat="43.7038887" lon="11.8775551"><ele>534.0</ele><time>2026-04-04T09:26:58.273Z</time></trkpt><trkpt lat="43.7037686" lon="11.8776051"><ele>534.0</ele><time>2026-04-04T09:26:59.278Z</time></trkpt><trkpt lat="43.7036578" lon="11.8776315"><ele>534.0</ele><time>2026-04-04T09:27:00.279Z</time></trkpt><trkpt lat="43.7035632" lon="11.8776302"><ele>536.5</ele><time>2026-04-04T09:27:01.267Z</time></trkpt><trkpt lat="43.7034713" lon="11.8775806"><ele>539.0</ele><time>2026-04-04T09:27:02.273Z</time></trkpt><trkpt lat="43.7033868" lon="11.8774731"><ele>541.5</ele><time>2026-04-04T09:27:03.261Z</time></trkpt><trkpt lat="43.7032589" lon="11.8773498"><ele>544.0</ele><time>2026-04-04T09:27:04.264Z</time></trkpt><trkpt lat="43.7031142" lon="11.8772314"><ele>544.0</ele><time>2026-04-04T09:27:05.271Z</time></trkpt><trkpt lat="43.7029334" lon="11.8771055"><ele>544.0</ele><time>2026-04-04T09:27:06.27Z</time></trkpt><trkpt lat="43.7027502" lon="11.8770051"><ele>544.0</ele><time>2026-04-04T09:27:07.276Z</time></trkpt><trkpt lat="43.702569" lon="11.876907"><ele>543.3333333333334</ele><time>2026-04-04T09:27:08.273Z</time></trkpt><trkpt lat="43.7023942" lon="11.876816"><ele>542.6666666666666</ele><time>2026-04-04T09:27:09.273Z</time></trkpt><trkpt lat="43.702227" lon="11.8767301"><ele>542.0</ele><time>2026-04-04T09:27:10.281Z</time></trkpt><trkpt lat="43.7020812" lon="11.8766446"><ele>542.0</ele><time>2026-04-04T09:27:11.284Z</time></trkpt><trkpt lat="43.7019594" lon="11.8765677"><ele>542.0</ele><time>2026-04-04T09:27:12.284Z</time></trkpt><trkpt lat="43.7018494" lon="11.8765118"><ele>542.0</ele><time>2026-04-04T09:27:13.274Z</time></trkpt><trkpt lat="43.7017525" lon="11.8764716"><ele>542.0</ele><time>2026-04-04T09:27:14.276Z</time></trkpt><trkpt lat="43.7016701" lon="11.876439"><ele>542.0</ele><time>2026-04-04T09:27:15.28Z</time></trkpt><trkpt lat="43.7015952" lon="11.8764356"><ele>543.6</ele><time>2026-04-04T09:27:16.285Z</time></trkpt><trkpt lat="43.701527" lon="11.8764639"><ele>545.2</ele><time>2026-04-04T09:27:17.293Z</time></trkpt><trkpt lat="43.7014515" lon="11.8765198"><ele>546.8</ele><time>2026-04-04T09:27:18.295Z</time></trkpt><trkpt lat="43.7013682" lon="11.8766098"><ele>548.4</ele><time>2026-04-04T09:27:19.284Z</time></trkpt><trkpt lat="43.7012676" lon="11.8767555"><ele>550.0</ele><time>2026-04-04T09:27:20.278Z</time></trkpt><trkpt lat="43.7011662" lon="11.8769069"><ele>550.75</ele><time>2026-04-04T09:27:21.273Z</time></trkpt><trkpt lat="43.7010871" lon="11.8770538"><ele>551.5</ele><time>2026-04-04T09:27:22.269Z</time></trkpt><trkpt lat="43.7010297" lon="11.8771917"><ele>552.25</ele><time>2026-04-04T09:27:23.267Z</time></trkpt><trkpt lat="43.7009856" lon="11.877345"><ele>553.0</ele><time>2026-04-04T09:27:24.278Z</time></trkpt><trkpt lat="43.7009452" lon="11.877517"><ele>554.0</ele><time>2026-04-04T09:27:25.277Z</time></trkpt><trkpt lat="43.7009063" lon="11.8777023"><ele>555.0</ele><time>2026-04-04T09:27:26.276Z</time></trkpt><trkpt lat="43.7008636" lon="11.877894"><ele>556.0</ele><time>2026-04-04T09:27:27.286Z</time></trkpt><trkpt lat="43.7008323" lon="11.8780862"><ele>557.0</ele><time>2026-04-04T09:27:28.274Z</time></trkpt><trkpt lat="43.7008248" lon="11.8782538"><ele>557.0</ele><time>2026-04-04T09:27:29.271Z</time></trkpt><trkpt lat="43.7008475" lon="11.8783904"><ele>557.0</ele><time>2026-04-04T09:27:30.275Z</time></trkpt><trkpt lat="43.700904" lon="11.8785408"><ele>557.0</ele><time>2026-04-04T09:27:31.27Z</time></trkpt><trkpt lat="43.7009997" lon="11.8787123"><ele>557.0</ele><time>2026-04-04T09:27:32.272Z</time></trkpt><trkpt lat="43.7010996" lon="11.8789242"><ele>563.0</ele><time>2026-04-04T09:27:33.269Z</time></trkpt><trkpt lat="43.7011737" lon="11.8791667"><ele>569.0</ele><time>2026-04-04T09:27:34.263Z</time></trkpt><trkpt lat="43.7012314" lon="11.8794282"><ele>575.0</ele><time>2026-04-04T09:27:35.264Z</time></trkpt><trkpt lat="43.7012828" lon="11.8796932"><ele>575.3333333333333</ele><time>2026-04-04T09:27:36.265Z</time></trkpt><trkpt lat="43.7013294" lon="11.8799463"><ele>575.6666666666666</ele><time>2026-04-04T09:27:37.266Z</time></trkpt><trkpt lat="43.7013753" lon="11.8801662"><ele>576.0</ele><time>2026-04-04T09:27:38.262Z</time></trkpt><trkpt lat="43.7014118" lon="11.8803566"><ele>576.0</ele><time>2026-04-04T09:27:39.264Z</time></trkpt><trkpt lat="43.701459" lon="11.8805526"><ele>576.0</ele><time>2026-04-04T09:27:40.259Z</time></trkpt><trkpt lat="43.7015156" lon="11.8807331"><ele>576.0</ele><time>2026-04-04T09:27:41.268Z</time></trkpt><trkpt lat="43.7016028" lon="11.8808981"><ele>576.0</ele><time>2026-04-04T09:27:42.266Z</time></trkpt><trkpt lat="43.7017315" lon="11.8810567"><ele>576.0</ele><time>2026-04-04T09:27:43.264Z</time></trkpt><trkpt lat="43.701851" lon="11.8812126"><ele>576.0</ele><time>2026-04-04T09:27:44.265Z</time></trkpt><trkpt lat="43.7019486" lon="11.8813724"><ele>576.0</ele><time>2026-04-04T09:27:45.266Z</time></trkpt><trkpt lat="43.702018" lon="11.8815332"><ele>579.0</ele><time>2026-04-04T09:27:46.264Z</time></trkpt><trkpt lat="43.7020572" lon="11.8816784"><ele>582.0</ele><time>2026-04-04T09:27:47.259Z</time></trkpt><trkpt lat="43.7020719" lon="11.8818215"><ele>585.0</ele><time>2026-04-04T09:27:48.261Z</time></trkpt><trkpt lat="43.7020466" lon="11.8819622"><ele>588.0</ele><time>2026-04-04T09:27:49.261Z</time></trkpt><trkpt lat="43.7019799" lon="11.8820943"><ele>591.0</ele><time>2026-04-04T09:27:50.255Z</time></trkpt><trkpt lat="43.7018899" lon="11.8822002"><ele>591.25</ele><time>2026-04-04T09:27:51.266Z</time></trkpt><trkpt lat="43.7017827" lon="11.8822798"><ele>591.5</ele><time>2026-04-04T09:27:52.253Z</time></trkpt><trkpt lat="43.7016699" lon="11.8823345"><ele>591.75</ele><time>2026-04-04T09:27:53.256Z</time></trkpt><trkpt lat="43.7015229" lon="11.8823195"><ele>592.0</ele><time>2026-04-04T09:27:54.268Z</time></trkpt><trkpt lat="43.7013728" lon="11.8823109"><ele>592.0</ele><time>2026-04-04T09:27:55.272Z</time></trkpt><trkpt lat="43.7012128" lon="11.8823277"><ele>592.0</ele><time>2026-04-04T09:27:56.266Z</time></trkpt><trkpt lat="43.701063" lon="11.8824014"><ele>592.0</ele><time>2026-04-04T09:27:57.267Z</time></trkpt><trkpt lat="43.7009656" lon="11.8825329"><ele>593.8000000000001</ele><time>2026-04-04T09:27:58.252Z</time></trkpt><trkpt lat="43.7009109" lon="11.8826903"><ele>595.6</ele><time>2026-04-04T09:27:59.256Z</time></trkpt><trkpt lat="43.7008974" lon="11.8828581"><ele>597.4000000000001</ele><time>2026-04-04T09:28:00.26Z</time></trkpt><trkpt lat="43.7008736" lon="11.8829884"><ele>599.2</ele><time>2026-04-04T09:28:01.263Z</time></trkpt><trkpt lat="43.7008178" lon="11.8831036"><ele>601.0</ele><time>2026-04-04T09:28:02.26Z</time></trkpt><trkpt lat="43.7007623" lon="11.8831922"><ele>601.0</ele><time>2026-04-04T09:28:03.252Z</time></trkpt><trkpt lat="43.7007116" lon="11.8832515"><ele>601.0</ele><time>2026-04-04T09:28:04.257Z</time></trkpt><trkpt lat="43.700574" lon="11.8832122"><ele>601.0</ele><time>2026-04-04T09:28:06.269Z</time></trkpt><trkpt lat="43.7004477" lon="11.8831392"><ele>601.0</ele><time>2026-04-04T09:28:07.266Z</time></trkpt><trkpt lat="43.7003057" lon="11.883095"><ele>602.0</ele><time>2026-04-04T09:28:08.263Z</time></trkpt><trkpt lat="43.7001669" lon="11.883059"><ele>603.0</ele><time>2026-04-04T09:28:09.269Z</time></trkpt><trkpt lat="43.7000126" lon="11.8830587"><ele>604.0</ele><time>2026-04-04T09:28:10.274Z</time></trkpt><trkpt lat="43.6998793" lon="11.8831296"><ele>605.0</ele><time>2026-04-04T09:28:11.253Z</time></trkpt><trkpt lat="43.6997548" lon="11.8832272"><ele>605.0</ele><time>2026-04-04T09:28:12.253Z</time></trkpt><trkpt lat="43.6996024" lon="11.8832773"><ele>605.0</ele><time>2026-04-04T09:28:13.256Z</time></trkpt><trkpt lat="43.699466" lon="11.8832768"><ele>605.0</ele><time>2026-04-04T09:28:14.257Z</time></trkpt><trkpt lat="43.6993576" lon="11.8832696"><ele>605.0</ele><time>2026-04-04T09:28:15.256Z</time></trkpt><trkpt lat="43.6992801" lon="11.8833374"><ele>605.75</ele><time>2026-04-04T09:28:16.265Z</time></trkpt><trkpt lat="43.6992304" lon="11.8834982"><ele>606.5</ele><time>2026-04-04T09:28:17.267Z</time></trkpt><trkpt lat="43.6991979" lon="11.8836801"><ele>607.25</ele><time>2026-04-04T09:28:18.265Z</time></trkpt><trkpt lat="43.6991591" lon="11.8838662"><ele>608.0</ele><time>2026-04-04T09:28:19.258Z</time></trkpt><trkpt lat="43.699139" lon="11.8840426"><ele>608.0</ele><time>2026-04-04T09:28:20.265Z</time></trkpt><trkpt lat="43.6991791" lon="11.8842138"><ele>608.0</ele><time>2026-04-04T09:28:21.269Z</time></trkpt><trkpt lat="43.6992351" lon="11.8843818"><ele>608.0</ele><time>2026-04-04T09:28:22.273Z</time></trkpt><trkpt lat="43.699293" lon="11.8845373"><ele>608.0</ele><time>2026-04-04T09:28:23.264Z</time></trkpt><trkpt lat="43.6993007" lon="11.8847353"><ele>609.0</ele><time>2026-04-04T09:28:24.265Z</time></trkpt><trkpt lat="43.6992537" lon="11.8849738"><ele>610.0</ele><time>2026-04-04T09:28:25.255Z</time></trkpt><trkpt lat="43.6991895" lon="11.8852045"><ele>611.0</ele><time>2026-04-04T09:28:26.254Z</time></trkpt><trkpt lat="43.6991243" lon="11.88543"><ele>611.5</ele><time>2026-04-04T09:28:27.255Z</time></trkpt><trkpt lat="43.6990791" lon="11.885623"><ele>612.0</ele><time>2026-04-04T09:28:28.254Z</time></trkpt><trkpt lat="43.6990582" lon="11.8857916"><ele>612.5</ele><time>2026-04-04T09:28:29.254Z</time></trkpt><trkpt lat="43.6990889" lon="11.8860046"><ele>613.0</ele><time>2026-04-04T09:28:30.264Z</time></trkpt><trkpt lat="43.6991537" lon="11.8862373"><ele>613.6666666666667</ele><time>2026-04-04T09:28:31.253Z</time></trkpt><trkpt lat="43.6992292" lon="11.8864556"><ele>614.3333333333334</ele><time>2026-04-04T09:28:32.252Z</time></trkpt><trkpt lat="43.6992795" lon="11.8866866"><ele>615.0</ele><time>2026-04-04T09:28:33.255Z</time></trkpt><trkpt lat="43.6993075" lon="11.8869237"><ele>617.0</ele><time>2026-04-04T09:28:34.251Z</time></trkpt><trkpt lat="43.6993117" lon="11.8871691"><ele>619.0</ele><time>2026-04-04T09:28:35.253Z</time></trkpt><trkpt lat="43.6992906" lon="11.8874152"><ele>621.0</ele><time>2026-04-04T09:28:36.254Z</time></trkpt><trkpt lat="43.6992544" lon="11.8876493"><ele>624.3333333333334</ele><time>2026-04-04T09:28:37.253Z</time></trkpt><trkpt lat="43.6992021" lon="11.887874"><ele>627.6666666666667</ele><time>2026-04-04T09:28:38.252Z</time></trkpt><trkpt lat="43.6991185" lon="11.8880913"><ele>631.0</ele><time>2026-04-04T09:28:39.259Z</time></trkpt><trkpt lat="43.6990221" lon="11.8882721"><ele>633.25</ele><time>2026-04-04T09:28:40.255Z</time></trkpt><trkpt lat="43.6989543" lon="11.8884278"><ele>635.5</ele><time>2026-04-04T09:28:41.268Z</time></trkpt><trkpt lat="43.6989195" lon="11.888614"><ele>637.75</ele><time>2026-04-04T09:28:42.267Z</time></trkpt><trkpt lat="43.6989058" lon="11.8888284"><ele>640.0</ele><time>2026-04-04T09:28:43.266Z</time></trkpt><trkpt lat="43.6988877" lon="11.8890041"><ele>640.0</ele><time>2026-04-04T09:28:44.271Z</time></trkpt><trkpt lat="43.6988792" lon="11.8891443"><ele>640.0</ele><time>2026-04-04T09:28:45.267Z</time></trkpt><trkpt lat="43.6989169" lon="11.8893002"><ele>640.0</ele><time>2026-04-04T09:28:46.269Z</time></trkpt><trkpt lat="43.6989967" lon="11.8894583"><ele>640.0</ele><time>2026-04-04T09:28:47.258Z</time></trkpt><trkpt lat="43.6990521" lon="11.8896482"><ele>640.5</ele><time>2026-04-04T09:28:48.259Z</time></trkpt><trkpt lat="43.6990709" lon="11.8898366"><ele>641.0</ele><time>2026-04-04T09:28:49.265Z</time></trkpt><trkpt lat="43.699039" lon="11.8900167"><ele>641.5</ele><time>2026-04-04T09:28:50.257Z</time></trkpt><trkpt lat="43.6989811" lon="11.8902086"><ele>642.0</ele><time>2026-04-04T09:28:51.261Z</time></trkpt><trkpt lat="43.6989007" lon="11.8904235"><ele>644.6666666666666</ele><time>2026-04-04T09:28:52.261Z</time></trkpt><trkpt lat="43.6988123" lon="11.8906701"><ele>647.3333333333333</ele><time>2026-04-04T09:28:53.269Z</time></trkpt><trkpt lat="43.6987297" lon="11.8909284"><ele>650.0</ele><time>2026-04-04T09:28:54.256Z</time></trkpt><trkpt lat="43.698632" lon="11.8911569"><ele>648.0</ele><time>2026-04-04T09:28:55.26Z</time></trkpt><trkpt lat="43.6985267" lon="11.8913541"><ele>646.0</ele><time>2026-04-04T09:28:56.263Z</time></trkpt><trkpt lat="43.6984462" lon="11.8915085"><ele>644.0</ele><time>2026-04-04T09:28:57.266Z</time></trkpt><trkpt lat="43.6983977" lon="11.8916623"><ele>642.0</ele><time>2026-04-04T09:28:58.266Z</time></trkpt><trkpt lat="43.698394" lon="11.8917804"><ele>642.0</ele><time>2026-04-04T09:28:59.266Z</time></trkpt><trkpt lat="43.6984408" lon="11.8919252"><ele>642.0</ele><time>2026-04-04T09:29:00.266Z</time></trkpt><trkpt lat="43.6985048" lon="11.892073"><ele>642.0</ele><time>2026-04-04T09:29:01.261Z</time></trkpt><trkpt lat="43.6985738" lon="11.892235"><ele>642.0</ele><time>2026-04-04T09:29:02.264Z</time></trkpt><trkpt lat="43.6986162" lon="11.8924028"><ele>641.75</ele><time>2026-04-04T09:29:03.272Z</time></trkpt><trkpt lat="43.6986195" lon="11.8925823"><ele>641.5</ele><time>2026-04-04T09:29:04.27Z</time></trkpt><trkpt lat="43.698577" lon="11.8927528"><ele>641.25</ele><time>2026-04-04T09:29:05.287Z</time></trkpt><trkpt lat="43.6985248" lon="11.8929205"><ele>641.0</ele><time>2026-04-04T09:29:06.269Z</time></trkpt><trkpt lat="43.6985075" lon="11.893089"><ele>641.0</ele><time>2026-04-04T09:29:07.275Z</time></trkpt><trkpt lat="43.6985345" lon="11.8932444"><ele>641.0</ele><time>2026-04-04T09:29:08.269Z</time></trkpt><trkpt lat="43.6986136" lon="11.8933903"><ele>641.0</ele><time>2026-04-04T09:29:09.271Z</time></trkpt><trkpt lat="43.6987245" lon="11.8935552"><ele>641.0</ele><time>2026-04-04T09:29:10.274Z</time></trkpt><trkpt lat="43.6988727" lon="11.8937637"><ele>645.6666666666666</ele><time>2026-04-04T09:29:11.276Z</time></trkpt><trkpt lat="43.6989882" lon="11.8940181"><ele>650.3333333333334</ele><time>2026-04-04T09:29:12.297Z</time></trkpt><trkpt lat="43.6990712" lon="11.8942777"><ele>655.0</ele><time>2026-04-04T09:29:13.271Z</time></trkpt><trkpt lat="43.6991529" lon="11.8945252"><ele>655.0</ele><time>2026-04-04T09:29:14.269Z</time></trkpt><trkpt lat="43.6992463" lon="11.894755"><ele>655.0</ele><time>2026-04-04T09:29:15.267Z</time></trkpt><trkpt lat="43.6993488" lon="11.8949684"><ele>655.0</ele><time>2026-04-04T09:29:16.27Z</time></trkpt><trkpt lat="43.699444" lon="11.8951983"><ele>662.3333333333334</ele><time>2026-04-04T09:29:17.27Z</time></trkpt><trkpt lat="43.6995121" lon="11.8954358"><ele>669.6666666666666</ele><time>2026-04-04T09:29:18.27Z</time></trkpt><trkpt lat="43.6995705" lon="11.8956822"><ele>677.0</ele><time>2026-04-04T09:29:19.278Z</time></trkpt><trkpt lat="43.6995824" lon="11.8959241"><ele>679.0</ele><time>2026-04-04T09:29:20.27Z</time></trkpt><trkpt lat="43.6995711" lon="11.896122"><ele>681.0</ele><time>2026-04-04T09:29:21.269Z</time></trkpt><trkpt lat="43.69957" lon="11.8962937"><ele>683.0</ele><time>2026-04-04T09:29:22.268Z</time></trkpt><trkpt lat="43.6995711" lon="11.8964372"><ele>685.0</ele><time>2026-04-04T09:29:23.268Z</time></trkpt><trkpt lat="43.6995459" lon="11.8965512"><ele>685.0</ele><time>2026-04-04T09:29:24.275Z</time></trkpt><trkpt lat="43.6994762" lon="11.8966303"><ele>685.0</ele><time>2026-04-04T09:29:25.266Z</time></trkpt><trkpt lat="43.6993916" lon="11.8967033"><ele>685.0</ele><time>2026-04-04T09:29:26.272Z</time></trkpt><trkpt lat="43.6992595" lon="11.8967086"><ele>685.0</ele><time>2026-04-04T09:29:27.267Z</time></trkpt><trkpt lat="43.6990839" lon="11.8966741"><ele>680.6666666666667</ele><time>2026-04-04T09:29:28.266Z</time></trkpt><trkpt lat="43.6988954" lon="11.8966634"><ele>676.3333333333334</ele><time>2026-04-04T09:29:29.268Z</time></trkpt><trkpt lat="43.6987302" lon="11.8966722"><ele>672.0</ele><time>2026-04-04T09:29:30.266Z</time></trkpt><trkpt lat="43.6985893" lon="11.89669"><ele>672.2</ele><time>2026-04-04T09:29:31.277Z</time></trkpt><trkpt lat="43.6984667" lon="11.8967248"><ele>672.4000000000001</ele><time>2026-04-04T09:29:32.266Z</time></trkpt><trkpt lat="43.6983666" lon="11.8967925"><ele>672.5999999999999</ele><time>2026-04-04T09:29:33.265Z</time></trkpt><trkpt lat="43.6982875" lon="11.8968763"><ele>672.8</ele><time>2026-04-04T09:29:34.267Z</time></trkpt><trkpt lat="43.6982251" lon="11.8969753"><ele>673.0</ele><time>2026-04-04T09:29:35.267Z</time></trkpt><trkpt lat="43.6981868" lon="11.8970985"><ele>674.2</ele><time>2026-04-04T09:29:36.27Z</time></trkpt><trkpt lat="43.6981792" lon="11.8972353"><ele>675.4</ele><time>2026-04-04T09:29:37.269Z</time></trkpt><trkpt lat="43.6981839" lon="11.8973689"><ele>676.6</ele><time>2026-04-04T09:29:38.291Z</time></trkpt><trkpt lat="43.6982099" lon="11.8975009"><ele>677.8000000000001</ele><time>2026-04-04T09:29:39.275Z</time></trkpt><trkpt lat="43.6982568" lon="11.8976096"><ele>679.0</ele><time>2026-04-04T09:29:40.276Z</time></trkpt><trkpt lat="43.6983067" lon="11.8976853"><ele>681.75</ele><time>2026-04-04T09:29:41.273Z</time></trkpt><trkpt lat="43.6983906" lon="11.8977479"><ele>684.5</ele><time>2026-04-04T09:29:43.268Z</time></trkpt><trkpt lat="43.6984731" lon="11.8977573"><ele>687.25</ele><time>2026-04-04T09:30:58.273Z</time></trkpt><trkpt lat="43.6986275" lon="11.8977533"><ele>690.0</ele><time>2026-04-04T09:31:00.261Z</time></trkpt><trkpt lat="43.6987497" lon="11.8977395"><ele>691.25</ele><time>2026-04-04T09:31:01.262Z</time></trkpt><trkpt lat="43.698879" lon="11.8977229"><ele>692.5</ele><time>2026-04-04T09:31:02.261Z</time></trkpt><trkpt lat="43.6990048" lon="11.8977291"><ele>693.75</ele><time>2026-04-04T09:31:03.257Z</time></trkpt><trkpt lat="43.699124" lon="11.8977634"><ele>695.0</ele><time>2026-04-04T09:31:04.259Z</time></trkpt><trkpt lat="43.6992256" lon="11.8978084"><ele>695.0</ele><time>2026-04-04T09:31:05.254Z</time></trkpt><trkpt lat="43.6993225" lon="11.8978489"><ele>695.0</ele><time>2026-04-04T09:31:06.254Z</time></trkpt><trkpt lat="43.6994163" lon="11.8978652"><ele>695.0</ele><time>2026-04-04T09:31:07.256Z</time></trkpt><trkpt lat="43.6995133" lon="11.8978346"><ele>695.0</ele><time>2026-04-04T09:31:08.267Z</time></trkpt><trkpt lat="43.6996193" lon="11.8977688"><ele>695.0</ele><time>2026-04-04T09:31:09.265Z</time></trkpt><trkpt lat="43.6997314" lon="11.8976912"><ele>695.25</ele><time>2026-04-04T09:31:10.266Z</time></trkpt><trkpt lat="43.6998499" lon="11.8976134"><ele>695.5</ele><time>2026-04-04T09:31:11.259Z</time></trkpt><trkpt lat="43.6999559" lon="11.8975316"><ele>695.75</ele><time>2026-04-04T09:31:12.262Z</time></trkpt><trkpt lat="43.7000538" lon="11.8974402"><ele>696.0</ele><time>2026-04-04T09:31:13.26Z</time></trkpt><trkpt lat="43.7001447" lon="11.8973122"><ele>696.0</ele><time>2026-04-04T09:31:14.261Z</time></trkpt><trkpt lat="43.7002448" lon="11.8971342"><ele>696.0</ele><time>2026-04-04T09:31:15.26Z</time></trkpt><trkpt lat="43.7003418" lon="11.896915"><ele>696.0</ele><time>2026-04-04T09:31:16.261Z</time></trkpt><trkpt lat="43.7004223" lon="11.8966776"><ele>701.6666666666666</ele><time>2026-04-04T09:31:17.262Z</time></trkpt><trkpt lat="43.7004944" lon="11.8964469"><ele>707.3333333333333</ele><time>2026-04-04T09:31:18.261Z</time></trkpt><trkpt lat="43.700556" lon="11.8962474"><ele>713.0</ele><time>2026-04-04T09:31:19.284Z</time></trkpt><trkpt lat="43.7006136" lon="11.8960754"><ele>710.5</ele><time>2026-04-04T09:31:20.261Z</time></trkpt><trkpt lat="43.7006665" lon="11.8959196"><ele>708.0</ele><time>2026-04-04T09:31:21.262Z</time></trkpt><trkpt lat="43.700738" lon="11.8957727"><ele>705.5</ele><time>2026-04-04T09:31:22.258Z</time></trkpt><trkpt lat="43.7008253" lon="11.8956221"><ele>703.0</ele><time>2026-04-04T09:31:23.258Z</time></trkpt><trkpt lat="43.7009467" lon="11.8954669"><ele>703.0</ele><time>2026-04-04T09:31:24.268Z</time></trkpt><trkpt lat="43.701064" lon="11.8953143"><ele>703.0</ele><time>2026-04-04T09:31:25.256Z</time></trkpt><trkpt lat="43.7011593" lon="11.8951689"><ele>703.0</ele><time>2026-04-04T09:31:26.257Z</time></trkpt><trkpt lat="43.7012312" lon="11.8950442"><ele>703.0</ele><time>2026-04-04T09:31:27.27Z</time></trkpt><trkpt lat="43.7012856" lon="11.8949248"><ele>707.5</ele><time>2026-04-04T09:31:28.261Z</time></trkpt><trkpt lat="43.701326" lon="11.8947946"><ele>712.0</ele><time>2026-04-04T09:31:29.257Z</time></trkpt><trkpt lat="43.7013401" lon="11.8946379"><ele>716.5</ele><time>2026-04-04T09:31:30.256Z</time></trkpt><trkpt lat="43.7013294" lon="11.8944202"><ele>721.0</ele><time>2026-04-04T09:31:31.253Z</time></trkpt><trkpt lat="43.7013517" lon="11.8942107"><ele>721.0</ele><time>2026-04-04T09:31:32.271Z</time></trkpt><trkpt lat="43.7013951" lon="11.8940348"><ele>721.0</ele><time>2026-04-04T09:31:33.253Z</time></trkpt><trkpt lat="43.7014413" lon="11.8938892"><ele>721.0</ele><time>2026-04-04T09:31:34.253Z</time></trkpt><trkpt lat="43.7014744" lon="11.8937688"><ele>721.0</ele><time>2026-04-04T09:31:35.258Z</time></trkpt><trkpt lat="43.7014632" lon="11.8936684"><ele>721.0</ele><time>2026-04-04T09:31:36.256Z</time></trkpt><trkpt lat="43.7014207" lon="11.8935591"><ele>721.0</ele><time>2026-04-04T09:31:37.271Z</time></trkpt><trkpt lat="43.7013589" lon="11.8934277"><ele>721.0</ele><time>2026-04-04T09:31:38.257Z</time></trkpt><trkpt lat="43.7012956" lon="11.8932773"><ele>721.0</ele><time>2026-04-04T09:31:39.26Z</time></trkpt><trkpt lat="43.7012553" lon="11.8931187"><ele>721.0</ele><time>2026-04-04T09:31:40.264Z</time></trkpt><trkpt lat="43.7012472" lon="11.8929649"><ele>721.5</ele><time>2026-04-04T09:31:41.263Z</time></trkpt><trkpt lat="43.7012623" lon="11.89281"><ele>722.0</ele><time>2026-04-04T09:31:42.263Z</time></trkpt><trkpt lat="43.7013139" lon="11.8926494"><ele>722.5</ele><time>2026-04-04T09:31:43.29Z</time></trkpt><trkpt lat="43.7014051" lon="11.8924604"><ele>723.0</ele><time>2026-04-04T09:31:44.266Z</time></trkpt><trkpt lat="43.7015523" lon="11.8922441"><ele>721.0</ele><time>2026-04-04T09:31:45.264Z</time></trkpt><trkpt lat="43.7016794" lon="11.8920607"><ele>719.0</ele><time>2026-04-04T09:31:46.267Z</time></trkpt><trkpt lat="43.7017968" lon="11.8918895"><ele>717.0</ele><time>2026-04-04T09:31:47.264Z</time></trkpt><trkpt lat="43.7018734" lon="11.8917265"><ele>716.0</ele><time>2026-04-04T09:31:48.263Z</time></trkpt><trkpt lat="43.7019036" lon="11.8915646"><ele>715.0</ele><time>2026-04-04T09:31:49.261Z</time></trkpt><trkpt lat="43.7018949" lon="11.8914012"><ele>714.0</ele><time>2026-04-04T09:31:50.258Z</time></trkpt><trkpt lat="43.7018682" lon="11.8912251"><ele>713.0</ele><time>2026-04-04T09:31:51.266Z</time></trkpt><trkpt lat="43.7018613" lon="11.8910551"><ele>713.0</ele><time>2026-04-04T09:31:52.273Z</time></trkpt><trkpt lat="43.7018993" lon="11.8909127"><ele>713.0</ele><time>2026-04-04T09:31:53.269Z</time></trkpt><trkpt lat="43.7019604" lon="11.8907836"><ele>713.0</ele><time>2026-04-04T09:31:54.261Z</time></trkpt><trkpt lat="43.7020439" lon="11.890674"><ele>713.0</ele><time>2026-04-04T09:31:55.265Z</time></trkpt><trkpt lat="43.7021416" lon="11.8906159"><ele>713.0</ele><time>2026-04-04T09:31:56.264Z</time></trkpt><trkpt lat="43.7022366" lon="11.890577"><ele>715.25</ele><time>2026-04-04T09:31:57.268Z</time></trkpt><trkpt lat="43.7023438" lon="11.8905718"><ele>717.5</ele><time>2026-04-04T09:31:58.28Z</time></trkpt><trkpt lat="43.7024592" lon="11.8906384"><ele>719.75</ele><time>2026-04-04T09:31:59.27Z</time></trkpt><trkpt lat="43.7025744" lon="11.8907679"><ele>722.0</ele><time>2026-04-04T09:32:00.27Z</time></trkpt><trkpt lat="43.7026423" lon="11.8909389"><ele>723.0</ele><time>2026-04-04T09:32:01.264Z</time></trkpt><trkpt lat="43.7026852" lon="11.8911355"><ele>724.0</ele><time>2026-04-04T09:32:02.269Z</time></trkpt><trkpt lat="43.7026845" lon="11.8913433"><ele>725.0</ele><time>2026-04-04T09:32:03.271Z</time></trkpt><trkpt lat="43.702633" lon="11.8915429"><ele>725.0</ele><time>2026-04-04T09:32:04.271Z</time></trkpt><trkpt lat="43.7025484" lon="11.8917252"><ele>725.0</ele><time>2026-04-04T09:32:05.27Z</time></trkpt><trkpt lat="43.702473" lon="11.8918941"><ele>725.0</ele><time>2026-04-04T09:32:06.271Z</time></trkpt><trkpt lat="43.7024031" lon="11.8920671"><ele>725.0</ele><time>2026-04-04T09:32:07.275Z</time></trkpt><trkpt lat="43.7023517" lon="11.8922562"><ele>725.3333333333333</ele><time>2026-04-04T09:32:08.274Z</time></trkpt><trkpt lat="43.7023277" lon="11.8924638"><ele>725.6666666666666</ele><time>2026-04-04T09:32:09.271Z</time></trkpt><trkpt lat="43.7023254" lon="11.8926824"><ele>726.0</ele><time>2026-04-04T09:32:10.268Z</time></trkpt><trkpt lat="43.7023435" lon="11.8928988"><ele>727.6666666666666</ele><time>2026-04-04T09:32:11.267Z</time></trkpt><trkpt lat="43.702377" lon="11.8931213"><ele>729.3333333333333</ele><time>2026-04-04T09:32:12.271Z</time></trkpt><trkpt lat="43.7024247" lon="11.893326"><ele>731.0</ele><time>2026-04-04T09:32:13.27Z</time></trkpt><trkpt lat="43.7024662" lon="11.8935074"><ele>732.25</ele><time>2026-04-04T09:32:14.273Z</time></trkpt><trkpt lat="43.7024924" lon="11.8936936"><ele>733.5</ele><time>2026-04-04T09:32:15.273Z</time></trkpt><trkpt lat="43.7024729" lon="11.8938807"><ele>734.75</ele><time>2026-04-04T09:32:16.278Z</time></trkpt><trkpt lat="43.702425" lon="11.8940418"><ele>736.0</ele><time>2026-04-04T09:32:17.271Z</time></trkpt><trkpt lat="43.7023507" lon="11.8942095"><ele>739.3333333333334</ele><time>2026-04-04T09:32:18.268Z</time></trkpt><trkpt lat="43.7022506" lon="11.8943836"><ele>742.6666666666666</ele><time>2026-04-04T09:32:19.279Z</time></trkpt><trkpt lat="43.7021448" lon="11.8945299"><ele>746.0</ele><time>2026-04-04T09:32:20.264Z</time></trkpt><trkpt lat="43.7020482" lon="11.8946973"><ele>746.0</ele><time>2026-04-04T09:32:21.266Z</time></trkpt><trkpt lat="43.7019899" lon="11.8948789"><ele>746.0</ele><time>2026-04-04T09:32:22.269Z</time></trkpt><trkpt lat="43.701956" lon="11.8950598"><ele>746.0</ele><time>2026-04-04T09:32:23.266Z</time></trkpt><trkpt lat="43.7019473" lon="11.8952445"><ele>746.0</ele><time>2026-04-04T09:32:24.278Z</time></trkpt><trkpt lat="43.701957" lon="11.8954405"><ele>749.3333333333333</ele><time>2026-04-04T09:32:25.265Z</time></trkpt><trkpt lat="43.7019758" lon="11.8956358"><ele>752.6666666666666</ele><time>2026-04-04T09:32:26.26Z</time></trkpt><trkpt lat="43.7019734" lon="11.8958514"><ele>756.0</ele><time>2026-04-04T09:32:27.261Z</time></trkpt><trkpt lat="43.7019337" lon="11.8960685"><ele>751.6666666666666</ele><time>2026-04-04T09:32:28.257Z</time></trkpt><trkpt lat="43.7019099" lon="11.8962841"><ele>747.3333333333333</ele><time>2026-04-04T09:32:29.265Z</time></trkpt><trkpt lat="43.7019019" lon="11.8965113"><ele>743.0</ele><time>2026-04-04T09:32:30.258Z</time></trkpt><trkpt lat="43.7019065" lon="11.8967451"><ele>751.6666666666666</ele><time>2026-04-04T09:32:31.259Z</time></trkpt><trkpt lat="43.7019267" lon="11.8969799"><ele>760.3333333333333</ele><time>2026-04-04T09:32:32.258Z</time></trkpt><trkpt lat="43.7019622" lon="11.8972068"><ele>769.0</ele><time>2026-04-04T09:32:33.26Z</time></trkpt><trkpt lat="43.7019916" lon="11.8974206"><ele>769.75</ele><time>2026-04-04T09:32:34.265Z</time></trkpt><trkpt lat="43.7020128" lon="11.8976204"><ele>770.5</ele><time>2026-04-04T09:32:35.255Z</time></trkpt><trkpt lat="43.7020329" lon="11.897802"><ele>771.25</ele><time>2026-04-04T09:32:36.255Z</time></trkpt><trkpt lat="43.7020633" lon="11.8979678"><ele>772.0</ele><time>2026-04-04T09:32:37.257Z</time></trkpt><trkpt lat="43.7021108" lon="11.8981366"><ele>772.0</ele><time>2026-04-04T09:32:38.262Z</time></trkpt><trkpt lat="43.7021716" lon="11.8983139"><ele>772.0</ele><time>2026-04-04T09:32:39.272Z</time></trkpt><trkpt lat="43.7022501" lon="11.8985022"><ele>772.0</ele><time>2026-04-04T09:32:40.259Z</time></trkpt><trkpt lat="43.7023094" lon="11.8986666"><ele>772.0</ele><time>2026-04-04T09:32:41.254Z</time></trkpt><trkpt lat="43.7023353" lon="11.8988372"><ele>772.25</ele><time>2026-04-04T09:32:42.257Z</time></trkpt><trkpt lat="43.7023136" lon="11.8990127"><ele>772.5</ele><time>2026-04-04T09:32:43.255Z</time></trkpt><trkpt lat="43.7023068" lon="11.8991968"><ele>772.75</ele><time>2026-04-04T09:32:44.265Z</time></trkpt><trkpt lat="43.7023165" lon="11.8993691"><ele>773.0</ele><time>2026-04-04T09:32:45.257Z</time></trkpt><trkpt lat="43.7023171" lon="11.8995194"><ele>773.4</ele><time>2026-04-04T09:32:46.259Z</time></trkpt><trkpt lat="43.7022832" lon="11.8996663"><ele>773.8</ele><time>2026-04-04T09:32:47.265Z</time></trkpt><trkpt lat="43.7022492" lon="11.899812"><ele>774.2</ele><time>2026-04-04T09:32:48.263Z</time></trkpt><trkpt lat="43.7022436" lon="11.8999312"><ele>774.6</ele><time>2026-04-04T09:32:49.266Z</time></trkpt><trkpt lat="43.7022709" lon="11.9000593"><ele>775.0</ele><time>2026-04-04T09:32:50.262Z</time></trkpt><trkpt lat="43.7023117" lon="11.9002036"><ele>776.0</ele><time>2026-04-04T09:32:51.271Z</time></trkpt><trkpt lat="43.7023521" lon="11.9003629"><ele>777.0</ele><time>2026-04-04T09:32:52.261Z</time></trkpt><trkpt lat="43.7023645" lon="11.9005413"><ele>778.0</ele><time>2026-04-04T09:32:53.282Z</time></trkpt><trkpt lat="43.7023387" lon="11.9007239"><ele>779.0</ele><time>2026-04-04T09:32:54.258Z</time></trkpt><trkpt lat="43.7023149" lon="11.9008921"><ele>781.0</ele><time>2026-04-04T09:32:55.259Z</time></trkpt><trkpt lat="43.7022964" lon="11.9010433"><ele>783.0</ele><time>2026-04-04T09:32:56.259Z</time></trkpt><trkpt lat="43.7022823" lon="11.9011967"><ele>785.0</ele><time>2026-04-04T09:32:57.266Z</time></trkpt><trkpt lat="43.702254" lon="11.901352"><ele>787.0</ele><time>2026-04-04T09:32:58.266Z</time></trkpt><trkpt lat="43.7022066" lon="11.9014879"><ele>789.0</ele><time>2026-04-04T09:32:59.261Z</time></trkpt><trkpt lat="43.7021344" lon="11.9015813"><ele>789.0</ele><time>2026-04-04T09:33:00.269Z</time></trkpt><trkpt lat="43.7020339" lon="11.9016172"><ele>789.0</ele><time>2026-04-04T09:33:01.269Z</time></trkpt><trkpt lat="43.7019361" lon="11.9016765"><ele>789.0</ele><time>2026-04-04T09:33:02.262Z</time></trkpt><trkpt lat="43.7018562" lon="11.901769"><ele>789.0</ele><time>2026-04-04T09:33:03.264Z</time></trkpt><trkpt lat="43.7017819" lon="11.9019136"><ele>789.0</ele><time>2026-04-04T09:33:04.26Z</time></trkpt><trkpt lat="43.7016933" lon="11.902073"><ele>789.0</ele><time>2026-04-04T09:33:05.255Z</time></trkpt><trkpt lat="43.7015749" lon="11.9022404"><ele>789.0</ele><time>2026-04-04T09:33:06.256Z</time></trkpt><trkpt lat="43.7014576" lon="11.9023719"><ele>789.0</ele><time>2026-04-04T09:33:07.255Z</time></trkpt><trkpt lat="43.7013736" lon="11.9025059"><ele>789.0</ele><time>2026-04-04T09:33:08.258Z</time></trkpt><trkpt lat="43.7012901" lon="11.9026176"><ele>792.5</ele><time>2026-04-04T09:33:09.257Z</time></trkpt><trkpt lat="43.7011963" lon="11.9027023"><ele>796.0</ele><time>2026-04-04T09:33:10.255Z</time></trkpt><trkpt lat="43.7010751" lon="11.9027446"><ele>799.5</ele><time>2026-04-04T09:33:11.256Z</time></trkpt><trkpt lat="43.7009412" lon="11.902773"><ele>803.0</ele><time>2026-04-04T09:33:12.257Z</time></trkpt><trkpt lat="43.7008142" lon="11.9027724"><ele>803.0</ele><time>2026-04-04T09:33:13.256Z</time></trkpt><trkpt lat="43.7006981" lon="11.9027487"><ele>803.0</ele><time>2026-04-04T09:33:14.257Z</time></trkpt><trkpt lat="43.7005829" lon="11.9026769"><ele>803.0</ele><time>2026-04-04T09:33:15.258Z</time></trkpt><trkpt lat="43.7004816" lon="11.902586"><ele>803.0</ele><time>2026-04-04T09:33:16.26Z</time></trkpt><trkpt lat="43.7003767" lon="11.9024832"><ele>801.0</ele><time>2026-04-04T09:33:17.261Z</time></trkpt><trkpt lat="43.7002684" lon="11.9024133"><ele>799.0</ele><time>2026-04-04T09:33:18.266Z</time></trkpt><trkpt lat="43.7001707" lon="11.9023994"><ele>797.0</ele><time>2026-04-04T09:33:19.262Z</time></trkpt><trkpt lat="43.7000884" lon="11.902453"><ele>795.0</ele><time>2026-04-04T09:33:20.264Z</time></trkpt><trkpt lat="43.7000237" lon="11.9025425"><ele>793.0</ele><time>2026-04-04T09:33:21.262Z</time></trkpt><trkpt lat="43.6999865" lon="11.9026607"><ele>793.0</ele><time>2026-04-04T09:33:22.259Z</time></trkpt><trkpt lat="43.6999862" lon="11.9028029"><ele>793.0</ele><time>2026-04-04T09:33:23.26Z</time></trkpt><trkpt lat="43.7000158" lon="11.9029542"><ele>793.0</ele><time>2026-04-04T09:33:24.262Z</time></trkpt><trkpt lat="43.7000846" lon="11.9031218"><ele>793.0</ele><time>2026-04-04T09:33:25.258Z</time></trkpt><trkpt lat="43.700166" lon="11.903298"><ele>795.0</ele><time>2026-04-04T09:33:26.256Z</time></trkpt><trkpt lat="43.7002475" lon="11.903466"><ele>797.0</ele><time>2026-04-04T09:33:27.261Z</time></trkpt><trkpt lat="43.7003206" lon="11.903618"><ele>799.0</ele><time>2026-04-04T09:33:28.257Z</time></trkpt><trkpt lat="43.7003841" lon="11.9037711"><ele>801.0</ele><time>2026-04-04T09:33:29.256Z</time></trkpt><trkpt lat="43.7004275" lon="11.9039248"><ele>805.0</ele><time>2026-04-04T09:33:30.257Z</time></trkpt><trkpt lat="43.7004233" lon="11.9040567"><ele>809.0</ele><time>2026-04-04T09:33:31.268Z</time></trkpt><trkpt lat="43.7003745" lon="11.9041918"><ele>813.0</ele><time>2026-04-04T09:33:32.26Z</time></trkpt><trkpt lat="43.700279" lon="11.9043177"><ele>817.0</ele><time>2026-04-04T09:33:33.263Z</time></trkpt><trkpt lat="43.7001723" lon="11.9044486"><ele>817.5</ele><time>2026-04-04T09:33:34.255Z</time></trkpt><trkpt lat="43.7000615" lon="11.9045813"><ele>818.0</ele><time>2026-04-04T09:33:35.261Z</time></trkpt><trkpt lat="43.6999616" lon="11.9047089"><ele>818.5</ele><time>2026-04-04T09:33:36.263Z</time></trkpt><trkpt lat="43.6998614" lon="11.9048246"><ele>819.0</ele><time>2026-04-04T09:33:37.257Z</time></trkpt><trkpt lat="43.6997629" lon="11.9049173"><ele>819.0</ele><time>2026-04-04T09:33:38.253Z</time></trkpt><trkpt lat="43.6996525" lon="11.9049607"><ele>819.0</ele><time>2026-04-04T09:33:39.259Z</time></trkpt><trkpt lat="43.6995261" lon="11.904987"><ele>819.0</ele><time>2026-04-04T09:33:40.264Z</time></trkpt><trkpt lat="43.699396" lon="11.905022"><ele>819.0</ele><time>2026-04-04T09:33:41.264Z</time></trkpt><trkpt lat="43.6992682" lon="11.905097"><ele>820.75</ele><time>2026-04-04T09:33:42.254Z</time></trkpt><trkpt lat="43.6991669" lon="11.9051949"><ele>822.5</ele><time>2026-04-04T09:33:43.257Z</time></trkpt><trkpt lat="43.6990897" lon="11.9053192"><ele>824.25</ele><time>2026-04-04T09:33:44.256Z</time></trkpt><trkpt lat="43.6990015" lon="11.9054317"><ele>826.0</ele><time>2026-04-04T09:33:45.262Z</time></trkpt><trkpt lat="43.6989071" lon="11.9055361"><ele>826.0</ele><time>2026-04-04T09:33:46.266Z</time></trkpt><trkpt lat="43.6987979" lon="11.9056095"><ele>826.0</ele><time>2026-04-04T09:33:47.261Z</time></trkpt><trkpt lat="43.6986954" lon="11.9056074"><ele>826.0</ele><time>2026-04-04T09:33:48.258Z</time></trkpt><trkpt lat="43.6986051" lon="11.9056105"><ele>826.0</ele><time>2026-04-04T09:33:49.273Z</time></trkpt><trkpt lat="43.6985736" lon="11.9057485"><ele>826.0</ele><time>2026-04-04T09:33:51.273Z</time></trkpt><trkpt lat="43.6986193" lon="11.9058307"><ele>826.0</ele><time>2026-04-04T09:33:52.264Z</time></trkpt><trkpt lat="43.6986939" lon="11.9058763"><ele>826.0</ele><time>2026-04-04T09:33:53.273Z</time></trkpt><trkpt lat="43.6987843" lon="11.9058654"><ele>826.0</ele><time>2026-04-04T09:33:54.262Z</time></trkpt><trkpt lat="43.6988957" lon="11.905829"><ele>826.0</ele><time>2026-04-04T09:33:55.261Z</time></trkpt><trkpt lat="43.6990419" lon="11.9057432"><ele>826.0</ele><time>2026-04-04T09:33:56.263Z</time></trkpt><trkpt lat="43.6991971" lon="11.9056406"><ele>826.0</ele><time>2026-04-04T09:33:57.261Z</time></trkpt><trkpt lat="43.6993438" lon="11.9055114"><ele>826.0</ele><time>2026-04-04T09:33:58.263Z</time></trkpt><trkpt lat="43.6994603" lon="11.9053759"><ele>826.0</ele><time>2026-04-04T09:33:59.261Z</time></trkpt><trkpt lat="43.6995889" lon="11.9052843"><ele>830.6666666666666</ele><time>2026-04-04T09:34:00.262Z</time></trkpt><trkpt lat="43.6997493" lon="11.9052546"><ele>835.3333333333333</ele><time>2026-04-04T09:34:01.259Z</time></trkpt><trkpt lat="43.6999107" lon="11.9052455"><ele>840.0</ele><time>2026-04-04T09:34:02.268Z</time></trkpt><trkpt lat="43.7000728" lon="11.9052278"><ele>843.6666666666667</ele><time>2026-04-04T09:34:03.261Z</time></trkpt><trkpt lat="43.7002523" lon="11.9052076"><ele>847.3333333333334</ele><time>2026-04-04T09:34:04.264Z</time></trkpt><trkpt lat="43.7004111" lon="11.9051848"><ele>851.0</ele><time>2026-04-04T09:34:05.253Z</time></trkpt><trkpt lat="43.7005523" lon="11.9051654"><ele>851.0</ele><time>2026-04-04T09:34:06.253Z</time></trkpt><trkpt lat="43.70067" lon="11.9051592"><ele>851.0</ele><time>2026-04-04T09:34:07.254Z</time></trkpt><trkpt lat="43.7007703" lon="11.905147"><ele>851.0</ele><time>2026-04-04T09:34:08.251Z</time></trkpt><trkpt lat="43.7008659" lon="11.9051216"><ele>851.0</ele><time>2026-04-04T09:34:09.254Z</time></trkpt><trkpt lat="43.700955" lon="11.9050632"><ele>851.0</ele><time>2026-04-04T09:34:10.251Z</time></trkpt><trkpt lat="43.7010274" lon="11.9049776"><ele>849.8</ele><time>2026-04-04T09:34:11.252Z</time></trkpt><trkpt lat="43.7010696" lon="11.9048312"><ele>848.5999999999999</ele><time>2026-04-04T09:34:12.252Z</time></trkpt><trkpt lat="43.7011119" lon="11.9046863"><ele>847.4</ele><time>2026-04-04T09:34:13.252Z</time></trkpt><trkpt lat="43.7011503" lon="11.9045429"><ele>846.2</ele><time>2026-04-04T09:34:14.257Z</time></trkpt><trkpt lat="43.7012043" lon="11.9044338"><ele>845.0</ele><time>2026-04-04T09:34:15.255Z</time></trkpt><trkpt lat="43.7012784" lon="11.9043512"><ele>845.0</ele><time>2026-04-04T09:34:16.256Z</time></trkpt><trkpt lat="43.7013859" lon="11.9042984"><ele>845.0</ele><time>2026-04-04T09:34:17.258Z</time></trkpt><trkpt lat="43.7015259" lon="11.9042995"><ele>845.0</ele><time>2026-04-04T09:34:18.252Z</time></trkpt><trkpt lat="43.7016682" lon="11.9043152"><ele>845.0</ele><time>2026-04-04T09:34:19.253Z</time></trkpt><trkpt lat="43.7018061" lon="11.9043429"><ele>844.0</ele><time>2026-04-04T09:34:20.254Z</time></trkpt><trkpt lat="43.7019342" lon="11.9043802"><ele>843.0</ele><time>2026-04-04T09:34:21.261Z</time></trkpt><trkpt lat="43.702048" lon="11.9044393"><ele>842.0</ele><time>2026-04-04T09:34:22.272Z</time></trkpt><trkpt lat="43.7021552" lon="11.9045485"><ele>841.0</ele><time>2026-04-04T09:34:23.289Z</time></trkpt><trkpt lat="43.7022645" lon="11.9047076"><ele>841.0</ele><time>2026-04-04T09:34:24.272Z</time></trkpt><trkpt lat="43.7023771" lon="11.9048682"><ele>841.0</ele><time>2026-04-04T09:34:25.272Z</time></trkpt><trkpt lat="43.7024971" lon="11.9050539"><ele>841.0</ele><time>2026-04-04T09:34:26.265Z</time></trkpt><trkpt lat="43.70264" lon="11.9052015"><ele>845.3333333333333</ele><time>2026-04-04T09:34:27.273Z</time></trkpt><trkpt lat="43.7027835" lon="11.9053443"><ele>849.6666666666667</ele><time>2026-04-04T09:34:28.273Z</time></trkpt><trkpt lat="43.7029243" lon="11.9054552"><ele>854.0</ele><time>2026-04-04T09:34:29.274Z</time></trkpt><trkpt lat="43.7030517" lon="11.9055345"><ele>854.0</ele><time>2026-04-04T09:34:30.275Z</time></trkpt><trkpt lat="43.7031702" lon="11.9055898"><ele>854.0</ele><time>2026-04-04T09:34:31.274Z</time></trkpt><trkpt lat="43.7032825" lon="11.9056117"><ele>854.0</ele><time>2026-04-04T09:34:32.287Z</time></trkpt><trkpt lat="43.7034106" lon="11.9055866"><ele>854.0</ele><time>2026-04-04T09:34:33.281Z</time></trkpt><trkpt lat="43.7035642" lon="11.9055742"><ele>851.6666666666667</ele><time>2026-04-04T09:34:34.29Z</time></trkpt><trkpt lat="43.7037111" lon="11.9056127"><ele>849.3333333333333</ele><time>2026-04-04T09:34:35.284Z</time></trkpt><trkpt lat="43.7038497" lon="11.9057124"><ele>847.0</ele><time>2026-04-04T09:34:36.269Z</time></trkpt><trkpt lat="43.703967" lon="11.9058282"><ele>848.0</ele><time>2026-04-04T09:34:37.269Z</time></trkpt><trkpt lat="43.7040806" lon="11.9059407"><ele>849.0</ele><time>2026-04-04T09:34:38.274Z</time></trkpt><trkpt lat="43.7040992" lon="11.9061353"><ele>850.0</ele><time>2026-04-04T09:34:39.274Z</time></trkpt><trkpt lat="43.7040547" lon="11.9063461"><ele>851.0</ele><time>2026-04-04T09:34:40.263Z</time></trkpt><trkpt lat="43.7039902" lon="11.9065779"><ele>852.6666666666667</ele><time>2026-04-04T09:34:41.28Z</time></trkpt><trkpt lat="43.703901" lon="11.9068433"><ele>854.3333333333333</ele><time>2026-04-04T09:34:42.267Z</time></trkpt><trkpt lat="43.7038134" lon="11.9071217"><ele>856.0</ele><time>2026-04-04T09:34:43.268Z</time></trkpt><trkpt lat="43.7037278" lon="11.9073873"><ele>858.3333333333333</ele><time>2026-04-04T09:34:44.274Z</time></trkpt><trkpt lat="43.7036803" lon="11.9076127"><ele>860.6666666666667</ele><time>2026-04-04T09:34:45.28Z</time></trkpt><trkpt lat="43.7036684" lon="11.9078348"><ele>863.0</ele><time>2026-04-04T09:34:46.281Z</time></trkpt><trkpt lat="43.7036921" lon="11.90806"><ele>863.0</ele><time>2026-04-04T09:34:47.273Z</time></trkpt><trkpt lat="43.7037583" lon="11.9082635"><ele>863.0</ele><time>2026-04-04T09:34:48.271Z</time></trkpt><trkpt lat="43.70386" lon="11.9084551"><ele>863.0</ele><time>2026-04-04T09:34:49.267Z</time></trkpt><trkpt lat="43.703982" lon="11.9086547"><ele>865.3333333333334</ele><time>2026-04-04T09:34:50.267Z</time></trkpt><trkpt lat="43.7041218" lon="11.9088824"><ele>867.6666666666667</ele><time>2026-04-04T09:34:51.283Z</time></trkpt><trkpt lat="43.7042423" lon="11.9091067"><ele>870.0</ele><time>2026-04-04T09:34:52.276Z</time></trkpt><trkpt lat="43.704357" lon="11.9092966"><ele>871.0</ele><time>2026-04-04T09:34:53.275Z</time></trkpt><trkpt lat="43.704463" lon="11.9094681"><ele>872.0</ele><time>2026-04-04T09:34:54.273Z</time></trkpt><trkpt lat="43.7045488" lon="11.9096283"><ele>873.0</ele><time>2026-04-04T09:34:55.272Z</time></trkpt><trkpt lat="43.7045941" lon="11.9097876"><ele>874.0</ele><time>2026-04-04T09:34:56.268Z</time></trkpt><trkpt lat="43.7046044" lon="11.9099518"><ele>877.0</ele><time>2026-04-04T09:34:57.274Z</time></trkpt><trkpt lat="43.7045624" lon="11.9101254"><ele>880.0</ele><time>2026-04-04T09:34:58.272Z</time></trkpt><trkpt lat="43.7044685" lon="11.9102929"><ele>883.0</ele><time>2026-04-04T09:34:59.275Z</time></trkpt><trkpt lat="43.7043442" lon="11.9104455"><ele>884.6666666666666</ele><time>2026-04-04T09:35:00.262Z</time></trkpt><trkpt lat="43.7042241" lon="11.9105617"><ele>886.3333333333333</ele><time>2026-04-04T09:35:01.269Z</time></trkpt><trkpt lat="43.7040444" lon="11.910613"><ele>888.0</ele><time>2026-04-04T09:35:02.265Z</time></trkpt><trkpt lat="43.703872" lon="11.910678"><ele>888.0</ele><time>2026-04-04T09:35:03.263Z</time></trkpt><trkpt lat="43.7036947" lon="11.910745"><ele>888.0</ele><time>2026-04-04T09:35:04.272Z</time></trkpt><trkpt lat="43.7035175" lon="11.9107807"><ele>888.0</ele><time>2026-04-04T09:35:05.27Z</time></trkpt><trkpt lat="43.7033367" lon="11.910771"><ele>888.0</ele><time>2026-04-04T09:35:06.285Z</time></trkpt><trkpt lat="43.7031402" lon="11.9107209"><ele>888.0</ele><time>2026-04-04T09:35:07.289Z</time></trkpt><trkpt lat="43.7029312" lon="11.9106323"><ele>888.0</ele><time>2026-04-04T09:35:08.292Z</time></trkpt><trkpt lat="43.7027394" lon="11.9105429"><ele>890.3333333333333</ele><time>2026-04-04T09:35:09.281Z</time></trkpt><trkpt lat="43.7025527" lon="11.9104679"><ele>892.6666666666666</ele><time>2026-04-04T09:35:10.278Z</time></trkpt><trkpt lat="43.7023753" lon="11.9104156"><ele>895.0</ele><time>2026-04-04T09:35:11.285Z</time></trkpt><trkpt lat="43.7021775" lon="11.9103982"><ele>895.0</ele><time>2026-04-04T09:35:12.287Z</time></trkpt><trkpt lat="43.7019596" lon="11.9104229"><ele>895.0</ele><time>2026-04-04T09:35:13.278Z</time></trkpt><trkpt lat="43.7017198" lon="11.9104683"><ele>898.0</ele><time>2026-04-04T09:35:14.28Z</time></trkpt><trkpt lat="43.7014641" lon="11.9105108"><ele>901.0</ele><time>2026-04-04T09:35:15.277Z</time></trkpt><trkpt lat="43.701195" lon="11.9105571"><ele>903.0</ele><time>2026-04-04T09:35:16.279Z</time></trkpt><trkpt lat="43.7009398" lon="11.9106039"><ele>905.0</ele><time>2026-04-04T09:35:17.279Z</time></trkpt><trkpt lat="43.7007046" lon="11.9106491"><ele>905.0</ele><time>2026-04-04T09:35:18.277Z</time></trkpt><trkpt lat="43.7004843" lon="11.9106883"><ele>905.0</ele><time>2026-04-04T09:35:19.278Z</time></trkpt><trkpt lat="43.7002946" lon="11.9107316"><ele>905.0</ele><time>2026-04-04T09:35:20.274Z</time></trkpt><trkpt lat="43.7001217" lon="11.9107692"><ele>905.6666666666667</ele><time>2026-04-04T09:35:21.272Z</time></trkpt><trkpt lat="43.6999537" lon="11.9108154"><ele>906.3333333333333</ele><time>2026-04-04T09:35:22.272Z</time></trkpt><trkpt lat="43.6997964" lon="11.9108942"><ele>907.0</ele><time>2026-04-04T09:35:23.278Z</time></trkpt><trkpt lat="43.6996572" lon="11.9110131"><ele>908.6666666666666</ele><time>2026-04-04T09:35:24.287Z</time></trkpt><trkpt lat="43.6995444" lon="11.9111983"><ele>910.3333333333333</ele><time>2026-04-04T09:35:25.287Z</time></trkpt><trkpt lat="43.6994403" lon="11.9113888"><ele>912.0</ele><time>2026-04-04T09:35:26.294Z</time></trkpt><trkpt lat="43.6993577" lon="11.9115909"><ele>915.6666666666667</ele><time>2026-04-04T09:35:27.284Z</time></trkpt><trkpt lat="43.6992883" lon="11.9118184"><ele>919.3333333333334</ele><time>2026-04-04T09:35:28.27Z</time></trkpt><trkpt lat="43.6992126" lon="11.9120559"><ele>923.0</ele><time>2026-04-04T09:35:29.28Z</time></trkpt><trkpt lat="43.6991135" lon="11.9122749"><ele>923.0</ele><time>2026-04-04T09:35:30.276Z</time></trkpt><trkpt lat="43.6990103" lon="11.9124631"><ele>923.0</ele><time>2026-04-04T09:35:31.279Z</time></trkpt><trkpt lat="43.6989136" lon="11.9126085"><ele>923.0</ele><time>2026-04-04T09:35:32.287Z</time></trkpt><trkpt lat="43.6988483" lon="11.9127159"><ele>923.0</ele><time>2026-04-04T09:35:33.282Z</time></trkpt><trkpt lat="43.698835" lon="11.9128177"><ele>925.5999999999999</ele><time>2026-04-04T09:35:34.286Z</time></trkpt><trkpt lat="43.6988547" lon="11.9129184"><ele>928.1999999999999</ele><time>2026-04-04T09:35:35.293Z</time></trkpt><trkpt lat="43.6989248" lon="11.913025"><ele>930.8</ele><time>2026-04-04T09:35:36.274Z</time></trkpt><trkpt lat="43.6990107" lon="11.9130759"><ele>933.4</ele><time>2026-04-04T09:35:37.277Z</time></trkpt><trkpt lat="43.6991151" lon="11.9130614"><ele>936.0</ele><time>2026-04-04T09:35:38.276Z</time></trkpt><trkpt lat="43.6992311" lon="11.9129865"><ele>936.0</ele><time>2026-04-04T09:35:39.275Z</time></trkpt><trkpt lat="43.6993641" lon="11.912848"><ele>936.0</ele><time>2026-04-04T09:35:40.271Z</time></trkpt><trkpt lat="43.6995033" lon="11.9126995"><ele>936.0</ele><time>2026-04-04T09:35:41.269Z</time></trkpt><trkpt lat="43.699639" lon="11.9125638"><ele>935.25</ele><time>2026-04-04T09:35:42.269Z</time></trkpt><trkpt lat="43.6997633" lon="11.9124446"><ele>934.5</ele><time>2026-04-04T09:35:43.274Z</time></trkpt><trkpt lat="43.6998869" lon="11.9123497"><ele>933.75</ele><time>2026-04-04T09:35:44.283Z</time></trkpt><trkpt lat="43.7000153" lon="11.9122913"><ele>933.0</ele><time>2026-04-04T09:35:45.283Z</time></trkpt><trkpt lat="43.7001472" lon="11.9123067"><ele>934.25</ele><time>2026-04-04T09:35:46.285Z</time></trkpt><trkpt lat="43.7002742" lon="11.9123685"><ele>935.5</ele><time>2026-04-04T09:35:47.287Z</time></trkpt><trkpt lat="43.700403" lon="11.9124668"><ele>936.75</ele><time>2026-04-04T09:35:48.292Z</time></trkpt><trkpt lat="43.7005292" lon="11.912604"><ele>938.0</ele><time>2026-04-04T09:35:49.301Z</time></trkpt><trkpt lat="43.7006566" lon="11.9127847"><ele>938.0</ele><time>2026-04-04T09:35:50.284Z</time></trkpt><trkpt lat="43.7007749" lon="11.9130168"><ele>938.0</ele><time>2026-04-04T09:35:51.284Z</time></trkpt><trkpt lat="43.7009029" lon="11.9132492"><ele>938.0</ele><time>2026-04-04T09:35:52.287Z</time></trkpt><trkpt lat="43.7010364" lon="11.9134922"><ele>939.3333333333334</ele><time>2026-04-04T09:35:53.277Z</time></trkpt><trkpt lat="43.701172" lon="11.9137562"><ele>940.6666666666667</ele><time>2026-04-04T09:35:54.296Z</time></trkpt><trkpt lat="43.7012949" lon="11.9139855"><ele>942.0</ele><time>2026-04-04T09:35:55.282Z</time></trkpt><trkpt lat="43.7014092" lon="11.914187"><ele>947.0</ele><time>2026-04-04T09:35:56.278Z</time></trkpt><trkpt lat="43.7015143" lon="11.9143827"><ele>952.0</ele><time>2026-04-04T09:35:57.278Z</time></trkpt><trkpt lat="43.7016197" lon="11.9145729"><ele>957.0</ele><time>2026-04-04T09:35:58.273Z</time></trkpt><trkpt lat="43.7017232" lon="11.9147518"><ele>957.0</ele><time>2026-04-04T09:35:59.272Z</time></trkpt><trkpt lat="43.7018474" lon="11.9149248"><ele>957.0</ele><time>2026-04-04T09:36:00.271Z</time></trkpt><trkpt lat="43.7019885" lon="11.9151007"><ele>957.0</ele><time>2026-04-04T09:36:01.268Z</time></trkpt><trkpt lat="43.7021427" lon="11.9152437"><ele>958.3333333333333</ele><time>2026-04-04T09:36:02.278Z</time></trkpt><trkpt lat="43.7023089" lon="11.9153516"><ele>959.6666666666666</ele><time>2026-04-04T09:36:03.28Z</time></trkpt><trkpt lat="43.7024671" lon="11.9154538"><ele>961.0</ele><time>2026-04-04T09:36:04.275Z</time></trkpt><trkpt lat="43.7026123" lon="11.9155615"><ele>961.0</ele><time>2026-04-04T09:36:05.277Z</time></trkpt><trkpt lat="43.7027277" lon="11.9156904"><ele>961.0</ele><time>2026-04-04T09:36:06.283Z</time></trkpt><trkpt lat="43.7027933" lon="11.9158791"><ele>961.0</ele><time>2026-04-04T09:36:07.269Z</time></trkpt><trkpt lat="43.7028213" lon="11.9161008"><ele>961.3333333333333</ele><time>2026-04-04T09:36:08.268Z</time></trkpt><trkpt lat="43.7028288" lon="11.9163581"><ele>961.6666666666667</ele><time>2026-04-04T09:36:09.269Z</time></trkpt><trkpt lat="43.7028209" lon="11.91661"><ele>962.0</ele><time>2026-04-04T09:36:10.265Z</time></trkpt><trkpt lat="43.702796" lon="11.9168824"><ele>962.0</ele><time>2026-04-04T09:36:11.27Z</time></trkpt><trkpt lat="43.7027776" lon="11.9171402"><ele>962.0</ele><time>2026-04-04T09:36:12.271Z</time></trkpt><trkpt lat="43.702755" lon="11.9173693"><ele>962.0</ele><time>2026-04-04T09:36:13.268Z</time></trkpt><trkpt lat="43.7027414" lon="11.9175578"><ele>967.5</ele><time>2026-04-04T09:36:14.273Z</time></trkpt><trkpt lat="43.7027435" lon="11.9177073"><ele>973.0</ele><time>2026-04-04T09:36:15.268Z</time></trkpt><trkpt lat="43.7027808" lon="11.9178635"><ele>978.5</ele><time>2026-04-04T09:36:16.27Z</time></trkpt><trkpt lat="43.7028611" lon="11.9179914"><ele>984.0</ele><time>2026-04-04T09:36:17.273Z</time></trkpt><trkpt lat="43.7029778" lon="11.9180644"><ele>984.0</ele><time>2026-04-04T09:36:18.274Z</time></trkpt><trkpt lat="43.7031034" lon="11.9181191"><ele>984.0</ele><time>2026-04-04T09:36:19.271Z</time></trkpt><trkpt lat="43.7032656" lon="11.9181597"><ele>984.0</ele><time>2026-04-04T09:36:20.266Z</time></trkpt><trkpt lat="43.7034348" lon="11.9182286"><ele>984.0</ele><time>2026-04-04T09:36:21.274Z</time></trkpt><trkpt lat="43.7036167" lon="11.9183135"><ele>984.0</ele><time>2026-04-04T09:36:22.266Z</time></trkpt><trkpt lat="43.7037675" lon="11.9183936"><ele>984.0</ele><time>2026-04-04T09:36:23.266Z</time></trkpt><trkpt lat="43.7039175" lon="11.9185009"><ele>984.0</ele><time>2026-04-04T09:36:24.275Z</time></trkpt><trkpt lat="43.7040611" lon="11.9186483"><ele>984.0</ele><time>2026-04-04T09:36:25.277Z</time></trkpt><trkpt lat="43.7041939" lon="11.9188169"><ele>984.0</ele><time>2026-04-04T09:36:26.28Z</time></trkpt><trkpt lat="43.7042596" lon="11.9190344"><ele>987.3333333333333</ele><time>2026-04-04T09:36:27.273Z</time></trkpt><trkpt lat="43.7042954" lon="11.9192753"><ele>990.6666666666666</ele><time>2026-04-04T09:36:28.266Z</time></trkpt><trkpt lat="43.7043289" lon="11.9195375"><ele>994.0</ele><time>2026-04-04T09:36:29.263Z</time></trkpt><trkpt lat="43.7043605" lon="11.9198163"><ele>993.3333333333333</ele><time>2026-04-04T09:36:30.271Z</time></trkpt><trkpt lat="43.704391" lon="11.9201063"><ele>992.6666666666667</ele><time>2026-04-04T09:36:31.297Z</time></trkpt><trkpt lat="43.7044157" lon="11.9203639"><ele>992.0</ele><time>2026-04-04T09:36:32.272Z</time></trkpt><trkpt lat="43.7044396" lon="11.920582"><ele>990.3333333333334</ele><time>2026-04-04T09:36:33.275Z</time></trkpt><trkpt lat="43.704462" lon="11.9207726"><ele>988.6666666666667</ele><time>2026-04-04T09:36:34.271Z</time></trkpt><trkpt lat="43.7045142" lon="11.9209678"><ele>987.0</ele><time>2026-04-04T09:36:35.271Z</time></trkpt><trkpt lat="43.7046053" lon="11.9211876"><ele>990.6666666666667</ele><time>2026-04-04T09:36:36.287Z</time></trkpt><trkpt lat="43.7047246" lon="11.9213948"><ele>994.3333333333334</ele><time>2026-04-04T09:36:37.275Z</time></trkpt><trkpt lat="43.7048473" lon="11.9216052"><ele>998.0</ele><time>2026-04-04T09:36:38.271Z</time></trkpt><trkpt lat="43.7049878" lon="11.9218241"><ele>999.0</ele><time>2026-04-04T09:36:39.268Z</time></trkpt><trkpt lat="43.705141" lon="11.9220554"><ele>1000.0</ele><time>2026-04-04T09:36:40.269Z</time></trkpt><trkpt lat="43.7052957" lon="11.922284"><ele>1000.0</ele><time>2026-04-04T09:36:41.271Z</time></trkpt><trkpt lat="43.7054376" lon="11.9225056"><ele>1000.0</ele><time>2026-04-04T09:36:42.272Z</time></trkpt><trkpt lat="43.7055717" lon="11.922703"><ele>1000.0</ele><time>2026-04-04T09:36:43.265Z</time></trkpt><trkpt lat="43.7056876" lon="11.922886"><ele>1001.5</ele><time>2026-04-04T09:36:44.264Z</time></trkpt><trkpt lat="43.7057963" lon="11.923051"><ele>1003.0</ele><time>2026-04-04T09:36:45.267Z</time></trkpt><trkpt lat="43.7058912" lon="11.9232073"><ele>1004.5</ele><time>2026-04-04T09:36:46.267Z</time></trkpt><trkpt lat="43.7059681" lon="11.9233582"><ele>1006.0</ele><time>2026-04-04T09:36:47.268Z</time></trkpt><trkpt lat="43.7060181" lon="11.9235108"><ele>1006.8</ele><time>2026-04-04T09:36:48.269Z</time></trkpt><trkpt lat="43.7060432" lon="11.9236664"><ele>1007.5999999999999</ele><time>2026-04-04T09:36:49.269Z</time></trkpt><trkpt lat="43.7060504" lon="11.9238056"><ele>1008.4</ele><time>2026-04-04T09:36:50.268Z</time></trkpt><trkpt lat="43.7060644" lon="11.9239283"><ele>1009.2</ele><time>2026-04-04T09:36:51.273Z</time></trkpt><trkpt lat="43.7060733" lon="11.9240509"><ele>1010.0</ele><time>2026-04-04T09:36:52.274Z</time></trkpt><trkpt lat="43.7060782" lon="11.924172"><ele>1010.8333333333334</ele><time>2026-04-04T09:36:53.271Z</time></trkpt><trkpt lat="43.706076" lon="11.9242957"><ele>1011.6666666666667</ele><time>2026-04-04T09:36:54.272Z</time></trkpt><trkpt lat="43.7060623" lon="11.924413"><ele>1012.5</ele><time>2026-04-04T09:36:55.271Z</time></trkpt><trkpt lat="43.7060439" lon="11.9245287"><ele>1013.3333333333333</ele><time>2026-04-04T09:36:56.271Z</time></trkpt><trkpt lat="43.706018" lon="11.924645"><ele>1014.1666666666666</ele><time>2026-04-04T09:36:57.272Z</time></trkpt><trkpt lat="43.7059839" lon="11.9247662"><ele>1015.0</ele><time>2026-04-04T09:36:58.27Z</time></trkpt><trkpt lat="43.7059348" lon="11.9249049"><ele>1018.3333333333333</ele><time>2026-04-04T09:36:59.27Z</time></trkpt><trkpt lat="43.7058661" lon="11.9250657"><ele>1021.6666666666667</ele><time>2026-04-04T09:37:00.268Z</time></trkpt><trkpt lat="43.7057778" lon="11.9252514"><ele>1025.0</ele><time>2026-04-04T09:37:01.274Z</time></trkpt><trkpt lat="43.7056625" lon="11.9254711"><ele>1025.0</ele><time>2026-04-04T09:37:02.265Z</time></trkpt><trkpt lat="43.7055174" lon="11.9257273"><ele>1025.0</ele><time>2026-04-04T09:37:03.26Z</time></trkpt><trkpt lat="43.7053765" lon="11.926013"><ele>1023.5</ele><time>2026-04-04T09:37:04.261Z</time></trkpt><trkpt lat="43.7052345" lon="11.9263077"><ele>1022.0</ele><time>2026-04-04T09:37:05.265Z</time></trkpt><trkpt lat="43.7051035" lon="11.9265848"><ele>1024.0</ele><time>2026-04-04T09:37:06.288Z</time></trkpt><trkpt lat="43.704984" lon="11.9268295"><ele>1026.0</ele><time>2026-04-04T09:37:07.27Z</time></trkpt><trkpt lat="43.7048733" lon="11.9270532"><ele>1028.0</ele><time>2026-04-04T09:37:08.276Z</time></trkpt><trkpt lat="43.7047626" lon="11.9272775"><ele>1028.0</ele><time>2026-04-04T09:37:09.262Z</time></trkpt><trkpt lat="43.7046584" lon="11.9274916"><ele>1028.0</ele><time>2026-04-04T09:37:10.263Z</time></trkpt><trkpt lat="43.7045475" lon="11.9277113"><ele>1028.0</ele><time>2026-04-04T09:37:11.267Z</time></trkpt><trkpt lat="43.7044397" lon="11.9279361"><ele>1026.3333333333335</ele><time>2026-04-04T09:37:12.266Z</time></trkpt><trkpt lat="43.7043447" lon="11.9281411"><ele>1024.6666666666667</ele><time>2026-04-04T09:37:13.284Z</time></trkpt><trkpt lat="43.7042538" lon="11.9283258"><ele>1023.0</ele><time>2026-04-04T09:37:14.267Z</time></trkpt><trkpt lat="43.7041657" lon="11.9284901"><ele>1023.0</ele><time>2026-04-04T09:37:15.271Z</time></trkpt><trkpt lat="43.704075" lon="11.9286363"><ele>1023.0</ele><time>2026-04-04T09:37:16.271Z</time></trkpt><trkpt lat="43.7039707" lon="11.9287752"><ele>1023.0</ele><time>2026-04-04T09:37:17.267Z</time></trkpt><trkpt lat="43.7038502" lon="11.9288801"><ele>1023.0</ele><time>2026-04-04T09:37:18.275Z</time></trkpt><trkpt lat="43.7037083" lon="11.9289592"><ele>1019.6666666666667</ele><time>2026-04-04T09:37:19.273Z</time></trkpt><trkpt lat="43.7035322" lon="11.9289903"><ele>1016.3333333333334</ele><time>2026-04-04T09:37:20.268Z</time></trkpt><trkpt lat="43.7033382" lon="11.928998"><ele>1013.0</ele><time>2026-04-04T09:37:21.269Z</time></trkpt><trkpt lat="43.7031426" lon="11.9290173"><ele>1013.0</ele><time>2026-04-04T09:37:22.272Z</time></trkpt><trkpt lat="43.7029535" lon="11.9290303"><ele>1013.0</ele><time>2026-04-04T09:37:23.273Z</time></trkpt><trkpt lat="43.7027654" lon="11.9290429"><ele>1013.0</ele><time>2026-04-04T09:37:24.273Z</time></trkpt><trkpt lat="43.7025908" lon="11.9290543"><ele>1010.0</ele><time>2026-04-04T09:37:25.274Z</time></trkpt><trkpt lat="43.7024329" lon="11.9290746"><ele>1007.0</ele><time>2026-04-04T09:37:26.269Z</time></trkpt><trkpt lat="43.7022737" lon="11.9290996"><ele>1004.0</ele><time>2026-04-04T09:37:27.276Z</time></trkpt><trkpt lat="43.7021235" lon="11.9291268"><ele>1004.0</ele><time>2026-04-04T09:37:28.267Z</time></trkpt><trkpt lat="43.7019794" lon="11.9291641"><ele>1004.0</ele><time>2026-04-04T09:37:29.279Z</time></trkpt><trkpt lat="43.7018567" lon="11.9292087"><ele>1004.0</ele><time>2026-04-04T09:37:30.267Z</time></trkpt><trkpt lat="43.7017527" lon="11.9292991"><ele>1004.0</ele><time>2026-04-04T09:37:31.269Z</time></trkpt><trkpt lat="43.7016655" lon="11.9294316"><ele>1003.0</ele><time>2026-04-04T09:37:32.263Z</time></trkpt><trkpt lat="43.7016022" lon="11.9296021"><ele>1002.0</ele><time>2026-04-04T09:37:33.268Z</time></trkpt><trkpt lat="43.7015814" lon="11.929797"><ele>1001.0</ele><time>2026-04-04T09:37:34.265Z</time></trkpt><trkpt lat="43.70159" lon="11.9299969"><ele>1000.0</ele><time>2026-04-04T09:37:35.266Z</time></trkpt><trkpt lat="43.7016373" lon="11.9301889"><ele>1000.6666666666666</ele><time>2026-04-04T09:37:36.267Z</time></trkpt><trkpt lat="43.7017386" lon="11.9303598"><ele>1001.3333333333333</ele><time>2026-04-04T09:37:37.266Z</time></trkpt><trkpt lat="43.7018293" lon="11.9305409"><ele>1002.0</ele><time>2026-04-04T09:37:38.265Z</time></trkpt><trkpt lat="43.7019163" lon="11.9307207"><ele>1002.25</ele><time>2026-04-04T09:37:39.283Z</time></trkpt><trkpt lat="43.7019863" lon="11.9309078"><ele>1002.5</ele><time>2026-04-04T09:37:40.269Z</time></trkpt><trkpt lat="43.7020397" lon="11.9310956"><ele>1002.75</ele><time>2026-04-04T09:37:41.26Z</time></trkpt><trkpt lat="43.7020806" lon="11.9312854"><ele>1003.0</ele><time>2026-04-04T09:37:42.262Z</time></trkpt><trkpt lat="43.7020967" lon="11.9314993"><ele>1004.3333333333333</ele><time>2026-04-04T09:37:43.259Z</time></trkpt><trkpt lat="43.7020823" lon="11.931725"><ele>1005.6666666666667</ele><time>2026-04-04T09:37:44.261Z</time></trkpt><trkpt lat="43.7020423" lon="11.9319577"><ele>1007.0</ele><time>2026-04-04T09:37:45.26Z</time></trkpt><trkpt lat="43.7019838" lon="11.9321541"><ele>1007.0</ele><time>2026-04-04T09:37:46.263Z</time></trkpt><trkpt lat="43.7019321" lon="11.932313"><ele>1007.0</ele><time>2026-04-04T09:37:47.264Z</time></trkpt><trkpt lat="43.7018881" lon="11.9324359"><ele>1007.0</ele><time>2026-04-04T09:37:48.262Z</time></trkpt><trkpt lat="43.7018328" lon="11.9325316"><ele>1007.0</ele><time>2026-04-04T09:37:49.259Z</time></trkpt><trkpt lat="43.7017717" lon="11.932618"><ele>1007.0</ele><time>2026-04-04T09:37:50.259Z</time></trkpt><trkpt lat="43.7016875" lon="11.9326551"><ele>1003.25</ele><time>2026-04-04T09:37:51.264Z</time></trkpt><trkpt lat="43.7015764" lon="11.9326121"><ele>999.5</ele><time>2026-04-04T09:37:52.257Z</time></trkpt><trkpt lat="43.7014856" lon="11.932513"><ele>995.75</ele><time>2026-04-04T09:37:53.26Z</time></trkpt><trkpt lat="43.7014202" lon="11.9323752"><ele>992.0</ele><time>2026-04-04T09:37:54.255Z</time></trkpt><trkpt lat="43.7013698" lon="11.9322024"><ele>991.5</ele><time>2026-04-04T09:37:55.27Z</time></trkpt><trkpt lat="43.7013426" lon="11.9319942"><ele>991.0</ele><time>2026-04-04T09:37:56.258Z</time></trkpt><trkpt lat="43.7013079" lon="11.9318021"><ele>990.5</ele><time>2026-04-04T09:37:57.26Z</time></trkpt><trkpt lat="43.7012685" lon="11.9316445"><ele>990.0</ele><time>2026-04-04T09:37:58.262Z</time></trkpt><trkpt lat="43.7012094" lon="11.9315579"><ele>989.6666666666666</ele><time>2026-04-04T09:37:59.265Z</time></trkpt><trkpt lat="43.7011294" lon="11.931529"><ele>989.3333333333333</ele><time>2026-04-04T09:38:00.267Z</time></trkpt><trkpt lat="43.701059" lon="11.93154"><ele>989.0</ele><time>2026-04-04T09:38:01.262Z</time></trkpt><trkpt lat="43.7009927" lon="11.9315538"><ele>988.6666666666666</ele><time>2026-04-04T09:38:02.262Z</time></trkpt><trkpt lat="43.7009322" lon="11.9316172"><ele>988.3333333333333</ele><time>2026-04-04T09:38:03.263Z</time></trkpt><trkpt lat="43.7008936" lon="11.9317548"><ele>988.0</ele><time>2026-04-04T09:38:04.261Z</time></trkpt><trkpt lat="43.7008881" lon="11.9319059"><ele>984.0</ele><time>2026-04-04T09:38:05.267Z</time></trkpt><trkpt lat="43.7009076" lon="11.9321143"><ele>980.0</ele><time>2026-04-04T09:38:06.264Z</time></trkpt><trkpt lat="43.7009457" lon="11.9323487"><ele>976.0</ele><time>2026-04-04T09:38:07.287Z</time></trkpt><trkpt lat="43.7009801" lon="11.9325894"><ele>974.6666666666666</ele><time>2026-04-04T09:38:08.263Z</time></trkpt><trkpt lat="43.7010002" lon="11.9328517"><ele>973.3333333333333</ele><time>2026-04-04T09:38:09.269Z</time></trkpt><trkpt lat="43.7009817" lon="11.9331204"><ele>972.0</ele><time>2026-04-04T09:38:10.265Z</time></trkpt><trkpt lat="43.7009431" lon="11.9333663"><ele>973.3333333333333</ele><time>2026-04-04T09:38:11.258Z</time></trkpt><trkpt lat="43.7008907" lon="11.9335979"><ele>974.6666666666666</ele><time>2026-04-04T09:38:12.264Z</time></trkpt><trkpt lat="43.7008131" lon="11.9338068"><ele>976.0</ele><time>2026-04-04T09:38:13.264Z</time></trkpt><trkpt lat="43.7007248" lon="11.9339986"><ele>976.0</ele><time>2026-04-04T09:38:14.265Z</time></trkpt><trkpt lat="43.7006243" lon="11.9341668"><ele>976.0</ele><time>2026-04-04T09:38:15.263Z</time></trkpt><trkpt lat="43.7005119" lon="11.9343146"><ele>976.0</ele><time>2026-04-04T09:38:16.259Z</time></trkpt><trkpt lat="43.7003835" lon="11.9344515"><ele>974.0</ele><time>2026-04-04T09:38:17.263Z</time></trkpt><trkpt lat="43.7002357" lon="11.9345948"><ele>972.0</ele><time>2026-04-04T09:38:18.257Z</time></trkpt><trkpt lat="43.7000739" lon="11.9347257"><ele>970.0</ele><time>2026-04-04T09:38:19.277Z</time></trkpt><trkpt lat="43.6999108" lon="11.9348463"><ele>970.0</ele><time>2026-04-04T09:38:20.262Z</time></trkpt><trkpt lat="43.6997569" lon="11.9349711"><ele>970.0</ele><time>2026-04-04T09:38:21.264Z</time></trkpt><trkpt lat="43.6996204" lon="11.9350756"><ele>970.0</ele><time>2026-04-04T09:38:22.26Z</time></trkpt><trkpt lat="43.6994788" lon="11.9351742"><ele>968.0</ele><time>2026-04-04T09:38:23.26Z</time></trkpt><trkpt lat="43.6993533" lon="11.9352669"><ele>966.0</ele><time>2026-04-04T09:38:24.262Z</time></trkpt><trkpt lat="43.6992442" lon="11.9353495"><ele>964.0</ele><time>2026-04-04T09:38:25.264Z</time></trkpt><trkpt lat="43.6991481" lon="11.9354428"><ele>962.0</ele><time>2026-04-04T09:38:26.257Z</time></trkpt><trkpt lat="43.6990601" lon="11.935552"><ele>962.0</ele><time>2026-04-04T09:38:27.263Z</time></trkpt><trkpt lat="43.6989898" lon="11.9356832"><ele>962.0</ele><time>2026-04-04T09:38:28.263Z</time></trkpt><trkpt lat="43.6989215" lon="11.9358601"><ele>962.0</ele><time>2026-04-04T09:38:29.266Z</time></trkpt><trkpt lat="43.6988447" lon="11.9360664"><ele>962.0</ele><time>2026-04-04T09:38:30.266Z</time></trkpt><trkpt lat="43.6987545" lon="11.9362852"><ele>966.3333333333334</ele><time>2026-04-04T09:38:31.262Z</time></trkpt><trkpt lat="43.6986678" lon="11.9364846"><ele>970.6666666666667</ele><time>2026-04-04T09:38:32.266Z</time></trkpt><trkpt lat="43.6986013" lon="11.9366731"><ele>975.0</ele><time>2026-04-04T09:38:33.264Z</time></trkpt><trkpt lat="43.6985334" lon="11.9368582"><ele>975.0</ele><time>2026-04-04T09:38:34.262Z</time></trkpt><trkpt lat="43.6984633" lon="11.9370331"><ele>975.0</ele><time>2026-04-04T09:38:35.262Z</time></trkpt><trkpt lat="43.6983791" lon="11.9371805"><ele>975.0</ele><time>2026-04-04T09:38:36.262Z</time></trkpt><trkpt lat="43.698275" lon="11.9373144"><ele>975.0</ele><time>2026-04-04T09:38:37.261Z</time></trkpt><trkpt lat="43.6981367" lon="11.9374207"><ele>975.0</ele><time>2026-04-04T09:38:38.285Z</time></trkpt><trkpt lat="43.6979702" lon="11.9374886"><ele>975.0</ele><time>2026-04-04T09:38:39.266Z</time></trkpt><trkpt lat="43.6977659" lon="11.9374965"><ele>975.0</ele><time>2026-04-04T09:38:40.27Z</time></trkpt><trkpt lat="43.6975823" lon="11.9375048"><ele>973.0</ele><time>2026-04-04T09:38:41.26Z</time></trkpt><trkpt lat="43.6974383" lon="11.9375592"><ele>971.0</ele><time>2026-04-04T09:38:42.265Z</time></trkpt><trkpt lat="43.6973274" lon="11.9376259"><ele>969.0</ele><time>2026-04-04T09:38:43.268Z</time></trkpt><trkpt lat="43.6972498" lon="11.9377261"><ele>967.0</ele><time>2026-04-04T09:38:44.265Z</time></trkpt><trkpt lat="43.6971802" lon="11.9378692"><ele>967.0</ele><time>2026-04-04T09:38:45.27Z</time></trkpt><trkpt lat="43.6971303" lon="11.9380165"><ele>967.0</ele><time>2026-04-04T09:38:46.272Z</time></trkpt><trkpt lat="43.6971055" lon="11.9381498"><ele>967.0</ele><time>2026-04-04T09:38:47.273Z</time></trkpt><trkpt lat="43.6971148" lon="11.9382654"><ele>967.0</ele><time>2026-04-04T09:38:48.275Z</time></trkpt><trkpt lat="43.6971709" lon="11.9383531"><ele>967.0</ele><time>2026-04-04T09:38:49.277Z</time></trkpt><trkpt lat="43.6972558" lon="11.9384088"><ele>960.0</ele><time>2026-04-04T09:38:50.277Z</time></trkpt><trkpt lat="43.6973697" lon="11.9384262"><ele>953.0</ele><time>2026-04-04T09:38:51.279Z</time></trkpt><trkpt lat="43.6975242" lon="11.9384178"><ele>946.0</ele><time>2026-04-04T09:38:52.275Z</time></trkpt><trkpt lat="43.6977224" lon="11.9384243"><ele>951.0</ele><time>2026-04-04T09:38:53.297Z</time></trkpt><trkpt lat="43.6979489" lon="11.9384396"><ele>956.0</ele><time>2026-04-04T09:38:54.274Z</time></trkpt><trkpt lat="43.6981921" lon="11.9384592"><ele>956.0</ele><time>2026-04-04T09:38:55.276Z</time></trkpt><trkpt lat="43.6984278" lon="11.9384766"><ele>956.0</ele><time>2026-04-04T09:38:56.271Z</time></trkpt><trkpt lat="43.6986245" lon="11.9385059"><ele>956.0</ele><time>2026-04-04T09:38:57.272Z</time></trkpt><trkpt lat="43.698807" lon="11.938546"><ele>959.6666666666667</ele><time>2026-04-04T09:38:58.273Z</time></trkpt><trkpt lat="43.6989588" lon="11.9386028"><ele>963.3333333333333</ele><time>2026-04-04T09:38:59.265Z</time></trkpt><trkpt lat="43.6991047" lon="11.9387016"><ele>967.0</ele><time>2026-04-04T09:39:00.264Z</time></trkpt><trkpt lat="43.6992332" lon="11.9388351"><ele>967.0</ele><time>2026-04-04T09:39:01.258Z</time></trkpt><trkpt lat="43.6993667" lon="11.9389855"><ele>967.0</ele><time>2026-04-04T09:39:02.262Z</time></trkpt><trkpt lat="43.6995087" lon="11.9391299"><ele>967.0</ele><time>2026-04-04T09:39:03.266Z</time></trkpt><trkpt lat="43.6996468" lon="11.939266"><ele>963.3333333333333</ele><time>2026-04-04T09:39:04.262Z</time></trkpt><trkpt lat="43.6997917" lon="11.9393816"><ele>959.6666666666667</ele><time>2026-04-04T09:39:05.27Z</time></trkpt><trkpt lat="43.699934" lon="11.9395036"><ele>956.0</ele><time>2026-04-04T09:39:06.267Z</time></trkpt><trkpt lat="43.7000884" lon="11.9396027"><ele>956.0</ele><time>2026-04-04T09:39:07.262Z</time></trkpt><trkpt lat="43.7002266" lon="11.9396992"><ele>956.0</ele><time>2026-04-04T09:39:08.268Z</time></trkpt><trkpt lat="43.7003643" lon="11.9397711"><ele>956.0</ele><time>2026-04-04T09:39:09.268Z</time></trkpt><trkpt lat="43.7004854" lon="11.9398513"><ele>956.0</ele><time>2026-04-04T09:39:10.275Z</time></trkpt><trkpt lat="43.7006201" lon="11.9399199"><ele>957.6666666666667</ele><time>2026-04-04T09:39:11.281Z</time></trkpt><trkpt lat="43.7007746" lon="11.9399632"><ele>959.3333333333333</ele><time>2026-04-04T09:39:12.27Z</time></trkpt><trkpt lat="43.7009366" lon="11.9399827"><ele>961.0</ele><time>2026-04-04T09:39:13.272Z</time></trkpt><trkpt lat="43.7010998" lon="11.9399849"><ele>962.25</ele><time>2026-04-04T09:39:14.268Z</time></trkpt><trkpt lat="43.7012458" lon="11.9399901"><ele>963.5</ele><time>2026-04-04T09:39:15.271Z</time></trkpt><trkpt lat="43.7013764" lon="11.940001"><ele>964.75</ele><time>2026-04-04T09:39:16.27Z</time></trkpt><trkpt lat="43.7015063" lon="11.9400052"><ele>966.0</ele><time>2026-04-04T09:39:17.274Z</time></trkpt><trkpt lat="43.7016434" lon="11.9400159"><ele>966.0</ele><time>2026-04-04T09:39:18.265Z</time></trkpt><trkpt lat="43.7017782" lon="11.9400494"><ele>966.0</ele><time>2026-04-04T09:39:19.267Z</time></trkpt><trkpt lat="43.7018748" lon="11.9401557"><ele>966.0</ele><time>2026-04-04T09:39:20.268Z</time></trkpt><trkpt lat="43.7019637" lon="11.9403259"><ele>966.0</ele><time>2026-04-04T09:39:21.268Z</time></trkpt><trkpt lat="43.7020573" lon="11.9405446"><ele>965.3333333333333</ele><time>2026-04-04T09:39:22.288Z</time></trkpt><trkpt lat="43.7021291" lon="11.940797"><ele>964.6666666666666</ele><time>2026-04-04T09:39:23.264Z</time></trkpt><trkpt lat="43.7022139" lon="11.9410716"><ele>964.0</ele><time>2026-04-04T09:39:24.265Z</time></trkpt><trkpt lat="43.7023067" lon="11.941375"><ele>962.5</ele><time>2026-04-04T09:39:25.264Z</time></trkpt><trkpt lat="43.7023989" lon="11.9416748"><ele>961.0</ele><time>2026-04-04T09:39:26.261Z</time></trkpt><trkpt lat="43.7024734" lon="11.9419607"><ele>956.6666666666666</ele><time>2026-04-04T09:39:27.267Z</time></trkpt><trkpt lat="43.7025469" lon="11.9422205"><ele>952.3333333333333</ele><time>2026-04-04T09:39:28.269Z</time></trkpt><trkpt lat="43.7026328" lon="11.9424446"><ele>948.0</ele><time>2026-04-04T09:39:29.271Z</time></trkpt><trkpt lat="43.7027302" lon="11.9426056"><ele>949.0</ele><time>2026-04-04T09:39:30.271Z</time></trkpt><trkpt lat="43.7028429" lon="11.9427179"><ele>950.0</ele><time>2026-04-04T09:39:31.27Z</time></trkpt><trkpt lat="43.7030081" lon="11.9427638"><ele>951.0</ele><time>2026-04-04T09:39:32.266Z</time></trkpt><trkpt lat="43.7031912" lon="11.9428164"><ele>951.0</ele><time>2026-04-04T09:39:33.268Z</time></trkpt><trkpt lat="43.7033639" lon="11.9428947"><ele>951.0</ele><time>2026-04-04T09:39:34.268Z</time></trkpt><trkpt lat="43.7035143" lon="11.9430049"><ele>951.0</ele><time>2026-04-04T09:39:35.273Z</time></trkpt><trkpt lat="43.7036374" lon="11.9431586"><ele>954.3333333333333</ele><time>2026-04-04T09:39:36.268Z</time></trkpt><trkpt lat="43.7037278" lon="11.9433395"><ele>957.6666666666666</ele><time>2026-04-04T09:39:37.271Z</time></trkpt><trkpt lat="43.7037329" lon="11.9435717"><ele>961.0</ele><time>2026-04-04T09:39:38.267Z</time></trkpt><trkpt lat="43.7036621" lon="11.9438575"><ele>959.0</ele><time>2026-04-04T09:39:39.266Z</time></trkpt><trkpt lat="43.7035678" lon="11.9441274"><ele>957.0</ele><time>2026-04-04T09:39:40.27Z</time></trkpt><trkpt lat="43.7034261" lon="11.9443979"><ele>957.0</ele><time>2026-04-04T09:39:41.256Z</time></trkpt><trkpt lat="43.7033049" lon="11.9446513"><ele>957.0</ele><time>2026-04-04T09:39:42.268Z</time></trkpt><trkpt lat="43.7031937" lon="11.9448686"><ele>957.0</ele><time>2026-04-04T09:39:43.259Z</time></trkpt><trkpt lat="43.7031118" lon="11.9450509"><ele>957.25</ele><time>2026-04-04T09:39:44.26Z</time></trkpt><trkpt lat="43.7030541" lon="11.9452239"><ele>957.5</ele><time>2026-04-04T09:39:45.264Z</time></trkpt><trkpt lat="43.7030334" lon="11.9454011"><ele>957.75</ele><time>2026-04-04T09:39:46.271Z</time></trkpt><trkpt lat="43.7030516" lon="11.9455952"><ele>958.0</ele><time>2026-04-04T09:39:47.268Z</time></trkpt><trkpt lat="43.7031004" lon="11.9458283"><ele>959.0</ele><time>2026-04-04T09:39:48.269Z</time></trkpt><trkpt lat="43.7031754" lon="11.9461104"><ele>960.0</ele><time>2026-04-04T09:39:49.294Z</time></trkpt><trkpt lat="43.7032576" lon="11.9464391"><ele>962.0</ele><time>2026-04-04T09:39:50.266Z</time></trkpt><trkpt lat="43.7033269" lon="11.9467468"><ele>964.0</ele><time>2026-04-04T09:39:51.269Z</time></trkpt><trkpt lat="43.7033989" lon="11.9470577"><ele>964.0</ele><time>2026-04-04T09:39:52.266Z</time></trkpt><trkpt lat="43.7034721" lon="11.9473604"><ele>964.0</ele><time>2026-04-04T09:39:53.269Z</time></trkpt><trkpt lat="43.7035418" lon="11.9476459"><ele>964.0</ele><time>2026-04-04T09:39:54.269Z</time></trkpt><trkpt lat="43.7036033" lon="11.9478941"><ele>969.0</ele><time>2026-04-04T09:39:55.271Z</time></trkpt><trkpt lat="43.7036598" lon="11.9481115"><ele>974.0</ele><time>2026-04-04T09:39:56.281Z</time></trkpt><trkpt lat="43.7037195" lon="11.9483421"><ele>979.0</ele><time>2026-04-04T09:39:57.273Z</time></trkpt><trkpt lat="43.7037832" lon="11.9485809"><ele>979.0</ele><time>2026-04-04T09:39:58.269Z</time></trkpt><trkpt lat="43.7038383" lon="11.9488177"><ele>979.0</ele><time>2026-04-04T09:39:59.271Z</time></trkpt><trkpt lat="43.7038995" lon="11.9490448"><ele>979.0</ele><time>2026-04-04T09:40:00.269Z</time></trkpt><trkpt lat="43.7039659" lon="11.9492585"><ele>979.0</ele><time>2026-04-04T09:40:01.265Z</time></trkpt><trkpt lat="43.7040139" lon="11.9494514"><ele>979.0</ele><time>2026-04-04T09:40:02.271Z</time></trkpt><trkpt lat="43.7040501" lon="11.9496242"><ele>979.0</ele><time>2026-04-04T09:40:03.263Z</time></trkpt><trkpt lat="43.7040702" lon="11.9497902"><ele>979.0</ele><time>2026-04-04T09:40:04.274Z</time></trkpt><trkpt lat="43.704049" lon="11.9499613"><ele>985.3333333333333</ele><time>2026-04-04T09:40:05.268Z</time></trkpt><trkpt lat="43.7039891" lon="11.9501387"><ele>991.6666666666667</ele><time>2026-04-04T09:40:06.271Z</time></trkpt><trkpt lat="43.7038808" lon="11.95031"><ele>998.0</ele><time>2026-04-04T09:40:07.27Z</time></trkpt><trkpt lat="43.7037271" lon="11.9504452"><ele>993.6666666666667</ele><time>2026-04-04T09:40:08.266Z</time></trkpt><trkpt lat="43.7035386" lon="11.9504997"><ele>989.3333333333333</ele><time>2026-04-04T09:40:09.264Z</time></trkpt><trkpt lat="43.7033716" lon="11.9505923"><ele>985.0</ele><time>2026-04-04T09:40:10.26Z</time></trkpt><trkpt lat="43.7031918" lon="11.9506803"><ele>985.0</ele><time>2026-04-04T09:40:11.264Z</time></trkpt><trkpt lat="43.7030328" lon="11.9507803"><ele>985.0</ele><time>2026-04-04T09:40:12.26Z</time></trkpt><trkpt lat="43.7028956" lon="11.9508755"><ele>985.0</ele><time>2026-04-04T09:40:13.267Z</time></trkpt><trkpt lat="43.7027809" lon="11.9509908"><ele>984.0</ele><time>2026-04-04T09:40:14.263Z</time></trkpt><trkpt lat="43.7026602" lon="11.9511386"><ele>983.0</ele><time>2026-04-04T09:40:15.291Z</time></trkpt><trkpt lat="43.7025355" lon="11.9513461"><ele>982.0</ele><time>2026-04-04T09:40:16.265Z</time></trkpt><trkpt lat="43.7024104" lon="11.9515753"><ele>986.0</ele><time>2026-04-04T09:40:17.264Z</time></trkpt><trkpt lat="43.7022807" lon="11.9517914"><ele>990.0</ele><time>2026-04-04T09:40:18.264Z</time></trkpt><trkpt lat="43.7021509" lon="11.9519858"><ele>994.0</ele><time>2026-04-04T09:40:19.267Z</time></trkpt><trkpt lat="43.7020365" lon="11.952159"><ele>994.0</ele><time>2026-04-04T09:40:20.264Z</time></trkpt><trkpt lat="43.7019409" lon="11.9523221"><ele>994.0</ele><time>2026-04-04T09:40:21.261Z</time></trkpt><trkpt lat="43.7018766" lon="11.9524776"><ele>994.0</ele><time>2026-04-04T09:40:22.266Z</time></trkpt><trkpt lat="43.7018329" lon="11.952643"><ele>994.0</ele><time>2026-04-04T09:40:23.27Z</time></trkpt><trkpt lat="43.7018479" lon="11.9528444"><ele>993.0</ele><time>2026-04-04T09:40:24.27Z</time></trkpt><trkpt lat="43.7019025" lon="11.9530266"><ele>992.0</ele><time>2026-04-04T09:40:25.275Z</time></trkpt><trkpt lat="43.7019939" lon="11.953219"><ele>991.0</ele><time>2026-04-04T09:40:26.269Z</time></trkpt><trkpt lat="43.7021206" lon="11.9533747"><ele>989.6666666666666</ele><time>2026-04-04T09:40:27.287Z</time></trkpt><trkpt lat="43.7022722" lon="11.9535342"><ele>988.3333333333333</ele><time>2026-04-04T09:40:28.274Z</time></trkpt><trkpt lat="43.7024312" lon="11.953717"><ele>987.0</ele><time>2026-04-04T09:40:29.269Z</time></trkpt><trkpt lat="43.7025797" lon="11.9539227"><ele>987.0</ele><time>2026-04-04T09:40:30.274Z</time></trkpt><trkpt lat="43.7026795" lon="11.9541394"><ele>987.0</ele><time>2026-04-04T09:40:31.266Z</time></trkpt><trkpt lat="43.7027393" lon="11.9543762"><ele>987.0</ele><time>2026-04-04T09:40:32.291Z</time></trkpt><trkpt lat="43.7027595" lon="11.9546439"><ele>991.0</ele><time>2026-04-04T09:40:33.272Z</time></trkpt><trkpt lat="43.7027605" lon="11.9549124"><ele>995.0</ele><time>2026-04-04T09:40:34.27Z</time></trkpt><trkpt lat="43.7027248" lon="11.9551701"><ele>999.0</ele><time>2026-04-04T09:40:35.265Z</time></trkpt><trkpt lat="43.7026395" lon="11.9554233"><ele>999.0</ele><time>2026-04-04T09:40:36.264Z</time></trkpt><trkpt lat="43.7025268" lon="11.9556558"><ele>999.0</ele><time>2026-04-04T09:40:37.268Z</time></trkpt><trkpt lat="43.7023914" lon="11.955881"><ele>999.0</ele><time>2026-04-04T09:40:38.276Z</time></trkpt><trkpt lat="43.7022319" lon="11.9561398"><ele>999.5</ele><time>2026-04-04T09:40:39.266Z</time></trkpt><trkpt lat="43.7020686" lon="11.9564118"><ele>1000.0</ele><time>2026-04-04T09:40:40.265Z</time></trkpt><trkpt lat="43.7019064" lon="11.9566845"><ele>1003.3333333333333</ele><time>2026-04-04T09:40:41.262Z</time></trkpt><trkpt lat="43.7017565" lon="11.9569291"><ele>1006.6666666666667</ele><time>2026-04-04T09:40:42.265Z</time></trkpt><trkpt lat="43.7016231" lon="11.9571563"><ele>1010.0</ele><time>2026-04-04T09:40:43.279Z</time></trkpt><trkpt lat="43.7015146" lon="11.9573588"><ele>1013.0</ele><time>2026-04-04T09:40:44.268Z</time></trkpt><trkpt lat="43.7014127" lon="11.9575362"><ele>1016.0</ele><time>2026-04-04T09:40:45.263Z</time></trkpt><trkpt lat="43.7013134" lon="11.9576483"><ele>1019.0</ele><time>2026-04-04T09:40:46.262Z</time></trkpt><trkpt lat="43.7011968" lon="11.9577071"><ele>1022.0</ele><time>2026-04-04T09:40:47.265Z</time></trkpt><trkpt lat="43.7010755" lon="11.9577112"><ele>1022.0</ele><time>2026-04-04T09:40:48.263Z</time></trkpt><trkpt lat="43.7009265" lon="11.9576318"><ele>1022.0</ele><time>2026-04-04T09:40:49.261Z</time></trkpt><trkpt lat="43.700765" lon="11.9574651"><ele>1022.0</ele><time>2026-04-04T09:40:50.264Z</time></trkpt><trkpt lat="43.7005996" lon="11.9572718"><ele>1025.5</ele><time>2026-04-04T09:40:51.259Z</time></trkpt><trkpt lat="43.7004157" lon="11.9570583"><ele>1029.0</ele><time>2026-04-04T09:40:52.269Z</time></trkpt><trkpt lat="43.7002198" lon="11.956846"><ele>1025.6666666666667</ele><time>2026-04-04T09:40:53.266Z</time></trkpt><trkpt lat="43.7000452" lon="11.9566595"><ele>1022.3333333333334</ele><time>2026-04-04T09:40:54.262Z</time></trkpt><trkpt lat="43.6998776" lon="11.9564748"><ele>1019.0</ele><time>2026-04-04T09:40:55.27Z</time></trkpt><trkpt lat="43.699729" lon="11.9563072"><ele>1019.0</ele><time>2026-04-04T09:40:56.268Z</time></trkpt><trkpt lat="43.699599" lon="11.956157"><ele>1019.0</ele><time>2026-04-04T09:40:57.273Z</time></trkpt><trkpt lat="43.6994649" lon="11.9560608"><ele>1019.0</ele><time>2026-04-04T09:40:58.293Z</time></trkpt><trkpt lat="43.6993292" lon="11.9560095"><ele>1020.5</ele><time>2026-04-04T09:40:59.274Z</time></trkpt><trkpt lat="43.699196" lon="11.9560186"><ele>1022.0</ele><time>2026-04-04T09:41:00.273Z</time></trkpt><trkpt lat="43.6990748" lon="11.9560684"><ele>1023.5</ele><time>2026-04-04T09:41:01.272Z</time></trkpt><trkpt lat="43.6989579" lon="11.9561545"><ele>1025.0</ele><time>2026-04-04T09:41:02.271Z</time></trkpt><trkpt lat="43.6988368" lon="11.9563014"><ele>1025.0</ele><time>2026-04-04T09:41:03.27Z</time></trkpt><trkpt lat="43.6987477" lon="11.9564889"><ele>1025.0</ele><time>2026-04-04T09:41:04.268Z</time></trkpt><trkpt lat="43.6986804" lon="11.9567097"><ele>1025.0</ele><time>2026-04-04T09:41:05.269Z</time></trkpt><trkpt lat="43.6986547" lon="11.9569313"><ele>1026.3333333333335</ele><time>2026-04-04T09:41:06.27Z</time></trkpt><trkpt lat="43.6986736" lon="11.9571532"><ele>1027.6666666666667</ele><time>2026-04-04T09:41:07.272Z</time></trkpt><trkpt lat="43.6987316" lon="11.9573806"><ele>1029.0</ele><time>2026-04-04T09:41:08.274Z</time></trkpt><trkpt lat="43.6988352" lon="11.9575884"><ele>1029.6666666666667</ele><time>2026-04-04T09:41:09.273Z</time></trkpt><trkpt lat="43.6989727" lon="11.9577976"><ele>1030.3333333333335</ele><time>2026-04-04T09:41:10.287Z</time></trkpt><trkpt lat="43.6991217" lon="11.9580289"><ele>1031.0</ele><time>2026-04-04T09:41:11.267Z</time></trkpt><trkpt lat="43.6992832" lon="11.9582987"><ele>1034.5</ele><time>2026-04-04T09:41:12.265Z</time></trkpt><trkpt lat="43.6994478" lon="11.9585863"><ele>1038.0</ele><time>2026-04-04T09:41:13.267Z</time></trkpt><trkpt lat="43.6996192" lon="11.9588804"><ele>1038.0</ele><time>2026-04-04T09:41:14.268Z</time></trkpt><trkpt lat="43.6997966" lon="11.9591798"><ele>1038.0</ele><time>2026-04-04T09:41:15.295Z</time></trkpt><trkpt lat="43.699963" lon="11.9594796"><ele>1039.5</ele><time>2026-04-04T09:41:16.271Z</time></trkpt><trkpt lat="43.7001234" lon="11.9597746"><ele>1041.0</ele><time>2026-04-04T09:41:17.27Z</time></trkpt><trkpt lat="43.7002629" lon="11.9600448"><ele>1043.0</ele><time>2026-04-04T09:41:18.265Z</time></trkpt><trkpt lat="43.7003878" lon="11.9602807"><ele>1045.0</ele><time>2026-04-04T09:41:19.269Z</time></trkpt><trkpt lat="43.7005005" lon="11.9604958"><ele>1047.0</ele><time>2026-04-04T09:41:20.267Z</time></trkpt><trkpt lat="43.700612" lon="11.9607003"><ele>1049.0</ele><time>2026-04-04T09:41:21.272Z</time></trkpt><trkpt lat="43.7007168" lon="11.9608947"><ele>1051.0</ele><time>2026-04-04T09:41:22.272Z</time></trkpt><trkpt lat="43.7008232" lon="11.9610788"><ele>1053.0</ele><time>2026-04-04T09:41:23.283Z</time></trkpt><trkpt lat="43.7009235" lon="11.9612484"><ele>1053.0</ele><time>2026-04-04T09:41:24.268Z</time></trkpt><trkpt lat="43.7010119" lon="11.9613907"><ele>1053.0</ele><time>2026-04-04T09:41:25.271Z</time></trkpt><trkpt lat="43.7010917" lon="11.9615272"><ele>1053.0</ele><time>2026-04-04T09:41:26.271Z</time></trkpt><trkpt lat="43.7011583" lon="11.9616523"><ele>1053.0</ele><time>2026-04-04T09:41:27.279Z</time></trkpt><trkpt lat="43.7012321" lon="11.9617796"><ele>1049.75</ele><time>2026-04-04T09:41:28.273Z</time></trkpt><trkpt lat="43.7013174" lon="11.9618961"><ele>1046.5</ele><time>2026-04-04T09:41:29.272Z</time></trkpt><trkpt lat="43.7014054" lon="11.961998"><ele>1043.25</ele><time>2026-04-04T09:41:30.295Z</time></trkpt><trkpt lat="43.7015049" lon="11.962087"><ele>1040.0</ele><time>2026-04-04T09:41:31.273Z</time></trkpt><trkpt lat="43.7016139" lon="11.9621467"><ele>1040.0</ele><time>2026-04-04T09:41:32.271Z</time></trkpt><trkpt lat="43.7017326" lon="11.9621889"><ele>1040.0</ele><time>2026-04-04T09:41:33.271Z</time></trkpt><trkpt lat="43.7018492" lon="11.9622309"><ele>1040.0</ele><time>2026-04-04T09:41:34.271Z</time></trkpt><trkpt lat="43.7019718" lon="11.9622513"><ele>1040.0</ele><time>2026-04-04T09:41:35.268Z</time></trkpt><trkpt lat="43.7021002" lon="11.9622639"><ele>1037.6666666666667</ele><time>2026-04-04T09:41:36.271Z</time></trkpt><trkpt lat="43.7022566" lon="11.9622335"><ele>1035.3333333333333</ele><time>2026-04-04T09:41:37.273Z</time></trkpt><trkpt lat="43.7024399" lon="11.9621754"><ele>1033.0</ele><time>2026-04-04T09:41:38.272Z</time></trkpt><trkpt lat="43.7026618" lon="11.9620532"><ele>1024.5</ele><time>2026-04-04T09:41:39.28Z</time></trkpt><trkpt lat="43.7028889" lon="11.9619292"><ele>1016.0</ele><time>2026-04-04T09:41:40.269Z</time></trkpt><trkpt lat="43.7031269" lon="11.9618144"><ele>1016.0</ele><time>2026-04-04T09:41:41.265Z</time></trkpt><trkpt lat="43.7033362" lon="11.9617128"><ele>1016.0</ele><time>2026-04-04T09:41:42.267Z</time></trkpt><trkpt lat="43.7035428" lon="11.9616104"><ele>1016.0</ele><time>2026-04-04T09:41:43.264Z</time></trkpt><trkpt lat="43.7037127" lon="11.961518"><ele>1020.6666666666667</ele><time>2026-04-04T09:41:44.287Z</time></trkpt><trkpt lat="43.7038842" lon="11.9614428"><ele>1025.3333333333333</ele><time>2026-04-04T09:41:45.273Z</time></trkpt><trkpt lat="43.7040539" lon="11.9613683"><ele>1030.0</ele><time>2026-04-04T09:41:46.27Z</time></trkpt><trkpt lat="43.7042151" lon="11.961298"><ele>1030.0</ele><time>2026-04-04T09:41:47.267Z</time></trkpt><trkpt lat="43.704385" lon="11.9612232"><ele>1030.0</ele><time>2026-04-04T09:41:48.266Z</time></trkpt><trkpt lat="43.7045599" lon="11.961157"><ele>1030.0</ele><time>2026-04-04T09:41:49.264Z</time></trkpt><trkpt lat="43.7047281" lon="11.9611159"><ele>1026.3333333333333</ele><time>2026-04-04T09:41:50.261Z</time></trkpt><trkpt lat="43.7048894" lon="11.9610987"><ele>1022.6666666666667</ele><time>2026-04-04T09:41:51.263Z</time></trkpt><trkpt lat="43.7050669" lon="11.9611325"><ele>1019.0</ele><time>2026-04-04T09:41:52.264Z</time></trkpt><trkpt lat="43.705256" lon="11.9612031"><ele>1019.0</ele><time>2026-04-04T09:41:53.259Z</time></trkpt><trkpt lat="43.7054367" lon="11.9613107"><ele>1019.0</ele><time>2026-04-04T09:41:54.261Z</time></trkpt><trkpt lat="43.7056108" lon="11.9614224"><ele>1019.0</ele><time>2026-04-04T09:41:55.264Z</time></trkpt><trkpt lat="43.705778" lon="11.9615194"><ele>1019.0</ele><time>2026-04-04T09:41:56.265Z</time></trkpt><trkpt lat="43.7059198" lon="11.9616018"><ele>1019.0</ele><time>2026-04-04T09:41:57.262Z</time></trkpt><trkpt lat="43.7060569" lon="11.9616936"><ele>1019.0</ele><time>2026-04-04T09:41:58.264Z</time></trkpt><trkpt lat="43.7061846" lon="11.9618054"><ele>1024.3333333333335</ele><time>2026-04-04T09:41:59.256Z</time></trkpt><trkpt lat="43.7062965" lon="11.9619733"><ele>1029.6666666666667</ele><time>2026-04-04T09:42:00.258Z</time></trkpt><trkpt lat="43.7063828" lon="11.9621827"><ele>1035.0</ele><time>2026-04-04T09:42:01.258Z</time></trkpt><trkpt lat="43.7064263" lon="11.9624182"><ele>1036.3333333333333</ele><time>2026-04-04T09:42:02.254Z</time></trkpt><trkpt lat="43.7064347" lon="11.9626778"><ele>1037.6666666666665</ele><time>2026-04-04T09:42:03.256Z</time></trkpt><trkpt lat="43.7064138" lon="11.9629584"><ele>1039.0</ele><time>2026-04-04T09:42:04.258Z</time></trkpt><trkpt lat="43.7063314" lon="11.963258"><ele>1040.5</ele><time>2026-04-04T09:42:05.262Z</time></trkpt><trkpt lat="43.7061902" lon="11.9635699"><ele>1042.0</ele><time>2026-04-04T09:42:06.256Z</time></trkpt><trkpt lat="43.7060699" lon="11.9638791"><ele>1027.0</ele><time>2026-04-04T09:42:07.256Z</time></trkpt><trkpt lat="43.705962" lon="11.964195"><ele>1012.0</ele><time>2026-04-04T09:42:08.255Z</time></trkpt><trkpt lat="43.7058679" lon="11.9645225"><ele>1010.0</ele><time>2026-04-04T09:42:09.262Z</time></trkpt><trkpt lat="43.7057713" lon="11.964849"><ele>1008.0</ele><time>2026-04-04T09:42:10.257Z</time></trkpt><trkpt lat="43.7056821" lon="11.9651697"><ele>1008.0</ele><time>2026-04-04T09:42:11.256Z</time></trkpt><trkpt lat="43.7055946" lon="11.9654689"><ele>1008.0</ele><time>2026-04-04T09:42:12.257Z</time></trkpt><trkpt lat="43.7055042" lon="11.9657591"><ele>1007.3333333333333</ele><time>2026-04-04T09:42:13.256Z</time></trkpt><trkpt lat="43.70542" lon="11.9660235"><ele>1006.6666666666666</ele><time>2026-04-04T09:42:14.256Z</time></trkpt><trkpt lat="43.7053414" lon="11.9662987"><ele>1006.0</ele><time>2026-04-04T09:42:15.258Z</time></trkpt><trkpt lat="43.7052585" lon="11.9665658"><ele>999.0</ele><time>2026-04-04T09:42:16.265Z</time></trkpt><trkpt lat="43.7051826" lon="11.9668193"><ele>992.0</ele><time>2026-04-04T09:42:17.257Z</time></trkpt><trkpt lat="43.7051353" lon="11.9670695"><ele>985.0</ele><time>2026-04-04T09:42:18.259Z</time></trkpt><trkpt lat="43.7051123" lon="11.9673138"><ele>984.0</ele><time>2026-04-04T09:42:19.264Z</time></trkpt><trkpt lat="43.7051144" lon="11.9675977"><ele>983.0</ele><time>2026-04-04T09:42:20.259Z</time></trkpt><trkpt lat="43.7051312" lon="11.9678775"><ele>982.0</ele><time>2026-04-04T09:42:21.258Z</time></trkpt><trkpt lat="43.7051575" lon="11.9681482"><ele>982.6666666666666</ele><time>2026-04-04T09:42:22.26Z</time></trkpt><trkpt lat="43.7051884" lon="11.9683822"><ele>983.3333333333333</ele><time>2026-04-04T09:42:23.255Z</time></trkpt><trkpt lat="43.7051969" lon="11.9686078"><ele>984.0</ele><time>2026-04-04T09:42:24.258Z</time></trkpt><trkpt lat="43.7051815" lon="11.9688244"><ele>984.0</ele><time>2026-04-04T09:42:25.261Z</time></trkpt><trkpt lat="43.705116" lon="11.96903"><ele>984.0</ele><time>2026-04-04T09:42:26.258Z</time></trkpt><trkpt lat="43.7050149" lon="11.9692202"><ele>984.0</ele><time>2026-04-04T09:42:27.261Z</time></trkpt><trkpt lat="43.7048842" lon="11.9694177"><ele>984.6666666666667</ele><time>2026-04-04T09:42:28.259Z</time></trkpt><trkpt lat="43.7047336" lon="11.9696021"><ele>985.3333333333334</ele><time>2026-04-04T09:42:29.255Z</time></trkpt><trkpt lat="43.7045589" lon="11.9697862"><ele>986.0</ele><time>2026-04-04T09:42:30.262Z</time></trkpt><trkpt lat="43.7043783" lon="11.9699841"><ele>981.0</ele><time>2026-04-04T09:42:31.258Z</time></trkpt><trkpt lat="43.7041872" lon="11.9701868"><ele>976.0</ele><time>2026-04-04T09:42:32.254Z</time></trkpt><trkpt lat="43.7040021" lon="11.9703802"><ele>976.0</ele><time>2026-04-04T09:42:33.268Z</time></trkpt><trkpt lat="43.7038233" lon="11.9705544"><ele>976.0</ele><time>2026-04-04T09:42:34.254Z</time></trkpt><trkpt lat="43.7036661" lon="11.9707138"><ele>976.0</ele><time>2026-04-04T09:42:35.257Z</time></trkpt><trkpt lat="43.7035343" lon="11.9708818"><ele>971.0</ele><time>2026-04-04T09:42:36.257Z</time></trkpt><trkpt lat="43.7034117" lon="11.9710698"><ele>966.0</ele><time>2026-04-04T09:42:37.255Z</time></trkpt><trkpt lat="43.7033093" lon="11.9712995"><ele>961.0</ele><time>2026-04-04T09:42:38.263Z</time></trkpt><trkpt lat="43.7032185" lon="11.9715972"><ele>964.0</ele><time>2026-04-04T09:42:39.257Z</time></trkpt><trkpt lat="43.7031401" lon="11.9719199"><ele>967.0</ele><time>2026-04-04T09:42:40.257Z</time></trkpt><trkpt lat="43.7030534" lon="11.9722466"><ele>967.5</ele><time>2026-04-04T09:42:41.254Z</time></trkpt><trkpt lat="43.7029572" lon="11.9725812"><ele>968.0</ele><time>2026-04-04T09:42:42.252Z</time></trkpt><trkpt lat="43.70286" lon="11.9729117"><ele>968.0</ele><time>2026-04-04T09:42:43.256Z</time></trkpt><trkpt lat="43.7027603" lon="11.9732463"><ele>968.0</ele><time>2026-04-04T09:42:44.257Z</time></trkpt><trkpt lat="43.7026689" lon="11.9735797"><ele>956.0</ele><time>2026-04-04T09:42:45.26Z</time></trkpt><trkpt lat="43.7025838" lon="11.9738925"><ele>944.0</ele><time>2026-04-04T09:42:46.256Z</time></trkpt><trkpt lat="43.702505" lon="11.9741934"><ele>944.0</ele><time>2026-04-04T09:42:47.266Z</time></trkpt><trkpt lat="43.7024268" lon="11.9744722"><ele>944.0</ele><time>2026-04-04T09:42:48.257Z</time></trkpt><trkpt lat="43.7023551" lon="11.974737"><ele>944.0</ele><time>2026-04-04T09:42:49.272Z</time></trkpt><trkpt lat="43.7022828" lon="11.9749932"><ele>943.3333333333334</ele><time>2026-04-04T09:42:50.259Z</time></trkpt><trkpt lat="43.702212" lon="11.9752411"><ele>942.6666666666667</ele><time>2026-04-04T09:42:51.26Z</time></trkpt><trkpt lat="43.7021581" lon="11.9754615"><ele>942.0</ele><time>2026-04-04T09:42:52.261Z</time></trkpt><trkpt lat="43.7021193" lon="11.9756688"><ele>938.75</ele><time>2026-04-04T09:42:53.257Z</time></trkpt><trkpt lat="43.702113" lon="11.9758646"><ele>935.5</ele><time>2026-04-04T09:42:54.264Z</time></trkpt><trkpt lat="43.7021624" lon="11.9760454"><ele>932.25</ele><time>2026-04-04T09:42:55.269Z</time></trkpt><trkpt lat="43.7022549" lon="11.9762058"><ele>929.0</ele><time>2026-04-04T09:42:56.267Z</time></trkpt><trkpt lat="43.702379" lon="11.976361"><ele>929.0</ele><time>2026-04-04T09:42:57.271Z</time></trkpt><trkpt lat="43.7025286" lon="11.9764817"><ele>929.0</ele><time>2026-04-04T09:42:58.269Z</time></trkpt><trkpt lat="43.702702" lon="11.9766122"><ele>929.0</ele><time>2026-04-04T09:42:59.267Z</time></trkpt><trkpt lat="43.702877" lon="11.976768"><ele>926.3333333333334</ele><time>2026-04-04T09:43:00.267Z</time></trkpt><trkpt lat="43.7030398" lon="11.9769146"><ele>923.6666666666667</ele><time>2026-04-04T09:43:01.263Z</time></trkpt><trkpt lat="43.7031958" lon="11.9770497"><ele>921.0</ele><time>2026-04-04T09:43:02.262Z</time></trkpt><trkpt lat="43.7033427" lon="11.9771808"><ele>921.0</ele><time>2026-04-04T09:43:03.264Z</time></trkpt><trkpt lat="43.7034876" lon="11.9773181"><ele>921.0</ele><time>2026-04-04T09:43:04.265Z</time></trkpt><trkpt lat="43.7036236" lon="11.9774662"><ele>921.0</ele><time>2026-04-04T09:43:05.262Z</time></trkpt><trkpt lat="43.7037621" lon="11.977625"><ele>922.0</ele><time>2026-04-04T09:43:06.269Z</time></trkpt><trkpt lat="43.7038506" lon="11.9778493"><ele>923.0</ele><time>2026-04-04T09:43:07.265Z</time></trkpt><trkpt lat="43.7039326" lon="11.9780926"><ele>924.0</ele><time>2026-04-04T09:43:08.262Z</time></trkpt><trkpt lat="43.7039989" lon="11.9783346"><ele>920.3333333333333</ele><time>2026-04-04T09:43:09.267Z</time></trkpt><trkpt lat="43.7040571" lon="11.9785581"><ele>916.6666666666666</ele><time>2026-04-04T09:43:10.27Z</time></trkpt><trkpt lat="43.7041096" lon="11.9787585"><ele>913.0</ele><time>2026-04-04T09:43:11.269Z</time></trkpt><trkpt lat="43.7041617" lon="11.9789231"><ele>913.0</ele><time>2026-04-04T09:43:12.27Z</time></trkpt><trkpt lat="43.7041989" lon="11.9790765"><ele>913.0</ele><time>2026-04-04T09:43:13.268Z</time></trkpt><trkpt lat="43.7042032" lon="11.9792133"><ele>913.0</ele><time>2026-04-04T09:43:14.27Z</time></trkpt><trkpt lat="43.7041479" lon="11.9793418"><ele>913.0</ele><time>2026-04-04T09:43:15.265Z</time></trkpt><trkpt lat="43.7040379" lon="11.9794526"><ele>907.25</ele><time>2026-04-04T09:43:16.268Z</time></trkpt><trkpt lat="43.7039009" lon="11.9795019"><ele>901.5</ele><time>2026-04-04T09:43:17.261Z</time></trkpt><trkpt lat="43.7037705" lon="11.9795133"><ele>895.75</ele><time>2026-04-04T09:43:18.271Z</time></trkpt><trkpt lat="43.7036373" lon="11.9794726"><ele>890.0</ele><time>2026-04-04T09:43:19.266Z</time></trkpt><trkpt lat="43.7035164" lon="11.979348"><ele>893.6666666666667</ele><time>2026-04-04T09:43:20.266Z</time></trkpt><trkpt lat="43.7034233" lon="11.9791382"><ele>897.3333333333333</ele><time>2026-04-04T09:43:21.263Z</time></trkpt><trkpt lat="43.7033279" lon="11.9788988"><ele>901.0</ele><time>2026-04-04T09:43:22.263Z</time></trkpt><trkpt lat="43.7032168" lon="11.9786446"><ele>901.0</ele><time>2026-04-04T09:43:23.263Z</time></trkpt><trkpt lat="43.7031037" lon="11.9783919"><ele>901.0</ele><time>2026-04-04T09:43:24.264Z</time></trkpt><trkpt lat="43.7029846" lon="11.9781637"><ele>901.0</ele><time>2026-04-04T09:43:25.261Z</time></trkpt><trkpt lat="43.702872" lon="11.9779755"><ele>897.3333333333333</ele><time>2026-04-04T09:43:26.264Z</time></trkpt><trkpt lat="43.702742" lon="11.9778145"><ele>893.6666666666667</ele><time>2026-04-04T09:43:27.267Z</time></trkpt><trkpt lat="43.7025877" lon="11.9776831"><ele>890.0</ele><time>2026-04-04T09:43:28.267Z</time></trkpt><trkpt lat="43.7023952" lon="11.9776099"><ele>890.0</ele><time>2026-04-04T09:43:29.264Z</time></trkpt><trkpt lat="43.7021865" lon="11.9775409"><ele>890.0</ele><time>2026-04-04T09:43:30.261Z</time></trkpt><trkpt lat="43.7019717" lon="11.9774912"><ele>890.0</ele><time>2026-04-04T09:43:31.262Z</time></trkpt><trkpt lat="43.7017737" lon="11.9774369"><ele>891.6666666666667</ele><time>2026-04-04T09:43:32.267Z</time></trkpt><trkpt lat="43.7015955" lon="11.9773766"><ele>893.3333333333333</ele><time>2026-04-04T09:43:33.265Z</time></trkpt><trkpt lat="43.7014203" lon="11.9773199"><ele>895.0</ele><time>2026-04-04T09:43:34.265Z</time></trkpt><trkpt lat="43.7012578" lon="11.9772645"><ele>895.0</ele><time>2026-04-04T09:43:35.264Z</time></trkpt><trkpt lat="43.7011091" lon="11.9772209"><ele>895.0</ele><time>2026-04-04T09:43:36.276Z</time></trkpt><trkpt lat="43.7009767" lon="11.9771794"><ele>895.0</ele><time>2026-04-04T09:43:37.268Z</time></trkpt><trkpt lat="43.7008571" lon="11.9771519"><ele>895.0</ele><time>2026-04-04T09:43:38.267Z</time></trkpt><trkpt lat="43.7007428" lon="11.9771278"><ele>892.75</ele><time>2026-04-04T09:43:39.267Z</time></trkpt><trkpt lat="43.7006375" lon="11.977138"><ele>890.5</ele><time>2026-04-04T09:43:40.266Z</time></trkpt><trkpt lat="43.7005286" lon="11.9771883"><ele>888.25</ele><time>2026-04-04T09:43:41.283Z</time></trkpt><trkpt lat="43.7004476" lon="11.9773046"><ele>886.0</ele><time>2026-04-04T09:43:42.271Z</time></trkpt><trkpt lat="43.7003964" lon="11.9774565"><ele>883.5</ele><time>2026-04-04T09:43:43.268Z</time></trkpt><trkpt lat="43.700374" lon="11.977618"><ele>881.0</ele><time>2026-04-04T09:43:44.271Z</time></trkpt><trkpt lat="43.7003855" lon="11.9777786"><ele>878.5</ele><time>2026-04-04T09:43:45.272Z</time></trkpt><trkpt lat="43.7004358" lon="11.9779378"><ele>876.0</ele><time>2026-04-04T09:43:46.273Z</time></trkpt><trkpt lat="43.7005185" lon="11.9780578"><ele>876.0</ele><time>2026-04-04T09:43:47.271Z</time></trkpt><trkpt lat="43.7006195" lon="11.9781574"><ele>876.0</ele><time>2026-04-04T09:43:48.271Z</time></trkpt><trkpt lat="43.7007449" lon="11.9782101"><ele>876.0</ele><time>2026-04-04T09:43:49.275Z</time></trkpt><trkpt lat="43.7008818" lon="11.9782516"><ele>876.0</ele><time>2026-04-04T09:43:50.272Z</time></trkpt><trkpt lat="43.7010541" lon="11.978258"><ele>876.6666666666667</ele><time>2026-04-04T09:43:51.269Z</time></trkpt><trkpt lat="43.7012277" lon="11.978266"><ele>877.3333333333334</ele><time>2026-04-04T09:43:52.288Z</time></trkpt><trkpt lat="43.7013888" lon="11.9782892"><ele>878.0</ele><time>2026-04-04T09:43:53.268Z</time></trkpt><trkpt lat="43.7015591" lon="11.978347"><ele>875.0</ele><time>2026-04-04T09:43:54.267Z</time></trkpt><trkpt lat="43.7017114" lon="11.9784528"><ele>872.0</ele><time>2026-04-04T09:43:55.271Z</time></trkpt><trkpt lat="43.7018343" lon="11.9786082"><ele>869.0</ele><time>2026-04-04T09:43:56.27Z</time></trkpt><trkpt lat="43.7019134" lon="11.9788194"><ele>871.3333333333334</ele><time>2026-04-04T09:43:57.272Z</time></trkpt><trkpt lat="43.7019596" lon="11.979045"><ele>873.6666666666667</ele><time>2026-04-04T09:43:58.267Z</time></trkpt><trkpt lat="43.7019896" lon="11.9792964"><ele>876.0</ele><time>2026-04-04T09:43:59.268Z</time></trkpt><trkpt lat="43.7020133" lon="11.9795657"><ele>876.0</ele><time>2026-04-04T09:44:00.271Z</time></trkpt><trkpt lat="43.7020405" lon="11.9798447"><ele>876.0</ele><time>2026-04-04T09:44:01.271Z</time></trkpt><trkpt lat="43.7020769" lon="11.9801145"><ele>876.0</ele><time>2026-04-04T09:44:02.276Z</time></trkpt><trkpt lat="43.7021074" lon="11.9803607"><ele>872.6666666666667</ele><time>2026-04-04T09:44:03.271Z</time></trkpt><trkpt lat="43.7021399" lon="11.9805884"><ele>869.3333333333334</ele><time>2026-04-04T09:44:04.293Z</time></trkpt><trkpt lat="43.70219" lon="11.9807912"><ele>866.0</ele><time>2026-04-04T09:44:05.268Z</time></trkpt><trkpt lat="43.7022492" lon="11.9809649"><ele>860.25</ele><time>2026-04-04T09:44:06.27Z</time></trkpt><trkpt lat="43.7023369" lon="11.9811102"><ele>854.5</ele><time>2026-04-04T09:44:07.27Z</time></trkpt><trkpt lat="43.7024509" lon="11.981216"><ele>848.75</ele><time>2026-04-04T09:44:08.271Z</time></trkpt><trkpt lat="43.7025976" lon="11.9812613"><ele>843.0</ele><time>2026-04-04T09:44:09.272Z</time></trkpt><trkpt lat="43.702764" lon="11.9812331"><ele>837.3333333333333</ele><time>2026-04-04T09:44:10.272Z</time></trkpt><trkpt lat="43.7029444" lon="11.9811643"><ele>831.6666666666666</ele><time>2026-04-04T09:44:11.27Z</time></trkpt><trkpt lat="43.7031271" lon="11.9810579"><ele>826.0</ele><time>2026-04-04T09:44:12.274Z</time></trkpt><trkpt lat="43.7033352" lon="11.9809449"><ele>826.0</ele><time>2026-04-04T09:44:13.267Z</time></trkpt><trkpt lat="43.7035341" lon="11.98087"><ele>826.0</ele><time>2026-04-04T09:44:14.263Z</time></trkpt><trkpt lat="43.7037231" lon="11.9808112"><ele>826.0</ele><time>2026-04-04T09:44:15.262Z</time></trkpt><trkpt lat="43.703947" lon="11.9807935"><ele>840.0</ele><time>2026-04-04T09:44:16.26Z</time></trkpt><trkpt lat="43.7041948" lon="11.9808247"><ele>854.0</ele><time>2026-04-04T09:44:17.262Z</time></trkpt><trkpt lat="43.7044254" lon="11.9808469"><ele>845.3333333333334</ele><time>2026-04-04T09:44:18.284Z</time></trkpt><trkpt lat="43.7046585" lon="11.9808707"><ele>836.6666666666667</ele><time>2026-04-04T09:44:19.265Z</time></trkpt><trkpt lat="43.7048724" lon="11.9808803"><ele>828.0</ele><time>2026-04-04T09:44:20.272Z</time></trkpt><trkpt lat="43.7050906" lon="11.9808774"><ele>829.3333333333333</ele><time>2026-04-04T09:44:21.265Z</time></trkpt><trkpt lat="43.7052986" lon="11.9808779"><ele>830.6666666666666</ele><time>2026-04-04T09:44:22.265Z</time></trkpt><trkpt lat="43.7054919" lon="11.980874"><ele>832.0</ele><time>2026-04-04T09:44:23.262Z</time></trkpt><trkpt lat="43.7056748" lon="11.9808751"><ele>832.0</ele><time>2026-04-04T09:44:24.261Z</time></trkpt><trkpt lat="43.7058627" lon="11.9808805"><ele>832.0</ele><time>2026-04-04T09:44:25.265Z</time></trkpt><trkpt lat="43.7060369" lon="11.9808812"><ele>832.0</ele><time>2026-04-04T09:44:26.262Z</time></trkpt><trkpt lat="43.7062005" lon="11.9808919"><ele>834.5</ele><time>2026-04-04T09:44:27.263Z</time></trkpt><trkpt lat="43.7063419" lon="11.9809285"><ele>837.0</ele><time>2026-04-04T09:44:28.26Z</time></trkpt><trkpt lat="43.7064706" lon="11.981008"><ele>839.5</ele><time>2026-04-04T09:44:29.261Z</time></trkpt><trkpt lat="43.7065762" lon="11.9811005"><ele>842.0</ele><time>2026-04-04T09:44:30.264Z</time></trkpt><trkpt lat="43.7066217" lon="11.981278"><ele>842.0</ele><time>2026-04-04T09:44:31.257Z</time></trkpt><trkpt lat="43.7066447" lon="11.9814898"><ele>842.0</ele><time>2026-04-04T09:44:32.279Z</time></trkpt><trkpt lat="43.7066496" lon="11.9816948"><ele>842.0</ele><time>2026-04-04T09:44:33.258Z</time></trkpt><trkpt lat="43.7066188" lon="11.9819069"><ele>850.0</ele><time>2026-04-04T09:44:34.261Z</time></trkpt><trkpt lat="43.7065466" lon="11.9820986"><ele>858.0</ele><time>2026-04-04T09:44:35.26Z</time></trkpt><trkpt lat="43.706457" lon="11.9822867"><ele>866.0</ele><time>2026-04-04T09:44:36.264Z</time></trkpt><trkpt lat="43.7063383" lon="11.9824355"><ele>868.3333333333334</ele><time>2026-04-04T09:44:37.265Z</time></trkpt><trkpt lat="43.7061564" lon="11.9825385"><ele>870.6666666666667</ele><time>2026-04-04T09:44:38.262Z</time></trkpt><trkpt lat="43.7059397" lon="11.9826243"><ele>873.0</ele><time>2026-04-04T09:44:39.274Z</time></trkpt><trkpt lat="43.7057263" lon="11.9826946"><ele>873.0</ele><time>2026-04-04T09:44:40.259Z</time></trkpt><trkpt lat="43.7054977" lon="11.9827279"><ele>873.0</ele><time>2026-04-04T09:44:41.257Z</time></trkpt><trkpt lat="43.7052266" lon="11.9826159"><ele>869.5</ele><time>2026-04-04T09:44:42.259Z</time></trkpt><trkpt lat="43.7049712" lon="11.9825345"><ele>866.0</ele><time>2026-04-04T09:44:43.262Z</time></trkpt><trkpt lat="43.7047387" lon="11.9824599"><ele>862.0</ele><time>2026-04-04T09:44:44.28Z</time></trkpt><trkpt lat="43.7045404" lon="11.9824197"><ele>858.0</ele><time>2026-04-04T09:44:45.261Z</time></trkpt><trkpt lat="43.7043639" lon="11.9824462"><ele>854.0</ele><time>2026-04-04T09:44:46.263Z</time></trkpt><trkpt lat="43.7041875" lon="11.982556"><ele>854.0</ele><time>2026-04-04T09:44:47.268Z</time></trkpt><trkpt lat="43.7040012" lon="11.9827248"><ele>854.0</ele><time>2026-04-04T09:44:48.256Z</time></trkpt><trkpt lat="43.7037933" lon="11.9828872"><ele>854.0</ele><time>2026-04-04T09:44:49.264Z</time></trkpt><trkpt lat="43.7036051" lon="11.9830254"><ele>854.0</ele><time>2026-04-04T09:44:50.261Z</time></trkpt><trkpt lat="43.7034245" lon="11.9831665"><ele>854.0</ele><time>2026-04-04T09:44:51.278Z</time></trkpt><trkpt lat="43.7032456" lon="11.9833054"><ele>852.0</ele><time>2026-04-04T09:44:52.265Z</time></trkpt><trkpt lat="43.7030823" lon="11.9834573"><ele>850.0</ele><time>2026-04-04T09:44:53.266Z</time></trkpt><trkpt lat="43.702921" lon="11.9836213"><ele>848.0</ele><time>2026-04-04T09:44:54.265Z</time></trkpt><trkpt lat="43.7027758" lon="11.9838318"><ele>843.5</ele><time>2026-04-04T09:44:55.267Z</time></trkpt><trkpt lat="43.7026272" lon="11.9840992"><ele>839.0</ele><time>2026-04-04T09:44:56.289Z</time></trkpt><trkpt lat="43.7024755" lon="11.984419"><ele>839.0</ele><time>2026-04-04T09:44:57.263Z</time></trkpt><trkpt lat="43.7023129" lon="11.9847322"><ele>839.0</ele><time>2026-04-04T09:44:58.265Z</time></trkpt><trkpt lat="43.7021532" lon="11.9850255"><ele>838.0</ele><time>2026-04-04T09:44:59.253Z</time></trkpt><trkpt lat="43.7020217" lon="11.9852769"><ele>837.0</ele><time>2026-04-04T09:45:00.257Z</time></trkpt><trkpt lat="43.7018996" lon="11.9855112"><ele>836.0</ele><time>2026-04-04T09:45:01.249Z</time></trkpt><trkpt lat="43.7017718" lon="11.9857375"><ele>845.0</ele><time>2026-04-04T09:45:02.249Z</time></trkpt><trkpt lat="43.7016373" lon="11.985953"><ele>854.0</ele><time>2026-04-04T09:45:03.247Z</time></trkpt><trkpt lat="43.7014845" lon="11.986147"><ele>863.0</ele><time>2026-04-04T09:45:04.25Z</time></trkpt><trkpt lat="43.7013078" lon="11.9863019"><ele>863.0</ele><time>2026-04-04T09:45:05.244Z</time></trkpt><trkpt lat="43.7011344" lon="11.9864432"><ele>863.0</ele><time>2026-04-04T09:45:06.262Z</time></trkpt><trkpt lat="43.7009344" lon="11.9865352"><ele>863.0</ele><time>2026-04-04T09:45:07.258Z</time></trkpt><trkpt lat="43.7007308" lon="11.9866003"><ele>863.3333333333334</ele><time>2026-04-04T09:45:08.255Z</time></trkpt><trkpt lat="43.7005287" lon="11.9866675"><ele>863.6666666666667</ele><time>2026-04-04T09:45:09.254Z</time></trkpt><trkpt lat="43.7003324" lon="11.9867374"><ele>864.0</ele><time>2026-04-04T09:45:10.252Z</time></trkpt><trkpt lat="43.7001277" lon="11.986777"><ele>864.0</ele><time>2026-04-04T09:45:11.253Z</time></trkpt><trkpt lat="43.6999042" lon="11.9867679"><ele>864.0</ele><time>2026-04-04T09:45:12.253Z</time></trkpt><trkpt lat="43.6996606" lon="11.9867068"><ele>848.0</ele><time>2026-04-04T09:45:13.243Z</time></trkpt><trkpt lat="43.699426" lon="11.9866409"><ele>832.0</ele><time>2026-04-04T09:45:14.244Z</time></trkpt><trkpt lat="43.6991944" lon="11.9865895"><ele>832.0</ele><time>2026-04-04T09:45:15.242Z</time></trkpt><trkpt lat="43.6989704" lon="11.9865324"><ele>832.0</ele><time>2026-04-04T09:45:16.259Z</time></trkpt><trkpt lat="43.698748" lon="11.9864859"><ele>836.0</ele><time>2026-04-04T09:45:17.241Z</time></trkpt><trkpt lat="43.6985407" lon="11.9864405"><ele>840.0</ele><time>2026-04-04T09:45:18.241Z</time></trkpt><trkpt lat="43.6983433" lon="11.986394"><ele>844.0</ele><time>2026-04-04T09:45:19.241Z</time></trkpt><trkpt lat="43.6981486" lon="11.9863573"><ele>844.0</ele><time>2026-04-04T09:45:20.241Z</time></trkpt><trkpt lat="43.6979528" lon="11.9863223"><ele>844.0</ele><time>2026-04-04T09:45:21.25Z</time></trkpt><trkpt lat="43.6977588" lon="11.9862881"><ele>844.0</ele><time>2026-04-04T09:45:22.243Z</time></trkpt><trkpt lat="43.6975812" lon="11.9862579"><ele>844.0</ele><time>2026-04-04T09:45:23.241Z</time></trkpt><trkpt lat="43.6974168" lon="11.9862344"><ele>844.0</ele><time>2026-04-04T09:45:24.244Z</time></trkpt><trkpt lat="43.6972741" lon="11.9862183"><ele>844.0</ele><time>2026-04-04T09:45:25.246Z</time></trkpt><trkpt lat="43.6971444" lon="11.9862058"><ele>844.0</ele><time>2026-04-04T09:45:26.241Z</time></trkpt><trkpt lat="43.6970095" lon="11.986223"><ele>841.3333333333333</ele><time>2026-04-04T09:45:27.251Z</time></trkpt><trkpt lat="43.6968677" lon="11.9862717"><ele>838.6666666666667</ele><time>2026-04-04T09:45:28.245Z</time></trkpt><trkpt lat="43.6967111" lon="11.986396"><ele>836.0</ele><time>2026-04-04T09:45:29.248Z</time></trkpt><trkpt lat="43.6965391" lon="11.9865412"><ele>833.6666666666667</ele><time>2026-04-04T09:45:30.246Z</time></trkpt><trkpt lat="43.6963712" lon="11.9866864"><ele>831.3333333333333</ele><time>2026-04-04T09:45:31.246Z</time></trkpt><trkpt lat="43.6962225" lon="11.9868164"><ele>829.0</ele><time>2026-04-04T09:45:32.248Z</time></trkpt><trkpt lat="43.6960854" lon="11.9869367"><ele>829.0</ele><time>2026-04-04T09:45:33.252Z</time></trkpt><trkpt lat="43.6959607" lon="11.9870828"><ele>829.0</ele><time>2026-04-04T09:45:34.252Z</time></trkpt><trkpt lat="43.6958436" lon="11.9872687"><ele>829.0</ele><time>2026-04-04T09:45:35.252Z</time></trkpt><trkpt lat="43.6957457" lon="11.9875077"><ele>827.5</ele><time>2026-04-04T09:45:36.251Z</time></trkpt><trkpt lat="43.6956584" lon="11.9877949"><ele>826.0</ele><time>2026-04-04T09:45:37.26Z</time></trkpt><trkpt lat="43.6955687" lon="11.98808"><ele>822.0</ele><time>2026-04-04T09:45:38.256Z</time></trkpt><trkpt lat="43.6954647" lon="11.988357"><ele>818.0</ele><time>2026-04-04T09:45:39.27Z</time></trkpt><trkpt lat="43.6953807" lon="11.9886369"><ele>814.0</ele><time>2026-04-04T09:45:40.262Z</time></trkpt><trkpt lat="43.6953087" lon="11.9889035"><ele>812.6666666666666</ele><time>2026-04-04T09:45:41.261Z</time></trkpt><trkpt lat="43.6952192" lon="11.9891621"><ele>811.3333333333333</ele><time>2026-04-04T09:45:42.252Z</time></trkpt><trkpt lat="43.6951336" lon="11.989405"><ele>810.0</ele><time>2026-04-04T09:45:43.253Z</time></trkpt><trkpt lat="43.6950338" lon="11.9896338"><ele>810.0</ele><time>2026-04-04T09:45:44.261Z</time></trkpt><trkpt lat="43.6949229" lon="11.9898246"><ele>810.0</ele><time>2026-04-04T09:45:45.255Z</time></trkpt><trkpt lat="43.6948054" lon="11.9899858"><ele>810.0</ele><time>2026-04-04T09:45:46.258Z</time></trkpt><trkpt lat="43.6946732" lon="11.9901188"><ele>805.0</ele><time>2026-04-04T09:45:47.256Z</time></trkpt><trkpt lat="43.6945067" lon="11.9902151"><ele>800.0</ele><time>2026-04-04T09:45:48.253Z</time></trkpt><trkpt lat="43.694332" lon="11.9903089"><ele>795.0</ele><time>2026-04-04T09:45:49.253Z</time></trkpt><trkpt lat="43.6941322" lon="11.9903671"><ele>795.0</ele><time>2026-04-04T09:45:50.252Z</time></trkpt><trkpt lat="43.693921" lon="11.9904212"><ele>795.0</ele><time>2026-04-04T09:45:51.25Z</time></trkpt><trkpt lat="43.6936689" lon="11.9904436"><ele>796.5</ele><time>2026-04-04T09:45:52.262Z</time></trkpt><trkpt lat="43.6934025" lon="11.9904616"><ele>798.0</ele><time>2026-04-04T09:45:53.263Z</time></trkpt><trkpt lat="43.6931635" lon="11.990491"><ele>798.0</ele><time>2026-04-04T09:45:54.259Z</time></trkpt><trkpt lat="43.6929437" lon="11.9904986"><ele>798.0</ele><time>2026-04-04T09:45:55.268Z</time></trkpt><trkpt lat="43.692746" lon="11.9905303"><ele>798.0</ele><time>2026-04-04T09:45:56.273Z</time></trkpt><trkpt lat="43.692549" lon="11.9905118"><ele>797.6666666666667</ele><time>2026-04-04T09:45:57.263Z</time></trkpt><trkpt lat="43.6923655" lon="11.9904696"><ele>797.3333333333334</ele><time>2026-04-04T09:45:58.262Z</time></trkpt><trkpt lat="43.6921934" lon="11.9903776"><ele>797.0</ele><time>2026-04-04T09:45:59.251Z</time></trkpt><trkpt lat="43.6920262" lon="11.990231"><ele>795.0</ele><time>2026-04-04T09:46:00.253Z</time></trkpt><trkpt lat="43.6918638" lon="11.9901565"><ele>793.0</ele><time>2026-04-04T09:46:01.257Z</time></trkpt><trkpt lat="43.6916814" lon="11.9901273"><ele>791.0</ele><time>2026-04-04T09:46:02.248Z</time></trkpt><trkpt lat="43.6915162" lon="11.9901842"><ele>791.0</ele><time>2026-04-04T09:46:03.255Z</time></trkpt><trkpt lat="43.6913475" lon="11.9902964"><ele>791.0</ele><time>2026-04-04T09:46:04.258Z</time></trkpt><trkpt lat="43.6911526" lon="11.9904665"><ele>791.0</ele><time>2026-04-04T09:46:05.257Z</time></trkpt><trkpt lat="43.6909461" lon="11.9906525"><ele>794.5</ele><time>2026-04-04T09:46:06.256Z</time></trkpt><trkpt lat="43.6907262" lon="11.9908235"><ele>798.0</ele><time>2026-04-04T09:46:07.258Z</time></trkpt><trkpt lat="43.6904944" lon="11.991012"><ele>796.5</ele><time>2026-04-04T09:46:08.257Z</time></trkpt><trkpt lat="43.6902565" lon="11.9912067"><ele>795.0</ele><time>2026-04-04T09:46:09.271Z</time></trkpt><trkpt lat="43.6900455" lon="11.9913921"><ele>795.0</ele><time>2026-04-04T09:46:10.258Z</time></trkpt><trkpt lat="43.6898394" lon="11.9915773"><ele>795.0</ele><time>2026-04-04T09:46:11.261Z</time></trkpt><trkpt lat="43.6896461" lon="11.9917535"><ele>792.0</ele><time>2026-04-04T09:46:12.26Z</time></trkpt><trkpt lat="43.6894707" lon="11.9919118"><ele>789.0</ele><time>2026-04-04T09:46:13.258Z</time></trkpt><trkpt lat="43.689296" lon="11.9920577"><ele>786.0</ele><time>2026-04-04T09:46:14.258Z</time></trkpt><trkpt lat="43.6891362" lon="11.9921933"><ele>786.0</ele><time>2026-04-04T09:46:15.26Z</time></trkpt><trkpt lat="43.6890029" lon="11.9923128"><ele>786.0</ele><time>2026-04-04T09:46:16.254Z</time></trkpt><trkpt lat="43.688881" lon="11.992416"><ele>786.0</ele><time>2026-04-04T09:46:17.257Z</time></trkpt><trkpt lat="43.6887729" lon="11.9924893"><ele>786.0</ele><time>2026-04-04T09:46:18.269Z</time></trkpt><trkpt lat="43.6886551" lon="11.9925472"><ele>787.3333333333333</ele><time>2026-04-04T09:46:19.269Z</time></trkpt><trkpt lat="43.6885316" lon="11.9925329"><ele>788.6666666666666</ele><time>2026-04-04T09:46:20.255Z</time></trkpt><trkpt lat="43.6883896" lon="11.9924707"><ele>790.0</ele><time>2026-04-04T09:46:21.248Z</time></trkpt><trkpt lat="43.6882244" lon="11.9923462"><ele>790.0</ele><time>2026-04-04T09:46:22.248Z</time></trkpt><trkpt lat="43.6880491" lon="11.9921865"><ele>790.0</ele><time>2026-04-04T09:46:23.256Z</time></trkpt><trkpt lat="43.6878538" lon="11.9920236"><ele>790.0</ele><time>2026-04-04T09:46:24.251Z</time></trkpt><trkpt lat="43.6876448" lon="11.9918576"><ele>789.6666666666666</ele><time>2026-04-04T09:46:25.258Z</time></trkpt><trkpt lat="43.6874386" lon="11.9917061"><ele>789.3333333333333</ele><time>2026-04-04T09:46:26.258Z</time></trkpt><trkpt lat="43.6872556" lon="11.9915607"><ele>789.0</ele><time>2026-04-04T09:46:27.254Z</time></trkpt><trkpt lat="43.6870803" lon="11.9914392"><ele>787.0</ele><time>2026-04-04T09:46:28.257Z</time></trkpt><trkpt lat="43.6869159" lon="11.9913415"><ele>785.0</ele><time>2026-04-04T09:46:29.252Z</time></trkpt><trkpt lat="43.6867545" lon="11.9913118"><ele>783.0</ele><time>2026-04-04T09:46:30.249Z</time></trkpt><trkpt lat="43.6865909" lon="11.9913486"><ele>783.0</ele><time>2026-04-04T09:46:31.252Z</time></trkpt><trkpt lat="43.6864362" lon="11.9914321"><ele>783.0</ele><time>2026-04-04T09:46:32.251Z</time></trkpt><trkpt lat="43.6862408" lon="11.9915791"><ele>783.0</ele><time>2026-04-04T09:46:33.25Z</time></trkpt><trkpt lat="43.6860309" lon="11.991753"><ele>776.0</ele><time>2026-04-04T09:46:34.261Z</time></trkpt><trkpt lat="43.685802" lon="11.9919202"><ele>769.0</ele><time>2026-04-04T09:46:35.267Z</time></trkpt><trkpt lat="43.6855579" lon="11.99208"><ele>769.0</ele><time>2026-04-04T09:46:36.263Z</time></trkpt><trkpt lat="43.6853259" lon="11.992237"><ele>769.0</ele><time>2026-04-04T09:46:37.27Z</time></trkpt><trkpt lat="43.6851073" lon="11.9923794"><ele>765.0</ele><time>2026-04-04T09:46:38.262Z</time></trkpt><trkpt lat="43.6848954" lon="11.992511"><ele>761.0</ele><time>2026-04-04T09:46:39.263Z</time></trkpt><trkpt lat="43.6847028" lon="11.9926292"><ele>757.0</ele><time>2026-04-04T09:46:40.262Z</time></trkpt><trkpt lat="43.6845149" lon="11.9927523"><ele>760.3333333333334</ele><time>2026-04-04T09:46:41.26Z</time></trkpt><trkpt lat="43.6843257" lon="11.992858"><ele>763.6666666666666</ele><time>2026-04-04T09:46:42.268Z</time></trkpt><trkpt lat="43.6841312" lon="11.9929481"><ele>767.0</ele><time>2026-04-04T09:46:43.27Z</time></trkpt><trkpt lat="43.6839151" lon="11.9930137"><ele>767.0</ele><time>2026-04-04T09:46:44.259Z</time></trkpt><trkpt lat="43.6836821" lon="11.9930764"><ele>767.0</ele><time>2026-04-04T09:46:45.253Z</time></trkpt><trkpt lat="43.6834376" lon="11.993134"><ele>765.5</ele><time>2026-04-04T09:46:46.255Z</time></trkpt><trkpt lat="43.6831892" lon="11.9931954"><ele>764.0</ele><time>2026-04-04T09:46:47.258Z</time></trkpt><trkpt lat="43.6829374" lon="11.9932616"><ele>766.0</ele><time>2026-04-04T09:46:48.256Z</time></trkpt><trkpt lat="43.6826954" lon="11.9933219"><ele>768.0</ele><time>2026-04-04T09:46:49.253Z</time></trkpt><trkpt lat="43.6824644" lon="11.9933788"><ele>759.5</ele><time>2026-04-04T09:46:50.256Z</time></trkpt><trkpt lat="43.6822322" lon="11.9934347"><ele>751.0</ele><time>2026-04-04T09:46:51.257Z</time></trkpt><trkpt lat="43.6820162" lon="11.9934983"><ele>751.3333333333334</ele><time>2026-04-04T09:46:52.255Z</time></trkpt><trkpt lat="43.6818131" lon="11.9935615"><ele>751.6666666666666</ele><time>2026-04-04T09:46:53.251Z</time></trkpt><trkpt lat="43.6816174" lon="11.9936168"><ele>752.0</ele><time>2026-04-04T09:46:54.262Z</time></trkpt><trkpt lat="43.6814319" lon="11.993666"><ele>752.0</ele><time>2026-04-04T09:46:55.254Z</time></trkpt><trkpt lat="43.6812557" lon="11.9937205"><ele>752.0</ele><time>2026-04-04T09:46:56.255Z</time></trkpt><trkpt lat="43.6810992" lon="11.9937781"><ele>752.0</ele><time>2026-04-04T09:46:57.258Z</time></trkpt><trkpt lat="43.680965" lon="11.9938629"><ele>751.0</ele><time>2026-04-04T09:46:58.264Z</time></trkpt><trkpt lat="43.6808642" lon="11.9939996"><ele>750.0</ele><time>2026-04-04T09:46:59.255Z</time></trkpt><trkpt lat="43.6807796" lon="11.9941779"><ele>749.0</ele><time>2026-04-04T09:47:00.252Z</time></trkpt><trkpt lat="43.6807174" lon="11.9943991"><ele>749.0</ele><time>2026-04-04T09:47:01.254Z</time></trkpt><trkpt lat="43.6806554" lon="11.9946406"><ele>749.0</ele><time>2026-04-04T09:47:02.252Z</time></trkpt><trkpt lat="43.680588" lon="11.9948966"><ele>749.0</ele><time>2026-04-04T09:47:03.258Z</time></trkpt><trkpt lat="43.6805122" lon="11.9951403"><ele>750.0</ele><time>2026-04-04T09:47:04.26Z</time></trkpt><trkpt lat="43.6803921" lon="11.9953543"><ele>751.0</ele><time>2026-04-04T09:47:05.267Z</time></trkpt><trkpt lat="43.6802488" lon="11.9955515"><ele>752.0</ele><time>2026-04-04T09:47:06.26Z</time></trkpt><trkpt lat="43.6800832" lon="11.9957535"><ele>743.5</ele><time>2026-04-04T09:47:07.262Z</time></trkpt><trkpt lat="43.6799189" lon="11.9959684"><ele>735.0</ele><time>2026-04-04T09:47:08.262Z</time></trkpt><trkpt lat="43.6797498" lon="11.9961968"><ele>735.0</ele><time>2026-04-04T09:47:09.263Z</time></trkpt><trkpt lat="43.6795743" lon="11.9964216"><ele>735.0</ele><time>2026-04-04T09:47:10.26Z</time></trkpt><trkpt lat="43.6794003" lon="11.9966425"><ele>735.3333333333334</ele><time>2026-04-04T09:47:11.262Z</time></trkpt><trkpt lat="43.6792255" lon="11.9968537"><ele>735.6666666666667</ele><time>2026-04-04T09:47:12.264Z</time></trkpt><trkpt lat="43.6790663" lon="11.9970562"><ele>736.0</ele><time>2026-04-04T09:47:13.259Z</time></trkpt><trkpt lat="43.6789242" lon="11.9972426"><ele>736.0</ele><time>2026-04-04T09:47:14.259Z</time></trkpt><trkpt lat="43.6787878" lon="11.9974158"><ele>736.0</ele><time>2026-04-04T09:47:15.252Z</time></trkpt><trkpt lat="43.678666" lon="11.997575"><ele>736.0</ele><time>2026-04-04T09:47:16.255Z</time></trkpt><trkpt lat="43.6785608" lon="11.9977183"><ele>733.0</ele><time>2026-04-04T09:47:17.253Z</time></trkpt><trkpt lat="43.6784551" lon="11.9978125"><ele>730.0</ele><time>2026-04-04T09:47:18.251Z</time></trkpt><trkpt lat="43.6783458" lon="11.9978773"><ele>727.0</ele><time>2026-04-04T09:47:19.25Z</time></trkpt><trkpt lat="43.6782126" lon="11.9979063"><ele>724.0</ele><time>2026-04-04T09:47:20.251Z</time></trkpt><trkpt lat="43.6780878" lon="11.9978365"><ele>724.0</ele><time>2026-04-04T09:47:21.251Z</time></trkpt><trkpt lat="43.6779664" lon="11.9977537"><ele>724.0</ele><time>2026-04-04T09:47:22.248Z</time></trkpt><trkpt lat="43.6778429" lon="11.9977405"><ele>724.0</ele><time>2026-04-04T09:47:23.249Z</time></trkpt><trkpt lat="43.6777235" lon="11.9978096"><ele>724.0</ele><time>2026-04-04T09:47:24.261Z</time></trkpt><trkpt lat="43.6775912" lon="11.9979547"><ele>720.6666666666667</ele><time>2026-04-04T09:47:25.272Z</time></trkpt><trkpt lat="43.6774762" lon="11.9981407"><ele>717.3333333333334</ele><time>2026-04-04T09:47:26.256Z</time></trkpt><trkpt lat="43.6773626" lon="11.998341"><ele>714.0</ele><time>2026-04-04T09:47:27.26Z</time></trkpt><trkpt lat="43.6772957" lon="11.9985889"><ele>714.0</ele><time>2026-04-04T09:47:28.254Z</time></trkpt><trkpt lat="43.6772377" lon="11.9988439"><ele>714.0</ele><time>2026-04-04T09:47:29.253Z</time></trkpt><trkpt lat="43.6771522" lon="11.9990751"><ele>714.0</ele><time>2026-04-04T09:47:30.25Z</time></trkpt><trkpt lat="43.6770515" lon="11.9992622"><ele>713.0</ele><time>2026-04-04T09:47:31.245Z</time></trkpt><trkpt lat="43.6769381" lon="11.9994159"><ele>712.0</ele><time>2026-04-04T09:47:32.25Z</time></trkpt><trkpt lat="43.676817" lon="11.9995573"><ele>711.0</ele><time>2026-04-04T09:47:33.252Z</time></trkpt><trkpt lat="43.6766782" lon="11.9996799"><ele>711.0</ele><time>2026-04-04T09:47:34.254Z</time></trkpt><trkpt lat="43.6765176" lon="11.9997577"><ele>711.0</ele><time>2026-04-04T09:47:35.253Z</time></trkpt><trkpt lat="43.6763528" lon="11.9997787"><ele>711.0</ele><time>2026-04-04T09:47:36.251Z</time></trkpt><trkpt lat="43.6761772" lon="11.9997878"><ele>715.0</ele><time>2026-04-04T09:47:37.26Z</time></trkpt><trkpt lat="43.6759979" lon="11.999835"><ele>719.0</ele><time>2026-04-04T09:47:38.261Z</time></trkpt><trkpt lat="43.6758354" lon="11.9999543"><ele>723.0</ele><time>2026-04-04T09:47:39.265Z</time></trkpt><trkpt lat="43.6756512" lon="12.0001061"><ele>723.0</ele><time>2026-04-04T09:47:40.266Z</time></trkpt><trkpt lat="43.6755218" lon="12.0002766"><ele>723.0</ele><time>2026-04-04T09:47:41.258Z</time></trkpt><trkpt lat="43.6753985" lon="12.0004868"><ele>723.0</ele><time>2026-04-04T09:47:42.258Z</time></trkpt><trkpt lat="43.6752886" lon="12.0006895"><ele>727.0</ele><time>2026-04-04T09:47:43.255Z</time></trkpt><trkpt lat="43.6752089" lon="12.0008902"><ele>731.0</ele><time>2026-04-04T09:47:44.259Z</time></trkpt><trkpt lat="43.6751694" lon="12.0011249"><ele>735.0</ele><time>2026-04-04T09:47:45.265Z</time></trkpt><trkpt lat="43.6751284" lon="12.0013791"><ele>735.0</ele><time>2026-04-04T09:47:46.265Z</time></trkpt><trkpt lat="43.67511" lon="12.0016243"><ele>735.0</ele><time>2026-04-04T09:47:47.261Z</time></trkpt><trkpt lat="43.6751215" lon="12.001859"><ele>735.0</ele><time>2026-04-04T09:47:48.248Z</time></trkpt><trkpt lat="43.6751889" lon="12.0020769"><ele>732.3333333333334</ele><time>2026-04-04T09:47:49.255Z</time></trkpt><trkpt lat="43.6752646" lon="12.0022747"><ele>729.6666666666667</ele><time>2026-04-04T09:47:50.256Z</time></trkpt><trkpt lat="43.675336" lon="12.0024913"><ele>727.0</ele><time>2026-04-04T09:47:51.264Z</time></trkpt><trkpt lat="43.6753962" lon="12.0027186"><ele>719.3333333333334</ele><time>2026-04-04T09:47:52.254Z</time></trkpt><trkpt lat="43.6754387" lon="12.0029438"><ele>711.6666666666666</ele><time>2026-04-04T09:47:53.239Z</time></trkpt><trkpt lat="43.6754637" lon="12.0031633"><ele>704.0</ele><time>2026-04-04T09:47:54.245Z</time></trkpt><trkpt lat="43.6754805" lon="12.0033914"><ele>703.0</ele><time>2026-04-04T09:47:55.249Z</time></trkpt><trkpt lat="43.6754131" lon="12.0035574"><ele>702.0</ele><time>2026-04-04T09:47:56.256Z</time></trkpt><trkpt lat="43.6752823" lon="12.0037136"><ele>701.0</ele><time>2026-04-04T09:47:57.244Z</time></trkpt><trkpt lat="43.6751318" lon="12.0038325"><ele>700.5</ele><time>2026-04-04T09:47:58.254Z</time></trkpt><trkpt lat="43.67499" lon="12.0039508"><ele>700.0</ele><time>2026-04-04T09:47:59.249Z</time></trkpt><trkpt lat="43.6748828" lon="12.0040627"><ele>699.5</ele><time>2026-04-04T09:48:00.258Z</time></trkpt><trkpt lat="43.6747846" lon="12.0041554"><ele>699.0</ele><time>2026-04-04T09:48:01.261Z</time></trkpt><trkpt lat="43.6746787" lon="12.0042321"><ele>699.0</ele><time>2026-04-04T09:48:02.251Z</time></trkpt><trkpt lat="43.6745945" lon="12.0042343"><ele>699.0</ele><time>2026-04-04T09:48:03.25Z</time></trkpt><trkpt lat="43.6745226" lon="12.0040988"><ele>699.0</ele><time>2026-04-04T09:48:04.239Z</time></trkpt><trkpt lat="43.6744633" lon="12.0038881"><ele>699.0</ele><time>2026-04-04T09:48:05.242Z</time></trkpt><trkpt lat="43.6743678" lon="12.0036147"><ele>705.3333333333334</ele><time>2026-04-04T09:48:06.238Z</time></trkpt><trkpt lat="43.6742851" lon="12.0033124"><ele>711.6666666666667</ele><time>2026-04-04T09:48:07.241Z</time></trkpt><trkpt lat="43.6741719" lon="12.003137"><ele>718.0</ele><time>2026-04-04T09:48:08.244Z</time></trkpt><trkpt lat="43.6739827" lon="12.0029714"><ele>718.0</ele><time>2026-04-04T09:48:09.24Z</time></trkpt><trkpt lat="43.6738568" lon="12.0028323"><ele>718.0</ele><time>2026-04-04T09:48:10.249Z</time></trkpt><trkpt lat="43.6736519" lon="12.0026849"><ele>718.0</ele><time>2026-04-04T09:48:11.248Z</time></trkpt><trkpt lat="43.6734529" lon="12.0025919"><ele>719.6666666666667</ele><time>2026-04-04T09:48:12.245Z</time></trkpt><trkpt lat="43.6732781" lon="12.0025202"><ele>721.3333333333334</ele><time>2026-04-04T09:48:13.243Z</time></trkpt><trkpt lat="43.6731046" lon="12.0024316"><ele>723.0</ele><time>2026-04-04T09:48:14.26Z</time></trkpt><trkpt lat="43.6729377" lon="12.0023422"><ele>723.0</ele><time>2026-04-04T09:48:15.257Z</time></trkpt><trkpt lat="43.6727904" lon="12.0022741"><ele>723.0</ele><time>2026-04-04T09:48:16.257Z</time></trkpt><trkpt lat="43.6726744" lon="12.0022589"><ele>723.0</ele><time>2026-04-04T09:48:17.27Z</time></trkpt><trkpt lat="43.6725685" lon="12.0023127"><ele>723.0</ele><time>2026-04-04T09:48:18.258Z</time></trkpt><trkpt lat="43.6724533" lon="12.002397"><ele>715.3333333333334</ele><time>2026-04-04T09:48:19.245Z</time></trkpt><trkpt lat="43.6723486" lon="12.0025662"><ele>707.6666666666667</ele><time>2026-04-04T09:48:20.243Z</time></trkpt><trkpt lat="43.6722328" lon="12.002796"><ele>700.0</ele><time>2026-04-04T09:48:21.242Z</time></trkpt><trkpt lat="43.6721192" lon="12.0030746"><ele>704.5</ele><time>2026-04-04T09:48:22.247Z</time></trkpt><trkpt lat="43.6720089" lon="12.0033829"><ele>709.0</ele><time>2026-04-04T09:48:23.246Z</time></trkpt><trkpt lat="43.6719044" lon="12.0036334"><ele>709.0</ele><time>2026-04-04T09:48:24.244Z</time></trkpt><trkpt lat="43.6718175" lon="12.0038752"><ele>709.0</ele><time>2026-04-04T09:48:25.243Z</time></trkpt><trkpt lat="43.6717377" lon="12.0041068"><ele>709.0</ele><time>2026-04-04T09:48:26.258Z</time></trkpt><trkpt lat="43.6716498" lon="12.0043265"><ele>701.6666666666667</ele><time>2026-04-04T09:48:27.269Z</time></trkpt><trkpt lat="43.6715155" lon="12.0045114"><ele>694.3333333333334</ele><time>2026-04-04T09:48:28.252Z</time></trkpt><trkpt lat="43.6714013" lon="12.0047004"><ele>687.0</ele><time>2026-04-04T09:48:29.25Z</time></trkpt><trkpt lat="43.6713139" lon="12.0049059"><ele>681.0</ele><time>2026-04-04T09:48:30.254Z</time></trkpt><trkpt lat="43.6712596" lon="12.0051306"><ele>675.0</ele><time>2026-04-04T09:48:31.262Z</time></trkpt><trkpt lat="43.6712387" lon="12.0053939"><ele>669.0</ele><time>2026-04-04T09:48:32.266Z</time></trkpt><trkpt lat="43.671223" lon="12.0056417"><ele>673.6666666666666</ele><time>2026-04-04T09:48:33.263Z</time></trkpt><trkpt lat="43.6711685" lon="12.0058471"><ele>678.3333333333333</ele><time>2026-04-04T09:48:34.247Z</time></trkpt><trkpt lat="43.6710853" lon="12.0060602"><ele>683.0</ele><time>2026-04-04T09:48:35.251Z</time></trkpt><trkpt lat="43.6710068" lon="12.0062857"><ele>683.0</ele><time>2026-04-04T09:48:36.254Z</time></trkpt><trkpt lat="43.6708555" lon="12.006459"><ele>683.0</ele><time>2026-04-04T09:48:37.261Z</time></trkpt><trkpt lat="43.6707328" lon="12.0066322"><ele>683.0</ele><time>2026-04-04T09:48:38.259Z</time></trkpt><trkpt lat="43.6706382" lon="12.0068212"><ele>678.0</ele><time>2026-04-04T09:48:39.242Z</time></trkpt><trkpt lat="43.6705664" lon="12.0070049"><ele>673.0</ele><time>2026-04-04T09:48:40.253Z</time></trkpt><trkpt lat="43.6705568" lon="12.0072146"><ele>668.0</ele><time>2026-04-04T09:48:41.263Z</time></trkpt><trkpt lat="43.6705998" lon="12.007456"><ele>665.0</ele><time>2026-04-04T09:48:42.258Z</time></trkpt><trkpt lat="43.6706563" lon="12.0077117"><ele>662.0</ele><time>2026-04-04T09:48:43.252Z</time></trkpt><trkpt lat="43.6707018" lon="12.0079749"><ele>659.0</ele><time>2026-04-04T09:48:44.252Z</time></trkpt><trkpt lat="43.6707436" lon="12.0082366"><ele>660.3333333333333</ele><time>2026-04-04T09:48:45.25Z</time></trkpt><trkpt lat="43.6707948" lon="12.0085017"><ele>661.6666666666666</ele><time>2026-04-04T09:48:46.257Z</time></trkpt><trkpt lat="43.6708782" lon="12.0087673"><ele>663.0</ele><time>2026-04-04T09:48:47.244Z</time></trkpt><trkpt lat="43.6709839" lon="12.009012"><ele>665.0</ele><time>2026-04-04T09:48:48.243Z</time></trkpt><trkpt lat="43.6710829" lon="12.0092443"><ele>667.0</ele><time>2026-04-04T09:48:49.249Z</time></trkpt><trkpt lat="43.6711877" lon="12.0094576"><ele>669.0</ele><time>2026-04-04T09:48:50.248Z</time></trkpt><trkpt lat="43.6712846" lon="12.0096463"><ele>661.5</ele><time>2026-04-04T09:48:51.25Z</time></trkpt><trkpt lat="43.6713765" lon="12.0098072"><ele>654.0</ele><time>2026-04-04T09:48:52.249Z</time></trkpt><trkpt lat="43.6714464" lon="12.0099721"><ele>646.5</ele><time>2026-04-04T09:48:53.246Z</time></trkpt><trkpt lat="43.6714812" lon="12.0101259"><ele>639.0</ele><time>2026-04-04T09:48:54.244Z</time></trkpt><trkpt lat="43.6714946" lon="12.0102963"><ele>639.0</ele><time>2026-04-04T09:48:55.253Z</time></trkpt><trkpt lat="43.6714166" lon="12.0104692"><ele>639.0</ele><time>2026-04-04T09:48:56.248Z</time></trkpt><trkpt lat="43.6712519" lon="12.0106169"><ele>639.0</ele><time>2026-04-04T09:48:57.264Z</time></trkpt><trkpt lat="43.6710719" lon="12.0107472"><ele>643.3333333333334</ele><time>2026-04-04T09:48:58.256Z</time></trkpt><trkpt lat="43.6709184" lon="12.0108813"><ele>647.6666666666667</ele><time>2026-04-04T09:48:59.244Z</time></trkpt><trkpt lat="43.670815" lon="12.0110533"><ele>652.0</ele><time>2026-04-04T09:49:00.245Z</time></trkpt><trkpt lat="43.6707542" lon="12.0112739"><ele>652.0</ele><time>2026-04-04T09:49:01.256Z</time></trkpt><trkpt lat="43.6707113" lon="12.0115104"><ele>652.0</ele><time>2026-04-04T09:49:02.25Z</time></trkpt><trkpt lat="43.6706911" lon="12.0117667"><ele>652.0</ele><time>2026-04-04T09:49:03.26Z</time></trkpt><trkpt lat="43.670669" lon="12.0120038"><ele>647.0</ele><time>2026-04-04T09:49:04.257Z</time></trkpt><trkpt lat="43.6706123" lon="12.0122215"><ele>642.0</ele><time>2026-04-04T09:49:05.261Z</time></trkpt><trkpt lat="43.670524" lon="12.0123978"><ele>637.0</ele><time>2026-04-04T09:49:06.259Z</time></trkpt><trkpt lat="43.6704136" lon="12.0125291"><ele>635.6666666666667</ele><time>2026-04-04T09:49:07.258Z</time></trkpt><trkpt lat="43.6702886" lon="12.0126093"><ele>634.3333333333334</ele><time>2026-04-04T09:49:08.26Z</time></trkpt><trkpt lat="43.6701182" lon="12.0126031"><ele>633.0</ele><time>2026-04-04T09:49:09.26Z</time></trkpt><trkpt lat="43.6699416" lon="12.0125331"><ele>637.3333333333334</ele><time>2026-04-04T09:49:10.256Z</time></trkpt><trkpt lat="43.6697698" lon="12.0124335"><ele>641.6666666666667</ele><time>2026-04-04T09:49:11.255Z</time></trkpt><trkpt lat="43.6696114" lon="12.0123234"><ele>646.0</ele><time>2026-04-04T09:49:12.246Z</time></trkpt><trkpt lat="43.669461" lon="12.0122284"><ele>646.5</ele><time>2026-04-04T09:49:13.246Z</time></trkpt><trkpt lat="43.6693261" lon="12.0121624"><ele>647.0</ele><time>2026-04-04T09:49:14.243Z</time></trkpt><trkpt lat="43.6691866" lon="12.0121666"><ele>647.5</ele><time>2026-04-04T09:49:15.249Z</time></trkpt><trkpt lat="43.6690509" lon="12.012216"><ele>648.0</ele><time>2026-04-04T09:49:16.25Z</time></trkpt><trkpt lat="43.6688959" lon="12.0122992"><ele>648.0</ele><time>2026-04-04T09:49:17.255Z</time></trkpt><trkpt lat="43.6687408" lon="12.0123931"><ele>648.0</ele><time>2026-04-04T09:49:18.258Z</time></trkpt><trkpt lat="43.6685694" lon="12.0125065"><ele>648.0</ele><time>2026-04-04T09:49:19.257Z</time></trkpt><trkpt lat="43.6684022" lon="12.0126282"><ele>642.6666666666666</ele><time>2026-04-04T09:49:20.258Z</time></trkpt><trkpt lat="43.6682214" lon="12.0127499"><ele>637.3333333333333</ele><time>2026-04-04T09:49:21.261Z</time></trkpt><trkpt lat="43.6680541" lon="12.0128768"><ele>632.0</ele><time>2026-04-04T09:49:22.258Z</time></trkpt><trkpt lat="43.6679003" lon="12.0130038"><ele>632.0</ele><time>2026-04-04T09:49:23.251Z</time></trkpt><trkpt lat="43.6677789" lon="12.0131188"><ele>632.0</ele><time>2026-04-04T09:49:24.25Z</time></trkpt><trkpt lat="43.6677097" lon="12.0132431"><ele>632.0</ele><time>2026-04-04T09:49:25.252Z</time></trkpt><trkpt lat="43.6676627" lon="12.0134031"><ele>632.0</ele><time>2026-04-04T09:49:26.256Z</time></trkpt><trkpt lat="43.6676628" lon="12.0135845"><ele>631.75</ele><time>2026-04-04T09:49:27.26Z</time></trkpt><trkpt lat="43.6677082" lon="12.0137664"><ele>631.5</ele><time>2026-04-04T09:49:28.248Z</time></trkpt><trkpt lat="43.6677867" lon="12.0139194"><ele>631.25</ele><time>2026-04-04T09:49:29.259Z</time></trkpt><trkpt lat="43.6679015" lon="12.0140396"><ele>631.0</ele><time>2026-04-04T09:49:30.249Z</time></trkpt><trkpt lat="43.6680583" lon="12.0141118"><ele>622.6666666666667</ele><time>2026-04-04T09:49:31.251Z</time></trkpt><trkpt lat="43.6682315" lon="12.0141683"><ele>614.3333333333334</ele><time>2026-04-04T09:49:32.246Z</time></trkpt><trkpt lat="43.6684196" lon="12.0142148"><ele>606.0</ele><time>2026-04-04T09:49:33.254Z</time></trkpt><trkpt lat="43.6686017" lon="12.0142602"><ele>602.75</ele><time>2026-04-04T09:49:34.251Z</time></trkpt><trkpt lat="43.6687612" lon="12.0142863"><ele>599.5</ele><time>2026-04-04T09:49:35.253Z</time></trkpt><trkpt lat="43.6689016" lon="12.0143525"><ele>596.25</ele><time>2026-04-04T09:49:36.252Z</time></trkpt><trkpt lat="43.6690061" lon="12.0144506"><ele>593.0</ele><time>2026-04-04T09:49:37.248Z</time></trkpt><trkpt lat="43.6690805" lon="12.0145995"><ele>593.0</ele><time>2026-04-04T09:49:38.248Z</time></trkpt><trkpt lat="43.6690733" lon="12.0148163"><ele>593.0</ele><time>2026-04-04T09:49:39.253Z</time></trkpt><trkpt lat="43.66899" lon="12.0150375"><ele>593.0</ele><time>2026-04-04T09:49:40.249Z</time></trkpt><trkpt lat="43.6688588" lon="12.0152166"><ele>592.0</ele><time>2026-04-04T09:49:41.254Z</time></trkpt><trkpt lat="43.6686958" lon="12.0153669"><ele>591.0</ele><time>2026-04-04T09:49:42.25Z</time></trkpt><trkpt lat="43.6684971" lon="12.0154791"><ele>590.0</ele><time>2026-04-04T09:49:43.249Z</time></trkpt><trkpt lat="43.6683004" lon="12.015551"><ele>594.3333333333333</ele><time>2026-04-04T09:49:44.245Z</time></trkpt><trkpt lat="43.668131" lon="12.0156218"><ele>598.6666666666666</ele><time>2026-04-04T09:49:45.245Z</time></trkpt><trkpt lat="43.6679581" lon="12.0156577"><ele>603.0</ele><time>2026-04-04T09:49:46.247Z</time></trkpt><trkpt lat="43.6678097" lon="12.015702"><ele>602.5</ele><time>2026-04-04T09:49:47.251Z</time></trkpt><trkpt lat="43.6676832" lon="12.0157697"><ele>602.0</ele><time>2026-04-04T09:49:48.245Z</time></trkpt><trkpt lat="43.667579" lon="12.0158705"><ele>601.5</ele><time>2026-04-04T09:49:49.251Z</time></trkpt><trkpt lat="43.6674861" lon="12.0160359"><ele>601.0</ele><time>2026-04-04T09:49:50.251Z</time></trkpt><trkpt lat="43.667394" lon="12.0162264"><ele>601.0</ele><time>2026-04-04T09:49:51.248Z</time></trkpt><trkpt lat="43.6673198" lon="12.0164305"><ele>601.0</ele><time>2026-04-04T09:49:52.252Z</time></trkpt><trkpt lat="43.6672851" lon="12.0166748"><ele>601.0</ele><time>2026-04-04T09:49:53.246Z</time></trkpt><trkpt lat="43.6672578" lon="12.0169623"><ele>597.6666666666667</ele><time>2026-04-04T09:49:54.245Z</time></trkpt><trkpt lat="43.6672416" lon="12.017237"><ele>594.3333333333334</ele><time>2026-04-04T09:49:55.245Z</time></trkpt><trkpt lat="43.6672205" lon="12.0174836"><ele>591.0</ele><time>2026-04-04T09:49:56.241Z</time></trkpt><trkpt lat="43.6672324" lon="12.0177095"><ele>590.6666666666666</ele><time>2026-04-04T09:49:57.249Z</time></trkpt><trkpt lat="43.6672844" lon="12.0179382"><ele>590.3333333333333</ele><time>2026-04-04T09:49:58.242Z</time></trkpt><trkpt lat="43.6673836" lon="12.0181584"><ele>590.0</ele><time>2026-04-04T09:49:59.243Z</time></trkpt><trkpt lat="43.6674888" lon="12.0183512"><ele>589.0</ele><time>2026-04-04T09:50:00.251Z</time></trkpt><trkpt lat="43.6675613" lon="12.018555"><ele>588.0</ele><time>2026-04-04T09:50:01.241Z</time></trkpt><trkpt lat="43.6676167" lon="12.0187545"><ele>587.0</ele><time>2026-04-04T09:50:02.243Z</time></trkpt><trkpt lat="43.6676326" lon="12.0189795"><ele>585.3333333333333</ele><time>2026-04-04T09:50:03.245Z</time></trkpt><trkpt lat="43.6676182" lon="12.0192124"><ele>583.6666666666666</ele><time>2026-04-04T09:50:04.246Z</time></trkpt><trkpt lat="43.6675519" lon="12.0194262"><ele>582.0</ele><time>2026-04-04T09:50:05.245Z</time></trkpt><trkpt lat="43.6675086" lon="12.0195854"><ele>582.0</ele><time>2026-04-04T09:50:06.24Z</time></trkpt><trkpt lat="43.6674526" lon="12.0197242"><ele>582.0</ele><time>2026-04-04T09:50:07.247Z</time></trkpt><trkpt lat="43.6673725" lon="12.0198164"><ele>582.0</ele><time>2026-04-04T09:50:08.248Z</time></trkpt><trkpt lat="43.6672449" lon="12.0198684"><ele>582.0</ele><time>2026-04-04T09:50:09.248Z</time></trkpt><trkpt lat="43.6671009" lon="12.0198954"><ele>582.0</ele><time>2026-04-04T09:50:10.254Z</time></trkpt><trkpt lat="43.6669796" lon="12.0199614"><ele>582.0</ele><time>2026-04-04T09:50:11.248Z</time></trkpt><trkpt lat="43.6668948" lon="12.0200463"><ele>582.0</ele><time>2026-04-04T09:50:12.247Z</time></trkpt><trkpt lat="43.6668212" lon="12.0201434"><ele>582.0</ele><time>2026-04-04T09:50:13.248Z</time></trkpt><trkpt lat="43.6667992" lon="12.0202671"><ele>582.0</ele><time>2026-04-04T09:50:14.25Z</time></trkpt><trkpt lat="43.6668351" lon="12.0204273"><ele>584.6666666666666</ele><time>2026-04-04T09:50:15.253Z</time></trkpt><trkpt lat="43.6669253" lon="12.0205804"><ele>587.3333333333333</ele><time>2026-04-04T09:50:16.245Z</time></trkpt><trkpt lat="43.6670288" lon="12.0207234"><ele>590.0</ele><time>2026-04-04T09:50:17.251Z</time></trkpt><trkpt lat="43.6671783" lon="12.0208508"><ele>581.6666666666666</ele><time>2026-04-04T09:50:18.243Z</time></trkpt><trkpt lat="43.6673297" lon="12.0209712"><ele>573.3333333333334</ele><time>2026-04-04T09:50:19.246Z</time></trkpt><trkpt lat="43.6674929" lon="12.0210588"><ele>565.0</ele><time>2026-04-04T09:50:20.248Z</time></trkpt><trkpt lat="43.6676274" lon="12.0211523"><ele>565.0</ele><time>2026-04-04T09:50:21.243Z</time></trkpt><trkpt lat="43.6677079" lon="12.0212765"><ele>565.0</ele><time>2026-04-04T09:50:22.249Z</time></trkpt><trkpt lat="43.6677188" lon="12.0214717"><ele>565.0</ele><time>2026-04-04T09:50:23.251Z</time></trkpt><trkpt lat="43.6676917" lon="12.0216943"><ele>565.0</ele><time>2026-04-04T09:50:24.248Z</time></trkpt><trkpt lat="43.6676656" lon="12.0219154"><ele>565.5</ele><time>2026-04-04T09:50:25.257Z</time></trkpt><trkpt lat="43.6676418" lon="12.0221294"><ele>566.0</ele><time>2026-04-04T09:50:26.25Z</time></trkpt><trkpt lat="43.6676385" lon="12.0223323"><ele>566.5</ele><time>2026-04-04T09:50:27.253Z</time></trkpt><trkpt lat="43.6676266" lon="12.0225105"><ele>567.0</ele><time>2026-04-04T09:50:28.25Z</time></trkpt><trkpt lat="43.6676294" lon="12.0226722"><ele>567.0</ele><time>2026-04-04T09:50:29.249Z</time></trkpt><trkpt lat="43.6676807" lon="12.0228094"><ele>567.0</ele><time>2026-04-04T09:50:30.25Z</time></trkpt><trkpt lat="43.6677901" lon="12.0228919"><ele>567.0</ele><time>2026-04-04T09:50:31.252Z</time></trkpt><trkpt lat="43.6679159" lon="12.0229318"><ele>567.0</ele><time>2026-04-04T09:50:32.243Z</time></trkpt><trkpt lat="43.6680723" lon="12.0229597"><ele>562.75</ele><time>2026-04-04T09:50:33.25Z</time></trkpt><trkpt lat="43.6682259" lon="12.0229724"><ele>558.5</ele><time>2026-04-04T09:50:34.246Z</time></trkpt><trkpt lat="43.6683656" lon="12.0229705"><ele>554.25</ele><time>2026-04-04T09:50:35.252Z</time></trkpt><trkpt lat="43.6684833" lon="12.0229603"><ele>550.0</ele><time>2026-04-04T09:50:36.246Z</time></trkpt><trkpt lat="43.6685774" lon="12.022978"><ele>550.0</ele><time>2026-04-04T09:50:37.247Z</time></trkpt><trkpt lat="43.668652" lon="12.02302"><ele>550.0</ele><time>2026-04-04T09:50:38.245Z</time></trkpt><trkpt lat="43.6686016" lon="12.0231848"><ele>550.0</ele><time>2026-04-04T09:50:40.248Z</time></trkpt><trkpt lat="43.6684839" lon="12.0232526"><ele>550.0</ele><time>2026-04-04T09:50:41.246Z</time></trkpt><trkpt lat="43.6683397" lon="12.0232878"><ele>550.5</ele><time>2026-04-04T09:50:42.244Z</time></trkpt><trkpt lat="43.6682006" lon="12.0233177"><ele>551.0</ele><time>2026-04-04T09:50:43.246Z</time></trkpt><trkpt lat="43.6680761" lon="12.0233455"><ele>551.5</ele><time>2026-04-04T09:50:44.241Z</time></trkpt><trkpt lat="43.667963" lon="12.0233827"><ele>552.0</ele><time>2026-04-04T09:50:45.247Z</time></trkpt><trkpt lat="43.6678808" lon="12.0234431"><ele>552.0</ele><time>2026-04-04T09:50:46.262Z</time></trkpt><trkpt lat="43.6679078" lon="12.0236275"><ele>552.0</ele><time>2026-04-04T09:50:48.256Z</time></trkpt><trkpt lat="43.6680098" lon="12.0237466"><ele>552.0</ele><time>2026-04-04T09:50:49.246Z</time></trkpt><trkpt lat="43.6681461" lon="12.0238679"><ele>552.0</ele><time>2026-04-04T09:50:50.243Z</time></trkpt><trkpt lat="43.6682986" lon="12.0240028"><ele>552.0</ele><time>2026-04-04T09:50:51.241Z</time></trkpt><trkpt lat="43.668474" lon="12.0241287"><ele>552.0</ele><time>2026-04-04T09:50:52.244Z</time></trkpt><trkpt lat="43.6686337" lon="12.0242474"><ele>552.0</ele><time>2026-04-04T09:50:53.245Z</time></trkpt><trkpt lat="43.6688139" lon="12.0243945"><ele>547.3333333333334</ele><time>2026-04-04T09:50:54.242Z</time></trkpt><trkpt lat="43.6689751" lon="12.0245941"><ele>542.6666666666667</ele><time>2026-04-04T09:50:55.244Z</time></trkpt><trkpt lat="43.6691282" lon="12.0248108"><ele>538.0</ele><time>2026-04-04T09:50:56.241Z</time></trkpt><trkpt lat="43.6692492" lon="12.0250488"><ele>538.0</ele><time>2026-04-04T09:50:57.245Z</time></trkpt><trkpt lat="43.6693481" lon="12.0253064"><ele>538.0</ele><time>2026-04-04T09:50:58.244Z</time></trkpt><trkpt lat="43.6694082" lon="12.0255767"><ele>538.0</ele><time>2026-04-04T09:50:59.242Z</time></trkpt><trkpt lat="43.6694971" lon="12.0258205"><ele>530.6666666666667</ele><time>2026-04-04T09:51:00.245Z</time></trkpt><trkpt lat="43.6696116" lon="12.0260343"><ele>523.3333333333334</ele><time>2026-04-04T09:51:01.242Z</time></trkpt><trkpt lat="43.6697435" lon="12.0262114"><ele>516.0</ele><time>2026-04-04T09:51:02.253Z</time></trkpt><trkpt lat="43.6698729" lon="12.0263736"><ele>516.0</ele><time>2026-04-04T09:51:03.245Z</time></trkpt><trkpt lat="43.6699928" lon="12.0265082"><ele>516.0</ele><time>2026-04-04T09:51:04.248Z</time></trkpt><trkpt lat="43.6701087" lon="12.0266021"><ele>516.0</ele><time>2026-04-04T09:51:05.249Z</time></trkpt><trkpt lat="43.6702285" lon="12.0266252"><ele>516.0</ele><time>2026-04-04T09:51:06.245Z</time></trkpt><trkpt lat="43.6703379" lon="12.0266553"><ele>514.5</ele><time>2026-04-04T09:51:07.248Z</time></trkpt><trkpt lat="43.6704446" lon="12.0266487"><ele>513.0</ele><time>2026-04-04T09:51:08.249Z</time></trkpt><trkpt lat="43.6705316" lon="12.026667"><ele>511.5</ele><time>2026-04-04T09:51:09.249Z</time></trkpt><trkpt lat="43.6705921" lon="12.0266998"><ele>510.0</ele><time>2026-04-04T09:51:10.251Z</time></trkpt><trkpt lat="43.6706137" lon="12.0267845"><ele>508.5</ele><time>2026-04-04T09:51:11.251Z</time></trkpt><trkpt lat="43.6706001" lon="12.0268703"><ele>507.0</ele><time>2026-04-04T09:51:12.253Z</time></trkpt><trkpt lat="43.6705191" lon="12.0269456"><ele>507.0</ele><time>2026-04-04T09:51:13.255Z</time></trkpt><trkpt lat="43.6703921" lon="12.0270347"><ele>507.0</ele><time>2026-04-04T09:51:14.253Z</time></trkpt><trkpt lat="43.6702317" lon="12.0271726"><ele>507.0</ele><time>2026-04-04T09:51:15.246Z</time></trkpt><trkpt lat="43.6700627" lon="12.0273321"><ele>509.0</ele><time>2026-04-04T09:51:16.253Z</time></trkpt><trkpt lat="43.6698909" lon="12.0275035"><ele>511.0</ele><time>2026-04-04T09:51:17.249Z</time></trkpt><trkpt lat="43.6697427" lon="12.0276814"><ele>513.0</ele><time>2026-04-04T09:51:18.25Z</time></trkpt><trkpt lat="43.6696388" lon="12.0278845"><ele>513.0</ele><time>2026-04-04T09:51:19.251Z</time></trkpt><trkpt lat="43.66959" lon="12.0281236"><ele>513.0</ele><time>2026-04-04T09:51:20.248Z</time></trkpt><trkpt lat="43.6696051" lon="12.0283851"><ele>513.0</ele><time>2026-04-04T09:51:21.249Z</time></trkpt><trkpt lat="43.6696067" lon="12.0286773"><ele>509.33333333333337</ele><time>2026-04-04T09:51:22.247Z</time></trkpt><trkpt lat="43.6695924" lon="12.0289637"><ele>505.6666666666667</ele><time>2026-04-04T09:51:23.248Z</time></trkpt><trkpt lat="43.6695757" lon="12.0292167"><ele>502.0</ele><time>2026-04-04T09:51:24.244Z</time></trkpt><trkpt lat="43.6695786" lon="12.0294517"><ele>501.33333333333337</ele><time>2026-04-04T09:51:25.251Z</time></trkpt><trkpt lat="43.6695773" lon="12.0296861"><ele>500.66666666666663</ele><time>2026-04-04T09:51:26.249Z</time></trkpt><trkpt lat="43.6695747" lon="12.0298935"><ele>500.0</ele><time>2026-04-04T09:51:27.249Z</time></trkpt><trkpt lat="43.6695659" lon="12.0300831"><ele>498.8</ele><time>2026-04-04T09:51:28.248Z</time></trkpt><trkpt lat="43.6695616" lon="12.0302225"><ele>497.6</ele><time>2026-04-04T09:51:29.25Z</time></trkpt><trkpt lat="43.6695625" lon="12.0303541"><ele>496.4</ele><time>2026-04-04T09:51:30.252Z</time></trkpt><trkpt lat="43.6696217" lon="12.0304174"><ele>495.2</ele><time>2026-04-04T09:51:31.251Z</time></trkpt><trkpt lat="43.6697003" lon="12.0304195"><ele>494.0</ele><time>2026-04-04T09:51:32.254Z</time></trkpt><trkpt lat="43.6697765" lon="12.0303227"><ele>494.0</ele><time>2026-04-04T09:51:33.257Z</time></trkpt><trkpt lat="43.6698513" lon="12.0301401"><ele>494.0</ele><time>2026-04-04T09:51:34.256Z</time></trkpt><trkpt lat="43.6699247" lon="12.0299077"><ele>494.0</ele><time>2026-04-04T09:51:35.253Z</time></trkpt><trkpt lat="43.6700038" lon="12.0296545"><ele>496.0</ele><time>2026-04-04T09:51:36.252Z</time></trkpt><trkpt lat="43.6700778" lon="12.0294328"><ele>498.0</ele><time>2026-04-04T09:51:37.253Z</time></trkpt><trkpt lat="43.6701523" lon="12.0292375"><ele>500.0</ele><time>2026-04-04T09:51:38.25Z</time></trkpt><trkpt lat="43.6702219" lon="12.0290847"><ele>498.25</ele><time>2026-04-04T09:51:39.252Z</time></trkpt><trkpt lat="43.6702963" lon="12.0289732"><ele>496.5</ele><time>2026-04-04T09:51:40.25Z</time></trkpt><trkpt lat="43.6704054" lon="12.0289688"><ele>494.75</ele><time>2026-04-04T09:51:41.252Z</time></trkpt><trkpt lat="43.6705376" lon="12.0290268"><ele>493.0</ele><time>2026-04-04T09:51:42.251Z</time></trkpt><trkpt lat="43.6706751" lon="12.0291458"><ele>491.6666666666667</ele><time>2026-04-04T09:51:43.246Z</time></trkpt><trkpt lat="43.6707993" lon="12.0292725"><ele>490.33333333333337</ele><time>2026-04-04T09:51:44.247Z</time></trkpt><trkpt lat="43.6709311" lon="12.0294039"><ele>489.0</ele><time>2026-04-04T09:51:45.254Z</time></trkpt><trkpt lat="43.6710692" lon="12.0295683"><ele>489.0</ele><time>2026-04-04T09:51:46.25Z</time></trkpt><trkpt lat="43.6711914" lon="12.0297102"><ele>489.0</ele><time>2026-04-04T09:51:47.25Z</time></trkpt><trkpt lat="43.6712983" lon="12.0298412"><ele>489.0</ele><time>2026-04-04T09:51:48.249Z</time></trkpt><trkpt lat="43.6713961" lon="12.0299538"><ele>489.0</ele><time>2026-04-04T09:51:49.252Z</time></trkpt><trkpt lat="43.6714676" lon="12.0300772"><ele>486.25</ele><time>2026-04-04T09:51:50.251Z</time></trkpt><trkpt lat="43.6714939" lon="12.0302411"><ele>483.5</ele><time>2026-04-04T09:51:51.253Z</time></trkpt><trkpt lat="43.671453" lon="12.030433"><ele>480.75</ele><time>2026-04-04T09:51:52.253Z</time></trkpt><trkpt lat="43.6713646" lon="12.0306115"><ele>478.0</ele><time>2026-04-04T09:51:53.248Z</time></trkpt><trkpt lat="43.671265" lon="12.0307879"><ele>477.33333333333337</ele><time>2026-04-04T09:51:54.249Z</time></trkpt><trkpt lat="43.6711455" lon="12.0309895"><ele>476.66666666666663</ele><time>2026-04-04T09:51:55.251Z</time></trkpt><trkpt lat="43.6709969" lon="12.0312215"><ele>476.0</ele><time>2026-04-04T09:51:56.25Z</time></trkpt><trkpt lat="43.6708714" lon="12.0314385"><ele>475.0</ele><time>2026-04-04T09:51:57.252Z</time></trkpt><trkpt lat="43.6707618" lon="12.0316299"><ele>474.0</ele><time>2026-04-04T09:51:58.252Z</time></trkpt><trkpt lat="43.6706582" lon="12.031802"><ele>473.0</ele><time>2026-04-04T09:51:59.249Z</time></trkpt><trkpt lat="43.6705738" lon="12.0319587"><ele>473.0</ele><time>2026-04-04T09:52:00.252Z</time></trkpt><trkpt lat="43.670527" lon="12.0321254"><ele>473.0</ele><time>2026-04-04T09:52:01.251Z</time></trkpt><trkpt lat="43.6705449" lon="12.0322834"><ele>473.0</ele><time>2026-04-04T09:52:02.252Z</time></trkpt><trkpt lat="43.6706174" lon="12.0324601"><ele>473.0</ele><time>2026-04-04T09:52:03.253Z</time></trkpt><trkpt lat="43.6707391" lon="12.0326202"><ele>472.66666666666663</ele><time>2026-04-04T09:52:04.256Z</time></trkpt><trkpt lat="43.6708676" lon="12.032791"><ele>472.33333333333337</ele><time>2026-04-04T09:52:05.251Z</time></trkpt><trkpt lat="43.6709599" lon="12.0329617"><ele>472.0</ele><time>2026-04-04T09:52:06.251Z</time></trkpt><trkpt lat="43.6710289" lon="12.0331526"><ele>472.33333333333337</ele><time>2026-04-04T09:52:07.249Z</time></trkpt><trkpt lat="43.6710613" lon="12.0333807"><ele>472.66666666666663</ele><time>2026-04-04T09:52:08.248Z</time></trkpt><trkpt lat="43.6710507" lon="12.0336187"><ele>473.0</ele><time>2026-04-04T09:52:09.251Z</time></trkpt><trkpt lat="43.6710303" lon="12.0338524"><ele>473.0</ele><time>2026-04-04T09:52:10.249Z</time></trkpt><trkpt lat="43.6709832" lon="12.0340851"><ele>473.0</ele><time>2026-04-04T09:52:11.248Z</time></trkpt><trkpt lat="43.6709131" lon="12.0343105"><ele>473.0</ele><time>2026-04-04T09:52:12.248Z</time></trkpt><trkpt lat="43.6707953" lon="12.0345413"><ele>470.0</ele><time>2026-04-04T09:52:13.243Z</time></trkpt><trkpt lat="43.6706615" lon="12.0347556"><ele>467.0</ele><time>2026-04-04T09:52:14.248Z</time></trkpt><trkpt lat="43.6705314" lon="12.0349543"><ele>464.0</ele><time>2026-04-04T09:52:15.247Z</time></trkpt><trkpt lat="43.6704322" lon="12.035138"><ele>464.25</ele><time>2026-04-04T09:52:16.246Z</time></trkpt><trkpt lat="43.6703311" lon="12.035318"><ele>464.5</ele><time>2026-04-04T09:52:17.248Z</time></trkpt><trkpt lat="43.6702452" lon="12.0354902"><ele>464.75</ele><time>2026-04-04T09:52:18.249Z</time></trkpt><trkpt lat="43.6702111" lon="12.0356537"><ele>465.0</ele><time>2026-04-04T09:52:19.253Z</time></trkpt><trkpt lat="43.6702303" lon="12.0358475"><ele>459.0</ele><time>2026-04-04T09:52:20.251Z</time></trkpt><trkpt lat="43.67028" lon="12.0360739"><ele>453.0</ele><time>2026-04-04T09:52:21.252Z</time></trkpt><trkpt lat="43.6703629" lon="12.0363021"><ele>447.0</ele><time>2026-04-04T09:52:22.252Z</time></trkpt><trkpt lat="43.6704296" lon="12.0365327"><ele>445.75</ele><time>2026-04-04T09:52:23.248Z</time></trkpt><trkpt lat="43.6704712" lon="12.0367453"><ele>444.5</ele><time>2026-04-04T09:52:24.247Z</time></trkpt><trkpt lat="43.670495" lon="12.0369407"><ele>443.25</ele><time>2026-04-04T09:52:25.244Z</time></trkpt><trkpt lat="43.6705036" lon="12.03712"><ele>442.0</ele><time>2026-04-04T09:52:26.243Z</time></trkpt><trkpt lat="43.6704741" lon="12.0373038"><ele>441.0</ele><time>2026-04-04T09:52:27.247Z</time></trkpt><trkpt lat="43.6704137" lon="12.0374969"><ele>440.0</ele><time>2026-04-04T09:52:28.238Z</time></trkpt><trkpt lat="43.6703031" lon="12.0376703"><ele>439.0</ele><time>2026-04-04T09:52:29.239Z</time></trkpt><trkpt lat="43.6702193" lon="12.0378335"><ele>439.0</ele><time>2026-04-04T09:52:30.246Z</time></trkpt><trkpt lat="43.6701332" lon="12.0379851"><ele>439.0</ele><time>2026-04-04T09:52:31.244Z</time></trkpt><trkpt lat="43.6700596" lon="12.0381315"><ele>439.0</ele><time>2026-04-04T09:52:32.247Z</time></trkpt><trkpt lat="43.6699887" lon="12.0382583"><ele>439.0</ele><time>2026-04-04T09:52:33.243Z</time></trkpt><trkpt lat="43.6699362" lon="12.0383914"><ele>439.0</ele><time>2026-04-04T09:52:34.243Z</time></trkpt><trkpt lat="43.6699165" lon="12.038536"><ele>439.0</ele><time>2026-04-04T09:52:35.256Z</time></trkpt><trkpt lat="43.6699477" lon="12.038699"><ele>439.0</ele><time>2026-04-04T09:52:36.245Z</time></trkpt><trkpt lat="43.6700069" lon="12.0388481"><ele>439.0</ele><time>2026-04-04T09:52:37.247Z</time></trkpt><trkpt lat="43.6700644" lon="12.0390148"><ele>438.79999999999995</ele><time>2026-04-04T09:52:38.248Z</time></trkpt><trkpt lat="43.670108" lon="12.0391708"><ele>438.59999999999997</ele><time>2026-04-04T09:52:39.246Z</time></trkpt><trkpt lat="43.6701472" lon="12.0393174"><ele>438.4</ele><time>2026-04-04T09:52:40.246Z</time></trkpt><trkpt lat="43.6701833" lon="12.0394557"><ele>438.2</ele><time>2026-04-04T09:52:41.243Z</time></trkpt><trkpt lat="43.6702155" lon="12.0395703"><ele>438.0</ele><time>2026-04-04T09:52:42.244Z</time></trkpt><trkpt lat="43.670244" lon="12.0396652"><ele>437.59999999999997</ele><time>2026-04-04T09:52:43.246Z</time></trkpt><trkpt lat="43.6702758" lon="12.0398087"><ele>437.19999999999993</ele><time>2026-04-04T09:52:45.248Z</time></trkpt><trkpt lat="43.6703016" lon="12.0399005"><ele>436.8</ele><time>2026-04-04T09:52:47.251Z</time></trkpt><trkpt lat="43.670346" lon="12.0399684"><ele>436.4</ele><time>2026-04-04T09:53:43.242Z</time></trkpt><trkpt lat="43.6704803" lon="12.0399152"><ele>436.0</ele><time>2026-04-04T09:53:45.243Z</time></trkpt><trkpt lat="43.6705717" lon="12.0398551"><ele>436.0</ele><time>2026-04-04T09:53:46.243Z</time></trkpt><trkpt lat="43.6706647" lon="12.0397866"><ele>436.0</ele><time>2026-04-04T09:53:47.24Z</time></trkpt><trkpt lat="43.670775" lon="12.0397171"><ele>436.0</ele><time>2026-04-04T09:53:48.238Z</time></trkpt><trkpt lat="43.6708809" lon="12.0396478"><ele>436.0</ele><time>2026-04-04T09:53:49.241Z</time></trkpt><trkpt lat="43.6709935" lon="12.0395729"><ele>436.0</ele><time>2026-04-04T09:53:50.242Z</time></trkpt><trkpt lat="43.6711045" lon="12.0395095"><ele>436.0</ele><time>2026-04-04T09:53:51.243Z</time></trkpt><trkpt lat="43.6712149" lon="12.0394504"><ele>436.0</ele><time>2026-04-04T09:53:52.248Z</time></trkpt><trkpt lat="43.6713263" lon="12.0394064"><ele>436.0</ele><time>2026-04-04T09:53:53.247Z</time></trkpt><trkpt lat="43.6714428" lon="12.0393842"><ele>436.0</ele><time>2026-04-04T09:53:54.246Z</time></trkpt><trkpt lat="43.6715682" lon="12.0393703"><ele>436.0</ele><time>2026-04-04T09:53:55.247Z</time></trkpt><trkpt lat="43.6716983" lon="12.0393649"><ele>436.0</ele><time>2026-04-04T09:53:56.246Z</time></trkpt><trkpt lat="43.6718285" lon="12.0393694"><ele>436.0</ele><time>2026-04-04T09:53:57.248Z</time></trkpt><trkpt lat="43.6719591" lon="12.0393776"><ele>436.0</ele><time>2026-04-04T09:53:58.248Z</time></trkpt><trkpt lat="43.6720952" lon="12.0393845"><ele>436.0</ele><time>2026-04-04T09:53:59.245Z</time></trkpt><trkpt lat="43.6722344" lon="12.0393868"><ele>436.0</ele><time>2026-04-04T09:54:00.248Z</time></trkpt><trkpt lat="43.6723743" lon="12.0393853"><ele>436.0</ele><time>2026-04-04T09:54:01.245Z</time></trkpt><trkpt lat="43.6725216" lon="12.0393844"><ele>436.0</ele><time>2026-04-04T09:54:02.247Z</time></trkpt><trkpt lat="43.6726654" lon="12.0393791"><ele>436.0</ele><time>2026-04-04T09:54:03.246Z</time></trkpt><trkpt lat="43.6728116" lon="12.0393778"><ele>436.0</ele><time>2026-04-04T09:54:04.247Z</time></trkpt><trkpt lat="43.6729565" lon="12.0393819"><ele>436.0</ele><time>2026-04-04T09:54:05.245Z</time></trkpt><trkpt lat="43.6730973" lon="12.0393837"><ele>436.5</ele><time>2026-04-04T09:54:06.246Z</time></trkpt><trkpt lat="43.6732426" lon="12.0393793"><ele>437.0</ele><time>2026-04-04T09:54:07.254Z</time></trkpt><trkpt lat="43.6733862" lon="12.0393791"><ele>437.5</ele><time>2026-04-04T09:54:08.267Z</time></trkpt><trkpt lat="43.6735337" lon="12.039381"><ele>438.0</ele><time>2026-04-04T09:54:09.246Z</time></trkpt><trkpt lat="43.673667" lon="12.0393785"><ele>438.2</ele><time>2026-04-04T09:54:10.245Z</time></trkpt><trkpt lat="43.6737873" lon="12.0393738"><ele>438.4</ele><time>2026-04-04T09:54:11.244Z</time></trkpt><trkpt lat="43.6739054" lon="12.0393631"><ele>438.59999999999997</ele><time>2026-04-04T09:54:12.245Z</time></trkpt><trkpt lat="43.6740057" lon="12.0393569"><ele>438.79999999999995</ele><time>2026-04-04T09:54:13.247Z</time></trkpt><trkpt lat="43.674114" lon="12.0393432"><ele>439.0</ele><time>2026-04-04T09:54:14.243Z</time></trkpt><trkpt lat="43.6742383" lon="12.0393179"><ele>439.0</ele><time>2026-04-04T09:54:15.242Z</time></trkpt><trkpt lat="43.6743614" lon="12.0392731"><ele>439.0</ele><time>2026-04-04T09:54:16.246Z</time></trkpt><trkpt lat="43.6744896" lon="12.0392122"><ele>439.0</ele><time>2026-04-04T09:54:17.245Z</time></trkpt><trkpt lat="43.6746229" lon="12.0391447"><ele>439.0</ele><time>2026-04-04T09:54:18.243Z</time></trkpt><trkpt lat="43.6747682" lon="12.0390628"><ele>439.0</ele><time>2026-04-04T09:54:19.242Z</time></trkpt><trkpt lat="43.6749188" lon="12.0389648"><ele>439.0</ele><time>2026-04-04T09:54:20.241Z</time></trkpt><trkpt lat="43.6750644" lon="12.0388876"><ele>439.0</ele><time>2026-04-04T09:54:21.243Z</time></trkpt><trkpt lat="43.6752023" lon="12.0388116"><ele>438.75</ele><time>2026-04-04T09:54:22.246Z</time></trkpt><trkpt lat="43.675325" lon="12.0387343"><ele>438.5</ele><time>2026-04-04T09:54:23.243Z</time></trkpt><trkpt lat="43.6754442" lon="12.0386669"><ele>438.25</ele><time>2026-04-04T09:54:24.244Z</time></trkpt><trkpt lat="43.6755729" lon="12.0385871"><ele>438.0</ele><time>2026-04-04T09:54:25.244Z</time></trkpt><trkpt lat="43.6757108" lon="12.0385084"><ele>438.0</ele><time>2026-04-04T09:54:26.241Z</time></trkpt><trkpt lat="43.6758583" lon="12.0384382"><ele>438.0</ele><time>2026-04-04T09:54:27.246Z</time></trkpt><trkpt lat="43.6760091" lon="12.0383689"><ele>438.0</ele><time>2026-04-04T09:54:28.242Z</time></trkpt><trkpt lat="43.6761545" lon="12.0382927"><ele>438.75</ele><time>2026-04-04T09:54:29.241Z</time></trkpt><trkpt lat="43.676297" lon="12.0382253"><ele>439.5</ele><time>2026-04-04T09:54:30.24Z</time></trkpt><trkpt lat="43.6764236" lon="12.0381599"><ele>440.25</ele><time>2026-04-04T09:54:31.242Z</time></trkpt><trkpt lat="43.6765419" lon="12.0380891"><ele>441.0</ele><time>2026-04-04T09:54:32.243Z</time></trkpt><trkpt lat="43.6766494" lon="12.0380328"><ele>441.0</ele><time>2026-04-04T09:54:33.242Z</time></trkpt><trkpt lat="43.6767656" lon="12.0379857"><ele>441.0</ele><time>2026-04-04T09:54:34.239Z</time></trkpt><trkpt lat="43.6768876" lon="12.0379147"><ele>441.0</ele><time>2026-04-04T09:54:35.239Z</time></trkpt><trkpt lat="43.6770188" lon="12.0378504"><ele>441.0</ele><time>2026-04-04T09:54:36.236Z</time></trkpt><trkpt lat="43.6771577" lon="12.0377737"><ele>442.0</ele><time>2026-04-04T09:54:37.246Z</time></trkpt><trkpt lat="43.6773096" lon="12.0376863"><ele>443.0</ele><time>2026-04-04T09:54:38.25Z</time></trkpt><trkpt lat="43.677463" lon="12.0376007"><ele>444.0</ele><time>2026-04-04T09:54:39.25Z</time></trkpt><trkpt lat="43.6776242" lon="12.0375192"><ele>446.66666666666663</ele><time>2026-04-04T09:54:40.245Z</time></trkpt><trkpt lat="43.6777766" lon="12.0374376"><ele>449.3333333333333</ele><time>2026-04-04T09:54:41.244Z</time></trkpt><trkpt lat="43.6779229" lon="12.0373624"><ele>452.0</ele><time>2026-04-04T09:54:42.244Z</time></trkpt><trkpt lat="43.6780622" lon="12.0372857"><ele>452.0</ele><time>2026-04-04T09:54:43.245Z</time></trkpt><trkpt lat="43.6782028" lon="12.037206"><ele>452.0</ele><time>2026-04-04T09:54:44.246Z</time></trkpt><trkpt lat="43.6783415" lon="12.0371327"><ele>452.0</ele><time>2026-04-04T09:54:45.248Z</time></trkpt><trkpt lat="43.6784749" lon="12.0370633"><ele>452.0</ele><time>2026-04-04T09:54:46.248Z</time></trkpt><trkpt lat="43.6786099" lon="12.0369954"><ele>451.75</ele><time>2026-04-04T09:54:47.253Z</time></trkpt><trkpt lat="43.6787453" lon="12.0369375"><ele>451.5</ele><time>2026-04-04T09:54:48.255Z</time></trkpt><trkpt lat="43.6788908" lon="12.0368809"><ele>451.25</ele><time>2026-04-04T09:54:49.255Z</time></trkpt><trkpt lat="43.6790341" lon="12.0368244"><ele>451.0</ele><time>2026-04-04T09:54:50.253Z</time></trkpt><trkpt lat="43.6791736" lon="12.0367645"><ele>451.0</ele><time>2026-04-04T09:54:51.246Z</time></trkpt><trkpt lat="43.6793142" lon="12.0367035"><ele>451.0</ele><time>2026-04-04T09:54:52.242Z</time></trkpt><trkpt lat="43.679455" lon="12.0366429"><ele>451.0</ele><time>2026-04-04T09:54:53.243Z</time></trkpt><trkpt lat="43.679595" lon="12.0365842"><ele>451.0</ele><time>2026-04-04T09:54:54.237Z</time></trkpt><trkpt lat="43.6797123" lon="12.0365156"><ele>454.0</ele><time>2026-04-04T09:54:55.249Z</time></trkpt><trkpt lat="43.6798483" lon="12.0364844"><ele>457.0</ele><time>2026-04-04T09:54:56.259Z</time></trkpt><trkpt lat="43.6800112" lon="12.0364562"><ele>460.0</ele><time>2026-04-04T09:54:57.249Z</time></trkpt><trkpt lat="43.680162" lon="12.0364419"><ele>458.25</ele><time>2026-04-04T09:54:58.255Z</time></trkpt><trkpt lat="43.6803111" lon="12.0364412"><ele>456.5</ele><time>2026-04-04T09:54:59.252Z</time></trkpt><trkpt lat="43.6804631" lon="12.0364527"><ele>454.75</ele><time>2026-04-04T09:55:00.254Z</time></trkpt><trkpt lat="43.6806101" lon="12.0364684"><ele>453.0</ele><time>2026-04-04T09:55:01.26Z</time></trkpt><trkpt lat="43.6807445" lon="12.0364791"><ele>453.0</ele><time>2026-04-04T09:55:02.257Z</time></trkpt><trkpt lat="43.6808633" lon="12.0364803"><ele>453.0</ele><time>2026-04-04T09:55:03.257Z</time></trkpt><trkpt lat="43.680981" lon="12.0364707"><ele>453.0</ele><time>2026-04-04T09:55:04.265Z</time></trkpt><trkpt lat="43.6811095" lon="12.0364524"><ele>453.0</ele><time>2026-04-04T09:55:05.262Z</time></trkpt><trkpt lat="43.6812536" lon="12.0364182"><ele>452.66666666666663</ele><time>2026-04-04T09:55:06.259Z</time></trkpt><trkpt lat="43.6814042" lon="12.0363821"><ele>452.3333333333333</ele><time>2026-04-04T09:55:07.261Z</time></trkpt><trkpt lat="43.6815633" lon="12.0363545"><ele>452.0</ele><time>2026-04-04T09:55:08.256Z</time></trkpt><trkpt lat="43.6817096" lon="12.0363291"><ele>452.0</ele><time>2026-04-04T09:55:09.26Z</time></trkpt><trkpt lat="43.6818448" lon="12.0363038"><ele>452.0</ele><time>2026-04-04T09:55:10.258Z</time></trkpt><trkpt lat="43.6819728" lon="12.0362852"><ele>452.0</ele><time>2026-04-04T09:55:11.259Z</time></trkpt><trkpt lat="43.6820846" lon="12.0362696"><ele>452.0</ele><time>2026-04-04T09:55:12.254Z</time></trkpt><trkpt lat="43.6821772" lon="12.0362741"><ele>451.8333333333333</ele><time>2026-04-04T09:55:13.257Z</time></trkpt><trkpt lat="43.6822481" lon="12.036288"><ele>451.66666666666663</ele><time>2026-04-04T09:55:14.257Z</time></trkpt><trkpt lat="43.6823183" lon="12.0363291"><ele>451.5</ele><time>2026-04-04T09:55:15.253Z</time></trkpt><trkpt lat="43.6823732" lon="12.036398"><ele>451.33333333333337</ele><time>2026-04-04T09:55:16.255Z</time></trkpt><trkpt lat="43.6823874" lon="12.0365188"><ele>451.1666666666667</ele><time>2026-04-04T09:55:17.251Z</time></trkpt><trkpt lat="43.6823973" lon="12.0366546"><ele>451.0</ele><time>2026-04-04T09:55:18.257Z</time></trkpt><trkpt lat="43.6823722" lon="12.0368031"><ele>451.0</ele><time>2026-04-04T09:55:19.257Z</time></trkpt><trkpt lat="43.6823287" lon="12.0369234"><ele>451.0</ele><time>2026-04-04T09:55:20.255Z</time></trkpt><trkpt lat="43.6822599" lon="12.0370329"><ele>451.0</ele><time>2026-04-04T09:55:21.256Z</time></trkpt><trkpt lat="43.6821794" lon="12.0371325"><ele>451.0</ele><time>2026-04-04T09:55:22.258Z</time></trkpt><trkpt lat="43.6820868" lon="12.037189"><ele>451.0</ele><time>2026-04-04T09:55:23.259Z</time></trkpt><trkpt lat="43.6819631" lon="12.0372061"><ele>450.0</ele><time>2026-04-04T09:55:24.261Z</time></trkpt><trkpt lat="43.6818235" lon="12.0371848"><ele>449.0</ele><time>2026-04-04T09:55:25.255Z</time></trkpt><trkpt lat="43.6816702" lon="12.0371275"><ele>448.0</ele><time>2026-04-04T09:55:26.255Z</time></trkpt><trkpt lat="43.6815261" lon="12.0370664"><ele>448.0</ele><time>2026-04-04T09:55:27.257Z</time></trkpt><trkpt lat="43.6813924" lon="12.037007"><ele>448.0</ele><time>2026-04-04T09:55:28.253Z</time></trkpt><trkpt lat="43.6812654" lon="12.0369522"><ele>448.0</ele><time>2026-04-04T09:55:29.256Z</time></trkpt><trkpt lat="43.6811489" lon="12.0369042"><ele>448.0</ele><time>2026-04-04T09:55:30.257Z</time></trkpt><trkpt lat="43.6810516" lon="12.0368631"><ele>448.0</ele><time>2026-04-04T09:55:31.251Z</time></trkpt><trkpt lat="43.6809718" lon="12.0368316"><ele>447.99999999999994</ele><time>2026-04-04T09:55:32.243Z</time></trkpt><trkpt lat="43.6808989" lon="12.0368127"><ele>447.99999999999994</ele><time>2026-04-04T09:55:34.254Z</time></trkpt><trkpt lat="43.6808309" lon="12.0367912"><ele>448.0</ele><time>2026-04-04T09:55:36.253Z</time></trkpt><trkpt lat="43.6806964" lon="12.0367585"><ele>448.0</ele><time>2026-04-04T09:55:38.258Z</time></trkpt><trkpt lat="43.6806034" lon="12.036737"><ele>448.0</ele><time>2026-04-04T09:55:39.254Z</time></trkpt><trkpt lat="43.6805057" lon="12.0367222"><ele>448.0</ele><time>2026-04-04T09:55:40.266Z</time></trkpt><trkpt lat="43.6803933" lon="12.0367061"><ele>448.0</ele><time>2026-04-04T09:55:41.257Z</time></trkpt><trkpt lat="43.680272" lon="12.0366913"><ele>448.0</ele><time>2026-04-04T09:55:42.261Z</time></trkpt><trkpt lat="43.6801402" lon="12.036678"><ele>448.0</ele><time>2026-04-04T09:55:43.262Z</time></trkpt><trkpt lat="43.6800013" lon="12.0366675"><ele>448.0</ele><time>2026-04-04T09:55:44.26Z</time></trkpt><trkpt lat="43.6798626" lon="12.0366616"><ele>448.0</ele><time>2026-04-04T09:55:45.259Z</time></trkpt><trkpt lat="43.6797184" lon="12.036656"><ele>448.0</ele><time>2026-04-04T09:55:46.255Z</time></trkpt><trkpt lat="43.6795492" lon="12.0366532"><ele>449.0</ele><time>2026-04-04T09:55:47.254Z</time></trkpt><trkpt lat="43.6793609" lon="12.0366493"><ele>450.0</ele><time>2026-04-04T09:55:48.26Z</time></trkpt><trkpt lat="43.6791848" lon="12.0366526"><ele>451.0</ele><time>2026-04-04T09:55:49.261Z</time></trkpt><trkpt lat="43.679015" lon="12.036652"><ele>451.0</ele><time>2026-04-04T09:55:50.253Z</time></trkpt><trkpt lat="43.6788551" lon="12.0366415"><ele>451.0</ele><time>2026-04-04T09:55:51.262Z</time></trkpt><trkpt lat="43.6786759" lon="12.0366358"><ele>451.0</ele><time>2026-04-04T09:55:52.256Z</time></trkpt><trkpt lat="43.6784779" lon="12.0366352"><ele>457.6666666666667</ele><time>2026-04-04T09:55:53.255Z</time></trkpt><trkpt lat="43.6782758" lon="12.0366361"><ele>464.33333333333337</ele><time>2026-04-04T09:55:54.257Z</time></trkpt><trkpt lat="43.6780779" lon="12.0366269"><ele>471.0</ele><time>2026-04-04T09:55:55.258Z</time></trkpt><trkpt lat="43.6778917" lon="12.0366148"><ele>468.0</ele><time>2026-04-04T09:55:56.257Z</time></trkpt><trkpt lat="43.6777057" lon="12.0366018"><ele>465.0</ele><time>2026-04-04T09:55:57.259Z</time></trkpt><trkpt lat="43.6775147" lon="12.0365896"><ele>462.0</ele><time>2026-04-04T09:55:58.262Z</time></trkpt><trkpt lat="43.6773134" lon="12.0365685"><ele>462.0</ele><time>2026-04-04T09:55:59.262Z</time></trkpt><trkpt lat="43.6771107" lon="12.0365411"><ele>462.0</ele><time>2026-04-04T09:56:00.259Z</time></trkpt><trkpt lat="43.6769039" lon="12.0365105"><ele>462.0</ele><time>2026-04-04T09:56:01.269Z</time></trkpt><trkpt lat="43.6766936" lon="12.036478"><ele>459.0</ele><time>2026-04-04T09:56:02.261Z</time></trkpt><trkpt lat="43.676495" lon="12.0364546"><ele>456.0</ele><time>2026-04-04T09:56:03.265Z</time></trkpt><trkpt lat="43.6762951" lon="12.0364254"><ele>453.0</ele><time>2026-04-04T09:56:04.265Z</time></trkpt><trkpt lat="43.6760999" lon="12.0363989"><ele>452.33333333333337</ele><time>2026-04-04T09:56:05.259Z</time></trkpt><trkpt lat="43.675899" lon="12.0363621"><ele>451.6666666666667</ele><time>2026-04-04T09:56:06.286Z</time></trkpt><trkpt lat="43.6756958" lon="12.0363273"><ele>451.0</ele><time>2026-04-04T09:56:07.267Z</time></trkpt><trkpt lat="43.6754893" lon="12.0362939"><ele>451.0</ele><time>2026-04-04T09:56:08.264Z</time></trkpt><trkpt lat="43.6752895" lon="12.036262"><ele>451.0</ele><time>2026-04-04T09:56:09.264Z</time></trkpt><trkpt lat="43.6750903" lon="12.0362331"><ele>451.0</ele><time>2026-04-04T09:56:10.267Z</time></trkpt><trkpt lat="43.6749012" lon="12.0362049"><ele>450.6666666666667</ele><time>2026-04-04T09:56:11.279Z</time></trkpt><trkpt lat="43.6747134" lon="12.0361774"><ele>450.33333333333337</ele><time>2026-04-04T09:56:12.262Z</time></trkpt><trkpt lat="43.6745279" lon="12.0361442"><ele>450.0</ele><time>2026-04-04T09:56:13.264Z</time></trkpt><trkpt lat="43.6743455" lon="12.0361117"><ele>451.33333333333337</ele><time>2026-04-04T09:56:14.263Z</time></trkpt><trkpt lat="43.6741593" lon="12.0360805"><ele>452.6666666666667</ele><time>2026-04-04T09:56:15.265Z</time></trkpt><trkpt lat="43.6739717" lon="12.0360563"><ele>454.0</ele><time>2026-04-04T09:56:16.263Z</time></trkpt><trkpt lat="43.6737839" lon="12.0360308"><ele>453.33333333333337</ele><time>2026-04-04T09:56:17.264Z</time></trkpt><trkpt lat="43.6736023" lon="12.036007"><ele>452.66666666666663</ele><time>2026-04-04T09:56:18.259Z</time></trkpt><trkpt lat="43.6734257" lon="12.0359931"><ele>452.0</ele><time>2026-04-04T09:56:19.265Z</time></trkpt><trkpt lat="43.6732715" lon="12.0359668"><ele>452.0</ele><time>2026-04-04T09:56:20.259Z</time></trkpt><trkpt lat="43.6731149" lon="12.0359521"><ele>452.0</ele><time>2026-04-04T09:56:21.262Z</time></trkpt><trkpt lat="43.67295" lon="12.0359468"><ele>452.0</ele><time>2026-04-04T09:56:22.259Z</time></trkpt><trkpt lat="43.6727822" lon="12.0359508"><ele>450.66666666666663</ele><time>2026-04-04T09:56:23.263Z</time></trkpt><trkpt lat="43.6726103" lon="12.0359584"><ele>449.33333333333337</ele><time>2026-04-04T09:56:24.262Z</time></trkpt><trkpt lat="43.6724423" lon="12.0359746"><ele>448.0</ele><time>2026-04-04T09:56:25.262Z</time></trkpt><trkpt lat="43.6722743" lon="12.0359994"><ele>448.0</ele><time>2026-04-04T09:56:26.261Z</time></trkpt><trkpt lat="43.6721056" lon="12.0360297"><ele>448.0</ele><time>2026-04-04T09:56:27.27Z</time></trkpt><trkpt lat="43.6719367" lon="12.0360667"><ele>448.0</ele><time>2026-04-04T09:56:28.267Z</time></trkpt><trkpt lat="43.6717732" lon="12.0361156"><ele>446.6666666666667</ele><time>2026-04-04T09:56:29.265Z</time></trkpt><trkpt lat="43.6716123" lon="12.036174"><ele>445.33333333333337</ele><time>2026-04-04T09:56:30.268Z</time></trkpt><trkpt lat="43.6714532" lon="12.0362499"><ele>444.0</ele><time>2026-04-04T09:56:31.266Z</time></trkpt><trkpt lat="43.6712992" lon="12.0363347"><ele>444.0</ele><time>2026-04-04T09:56:32.266Z</time></trkpt><trkpt lat="43.6711433" lon="12.0364192"><ele>444.0</ele><time>2026-04-04T09:56:33.266Z</time></trkpt><trkpt lat="43.6709888" lon="12.0365109"><ele>444.0</ele><time>2026-04-04T09:56:34.263Z</time></trkpt><trkpt lat="43.6708353" lon="12.0366138"><ele>443.33333333333337</ele><time>2026-04-04T09:56:35.264Z</time></trkpt><trkpt lat="43.6706801" lon="12.0367201"><ele>442.6666666666667</ele><time>2026-04-04T09:56:36.264Z</time></trkpt><trkpt lat="43.6705383" lon="12.0368298"><ele>442.0</ele><time>2026-04-04T09:56:37.271Z</time></trkpt><trkpt lat="43.6703979" lon="12.0369482"><ele>447.6666666666667</ele><time>2026-04-04T09:56:38.265Z</time></trkpt><trkpt lat="43.6702547" lon="12.0370833"><ele>453.33333333333337</ele><time>2026-04-04T09:56:39.267Z</time></trkpt><trkpt lat="43.6701078" lon="12.0372177"><ele>459.0</ele><time>2026-04-04T09:56:40.265Z</time></trkpt><trkpt lat="43.6699636" lon="12.0373662"><ele>456.66666666666663</ele><time>2026-04-04T09:56:41.273Z</time></trkpt><trkpt lat="43.6698111" lon="12.0375243"><ele>454.3333333333333</ele><time>2026-04-04T09:56:42.262Z</time></trkpt><trkpt lat="43.6696689" lon="12.0376716"><ele>452.0</ele><time>2026-04-04T09:56:43.263Z</time></trkpt><trkpt lat="43.6695235" lon="12.0378185"><ele>456.66666666666663</ele><time>2026-04-04T09:56:44.27Z</time></trkpt><trkpt lat="43.669376" lon="12.0379687"><ele>461.33333333333337</ele><time>2026-04-04T09:56:45.266Z</time></trkpt><trkpt lat="43.6692292" lon="12.0381215"><ele>466.0</ele><time>2026-04-04T09:56:46.266Z</time></trkpt><trkpt lat="43.669083" lon="12.0382605"><ele>461.0</ele><time>2026-04-04T09:56:47.265Z</time></trkpt><trkpt lat="43.6689311" lon="12.0384075"><ele>456.0</ele><time>2026-04-04T09:56:48.268Z</time></trkpt><trkpt lat="43.6687734" lon="12.0385571"><ele>451.0</ele><time>2026-04-04T09:56:49.268Z</time></trkpt><trkpt lat="43.6686178" lon="12.0387038"><ele>451.6666666666667</ele><time>2026-04-04T09:56:50.262Z</time></trkpt><trkpt lat="43.6684661" lon="12.038852"><ele>452.33333333333337</ele><time>2026-04-04T09:56:51.268Z</time></trkpt><trkpt lat="43.6683166" lon="12.0389985"><ele>453.0</ele><time>2026-04-04T09:56:52.263Z</time></trkpt><trkpt lat="43.6681696" lon="12.0391412"><ele>453.0</ele><time>2026-04-04T09:56:53.262Z</time></trkpt><trkpt lat="43.6680184" lon="12.0392845"><ele>453.0</ele><time>2026-04-04T09:56:54.26Z</time></trkpt><trkpt lat="43.6678665" lon="12.0394278"><ele>453.0</ele><time>2026-04-04T09:56:55.269Z</time></trkpt><trkpt lat="43.6677166" lon="12.0395773"><ele>450.66666666666663</ele><time>2026-04-04T09:56:56.266Z</time></trkpt><trkpt lat="43.6675671" lon="12.0397274"><ele>448.3333333333333</ele><time>2026-04-04T09:56:57.269Z</time></trkpt><trkpt lat="43.6674185" lon="12.0398779"><ele>446.0</ele><time>2026-04-04T09:56:58.269Z</time></trkpt><trkpt lat="43.6672671" lon="12.0400301"><ele>446.0</ele><time>2026-04-04T09:56:59.264Z</time></trkpt><trkpt lat="43.6671161" lon="12.040175"><ele>446.0</ele><time>2026-04-04T09:57:00.268Z</time></trkpt><trkpt lat="43.6669693" lon="12.0403191"><ele>446.0</ele><time>2026-04-04T09:57:01.272Z</time></trkpt><trkpt lat="43.6668191" lon="12.0404635"><ele>446.3333333333333</ele><time>2026-04-04T09:57:02.267Z</time></trkpt><trkpt lat="43.6666684" lon="12.0406102"><ele>446.66666666666663</ele><time>2026-04-04T09:57:03.275Z</time></trkpt><trkpt lat="43.6665162" lon="12.0407597"><ele>447.0</ele><time>2026-04-04T09:57:04.272Z</time></trkpt><trkpt lat="43.6663676" lon="12.0409042"><ele>447.0</ele><time>2026-04-04T09:57:05.265Z</time></trkpt><trkpt lat="43.6662294" lon="12.0410504"><ele>447.0</ele><time>2026-04-04T09:57:06.268Z</time></trkpt><trkpt lat="43.6660932" lon="12.0411956"><ele>447.0</ele><time>2026-04-04T09:57:07.266Z</time></trkpt><trkpt lat="43.6659578" lon="12.0413457"><ele>446.33333333333337</ele><time>2026-04-04T09:57:08.268Z</time></trkpt><trkpt lat="43.6658336" lon="12.0414908"><ele>445.6666666666667</ele><time>2026-04-04T09:57:09.264Z</time></trkpt><trkpt lat="43.6657157" lon="12.0416525"><ele>445.0</ele><time>2026-04-04T09:57:10.263Z</time></trkpt><trkpt lat="43.665599" lon="12.041813"><ele>445.0</ele><time>2026-04-04T09:57:11.267Z</time></trkpt><trkpt lat="43.6654819" lon="12.0419683"><ele>445.0</ele><time>2026-04-04T09:57:12.272Z</time></trkpt><trkpt lat="43.6653588" lon="12.0421313"><ele>445.0</ele><time>2026-04-04T09:57:13.266Z</time></trkpt><trkpt lat="43.6652413" lon="12.0423041"><ele>445.0</ele><time>2026-04-04T09:57:14.265Z</time></trkpt><trkpt lat="43.6651114" lon="12.0424978"><ele>445.0</ele><time>2026-04-04T09:57:15.262Z</time></trkpt><trkpt lat="43.6649682" lon="12.0427175"><ele>445.0</ele><time>2026-04-04T09:57:16.268Z</time></trkpt><trkpt lat="43.6648271" lon="12.0429502"><ele>445.0</ele><time>2026-04-04T09:57:17.263Z</time></trkpt><trkpt lat="43.6646846" lon="12.0431834"><ele>445.0</ele><time>2026-04-04T09:57:18.265Z</time></trkpt><trkpt lat="43.664545" lon="12.04342"><ele>445.0</ele><time>2026-04-04T09:57:19.259Z</time></trkpt><trkpt lat="43.6643961" lon="12.0436879"><ele>447.5</ele><time>2026-04-04T09:57:20.261Z</time></trkpt><trkpt lat="43.6642518" lon="12.0439615"><ele>450.0</ele><time>2026-04-04T09:57:21.258Z</time></trkpt><trkpt lat="43.6641172" lon="12.0442327"><ele>443.0</ele><time>2026-04-04T09:57:22.259Z</time></trkpt><trkpt lat="43.6639924" lon="12.0444947"><ele>436.0</ele><time>2026-04-04T09:57:23.257Z</time></trkpt><trkpt lat="43.6638619" lon="12.044763"><ele>434.0</ele><time>2026-04-04T09:57:24.257Z</time></trkpt><trkpt lat="43.6637277" lon="12.0450242"><ele>432.0</ele><time>2026-04-04T09:57:25.259Z</time></trkpt><trkpt lat="43.6636022" lon="12.0452834"><ele>434.33333333333337</ele><time>2026-04-04T09:57:26.254Z</time></trkpt><trkpt lat="43.6634807" lon="12.0455345"><ele>436.6666666666667</ele><time>2026-04-04T09:57:27.26Z</time></trkpt><trkpt lat="43.6633578" lon="12.0457734"><ele>439.0</ele><time>2026-04-04T09:57:28.26Z</time></trkpt><trkpt lat="43.6632417" lon="12.0459981"><ele>439.0</ele><time>2026-04-04T09:57:29.258Z</time></trkpt><trkpt lat="43.6631271" lon="12.0462379"><ele>439.0</ele><time>2026-04-04T09:57:30.258Z</time></trkpt><trkpt lat="43.6630144" lon="12.0464693"><ele>439.0</ele><time>2026-04-04T09:57:31.255Z</time></trkpt><trkpt lat="43.6629019" lon="12.0467035"><ele>437.33333333333337</ele><time>2026-04-04T09:57:32.261Z</time></trkpt><trkpt lat="43.6627819" lon="12.0469386"><ele>435.66666666666663</ele><time>2026-04-04T09:57:33.257Z</time></trkpt><trkpt lat="43.6626601" lon="12.0471672"><ele>434.0</ele><time>2026-04-04T09:57:34.257Z</time></trkpt><trkpt lat="43.6625468" lon="12.0473898"><ele>435.66666666666663</ele><time>2026-04-04T09:57:35.258Z</time></trkpt><trkpt lat="43.6624309" lon="12.0476243"><ele>437.33333333333337</ele><time>2026-04-04T09:57:36.248Z</time></trkpt><trkpt lat="43.6623154" lon="12.0478471"><ele>439.0</ele><time>2026-04-04T09:57:37.258Z</time></trkpt><trkpt lat="43.6622022" lon="12.0480705"><ele>439.0</ele><time>2026-04-04T09:57:38.258Z</time></trkpt><trkpt lat="43.6620905" lon="12.0482866"><ele>439.0</ele><time>2026-04-04T09:57:39.253Z</time></trkpt><trkpt lat="43.6619893" lon="12.048494"><ele>439.0</ele><time>2026-04-04T09:57:40.261Z</time></trkpt><trkpt lat="43.6618831" lon="12.0487"><ele>437.0</ele><time>2026-04-04T09:57:41.264Z</time></trkpt><trkpt lat="43.6617692" lon="12.0489142"><ele>435.0</ele><time>2026-04-04T09:57:42.256Z</time></trkpt><trkpt lat="43.6616561" lon="12.0491409"><ele>433.0</ele><time>2026-04-04T09:57:43.259Z</time></trkpt><trkpt lat="43.6615383" lon="12.0493654"><ele>433.0</ele><time>2026-04-04T09:57:44.256Z</time></trkpt><trkpt lat="43.6614232" lon="12.0495924"><ele>433.0</ele><time>2026-04-04T09:57:45.248Z</time></trkpt><trkpt lat="43.6613085" lon="12.0498052"><ele>433.0</ele><time>2026-04-04T09:57:46.253Z</time></trkpt><trkpt lat="43.6611897" lon="12.0500049"><ele>436.6666666666667</ele><time>2026-04-04T09:57:47.252Z</time></trkpt><trkpt lat="43.6610676" lon="12.0501905"><ele>440.33333333333337</ele><time>2026-04-04T09:57:48.251Z</time></trkpt><trkpt lat="43.6609424" lon="12.0503755"><ele>444.0</ele><time>2026-04-04T09:57:49.252Z</time></trkpt><trkpt lat="43.6608019" lon="12.0505472"><ele>444.0</ele><time>2026-04-04T09:57:50.252Z</time></trkpt><trkpt lat="43.660657" lon="12.0507118"><ele>444.0</ele><time>2026-04-04T09:57:51.261Z</time></trkpt><trkpt lat="43.6605212" lon="12.0508706"><ele>444.0</ele><time>2026-04-04T09:57:52.258Z</time></trkpt><trkpt lat="43.6603658" lon="12.0510164"><ele>443.33333333333337</ele><time>2026-04-04T09:57:53.255Z</time></trkpt><trkpt lat="43.6601998" lon="12.0511688"><ele>442.6666666666667</ele><time>2026-04-04T09:57:54.261Z</time></trkpt><trkpt lat="43.6600267" lon="12.0513147"><ele>442.0</ele><time>2026-04-04T09:57:55.259Z</time></trkpt><trkpt lat="43.6598506" lon="12.05145"><ele>442.0</ele><time>2026-04-04T09:57:56.262Z</time></trkpt><trkpt lat="43.6596747" lon="12.0515758"><ele>442.0</ele><time>2026-04-04T09:57:57.262Z</time></trkpt><trkpt lat="43.6594859" lon="12.0516852"><ele>442.0</ele><time>2026-04-04T09:57:58.262Z</time></trkpt><trkpt lat="43.6592817" lon="12.0517842"><ele>434.5</ele><time>2026-04-04T09:57:59.257Z</time></trkpt><trkpt lat="43.6590693" lon="12.0518765"><ele>427.0</ele><time>2026-04-04T09:58:00.245Z</time></trkpt><trkpt lat="43.6588358" lon="12.0519732"><ele>428.0</ele><time>2026-04-04T09:58:01.251Z</time></trkpt><trkpt lat="43.6585835" lon="12.052064"><ele>429.0</ele><time>2026-04-04T09:58:02.25Z</time></trkpt><trkpt lat="43.6583063" lon="12.0521578"><ele>429.0</ele><time>2026-04-04T09:58:03.259Z</time></trkpt><trkpt lat="43.6579973" lon="12.0522518"><ele>429.0</ele><time>2026-04-04T09:58:04.258Z</time></trkpt><trkpt lat="43.6576696" lon="12.0523383"><ele>428.5</ele><time>2026-04-04T09:58:05.25Z</time></trkpt><trkpt lat="43.6573295" lon="12.0524281"><ele>428.0</ele><time>2026-04-04T09:58:06.247Z</time></trkpt><trkpt lat="43.6569838" lon="12.0525091"><ele>420.5</ele><time>2026-04-04T09:58:07.257Z</time></trkpt><trkpt lat="43.6566577" lon="12.0525901"><ele>413.0</ele><time>2026-04-04T09:58:08.25Z</time></trkpt><trkpt lat="43.6563482" lon="12.0526535"><ele>413.0</ele><time>2026-04-04T09:58:09.244Z</time></trkpt><trkpt lat="43.6560496" lon="12.0527243"><ele>413.0</ele><time>2026-04-04T09:58:10.25Z</time></trkpt><trkpt lat="43.6557638" lon="12.0527859"><ele>413.0</ele><time>2026-04-04T09:58:11.256Z</time></trkpt><trkpt lat="43.6554758" lon="12.0528549"><ele>413.0</ele><time>2026-04-04T09:58:12.257Z</time></trkpt><trkpt lat="43.6551856" lon="12.0529262"><ele>412.5</ele><time>2026-04-04T09:58:13.258Z</time></trkpt><trkpt lat="43.6549039" lon="12.0530046"><ele>412.0</ele><time>2026-04-04T09:58:14.26Z</time></trkpt><trkpt lat="43.6546164" lon="12.0530787"><ele>412.0</ele><time>2026-04-04T09:58:15.256Z</time></trkpt><trkpt lat="43.6543344" lon="12.0531585"><ele>412.0</ele><time>2026-04-04T09:58:16.258Z</time></trkpt><trkpt lat="43.6540571" lon="12.0532332"><ele>411.0</ele><time>2026-04-04T09:58:17.254Z</time></trkpt><trkpt lat="43.6537743" lon="12.0533076"><ele>410.0</ele><time>2026-04-04T09:58:18.256Z</time></trkpt><trkpt lat="43.6534893" lon="12.0533832"><ele>410.0</ele><time>2026-04-04T09:58:19.261Z</time></trkpt><trkpt lat="43.653205" lon="12.0534638"><ele>410.0</ele><time>2026-04-04T09:58:20.254Z</time></trkpt><trkpt lat="43.6529221" lon="12.0535396"><ele>410.0</ele><time>2026-04-04T09:58:21.26Z</time></trkpt><trkpt lat="43.6526431" lon="12.053613"><ele>410.0</ele><time>2026-04-04T09:58:22.256Z</time></trkpt><trkpt lat="43.6523629" lon="12.0536849"><ele>410.0</ele><time>2026-04-04T09:58:23.257Z</time></trkpt><trkpt lat="43.6520802" lon="12.0537522"><ele>410.0</ele><time>2026-04-04T09:58:24.282Z</time></trkpt><trkpt lat="43.6517915" lon="12.0538084"><ele>409.5</ele><time>2026-04-04T09:58:25.259Z</time></trkpt><trkpt lat="43.6515001" lon="12.0538606"><ele>409.0</ele><time>2026-04-04T09:58:26.254Z</time></trkpt><trkpt lat="43.651212" lon="12.0539013"><ele>408.0</ele><time>2026-04-04T09:58:27.258Z</time></trkpt><trkpt lat="43.6509252" lon="12.053933"><ele>407.0</ele><time>2026-04-04T09:58:28.258Z</time></trkpt><trkpt lat="43.6506315" lon="12.0539572"><ele>407.0</ele><time>2026-04-04T09:58:29.246Z</time></trkpt><trkpt lat="43.650346" lon="12.0539735"><ele>407.0</ele><time>2026-04-04T09:58:30.256Z</time></trkpt><trkpt lat="43.650054" lon="12.0539949"><ele>406.5</ele><time>2026-04-04T09:58:31.257Z</time></trkpt><trkpt lat="43.6497662" lon="12.0540076"><ele>406.0</ele><time>2026-04-04T09:58:32.255Z</time></trkpt><trkpt lat="43.6494803" lon="12.0540246"><ele>405.0</ele><time>2026-04-04T09:58:33.25Z</time></trkpt><trkpt lat="43.6491983" lon="12.0540382"><ele>404.0</ele><time>2026-04-04T09:58:34.255Z</time></trkpt><trkpt lat="43.6489139" lon="12.0540605"><ele>404.0</ele><time>2026-04-04T09:58:35.256Z</time></trkpt><trkpt lat="43.6486352" lon="12.0541004"><ele>404.0</ele><time>2026-04-04T09:58:36.254Z</time></trkpt><trkpt lat="43.6483554" lon="12.0541638"><ele>405.5</ele><time>2026-04-04T09:58:37.26Z</time></trkpt><trkpt lat="43.6480896" lon="12.0542433"><ele>407.0</ele><time>2026-04-04T09:58:38.26Z</time></trkpt><trkpt lat="43.6478306" lon="12.054354"><ele>406.0</ele><time>2026-04-04T09:58:39.262Z</time></trkpt><trkpt lat="43.6475684" lon="12.0544781"><ele>405.0</ele><time>2026-04-04T09:58:40.262Z</time></trkpt><trkpt lat="43.647315" lon="12.0546334"><ele>405.0</ele><time>2026-04-04T09:58:41.272Z</time></trkpt><trkpt lat="43.6470676" lon="12.0548126"><ele>405.0</ele><time>2026-04-04T09:58:42.264Z</time></trkpt><trkpt lat="43.6468257" lon="12.0550129"><ele>406.5</ele><time>2026-04-04T09:58:43.259Z</time></trkpt><trkpt lat="43.6465916" lon="12.0552311"><ele>408.0</ele><time>2026-04-04T09:58:44.257Z</time></trkpt><trkpt lat="43.6463573" lon="12.0554716"><ele>408.0</ele><time>2026-04-04T09:58:45.265Z</time></trkpt><trkpt lat="43.6461442" lon="12.0557306"><ele>408.0</ele><time>2026-04-04T09:58:46.261Z</time></trkpt><trkpt lat="43.6459274" lon="12.0560149"><ele>407.5</ele><time>2026-04-04T09:58:47.283Z</time></trkpt><trkpt lat="43.6457251" lon="12.0563359"><ele>407.0</ele><time>2026-04-04T09:58:48.262Z</time></trkpt><trkpt lat="43.645546" lon="12.0566763"><ele>406.5</ele><time>2026-04-04T09:58:49.257Z</time></trkpt><trkpt lat="43.6453806" lon="12.0570273"><ele>406.0</ele><time>2026-04-04T09:58:50.261Z</time></trkpt><trkpt lat="43.6452275" lon="12.0573936"><ele>403.0</ele><time>2026-04-04T09:58:51.261Z</time></trkpt><trkpt lat="43.6450949" lon="12.0577683"><ele>400.0</ele><time>2026-04-04T09:58:52.266Z</time></trkpt><trkpt lat="43.6449652" lon="12.0581416"><ele>400.5</ele><time>2026-04-04T09:58:53.258Z</time></trkpt><trkpt lat="43.6448335" lon="12.0585262"><ele>401.0</ele><time>2026-04-04T09:58:54.269Z</time></trkpt><trkpt lat="43.6447057" lon="12.0589173"><ele>401.0</ele><time>2026-04-04T09:58:55.263Z</time></trkpt><trkpt lat="43.6445819" lon="12.0593069"><ele>401.0</ele><time>2026-04-04T09:58:56.257Z</time></trkpt><trkpt lat="43.644447" lon="12.0596906"><ele>400.0</ele><time>2026-04-04T09:58:57.273Z</time></trkpt><trkpt lat="43.6443161" lon="12.0600621"><ele>399.0</ele><time>2026-04-04T09:58:58.267Z</time></trkpt><trkpt lat="43.6441846" lon="12.0604213"><ele>399.0</ele><time>2026-04-04T09:58:59.269Z</time></trkpt><trkpt lat="43.6440516" lon="12.0607691"><ele>399.0</ele><time>2026-04-04T09:59:00.266Z</time></trkpt><trkpt lat="43.6439171" lon="12.0610977"><ele>398.5</ele><time>2026-04-04T09:59:01.257Z</time></trkpt><trkpt lat="43.6437703" lon="12.0614168"><ele>398.0</ele><time>2026-04-04T09:59:02.255Z</time></trkpt><trkpt lat="43.6436157" lon="12.0617333"><ele>397.5</ele><time>2026-04-04T09:59:03.257Z</time></trkpt><trkpt lat="43.6434541" lon="12.0620438"><ele>397.0</ele><time>2026-04-04T09:59:04.268Z</time></trkpt><trkpt lat="43.6432936" lon="12.0623355"><ele>397.5</ele><time>2026-04-04T09:59:05.254Z</time></trkpt><trkpt lat="43.6431208" lon="12.06263"><ele>398.0</ele><time>2026-04-04T09:59:06.262Z</time></trkpt><trkpt lat="43.6429427" lon="12.0629111"><ele>397.0</ele><time>2026-04-04T09:59:07.257Z</time></trkpt><trkpt lat="43.6427524" lon="12.0631835"><ele>396.0</ele><time>2026-04-04T09:59:08.261Z</time></trkpt><trkpt lat="43.642549" lon="12.0634529"><ele>400.0</ele><time>2026-04-04T09:59:09.259Z</time></trkpt><trkpt lat="43.6423387" lon="12.063719"><ele>404.0</ele><time>2026-04-04T09:59:10.26Z</time></trkpt><trkpt lat="43.6421269" lon="12.0639755"><ele>406.0</ele><time>2026-04-04T09:59:11.256Z</time></trkpt><trkpt lat="43.6419037" lon="12.064225"><ele>408.0</ele><time>2026-04-04T09:59:12.256Z</time></trkpt><trkpt lat="43.6416734" lon="12.0644569"><ele>408.0</ele><time>2026-04-04T09:59:13.261Z</time></trkpt><trkpt lat="43.6414387" lon="12.0646761"><ele>408.0</ele><time>2026-04-04T09:59:14.264Z</time></trkpt><trkpt lat="43.6412002" lon="12.0648819"><ele>404.0</ele><time>2026-04-04T09:59:15.281Z</time></trkpt><trkpt lat="43.6409704" lon="12.0650631"><ele>400.0</ele><time>2026-04-04T09:59:16.264Z</time></trkpt><trkpt lat="43.6407414" lon="12.0652314"><ele>400.0</ele><time>2026-04-04T09:59:17.266Z</time></trkpt><trkpt lat="43.640504" lon="12.0653765"><ele>400.0</ele><time>2026-04-04T09:59:18.26Z</time></trkpt><trkpt lat="43.6402575" lon="12.0655321"><ele>400.5</ele><time>2026-04-04T09:59:19.263Z</time></trkpt><trkpt lat="43.6400018" lon="12.0656822"><ele>401.0</ele><time>2026-04-04T09:59:20.263Z</time></trkpt><trkpt lat="43.6397369" lon="12.0658198"><ele>401.0</ele><time>2026-04-04T09:59:21.268Z</time></trkpt><trkpt lat="43.639469" lon="12.0659401"><ele>401.0</ele><time>2026-04-04T09:59:22.264Z</time></trkpt><trkpt lat="43.6391859" lon="12.0660574"><ele>399.5</ele><time>2026-04-04T09:59:23.256Z</time></trkpt><trkpt lat="43.6388944" lon="12.0661685"><ele>398.0</ele><time>2026-04-04T09:59:24.263Z</time></trkpt><trkpt lat="43.638592" lon="12.0662743"><ele>397.0</ele><time>2026-04-04T09:59:25.267Z</time></trkpt><trkpt lat="43.6382893" lon="12.0663762"><ele>396.0</ele><time>2026-04-04T09:59:26.269Z</time></trkpt><trkpt lat="43.6379886" lon="12.0664786"><ele>397.0</ele><time>2026-04-04T09:59:27.28Z</time></trkpt><trkpt lat="43.6377045" lon="12.0665843"><ele>398.0</ele><time>2026-04-04T09:59:28.268Z</time></trkpt><trkpt lat="43.6374322" lon="12.0666915"><ele>398.0</ele><time>2026-04-04T09:59:29.263Z</time></trkpt><trkpt lat="43.6371629" lon="12.066787"><ele>398.0</ele><time>2026-04-04T09:59:30.264Z</time></trkpt><trkpt lat="43.6368919" lon="12.066889"><ele>396.0</ele><time>2026-04-04T09:59:31.261Z</time></trkpt><trkpt lat="43.6366235" lon="12.0669906"><ele>394.0</ele><time>2026-04-04T09:59:32.264Z</time></trkpt><trkpt lat="43.6363604" lon="12.0670867"><ele>393.0</ele><time>2026-04-04T09:59:33.261Z</time></trkpt><trkpt lat="43.6360967" lon="12.0671855"><ele>392.0</ele><time>2026-04-04T09:59:34.26Z</time></trkpt><trkpt lat="43.6358266" lon="12.067278"><ele>392.0</ele><time>2026-04-04T09:59:35.261Z</time></trkpt><trkpt lat="43.6355613" lon="12.0673731"><ele>392.0</ele><time>2026-04-04T09:59:36.255Z</time></trkpt><trkpt lat="43.635302" lon="12.0674796"><ele>392.5</ele><time>2026-04-04T09:59:37.262Z</time></trkpt><trkpt lat="43.6350498" lon="12.0675957"><ele>393.0</ele><time>2026-04-04T09:59:38.26Z</time></trkpt><trkpt lat="43.6348048" lon="12.0677279"><ele>393.0</ele><time>2026-04-04T09:59:39.258Z</time></trkpt><trkpt lat="43.6345675" lon="12.06787"><ele>393.0</ele><time>2026-04-04T09:59:40.259Z</time></trkpt><trkpt lat="43.6343233" lon="12.06802"><ele>394.5</ele><time>2026-04-04T09:59:41.257Z</time></trkpt><trkpt lat="43.6340772" lon="12.0681776"><ele>396.0</ele><time>2026-04-04T09:59:42.263Z</time></trkpt><trkpt lat="43.633826" lon="12.0683479"><ele>391.5</ele><time>2026-04-04T09:59:43.263Z</time></trkpt><trkpt lat="43.6335869" lon="12.0685284"><ele>387.0</ele><time>2026-04-04T09:59:44.265Z</time></trkpt><trkpt lat="43.633352" lon="12.0687141"><ele>387.0</ele><time>2026-04-04T09:59:45.256Z</time></trkpt><trkpt lat="43.6331225" lon="12.0689142"><ele>387.0</ele><time>2026-04-04T09:59:46.259Z</time></trkpt><trkpt lat="43.6328935" lon="12.0691264"><ele>388.0</ele><time>2026-04-04T09:59:47.279Z</time></trkpt><trkpt lat="43.6326713" lon="12.0693539"><ele>389.0</ele><time>2026-04-04T09:59:48.258Z</time></trkpt><trkpt lat="43.6324561" lon="12.0695914"><ele>389.0</ele><time>2026-04-04T09:59:49.257Z</time></trkpt><trkpt lat="43.6322419" lon="12.069839"><ele>389.0</ele><time>2026-04-04T09:59:50.26Z</time></trkpt><trkpt lat="43.6320349" lon="12.0700879"><ele>389.5</ele><time>2026-04-04T09:59:51.268Z</time></trkpt><trkpt lat="43.6318359" lon="12.0703503"><ele>390.0</ele><time>2026-04-04T09:59:52.262Z</time></trkpt><trkpt lat="43.6316307" lon="12.0706182"><ele>395.5</ele><time>2026-04-04T09:59:53.262Z</time></trkpt><trkpt lat="43.6314262" lon="12.0708986"><ele>401.0</ele><time>2026-04-04T09:59:54.26Z</time></trkpt><trkpt lat="43.6312206" lon="12.0711949"><ele>400.0</ele><time>2026-04-04T09:59:55.263Z</time></trkpt><trkpt lat="43.6310147" lon="12.0715031"><ele>399.0</ele><time>2026-04-04T09:59:56.261Z</time></trkpt><trkpt lat="43.6308123" lon="12.0718158"><ele>399.0</ele><time>2026-04-04T09:59:57.272Z</time></trkpt><trkpt lat="43.6306127" lon="12.0721276"><ele>399.0</ele><time>2026-04-04T09:59:58.267Z</time></trkpt><trkpt lat="43.6304145" lon="12.0724277"><ele>397.5</ele><time>2026-04-04T09:59:59.254Z</time></trkpt><trkpt lat="43.6302293" lon="12.0727025"><ele>396.0</ele><time>2026-04-04T10:00:00.273Z</time></trkpt><trkpt lat="43.6300427" lon="12.0729794"><ele>396.0</ele><time>2026-04-04T10:00:01.26Z</time></trkpt><trkpt lat="43.6298619" lon="12.0732517"><ele>396.0</ele><time>2026-04-04T10:00:02.256Z</time></trkpt><trkpt lat="43.6296787" lon="12.0735252"><ele>395.5</ele><time>2026-04-04T10:00:03.261Z</time></trkpt><trkpt lat="43.6294969" lon="12.0738021"><ele>395.0</ele><time>2026-04-04T10:00:04.26Z</time></trkpt><trkpt lat="43.6293172" lon="12.074076"><ele>398.0</ele><time>2026-04-04T10:00:05.257Z</time></trkpt><trkpt lat="43.6291221" lon="12.0743365"><ele>401.0</ele><time>2026-04-04T10:00:06.256Z</time></trkpt><trkpt lat="43.6289256" lon="12.0746004"><ele>401.0</ele><time>2026-04-04T10:00:07.264Z</time></trkpt><trkpt lat="43.6287189" lon="12.0748507"><ele>401.0</ele><time>2026-04-04T10:00:08.272Z</time></trkpt><trkpt lat="43.6285006" lon="12.0750772"><ele>400.5</ele><time>2026-04-04T10:00:09.26Z</time></trkpt><trkpt lat="43.6282678" lon="12.0752774"><ele>400.0</ele><time>2026-04-04T10:00:10.255Z</time></trkpt><trkpt lat="43.6280068" lon="12.0754552"><ele>398.5</ele><time>2026-04-04T10:00:11.252Z</time></trkpt><trkpt lat="43.6277377" lon="12.0756374"><ele>397.0</ele><time>2026-04-04T10:00:12.259Z</time></trkpt><trkpt lat="43.627467" lon="12.075819"><ele>397.0</ele><time>2026-04-04T10:00:13.265Z</time></trkpt><trkpt lat="43.6272021" lon="12.07601"><ele>397.0</ele><time>2026-04-04T10:00:14.257Z</time></trkpt><trkpt lat="43.6269546" lon="12.076197"><ele>393.5</ele><time>2026-04-04T10:00:15.259Z</time></trkpt><trkpt lat="43.626721" lon="12.0763714"><ele>390.0</ele><time>2026-04-04T10:00:16.264Z</time></trkpt><trkpt lat="43.626483" lon="12.0765389"><ele>390.5</ele><time>2026-04-04T10:00:17.266Z</time></trkpt><trkpt lat="43.6262383" lon="12.0767076"><ele>391.0</ele><time>2026-04-04T10:00:18.26Z</time></trkpt><trkpt lat="43.6259899" lon="12.076879"><ele>390.0</ele><time>2026-04-04T10:00:19.259Z</time></trkpt><trkpt lat="43.6257372" lon="12.0770567"><ele>389.0</ele><time>2026-04-04T10:00:20.261Z</time></trkpt><trkpt lat="43.6254701" lon="12.0772453"><ele>395.0</ele><time>2026-04-04T10:00:21.265Z</time></trkpt><trkpt lat="43.6251952" lon="12.0774451"><ele>401.0</ele><time>2026-04-04T10:00:22.262Z</time></trkpt><trkpt lat="43.6249102" lon="12.077648"><ele>401.0</ele><time>2026-04-04T10:00:23.266Z</time></trkpt><trkpt lat="43.6246172" lon="12.0778648"><ele>401.0</ele><time>2026-04-04T10:00:24.261Z</time></trkpt><trkpt lat="43.6243249" lon="12.078085"><ele>406.0</ele><time>2026-04-04T10:00:25.266Z</time></trkpt><trkpt lat="43.6240269" lon="12.0782953"><ele>411.0</ele><time>2026-04-04T10:00:26.256Z</time></trkpt><trkpt lat="43.6237301" lon="12.078495"><ele>406.0</ele><time>2026-04-04T10:00:27.26Z</time></trkpt><trkpt lat="43.6234457" lon="12.0786769"><ele>401.0</ele><time>2026-04-04T10:00:28.254Z</time></trkpt><trkpt lat="43.6231777" lon="12.0788648"><ele>401.0</ele><time>2026-04-04T10:00:29.26Z</time></trkpt><trkpt lat="43.6229378" lon="12.0790223"><ele>401.0</ele><time>2026-04-04T10:00:30.268Z</time></trkpt><trkpt lat="43.6226895" lon="12.079169"><ele>403.0</ele><time>2026-04-04T10:00:31.259Z</time></trkpt><trkpt lat="43.6224461" lon="12.0793064"><ele>405.0</ele><time>2026-04-04T10:00:32.259Z</time></trkpt><trkpt lat="43.6221904" lon="12.0794271"><ele>404.0</ele><time>2026-04-04T10:00:33.252Z</time></trkpt><trkpt lat="43.6219297" lon="12.0795305"><ele>403.0</ele><time>2026-04-04T10:00:34.26Z</time></trkpt><trkpt lat="43.6216635" lon="12.0796048"><ele>403.0</ele><time>2026-04-04T10:00:35.25Z</time></trkpt><trkpt lat="43.6213839" lon="12.0796677"><ele>403.0</ele><time>2026-04-04T10:00:36.258Z</time></trkpt><trkpt lat="43.6211078" lon="12.0797243"><ele>403.5</ele><time>2026-04-04T10:00:37.265Z</time></trkpt><trkpt lat="43.6208278" lon="12.0797424"><ele>404.0</ele><time>2026-04-04T10:00:38.253Z</time></trkpt><trkpt lat="43.6205425" lon="12.0797397"><ele>404.0</ele><time>2026-04-04T10:00:39.252Z</time></trkpt><trkpt lat="43.6202531" lon="12.0797288"><ele>404.0</ele><time>2026-04-04T10:00:40.261Z</time></trkpt><trkpt lat="43.6199561" lon="12.0796954"><ele>404.0</ele><time>2026-04-04T10:00:41.261Z</time></trkpt><trkpt lat="43.6196538" lon="12.0796418"><ele>404.0</ele><time>2026-04-04T10:00:42.258Z</time></trkpt><trkpt lat="43.6193687" lon="12.0795845"><ele>404.0</ele><time>2026-04-04T10:00:43.266Z</time></trkpt><trkpt lat="43.6190894" lon="12.0795257"><ele>404.0</ele><time>2026-04-04T10:00:44.265Z</time></trkpt><trkpt lat="43.6188167" lon="12.0794619"><ele>406.0</ele><time>2026-04-04T10:00:45.258Z</time></trkpt><trkpt lat="43.618537" lon="12.0794023"><ele>408.0</ele><time>2026-04-04T10:00:46.256Z</time></trkpt><trkpt lat="43.6182442" lon="12.0793421"><ele>408.0</ele><time>2026-04-04T10:00:47.256Z</time></trkpt><trkpt lat="43.6179517" lon="12.0792828"><ele>408.0</ele><time>2026-04-04T10:00:48.268Z</time></trkpt><trkpt lat="43.6176703" lon="12.0792263"><ele>411.5</ele><time>2026-04-04T10:00:49.261Z</time></trkpt><trkpt lat="43.6174085" lon="12.0791724"><ele>415.0</ele><time>2026-04-04T10:00:50.257Z</time></trkpt><trkpt lat="43.6171518" lon="12.0791224"><ele>409.5</ele><time>2026-04-04T10:00:51.264Z</time></trkpt><trkpt lat="43.6168961" lon="12.0790677"><ele>404.0</ele><time>2026-04-04T10:00:52.267Z</time></trkpt><trkpt lat="43.6166356" lon="12.0790186"><ele>404.0</ele><time>2026-04-04T10:00:53.265Z</time></trkpt><trkpt lat="43.6163744" lon="12.0789703"><ele>404.0</ele><time>2026-04-04T10:00:54.265Z</time></trkpt><trkpt lat="43.6161117" lon="12.0789153"><ele>405.0</ele><time>2026-04-04T10:00:55.268Z</time></trkpt><trkpt lat="43.6158463" lon="12.0788605"><ele>406.0</ele><time>2026-04-04T10:00:56.267Z</time></trkpt><trkpt lat="43.6155837" lon="12.0788099"><ele>406.0</ele><time>2026-04-04T10:00:57.268Z</time></trkpt><trkpt lat="43.6153218" lon="12.0787607"><ele>406.0</ele><time>2026-04-04T10:00:58.269Z</time></trkpt><trkpt lat="43.6150571" lon="12.0787114"><ele>412.0</ele><time>2026-04-04T10:00:59.269Z</time></trkpt><trkpt lat="43.6147965" lon="12.0786584"><ele>418.0</ele><time>2026-04-04T10:01:00.277Z</time></trkpt><trkpt lat="43.6145436" lon="12.0786072"><ele>418.5</ele><time>2026-04-04T10:01:01.26Z</time></trkpt><trkpt lat="43.6142959" lon="12.078547"><ele>419.0</ele><time>2026-04-04T10:01:02.271Z</time></trkpt><trkpt lat="43.6140659" lon="12.0785006"><ele>419.0</ele><time>2026-04-04T10:01:03.265Z</time></trkpt><trkpt lat="43.6138326" lon="12.078458"><ele>419.0</ele><time>2026-04-04T10:01:04.267Z</time></trkpt><trkpt lat="43.6135976" lon="12.0784144"><ele>417.5</ele><time>2026-04-04T10:01:05.267Z</time></trkpt><trkpt lat="43.6133584" lon="12.0783732"><ele>416.0</ele><time>2026-04-04T10:01:06.269Z</time></trkpt><trkpt lat="43.6131251" lon="12.0783514"><ele>416.0</ele><time>2026-04-04T10:01:07.263Z</time></trkpt><trkpt lat="43.6128869" lon="12.0783461"><ele>416.0</ele><time>2026-04-04T10:01:08.259Z</time></trkpt><trkpt lat="43.6126409" lon="12.0783439"><ele>415.0</ele><time>2026-04-04T10:01:09.265Z</time></trkpt><trkpt lat="43.6123836" lon="12.0783625"><ele>414.0</ele><time>2026-04-04T10:01:10.265Z</time></trkpt><trkpt lat="43.6121236" lon="12.0783974"><ele>417.5</ele><time>2026-04-04T10:01:11.272Z</time></trkpt><trkpt lat="43.6118587" lon="12.078441"><ele>421.0</ele><time>2026-04-04T10:01:12.263Z</time></trkpt><trkpt lat="43.6116019" lon="12.0785088"><ele>421.0</ele><time>2026-04-04T10:01:13.264Z</time></trkpt><trkpt lat="43.61135" lon="12.0785904"><ele>421.0</ele><time>2026-04-04T10:01:14.266Z</time></trkpt><trkpt lat="43.6111078" lon="12.07868"><ele>424.5</ele><time>2026-04-04T10:01:15.258Z</time></trkpt><trkpt lat="43.6108792" lon="12.0787616"><ele>428.0</ele><time>2026-04-04T10:01:16.261Z</time></trkpt><trkpt lat="43.6106546" lon="12.0788609"><ele>428.0</ele><time>2026-04-04T10:01:17.266Z</time></trkpt><trkpt lat="43.6104289" lon="12.0789771"><ele>428.0</ele><time>2026-04-04T10:01:18.268Z</time></trkpt><trkpt lat="43.6102086" lon="12.0791051"><ele>431.0</ele><time>2026-04-04T10:01:19.269Z</time></trkpt><trkpt lat="43.6099944" lon="12.079238"><ele>434.0</ele><time>2026-04-04T10:01:20.267Z</time></trkpt><trkpt lat="43.6097855" lon="12.0793831"><ele>434.0</ele><time>2026-04-04T10:01:21.263Z</time></trkpt><trkpt lat="43.6095922" lon="12.0795355"><ele>434.0</ele><time>2026-04-04T10:01:22.261Z</time></trkpt><trkpt lat="43.6094047" lon="12.0797007"><ele>434.0</ele><time>2026-04-04T10:01:23.259Z</time></trkpt><trkpt lat="43.6092249" lon="12.0798724"><ele>436.3333333333333</ele><time>2026-04-04T10:01:24.263Z</time></trkpt><trkpt lat="43.6090451" lon="12.0800504"><ele>438.66666666666663</ele><time>2026-04-04T10:01:25.256Z</time></trkpt><trkpt lat="43.6088696" lon="12.0802411"><ele>441.0</ele><time>2026-04-04T10:01:26.267Z</time></trkpt><trkpt lat="43.6086915" lon="12.0804377"><ele>442.0</ele><time>2026-04-04T10:01:27.265Z</time></trkpt><trkpt lat="43.6085219" lon="12.0806487"><ele>443.0</ele><time>2026-04-04T10:01:28.261Z</time></trkpt><trkpt lat="43.6083606" lon="12.080865"><ele>443.0</ele><time>2026-04-04T10:01:29.273Z</time></trkpt><trkpt lat="43.6082052" lon="12.0810871"><ele>443.0</ele><time>2026-04-04T10:01:30.279Z</time></trkpt><trkpt lat="43.6080665" lon="12.0813044"><ele>443.0</ele><time>2026-04-04T10:01:31.257Z</time></trkpt><trkpt lat="43.6079425" lon="12.081518"><ele>441.3333333333333</ele><time>2026-04-04T10:01:32.263Z</time></trkpt><trkpt lat="43.6078248" lon="12.0817141"><ele>439.66666666666663</ele><time>2026-04-04T10:01:33.255Z</time></trkpt><trkpt lat="43.6077066" lon="12.0818998"><ele>438.0</ele><time>2026-04-04T10:01:34.256Z</time></trkpt><trkpt lat="43.6075966" lon="12.0820596"><ele>438.0</ele><time>2026-04-04T10:01:35.256Z</time></trkpt><trkpt lat="43.6075056" lon="12.0822086"><ele>438.0</ele><time>2026-04-04T10:01:36.259Z</time></trkpt><trkpt lat="43.607428" lon="12.0823292"><ele>438.0</ele><time>2026-04-04T10:01:37.263Z</time></trkpt><trkpt lat="43.6073363" lon="12.0824411"><ele>438.0</ele><time>2026-04-04T10:01:38.258Z</time></trkpt><trkpt lat="43.6072266" lon="12.0825316"><ele>439.75</ele><time>2026-04-04T10:01:39.26Z</time></trkpt><trkpt lat="43.6071072" lon="12.0825827"><ele>441.5</ele><time>2026-04-04T10:01:40.252Z</time></trkpt><trkpt lat="43.6069804" lon="12.0826007"><ele>443.25</ele><time>2026-04-04T10:01:41.265Z</time></trkpt><trkpt lat="43.6068535" lon="12.0826121"><ele>445.0</ele><time>2026-04-04T10:01:42.254Z</time></trkpt><trkpt lat="43.6067395" lon="12.0826333"><ele>445.6</ele><time>2026-04-04T10:01:43.258Z</time></trkpt><trkpt lat="43.6066332" lon="12.082653"><ele>446.2</ele><time>2026-04-04T10:01:44.265Z</time></trkpt><trkpt lat="43.6065348" lon="12.0826719"><ele>446.79999999999995</ele><time>2026-04-04T10:01:45.269Z</time></trkpt><trkpt lat="43.6064516" lon="12.0826865"><ele>447.4</ele><time>2026-04-04T10:01:46.266Z</time></trkpt><trkpt lat="43.6063793" lon="12.0826995"><ele>448.0</ele><time>2026-04-04T10:01:47.26Z</time></trkpt><trkpt lat="43.6062706" lon="12.0827178"><ele>448.00000000000006</ele><time>2026-04-04T10:01:49.269Z</time></trkpt><trkpt lat="43.6062018" lon="12.0827354"><ele>448.0</ele><time>2026-04-04T10:01:51.264Z</time></trkpt><trkpt lat="43.6061321" lon="12.0827327"><ele>448.0</ele><time>2026-04-04T10:01:54.261Z</time></trkpt><trkpt lat="43.6060384" lon="12.0827521"><ele>448.0</ele><time>2026-04-04T10:02:14.258Z</time></trkpt><trkpt lat="43.6059733" lon="12.0827686"><ele>448.00000000000006</ele><time>2026-04-04T10:02:15.252Z</time></trkpt><trkpt lat="43.6058845" lon="12.0827667"><ele>448.0</ele><time>2026-04-04T10:02:17.262Z</time></trkpt><trkpt lat="43.6058412" lon="12.0826982"><ele>448.00000000000006</ele><time>2026-04-04T10:02:20.27Z</time></trkpt><trkpt lat="43.6058898" lon="12.0828024"><ele>448.0</ele><time>2026-04-04T10:02:47.259Z</time></trkpt><trkpt lat="43.6059695" lon="12.0828104"><ele>448.0</ele><time>2026-04-04T10:02:48.257Z</time></trkpt><trkpt lat="43.6060668" lon="12.0828154"><ele>448.0</ele><time>2026-04-04T10:02:49.256Z</time></trkpt><trkpt lat="43.60616" lon="12.0828295"><ele>448.00000000000006</ele><time>2026-04-04T10:02:50.256Z</time></trkpt><trkpt lat="43.6062285" lon="12.0828538"><ele>448.0</ele><time>2026-04-04T10:02:51.255Z</time></trkpt><trkpt lat="43.606289" lon="12.0828914"><ele>448.0</ele><time>2026-04-04T10:02:52.264Z</time></trkpt><trkpt lat="43.6063399" lon="12.0829608"><ele>447.99999999999994</ele><time>2026-04-04T10:02:53.263Z</time></trkpt><trkpt lat="43.6063932" lon="12.0830545"><ele>447.99999999999994</ele><time>2026-04-04T10:02:54.257Z</time></trkpt><trkpt lat="43.6064527" lon="12.0831544"><ele>448.0</ele><time>2026-04-04T10:02:55.257Z</time></trkpt><trkpt lat="43.606504" lon="12.0832695"><ele>448.0</ele><time>2026-04-04T10:02:56.264Z</time></trkpt><trkpt lat="43.6065459" lon="12.0834147"><ele>448.25</ele><time>2026-04-04T10:02:57.258Z</time></trkpt><trkpt lat="43.6065695" lon="12.0835745"><ele>448.5</ele><time>2026-04-04T10:02:58.259Z</time></trkpt><trkpt lat="43.6065704" lon="12.0837472"><ele>448.75</ele><time>2026-04-04T10:02:59.264Z</time></trkpt><trkpt lat="43.60654" lon="12.0839218"><ele>449.0</ele><time>2026-04-04T10:03:00.266Z</time></trkpt><trkpt lat="43.606478" lon="12.0840965"><ele>448.3333333333333</ele><time>2026-04-04T10:03:01.258Z</time></trkpt><trkpt lat="43.6063803" lon="12.0842777"><ele>447.66666666666663</ele><time>2026-04-04T10:03:02.264Z</time></trkpt><trkpt lat="43.6062507" lon="12.0844742"><ele>447.0</ele><time>2026-04-04T10:03:03.264Z</time></trkpt><trkpt lat="43.6061095" lon="12.0846869"><ele>445.33333333333337</ele><time>2026-04-04T10:03:04.262Z</time></trkpt><trkpt lat="43.6059872" lon="12.0849142"><ele>443.6666666666667</ele><time>2026-04-04T10:03:05.257Z</time></trkpt><trkpt lat="43.6058479" lon="12.0851635"><ele>442.0</ele><time>2026-04-04T10:03:06.263Z</time></trkpt><trkpt lat="43.6057015" lon="12.085423"><ele>440.0</ele><time>2026-04-04T10:03:07.264Z</time></trkpt><trkpt lat="43.6055469" lon="12.085687"><ele>438.0</ele><time>2026-04-04T10:03:08.261Z</time></trkpt><trkpt lat="43.6053781" lon="12.0859715"><ele>434.0</ele><time>2026-04-04T10:03:09.261Z</time></trkpt><trkpt lat="43.6052119" lon="12.0862642"><ele>430.0</ele><time>2026-04-04T10:03:10.269Z</time></trkpt><trkpt lat="43.6050358" lon="12.0865636"><ele>434.5</ele><time>2026-04-04T10:03:11.266Z</time></trkpt><trkpt lat="43.6048676" lon="12.0868649"><ele>439.0</ele><time>2026-04-04T10:03:12.265Z</time></trkpt><trkpt lat="43.6046842" lon="12.0871569"><ele>436.5</ele><time>2026-04-04T10:03:13.268Z</time></trkpt><trkpt lat="43.6045002" lon="12.0874414"><ele>434.0</ele><time>2026-04-04T10:03:14.264Z</time></trkpt><trkpt lat="43.6043192" lon="12.0877262"><ele>434.0</ele><time>2026-04-04T10:03:15.262Z</time></trkpt><trkpt lat="43.6041514" lon="12.0880108"><ele>434.0</ele><time>2026-04-04T10:03:16.258Z</time></trkpt><trkpt lat="43.6039958" lon="12.0882838"><ele>439.5</ele><time>2026-04-04T10:03:17.263Z</time></trkpt><trkpt lat="43.6038429" lon="12.0885488"><ele>445.0</ele><time>2026-04-04T10:03:18.259Z</time></trkpt><trkpt lat="43.6036849" lon="12.0888183"><ele>446.0</ele><time>2026-04-04T10:03:19.257Z</time></trkpt><trkpt lat="43.603524" lon="12.08909"><ele>447.0</ele><time>2026-04-04T10:03:20.256Z</time></trkpt><trkpt lat="43.6033636" lon="12.0893623"><ele>450.0</ele><time>2026-04-04T10:03:21.251Z</time></trkpt><trkpt lat="43.6032053" lon="12.0896308"><ele>453.0</ele><time>2026-04-04T10:03:22.246Z</time></trkpt><trkpt lat="43.6030506" lon="12.0898972"><ele>457.5</ele><time>2026-04-04T10:03:23.254Z</time></trkpt><trkpt lat="43.602892" lon="12.0901663"><ele>462.0</ele><time>2026-04-04T10:03:24.238Z</time></trkpt><trkpt lat="43.6027331" lon="12.0904356"><ele>470.0</ele><time>2026-04-04T10:03:25.211Z</time></trkpt><trkpt lat="43.6025742" lon="12.0907049"><ele>478.0</ele><time>2026-04-04T10:03:26.205Z</time></trkpt><trkpt lat="43.6007427" lon="12.0938762"><ele>444.5</ele><time>2026-04-04T10:03:37.253Z</time></trkpt><trkpt lat="43.6005516" lon="12.0941049"><ele>411.0</ele><time>2026-04-04T10:03:38.246Z</time></trkpt><trkpt lat="43.6003708" lon="12.094332"><ele>407.0</ele><time>2026-04-04T10:03:39.252Z</time></trkpt><trkpt lat="43.6002051" lon="12.0945585"><ele>403.0</ele><time>2026-04-04T10:03:40.258Z</time></trkpt><trkpt lat="43.6000154" lon="12.094767"><ele>403.5</ele><time>2026-04-04T10:03:41.261Z</time></trkpt><trkpt lat="43.5997928" lon="12.0949546"><ele>404.0</ele><time>2026-04-04T10:03:42.266Z</time></trkpt><trkpt lat="43.5995888" lon="12.0951319"><ele>400.0</ele><time>2026-04-04T10:03:43.262Z</time></trkpt><trkpt lat="43.5993817" lon="12.0953107"><ele>396.0</ele><time>2026-04-04T10:03:44.261Z</time></trkpt><trkpt lat="43.5991725" lon="12.0954866"><ele>396.0</ele><time>2026-04-04T10:03:45.262Z</time></trkpt><trkpt lat="43.5989521" lon="12.0956486"><ele>396.0</ele><time>2026-04-04T10:03:46.265Z</time></trkpt><trkpt lat="43.5987243" lon="12.0957919"><ele>394.0</ele><time>2026-04-04T10:03:47.26Z</time></trkpt><trkpt lat="43.5985007" lon="12.0959184"><ele>392.0</ele><time>2026-04-04T10:03:48.268Z</time></trkpt><trkpt lat="43.5982743" lon="12.0960338"><ele>392.0</ele><time>2026-04-04T10:03:49.273Z</time></trkpt><trkpt lat="43.5980585" lon="12.0961446"><ele>392.0</ele><time>2026-04-04T10:03:50.266Z</time></trkpt><trkpt lat="43.5978423" lon="12.0962484"><ele>392.5</ele><time>2026-04-04T10:03:51.273Z</time></trkpt><trkpt lat="43.5976254" lon="12.0963551"><ele>393.0</ele><time>2026-04-04T10:03:52.273Z</time></trkpt><trkpt lat="43.5974027" lon="12.0964824"><ele>393.5</ele><time>2026-04-04T10:03:53.278Z</time></trkpt><trkpt lat="43.5971756" lon="12.0966192"><ele>394.0</ele><time>2026-04-04T10:03:54.272Z</time></trkpt><trkpt lat="43.5969236" lon="12.0967681"><ele>393.0</ele><time>2026-04-04T10:03:55.273Z</time></trkpt><trkpt lat="43.5966481" lon="12.0969138"><ele>392.0</ele><time>2026-04-04T10:03:56.272Z</time></trkpt><trkpt lat="43.5963714" lon="12.0970606"><ele>392.0</ele><time>2026-04-04T10:03:57.275Z</time></trkpt><trkpt lat="43.5961" lon="12.0971999"><ele>392.0</ele><time>2026-04-04T10:03:58.272Z</time></trkpt><trkpt lat="43.5958393" lon="12.0973325"><ele>392.5</ele><time>2026-04-04T10:03:59.272Z</time></trkpt><trkpt lat="43.5955905" lon="12.0974594"><ele>393.0</ele><time>2026-04-04T10:04:00.283Z</time></trkpt><trkpt lat="43.5953449" lon="12.0975977"><ele>394.5</ele><time>2026-04-04T10:04:01.276Z</time></trkpt><trkpt lat="43.595096" lon="12.097732"><ele>396.0</ele><time>2026-04-04T10:04:02.273Z</time></trkpt><trkpt lat="43.5948368" lon="12.0978615"><ele>396.0</ele><time>2026-04-04T10:04:03.269Z</time></trkpt><trkpt lat="43.5945769" lon="12.0979895"><ele>396.0</ele><time>2026-04-04T10:04:04.276Z</time></trkpt><trkpt lat="43.5943175" lon="12.0981112"><ele>396.5</ele><time>2026-04-04T10:04:05.272Z</time></trkpt><trkpt lat="43.5940574" lon="12.0982463"><ele>397.0</ele><time>2026-04-04T10:04:06.269Z</time></trkpt><trkpt lat="43.5938073" lon="12.0983956"><ele>395.5</ele><time>2026-04-04T10:04:07.263Z</time></trkpt><trkpt lat="43.593557" lon="12.0985572"><ele>394.0</ele><time>2026-04-04T10:04:08.267Z</time></trkpt><trkpt lat="43.5933246" lon="12.0987519"><ele>394.0</ele><time>2026-04-04T10:04:09.265Z</time></trkpt><trkpt lat="43.5930948" lon="12.0989617"><ele>394.0</ele><time>2026-04-04T10:04:10.272Z</time></trkpt><trkpt lat="43.5928746" lon="12.0991744"><ele>387.0</ele><time>2026-04-04T10:04:11.259Z</time></trkpt><trkpt lat="43.5926515" lon="12.0993993"><ele>380.0</ele><time>2026-04-04T10:04:12.265Z</time></trkpt><trkpt lat="43.5924287" lon="12.0996332"><ele>380.0</ele><time>2026-04-04T10:04:13.261Z</time></trkpt><trkpt lat="43.5922183" lon="12.0998877"><ele>380.0</ele><time>2026-04-04T10:04:14.268Z</time></trkpt><trkpt lat="43.5920246" lon="12.1001559"><ele>374.5</ele><time>2026-04-04T10:04:15.263Z</time></trkpt><trkpt lat="43.5918378" lon="12.1004285"><ele>369.0</ele><time>2026-04-04T10:04:16.269Z</time></trkpt><trkpt lat="43.5916536" lon="12.1006997"><ele>369.5</ele><time>2026-04-04T10:04:17.268Z</time></trkpt><trkpt lat="43.5914758" lon="12.1009718"><ele>370.0</ele><time>2026-04-04T10:04:18.266Z</time></trkpt><trkpt lat="43.5913057" lon="12.1012523"><ele>361.5</ele><time>2026-04-04T10:04:19.269Z</time></trkpt><trkpt lat="43.5911276" lon="12.1015295"><ele>353.0</ele><time>2026-04-04T10:04:20.267Z</time></trkpt><trkpt lat="43.5909508" lon="12.1018158"><ele>353.0</ele><time>2026-04-04T10:04:21.259Z</time></trkpt><trkpt lat="43.5907761" lon="12.1021069"><ele>353.0</ele><time>2026-04-04T10:04:22.273Z</time></trkpt><trkpt lat="43.5905963" lon="12.1023962"><ele>352.5</ele><time>2026-04-04T10:04:23.261Z</time></trkpt><trkpt lat="43.5904145" lon="12.1026739"><ele>352.0</ele><time>2026-04-04T10:04:24.267Z</time></trkpt><trkpt lat="43.5902379" lon="12.1029532"><ele>352.0</ele><time>2026-04-04T10:04:25.272Z</time></trkpt><trkpt lat="43.5900643" lon="12.1032276"><ele>352.0</ele><time>2026-04-04T10:04:26.263Z</time></trkpt><trkpt lat="43.5898879" lon="12.103509"><ele>354.0</ele><time>2026-04-04T10:04:27.267Z</time></trkpt><trkpt lat="43.5896964" lon="12.1038024"><ele>356.0</ele><time>2026-04-04T10:04:28.26Z</time></trkpt><trkpt lat="43.5894898" lon="12.1040944"><ele>356.0</ele><time>2026-04-04T10:04:29.284Z</time></trkpt><trkpt lat="43.5892675" lon="12.1043973"><ele>356.0</ele><time>2026-04-04T10:04:30.272Z</time></trkpt><trkpt lat="43.5890381" lon="12.1046978"><ele>354.5</ele><time>2026-04-04T10:04:31.263Z</time></trkpt><trkpt lat="43.5888046" lon="12.1049915"><ele>353.0</ele><time>2026-04-04T10:04:32.263Z</time></trkpt><trkpt lat="43.5885772" lon="12.1052798"><ele>353.0</ele><time>2026-04-04T10:04:33.268Z</time></trkpt><trkpt lat="43.5883616" lon="12.1055572"><ele>353.0</ele><time>2026-04-04T10:04:34.264Z</time></trkpt><trkpt lat="43.5881433" lon="12.1058383"><ele>355.0</ele><time>2026-04-04T10:04:35.261Z</time></trkpt><trkpt lat="43.5879265" lon="12.1061229"><ele>357.0</ele><time>2026-04-04T10:04:36.262Z</time></trkpt><trkpt lat="43.5877059" lon="12.1064045"><ele>354.5</ele><time>2026-04-04T10:04:37.268Z</time></trkpt><trkpt lat="43.5874904" lon="12.1066883"><ele>352.0</ele><time>2026-04-04T10:04:38.271Z</time></trkpt><trkpt lat="43.5872729" lon="12.1069668"><ele>352.0</ele><time>2026-04-04T10:04:39.269Z</time></trkpt><trkpt lat="43.5870557" lon="12.1072581"><ele>352.0</ele><time>2026-04-04T10:04:40.267Z</time></trkpt><trkpt lat="43.5868415" lon="12.1075512"><ele>347.0</ele><time>2026-04-04T10:04:41.264Z</time></trkpt><trkpt lat="43.5866276" lon="12.1078387"><ele>342.0</ele><time>2026-04-04T10:04:42.26Z</time></trkpt><trkpt lat="43.5864094" lon="12.1081183"><ele>341.5</ele><time>2026-04-04T10:04:43.26Z</time></trkpt><trkpt lat="43.5861997" lon="12.1083921"><ele>341.0</ele><time>2026-04-04T10:04:44.257Z</time></trkpt><trkpt lat="43.5859972" lon="12.1086669"><ele>338.5</ele><time>2026-04-04T10:04:45.259Z</time></trkpt><trkpt lat="43.5858006" lon="12.1089317"><ele>336.0</ele><time>2026-04-04T10:04:46.262Z</time></trkpt><trkpt lat="43.585612" lon="12.1091928"><ele>336.0</ele><time>2026-04-04T10:04:47.264Z</time></trkpt><trkpt lat="43.5854092" lon="12.1094581"><ele>336.0</ele><time>2026-04-04T10:04:48.261Z</time></trkpt><trkpt lat="43.5852003" lon="12.1097323"><ele>335.5</ele><time>2026-04-04T10:04:49.262Z</time></trkpt><trkpt lat="43.5849877" lon="12.1100114"><ele>335.0</ele><time>2026-04-04T10:04:50.266Z</time></trkpt><trkpt lat="43.5847756" lon="12.1102985"><ele>335.0</ele><time>2026-04-04T10:04:51.262Z</time></trkpt><trkpt lat="43.5845656" lon="12.1105839"><ele>335.0</ele><time>2026-04-04T10:04:52.266Z</time></trkpt><trkpt lat="43.5843539" lon="12.1108746"><ele>332.5</ele><time>2026-04-04T10:04:53.27Z</time></trkpt><trkpt lat="43.5841426" lon="12.1111624"><ele>330.0</ele><time>2026-04-04T10:04:54.263Z</time></trkpt><trkpt lat="43.5839236" lon="12.1114548"><ele>330.0</ele><time>2026-04-04T10:04:55.259Z</time></trkpt><trkpt lat="43.5837042" lon="12.1117423"><ele>330.0</ele><time>2026-04-04T10:04:56.266Z</time></trkpt><trkpt lat="43.583493" lon="12.1120198"><ele>327.0</ele><time>2026-04-04T10:04:57.263Z</time></trkpt><trkpt lat="43.5832797" lon="12.1123032"><ele>324.0</ele><time>2026-04-04T10:04:58.258Z</time></trkpt><trkpt lat="43.583075" lon="12.1125843"><ele>324.0</ele><time>2026-04-04T10:04:59.258Z</time></trkpt><trkpt lat="43.5828715" lon="12.1128597"><ele>324.0</ele><time>2026-04-04T10:05:00.266Z</time></trkpt><trkpt lat="43.5826589" lon="12.1131316"><ele>324.0</ele><time>2026-04-04T10:05:01.26Z</time></trkpt><trkpt lat="43.582446" lon="12.1134009"><ele>324.0</ele><time>2026-04-04T10:05:02.261Z</time></trkpt><trkpt lat="43.5822312" lon="12.1136729"><ele>324.0</ele><time>2026-04-04T10:05:03.261Z</time></trkpt><trkpt lat="43.5820191" lon="12.1139486"><ele>324.0</ele><time>2026-04-04T10:05:04.262Z</time></trkpt><trkpt lat="43.5818122" lon="12.1142275"><ele>324.5</ele><time>2026-04-04T10:05:05.258Z</time></trkpt><trkpt lat="43.5816087" lon="12.114507"><ele>325.0</ele><time>2026-04-04T10:05:06.259Z</time></trkpt><trkpt lat="43.5813994" lon="12.1147715"><ele>326.0</ele><time>2026-04-04T10:05:07.261Z</time></trkpt><trkpt lat="43.5811877" lon="12.115017"><ele>327.0</ele><time>2026-04-04T10:05:08.256Z</time></trkpt><trkpt lat="43.5809722" lon="12.1152476"><ele>324.0</ele><time>2026-04-04T10:05:09.254Z</time></trkpt><trkpt lat="43.5807398" lon="12.115459"><ele>321.0</ele><time>2026-04-04T10:05:10.26Z</time></trkpt><trkpt lat="43.5804973" lon="12.1156504"><ele>321.5</ele><time>2026-04-04T10:05:11.255Z</time></trkpt><trkpt lat="43.5802414" lon="12.1158316"><ele>322.0</ele><time>2026-04-04T10:05:12.257Z</time></trkpt><trkpt lat="43.5799811" lon="12.116012"><ele>322.0</ele><time>2026-04-04T10:05:13.256Z</time></trkpt><trkpt lat="43.579713" lon="12.1161657"><ele>322.0</ele><time>2026-04-04T10:05:14.255Z</time></trkpt><trkpt lat="43.5794429" lon="12.1163241"><ele>321.0</ele><time>2026-04-04T10:05:15.259Z</time></trkpt><trkpt lat="43.5791758" lon="12.1164777"><ele>320.0</ele><time>2026-04-04T10:05:16.257Z</time></trkpt><trkpt lat="43.5789047" lon="12.1166305"><ele>321.0</ele><time>2026-04-04T10:05:17.26Z</time></trkpt><trkpt lat="43.5786405" lon="12.1167933"><ele>322.0</ele><time>2026-04-04T10:05:18.257Z</time></trkpt><trkpt lat="43.5783703" lon="12.1169622"><ele>322.0</ele><time>2026-04-04T10:05:19.259Z</time></trkpt><trkpt lat="43.5780923" lon="12.1171297"><ele>322.0</ele><time>2026-04-04T10:05:20.258Z</time></trkpt><trkpt lat="43.5778119" lon="12.1173003"><ele>321.0</ele><time>2026-04-04T10:05:21.259Z</time></trkpt><trkpt lat="43.5775407" lon="12.117464"><ele>320.0</ele><time>2026-04-04T10:05:22.26Z</time></trkpt><trkpt lat="43.5772675" lon="12.1176321"><ele>319.5</ele><time>2026-04-04T10:05:23.255Z</time></trkpt><trkpt lat="43.5770176" lon="12.1177875"><ele>319.0</ele><time>2026-04-04T10:05:24.256Z</time></trkpt><trkpt lat="43.5767819" lon="12.1179253"><ele>319.0</ele><time>2026-04-04T10:05:25.258Z</time></trkpt><trkpt lat="43.5765611" lon="12.1180483"><ele>319.0</ele><time>2026-04-04T10:05:26.259Z</time></trkpt><trkpt lat="43.5763454" lon="12.118178"><ele>319.0</ele><time>2026-04-04T10:05:27.265Z</time></trkpt><trkpt lat="43.5761324" lon="12.1183021"><ele>319.0</ele><time>2026-04-04T10:05:28.261Z</time></trkpt><trkpt lat="43.5759096" lon="12.118434"><ele>319.0</ele><time>2026-04-04T10:05:29.26Z</time></trkpt><trkpt lat="43.5756669" lon="12.1185745"><ele>319.0</ele><time>2026-04-04T10:05:30.262Z</time></trkpt><trkpt lat="43.5754081" lon="12.1187302"><ele>318.0</ele><time>2026-04-04T10:05:31.254Z</time></trkpt><trkpt lat="43.5751387" lon="12.1188903"><ele>317.0</ele><time>2026-04-04T10:05:32.26Z</time></trkpt><trkpt lat="43.5748696" lon="12.1190535"><ele>317.5</ele><time>2026-04-04T10:05:33.261Z</time></trkpt><trkpt lat="43.5746083" lon="12.1192113"><ele>318.0</ele><time>2026-04-04T10:05:34.256Z</time></trkpt><trkpt lat="43.574339" lon="12.1193671"><ele>317.0</ele><time>2026-04-04T10:05:35.259Z</time></trkpt><trkpt lat="43.5740488" lon="12.1195326"><ele>316.0</ele><time>2026-04-04T10:05:36.262Z</time></trkpt><trkpt lat="43.5737513" lon="12.1197019"><ele>316.0</ele><time>2026-04-04T10:05:37.261Z</time></trkpt><trkpt lat="43.5734632" lon="12.1198612"><ele>316.0</ele><time>2026-04-04T10:05:38.26Z</time></trkpt><trkpt lat="43.5731877" lon="12.1200184"><ele>316.0</ele><time>2026-04-04T10:05:39.257Z</time></trkpt><trkpt lat="43.5729235" lon="12.1201827"><ele>316.0</ele><time>2026-04-04T10:05:40.256Z</time></trkpt><trkpt lat="43.5726542" lon="12.1203386"><ele>316.0</ele><time>2026-04-04T10:05:41.257Z</time></trkpt><trkpt lat="43.5723913" lon="12.1204918"><ele>316.0</ele><time>2026-04-04T10:05:42.262Z</time></trkpt><trkpt lat="43.5721233" lon="12.120651"><ele>315.5</ele><time>2026-04-04T10:05:43.256Z</time></trkpt><trkpt lat="43.5718584" lon="12.1208071"><ele>315.0</ele><time>2026-04-04T10:05:44.26Z</time></trkpt><trkpt lat="43.5715755" lon="12.1209705"><ele>315.0</ele><time>2026-04-04T10:05:45.258Z</time></trkpt><trkpt lat="43.5712996" lon="12.1211393"><ele>315.0</ele><time>2026-04-04T10:05:46.262Z</time></trkpt><trkpt lat="43.571026" lon="12.1213061"><ele>315.0</ele><time>2026-04-04T10:05:47.26Z</time></trkpt><trkpt lat="43.57075" lon="12.1214675"><ele>315.0</ele><time>2026-04-04T10:05:48.262Z</time></trkpt><trkpt lat="43.5704779" lon="12.1216271"><ele>315.0</ele><time>2026-04-04T10:05:49.261Z</time></trkpt><trkpt lat="43.5702142" lon="12.121785"><ele>315.0</ele><time>2026-04-04T10:05:50.261Z</time></trkpt><trkpt lat="43.5699473" lon="12.12194"><ele>315.0</ele><time>2026-04-04T10:05:51.259Z</time></trkpt><trkpt lat="43.5696887" lon="12.122101"><ele>315.0</ele><time>2026-04-04T10:05:52.26Z</time></trkpt><trkpt lat="43.5694264" lon="12.1222716"><ele>313.5</ele><time>2026-04-04T10:05:53.261Z</time></trkpt><trkpt lat="43.5691624" lon="12.1224484"><ele>312.0</ele><time>2026-04-04T10:05:54.263Z</time></trkpt><trkpt lat="43.5688975" lon="12.122641"><ele>311.5</ele><time>2026-04-04T10:05:55.262Z</time></trkpt><trkpt lat="43.5686287" lon="12.1228423"><ele>311.0</ele><time>2026-04-04T10:05:56.263Z</time></trkpt><trkpt lat="43.5683601" lon="12.1230494"><ele>311.0</ele><time>2026-04-04T10:05:57.265Z</time></trkpt><trkpt lat="43.5680879" lon="12.1232622"><ele>311.0</ele><time>2026-04-04T10:05:58.266Z</time></trkpt><trkpt lat="43.5678191" lon="12.1234815"><ele>310.5</ele><time>2026-04-04T10:05:59.262Z</time></trkpt><trkpt lat="43.5675551" lon="12.1237114"><ele>310.0</ele><time>2026-04-04T10:06:00.267Z</time></trkpt><trkpt lat="43.5673045" lon="12.1239368"><ele>310.0</ele><time>2026-04-04T10:06:01.254Z</time></trkpt><trkpt lat="43.5670707" lon="12.1241547"><ele>310.0</ele><time>2026-04-04T10:06:02.258Z</time></trkpt><trkpt lat="43.5668394" lon="12.1243792"><ele>309.5</ele><time>2026-04-04T10:06:03.255Z</time></trkpt><trkpt lat="43.5666042" lon="12.1246194"><ele>309.0</ele><time>2026-04-04T10:06:04.26Z</time></trkpt><trkpt lat="43.5663666" lon="12.1248613"><ele>307.5</ele><time>2026-04-04T10:06:05.269Z</time></trkpt><trkpt lat="43.5661347" lon="12.1251132"><ele>306.0</ele><time>2026-04-04T10:06:06.257Z</time></trkpt><trkpt lat="43.5659016" lon="12.1253694"><ele>306.0</ele><time>2026-04-04T10:06:07.258Z</time></trkpt><trkpt lat="43.5656737" lon="12.1256304"><ele>306.0</ele><time>2026-04-04T10:06:08.265Z</time></trkpt><trkpt lat="43.5654467" lon="12.125899"><ele>308.0</ele><time>2026-04-04T10:06:09.26Z</time></trkpt><trkpt lat="43.5652225" lon="12.1261756"><ele>310.0</ele><time>2026-04-04T10:06:10.264Z</time></trkpt><trkpt lat="43.5650007" lon="12.1264603"><ele>311.0</ele><time>2026-04-04T10:06:11.26Z</time></trkpt><trkpt lat="43.5647771" lon="12.1267503"><ele>312.0</ele><time>2026-04-04T10:06:12.261Z</time></trkpt><trkpt lat="43.5645612" lon="12.1270425"><ele>312.0</ele><time>2026-04-04T10:06:13.265Z</time></trkpt><trkpt lat="43.5643551" lon="12.1273418"><ele>312.0</ele><time>2026-04-04T10:06:14.26Z</time></trkpt><trkpt lat="43.5641471" lon="12.127637"><ele>312.0</ele><time>2026-04-04T10:06:15.263Z</time></trkpt><trkpt lat="43.5639427" lon="12.1279274"><ele>312.0</ele><time>2026-04-04T10:06:16.262Z</time></trkpt><trkpt lat="43.5637368" lon="12.1282172"><ele>311.0</ele><time>2026-04-04T10:06:17.264Z</time></trkpt><trkpt lat="43.563533" lon="12.1285019"><ele>310.0</ele><time>2026-04-04T10:06:18.26Z</time></trkpt><trkpt lat="43.5633376" lon="12.1287719"><ele>310.0</ele><time>2026-04-04T10:06:19.26Z</time></trkpt><trkpt lat="43.5631486" lon="12.1290302"><ele>310.0</ele><time>2026-04-04T10:06:20.263Z</time></trkpt><trkpt lat="43.5629618" lon="12.1292993"><ele>308.0</ele><time>2026-04-04T10:06:21.261Z</time></trkpt><trkpt lat="43.56277" lon="12.1295701"><ele>306.0</ele><time>2026-04-04T10:06:22.26Z</time></trkpt><trkpt lat="43.5625731" lon="12.1298484"><ele>306.5</ele><time>2026-04-04T10:06:23.263Z</time></trkpt><trkpt lat="43.5623683" lon="12.1301356"><ele>307.0</ele><time>2026-04-04T10:06:24.26Z</time></trkpt><trkpt lat="43.5621596" lon="12.1304242"><ele>306.5</ele><time>2026-04-04T10:06:25.265Z</time></trkpt><trkpt lat="43.561949" lon="12.1307131"><ele>306.0</ele><time>2026-04-04T10:06:26.264Z</time></trkpt><trkpt lat="43.5617425" lon="12.1310032"><ele>307.0</ele><time>2026-04-04T10:06:27.262Z</time></trkpt><trkpt lat="43.5615328" lon="12.1312953"><ele>308.0</ele><time>2026-04-04T10:06:28.266Z</time></trkpt><trkpt lat="43.5613267" lon="12.1315831"><ele>307.5</ele><time>2026-04-04T10:06:29.269Z</time></trkpt><trkpt lat="43.5611211" lon="12.1318764"><ele>307.0</ele><time>2026-04-04T10:06:30.267Z</time></trkpt><trkpt lat="43.5609117" lon="12.1321666"><ele>306.0</ele><time>2026-04-04T10:06:31.261Z</time></trkpt><trkpt lat="43.560708" lon="12.1324536"><ele>305.0</ele><time>2026-04-04T10:06:32.263Z</time></trkpt><trkpt lat="43.5605031" lon="12.1327356"><ele>304.5</ele><time>2026-04-04T10:06:33.259Z</time></trkpt><trkpt lat="43.5603002" lon="12.1330145"><ele>304.0</ele><time>2026-04-04T10:06:34.263Z</time></trkpt><trkpt lat="43.5601012" lon="12.1332953"><ele>305.5</ele><time>2026-04-04T10:06:35.262Z</time></trkpt><trkpt lat="43.5598992" lon="12.1335783"><ele>307.0</ele><time>2026-04-04T10:06:36.264Z</time></trkpt><trkpt lat="43.5596941" lon="12.1338714"><ele>307.5</ele><time>2026-04-04T10:06:37.258Z</time></trkpt><trkpt lat="43.5594764" lon="12.1341773"><ele>308.0</ele><time>2026-04-04T10:06:38.261Z</time></trkpt><trkpt lat="43.5592541" lon="12.1344926"><ele>308.0</ele><time>2026-04-04T10:06:39.261Z</time></trkpt><trkpt lat="43.5590288" lon="12.13481"><ele>308.0</ele><time>2026-04-04T10:06:40.262Z</time></trkpt><trkpt lat="43.558803" lon="12.1351329"><ele>307.5</ele><time>2026-04-04T10:06:41.265Z</time></trkpt><trkpt lat="43.5585708" lon="12.1354528"><ele>307.0</ele><time>2026-04-04T10:06:42.266Z</time></trkpt><trkpt lat="43.5583428" lon="12.135768"><ele>308.0</ele><time>2026-04-04T10:06:43.269Z</time></trkpt><trkpt lat="43.5581166" lon="12.1360822"><ele>309.0</ele><time>2026-04-04T10:06:44.265Z</time></trkpt><trkpt lat="43.5578968" lon="12.1363946"><ele>309.0</ele><time>2026-04-04T10:06:45.278Z</time></trkpt><trkpt lat="43.5576728" lon="12.1367015"><ele>309.0</ele><time>2026-04-04T10:06:46.27Z</time></trkpt><trkpt lat="43.5574535" lon="12.1370025"><ele>309.0</ele><time>2026-04-04T10:06:47.271Z</time></trkpt><trkpt lat="43.5572382" lon="12.1372859"><ele>309.0</ele><time>2026-04-04T10:06:48.269Z</time></trkpt><trkpt lat="43.5570252" lon="12.1375576"><ele>308.0</ele><time>2026-04-04T10:06:49.265Z</time></trkpt><trkpt lat="43.5568103" lon="12.1378369"><ele>307.0</ele><time>2026-04-04T10:06:50.29Z</time></trkpt><trkpt lat="43.5565987" lon="12.1381188"><ele>307.5</ele><time>2026-04-04T10:06:51.265Z</time></trkpt><trkpt lat="43.556395" lon="12.1384036"><ele>308.0</ele><time>2026-04-04T10:06:52.267Z</time></trkpt><trkpt lat="43.5561987" lon="12.1386758"><ele>308.0</ele><time>2026-04-04T10:06:53.261Z</time></trkpt><trkpt lat="43.5560116" lon="12.1389433"><ele>308.0</ele><time>2026-04-04T10:06:54.264Z</time></trkpt><trkpt lat="43.5558116" lon="12.1392128"><ele>309.0</ele><time>2026-04-04T10:06:55.27Z</time></trkpt><trkpt lat="43.5556138" lon="12.139487"><ele>310.0</ele><time>2026-04-04T10:06:56.273Z</time></trkpt><trkpt lat="43.5554187" lon="12.1397681"><ele>308.5</ele><time>2026-04-04T10:06:57.268Z</time></trkpt><trkpt lat="43.5552202" lon="12.1400492"><ele>307.0</ele><time>2026-04-04T10:06:58.276Z</time></trkpt><trkpt lat="43.5550218" lon="12.1403367"><ele>307.0</ele><time>2026-04-04T10:06:59.269Z</time></trkpt><trkpt lat="43.554822" lon="12.1406191"><ele>307.0</ele><time>2026-04-04T10:07:00.281Z</time></trkpt><trkpt lat="43.5546236" lon="12.1409073"><ele>308.0</ele><time>2026-04-04T10:07:01.263Z</time></trkpt><trkpt lat="43.5544175" lon="12.141194"><ele>309.0</ele><time>2026-04-04T10:07:02.267Z</time></trkpt><trkpt lat="43.5542059" lon="12.1414791"><ele>309.5</ele><time>2026-04-04T10:07:03.269Z</time></trkpt><trkpt lat="43.553991" lon="12.1417662"><ele>310.0</ele><time>2026-04-04T10:07:04.265Z</time></trkpt><trkpt lat="43.5537805" lon="12.1420566"><ele>309.0</ele><time>2026-04-04T10:07:05.267Z</time></trkpt><trkpt lat="43.553569" lon="12.1423487"><ele>308.0</ele><time>2026-04-04T10:07:06.264Z</time></trkpt><trkpt lat="43.5533594" lon="12.1426441"><ele>308.0</ele><time>2026-04-04T10:07:07.269Z</time></trkpt><trkpt lat="43.5531491" lon="12.142939"><ele>308.0</ele><time>2026-04-04T10:07:08.264Z</time></trkpt><trkpt lat="43.5529367" lon="12.1432356"><ele>308.0</ele><time>2026-04-04T10:07:09.285Z</time></trkpt><trkpt lat="43.5527249" lon="12.1435292"><ele>308.0</ele><time>2026-04-04T10:07:10.267Z</time></trkpt><trkpt lat="43.5525255" lon="12.1438105"><ele>308.0</ele><time>2026-04-04T10:07:11.266Z</time></trkpt><trkpt lat="43.5523415" lon="12.1440711"><ele>308.0</ele><time>2026-04-04T10:07:12.262Z</time></trkpt><trkpt lat="43.5521643" lon="12.1443114"><ele>307.0</ele><time>2026-04-04T10:07:13.265Z</time></trkpt><trkpt lat="43.551985" lon="12.1445648"><ele>306.0</ele><time>2026-04-04T10:07:14.268Z</time></trkpt><trkpt lat="43.5518" lon="12.1448286"><ele>307.0</ele><time>2026-04-04T10:07:15.269Z</time></trkpt><trkpt lat="43.5516094" lon="12.1450959"><ele>308.0</ele><time>2026-04-04T10:07:16.269Z</time></trkpt><trkpt lat="43.5514144" lon="12.1453606"><ele>308.0</ele><time>2026-04-04T10:07:17.269Z</time></trkpt><trkpt lat="43.551221" lon="12.1456214"><ele>308.0</ele><time>2026-04-04T10:07:18.27Z</time></trkpt><trkpt lat="43.5510359" lon="12.1458756"><ele>309.0</ele><time>2026-04-04T10:07:19.266Z</time></trkpt><trkpt lat="43.5508487" lon="12.1461332"><ele>310.0</ele><time>2026-04-04T10:07:20.267Z</time></trkpt><trkpt lat="43.5506614" lon="12.1464009"><ele>308.5</ele><time>2026-04-04T10:07:21.264Z</time></trkpt><trkpt lat="43.5504696" lon="12.1466758"><ele>307.0</ele><time>2026-04-04T10:07:22.263Z</time></trkpt><trkpt lat="43.550266" lon="12.1469581"><ele>307.0</ele><time>2026-04-04T10:07:23.267Z</time></trkpt><trkpt lat="43.5500658" lon="12.1472389"><ele>307.0</ele><time>2026-04-04T10:07:24.269Z</time></trkpt><trkpt lat="43.5498615" lon="12.147523"><ele>307.0</ele><time>2026-04-04T10:07:25.27Z</time></trkpt><trkpt lat="43.5496542" lon="12.1478007"><ele>307.0</ele><time>2026-04-04T10:07:26.269Z</time></trkpt><trkpt lat="43.5494517" lon="12.1480748"><ele>308.0</ele><time>2026-04-04T10:07:27.271Z</time></trkpt><trkpt lat="43.5492496" lon="12.1483513"><ele>309.0</ele><time>2026-04-04T10:07:28.271Z</time></trkpt><trkpt lat="43.5490505" lon="12.1486255"><ele>309.0</ele><time>2026-04-04T10:07:29.265Z</time></trkpt><trkpt lat="43.5488474" lon="12.1488969"><ele>309.0</ele><time>2026-04-04T10:07:30.279Z</time></trkpt><trkpt lat="43.5486431" lon="12.149165"><ele>307.5</ele><time>2026-04-04T10:07:31.281Z</time></trkpt><trkpt lat="43.5484343" lon="12.1494204"><ele>306.0</ele><time>2026-04-04T10:07:32.267Z</time></trkpt><trkpt lat="43.548222" lon="12.1496681"><ele>306.0</ele><time>2026-04-04T10:07:33.267Z</time></trkpt><trkpt lat="43.5480105" lon="12.1499176"><ele>306.0</ele><time>2026-04-04T10:07:34.266Z</time></trkpt><trkpt lat="43.5477927" lon="12.1501827"><ele>306.0</ele><time>2026-04-04T10:07:35.262Z</time></trkpt><trkpt lat="43.5475611" lon="12.1504585"><ele>306.0</ele><time>2026-04-04T10:07:36.264Z</time></trkpt><trkpt lat="43.5473114" lon="12.1507441"><ele>304.5</ele><time>2026-04-04T10:07:37.264Z</time></trkpt><trkpt lat="43.5470417" lon="12.1510255"><ele>303.0</ele><time>2026-04-04T10:07:38.276Z</time></trkpt><trkpt lat="43.5467669" lon="12.1513033"><ele>303.5</ele><time>2026-04-04T10:07:39.265Z</time></trkpt><trkpt lat="43.5464913" lon="12.1515802"><ele>304.0</ele><time>2026-04-04T10:07:40.264Z</time></trkpt><trkpt lat="43.5462222" lon="12.151828"><ele>304.0</ele><time>2026-04-04T10:07:41.261Z</time></trkpt><trkpt lat="43.5459602" lon="12.1520676"><ele>304.0</ele><time>2026-04-04T10:07:42.266Z</time></trkpt><trkpt lat="43.5457121" lon="12.1523007"><ele>303.5</ele><time>2026-04-04T10:07:43.267Z</time></trkpt><trkpt lat="43.545462" lon="12.152531"><ele>303.0</ele><time>2026-04-04T10:07:44.269Z</time></trkpt><trkpt lat="43.545224" lon="12.1527619"><ele>302.5</ele><time>2026-04-04T10:07:45.253Z</time></trkpt><trkpt lat="43.5449793" lon="12.1529995"><ele>302.0</ele><time>2026-04-04T10:07:46.266Z</time></trkpt><trkpt lat="43.5447363" lon="12.1532441"><ele>302.0</ele><time>2026-04-04T10:07:47.268Z</time></trkpt><trkpt lat="43.544492" lon="12.1534809"><ele>302.0</ele><time>2026-04-04T10:07:48.265Z</time></trkpt><trkpt lat="43.5442423" lon="12.1537084"><ele>302.0</ele><time>2026-04-04T10:07:49.273Z</time></trkpt><trkpt lat="43.5439815" lon="12.1539415"><ele>302.0</ele><time>2026-04-04T10:07:50.263Z</time></trkpt><trkpt lat="43.5437193" lon="12.1541819"><ele>302.0</ele><time>2026-04-04T10:07:51.266Z</time></trkpt><trkpt lat="43.543452" lon="12.1544278"><ele>302.0</ele><time>2026-04-04T10:07:52.262Z</time></trkpt><trkpt lat="43.5431926" lon="12.1546719"><ele>302.0</ele><time>2026-04-04T10:07:53.259Z</time></trkpt><trkpt lat="43.5429474" lon="12.1549058"><ele>302.0</ele><time>2026-04-04T10:07:54.261Z</time></trkpt><trkpt lat="43.5427145" lon="12.1551314"><ele>302.0</ele><time>2026-04-04T10:07:55.26Z</time></trkpt><trkpt lat="43.5424865" lon="12.1553591"><ele>302.0</ele><time>2026-04-04T10:07:56.264Z</time></trkpt><trkpt lat="43.5422603" lon="12.1555718"><ele>301.5</ele><time>2026-04-04T10:07:57.262Z</time></trkpt><trkpt lat="43.5420388" lon="12.1557923"><ele>301.0</ele><time>2026-04-04T10:07:58.267Z</time></trkpt><trkpt lat="43.5418121" lon="12.1560109"><ele>301.0</ele><time>2026-04-04T10:07:59.262Z</time></trkpt><trkpt lat="43.5415783" lon="12.1562326"><ele>301.0</ele><time>2026-04-04T10:08:00.27Z</time></trkpt><trkpt lat="43.5413407" lon="12.1564514"><ele>302.0</ele><time>2026-04-04T10:08:01.266Z</time></trkpt><trkpt lat="43.5411076" lon="12.1566721"><ele>303.0</ele><time>2026-04-04T10:08:02.26Z</time></trkpt><trkpt lat="43.5408813" lon="12.1568875"><ele>303.0</ele><time>2026-04-04T10:08:03.259Z</time></trkpt><trkpt lat="43.540666" lon="12.1570931"><ele>303.0</ele><time>2026-04-04T10:08:04.261Z</time></trkpt><trkpt lat="43.5404508" lon="12.1572968"><ele>301.5</ele><time>2026-04-04T10:08:05.262Z</time></trkpt><trkpt lat="43.5402428" lon="12.1575054"><ele>300.0</ele><time>2026-04-04T10:08:06.261Z</time></trkpt><trkpt lat="43.5400199" lon="12.1577112"><ele>300.0</ele><time>2026-04-04T10:08:07.26Z</time></trkpt><trkpt lat="43.5397988" lon="12.1579203"><ele>300.0</ele><time>2026-04-04T10:08:08.26Z</time></trkpt><trkpt lat="43.5395797" lon="12.158128"><ele>298.5</ele><time>2026-04-04T10:08:09.26Z</time></trkpt><trkpt lat="43.5393693" lon="12.1583322"><ele>297.0</ele><time>2026-04-04T10:08:10.261Z</time></trkpt><trkpt lat="43.5391555" lon="12.1585376"><ele>297.0</ele><time>2026-04-04T10:08:11.261Z</time></trkpt><trkpt lat="43.5389439" lon="12.1587442"><ele>297.0</ele><time>2026-04-04T10:08:12.26Z</time></trkpt><trkpt lat="43.5387362" lon="12.1589426"><ele>297.0</ele><time>2026-04-04T10:08:13.261Z</time></trkpt><trkpt lat="43.5385231" lon="12.1591493"><ele>297.0</ele><time>2026-04-04T10:08:14.261Z</time></trkpt><trkpt lat="43.538303" lon="12.159365"><ele>297.0</ele><time>2026-04-04T10:08:15.258Z</time></trkpt><trkpt lat="43.5380678" lon="12.1596087"><ele>297.0</ele><time>2026-04-04T10:08:16.258Z</time></trkpt><trkpt lat="43.5378278" lon="12.1598565"><ele>297.5</ele><time>2026-04-04T10:08:17.261Z</time></trkpt><trkpt lat="43.5375736" lon="12.1601169"><ele>298.0</ele><time>2026-04-04T10:08:18.261Z</time></trkpt><trkpt lat="43.5373185" lon="12.1603786"><ele>298.0</ele><time>2026-04-04T10:08:19.27Z</time></trkpt><trkpt lat="43.5370595" lon="12.1606443"><ele>298.0</ele><time>2026-04-04T10:08:20.262Z</time></trkpt><trkpt lat="43.5367957" lon="12.1609104"><ele>297.5</ele><time>2026-04-04T10:08:21.26Z</time></trkpt><trkpt lat="43.5365421" lon="12.1611668"><ele>297.0</ele><time>2026-04-04T10:08:22.26Z</time></trkpt><trkpt lat="43.5362971" lon="12.1614192"><ele>296.5</ele><time>2026-04-04T10:08:23.261Z</time></trkpt><trkpt lat="43.5360618" lon="12.1616624"><ele>296.0</ele><time>2026-04-04T10:08:24.271Z</time></trkpt><trkpt lat="43.535827" lon="12.1619094"><ele>296.0</ele><time>2026-04-04T10:08:25.262Z</time></trkpt><trkpt lat="43.535603" lon="12.1621612"><ele>296.0</ele><time>2026-04-04T10:08:26.261Z</time></trkpt><trkpt lat="43.5353728" lon="12.162418"><ele>297.0</ele><time>2026-04-04T10:08:27.262Z</time></trkpt><trkpt lat="43.535142" lon="12.1626791"><ele>298.0</ele><time>2026-04-04T10:08:28.262Z</time></trkpt><trkpt lat="43.534912" lon="12.1629341"><ele>298.0</ele><time>2026-04-04T10:08:29.262Z</time></trkpt><trkpt lat="43.5346808" lon="12.1631808"><ele>298.0</ele><time>2026-04-04T10:08:30.274Z</time></trkpt><trkpt lat="43.5344519" lon="12.1634256"><ele>296.5</ele><time>2026-04-04T10:08:31.263Z</time></trkpt><trkpt lat="43.5342245" lon="12.1636691"><ele>295.0</ele><time>2026-04-04T10:08:32.271Z</time></trkpt><trkpt lat="43.5339977" lon="12.1639156"><ele>294.5</ele><time>2026-04-04T10:08:33.262Z</time></trkpt><trkpt lat="43.5337775" lon="12.1641569"><ele>294.0</ele><time>2026-04-04T10:08:34.261Z</time></trkpt><trkpt lat="43.5335584" lon="12.164394"><ele>294.0</ele><time>2026-04-04T10:08:35.261Z</time></trkpt><trkpt lat="43.5333482" lon="12.1646239"><ele>294.0</ele><time>2026-04-04T10:08:36.262Z</time></trkpt><trkpt lat="43.5331353" lon="12.164851"><ele>294.0</ele><time>2026-04-04T10:08:37.264Z</time></trkpt><trkpt lat="43.532922" lon="12.1650788"><ele>294.0</ele><time>2026-04-04T10:08:38.262Z</time></trkpt><trkpt lat="43.5327146" lon="12.1653067"><ele>294.0</ele><time>2026-04-04T10:08:39.263Z</time></trkpt><trkpt lat="43.5325111" lon="12.165536"><ele>294.0</ele><time>2026-04-04T10:08:40.262Z</time></trkpt><trkpt lat="43.532301" lon="12.1657653"><ele>294.5</ele><time>2026-04-04T10:08:41.261Z</time></trkpt><trkpt lat="43.5320832" lon="12.1660026"><ele>295.0</ele><time>2026-04-04T10:08:42.261Z</time></trkpt><trkpt lat="43.531865" lon="12.166239"><ele>295.0</ele><time>2026-04-04T10:08:43.26Z</time></trkpt><trkpt lat="43.5316474" lon="12.1664778"><ele>295.0</ele><time>2026-04-04T10:08:44.26Z</time></trkpt><trkpt lat="43.5314282" lon="12.1667108"><ele>294.5</ele><time>2026-04-04T10:08:45.263Z</time></trkpt><trkpt lat="43.5312185" lon="12.166934"><ele>294.0</ele><time>2026-04-04T10:08:46.264Z</time></trkpt><trkpt lat="43.5310155" lon="12.1671573"><ele>295.0</ele><time>2026-04-04T10:08:47.264Z</time></trkpt><trkpt lat="43.5308102" lon="12.1673852"><ele>296.0</ele><time>2026-04-04T10:08:48.263Z</time></trkpt><trkpt lat="43.5305972" lon="12.1676109"><ele>296.5</ele><time>2026-04-04T10:08:49.264Z</time></trkpt><trkpt lat="43.5303812" lon="12.1678352"><ele>297.0</ele><time>2026-04-04T10:08:50.258Z</time></trkpt><trkpt lat="43.5301703" lon="12.1680609"><ele>297.0</ele><time>2026-04-04T10:08:51.261Z</time></trkpt><trkpt lat="43.5299617" lon="12.1682924"><ele>297.0</ele><time>2026-04-04T10:08:52.262Z</time></trkpt><trkpt lat="43.5297487" lon="12.1685235"><ele>296.0</ele><time>2026-04-04T10:08:53.26Z</time></trkpt><trkpt lat="43.5295435" lon="12.168753"><ele>295.0</ele><time>2026-04-04T10:08:54.262Z</time></trkpt><trkpt lat="43.5293384" lon="12.1689718"><ele>295.0</ele><time>2026-04-04T10:08:55.262Z</time></trkpt><trkpt lat="43.5291339" lon="12.1691881"><ele>295.0</ele><time>2026-04-04T10:08:56.262Z</time></trkpt><trkpt lat="43.5289349" lon="12.1694039"><ele>295.0</ele><time>2026-04-04T10:08:57.264Z</time></trkpt><trkpt lat="43.528736" lon="12.1696179"><ele>295.0</ele><time>2026-04-04T10:08:58.264Z</time></trkpt><trkpt lat="43.5285474" lon="12.1698188"><ele>293.5</ele><time>2026-04-04T10:08:59.261Z</time></trkpt><trkpt lat="43.5283668" lon="12.1700154"><ele>292.0</ele><time>2026-04-04T10:09:00.27Z</time></trkpt><trkpt lat="43.5281807" lon="12.170227"><ele>292.0</ele><time>2026-04-04T10:09:01.26Z</time></trkpt><trkpt lat="43.5279811" lon="12.1704452"><ele>292.0</ele><time>2026-04-04T10:09:02.26Z</time></trkpt><trkpt lat="43.5277724" lon="12.1706695"><ele>292.0</ele><time>2026-04-04T10:09:03.267Z</time></trkpt><trkpt lat="43.5275569" lon="12.1709102"><ele>292.0</ele><time>2026-04-04T10:09:04.259Z</time></trkpt><trkpt lat="43.5273378" lon="12.1711695"><ele>292.0</ele><time>2026-04-04T10:09:05.287Z</time></trkpt><trkpt lat="43.5271148" lon="12.1714328"><ele>292.0</ele><time>2026-04-04T10:09:06.263Z</time></trkpt><trkpt lat="43.5268787" lon="12.1716924"><ele>292.5</ele><time>2026-04-04T10:09:07.263Z</time></trkpt><trkpt lat="43.5266355" lon="12.171959"><ele>293.0</ele><time>2026-04-04T10:09:08.263Z</time></trkpt><trkpt lat="43.5263894" lon="12.1722214"><ele>292.0</ele><time>2026-04-04T10:09:09.263Z</time></trkpt><trkpt lat="43.5261408" lon="12.1724756"><ele>291.0</ele><time>2026-04-04T10:09:10.285Z</time></trkpt><trkpt lat="43.5258928" lon="12.1727341"><ele>291.0</ele><time>2026-04-04T10:09:11.264Z</time></trkpt><trkpt lat="43.5256472" lon="12.172981"><ele>291.0</ele><time>2026-04-04T10:09:12.264Z</time></trkpt><trkpt lat="43.5253991" lon="12.1732257"><ele>291.5</ele><time>2026-04-04T10:09:13.265Z</time></trkpt><trkpt lat="43.5251536" lon="12.1734761"><ele>292.0</ele><time>2026-04-04T10:09:14.262Z</time></trkpt><trkpt lat="43.5249021" lon="12.1737084"><ele>292.0</ele><time>2026-04-04T10:09:15.262Z</time></trkpt><trkpt lat="43.5246553" lon="12.1739226"><ele>292.0</ele><time>2026-04-04T10:09:16.26Z</time></trkpt><trkpt lat="43.524419" lon="12.1741463"><ele>292.0</ele><time>2026-04-04T10:09:17.262Z</time></trkpt><trkpt lat="43.5241787" lon="12.1743669"><ele>292.0</ele><time>2026-04-04T10:09:18.261Z</time></trkpt><trkpt lat="43.5239463" lon="12.1745867"><ele>292.0</ele><time>2026-04-04T10:09:19.263Z</time></trkpt><trkpt lat="43.5237199" lon="12.1748065"><ele>292.0</ele><time>2026-04-04T10:09:20.261Z</time></trkpt><trkpt lat="43.5234866" lon="12.1750269"><ele>292.5</ele><time>2026-04-04T10:09:21.262Z</time></trkpt><trkpt lat="43.5232665" lon="12.1752335"><ele>293.0</ele><time>2026-04-04T10:09:22.265Z</time></trkpt><trkpt lat="43.5230513" lon="12.1754405"><ele>293.0</ele><time>2026-04-04T10:09:23.26Z</time></trkpt><trkpt lat="43.5228395" lon="12.1756406"><ele>293.0</ele><time>2026-04-04T10:09:24.261Z</time></trkpt><trkpt lat="43.5226268" lon="12.1758391"><ele>293.0</ele><time>2026-04-04T10:09:25.264Z</time></trkpt><trkpt lat="43.5224118" lon="12.1760348"><ele>293.0</ele><time>2026-04-04T10:09:26.261Z</time></trkpt><trkpt lat="43.5221968" lon="12.176237"><ele>292.0</ele><time>2026-04-04T10:09:27.264Z</time></trkpt><trkpt lat="43.5219779" lon="12.176434"><ele>291.0</ele><time>2026-04-04T10:09:28.263Z</time></trkpt><trkpt lat="43.5217528" lon="12.1766322"><ele>291.0</ele><time>2026-04-04T10:09:29.262Z</time></trkpt><trkpt lat="43.5215282" lon="12.1768316"><ele>291.0</ele><time>2026-04-04T10:09:30.285Z</time></trkpt><trkpt lat="43.5213049" lon="12.1770294"><ele>291.0</ele><time>2026-04-04T10:09:31.262Z</time></trkpt><trkpt lat="43.521088" lon="12.1772267"><ele>291.0</ele><time>2026-04-04T10:09:32.26Z</time></trkpt><trkpt lat="43.5208868" lon="12.1774118"><ele>291.5</ele><time>2026-04-04T10:09:33.26Z</time></trkpt><trkpt lat="43.5206995" lon="12.1775915"><ele>292.0</ele><time>2026-04-04T10:09:34.267Z</time></trkpt><trkpt lat="43.5205045" lon="12.1777657"><ele>291.5</ele><time>2026-04-04T10:09:35.26Z</time></trkpt><trkpt lat="43.5203176" lon="12.1779386"><ele>291.0</ele><time>2026-04-04T10:09:36.264Z</time></trkpt><trkpt lat="43.5201272" lon="12.1781149"><ele>292.5</ele><time>2026-04-04T10:09:37.261Z</time></trkpt><trkpt lat="43.519937" lon="12.1782912"><ele>294.0</ele><time>2026-04-04T10:09:38.26Z</time></trkpt><trkpt lat="43.5197421" lon="12.1784804"><ele>292.5</ele><time>2026-04-04T10:09:39.26Z</time></trkpt><trkpt lat="43.5195451" lon="12.178677"><ele>291.0</ele><time>2026-04-04T10:09:40.261Z</time></trkpt><trkpt lat="43.519345" lon="12.178872"><ele>291.0</ele><time>2026-04-04T10:09:41.26Z</time></trkpt><trkpt lat="43.5191479" lon="12.1790624"><ele>291.0</ele><time>2026-04-04T10:09:42.263Z</time></trkpt><trkpt lat="43.5189499" lon="12.1792575"><ele>291.0</ele><time>2026-04-04T10:09:43.263Z</time></trkpt><trkpt lat="43.5187469" lon="12.1794478"><ele>291.0</ele><time>2026-04-04T10:09:44.261Z</time></trkpt><trkpt lat="43.5185371" lon="12.1796466"><ele>291.5</ele><time>2026-04-04T10:09:45.259Z</time></trkpt><trkpt lat="43.5183085" lon="12.1798736"><ele>292.0</ele><time>2026-04-04T10:09:46.262Z</time></trkpt><trkpt lat="43.5180663" lon="12.1801246"><ele>293.0</ele><time>2026-04-04T10:09:47.268Z</time></trkpt><trkpt lat="43.5178085" lon="12.1803708"><ele>294.0</ele><time>2026-04-04T10:09:48.269Z</time></trkpt><trkpt lat="43.5175453" lon="12.1806173"><ele>294.0</ele><time>2026-04-04T10:09:49.271Z</time></trkpt><trkpt lat="43.5172732" lon="12.1808592"><ele>294.0</ele><time>2026-04-04T10:09:50.268Z</time></trkpt><trkpt lat="43.5170134" lon="12.1811053"><ele>294.0</ele><time>2026-04-04T10:09:51.265Z</time></trkpt><trkpt lat="43.5167712" lon="12.1813434"><ele>294.0</ele><time>2026-04-04T10:09:52.264Z</time></trkpt><trkpt lat="43.5165412" lon="12.1815559"><ele>294.0</ele><time>2026-04-04T10:09:53.266Z</time></trkpt><trkpt lat="43.5163184" lon="12.1817737"><ele>294.0</ele><time>2026-04-04T10:09:54.266Z</time></trkpt><trkpt lat="43.5160892" lon="12.1819869"><ele>294.0</ele><time>2026-04-04T10:09:55.265Z</time></trkpt><trkpt lat="43.5158647" lon="12.1822098"><ele>294.0</ele><time>2026-04-04T10:09:56.265Z</time></trkpt><trkpt lat="43.5156388" lon="12.1824265"><ele>294.0</ele><time>2026-04-04T10:09:57.268Z</time></trkpt><trkpt lat="43.5154075" lon="12.1826421"><ele>294.0</ele><time>2026-04-04T10:09:58.265Z</time></trkpt><trkpt lat="43.5151729" lon="12.1828609"><ele>293.5</ele><time>2026-04-04T10:09:59.268Z</time></trkpt><trkpt lat="43.5149377" lon="12.1830824"><ele>293.0</ele><time>2026-04-04T10:10:00.279Z</time></trkpt><trkpt lat="43.5146993" lon="12.1833019"><ele>294.0</ele><time>2026-04-04T10:10:01.27Z</time></trkpt><trkpt lat="43.5144531" lon="12.1835247"><ele>295.0</ele><time>2026-04-04T10:10:02.266Z</time></trkpt><trkpt lat="43.5142066" lon="12.1837515"><ele>295.0</ele><time>2026-04-04T10:10:03.267Z</time></trkpt><trkpt lat="43.5139588" lon="12.1839845"><ele>295.0</ele><time>2026-04-04T10:10:04.265Z</time></trkpt><trkpt lat="43.5137156" lon="12.1842108"><ele>295.5</ele><time>2026-04-04T10:10:05.272Z</time></trkpt><trkpt lat="43.51348" lon="12.1844425"><ele>296.0</ele><time>2026-04-04T10:10:06.263Z</time></trkpt><trkpt lat="43.5132393" lon="12.1846674"><ele>296.5</ele><time>2026-04-04T10:10:07.266Z</time></trkpt><trkpt lat="43.5129903" lon="12.1848886"><ele>297.0</ele><time>2026-04-04T10:10:08.265Z</time></trkpt><trkpt lat="43.5127292" lon="12.1851116"><ele>296.0</ele><time>2026-04-04T10:10:09.262Z</time></trkpt><trkpt lat="43.5124669" lon="12.1853355"><ele>295.0</ele><time>2026-04-04T10:10:10.265Z</time></trkpt><trkpt lat="43.5121965" lon="12.1855716"><ele>295.0</ele><time>2026-04-04T10:10:11.267Z</time></trkpt><trkpt lat="43.5119352" lon="12.185799"><ele>295.0</ele><time>2026-04-04T10:10:12.263Z</time></trkpt><trkpt lat="43.5116811" lon="12.1860148"><ele>295.0</ele><time>2026-04-04T10:10:13.287Z</time></trkpt><trkpt lat="43.511429" lon="12.1862335"><ele>295.0</ele><time>2026-04-04T10:10:14.271Z</time></trkpt><trkpt lat="43.5111767" lon="12.1864591"><ele>293.5</ele><time>2026-04-04T10:10:15.27Z</time></trkpt><trkpt lat="43.5109238" lon="12.1866846"><ele>292.0</ele><time>2026-04-04T10:10:16.271Z</time></trkpt><trkpt lat="43.5106633" lon="12.1869102"><ele>293.0</ele><time>2026-04-04T10:10:17.265Z</time></trkpt><trkpt lat="43.5103964" lon="12.187134"><ele>294.0</ele><time>2026-04-04T10:10:18.265Z</time></trkpt><trkpt lat="43.5101358" lon="12.1873522"><ele>295.0</ele><time>2026-04-04T10:10:19.266Z</time></trkpt><trkpt lat="43.5098775" lon="12.1875734"><ele>296.0</ele><time>2026-04-04T10:10:20.263Z</time></trkpt><trkpt lat="43.5096199" lon="12.1877911"><ele>295.0</ele><time>2026-04-04T10:10:21.265Z</time></trkpt><trkpt lat="43.5093657" lon="12.1880134"><ele>294.0</ele><time>2026-04-04T10:10:22.266Z</time></trkpt><trkpt lat="43.5091113" lon="12.1882359"><ele>294.0</ele><time>2026-04-04T10:10:23.264Z</time></trkpt><trkpt lat="43.5088525" lon="12.1884514"><ele>294.0</ele><time>2026-04-04T10:10:24.264Z</time></trkpt><trkpt lat="43.5085949" lon="12.1886725"><ele>294.0</ele><time>2026-04-04T10:10:25.265Z</time></trkpt><trkpt lat="43.5083411" lon="12.1888963"><ele>294.0</ele><time>2026-04-04T10:10:26.264Z</time></trkpt><trkpt lat="43.5080823" lon="12.1891273"><ele>294.0</ele><time>2026-04-04T10:10:27.267Z</time></trkpt><trkpt lat="43.5078255" lon="12.1893579"><ele>294.0</ele><time>2026-04-04T10:10:28.266Z</time></trkpt><trkpt lat="43.5075635" lon="12.1895817"><ele>294.0</ele><time>2026-04-04T10:10:29.264Z</time></trkpt><trkpt lat="43.5073038" lon="12.1898026"><ele>294.0</ele><time>2026-04-04T10:10:30.269Z</time></trkpt><trkpt lat="43.5070408" lon="12.1900298"><ele>294.0</ele><time>2026-04-04T10:10:31.262Z</time></trkpt><trkpt lat="43.5067773" lon="12.1902494"><ele>294.0</ele><time>2026-04-04T10:10:32.266Z</time></trkpt><trkpt lat="43.5065216" lon="12.1904713"><ele>295.0</ele><time>2026-04-04T10:10:33.263Z</time></trkpt><trkpt lat="43.5062682" lon="12.190693"><ele>296.0</ele><time>2026-04-04T10:10:34.265Z</time></trkpt><trkpt lat="43.5060127" lon="12.1909256"><ele>296.0</ele><time>2026-04-04T10:10:35.267Z</time></trkpt><trkpt lat="43.5057587" lon="12.1911511"><ele>296.0</ele><time>2026-04-04T10:10:36.274Z</time></trkpt><trkpt lat="43.5055076" lon="12.1913689"><ele>295.5</ele><time>2026-04-04T10:10:37.276Z</time></trkpt><trkpt lat="43.5052581" lon="12.1915834"><ele>295.0</ele><time>2026-04-04T10:10:38.266Z</time></trkpt><trkpt lat="43.5050078" lon="12.1917943"><ele>295.0</ele><time>2026-04-04T10:10:39.264Z</time></trkpt><trkpt lat="43.5047598" lon="12.192004"><ele>295.0</ele><time>2026-04-04T10:10:40.264Z</time></trkpt><trkpt lat="43.5045104" lon="12.1922156"><ele>294.5</ele><time>2026-04-04T10:10:41.264Z</time></trkpt><trkpt lat="43.5042665" lon="12.1924306"><ele>294.0</ele><time>2026-04-04T10:10:42.264Z</time></trkpt><trkpt lat="43.5040152" lon="12.1926525"><ele>294.0</ele><time>2026-04-04T10:10:43.269Z</time></trkpt><trkpt lat="43.5037673" lon="12.1928699"><ele>294.0</ele><time>2026-04-04T10:10:44.273Z</time></trkpt><trkpt lat="43.503513" lon="12.1930871"><ele>294.0</ele><time>2026-04-04T10:10:45.27Z</time></trkpt><trkpt lat="43.5032624" lon="12.1932968"><ele>294.0</ele><time>2026-04-04T10:10:46.274Z</time></trkpt><trkpt lat="43.5030116" lon="12.1935108"><ele>293.5</ele><time>2026-04-04T10:10:47.273Z</time></trkpt><trkpt lat="43.5027603" lon="12.193727"><ele>293.0</ele><time>2026-04-04T10:10:48.274Z</time></trkpt><trkpt lat="43.5025141" lon="12.1939464"><ele>293.5</ele><time>2026-04-04T10:10:49.267Z</time></trkpt><trkpt lat="43.5022774" lon="12.1941601"><ele>294.0</ele><time>2026-04-04T10:10:50.272Z</time></trkpt><trkpt lat="43.5020375" lon="12.1943782"><ele>294.0</ele><time>2026-04-04T10:10:51.275Z</time></trkpt><trkpt lat="43.5018001" lon="12.1945955"><ele>294.0</ele><time>2026-04-04T10:10:52.273Z</time></trkpt><trkpt lat="43.5015693" lon="12.1948175"><ele>293.5</ele><time>2026-04-04T10:10:53.273Z</time></trkpt><trkpt lat="43.5013395" lon="12.1950388"><ele>293.0</ele><time>2026-04-04T10:10:54.271Z</time></trkpt><trkpt lat="43.5011116" lon="12.1952653"><ele>293.0</ele><time>2026-04-04T10:10:55.265Z</time></trkpt><trkpt lat="43.5008925" lon="12.1954927"><ele>293.0</ele><time>2026-04-04T10:10:56.275Z</time></trkpt><trkpt lat="43.5006654" lon="12.1957245"><ele>293.0</ele><time>2026-04-04T10:10:57.275Z</time></trkpt><trkpt lat="43.5004304" lon="12.1959783"><ele>293.0</ele><time>2026-04-04T10:10:58.274Z</time></trkpt><trkpt lat="43.50019" lon="12.1962353"><ele>292.5</ele><time>2026-04-04T10:10:59.273Z</time></trkpt><trkpt lat="43.4999396" lon="12.1965"><ele>292.0</ele><time>2026-04-04T10:11:00.28Z</time></trkpt><trkpt lat="43.4996887" lon="12.1967677"><ele>291.5</ele><time>2026-04-04T10:11:01.264Z</time></trkpt><trkpt lat="43.4994489" lon="12.19704"><ele>291.0</ele><time>2026-04-04T10:11:02.277Z</time></trkpt><trkpt lat="43.4992043" lon="12.1973113"><ele>291.0</ele><time>2026-04-04T10:11:03.274Z</time></trkpt><trkpt lat="43.4989618" lon="12.1975694"><ele>291.0</ele><time>2026-04-04T10:11:04.272Z</time></trkpt><trkpt lat="43.4987279" lon="12.1978132"><ele>290.5</ele><time>2026-04-04T10:11:05.274Z</time></trkpt><trkpt lat="43.4985011" lon="12.198057"><ele>290.0</ele><time>2026-04-04T10:11:06.274Z</time></trkpt><trkpt lat="43.498277" lon="12.1982994"><ele>290.5</ele><time>2026-04-04T10:11:07.294Z</time></trkpt><trkpt lat="43.4980502" lon="12.1985389"><ele>291.0</ele><time>2026-04-04T10:11:08.279Z</time></trkpt><trkpt lat="43.4978214" lon="12.1987786"><ele>291.0</ele><time>2026-04-04T10:11:09.271Z</time></trkpt><trkpt lat="43.4975978" lon="12.1990155"><ele>291.0</ele><time>2026-04-04T10:11:10.28Z</time></trkpt><trkpt lat="43.4973784" lon="12.1992548"><ele>291.0</ele><time>2026-04-04T10:11:11.276Z</time></trkpt><trkpt lat="43.4971652" lon="12.1994951"><ele>291.0</ele><time>2026-04-04T10:11:12.274Z</time></trkpt><trkpt lat="43.4969516" lon="12.199724"><ele>290.5</ele><time>2026-04-04T10:11:13.272Z</time></trkpt><trkpt lat="43.4967328" lon="12.1999505"><ele>290.0</ele><time>2026-04-04T10:11:14.272Z</time></trkpt><trkpt lat="43.496512" lon="12.2001853"><ele>290.0</ele><time>2026-04-04T10:11:15.274Z</time></trkpt><trkpt lat="43.4962882" lon="12.2004221"><ele>290.0</ele><time>2026-04-04T10:11:16.27Z</time></trkpt><trkpt lat="43.4960667" lon="12.2006592"><ele>290.0</ele><time>2026-04-04T10:11:17.27Z</time></trkpt><trkpt lat="43.495839" lon="12.2009"><ele>290.0</ele><time>2026-04-04T10:11:18.275Z</time></trkpt><trkpt lat="43.4956047" lon="12.2011412"><ele>290.0</ele><time>2026-04-04T10:11:19.274Z</time></trkpt><trkpt lat="43.4953669" lon="12.2013742"><ele>290.0</ele><time>2026-04-04T10:11:20.273Z</time></trkpt><trkpt lat="43.4951322" lon="12.2015977"><ele>290.0</ele><time>2026-04-04T10:11:21.275Z</time></trkpt><trkpt lat="43.4948956" lon="12.20181"><ele>290.0</ele><time>2026-04-04T10:11:22.277Z</time></trkpt><trkpt lat="43.4946561" lon="12.20203"><ele>290.0</ele><time>2026-04-04T10:11:23.272Z</time></trkpt><trkpt lat="43.4944132" lon="12.2022648"><ele>290.0</ele><time>2026-04-04T10:11:24.277Z</time></trkpt><trkpt lat="43.4941682" lon="12.2024984"><ele>290.0</ele><time>2026-04-04T10:11:25.266Z</time></trkpt><trkpt lat="43.4939189" lon="12.2027371"><ele>290.0</ele><time>2026-04-04T10:11:26.271Z</time></trkpt><trkpt lat="43.4936626" lon="12.2029799"><ele>290.0</ele><time>2026-04-04T10:11:27.272Z</time></trkpt><trkpt lat="43.4934065" lon="12.203221"><ele>290.0</ele><time>2026-04-04T10:11:28.268Z</time></trkpt><trkpt lat="43.4931515" lon="12.2034736"><ele>289.5</ele><time>2026-04-04T10:11:29.267Z</time></trkpt><trkpt lat="43.4928948" lon="12.203727"><ele>289.0</ele><time>2026-04-04T10:11:30.272Z</time></trkpt><trkpt lat="43.4926376" lon="12.203983"><ele>289.5</ele><time>2026-04-04T10:11:31.268Z</time></trkpt><trkpt lat="43.4923776" lon="12.2042379"><ele>290.0</ele><time>2026-04-04T10:11:32.264Z</time></trkpt><trkpt lat="43.4921176" lon="12.2044888"><ele>289.5</ele><time>2026-04-04T10:11:33.263Z</time></trkpt><trkpt lat="43.4918578" lon="12.2047422"><ele>289.0</ele><time>2026-04-04T10:11:34.266Z</time></trkpt><trkpt lat="43.4915902" lon="12.2049914"><ele>288.5</ele><time>2026-04-04T10:11:35.264Z</time></trkpt><trkpt lat="43.4913283" lon="12.2052274"><ele>288.0</ele><time>2026-04-04T10:11:36.267Z</time></trkpt><trkpt lat="43.491072" lon="12.2054521"><ele>289.0</ele><time>2026-04-04T10:11:37.273Z</time></trkpt><trkpt lat="43.4908163" lon="12.2056774"><ele>290.0</ele><time>2026-04-04T10:11:38.265Z</time></trkpt><trkpt lat="43.4905699" lon="12.2059122"><ele>289.0</ele><time>2026-04-04T10:11:39.27Z</time></trkpt><trkpt lat="43.4903152" lon="12.2061513"><ele>288.0</ele><time>2026-04-04T10:11:40.266Z</time></trkpt><trkpt lat="43.4900602" lon="12.2063925"><ele>288.5</ele><time>2026-04-04T10:11:41.267Z</time></trkpt><trkpt lat="43.489805" lon="12.2066401"><ele>289.0</ele><time>2026-04-04T10:11:42.269Z</time></trkpt><trkpt lat="43.4895606" lon="12.2068876"><ele>288.5</ele><time>2026-04-04T10:11:43.267Z</time></trkpt><trkpt lat="43.4893185" lon="12.2071306"><ele>288.0</ele><time>2026-04-04T10:11:44.265Z</time></trkpt><trkpt lat="43.4890784" lon="12.2073776"><ele>288.0</ele><time>2026-04-04T10:11:45.269Z</time></trkpt><trkpt lat="43.4888351" lon="12.2076225"><ele>288.0</ele><time>2026-04-04T10:11:46.265Z</time></trkpt><trkpt lat="43.4885902" lon="12.2078715"><ele>287.5</ele><time>2026-04-04T10:11:47.267Z</time></trkpt><trkpt lat="43.4883476" lon="12.2081298"><ele>287.0</ele><time>2026-04-04T10:11:48.268Z</time></trkpt><trkpt lat="43.4881059" lon="12.2084011"><ele>285.5</ele><time>2026-04-04T10:11:49.266Z</time></trkpt><trkpt lat="43.4878651" lon="12.2086754"><ele>284.0</ele><time>2026-04-04T10:11:50.267Z</time></trkpt><trkpt lat="43.4876201" lon="12.2089515"><ele>285.0</ele><time>2026-04-04T10:11:51.266Z</time></trkpt><trkpt lat="43.4873756" lon="12.2092287"><ele>286.0</ele><time>2026-04-04T10:11:52.268Z</time></trkpt><trkpt lat="43.487137" lon="12.2095044"><ele>286.0</ele><time>2026-04-04T10:11:53.267Z</time></trkpt><trkpt lat="43.4868987" lon="12.2097722"><ele>286.0</ele><time>2026-04-04T10:11:54.266Z</time></trkpt><trkpt lat="43.4866557" lon="12.2100396"><ele>286.5</ele><time>2026-04-04T10:11:55.263Z</time></trkpt><trkpt lat="43.4864212" lon="12.2103023"><ele>287.0</ele><time>2026-04-04T10:11:56.267Z</time></trkpt><trkpt lat="43.4861884" lon="12.2105633"><ele>285.5</ele><time>2026-04-04T10:11:57.268Z</time></trkpt><trkpt lat="43.4859599" lon="12.2108308"><ele>284.0</ele><time>2026-04-04T10:11:58.267Z</time></trkpt><trkpt lat="43.4857255" lon="12.2110948"><ele>284.0</ele><time>2026-04-04T10:11:59.268Z</time></trkpt><trkpt lat="43.4854882" lon="12.2113616"><ele>284.0</ele><time>2026-04-04T10:12:00.271Z</time></trkpt><trkpt lat="43.4852658" lon="12.2116136"><ele>284.5</ele><time>2026-04-04T10:12:01.262Z</time></trkpt><trkpt lat="43.4850523" lon="12.2118634"><ele>285.0</ele><time>2026-04-04T10:12:02.266Z</time></trkpt><trkpt lat="43.4848352" lon="12.2121202"><ele>285.5</ele><time>2026-04-04T10:12:03.263Z</time></trkpt><trkpt lat="43.4846062" lon="12.2123899"><ele>286.0</ele><time>2026-04-04T10:12:04.268Z</time></trkpt><trkpt lat="43.4843721" lon="12.2126564"><ele>286.0</ele><time>2026-04-04T10:12:05.267Z</time></trkpt><trkpt lat="43.4841374" lon="12.212917"><ele>286.0</ele><time>2026-04-04T10:12:06.264Z</time></trkpt><trkpt lat="43.4839038" lon="12.2131762"><ele>285.0</ele><time>2026-04-04T10:12:07.268Z</time></trkpt><trkpt lat="43.4836715" lon="12.2134371"><ele>284.0</ele><time>2026-04-04T10:12:08.273Z</time></trkpt><trkpt lat="43.4834433" lon="12.2136947"><ele>284.0</ele><time>2026-04-04T10:12:09.267Z</time></trkpt><trkpt lat="43.4832161" lon="12.2139474"><ele>284.0</ele><time>2026-04-04T10:12:10.272Z</time></trkpt><trkpt lat="43.4829845" lon="12.2142057"><ele>283.0</ele><time>2026-04-04T10:12:11.273Z</time></trkpt><trkpt lat="43.4827542" lon="12.2144648"><ele>282.0</ele><time>2026-04-04T10:12:12.279Z</time></trkpt><trkpt lat="43.4825112" lon="12.2147102"><ele>282.5</ele><time>2026-04-04T10:12:13.261Z</time></trkpt><trkpt lat="43.4822702" lon="12.2149465"><ele>283.0</ele><time>2026-04-04T10:12:14.271Z</time></trkpt><trkpt lat="43.4820189" lon="12.2151678"><ele>283.0</ele><time>2026-04-04T10:12:15.266Z</time></trkpt><trkpt lat="43.481768" lon="12.2153955"><ele>283.0</ele><time>2026-04-04T10:12:16.266Z</time></trkpt><trkpt lat="43.4815173" lon="12.2156162"><ele>282.0</ele><time>2026-04-04T10:12:17.266Z</time></trkpt><trkpt lat="43.4812647" lon="12.2158241"><ele>281.0</ele><time>2026-04-04T10:12:18.267Z</time></trkpt><trkpt lat="43.4810167" lon="12.2160352"><ele>281.0</ele><time>2026-04-04T10:12:19.265Z</time></trkpt><trkpt lat="43.480762" lon="12.2162397"><ele>281.0</ele><time>2026-04-04T10:12:20.268Z</time></trkpt><trkpt lat="43.4805097" lon="12.2164483"><ele>281.5</ele><time>2026-04-04T10:12:21.266Z</time></trkpt><trkpt lat="43.480259" lon="12.2166568"><ele>282.0</ele><time>2026-04-04T10:12:22.267Z</time></trkpt><trkpt lat="43.4800144" lon="12.2168594"><ele>282.0</ele><time>2026-04-04T10:12:23.26Z</time></trkpt><trkpt lat="43.4797867" lon="12.2170489"><ele>282.0</ele><time>2026-04-04T10:12:24.264Z</time></trkpt><trkpt lat="43.4795794" lon="12.2172199"><ele>282.0</ele><time>2026-04-04T10:12:25.264Z</time></trkpt><trkpt lat="43.4793778" lon="12.2173876"><ele>282.0</ele><time>2026-04-04T10:12:26.265Z</time></trkpt><trkpt lat="43.479169" lon="12.2175591"><ele>282.0</ele><time>2026-04-04T10:12:27.266Z</time></trkpt><trkpt lat="43.478956" lon="12.217744"><ele>282.0</ele><time>2026-04-04T10:12:28.264Z</time></trkpt><trkpt lat="43.4787389" lon="12.2179269"><ele>281.5</ele><time>2026-04-04T10:12:29.266Z</time></trkpt><trkpt lat="43.4785191" lon="12.2181117"><ele>281.0</ele><time>2026-04-04T10:12:30.278Z</time></trkpt><trkpt lat="43.4782938" lon="12.2183089"><ele>281.0</ele><time>2026-04-04T10:12:31.272Z</time></trkpt><trkpt lat="43.4780668" lon="12.218505"><ele>281.0</ele><time>2026-04-04T10:12:32.272Z</time></trkpt><trkpt lat="43.477838" lon="12.2186931"><ele>280.0</ele><time>2026-04-04T10:12:33.272Z</time></trkpt><trkpt lat="43.4776063" lon="12.218881"><ele>279.0</ele><time>2026-04-04T10:12:34.275Z</time></trkpt><trkpt lat="43.4773785" lon="12.2190718"><ele>279.5</ele><time>2026-04-04T10:12:35.272Z</time></trkpt><trkpt lat="43.4771477" lon="12.219264"><ele>280.0</ele><time>2026-04-04T10:12:36.27Z</time></trkpt><trkpt lat="43.4769158" lon="12.2194671"><ele>280.0</ele><time>2026-04-04T10:12:37.265Z</time></trkpt><trkpt lat="43.4766806" lon="12.2196705"><ele>280.0</ele><time>2026-04-04T10:12:38.265Z</time></trkpt><trkpt lat="43.4764484" lon="12.2198821"><ele>280.5</ele><time>2026-04-04T10:12:39.27Z</time></trkpt><trkpt lat="43.4762134" lon="12.2200945"><ele>281.0</ele><time>2026-04-04T10:12:40.264Z</time></trkpt><trkpt lat="43.4759765" lon="12.2203062"><ele>281.0</ele><time>2026-04-04T10:12:41.264Z</time></trkpt><trkpt lat="43.4757455" lon="12.2205256"><ele>281.0</ele><time>2026-04-04T10:12:42.264Z</time></trkpt><trkpt lat="43.4755102" lon="12.2207453"><ele>281.5</ele><time>2026-04-04T10:12:43.263Z</time></trkpt><trkpt lat="43.4752775" lon="12.2209547"><ele>282.0</ele><time>2026-04-04T10:12:44.267Z</time></trkpt><trkpt lat="43.4750397" lon="12.2211676"><ele>282.0</ele><time>2026-04-04T10:12:45.263Z</time></trkpt><trkpt lat="43.4748067" lon="12.2213783"><ele>282.0</ele><time>2026-04-04T10:12:46.263Z</time></trkpt><trkpt lat="43.4745763" lon="12.2215848"><ele>281.0</ele><time>2026-04-04T10:12:47.265Z</time></trkpt><trkpt lat="43.474354" lon="12.2217854"><ele>280.0</ele><time>2026-04-04T10:12:48.265Z</time></trkpt><trkpt lat="43.4741334" lon="12.2219827"><ele>280.0</ele><time>2026-04-04T10:12:49.269Z</time></trkpt><trkpt lat="43.4739145" lon="12.2221795"><ele>280.0</ele><time>2026-04-04T10:12:50.264Z</time></trkpt><trkpt lat="43.4736868" lon="12.2223762"><ele>281.0</ele><time>2026-04-04T10:12:51.262Z</time></trkpt><trkpt lat="43.47346" lon="12.2225792"><ele>282.0</ele><time>2026-04-04T10:12:52.262Z</time></trkpt><trkpt lat="43.4732372" lon="12.22278"><ele>282.0</ele><time>2026-04-04T10:12:53.255Z</time></trkpt><trkpt lat="43.4730111" lon="12.2229842"><ele>282.0</ele><time>2026-04-04T10:12:54.262Z</time></trkpt><trkpt lat="43.472785" lon="12.223189"><ele>281.5</ele><time>2026-04-04T10:12:55.264Z</time></trkpt><trkpt lat="43.4725594" lon="12.2233933"><ele>281.0</ele><time>2026-04-04T10:12:56.26Z</time></trkpt><trkpt lat="43.4723296" lon="12.2235993"><ele>280.5</ele><time>2026-04-04T10:12:57.261Z</time></trkpt><trkpt lat="43.4720985" lon="12.2238108"><ele>280.0</ele><time>2026-04-04T10:12:58.26Z</time></trkpt><trkpt lat="43.4718538" lon="12.2240395"><ele>280.0</ele><time>2026-04-04T10:12:59.257Z</time></trkpt><trkpt lat="43.4716028" lon="12.2242805"><ele>280.0</ele><time>2026-04-04T10:13:00.268Z</time></trkpt><trkpt lat="43.4713472" lon="12.2245319"><ele>279.5</ele><time>2026-04-04T10:13:01.262Z</time></trkpt><trkpt lat="43.4710764" lon="12.224776"><ele>279.0</ele><time>2026-04-04T10:13:02.265Z</time></trkpt><trkpt lat="43.4708094" lon="12.2250222"><ele>279.0</ele><time>2026-04-04T10:13:03.265Z</time></trkpt><trkpt lat="43.4705351" lon="12.225265"><ele>279.0</ele><time>2026-04-04T10:13:04.263Z</time></trkpt><trkpt lat="43.4702653" lon="12.2255097"><ele>280.0</ele><time>2026-04-04T10:13:05.262Z</time></trkpt><trkpt lat="43.4700008" lon="12.2257414"><ele>281.0</ele><time>2026-04-04T10:13:06.266Z</time></trkpt><trkpt lat="43.4697364" lon="12.2259649"><ele>281.5</ele><time>2026-04-04T10:13:07.266Z</time></trkpt><trkpt lat="43.4694756" lon="12.2261819"><ele>282.0</ele><time>2026-04-04T10:13:08.26Z</time></trkpt><trkpt lat="43.4692224" lon="12.2263847"><ele>282.5</ele><time>2026-04-04T10:13:09.261Z</time></trkpt><trkpt lat="43.4689756" lon="12.2265642"><ele>283.0</ele><time>2026-04-04T10:13:10.27Z</time></trkpt><trkpt lat="43.4687267" lon="12.2267353"><ele>283.5</ele><time>2026-04-04T10:13:11.265Z</time></trkpt><trkpt lat="43.4684664" lon="12.2268983"><ele>284.0</ele><time>2026-04-04T10:13:12.264Z</time></trkpt><trkpt lat="43.4682035" lon="12.2270468"><ele>282.5</ele><time>2026-04-04T10:13:13.264Z</time></trkpt><trkpt lat="43.4679375" lon="12.2271719"><ele>281.0</ele><time>2026-04-04T10:13:14.262Z</time></trkpt><trkpt lat="43.4676716" lon="12.2272877"><ele>281.5</ele><time>2026-04-04T10:13:15.259Z</time></trkpt><trkpt lat="43.4673957" lon="12.2273772"><ele>282.0</ele><time>2026-04-04T10:13:16.261Z</time></trkpt><trkpt lat="43.4671232" lon="12.2274508"><ele>282.5</ele><time>2026-04-04T10:13:17.268Z</time></trkpt><trkpt lat="43.4668517" lon="12.2275025"><ele>283.0</ele><time>2026-04-04T10:13:18.263Z</time></trkpt><trkpt lat="43.4665839" lon="12.2275367"><ele>283.0</ele><time>2026-04-04T10:13:19.264Z</time></trkpt><trkpt lat="43.4663116" lon="12.2275431"><ele>283.0</ele><time>2026-04-04T10:13:20.264Z</time></trkpt><trkpt lat="43.4660429" lon="12.2275319"><ele>283.0</ele><time>2026-04-04T10:13:21.263Z</time></trkpt><trkpt lat="43.46576" lon="12.2275083"><ele>283.0</ele><time>2026-04-04T10:13:22.262Z</time></trkpt><trkpt lat="43.4654627" lon="12.2274676"><ele>283.0</ele><time>2026-04-04T10:13:23.261Z</time></trkpt><trkpt lat="43.4651593" lon="12.2274211"><ele>283.0</ele><time>2026-04-04T10:13:24.26Z</time></trkpt><trkpt lat="43.4648431" lon="12.2273575"><ele>281.5</ele><time>2026-04-04T10:13:25.261Z</time></trkpt><trkpt lat="43.4645004" lon="12.2272809"><ele>280.0</ele><time>2026-04-04T10:13:26.263Z</time></trkpt><trkpt lat="43.4641555" lon="12.2272026"><ele>280.0</ele><time>2026-04-04T10:13:27.267Z</time></trkpt><trkpt lat="43.4638149" lon="12.2271294"><ele>280.0</ele><time>2026-04-04T10:13:28.263Z</time></trkpt><trkpt lat="43.4634922" lon="12.2270591"><ele>281.5</ele><time>2026-04-04T10:13:29.262Z</time></trkpt><trkpt lat="43.4632046" lon="12.2269986"><ele>283.0</ele><time>2026-04-04T10:13:30.267Z</time></trkpt><trkpt lat="43.4629268" lon="12.2269417"><ele>288.0</ele><time>2026-04-04T10:13:31.26Z</time></trkpt><trkpt lat="43.4626471" lon="12.226877"><ele>293.0</ele><time>2026-04-04T10:13:32.265Z</time></trkpt><trkpt lat="43.4623591" lon="12.2268072"><ele>297.5</ele><time>2026-04-04T10:13:33.265Z</time></trkpt><trkpt lat="43.4620733" lon="12.2267438"><ele>302.0</ele><time>2026-04-04T10:13:34.265Z</time></trkpt><trkpt lat="43.4617793" lon="12.2266774"><ele>302.0</ele><time>2026-04-04T10:13:35.262Z</time></trkpt><trkpt lat="43.461476" lon="12.2266143"><ele>302.0</ele><time>2026-04-04T10:13:36.26Z</time></trkpt><trkpt lat="43.4611733" lon="12.2265587"><ele>302.5</ele><time>2026-04-04T10:13:37.261Z</time></trkpt><trkpt lat="43.4608801" lon="12.2265021"><ele>303.0</ele><time>2026-04-04T10:13:38.264Z</time></trkpt><trkpt lat="43.4605935" lon="12.226444"><ele>309.5</ele><time>2026-04-04T10:13:39.264Z</time></trkpt><trkpt lat="43.4603228" lon="12.2264049"><ele>316.0</ele><time>2026-04-04T10:13:40.257Z</time></trkpt><trkpt lat="43.4600568" lon="12.22639"><ele>316.0</ele><time>2026-04-04T10:13:41.267Z</time></trkpt><trkpt lat="43.4597785" lon="12.2263842"><ele>316.0</ele><time>2026-04-04T10:13:42.262Z</time></trkpt><trkpt lat="43.4595079" lon="12.2264"><ele>319.0</ele><time>2026-04-04T10:13:43.26Z</time></trkpt><trkpt lat="43.4592329" lon="12.226417"><ele>322.0</ele><time>2026-04-04T10:13:44.262Z</time></trkpt><trkpt lat="43.4589666" lon="12.2264453"><ele>314.5</ele><time>2026-04-04T10:13:45.262Z</time></trkpt><trkpt lat="43.4586951" lon="12.2265014"><ele>307.0</ele><time>2026-04-04T10:13:46.261Z</time></trkpt><trkpt lat="43.4584167" lon="12.2265887"><ele>307.0</ele><time>2026-04-04T10:13:47.264Z</time></trkpt><trkpt lat="43.4581482" lon="12.2266987"><ele>307.0</ele><time>2026-04-04T10:13:48.264Z</time></trkpt><trkpt lat="43.457888" lon="12.2268217"><ele>309.0</ele><time>2026-04-04T10:13:49.257Z</time></trkpt><trkpt lat="43.4576326" lon="12.2269667"><ele>311.0</ele><time>2026-04-04T10:13:50.257Z</time></trkpt><trkpt lat="43.4573777" lon="12.2271261"><ele>311.0</ele><time>2026-04-04T10:13:51.254Z</time></trkpt><trkpt lat="43.4571233" lon="12.2273046"><ele>311.0</ele><time>2026-04-04T10:13:52.255Z</time></trkpt><trkpt lat="43.4568751" lon="12.2275039"><ele>310.5</ele><time>2026-04-04T10:13:53.256Z</time></trkpt><trkpt lat="43.4566285" lon="12.2277246"><ele>310.0</ele><time>2026-04-04T10:13:54.258Z</time></trkpt><trkpt lat="43.4563845" lon="12.2279545"><ele>308.0</ele><time>2026-04-04T10:13:55.256Z</time></trkpt><trkpt lat="43.4561485" lon="12.2282131"><ele>306.0</ele><time>2026-04-04T10:13:56.256Z</time></trkpt><trkpt lat="43.4559206" lon="12.2284895"><ele>306.0</ele><time>2026-04-04T10:13:57.252Z</time></trkpt><trkpt lat="43.4556918" lon="12.228784"><ele>306.0</ele><time>2026-04-04T10:13:58.251Z</time></trkpt><trkpt lat="43.4554563" lon="12.2290839"><ele>305.5</ele><time>2026-04-04T10:13:59.254Z</time></trkpt><trkpt lat="43.4552113" lon="12.229392"><ele>305.0</ele><time>2026-04-04T10:14:00.261Z</time></trkpt><trkpt lat="43.4549664" lon="12.2296928"><ele>301.5</ele><time>2026-04-04T10:14:01.258Z</time></trkpt><trkpt lat="43.4547214" lon="12.2299988"><ele>298.0</ele><time>2026-04-04T10:14:02.254Z</time></trkpt><trkpt lat="43.4544662" lon="12.2303064"><ele>299.5</ele><time>2026-04-04T10:14:03.255Z</time></trkpt><trkpt lat="43.4542187" lon="12.2306141"><ele>301.0</ele><time>2026-04-04T10:14:04.255Z</time></trkpt><trkpt lat="43.4539677" lon="12.2309162"><ele>301.0</ele><time>2026-04-04T10:14:05.255Z</time></trkpt><trkpt lat="43.4537176" lon="12.2312159"><ele>301.0</ele><time>2026-04-04T10:14:06.257Z</time></trkpt><trkpt lat="43.453474" lon="12.231518"><ele>301.0</ele><time>2026-04-04T10:14:07.256Z</time></trkpt><trkpt lat="43.4532368" lon="12.231805"><ele>301.0</ele><time>2026-04-04T10:14:08.253Z</time></trkpt><trkpt lat="43.4530073" lon="12.2320796"><ele>306.0</ele><time>2026-04-04T10:14:09.254Z</time></trkpt><trkpt lat="43.4527769" lon="12.2323536"><ele>311.0</ele><time>2026-04-04T10:14:10.254Z</time></trkpt><trkpt lat="43.452547" lon="12.2326203"><ele>311.0</ele><time>2026-04-04T10:14:11.249Z</time></trkpt><trkpt lat="43.4523119" lon="12.2328924"><ele>311.0</ele><time>2026-04-04T10:14:12.256Z</time></trkpt><trkpt lat="43.4520866" lon="12.2331682"><ele>310.5</ele><time>2026-04-04T10:14:13.251Z</time></trkpt><trkpt lat="43.4518572" lon="12.2334372"><ele>310.0</ele><time>2026-04-04T10:14:14.256Z</time></trkpt><trkpt lat="43.4516365" lon="12.2336957"><ele>310.0</ele><time>2026-04-04T10:14:15.251Z</time></trkpt><trkpt lat="43.4514217" lon="12.2339404"><ele>310.0</ele><time>2026-04-04T10:14:16.255Z</time></trkpt><trkpt lat="43.4512077" lon="12.2341824"><ele>313.0</ele><time>2026-04-04T10:14:17.258Z</time></trkpt><trkpt lat="43.45099" lon="12.2343877"><ele>316.0</ele><time>2026-04-04T10:14:18.252Z</time></trkpt><trkpt lat="43.450765" lon="12.2345827"><ele>316.0</ele><time>2026-04-04T10:14:19.254Z</time></trkpt><trkpt lat="43.4505348" lon="12.2347611"><ele>316.0</ele><time>2026-04-04T10:14:20.251Z</time></trkpt><trkpt lat="43.4502907" lon="12.2349305"><ele>315.0</ele><time>2026-04-04T10:14:21.25Z</time></trkpt><trkpt lat="43.4500376" lon="12.235083"><ele>314.0</ele><time>2026-04-04T10:14:22.251Z</time></trkpt><trkpt lat="43.4497696" lon="12.2352213"><ele>318.0</ele><time>2026-04-04T10:14:23.247Z</time></trkpt><trkpt lat="43.4494976" lon="12.2353483"><ele>322.0</ele><time>2026-04-04T10:14:24.249Z</time></trkpt><trkpt lat="43.4492205" lon="12.2354722"><ele>322.0</ele><time>2026-04-04T10:14:25.249Z</time></trkpt><trkpt lat="43.4489359" lon="12.2355838"><ele>322.0</ele><time>2026-04-04T10:14:26.249Z</time></trkpt><trkpt lat="43.4486401" lon="12.2356712"><ele>317.5</ele><time>2026-04-04T10:14:27.253Z</time></trkpt><trkpt lat="43.4483505" lon="12.235763"><ele>313.0</ele><time>2026-04-04T10:14:28.254Z</time></trkpt><trkpt lat="43.4480577" lon="12.2358577"><ele>312.0</ele><time>2026-04-04T10:14:29.254Z</time></trkpt><trkpt lat="43.4477752" lon="12.2359469"><ele>311.0</ele><time>2026-04-04T10:14:30.266Z</time></trkpt><trkpt lat="43.4474903" lon="12.236045"><ele>311.0</ele><time>2026-04-04T10:14:31.258Z</time></trkpt><trkpt lat="43.4472056" lon="12.2361387"><ele>311.0</ele><time>2026-04-04T10:14:32.256Z</time></trkpt><trkpt lat="43.4469296" lon="12.2362272"><ele>309.5</ele><time>2026-04-04T10:14:33.261Z</time></trkpt><trkpt lat="43.4466632" lon="12.2363082"><ele>308.0</ele><time>2026-04-04T10:14:34.258Z</time></trkpt><trkpt lat="43.446394" lon="12.2363947"><ele>305.5</ele><time>2026-04-04T10:14:35.26Z</time></trkpt><trkpt lat="43.4461187" lon="12.2364877"><ele>303.0</ele><time>2026-04-04T10:14:36.261Z</time></trkpt><trkpt lat="43.445843" lon="12.2365732"><ele>303.0</ele><time>2026-04-04T10:14:37.26Z</time></trkpt><trkpt lat="43.4455634" lon="12.2366536"><ele>303.0</ele><time>2026-04-04T10:14:38.257Z</time></trkpt><trkpt lat="43.4452871" lon="12.2367327"><ele>305.0</ele><time>2026-04-04T10:14:39.256Z</time></trkpt><trkpt lat="43.4450124" lon="12.2368245"><ele>307.0</ele><time>2026-04-04T10:14:40.261Z</time></trkpt><trkpt lat="43.4447308" lon="12.2369234"><ele>311.0</ele><time>2026-04-04T10:14:41.259Z</time></trkpt><trkpt lat="43.4444652" lon="12.2370187"><ele>315.0</ele><time>2026-04-04T10:14:42.262Z</time></trkpt><trkpt lat="43.4442055" lon="12.2371151"><ele>315.0</ele><time>2026-04-04T10:14:43.277Z</time></trkpt><trkpt lat="43.4439444" lon="12.2372162"><ele>315.0</ele><time>2026-04-04T10:14:44.262Z</time></trkpt><trkpt lat="43.4436797" lon="12.2373292"><ele>311.5</ele><time>2026-04-04T10:14:45.273Z</time></trkpt><trkpt lat="43.4434141" lon="12.2374511"><ele>308.0</ele><time>2026-04-04T10:14:46.263Z</time></trkpt><trkpt lat="43.4431531" lon="12.2375843"><ele>307.5</ele><time>2026-04-04T10:14:47.256Z</time></trkpt><trkpt lat="43.4428913" lon="12.2377273"><ele>307.0</ele><time>2026-04-04T10:14:48.256Z</time></trkpt><trkpt lat="43.4426197" lon="12.2378937"><ele>307.0</ele><time>2026-04-04T10:14:49.258Z</time></trkpt><trkpt lat="43.4423488" lon="12.2380832"><ele>307.0</ele><time>2026-04-04T10:14:50.258Z</time></trkpt><trkpt lat="43.442075" lon="12.2382915"><ele>307.5</ele><time>2026-04-04T10:14:51.257Z</time></trkpt><trkpt lat="43.4418087" lon="12.2385089"><ele>308.0</ele><time>2026-04-04T10:14:52.255Z</time></trkpt><trkpt lat="43.4415468" lon="12.2387258"><ele>318.5</ele><time>2026-04-04T10:14:53.254Z</time></trkpt><trkpt lat="43.4412929" lon="12.2389387"><ele>329.0</ele><time>2026-04-04T10:14:54.252Z</time></trkpt><trkpt lat="43.4410451" lon="12.2391629"><ele>329.0</ele><time>2026-04-04T10:14:55.255Z</time></trkpt><trkpt lat="43.4407988" lon="12.239394"><ele>329.0</ele><time>2026-04-04T10:14:56.249Z</time></trkpt><trkpt lat="43.4405527" lon="12.2396279"><ele>323.5</ele><time>2026-04-04T10:14:57.249Z</time></trkpt><trkpt lat="43.4403112" lon="12.239865"><ele>318.0</ele><time>2026-04-04T10:14:58.25Z</time></trkpt><trkpt lat="43.4400775" lon="12.2400918"><ele>318.0</ele><time>2026-04-04T10:14:59.234Z</time></trkpt><trkpt lat="43.4399245" lon="12.2403829"><ele>318.0</ele><time>2026-04-04T10:15:00.249Z</time></trkpt><trkpt lat="43.4397763" lon="12.240608"><ele>311.6666666666667</ele><time>2026-04-04T10:15:01.265Z</time></trkpt><trkpt lat="43.4396496" lon="12.240865"><ele>305.33333333333337</ele><time>2026-04-04T10:15:02.259Z</time></trkpt><trkpt lat="43.4394835" lon="12.2410375"><ele>299.0</ele><time>2026-04-04T10:15:03.247Z</time></trkpt><trkpt lat="43.439319" lon="12.2412003"><ele>299.0</ele><time>2026-04-04T10:15:04.254Z</time></trkpt><trkpt lat="43.439156" lon="12.2413621"><ele>299.0</ele><time>2026-04-04T10:15:05.255Z</time></trkpt><trkpt lat="43.4389774" lon="12.2415415"><ele>299.0</ele><time>2026-04-04T10:15:06.258Z</time></trkpt><trkpt lat="43.4387923" lon="12.2417333"><ele>293.5</ele><time>2026-04-04T10:15:07.265Z</time></trkpt><trkpt lat="43.438597" lon="12.2419216"><ele>288.0</ele><time>2026-04-04T10:15:08.258Z</time></trkpt><trkpt lat="43.4383805" lon="12.2421183"><ele>285.5</ele><time>2026-04-04T10:15:09.264Z</time></trkpt><trkpt lat="43.4381489" lon="12.2423203"><ele>283.0</ele><time>2026-04-04T10:15:10.266Z</time></trkpt><trkpt lat="43.4379083" lon="12.2425204"><ele>283.0</ele><time>2026-04-04T10:15:11.27Z</time></trkpt><trkpt lat="43.4376644" lon="12.2427152"><ele>283.0</ele><time>2026-04-04T10:15:12.264Z</time></trkpt><trkpt lat="43.4373983" lon="12.2429009"><ele>283.0</ele><time>2026-04-04T10:15:13.267Z</time></trkpt><trkpt lat="43.4371198" lon="12.243066"><ele>283.0</ele><time>2026-04-04T10:15:14.263Z</time></trkpt><trkpt lat="43.4368305" lon="12.2432171"><ele>281.5</ele><time>2026-04-04T10:15:15.268Z</time></trkpt><trkpt lat="43.4365321" lon="12.2433553"><ele>280.0</ele><time>2026-04-04T10:15:16.265Z</time></trkpt><trkpt lat="43.4362195" lon="12.2434721"><ele>279.0</ele><time>2026-04-04T10:15:17.258Z</time></trkpt><trkpt lat="43.4358991" lon="12.2435715"><ele>278.0</ele><time>2026-04-04T10:15:18.262Z</time></trkpt><trkpt lat="43.4355787" lon="12.2436597"><ele>277.0</ele><time>2026-04-04T10:15:19.27Z</time></trkpt><trkpt lat="43.4352566" lon="12.2437346"><ele>276.0</ele><time>2026-04-04T10:15:20.261Z</time></trkpt><trkpt lat="43.4349363" lon="12.2437953"><ele>273.5</ele><time>2026-04-04T10:15:21.263Z</time></trkpt><trkpt lat="43.4346224" lon="12.2438499"><ele>271.0</ele><time>2026-04-04T10:15:22.261Z</time></trkpt><trkpt lat="43.4343053" lon="12.2439103"><ele>271.0</ele><time>2026-04-04T10:15:23.259Z</time></trkpt><trkpt lat="43.4339895" lon="12.2439673"><ele>271.0</ele><time>2026-04-04T10:15:24.26Z</time></trkpt><trkpt lat="43.433677" lon="12.2440278"><ele>271.0</ele><time>2026-04-04T10:15:25.26Z</time></trkpt><trkpt lat="43.4333653" lon="12.2440903"><ele>271.0</ele><time>2026-04-04T10:15:26.261Z</time></trkpt><trkpt lat="43.4330478" lon="12.2441529"><ele>271.5</ele><time>2026-04-04T10:15:27.265Z</time></trkpt><trkpt lat="43.432732" lon="12.2442068"><ele>272.0</ele><time>2026-04-04T10:15:28.262Z</time></trkpt><trkpt lat="43.4324161" lon="12.2442673"><ele>273.0</ele><time>2026-04-04T10:15:29.258Z</time></trkpt><trkpt lat="43.4321" lon="12.2443259"><ele>274.0</ele><time>2026-04-04T10:15:30.266Z</time></trkpt><trkpt lat="43.4317921" lon="12.2443858"><ele>274.0</ele><time>2026-04-04T10:15:31.258Z</time></trkpt><trkpt lat="43.4314858" lon="12.2444494"><ele>274.0</ele><time>2026-04-04T10:15:32.262Z</time></trkpt><trkpt lat="43.4311863" lon="12.2445077"><ele>273.0</ele><time>2026-04-04T10:15:33.263Z</time></trkpt><trkpt lat="43.4308913" lon="12.2445714"><ele>272.0</ele><time>2026-04-04T10:15:34.258Z</time></trkpt><trkpt lat="43.4306008" lon="12.2446253"><ele>272.5</ele><time>2026-04-04T10:15:35.259Z</time></trkpt><trkpt lat="43.430315" lon="12.2446779"><ele>273.0</ele><time>2026-04-04T10:15:36.26Z</time></trkpt><trkpt lat="43.4300353" lon="12.2447312"><ele>273.0</ele><time>2026-04-04T10:15:37.259Z</time></trkpt><trkpt lat="43.4297638" lon="12.2447799"><ele>273.0</ele><time>2026-04-04T10:15:38.269Z</time></trkpt><trkpt lat="43.4294912" lon="12.2448271"><ele>275.0</ele><time>2026-04-04T10:15:39.258Z</time></trkpt><trkpt lat="43.4292199" lon="12.2448761"><ele>277.0</ele><time>2026-04-04T10:15:40.263Z</time></trkpt><trkpt lat="43.4289537" lon="12.244922"><ele>278.0</ele><time>2026-04-04T10:15:41.259Z</time></trkpt><trkpt lat="43.4286787" lon="12.2449715"><ele>279.0</ele><time>2026-04-04T10:15:42.259Z</time></trkpt><trkpt lat="43.4284034" lon="12.245016"><ele>279.0</ele><time>2026-04-04T10:15:43.26Z</time></trkpt><trkpt lat="43.4281136" lon="12.2450553"><ele>279.0</ele><time>2026-04-04T10:15:44.27Z</time></trkpt><trkpt lat="43.427822" lon="12.2451017"><ele>277.5</ele><time>2026-04-04T10:15:45.264Z</time></trkpt><trkpt lat="43.427528" lon="12.2451589"><ele>276.0</ele><time>2026-04-04T10:15:46.261Z</time></trkpt><trkpt lat="43.4272329" lon="12.245215"><ele>276.0</ele><time>2026-04-04T10:15:47.261Z</time></trkpt><trkpt lat="43.4269389" lon="12.2452707"><ele>276.0</ele><time>2026-04-04T10:15:48.265Z</time></trkpt><trkpt lat="43.4266469" lon="12.2453241"><ele>276.0</ele><time>2026-04-04T10:15:49.266Z</time></trkpt><trkpt lat="43.4263486" lon="12.2453785"><ele>276.0</ele><time>2026-04-04T10:15:50.264Z</time></trkpt><trkpt lat="43.4260464" lon="12.2454358"><ele>276.5</ele><time>2026-04-04T10:15:51.264Z</time></trkpt><trkpt lat="43.4257497" lon="12.2454909"><ele>277.0</ele><time>2026-04-04T10:15:52.265Z</time></trkpt><trkpt lat="43.425454" lon="12.245547"><ele>276.0</ele><time>2026-04-04T10:15:53.265Z</time></trkpt><trkpt lat="43.4251623" lon="12.2455988"><ele>275.0</ele><time>2026-04-04T10:15:54.264Z</time></trkpt><trkpt lat="43.4248863" lon="12.2456526"><ele>275.5</ele><time>2026-04-04T10:15:55.267Z</time></trkpt><trkpt lat="43.424623" lon="12.2456969"><ele>276.0</ele><time>2026-04-04T10:15:56.272Z</time></trkpt><trkpt lat="43.424354" lon="12.2457459"><ele>276.0</ele><time>2026-04-04T10:15:57.28Z</time></trkpt><trkpt lat="43.424093" lon="12.245794"><ele>276.0</ele><time>2026-04-04T10:15:58.271Z</time></trkpt><trkpt lat="43.4238204" lon="12.245844"><ele>275.5</ele><time>2026-04-04T10:15:59.268Z</time></trkpt><trkpt lat="43.4235405" lon="12.2458992"><ele>275.0</ele><time>2026-04-04T10:16:00.274Z</time></trkpt><trkpt lat="43.4232542" lon="12.2459543"><ele>274.5</ele><time>2026-04-04T10:16:01.267Z</time></trkpt><trkpt lat="43.4229589" lon="12.2460094"><ele>274.0</ele><time>2026-04-04T10:16:02.268Z</time></trkpt><trkpt lat="43.4226575" lon="12.2460675"><ele>274.0</ele><time>2026-04-04T10:16:03.265Z</time></trkpt><trkpt lat="43.4223581" lon="12.2461285"><ele>274.0</ele><time>2026-04-04T10:16:04.264Z</time></trkpt><trkpt lat="43.4220643" lon="12.2461892"><ele>275.0</ele><time>2026-04-04T10:16:05.266Z</time></trkpt><trkpt lat="43.4217734" lon="12.2462424"><ele>276.0</ele><time>2026-04-04T10:16:06.268Z</time></trkpt><trkpt lat="43.4214818" lon="12.2462942"><ele>276.5</ele><time>2026-04-04T10:16:07.27Z</time></trkpt><trkpt lat="43.42119" lon="12.2463467"><ele>277.0</ele><time>2026-04-04T10:16:08.268Z</time></trkpt><trkpt lat="43.4209002" lon="12.2464003"><ele>277.0</ele><time>2026-04-04T10:16:09.275Z</time></trkpt><trkpt lat="43.4206185" lon="12.2464558"><ele>277.0</ele><time>2026-04-04T10:16:10.261Z</time></trkpt><trkpt lat="43.4203345" lon="12.2465055"><ele>276.0</ele><time>2026-04-04T10:16:11.266Z</time></trkpt><trkpt lat="43.4200532" lon="12.2465573"><ele>275.0</ele><time>2026-04-04T10:16:12.267Z</time></trkpt><trkpt lat="43.4197695" lon="12.2466082"><ele>276.0</ele><time>2026-04-04T10:16:13.266Z</time></trkpt><trkpt lat="43.4194817" lon="12.2466611"><ele>277.0</ele><time>2026-04-04T10:16:14.269Z</time></trkpt><trkpt lat="43.4191912" lon="12.2467186"><ele>277.0</ele><time>2026-04-04T10:16:15.28Z</time></trkpt><trkpt lat="43.418901" lon="12.2467746"><ele>277.0</ele><time>2026-04-04T10:16:16.271Z</time></trkpt><trkpt lat="43.4186134" lon="12.2468271"><ele>278.0</ele><time>2026-04-04T10:16:17.274Z</time></trkpt><trkpt lat="43.4183279" lon="12.2468825"><ele>279.0</ele><time>2026-04-04T10:16:18.265Z</time></trkpt><trkpt lat="43.4180348" lon="12.2469376"><ele>278.0</ele><time>2026-04-04T10:16:19.262Z</time></trkpt><trkpt lat="43.4177323" lon="12.2469939"><ele>277.0</ele><time>2026-04-04T10:16:20.264Z</time></trkpt><trkpt lat="43.4174298" lon="12.2470528"><ele>274.5</ele><time>2026-04-04T10:16:21.26Z</time></trkpt><trkpt lat="43.4171319" lon="12.2471103"><ele>272.0</ele><time>2026-04-04T10:16:22.265Z</time></trkpt><trkpt lat="43.4168375" lon="12.247168"><ele>272.0</ele><time>2026-04-04T10:16:23.257Z</time></trkpt><trkpt lat="43.4165431" lon="12.2472245"><ele>272.0</ele><time>2026-04-04T10:16:24.264Z</time></trkpt><trkpt lat="43.4162418" lon="12.2472834"><ele>272.5</ele><time>2026-04-04T10:16:25.26Z</time></trkpt><trkpt lat="43.4159257" lon="12.2473483"><ele>273.0</ele><time>2026-04-04T10:16:26.262Z</time></trkpt><trkpt lat="43.4156045" lon="12.2474255"><ele>272.5</ele><time>2026-04-04T10:16:27.263Z</time></trkpt><trkpt lat="43.4152652" lon="12.2475026"><ele>272.0</ele><time>2026-04-04T10:16:28.262Z</time></trkpt><trkpt lat="43.4149324" lon="12.2475608"><ele>269.5</ele><time>2026-04-04T10:16:29.258Z</time></trkpt><trkpt lat="43.4146013" lon="12.2476157"><ele>267.0</ele><time>2026-04-04T10:16:30.269Z</time></trkpt><trkpt lat="43.4142728" lon="12.2476675"><ele>267.0</ele><time>2026-04-04T10:16:31.26Z</time></trkpt><trkpt lat="43.4139597" lon="12.2477227"><ele>267.0</ele><time>2026-04-04T10:16:32.264Z</time></trkpt><trkpt lat="43.4136618" lon="12.2477694"><ele>266.5</ele><time>2026-04-04T10:16:33.264Z</time></trkpt><trkpt lat="43.4133629" lon="12.2478244"><ele>266.0</ele><time>2026-04-04T10:16:34.261Z</time></trkpt><trkpt lat="43.4130612" lon="12.2478798"><ele>266.0</ele><time>2026-04-04T10:16:35.26Z</time></trkpt><trkpt lat="43.4127586" lon="12.2479364"><ele>266.0</ele><time>2026-04-04T10:16:36.267Z</time></trkpt><trkpt lat="43.4124596" lon="12.2479931"><ele>266.0</ele><time>2026-04-04T10:16:37.262Z</time></trkpt><trkpt lat="43.4121587" lon="12.2480514"><ele>266.0</ele><time>2026-04-04T10:16:38.261Z</time></trkpt><trkpt lat="43.4118573" lon="12.2481062"><ele>266.0</ele><time>2026-04-04T10:16:39.264Z</time></trkpt><trkpt lat="43.4115599" lon="12.2481608"><ele>266.0</ele><time>2026-04-04T10:16:40.26Z</time></trkpt><trkpt lat="43.4112607" lon="12.2482193"><ele>265.0</ele><time>2026-04-04T10:16:41.261Z</time></trkpt><trkpt lat="43.4109647" lon="12.2482719"><ele>264.0</ele><time>2026-04-04T10:16:42.263Z</time></trkpt><trkpt lat="43.410668" lon="12.2483238"><ele>265.0</ele><time>2026-04-04T10:16:43.262Z</time></trkpt><trkpt lat="43.4103749" lon="12.2483818"><ele>266.0</ele><time>2026-04-04T10:16:44.264Z</time></trkpt><trkpt lat="43.4100825" lon="12.2484364"><ele>266.0</ele><time>2026-04-04T10:16:45.261Z</time></trkpt><trkpt lat="43.4098041" lon="12.2484873"><ele>266.0</ele><time>2026-04-04T10:16:46.264Z</time></trkpt><trkpt lat="43.4095351" lon="12.2485383"><ele>268.0</ele><time>2026-04-04T10:16:47.261Z</time></trkpt><trkpt lat="43.4092684" lon="12.2485893"><ele>270.0</ele><time>2026-04-04T10:16:48.26Z</time></trkpt><trkpt lat="43.408998" lon="12.2486452"><ele>267.5</ele><time>2026-04-04T10:16:49.259Z</time></trkpt><trkpt lat="43.4087235" lon="12.2486987"><ele>265.0</ele><time>2026-04-04T10:16:50.255Z</time></trkpt><trkpt lat="43.4084473" lon="12.2487544"><ele>265.0</ele><time>2026-04-04T10:16:51.277Z</time></trkpt><trkpt lat="43.4081689" lon="12.2488108"><ele>265.0</ele><time>2026-04-04T10:16:52.251Z</time></trkpt><trkpt lat="43.4078927" lon="12.24887"><ele>266.5</ele><time>2026-04-04T10:16:53.266Z</time></trkpt><trkpt lat="43.4076198" lon="12.248918"><ele>268.0</ele><time>2026-04-04T10:16:54.263Z</time></trkpt><trkpt lat="43.4073437" lon="12.2489571"><ele>271.0</ele><time>2026-04-04T10:16:55.266Z</time></trkpt><trkpt lat="43.4070694" lon="12.2489813"><ele>274.0</ele><time>2026-04-04T10:16:56.263Z</time></trkpt><trkpt lat="43.4067882" lon="12.2490066"><ele>274.0</ele><time>2026-04-04T10:16:57.265Z</time></trkpt><trkpt lat="43.4064904" lon="12.2490369"><ele>274.0</ele><time>2026-04-04T10:16:58.259Z</time></trkpt><trkpt lat="43.4061773" lon="12.2490726"><ele>271.5</ele><time>2026-04-04T10:16:59.26Z</time></trkpt><trkpt lat="43.4058637" lon="12.2491068"><ele>269.0</ele><time>2026-04-04T10:17:00.264Z</time></trkpt><trkpt lat="43.4055511" lon="12.2491289"><ele>266.5</ele><time>2026-04-04T10:17:01.258Z</time></trkpt><trkpt lat="43.4052363" lon="12.2491304"><ele>264.0</ele><time>2026-04-04T10:17:02.257Z</time></trkpt><trkpt lat="43.4049214" lon="12.2491304"><ele>263.5</ele><time>2026-04-04T10:17:03.26Z</time></trkpt><trkpt lat="43.404599" lon="12.2491387"><ele>263.0</ele><time>2026-04-04T10:17:04.26Z</time></trkpt><trkpt lat="43.4042741" lon="12.2491547"><ele>263.0</ele><time>2026-04-04T10:17:05.261Z</time></trkpt><trkpt lat="43.4039556" lon="12.2491709"><ele>263.0</ele><time>2026-04-04T10:17:06.261Z</time></trkpt><trkpt lat="43.4036572" lon="12.2491823"><ele>262.5</ele><time>2026-04-04T10:17:07.263Z</time></trkpt><trkpt lat="43.403376" lon="12.2492101"><ele>262.0</ele><time>2026-04-04T10:17:08.261Z</time></trkpt><trkpt lat="43.4030847" lon="12.2492292"><ele>263.5</ele><time>2026-04-04T10:17:09.256Z</time></trkpt><trkpt lat="43.402793" lon="12.2492497"><ele>265.0</ele><time>2026-04-04T10:17:10.262Z</time></trkpt><trkpt lat="43.402499" lon="12.2492625"><ele>265.0</ele><time>2026-04-04T10:17:11.256Z</time></trkpt><trkpt lat="43.4022065" lon="12.24928"><ele>265.0</ele><time>2026-04-04T10:17:12.26Z</time></trkpt><trkpt lat="43.4019063" lon="12.2492971"><ele>264.0</ele><time>2026-04-04T10:17:13.261Z</time></trkpt><trkpt lat="43.4016145" lon="12.2493191"><ele>263.0</ele><time>2026-04-04T10:17:14.258Z</time></trkpt><trkpt lat="43.4013322" lon="12.2493404"><ele>263.0</ele><time>2026-04-04T10:17:15.262Z</time></trkpt><trkpt lat="43.4010367" lon="12.2493598"><ele>263.0</ele><time>2026-04-04T10:17:16.26Z</time></trkpt><trkpt lat="43.4007469" lon="12.2493794"><ele>263.0</ele><time>2026-04-04T10:17:17.268Z</time></trkpt><trkpt lat="43.4004597" lon="12.249398"><ele>263.0</ele><time>2026-04-04T10:17:18.26Z</time></trkpt><trkpt lat="43.4001687" lon="12.2494139"><ele>263.0</ele><time>2026-04-04T10:17:19.259Z</time></trkpt><trkpt lat="43.3998798" lon="12.2494359"><ele>263.0</ele><time>2026-04-04T10:17:20.258Z</time></trkpt><trkpt lat="43.399593" lon="12.2494547"><ele>262.0</ele><time>2026-04-04T10:17:21.257Z</time></trkpt><trkpt lat="43.3993028" lon="12.2494766"><ele>261.0</ele><time>2026-04-04T10:17:22.26Z</time></trkpt><trkpt lat="43.3990132" lon="12.2494955"><ele>261.0</ele><time>2026-04-04T10:17:23.257Z</time></trkpt><trkpt lat="43.3987221" lon="12.2495132"><ele>261.0</ele><time>2026-04-04T10:17:24.259Z</time></trkpt><trkpt lat="43.3984305" lon="12.2495333"><ele>261.0</ele><time>2026-04-04T10:17:25.259Z</time></trkpt><trkpt lat="43.3981446" lon="12.2495522"><ele>261.0</ele><time>2026-04-04T10:17:26.26Z</time></trkpt><trkpt lat="43.3978595" lon="12.2495682"><ele>261.0</ele><time>2026-04-04T10:17:27.259Z</time></trkpt><trkpt lat="43.3975795" lon="12.2495807"><ele>261.0</ele><time>2026-04-04T10:17:28.261Z</time></trkpt><trkpt lat="43.3972998" lon="12.2495987"><ele>260.5</ele><time>2026-04-04T10:17:29.26Z</time></trkpt><trkpt lat="43.3970247" lon="12.249622"><ele>260.0</ele><time>2026-04-04T10:17:30.266Z</time></trkpt><trkpt lat="43.3967491" lon="12.2496343"><ele>260.0</ele><time>2026-04-04T10:17:31.258Z</time></trkpt><trkpt lat="43.3964747" lon="12.249647"><ele>260.0</ele><time>2026-04-04T10:17:32.26Z</time></trkpt><trkpt lat="43.396199" lon="12.2496658"><ele>260.0</ele><time>2026-04-04T10:17:33.259Z</time></trkpt><trkpt lat="43.3959242" lon="12.2496813"><ele>260.0</ele><time>2026-04-04T10:17:34.259Z</time></trkpt><trkpt lat="43.3956432" lon="12.2496949"><ele>260.5</ele><time>2026-04-04T10:17:35.259Z</time></trkpt><trkpt lat="43.3953627" lon="12.2497145"><ele>261.0</ele><time>2026-04-04T10:17:36.257Z</time></trkpt><trkpt lat="43.3950817" lon="12.2497386"><ele>261.0</ele><time>2026-04-04T10:17:37.258Z</time></trkpt><trkpt lat="43.3947983" lon="12.2497588"><ele>261.0</ele><time>2026-04-04T10:17:38.258Z</time></trkpt><trkpt lat="43.3945235" lon="12.249777"><ele>264.5</ele><time>2026-04-04T10:17:39.258Z</time></trkpt><trkpt lat="43.3942609" lon="12.2497991"><ele>268.0</ele><time>2026-04-04T10:17:40.257Z</time></trkpt><trkpt lat="43.3940075" lon="12.2498121"><ele>266.5</ele><time>2026-04-04T10:17:41.257Z</time></trkpt><trkpt lat="43.3937494" lon="12.2498262"><ele>265.0</ele><time>2026-04-04T10:17:42.256Z</time></trkpt><trkpt lat="43.3934864" lon="12.2498376"><ele>265.0</ele><time>2026-04-04T10:17:43.257Z</time></trkpt><trkpt lat="43.3932271" lon="12.2498492"><ele>265.0</ele><time>2026-04-04T10:17:44.257Z</time></trkpt><trkpt lat="43.3929698" lon="12.2498706"><ele>265.5</ele><time>2026-04-04T10:17:45.259Z</time></trkpt><trkpt lat="43.3927109" lon="12.2498917"><ele>266.0</ele><time>2026-04-04T10:17:46.259Z</time></trkpt><trkpt lat="43.3924478" lon="12.2499124"><ele>266.0</ele><time>2026-04-04T10:17:47.256Z</time></trkpt><trkpt lat="43.3921875" lon="12.2499313"><ele>266.0</ele><time>2026-04-04T10:17:48.265Z</time></trkpt><trkpt lat="43.3919246" lon="12.2499375"><ele>266.5</ele><time>2026-04-04T10:17:49.26Z</time></trkpt><trkpt lat="43.391658" lon="12.2499499"><ele>267.0</ele><time>2026-04-04T10:17:50.261Z</time></trkpt><trkpt lat="43.3913923" lon="12.249963"><ele>266.5</ele><time>2026-04-04T10:17:51.26Z</time></trkpt><trkpt lat="43.3911201" lon="12.2499843"><ele>266.0</ele><time>2026-04-04T10:17:52.26Z</time></trkpt><trkpt lat="43.3908447" lon="12.250004"><ele>266.0</ele><time>2026-04-04T10:17:53.276Z</time></trkpt><trkpt lat="43.3905623" lon="12.2500208"><ele>266.0</ele><time>2026-04-04T10:17:54.261Z</time></trkpt><trkpt lat="43.3902778" lon="12.2500401"><ele>265.5</ele><time>2026-04-04T10:17:55.263Z</time></trkpt><trkpt lat="43.3899891" lon="12.2500576"><ele>265.0</ele><time>2026-04-04T10:17:56.26Z</time></trkpt><trkpt lat="43.3896977" lon="12.2500779"><ele>264.0</ele><time>2026-04-04T10:17:57.261Z</time></trkpt><trkpt lat="43.3894041" lon="12.2500953"><ele>263.0</ele><time>2026-04-04T10:17:58.258Z</time></trkpt><trkpt lat="43.3891047" lon="12.2501184"><ele>262.5</ele><time>2026-04-04T10:17:59.259Z</time></trkpt><trkpt lat="43.3888221" lon="12.2501412"><ele>262.0</ele><time>2026-04-04T10:18:00.263Z</time></trkpt><trkpt lat="43.3885454" lon="12.2501579"><ele>262.0</ele><time>2026-04-04T10:18:01.262Z</time></trkpt><trkpt lat="43.3882593" lon="12.2501773"><ele>262.0</ele><time>2026-04-04T10:18:02.257Z</time></trkpt><trkpt lat="43.3879738" lon="12.2501976"><ele>260.5</ele><time>2026-04-04T10:18:03.258Z</time></trkpt><trkpt lat="43.3876838" lon="12.2502155"><ele>259.0</ele><time>2026-04-04T10:18:04.259Z</time></trkpt><trkpt lat="43.3873981" lon="12.250233"><ele>259.5</ele><time>2026-04-04T10:18:05.257Z</time></trkpt><trkpt lat="43.3871145" lon="12.2502551"><ele>260.0</ele><time>2026-04-04T10:18:06.259Z</time></trkpt><trkpt lat="43.3868328" lon="12.250276"><ele>260.0</ele><time>2026-04-04T10:18:07.259Z</time></trkpt><trkpt lat="43.3865529" lon="12.2502903"><ele>260.0</ele><time>2026-04-04T10:18:08.258Z</time></trkpt><trkpt lat="43.3862714" lon="12.2502969"><ele>261.0</ele><time>2026-04-04T10:18:09.256Z</time></trkpt><trkpt lat="43.385993" lon="12.2503118"><ele>262.0</ele><time>2026-04-04T10:18:10.257Z</time></trkpt><trkpt lat="43.3857103" lon="12.2503255"><ele>262.5</ele><time>2026-04-04T10:18:11.257Z</time></trkpt><trkpt lat="43.3854295" lon="12.2503463"><ele>263.0</ele><time>2026-04-04T10:18:12.257Z</time></trkpt><trkpt lat="43.3851539" lon="12.2503669"><ele>263.0</ele><time>2026-04-04T10:18:13.257Z</time></trkpt><trkpt lat="43.3848749" lon="12.2503998"><ele>263.0</ele><time>2026-04-04T10:18:14.257Z</time></trkpt><trkpt lat="43.3846065" lon="12.2504367"><ele>263.0</ele><time>2026-04-04T10:18:15.257Z</time></trkpt><trkpt lat="43.3843321" lon="12.2504866"><ele>263.0</ele><time>2026-04-04T10:18:16.257Z</time></trkpt><trkpt lat="43.3840646" lon="12.2505423"><ele>263.0</ele><time>2026-04-04T10:18:17.258Z</time></trkpt><trkpt lat="43.383795" lon="12.2506037"><ele>263.0</ele><time>2026-04-04T10:18:18.262Z</time></trkpt><trkpt lat="43.3835215" lon="12.2506727"><ele>263.0</ele><time>2026-04-04T10:18:19.285Z</time></trkpt><trkpt lat="43.3832449" lon="12.2507533"><ele>263.0</ele><time>2026-04-04T10:18:20.262Z</time></trkpt><trkpt lat="43.3829794" lon="12.2508375"><ele>263.5</ele><time>2026-04-04T10:18:21.268Z</time></trkpt><trkpt lat="43.382708" lon="12.250925"><ele>264.0</ele><time>2026-04-04T10:18:22.265Z</time></trkpt><trkpt lat="43.3824416" lon="12.2510215"><ele>264.0</ele><time>2026-04-04T10:18:23.264Z</time></trkpt><trkpt lat="43.3821889" lon="12.2511227"><ele>264.0</ele><time>2026-04-04T10:18:24.262Z</time></trkpt><trkpt lat="43.3819398" lon="12.2512363"><ele>264.0</ele><time>2026-04-04T10:18:25.263Z</time></trkpt><trkpt lat="43.3816969" lon="12.2513514"><ele>264.0</ele><time>2026-04-04T10:18:26.277Z</time></trkpt><trkpt lat="43.3814518" lon="12.2514688"><ele>264.0</ele><time>2026-04-04T10:18:27.263Z</time></trkpt><trkpt lat="43.3812097" lon="12.2515996"><ele>264.0</ele><time>2026-04-04T10:18:28.262Z</time></trkpt><trkpt lat="43.3809664" lon="12.2517362"><ele>264.0</ele><time>2026-04-04T10:18:29.262Z</time></trkpt><trkpt lat="43.3807269" lon="12.2518736"><ele>264.0</ele><time>2026-04-04T10:18:30.265Z</time></trkpt><trkpt lat="43.3804861" lon="12.2520187"><ele>264.0</ele><time>2026-04-04T10:18:31.257Z</time></trkpt><trkpt lat="43.3802534" lon="12.2521776"><ele>264.0</ele><time>2026-04-04T10:18:32.259Z</time></trkpt><trkpt lat="43.380016" lon="12.2523339"><ele>264.5</ele><time>2026-04-04T10:18:33.26Z</time></trkpt><trkpt lat="43.3797823" lon="12.2525017"><ele>265.0</ele><time>2026-04-04T10:18:34.262Z</time></trkpt><trkpt lat="43.3795496" lon="12.2526883"><ele>265.0</ele><time>2026-04-04T10:18:35.264Z</time></trkpt><trkpt lat="43.3793064" lon="12.2528805"><ele>265.0</ele><time>2026-04-04T10:18:36.264Z</time></trkpt><trkpt lat="43.3790673" lon="12.2530759"><ele>266.5</ele><time>2026-04-04T10:18:37.262Z</time></trkpt><trkpt lat="43.3788315" lon="12.2532663"><ele>268.0</ele><time>2026-04-04T10:18:38.262Z</time></trkpt><trkpt lat="43.3786018" lon="12.2534508"><ele>268.0</ele><time>2026-04-04T10:18:39.263Z</time></trkpt><trkpt lat="43.378372" lon="12.2536304"><ele>268.0</ele><time>2026-04-04T10:18:40.258Z</time></trkpt><trkpt lat="43.3781461" lon="12.2538126"><ele>271.0</ele><time>2026-04-04T10:18:41.257Z</time></trkpt><trkpt lat="43.3779214" lon="12.2539935"><ele>274.0</ele><time>2026-04-04T10:18:42.254Z</time></trkpt><trkpt lat="43.377694" lon="12.254164"><ele>274.0</ele><time>2026-04-04T10:18:43.254Z</time></trkpt><trkpt lat="43.3774698" lon="12.2543358"><ele>274.0</ele><time>2026-04-04T10:18:44.256Z</time></trkpt><trkpt lat="43.3772467" lon="12.2545146"><ele>273.5</ele><time>2026-04-04T10:18:45.256Z</time></trkpt><trkpt lat="43.3770234" lon="12.2546976"><ele>273.0</ele><time>2026-04-04T10:18:46.255Z</time></trkpt><trkpt lat="43.3768011" lon="12.2548772"><ele>273.0</ele><time>2026-04-04T10:18:47.254Z</time></trkpt><trkpt lat="43.3765765" lon="12.2550579"><ele>273.0</ele><time>2026-04-04T10:18:48.257Z</time></trkpt><trkpt lat="43.3763487" lon="12.2552438"><ele>273.5</ele><time>2026-04-04T10:18:49.256Z</time></trkpt><trkpt lat="43.3761166" lon="12.255429"><ele>274.0</ele><time>2026-04-04T10:18:50.263Z</time></trkpt><trkpt lat="43.3758752" lon="12.2556148"><ele>275.0</ele><time>2026-04-04T10:18:51.256Z</time></trkpt><trkpt lat="43.3756268" lon="12.2558029"><ele>276.0</ele><time>2026-04-04T10:18:52.256Z</time></trkpt><trkpt lat="43.3753811" lon="12.2559926"><ele>276.0</ele><time>2026-04-04T10:18:53.256Z</time></trkpt><trkpt lat="43.3751349" lon="12.2561826"><ele>276.0</ele><time>2026-04-04T10:18:54.256Z</time></trkpt><trkpt lat="43.374896" lon="12.2563717"><ele>277.0</ele><time>2026-04-04T10:18:55.258Z</time></trkpt><trkpt lat="43.374661" lon="12.2565671"><ele>278.0</ele><time>2026-04-04T10:18:56.258Z</time></trkpt><trkpt lat="43.374427" lon="12.2567595"><ele>278.0</ele><time>2026-04-04T10:18:57.258Z</time></trkpt><trkpt lat="43.3741894" lon="12.2569487"><ele>278.0</ele><time>2026-04-04T10:18:58.258Z</time></trkpt><trkpt lat="43.3739522" lon="12.257131"><ele>277.5</ele><time>2026-04-04T10:18:59.255Z</time></trkpt><trkpt lat="43.3737263" lon="12.2573068"><ele>277.0</ele><time>2026-04-04T10:19:00.263Z</time></trkpt><trkpt lat="43.3734994" lon="12.257488"><ele>277.0</ele><time>2026-04-04T10:19:01.255Z</time></trkpt><trkpt lat="43.3732755" lon="12.2576662"><ele>277.0</ele><time>2026-04-04T10:19:02.255Z</time></trkpt><trkpt lat="43.3730549" lon="12.2578459"><ele>275.5</ele><time>2026-04-04T10:19:03.256Z</time></trkpt><trkpt lat="43.3728317" lon="12.2580257"><ele>274.0</ele><time>2026-04-04T10:19:04.253Z</time></trkpt><trkpt lat="43.3726047" lon="12.2582086"><ele>274.0</ele><time>2026-04-04T10:19:05.254Z</time></trkpt><trkpt lat="43.3723833" lon="12.2583865"><ele>274.0</ele><time>2026-04-04T10:19:06.254Z</time></trkpt><trkpt lat="43.3721559" lon="12.2585629"><ele>273.0</ele><time>2026-04-04T10:19:07.256Z</time></trkpt><trkpt lat="43.3719295" lon="12.2587391"><ele>272.0</ele><time>2026-04-04T10:19:08.262Z</time></trkpt><trkpt lat="43.371709" lon="12.2589079"><ele>271.5</ele><time>2026-04-04T10:19:09.252Z</time></trkpt><trkpt lat="43.3715064" lon="12.2590644"><ele>271.0</ele><time>2026-04-04T10:19:10.258Z</time></trkpt><trkpt lat="43.3713061" lon="12.2592319"><ele>272.0</ele><time>2026-04-04T10:19:11.256Z</time></trkpt><trkpt lat="43.371089" lon="12.2594071"><ele>273.0</ele><time>2026-04-04T10:19:12.257Z</time></trkpt><trkpt lat="43.3708619" lon="12.2595934"><ele>275.0</ele><time>2026-04-04T10:19:13.256Z</time></trkpt><trkpt lat="43.3706228" lon="12.2597921"><ele>277.0</ele><time>2026-04-04T10:19:14.257Z</time></trkpt><trkpt lat="43.3703706" lon="12.2599982"><ele>282.0</ele><time>2026-04-04T10:19:15.255Z</time></trkpt><trkpt lat="43.3701148" lon="12.2602015"><ele>287.0</ele><time>2026-04-04T10:19:16.256Z</time></trkpt><trkpt lat="43.3698702" lon="12.2604031"><ele>286.5</ele><time>2026-04-04T10:19:17.254Z</time></trkpt><trkpt lat="43.3696103" lon="12.2606067"><ele>286.0</ele><time>2026-04-04T10:19:18.255Z</time></trkpt><trkpt lat="43.3693399" lon="12.2608122"><ele>285.5</ele><time>2026-04-04T10:19:19.259Z</time></trkpt><trkpt lat="43.3690812" lon="12.2610164"><ele>285.0</ele><time>2026-04-04T10:19:20.255Z</time></trkpt><trkpt lat="43.3688334" lon="12.2612284"><ele>283.5</ele><time>2026-04-04T10:19:21.263Z</time></trkpt><trkpt lat="43.3685851" lon="12.2614564"><ele>282.0</ele><time>2026-04-04T10:19:22.258Z</time></trkpt><trkpt lat="43.368335" lon="12.2616957"><ele>282.0</ele><time>2026-04-04T10:19:23.257Z</time></trkpt><trkpt lat="43.3680729" lon="12.261956"><ele>282.0</ele><time>2026-04-04T10:19:24.26Z</time></trkpt><trkpt lat="43.367817" lon="12.2622225"><ele>280.0</ele><time>2026-04-04T10:19:25.262Z</time></trkpt><trkpt lat="43.3675674" lon="12.2624985"><ele>278.0</ele><time>2026-04-04T10:19:26.269Z</time></trkpt><trkpt lat="43.3673264" lon="12.2627753"><ele>278.0</ele><time>2026-04-04T10:19:27.261Z</time></trkpt><trkpt lat="43.3671056" lon="12.2630489"><ele>278.0</ele><time>2026-04-04T10:19:28.26Z</time></trkpt><trkpt lat="43.3668934" lon="12.2633246"><ele>278.0</ele><time>2026-04-04T10:19:29.262Z</time></trkpt><trkpt lat="43.366681" lon="12.2636035"><ele>278.0</ele><time>2026-04-04T10:19:30.267Z</time></trkpt><trkpt lat="43.3664669" lon="12.2638818"><ele>277.5</ele><time>2026-04-04T10:19:31.258Z</time></trkpt><trkpt lat="43.3662573" lon="12.2641706"><ele>277.0</ele><time>2026-04-04T10:19:32.26Z</time></trkpt><trkpt lat="43.3660461" lon="12.2644842"><ele>278.0</ele><time>2026-04-04T10:19:33.259Z</time></trkpt><trkpt lat="43.3658473" lon="12.2648175"><ele>279.0</ele><time>2026-04-04T10:19:34.256Z</time></trkpt><trkpt lat="43.365637" lon="12.2651722"><ele>279.0</ele><time>2026-04-04T10:19:35.259Z</time></trkpt><trkpt lat="43.3654337" lon="12.2655298"><ele>279.0</ele><time>2026-04-04T10:19:36.261Z</time></trkpt><trkpt lat="43.3652306" lon="12.2658971"><ele>279.0</ele><time>2026-04-04T10:19:37.26Z</time></trkpt><trkpt lat="43.3650359" lon="12.2662646"><ele>279.0</ele><time>2026-04-04T10:19:38.261Z</time></trkpt><trkpt lat="43.3648489" lon="12.2666272"><ele>276.5</ele><time>2026-04-04T10:19:39.26Z</time></trkpt><trkpt lat="43.3646693" lon="12.2669959"><ele>274.0</ele><time>2026-04-04T10:19:40.26Z</time></trkpt><trkpt lat="43.3645002" lon="12.2673675"><ele>274.0</ele><time>2026-04-04T10:19:41.258Z</time></trkpt><trkpt lat="43.3643435" lon="12.2677302"><ele>274.0</ele><time>2026-04-04T10:19:42.254Z</time></trkpt><trkpt lat="43.3641888" lon="12.2680803"><ele>276.0</ele><time>2026-04-04T10:19:43.254Z</time></trkpt><trkpt lat="43.3640363" lon="12.2684179"><ele>278.0</ele><time>2026-04-04T10:19:44.254Z</time></trkpt><trkpt lat="43.3638753" lon="12.2687642"><ele>278.5</ele><time>2026-04-04T10:19:45.253Z</time></trkpt><trkpt lat="43.3637117" lon="12.2691047"><ele>279.0</ele><time>2026-04-04T10:19:46.254Z</time></trkpt><trkpt lat="43.3635499" lon="12.2694488"><ele>276.0</ele><time>2026-04-04T10:19:47.26Z</time></trkpt><trkpt lat="43.3634019" lon="12.2697884"><ele>273.0</ele><time>2026-04-04T10:19:48.259Z</time></trkpt><trkpt lat="43.3632584" lon="12.2701259"><ele>273.0</ele><time>2026-04-04T10:19:49.259Z</time></trkpt><trkpt lat="43.3631116" lon="12.2704631"><ele>273.0</ele><time>2026-04-04T10:19:50.265Z</time></trkpt><trkpt lat="43.3629657" lon="12.2707959"><ele>272.5</ele><time>2026-04-04T10:19:51.26Z</time></trkpt><trkpt lat="43.3628119" lon="12.2711335"><ele>272.0</ele><time>2026-04-04T10:19:52.263Z</time></trkpt><trkpt lat="43.3626543" lon="12.2714797"><ele>269.5</ele><time>2026-04-04T10:19:53.257Z</time></trkpt><trkpt lat="43.3624985" lon="12.2718268"><ele>267.0</ele><time>2026-04-04T10:19:54.259Z</time></trkpt><trkpt lat="43.3623461" lon="12.2721704"><ele>265.0</ele><time>2026-04-04T10:19:55.259Z</time></trkpt><trkpt lat="43.3621928" lon="12.272513"><ele>263.0</ele><time>2026-04-04T10:19:56.261Z</time></trkpt><trkpt lat="43.3620398" lon="12.2728576"><ele>266.0</ele><time>2026-04-04T10:19:57.263Z</time></trkpt><trkpt lat="43.3618909" lon="12.2731862"><ele>269.0</ele><time>2026-04-04T10:19:58.264Z</time></trkpt><trkpt lat="43.3617393" lon="12.2735124"><ele>269.0</ele><time>2026-04-04T10:19:59.263Z</time></trkpt><trkpt lat="43.3615775" lon="12.2738386"><ele>269.0</ele><time>2026-04-04T10:20:00.269Z</time></trkpt><trkpt lat="43.3614133" lon="12.2741602"><ele>268.0</ele><time>2026-04-04T10:20:01.266Z</time></trkpt><trkpt lat="43.3612408" lon="12.2744833"><ele>267.0</ele><time>2026-04-04T10:20:02.264Z</time></trkpt><trkpt lat="43.3610735" lon="12.2747871"><ele>267.0</ele><time>2026-04-04T10:20:03.259Z</time></trkpt><trkpt lat="43.3609024" lon="12.2750938"><ele>267.0</ele><time>2026-04-04T10:20:04.259Z</time></trkpt><trkpt lat="43.360718" lon="12.2754001"><ele>268.5</ele><time>2026-04-04T10:20:05.257Z</time></trkpt><trkpt lat="43.3605172" lon="12.2757148"><ele>270.0</ele><time>2026-04-04T10:20:06.257Z</time></trkpt><trkpt lat="43.3603117" lon="12.2760245"><ele>270.0</ele><time>2026-04-04T10:20:07.26Z</time></trkpt><trkpt lat="43.3601002" lon="12.2763459"><ele>270.0</ele><time>2026-04-04T10:20:08.26Z</time></trkpt><trkpt lat="43.3598758" lon="12.2766605"><ele>270.0</ele><time>2026-04-04T10:20:09.26Z</time></trkpt><trkpt lat="43.3596524" lon="12.2769685"><ele>270.0</ele><time>2026-04-04T10:20:10.26Z</time></trkpt><trkpt lat="43.3594245" lon="12.2772646"><ele>271.5</ele><time>2026-04-04T10:20:11.26Z</time></trkpt><trkpt lat="43.3591837" lon="12.2775444"><ele>273.0</ele><time>2026-04-04T10:20:12.261Z</time></trkpt><trkpt lat="43.3589375" lon="12.2778145"><ele>272.5</ele><time>2026-04-04T10:20:13.262Z</time></trkpt><trkpt lat="43.358687" lon="12.2780784"><ele>272.0</ele><time>2026-04-04T10:20:14.261Z</time></trkpt><trkpt lat="43.3584279" lon="12.2783389"><ele>273.0</ele><time>2026-04-04T10:20:15.26Z</time></trkpt><trkpt lat="43.3581791" lon="12.2785901"><ele>274.0</ele><time>2026-04-04T10:20:16.261Z</time></trkpt><trkpt lat="43.3579287" lon="12.2788409"><ele>273.5</ele><time>2026-04-04T10:20:17.265Z</time></trkpt><trkpt lat="43.3576792" lon="12.2790898"><ele>273.0</ele><time>2026-04-04T10:20:18.263Z</time></trkpt><trkpt lat="43.3574389" lon="12.2793339"><ele>269.5</ele><time>2026-04-04T10:20:19.275Z</time></trkpt><trkpt lat="43.357198" lon="12.279588"><ele>266.0</ele><time>2026-04-04T10:20:20.264Z</time></trkpt><trkpt lat="43.3569582" lon="12.2798406"><ele>265.0</ele><time>2026-04-04T10:20:21.265Z</time></trkpt><trkpt lat="43.3567201" lon="12.2800936"><ele>264.0</ele><time>2026-04-04T10:20:22.261Z</time></trkpt><trkpt lat="43.3564838" lon="12.2803439"><ele>261.5</ele><time>2026-04-04T10:20:23.269Z</time></trkpt><trkpt lat="43.3562523" lon="12.2805917"><ele>259.0</ele><time>2026-04-04T10:20:24.264Z</time></trkpt><trkpt lat="43.356023" lon="12.280841"><ele>259.0</ele><time>2026-04-04T10:20:25.264Z</time></trkpt><trkpt lat="43.3558004" lon="12.2810906"><ele>259.0</ele><time>2026-04-04T10:20:26.265Z</time></trkpt><trkpt lat="43.3555821" lon="12.2813327"><ele>258.5</ele><time>2026-04-04T10:20:27.267Z</time></trkpt><trkpt lat="43.355365" lon="12.2815767"><ele>258.0</ele><time>2026-04-04T10:20:28.266Z</time></trkpt><trkpt lat="43.3551576" lon="12.2818369"><ele>258.0</ele><time>2026-04-04T10:20:29.267Z</time></trkpt><trkpt lat="43.3549481" lon="12.2821143"><ele>258.0</ele><time>2026-04-04T10:20:30.27Z</time></trkpt><trkpt lat="43.3547462" lon="12.2824037"><ele>256.0</ele><time>2026-04-04T10:20:31.264Z</time></trkpt><trkpt lat="43.3545397" lon="12.2827018"><ele>254.0</ele><time>2026-04-04T10:20:32.264Z</time></trkpt><trkpt lat="43.3543279" lon="12.283007"><ele>254.0</ele><time>2026-04-04T10:20:33.264Z</time></trkpt><trkpt lat="43.3541213" lon="12.2833163"><ele>254.0</ele><time>2026-04-04T10:20:34.268Z</time></trkpt><trkpt lat="43.3539082" lon="12.2836291"><ele>254.0</ele><time>2026-04-04T10:20:35.261Z</time></trkpt><trkpt lat="43.3536978" lon="12.2839378"><ele>254.0</ele><time>2026-04-04T10:20:36.264Z</time></trkpt><trkpt lat="43.3534887" lon="12.284246"><ele>254.0</ele><time>2026-04-04T10:20:37.263Z</time></trkpt><trkpt lat="43.3532797" lon="12.2845534"><ele>254.0</ele><time>2026-04-04T10:20:38.267Z</time></trkpt><trkpt lat="43.3530768" lon="12.2848518"><ele>253.5</ele><time>2026-04-04T10:20:39.264Z</time></trkpt><trkpt lat="43.3528729" lon="12.285151"><ele>253.0</ele><time>2026-04-04T10:20:40.262Z</time></trkpt><trkpt lat="43.3526734" lon="12.2854413"><ele>253.5</ele><time>2026-04-04T10:20:41.261Z</time></trkpt><trkpt lat="43.3524751" lon="12.2857249"><ele>254.0</ele><time>2026-04-04T10:20:42.261Z</time></trkpt><trkpt lat="43.3522855" lon="12.2859964"><ele>254.5</ele><time>2026-04-04T10:20:43.261Z</time></trkpt><trkpt lat="43.3520989" lon="12.286276"><ele>255.0</ele><time>2026-04-04T10:20:44.262Z</time></trkpt><trkpt lat="43.351906" lon="12.286558"><ele>255.0</ele><time>2026-04-04T10:20:45.264Z</time></trkpt><trkpt lat="43.3517185" lon="12.286835"><ele>255.0</ele><time>2026-04-04T10:20:46.265Z</time></trkpt><trkpt lat="43.3515352" lon="12.2871048"><ele>254.5</ele><time>2026-04-04T10:20:47.263Z</time></trkpt><trkpt lat="43.3513542" lon="12.2873807"><ele>254.0</ele><time>2026-04-04T10:20:48.262Z</time></trkpt><trkpt lat="43.3511684" lon="12.2876558"><ele>254.0</ele><time>2026-04-04T10:20:49.271Z</time></trkpt><trkpt lat="43.3509825" lon="12.2879314"><ele>254.0</ele><time>2026-04-04T10:20:50.264Z</time></trkpt><trkpt lat="43.3507911" lon="12.2882077"><ele>255.0</ele><time>2026-04-04T10:20:51.267Z</time></trkpt><trkpt lat="43.3505981" lon="12.2884911"><ele>256.0</ele><time>2026-04-04T10:20:52.266Z</time></trkpt><trkpt lat="43.3504071" lon="12.2887791"><ele>257.5</ele><time>2026-04-04T10:20:53.265Z</time></trkpt><trkpt lat="43.3502122" lon="12.2890596"><ele>259.0</ele><time>2026-04-04T10:20:54.272Z</time></trkpt><trkpt lat="43.3500146" lon="12.2893426"><ele>259.0</ele><time>2026-04-04T10:20:55.284Z</time></trkpt><trkpt lat="43.3498191" lon="12.2896244"><ele>259.0</ele><time>2026-04-04T10:20:56.266Z</time></trkpt><trkpt lat="43.3496239" lon="12.2899104"><ele>261.0</ele><time>2026-04-04T10:20:57.267Z</time></trkpt><trkpt lat="43.349435" lon="12.2902036"><ele>263.0</ele><time>2026-04-04T10:20:58.267Z</time></trkpt><trkpt lat="43.3492353" lon="12.2905008"><ele>264.0</ele><time>2026-04-04T10:20:59.264Z</time></trkpt><trkpt lat="43.3490365" lon="12.2908013"><ele>265.0</ele><time>2026-04-04T10:21:00.274Z</time></trkpt><trkpt lat="43.3488283" lon="12.2910942"><ele>265.0</ele><time>2026-04-04T10:21:01.257Z</time></trkpt><trkpt lat="43.3486206" lon="12.2913827"><ele>265.0</ele><time>2026-04-04T10:21:02.259Z</time></trkpt><trkpt lat="43.3484215" lon="12.2916806"><ele>263.0</ele><time>2026-04-04T10:21:03.257Z</time></trkpt><trkpt lat="43.3482219" lon="12.2919843"><ele>261.0</ele><time>2026-04-04T10:21:04.254Z</time></trkpt><trkpt lat="43.3480182" lon="12.2922815"><ele>260.0</ele><time>2026-04-04T10:21:05.274Z</time></trkpt><trkpt lat="43.3478206" lon="12.2925649"><ele>259.0</ele><time>2026-04-04T10:21:06.258Z</time></trkpt><trkpt lat="43.3476298" lon="12.2928358"><ele>258.5</ele><time>2026-04-04T10:21:07.26Z</time></trkpt><trkpt lat="43.3474401" lon="12.2931142"><ele>258.0</ele><time>2026-04-04T10:21:08.263Z</time></trkpt><trkpt lat="43.3472394" lon="12.2933991"><ele>256.5</ele><time>2026-04-04T10:21:09.271Z</time></trkpt><trkpt lat="43.3470421" lon="12.2937002"><ele>255.0</ele><time>2026-04-04T10:21:10.259Z</time></trkpt><trkpt lat="43.3468394" lon="12.2940026"><ele>255.0</ele><time>2026-04-04T10:21:11.262Z</time></trkpt><trkpt lat="43.3466293" lon="12.2943006"><ele>255.0</ele><time>2026-04-04T10:21:12.262Z</time></trkpt><trkpt lat="43.3464261" lon="12.2946015"><ele>256.0</ele><time>2026-04-04T10:21:13.263Z</time></trkpt><trkpt lat="43.3462201" lon="12.2948995"><ele>257.0</ele><time>2026-04-04T10:21:14.259Z</time></trkpt><trkpt lat="43.3460097" lon="12.2952051"><ele>257.0</ele><time>2026-04-04T10:21:15.262Z</time></trkpt><trkpt lat="43.345807" lon="12.2954988"><ele>257.0</ele><time>2026-04-04T10:21:16.266Z</time></trkpt><trkpt lat="43.3456041" lon="12.2958021"><ele>255.5</ele><time>2026-04-04T10:21:17.26Z</time></trkpt><trkpt lat="43.3454025" lon="12.2961005"><ele>254.0</ele><time>2026-04-04T10:21:18.262Z</time></trkpt><trkpt lat="43.3452066" lon="12.2963938"><ele>254.5</ele><time>2026-04-04T10:21:19.259Z</time></trkpt><trkpt lat="43.3450111" lon="12.2966794"><ele>255.0</ele><time>2026-04-04T10:21:20.266Z</time></trkpt><trkpt lat="43.344808" lon="12.296967"><ele>253.5</ele><time>2026-04-04T10:21:21.264Z</time></trkpt><trkpt lat="43.3446129" lon="12.2972598"><ele>252.0</ele><time>2026-04-04T10:21:22.262Z</time></trkpt><trkpt lat="43.3444195" lon="12.2975508"><ele>252.0</ele><time>2026-04-04T10:21:23.262Z</time></trkpt><trkpt lat="43.3442412" lon="12.2978449"><ele>252.0</ele><time>2026-04-04T10:21:24.264Z</time></trkpt><trkpt lat="43.3440643" lon="12.2981418"><ele>250.5</ele><time>2026-04-04T10:21:25.266Z</time></trkpt><trkpt lat="43.3438822" lon="12.2984664"><ele>249.0</ele><time>2026-04-04T10:21:26.266Z</time></trkpt><trkpt lat="43.3437032" lon="12.2987999"><ele>248.0</ele><time>2026-04-04T10:21:27.265Z</time></trkpt><trkpt lat="43.3435313" lon="12.2991281"><ele>247.0</ele><time>2026-04-04T10:21:28.264Z</time></trkpt><trkpt lat="43.3433685" lon="12.2994556"><ele>247.5</ele><time>2026-04-04T10:21:29.264Z</time></trkpt><trkpt lat="43.3432169" lon="12.2997743"><ele>248.0</ele><time>2026-04-04T10:21:30.27Z</time></trkpt><trkpt lat="43.3430707" lon="12.3000758"><ele>249.0</ele><time>2026-04-04T10:21:31.265Z</time></trkpt><trkpt lat="43.3429243" lon="12.300373"><ele>250.0</ele><time>2026-04-04T10:21:32.261Z</time></trkpt><trkpt lat="43.3427802" lon="12.3006642"><ele>250.0</ele><time>2026-04-04T10:21:33.264Z</time></trkpt><trkpt lat="43.3426357" lon="12.3009594"><ele>250.0</ele><time>2026-04-04T10:21:34.262Z</time></trkpt><trkpt lat="43.3424919" lon="12.3012558"><ele>249.5</ele><time>2026-04-04T10:21:35.264Z</time></trkpt><trkpt lat="43.3423528" lon="12.3015412"><ele>249.0</ele><time>2026-04-04T10:21:36.262Z</time></trkpt><trkpt lat="43.3422107" lon="12.3018373"><ele>250.0</ele><time>2026-04-04T10:21:37.267Z</time></trkpt><trkpt lat="43.3420717" lon="12.3021361"><ele>251.0</ele><time>2026-04-04T10:21:38.263Z</time></trkpt><trkpt lat="43.3419321" lon="12.30243"><ele>251.0</ele><time>2026-04-04T10:21:39.261Z</time></trkpt><trkpt lat="43.3417819" lon="12.3027415"><ele>251.0</ele><time>2026-04-04T10:21:40.262Z</time></trkpt><trkpt lat="43.3416101" lon="12.3030819"><ele>251.5</ele><time>2026-04-04T10:21:41.261Z</time></trkpt><trkpt lat="43.3414211" lon="12.3034443"><ele>252.0</ele><time>2026-04-04T10:21:42.262Z</time></trkpt><trkpt lat="43.34122" lon="12.3038089"><ele>250.5</ele><time>2026-04-04T10:21:43.266Z</time></trkpt><trkpt lat="43.3410164" lon="12.3041651"><ele>249.0</ele><time>2026-04-04T10:21:44.267Z</time></trkpt><trkpt lat="43.3408066" lon="12.304519"><ele>248.5</ele><time>2026-04-04T10:21:45.266Z</time></trkpt><trkpt lat="43.3405912" lon="12.3048711"><ele>248.0</ele><time>2026-04-04T10:21:46.273Z</time></trkpt><trkpt lat="43.3403652" lon="12.3052075"><ele>248.0</ele><time>2026-04-04T10:21:47.268Z</time></trkpt><trkpt lat="43.3401384" lon="12.305508"><ele>248.0</ele><time>2026-04-04T10:21:48.267Z</time></trkpt><trkpt lat="43.3399159" lon="12.3057892"><ele>248.0</ele><time>2026-04-04T10:21:49.265Z</time></trkpt><trkpt lat="43.339722" lon="12.3060545"><ele>248.0</ele><time>2026-04-04T10:21:50.264Z</time></trkpt><trkpt lat="43.3395229" lon="12.3063244"><ele>248.0</ele><time>2026-04-04T10:21:51.265Z</time></trkpt><trkpt lat="43.3393237" lon="12.3065836"><ele>248.0</ele><time>2026-04-04T10:21:52.264Z</time></trkpt><trkpt lat="43.3391158" lon="12.3068467"><ele>248.0</ele><time>2026-04-04T10:21:53.266Z</time></trkpt><trkpt lat="43.3389067" lon="12.3070994"><ele>248.0</ele><time>2026-04-04T10:21:54.268Z</time></trkpt><trkpt lat="43.3386882" lon="12.3073525"><ele>247.0</ele><time>2026-04-04T10:21:55.27Z</time></trkpt><trkpt lat="43.3384642" lon="12.3076082"><ele>246.0</ele><time>2026-04-04T10:21:56.274Z</time></trkpt><trkpt lat="43.3382371" lon="12.3078563"><ele>245.0</ele><time>2026-04-04T10:21:57.269Z</time></trkpt><trkpt lat="43.3380012" lon="12.3081086"><ele>244.0</ele><time>2026-04-04T10:21:58.268Z</time></trkpt><trkpt lat="43.3377599" lon="12.3083595"><ele>244.0</ele><time>2026-04-04T10:21:59.269Z</time></trkpt><trkpt lat="43.3375147" lon="12.3086022"><ele>244.0</ele><time>2026-04-04T10:22:00.272Z</time></trkpt><trkpt lat="43.3372679" lon="12.3088359"><ele>243.5</ele><time>2026-04-04T10:22:01.267Z</time></trkpt><trkpt lat="43.3370173" lon="12.3090685"><ele>243.0</ele><time>2026-04-04T10:22:02.267Z</time></trkpt><trkpt lat="43.3367631" lon="12.3092908"><ele>243.0</ele><time>2026-04-04T10:22:03.266Z</time></trkpt><trkpt lat="43.3365114" lon="12.3095102"><ele>243.0</ele><time>2026-04-04T10:22:04.266Z</time></trkpt><trkpt lat="43.336263" lon="12.3097164"><ele>244.5</ele><time>2026-04-04T10:22:05.264Z</time></trkpt><trkpt lat="43.336028" lon="12.3098981"><ele>246.0</ele><time>2026-04-04T10:22:06.265Z</time></trkpt><trkpt lat="43.3357948" lon="12.3100771"><ele>246.0</ele><time>2026-04-04T10:22:07.268Z</time></trkpt><trkpt lat="43.3355627" lon="12.3102516"><ele>246.0</ele><time>2026-04-04T10:22:08.279Z</time></trkpt><trkpt lat="43.3353218" lon="12.3104267"><ele>245.5</ele><time>2026-04-04T10:22:09.268Z</time></trkpt><trkpt lat="43.3350714" lon="12.3105979"><ele>245.0</ele><time>2026-04-04T10:22:10.27Z</time></trkpt><trkpt lat="43.3348147" lon="12.3107684"><ele>245.5</ele><time>2026-04-04T10:22:11.268Z</time></trkpt><trkpt lat="43.3345576" lon="12.3109307"><ele>246.0</ele><time>2026-04-04T10:22:12.266Z</time></trkpt><trkpt lat="43.3342971" lon="12.3110958"><ele>246.0</ele><time>2026-04-04T10:22:13.267Z</time></trkpt><trkpt lat="43.3340357" lon="12.311256"><ele>246.0</ele><time>2026-04-04T10:22:14.255Z</time></trkpt><trkpt lat="43.333781" lon="12.311419"><ele>245.0</ele><time>2026-04-04T10:22:15.287Z</time></trkpt><trkpt lat="43.3335268" lon="12.3115799"><ele>244.0</ele><time>2026-04-04T10:22:16.265Z</time></trkpt><trkpt lat="43.3332734" lon="12.31174"><ele>243.5</ele><time>2026-04-04T10:22:17.261Z</time></trkpt><trkpt lat="43.3330224" lon="12.3118946"><ele>243.0</ele><time>2026-04-04T10:22:18.26Z</time></trkpt><trkpt lat="43.3327687" lon="12.3120491"><ele>243.0</ele><time>2026-04-04T10:22:19.259Z</time></trkpt><trkpt lat="43.3325159" lon="12.3122001"><ele>243.0</ele><time>2026-04-04T10:22:20.267Z</time></trkpt><trkpt lat="43.3322635" lon="12.3123571"><ele>243.0</ele><time>2026-04-04T10:22:21.257Z</time></trkpt><trkpt lat="43.3320123" lon="12.3125151"><ele>243.0</ele><time>2026-04-04T10:22:22.259Z</time></trkpt><trkpt lat="43.3317712" lon="12.3126694"><ele>243.0</ele><time>2026-04-04T10:22:23.257Z</time></trkpt><trkpt lat="43.3315288" lon="12.3128244"><ele>243.0</ele><time>2026-04-04T10:22:24.261Z</time></trkpt><trkpt lat="43.3312889" lon="12.3129774"><ele>245.0</ele><time>2026-04-04T10:22:25.262Z</time></trkpt><trkpt lat="43.3310547" lon="12.3131164"><ele>247.0</ele><time>2026-04-04T10:22:26.26Z</time></trkpt><trkpt lat="43.3308222" lon="12.3132646"><ele>247.0</ele><time>2026-04-04T10:22:27.274Z</time></trkpt><trkpt lat="43.3305878" lon="12.3134194"><ele>247.0</ele><time>2026-04-04T10:22:28.263Z</time></trkpt><trkpt lat="43.3303411" lon="12.3135803"><ele>245.5</ele><time>2026-04-04T10:22:29.264Z</time></trkpt><trkpt lat="43.3300938" lon="12.3137471"><ele>244.0</ele><time>2026-04-04T10:22:30.267Z</time></trkpt><trkpt lat="43.3298454" lon="12.3139033"><ele>245.5</ele><time>2026-04-04T10:22:31.261Z</time></trkpt><trkpt lat="43.3295953" lon="12.3140588"><ele>247.0</ele><time>2026-04-04T10:22:32.26Z</time></trkpt><trkpt lat="43.3293441" lon="12.3142117"><ele>247.0</ele><time>2026-04-04T10:22:33.254Z</time></trkpt><trkpt lat="43.3291001" lon="12.3143608"><ele>247.0</ele><time>2026-04-04T10:22:34.259Z</time></trkpt><trkpt lat="43.3288584" lon="12.3145116"><ele>247.5</ele><time>2026-04-04T10:22:35.261Z</time></trkpt><trkpt lat="43.3286184" lon="12.3146642"><ele>248.0</ele><time>2026-04-04T10:22:36.256Z</time></trkpt><trkpt lat="43.3283798" lon="12.3148144"><ele>248.0</ele><time>2026-04-04T10:22:37.256Z</time></trkpt><trkpt lat="43.328146" lon="12.3149653"><ele>248.0</ele><time>2026-04-04T10:22:38.255Z</time></trkpt><trkpt lat="43.3279179" lon="12.3151117"><ele>248.5</ele><time>2026-04-04T10:22:39.257Z</time></trkpt><trkpt lat="43.3276935" lon="12.31526"><ele>249.0</ele><time>2026-04-04T10:22:40.26Z</time></trkpt><trkpt lat="43.3274693" lon="12.315407"><ele>249.0</ele><time>2026-04-04T10:22:41.257Z</time></trkpt><trkpt lat="43.3272547" lon="12.3155507"><ele>249.0</ele><time>2026-04-04T10:22:42.261Z</time></trkpt><trkpt lat="43.3270446" lon="12.3156993"><ele>251.5</ele><time>2026-04-04T10:22:43.261Z</time></trkpt><trkpt lat="43.3268344" lon="12.315856"><ele>254.0</ele><time>2026-04-04T10:22:44.263Z</time></trkpt><trkpt lat="43.3266382" lon="12.3160124"><ele>254.0</ele><time>2026-04-04T10:22:45.265Z</time></trkpt><trkpt lat="43.3264423" lon="12.3161794"><ele>254.0</ele><time>2026-04-04T10:22:46.261Z</time></trkpt><trkpt lat="43.3262499" lon="12.3163502"><ele>255.5</ele><time>2026-04-04T10:22:47.257Z</time></trkpt><trkpt lat="43.326052" lon="12.3165288"><ele>257.0</ele><time>2026-04-04T10:22:48.259Z</time></trkpt><trkpt lat="43.3258587" lon="12.3167042"><ele>257.0</ele><time>2026-04-04T10:22:49.259Z</time></trkpt><trkpt lat="43.3256736" lon="12.3168734"><ele>257.0</ele><time>2026-04-04T10:22:50.257Z</time></trkpt><trkpt lat="43.3255" lon="12.317027"><ele>257.0</ele><time>2026-04-04T10:22:51.254Z</time></trkpt><trkpt lat="43.325342" lon="12.317169"><ele>256.6666666666667</ele><time>2026-04-04T10:22:52.259Z</time></trkpt><trkpt lat="43.325196" lon="12.3173129"><ele>256.3333333333333</ele><time>2026-04-04T10:22:53.256Z</time></trkpt><trkpt lat="43.3250615" lon="12.3174437"><ele>256.0</ele><time>2026-04-04T10:22:54.259Z</time></trkpt><trkpt lat="43.3249477" lon="12.3175802"><ele>256.0</ele><time>2026-04-04T10:22:55.259Z</time></trkpt><trkpt lat="43.3248484" lon="12.3177085"><ele>256.0</ele><time>2026-04-04T10:22:56.256Z</time></trkpt><trkpt lat="43.3247468" lon="12.3178225"><ele>256.0</ele><time>2026-04-04T10:22:57.269Z</time></trkpt><trkpt lat="43.3246429" lon="12.3179234"><ele>256.0</ele><time>2026-04-04T10:22:58.26Z</time></trkpt><trkpt lat="43.3245305" lon="12.3179998"><ele>255.20000000000002</ele><time>2026-04-04T10:22:59.262Z</time></trkpt><trkpt lat="43.3244191" lon="12.3180277"><ele>254.40000000000003</ele><time>2026-04-04T10:23:00.267Z</time></trkpt><trkpt lat="43.3243088" lon="12.3180179"><ele>253.6</ele><time>2026-04-04T10:23:01.256Z</time></trkpt><trkpt lat="43.3242013" lon="12.3179889"><ele>252.8</ele><time>2026-04-04T10:23:02.258Z</time></trkpt><trkpt lat="43.3241024" lon="12.3179228"><ele>252.0</ele><time>2026-04-04T10:23:03.26Z</time></trkpt><trkpt lat="43.3240086" lon="12.3178266"><ele>252.0</ele><time>2026-04-04T10:23:04.265Z</time></trkpt><trkpt lat="43.3239325" lon="12.3176972"><ele>252.0</ele><time>2026-04-04T10:23:05.262Z</time></trkpt><trkpt lat="43.3238667" lon="12.3175641"><ele>252.0</ele><time>2026-04-04T10:23:06.261Z</time></trkpt><trkpt lat="43.3238269" lon="12.3174025"><ele>252.0</ele><time>2026-04-04T10:23:07.259Z</time></trkpt><trkpt lat="43.3238217" lon="12.3172243"><ele>251.5</ele><time>2026-04-04T10:23:08.265Z</time></trkpt><trkpt lat="43.3238516" lon="12.3170485"><ele>251.0</ele><time>2026-04-04T10:23:09.264Z</time></trkpt><trkpt lat="43.3239179" lon="12.3168961"><ele>250.5</ele><time>2026-04-04T10:23:10.264Z</time></trkpt><trkpt lat="43.3240013" lon="12.3167717"><ele>250.0</ele><time>2026-04-04T10:23:11.254Z</time></trkpt><trkpt lat="43.3240928" lon="12.3166633"><ele>250.0</ele><time>2026-04-04T10:23:12.26Z</time></trkpt><trkpt lat="43.3242016" lon="12.3166091"><ele>250.0</ele><time>2026-04-04T10:23:13.255Z</time></trkpt><trkpt lat="43.3243383" lon="12.3166109"><ele>250.0</ele><time>2026-04-04T10:23:14.254Z</time></trkpt><trkpt lat="43.3244835" lon="12.3166426"><ele>250.0</ele><time>2026-04-04T10:23:15.258Z</time></trkpt><trkpt lat="43.3246317" lon="12.3167186"><ele>252.33333333333331</ele><time>2026-04-04T10:23:16.259Z</time></trkpt><trkpt lat="43.324763" lon="12.3168399"><ele>254.66666666666669</ele><time>2026-04-04T10:23:17.256Z</time></trkpt><trkpt lat="43.3248822" lon="12.3169796"><ele>257.0</ele><time>2026-04-04T10:23:18.257Z</time></trkpt><trkpt lat="43.3249796" lon="12.317139"><ele>256.6666666666667</ele><time>2026-04-04T10:23:19.259Z</time></trkpt><trkpt lat="43.325074" lon="12.3173126"><ele>256.3333333333333</ele><time>2026-04-04T10:23:20.257Z</time></trkpt><trkpt lat="43.3251657" lon="12.3175"><ele>256.0</ele><time>2026-04-04T10:23:21.259Z</time></trkpt><trkpt lat="43.3252582" lon="12.3177045"><ele>256.0</ele><time>2026-04-04T10:23:22.26Z</time></trkpt><trkpt lat="43.3253557" lon="12.3179074"><ele>256.0</ele><time>2026-04-04T10:23:23.259Z</time></trkpt><trkpt lat="43.3254522" lon="12.3180986"><ele>256.0</ele><time>2026-04-04T10:23:24.259Z</time></trkpt><trkpt lat="43.3255476" lon="12.3182828"><ele>255.75</ele><time>2026-04-04T10:23:25.26Z</time></trkpt><trkpt lat="43.3256326" lon="12.3184447"><ele>255.5</ele><time>2026-04-04T10:23:26.259Z</time></trkpt><trkpt lat="43.3257051" lon="12.3185925"><ele>255.25</ele><time>2026-04-04T10:23:27.259Z</time></trkpt><trkpt lat="43.3257663" lon="12.3187253"><ele>255.0</ele><time>2026-04-04T10:23:28.265Z</time></trkpt><trkpt lat="43.3258285" lon="12.3188475"><ele>255.2</ele><time>2026-04-04T10:23:29.257Z</time></trkpt><trkpt lat="43.3258859" lon="12.3189733"><ele>255.4</ele><time>2026-04-04T10:23:30.267Z</time></trkpt><trkpt lat="43.3259477" lon="12.3190896"><ele>255.60000000000002</ele><time>2026-04-04T10:23:31.257Z</time></trkpt><trkpt lat="43.3260015" lon="12.3191977"><ele>255.8</ele><time>2026-04-04T10:23:32.257Z</time></trkpt><trkpt lat="43.3260449" lon="12.3192902"><ele>256.0</ele><time>2026-04-04T10:23:33.255Z</time></trkpt><trkpt lat="43.326087" lon="12.3193688"><ele>256.0</ele><time>2026-04-04T10:23:34.256Z</time></trkpt><trkpt lat="43.3261522" lon="12.3194732"><ele>256.0</ele><time>2026-04-04T10:23:36.261Z</time></trkpt><trkpt lat="43.3262393" lon="12.3195126"><ele>256.0</ele><time>2026-04-04T10:26:19.264Z</time></trkpt><trkpt lat="43.3262974" lon="12.3196024"><ele>256.0</ele><time>2026-04-04T10:26:20.256Z</time></trkpt><trkpt lat="43.326371" lon="12.3197078"><ele>256.0</ele><time>2026-04-04T10:26:21.261Z</time></trkpt><trkpt lat="43.3264746" lon="12.3198466"><ele>257.0</ele><time>2026-04-04T10:26:22.255Z</time></trkpt><trkpt lat="43.3265958" lon="12.3199912"><ele>258.0</ele><time>2026-04-04T10:26:23.258Z</time></trkpt><trkpt lat="43.326729" lon="12.3201414"><ele>259.0</ele><time>2026-04-04T10:26:24.257Z</time></trkpt><trkpt lat="43.3268668" lon="12.3202842"><ele>259.0</ele><time>2026-04-04T10:26:25.261Z</time></trkpt><trkpt lat="43.3270171" lon="12.3204192"><ele>259.0</ele><time>2026-04-04T10:26:26.259Z</time></trkpt><trkpt lat="43.3271649" lon="12.3205304"><ele>259.0</ele><time>2026-04-04T10:26:27.263Z</time></trkpt><trkpt lat="43.3273033" lon="12.3206231"><ele>259.2</ele><time>2026-04-04T10:26:28.262Z</time></trkpt><trkpt lat="43.3274228" lon="12.3206948"><ele>259.4</ele><time>2026-04-04T10:26:29.256Z</time></trkpt><trkpt lat="43.327524" lon="12.3207535"><ele>259.6</ele><time>2026-04-04T10:26:30.263Z</time></trkpt><trkpt lat="43.3276053" lon="12.3208037"><ele>259.8</ele><time>2026-04-04T10:26:31.257Z</time></trkpt><trkpt lat="43.3276684" lon="12.320863"><ele>260.0</ele><time>2026-04-04T10:26:32.257Z</time></trkpt><trkpt lat="43.3277198" lon="12.3209223"><ele>260.0</ele><time>2026-04-04T10:26:33.264Z</time></trkpt><trkpt lat="43.3277696" lon="12.3209795"><ele>260.0</ele><time>2026-04-04T10:26:34.259Z</time></trkpt><trkpt lat="43.3278669" lon="12.3209911"><ele>260.0</ele><time>2026-04-04T10:26:36.26Z</time></trkpt><trkpt lat="43.327927" lon="12.320874"><ele>260.0</ele><time>2026-04-04T10:26:38.256Z</time></trkpt><trkpt lat="43.3278786" lon="12.3207203"><ele>260.0</ele><time>2026-04-04T10:26:40.257Z</time></trkpt><trkpt lat="43.3278173" lon="12.3206655"><ele>260.0</ele><time>2026-04-04T10:26:41.26Z</time></trkpt><trkpt lat="43.3277247" lon="12.3206435"><ele>260.0</ele><time>2026-04-04T10:26:42.255Z</time></trkpt><trkpt lat="43.3276257" lon="12.3206401"><ele>260.0</ele><time>2026-04-04T10:26:43.26Z</time></trkpt><trkpt lat="43.3274956" lon="12.3206226"><ele>260.0</ele><time>2026-04-04T10:26:44.255Z</time></trkpt><trkpt lat="43.327368" lon="12.3205966"><ele>259.6666666666667</ele><time>2026-04-04T10:26:45.257Z</time></trkpt><trkpt lat="43.3272095" lon="12.320537"><ele>259.3333333333333</ele><time>2026-04-04T10:26:46.255Z</time></trkpt><trkpt lat="43.3270489" lon="12.3204304"><ele>259.0</ele><time>2026-04-04T10:26:47.254Z</time></trkpt><trkpt lat="43.3268715" lon="12.3202859"><ele>259.0</ele><time>2026-04-04T10:26:48.257Z</time></trkpt><trkpt lat="43.3267014" lon="12.320098"><ele>259.0</ele><time>2026-04-04T10:26:49.256Z</time></trkpt><trkpt lat="43.3265383" lon="12.3198839"><ele>259.0</ele><time>2026-04-04T10:26:50.256Z</time></trkpt><trkpt lat="43.3263841" lon="12.3196632"><ele>258.0</ele><time>2026-04-04T10:26:51.256Z</time></trkpt><trkpt lat="43.3262375" lon="12.3194418"><ele>257.0</ele><time>2026-04-04T10:26:52.258Z</time></trkpt><trkpt lat="43.3261001" lon="12.3192033"><ele>256.0</ele><time>2026-04-04T10:26:53.257Z</time></trkpt><trkpt lat="43.3259671" lon="12.3189582"><ele>255.66666666666666</ele><time>2026-04-04T10:26:54.262Z</time></trkpt><trkpt lat="43.3258354" lon="12.3187133"><ele>255.33333333333331</ele><time>2026-04-04T10:26:55.264Z</time></trkpt><trkpt lat="43.3257102" lon="12.3184905"><ele>255.0</ele><time>2026-04-04T10:26:56.265Z</time></trkpt><trkpt lat="43.3255953" lon="12.3182934"><ele>254.66666666666669</ele><time>2026-04-04T10:26:57.266Z</time></trkpt><trkpt lat="43.3254892" lon="12.3180984"><ele>254.33333333333334</ele><time>2026-04-04T10:26:58.264Z</time></trkpt><trkpt lat="43.3253788" lon="12.3179064"><ele>254.0</ele><time>2026-04-04T10:26:59.264Z</time></trkpt><trkpt lat="43.3252753" lon="12.317719"><ele>254.66666666666669</ele><time>2026-04-04T10:27:00.269Z</time></trkpt><trkpt lat="43.3251811" lon="12.3175469"><ele>255.33333333333331</ele><time>2026-04-04T10:27:01.262Z</time></trkpt><trkpt lat="43.3250896" lon="12.3173866"><ele>256.0</ele><time>2026-04-04T10:27:02.261Z</time></trkpt><trkpt lat="43.3249979" lon="12.3172188"><ele>256.25</ele><time>2026-04-04T10:27:03.287Z</time></trkpt><trkpt lat="43.3249092" lon="12.317061"><ele>256.5</ele><time>2026-04-04T10:27:04.269Z</time></trkpt><trkpt lat="43.3248244" lon="12.3169228"><ele>256.75</ele><time>2026-04-04T10:27:05.261Z</time></trkpt><trkpt lat="43.3247316" lon="12.3168017"><ele>257.0</ele><time>2026-04-04T10:27:06.263Z</time></trkpt><trkpt lat="43.3246124" lon="12.3167199"><ele>255.25</ele><time>2026-04-04T10:27:07.273Z</time></trkpt><trkpt lat="43.3244774" lon="12.3166871"><ele>253.5</ele><time>2026-04-04T10:27:08.263Z</time></trkpt><trkpt lat="43.3243386" lon="12.316684"><ele>251.75</ele><time>2026-04-04T10:27:09.256Z</time></trkpt><trkpt lat="43.3242101" lon="12.316716"><ele>250.0</ele><time>2026-04-04T10:27:10.256Z</time></trkpt><trkpt lat="43.3240898" lon="12.3167655"><ele>250.0</ele><time>2026-04-04T10:27:11.26Z</time></trkpt><trkpt lat="43.3239802" lon="12.3168517"><ele>250.0</ele><time>2026-04-04T10:27:12.259Z</time></trkpt><trkpt lat="43.3238895" lon="12.3169637"><ele>250.0</ele><time>2026-04-04T10:27:13.261Z</time></trkpt><trkpt lat="43.323822" lon="12.317102"><ele>250.0</ele><time>2026-04-04T10:27:14.261Z</time></trkpt><trkpt lat="43.3237823" lon="12.3172689"><ele>249.5</ele><time>2026-04-04T10:27:15.26Z</time></trkpt><trkpt lat="43.3237806" lon="12.3174426"><ele>249.0</ele><time>2026-04-04T10:27:16.257Z</time></trkpt><trkpt lat="43.3238215" lon="12.3176276"><ele>248.5</ele><time>2026-04-04T10:27:17.262Z</time></trkpt><trkpt lat="43.323891" lon="12.3178002"><ele>248.0</ele><time>2026-04-04T10:27:18.258Z</time></trkpt><trkpt lat="43.32397" lon="12.3179649"><ele>249.25</ele><time>2026-04-04T10:27:19.26Z</time></trkpt><trkpt lat="43.3240441" lon="12.3181321"><ele>250.5</ele><time>2026-04-04T10:27:20.259Z</time></trkpt><trkpt lat="43.3241028" lon="12.3183004"><ele>251.75</ele><time>2026-04-04T10:27:21.262Z</time></trkpt><trkpt lat="43.3241212" lon="12.3184806"><ele>253.0</ele><time>2026-04-04T10:27:22.261Z</time></trkpt><trkpt lat="43.3240964" lon="12.3186561"><ele>253.0</ele><time>2026-04-04T10:27:23.26Z</time></trkpt><trkpt lat="43.3240408" lon="12.3188225"><ele>253.0</ele><time>2026-04-04T10:27:24.261Z</time></trkpt><trkpt lat="43.3239495" lon="12.3189718"><ele>253.0</ele><time>2026-04-04T10:27:25.258Z</time></trkpt><trkpt lat="43.3238332" lon="12.3191159"><ele>253.0</ele><time>2026-04-04T10:27:26.261Z</time></trkpt><trkpt lat="43.3236921" lon="12.3193"><ele>252.0</ele><time>2026-04-04T10:27:27.263Z</time></trkpt><trkpt lat="43.3235397" lon="12.3195382"><ele>251.0</ele><time>2026-04-04T10:27:28.257Z</time></trkpt><trkpt lat="43.3233793" lon="12.3197895"><ele>251.0</ele><time>2026-04-04T10:27:29.256Z</time></trkpt><trkpt lat="43.3232071" lon="12.3200451"><ele>251.0</ele><time>2026-04-04T10:27:30.261Z</time></trkpt><trkpt lat="43.3230364" lon="12.3203195"><ele>250.0</ele><time>2026-04-04T10:27:31.255Z</time></trkpt><trkpt lat="43.322867" lon="12.3206289"><ele>249.0</ele><time>2026-04-04T10:27:32.259Z</time></trkpt><trkpt lat="43.3226977" lon="12.3209523"><ele>249.0</ele><time>2026-04-04T10:27:33.259Z</time></trkpt><trkpt lat="43.3225277" lon="12.3212795"><ele>249.0</ele><time>2026-04-04T10:27:34.259Z</time></trkpt><trkpt lat="43.3223705" lon="12.3216225"><ele>248.5</ele><time>2026-04-04T10:27:35.264Z</time></trkpt><trkpt lat="43.3222102" lon="12.3219741"><ele>248.0</ele><time>2026-04-04T10:27:36.262Z</time></trkpt><trkpt lat="43.3220469" lon="12.3223377"><ele>249.0</ele><time>2026-04-04T10:27:37.26Z</time></trkpt><trkpt lat="43.3218981" lon="12.3226942"><ele>250.0</ele><time>2026-04-04T10:27:38.258Z</time></trkpt><trkpt lat="43.3217614" lon="12.3230305"><ele>251.0</ele><time>2026-04-04T10:27:39.258Z</time></trkpt><trkpt lat="43.3216378" lon="12.3233453"><ele>252.0</ele><time>2026-04-04T10:27:40.257Z</time></trkpt><trkpt lat="43.3215188" lon="12.3236555"><ele>252.0</ele><time>2026-04-04T10:27:41.256Z</time></trkpt><trkpt lat="43.3214016" lon="12.3239546"><ele>252.0</ele><time>2026-04-04T10:27:42.271Z</time></trkpt><trkpt lat="43.3212812" lon="12.3242502"><ele>252.0</ele><time>2026-04-04T10:27:43.261Z</time></trkpt><trkpt lat="43.3211597" lon="12.3245366"><ele>252.0</ele><time>2026-04-04T10:27:44.261Z</time></trkpt><trkpt lat="43.3210372" lon="12.3248345"><ele>253.0</ele><time>2026-04-04T10:27:45.26Z</time></trkpt><trkpt lat="43.3209159" lon="12.3251282"><ele>254.0</ele><time>2026-04-04T10:27:46.264Z</time></trkpt><trkpt lat="43.3207858" lon="12.325422"><ele>254.0</ele><time>2026-04-04T10:27:47.26Z</time></trkpt><trkpt lat="43.3206568" lon="12.3257198"><ele>254.0</ele><time>2026-04-04T10:27:48.259Z</time></trkpt><trkpt lat="43.3205259" lon="12.3260092"><ele>254.0</ele><time>2026-04-04T10:27:49.262Z</time></trkpt><trkpt lat="43.3203987" lon="12.3262923"><ele>254.0</ele><time>2026-04-04T10:27:50.261Z</time></trkpt><trkpt lat="43.3202708" lon="12.3265728"><ele>256.0</ele><time>2026-04-04T10:27:51.261Z</time></trkpt><trkpt lat="43.3201375" lon="12.3268543"><ele>258.0</ele><time>2026-04-04T10:27:52.261Z</time></trkpt><trkpt lat="43.3200055" lon="12.3271271"><ele>263.5</ele><time>2026-04-04T10:27:53.26Z</time></trkpt><trkpt lat="43.3198692" lon="12.3274099"><ele>269.0</ele><time>2026-04-04T10:27:54.262Z</time></trkpt><trkpt lat="43.319722" lon="12.3277079"><ele>270.5</ele><time>2026-04-04T10:27:55.259Z</time></trkpt><trkpt lat="43.3195657" lon="12.3280193"><ele>272.0</ele><time>2026-04-04T10:27:56.258Z</time></trkpt><trkpt lat="43.3194062" lon="12.3283316"><ele>273.5</ele><time>2026-04-04T10:27:57.261Z</time></trkpt><trkpt lat="43.3192574" lon="12.328638"><ele>275.0</ele><time>2026-04-04T10:27:58.26Z</time></trkpt><trkpt lat="43.3191134" lon="12.3289249"><ele>275.0</ele><time>2026-04-04T10:27:59.262Z</time></trkpt><trkpt lat="43.3189651" lon="12.3292217"><ele>275.0</ele><time>2026-04-04T10:28:00.268Z</time></trkpt><trkpt lat="43.3188196" lon="12.3295198"><ele>274.0</ele><time>2026-04-04T10:28:01.261Z</time></trkpt><trkpt lat="43.3186737" lon="12.329813"><ele>273.0</ele><time>2026-04-04T10:28:02.261Z</time></trkpt><trkpt lat="43.3185222" lon="12.3301076"><ele>273.0</ele><time>2026-04-04T10:28:03.262Z</time></trkpt><trkpt lat="43.3183763" lon="12.3304022"><ele>273.0</ele><time>2026-04-04T10:28:04.256Z</time></trkpt><trkpt lat="43.3182324" lon="12.3306932"><ele>273.0</ele><time>2026-04-04T10:28:05.258Z</time></trkpt><trkpt lat="43.3180955" lon="12.3309738"><ele>273.0</ele><time>2026-04-04T10:28:06.262Z</time></trkpt><trkpt lat="43.3179697" lon="12.3312434"><ele>272.3333333333333</ele><time>2026-04-04T10:28:07.257Z</time></trkpt><trkpt lat="43.317847" lon="12.3314958"><ele>271.66666666666663</ele><time>2026-04-04T10:28:08.256Z</time></trkpt><trkpt lat="43.3177245" lon="12.3317353"><ele>271.0</ele><time>2026-04-04T10:28:09.259Z</time></trkpt><trkpt lat="43.317602" lon="12.3319806"><ele>272.66666666666663</ele><time>2026-04-04T10:28:10.259Z</time></trkpt><trkpt lat="43.3174739" lon="12.3322277"><ele>274.3333333333333</ele><time>2026-04-04T10:28:11.259Z</time></trkpt><trkpt lat="43.3173505" lon="12.3324746"><ele>276.0</ele><time>2026-04-04T10:28:12.26Z</time></trkpt><trkpt lat="43.3172265" lon="12.3327352"><ele>276.0</ele><time>2026-04-04T10:28:13.259Z</time></trkpt><trkpt lat="43.3171073" lon="12.3329933"><ele>276.0</ele><time>2026-04-04T10:28:14.259Z</time></trkpt><trkpt lat="43.3169906" lon="12.3332597"><ele>276.0</ele><time>2026-04-04T10:28:15.259Z</time></trkpt><trkpt lat="43.3168744" lon="12.3335289"><ele>277.3333333333333</ele><time>2026-04-04T10:28:16.258Z</time></trkpt><trkpt lat="43.3167657" lon="12.3338022"><ele>278.66666666666663</ele><time>2026-04-04T10:28:17.257Z</time></trkpt><trkpt lat="43.3166556" lon="12.3340679"><ele>280.0</ele><time>2026-04-04T10:28:18.263Z</time></trkpt><trkpt lat="43.316551" lon="12.3343331"><ele>280.0</ele><time>2026-04-04T10:28:19.265Z</time></trkpt><trkpt lat="43.3164427" lon="12.3346082"><ele>280.0</ele><time>2026-04-04T10:28:20.26Z</time></trkpt><trkpt lat="43.3163443" lon="12.3348759"><ele>280.0</ele><time>2026-04-04T10:28:21.26Z</time></trkpt><trkpt lat="43.3162517" lon="12.3351537"><ele>282.0</ele><time>2026-04-04T10:28:22.263Z</time></trkpt><trkpt lat="43.3161577" lon="12.3354387"><ele>284.0</ele><time>2026-04-04T10:28:23.257Z</time></trkpt><trkpt lat="43.3160617" lon="12.3357293"><ele>286.0</ele><time>2026-04-04T10:28:24.256Z</time></trkpt><trkpt lat="43.3159674" lon="12.3360214"><ele>288.0</ele><time>2026-04-04T10:28:25.254Z</time></trkpt><trkpt lat="43.3158737" lon="12.3363217"><ele>289.0</ele><time>2026-04-04T10:28:26.255Z</time></trkpt><trkpt lat="43.3157731" lon="12.3366217"><ele>290.0</ele><time>2026-04-04T10:28:27.255Z</time></trkpt><trkpt lat="43.3156765" lon="12.3369253"><ele>291.5</ele><time>2026-04-04T10:28:28.253Z</time></trkpt><trkpt lat="43.3155766" lon="12.33722"><ele>293.0</ele><time>2026-04-04T10:28:29.254Z</time></trkpt><trkpt lat="43.3154759" lon="12.3375174"><ele>293.5</ele><time>2026-04-04T10:28:30.258Z</time></trkpt><trkpt lat="43.3153831" lon="12.3378079"><ele>294.0</ele><time>2026-04-04T10:28:31.253Z</time></trkpt><trkpt lat="43.3152878" lon="12.338099"><ele>293.0</ele><time>2026-04-04T10:28:32.255Z</time></trkpt><trkpt lat="43.3151987" lon="12.338389"><ele>292.0</ele><time>2026-04-04T10:28:33.256Z</time></trkpt><trkpt lat="43.3151134" lon="12.3386797"><ele>291.0</ele><time>2026-04-04T10:28:34.255Z</time></trkpt><trkpt lat="43.3150304" lon="12.338952"><ele>290.0</ele><time>2026-04-04T10:28:35.254Z</time></trkpt><trkpt lat="43.3149449" lon="12.3392059"><ele>289.0</ele><time>2026-04-04T10:28:36.255Z</time></trkpt><trkpt lat="43.314865" lon="12.3394587"><ele>289.0</ele><time>2026-04-04T10:28:37.262Z</time></trkpt><trkpt lat="43.3147814" lon="12.339708"><ele>289.0</ele><time>2026-04-04T10:28:38.256Z</time></trkpt><trkpt lat="43.3146932" lon="12.3399556"><ele>289.0</ele><time>2026-04-04T10:28:39.259Z</time></trkpt><trkpt lat="43.3146044" lon="12.3402101"><ele>284.66666666666663</ele><time>2026-04-04T10:28:40.26Z</time></trkpt><trkpt lat="43.3145197" lon="12.3404735"><ele>280.3333333333333</ele><time>2026-04-04T10:28:41.259Z</time></trkpt><trkpt lat="43.3144391" lon="12.3407375"><ele>276.0</ele><time>2026-04-04T10:28:42.261Z</time></trkpt><trkpt lat="43.3143579" lon="12.3410003"><ele>276.0</ele><time>2026-04-04T10:28:43.26Z</time></trkpt><trkpt lat="43.3142701" lon="12.3412611"><ele>276.0</ele><time>2026-04-04T10:28:44.258Z</time></trkpt><trkpt lat="43.3141772" lon="12.341521"><ele>276.0</ele><time>2026-04-04T10:28:45.261Z</time></trkpt><trkpt lat="43.3140872" lon="12.3417843"><ele>275.3333333333333</ele><time>2026-04-04T10:28:46.262Z</time></trkpt><trkpt lat="43.3139996" lon="12.3420544"><ele>274.66666666666663</ele><time>2026-04-04T10:28:47.258Z</time></trkpt><trkpt lat="43.3139103" lon="12.3423252"><ele>274.0</ele><time>2026-04-04T10:28:48.259Z</time></trkpt><trkpt lat="43.3138258" lon="12.3425981"><ele>271.5</ele><time>2026-04-04T10:28:49.261Z</time></trkpt><trkpt lat="43.313738" lon="12.3428777"><ele>269.0</ele><time>2026-04-04T10:28:50.261Z</time></trkpt><trkpt lat="43.3136429" lon="12.3431651"><ele>269.0</ele><time>2026-04-04T10:28:51.26Z</time></trkpt><trkpt lat="43.3135491" lon="12.3434516"><ele>269.0</ele><time>2026-04-04T10:28:52.262Z</time></trkpt><trkpt lat="43.3134494" lon="12.3437492"><ele>272.5</ele><time>2026-04-04T10:28:53.26Z</time></trkpt><trkpt lat="43.3133486" lon="12.3440481"><ele>276.0</ele><time>2026-04-04T10:28:54.261Z</time></trkpt><trkpt lat="43.3132544" lon="12.3443457"><ele>276.0</ele><time>2026-04-04T10:28:55.261Z</time></trkpt><trkpt lat="43.3131564" lon="12.3446433"><ele>276.0</ele><time>2026-04-04T10:28:56.261Z</time></trkpt><trkpt lat="43.31306" lon="12.344943"><ele>285.0</ele><time>2026-04-04T10:28:57.263Z</time></trkpt><trkpt lat="43.3129655" lon="12.3452397"><ele>294.0</ele><time>2026-04-04T10:28:58.261Z</time></trkpt><trkpt lat="43.3128729" lon="12.3455268"><ele>296.0</ele><time>2026-04-04T10:28:59.261Z</time></trkpt><trkpt lat="43.312777" lon="12.3458102"><ele>298.0</ele><time>2026-04-04T10:29:00.265Z</time></trkpt><trkpt lat="43.3126839" lon="12.3460886"><ele>298.0</ele><time>2026-04-04T10:29:01.258Z</time></trkpt><trkpt lat="43.3125931" lon="12.34636"><ele>298.0</ele><time>2026-04-04T10:29:02.258Z</time></trkpt><trkpt lat="43.3125071" lon="12.3466164"><ele>298.0</ele><time>2026-04-04T10:29:03.259Z</time></trkpt><trkpt lat="43.3124238" lon="12.3468554"><ele>298.0</ele><time>2026-04-04T10:29:04.258Z</time></trkpt><trkpt lat="43.3123443" lon="12.3470694"><ele>298.0</ele><time>2026-04-04T10:29:05.251Z</time></trkpt><trkpt lat="43.3122825" lon="12.3472626"><ele>298.0</ele><time>2026-04-04T10:29:06.254Z</time></trkpt><trkpt lat="43.3122213" lon="12.3474532"><ele>298.0</ele><time>2026-04-04T10:29:07.256Z</time></trkpt><trkpt lat="43.3121578" lon="12.3476376"><ele>298.0</ele><time>2026-04-04T10:29:08.26Z</time></trkpt><trkpt lat="43.3120966" lon="12.3478156"><ele>298.0</ele><time>2026-04-04T10:29:09.254Z</time></trkpt><trkpt lat="43.3120348" lon="12.3479918"><ele>298.0</ele><time>2026-04-04T10:29:10.253Z</time></trkpt><trkpt lat="43.3119576" lon="12.3481503"><ele>298.0</ele><time>2026-04-04T10:29:11.251Z</time></trkpt><trkpt lat="43.3118665" lon="12.3482846"><ele>298.0</ele><time>2026-04-04T10:29:12.254Z</time></trkpt><trkpt lat="43.3117581" lon="12.3483671"><ele>298.0</ele><time>2026-04-04T10:29:13.255Z</time></trkpt><trkpt lat="43.3116399" lon="12.3484351"><ele>298.0</ele><time>2026-04-04T10:29:14.259Z</time></trkpt><trkpt lat="43.3115335" lon="12.348479"><ele>298.0</ele><time>2026-04-04T10:29:15.26Z</time></trkpt><trkpt lat="43.3114411" lon="12.3485266"><ele>298.0</ele><time>2026-04-04T10:29:16.27Z</time></trkpt><trkpt lat="43.3113662" lon="12.348581"><ele>298.0</ele><time>2026-04-04T10:29:17.263Z</time></trkpt><trkpt lat="43.3113219" lon="12.3486639"><ele>298.0</ele><time>2026-04-04T10:29:18.267Z</time></trkpt><trkpt lat="43.3112987" lon="12.3487503"><ele>298.0</ele><time>2026-04-04T10:29:19.259Z</time></trkpt><trkpt lat="43.3113043" lon="12.3489157"><ele>298.0</ele><time>2026-04-04T10:29:21.255Z</time></trkpt><trkpt lat="43.3113715" lon="12.3490641"><ele>297.5</ele><time>2026-04-04T10:29:23.261Z</time></trkpt><trkpt lat="43.3114441" lon="12.3491338"><ele>297.0</ele><time>2026-04-04T10:29:24.261Z</time></trkpt><trkpt lat="43.3115487" lon="12.349222"><ele>296.5</ele><time>2026-04-04T10:29:25.261Z</time></trkpt><trkpt lat="43.3116953" lon="12.3493374"><ele>296.0</ele><time>2026-04-04T10:29:26.263Z</time></trkpt><trkpt lat="43.3118691" lon="12.3494758"><ele>296.0</ele><time>2026-04-04T10:29:27.26Z</time></trkpt><trkpt lat="43.3120461" lon="12.3496234"><ele>296.0</ele><time>2026-04-04T10:29:28.262Z</time></trkpt><trkpt lat="43.3122199" lon="12.349777"><ele>296.0</ele><time>2026-04-04T10:29:29.261Z</time></trkpt><trkpt lat="43.3123874" lon="12.349932"><ele>298.6666666666667</ele><time>2026-04-04T10:29:30.267Z</time></trkpt><trkpt lat="43.3125536" lon="12.3500818"><ele>301.3333333333333</ele><time>2026-04-04T10:29:31.261Z</time></trkpt><trkpt lat="43.3127218" lon="12.3502302"><ele>304.0</ele><time>2026-04-04T10:29:32.259Z</time></trkpt><trkpt lat="43.3128863" lon="12.3503876"><ele>302.66666666666663</ele><time>2026-04-04T10:29:33.259Z</time></trkpt><trkpt lat="43.3130556" lon="12.3505425"><ele>301.3333333333333</ele><time>2026-04-04T10:29:34.258Z</time></trkpt><trkpt lat="43.3132129" lon="12.3506945"><ele>300.0</ele><time>2026-04-04T10:29:35.26Z</time></trkpt><trkpt lat="43.3133779" lon="12.3508434"><ele>302.6666666666667</ele><time>2026-04-04T10:29:36.259Z</time></trkpt><trkpt lat="43.3135435" lon="12.3510041"><ele>305.33333333333337</ele><time>2026-04-04T10:29:37.258Z</time></trkpt><trkpt lat="43.3137116" lon="12.3511643"><ele>308.0</ele><time>2026-04-04T10:29:38.258Z</time></trkpt><trkpt lat="43.3138789" lon="12.351323"><ele>308.33333333333337</ele><time>2026-04-04T10:29:39.271Z</time></trkpt><trkpt lat="43.3140525" lon="12.3514868"><ele>308.6666666666667</ele><time>2026-04-04T10:29:40.261Z</time></trkpt><trkpt lat="43.3142197" lon="12.3516431"><ele>309.0</ele><time>2026-04-04T10:29:41.26Z</time></trkpt><trkpt lat="43.3143873" lon="12.3517995"><ele>309.0</ele><time>2026-04-04T10:29:42.261Z</time></trkpt><trkpt lat="43.3145543" lon="12.351949"><ele>309.0</ele><time>2026-04-04T10:29:43.257Z</time></trkpt><trkpt lat="43.3147039" lon="12.3520856"><ele>309.0</ele><time>2026-04-04T10:29:44.259Z</time></trkpt><trkpt lat="43.3148443" lon="12.3522217"><ele>308.6666666666667</ele><time>2026-04-04T10:29:45.26Z</time></trkpt><trkpt lat="43.3149748" lon="12.3523729"><ele>308.33333333333337</ele><time>2026-04-04T10:29:46.258Z</time></trkpt><trkpt lat="43.3150982" lon="12.3525518"><ele>308.0</ele><time>2026-04-04T10:29:47.256Z</time></trkpt><trkpt lat="43.3151998" lon="12.352761"><ele>308.0</ele><time>2026-04-04T10:29:48.259Z</time></trkpt><trkpt lat="43.3152928" lon="12.3529892"><ele>308.0</ele><time>2026-04-04T10:29:49.257Z</time></trkpt><trkpt lat="43.3153912" lon="12.3532171"><ele>308.0</ele><time>2026-04-04T10:29:50.259Z</time></trkpt><trkpt lat="43.3154846" lon="12.3534367"><ele>307.33333333333337</ele><time>2026-04-04T10:29:51.258Z</time></trkpt><trkpt lat="43.3155632" lon="12.3536348"><ele>306.6666666666667</ele><time>2026-04-04T10:29:52.261Z</time></trkpt><trkpt lat="43.3156466" lon="12.3538313"><ele>306.0</ele><time>2026-04-04T10:29:53.259Z</time></trkpt><trkpt lat="43.3157275" lon="12.3540268"><ele>307.6666666666667</ele><time>2026-04-04T10:29:54.259Z</time></trkpt><trkpt lat="43.3158097" lon="12.3542275"><ele>309.33333333333337</ele><time>2026-04-04T10:29:55.265Z</time></trkpt><trkpt lat="43.3158794" lon="12.3544429"><ele>311.0</ele><time>2026-04-04T10:29:56.262Z</time></trkpt><trkpt lat="43.3159465" lon="12.3546702"><ele>311.0</ele><time>2026-04-04T10:29:57.26Z</time></trkpt><trkpt lat="43.3159927" lon="12.3549114"><ele>311.0</ele><time>2026-04-04T10:29:58.258Z</time></trkpt><trkpt lat="43.3160118" lon="12.355163"><ele>311.0</ele><time>2026-04-04T10:29:59.26Z</time></trkpt><trkpt lat="43.3160309" lon="12.3554169"><ele>311.33333333333337</ele><time>2026-04-04T10:30:00.264Z</time></trkpt><trkpt lat="43.3160572" lon="12.3556647"><ele>311.6666666666667</ele><time>2026-04-04T10:30:01.257Z</time></trkpt><trkpt lat="43.3160831" lon="12.3559029"><ele>312.0</ele><time>2026-04-04T10:30:02.259Z</time></trkpt><trkpt lat="43.3161164" lon="12.3561249"><ele>312.0</ele><time>2026-04-04T10:30:03.26Z</time></trkpt><trkpt lat="43.3161497" lon="12.3563183"><ele>312.0</ele><time>2026-04-04T10:30:04.256Z</time></trkpt><trkpt lat="43.3161843" lon="12.3564956"><ele>312.0</ele><time>2026-04-04T10:30:05.258Z</time></trkpt><trkpt lat="43.3162119" lon="12.3566534"><ele>312.0</ele><time>2026-04-04T10:30:06.265Z</time></trkpt><trkpt lat="43.3162319" lon="12.356811"><ele>312.5</ele><time>2026-04-04T10:30:07.257Z</time></trkpt><trkpt lat="43.3162397" lon="12.3569814"><ele>313.0</ele><time>2026-04-04T10:30:08.26Z</time></trkpt><trkpt lat="43.3162389" lon="12.3571745"><ele>313.5</ele><time>2026-04-04T10:30:09.261Z</time></trkpt><trkpt lat="43.3162208" lon="12.3573667"><ele>314.0</ele><time>2026-04-04T10:30:10.256Z</time></trkpt><trkpt lat="43.3161907" lon="12.3575685"><ele>314.25</ele><time>2026-04-04T10:30:11.253Z</time></trkpt><trkpt lat="43.3161518" lon="12.3577717"><ele>314.5</ele><time>2026-04-04T10:30:12.257Z</time></trkpt><trkpt lat="43.3161061" lon="12.3579582"><ele>314.75</ele><time>2026-04-04T10:30:13.259Z</time></trkpt><trkpt lat="43.316061" lon="12.3581398"><ele>315.0</ele><time>2026-04-04T10:30:14.257Z</time></trkpt><trkpt lat="43.3160175" lon="12.3583342"><ele>315.25</ele><time>2026-04-04T10:30:15.26Z</time></trkpt><trkpt lat="43.3159708" lon="12.3585282"><ele>315.5</ele><time>2026-04-04T10:30:16.258Z</time></trkpt><trkpt lat="43.3159325" lon="12.358716"><ele>315.75</ele><time>2026-04-04T10:30:17.258Z</time></trkpt><trkpt lat="43.3158929" lon="12.3589138"><ele>316.0</ele><time>2026-04-04T10:30:18.259Z</time></trkpt><trkpt lat="43.3158535" lon="12.3591264"><ele>316.5</ele><time>2026-04-04T10:30:19.259Z</time></trkpt><trkpt lat="43.3158057" lon="12.359335"><ele>317.0</ele><time>2026-04-04T10:30:20.258Z</time></trkpt><trkpt lat="43.3157609" lon="12.3595333"><ele>317.5</ele><time>2026-04-04T10:30:21.255Z</time></trkpt><trkpt lat="43.3157208" lon="12.3597074"><ele>318.0</ele><time>2026-04-04T10:30:22.257Z</time></trkpt><trkpt lat="43.3156861" lon="12.3598641"><ele>319.0</ele><time>2026-04-04T10:30:23.255Z</time></trkpt><trkpt lat="43.3156568" lon="12.3600013"><ele>320.0</ele><time>2026-04-04T10:30:24.252Z</time></trkpt><trkpt lat="43.3156352" lon="12.3601331"><ele>321.0</ele><time>2026-04-04T10:30:25.255Z</time></trkpt><trkpt lat="43.3156037" lon="12.3602625"><ele>322.0</ele><time>2026-04-04T10:30:26.253Z</time></trkpt><trkpt lat="43.3155517" lon="12.3603686"><ele>323.0</ele><time>2026-04-04T10:30:27.252Z</time></trkpt><trkpt lat="43.3154808" lon="12.3604556"><ele>323.0</ele><time>2026-04-04T10:30:28.253Z</time></trkpt><trkpt lat="43.3153928" lon="12.3604903"><ele>323.0</ele><time>2026-04-04T10:30:29.262Z</time></trkpt><trkpt lat="43.3152848" lon="12.3604928"><ele>323.0</ele><time>2026-04-04T10:30:30.257Z</time></trkpt><trkpt lat="43.3151675" lon="12.3604777"><ele>323.0</ele><time>2026-04-04T10:30:31.254Z</time></trkpt><trkpt lat="43.315055" lon="12.3604472"><ele>323.0</ele><time>2026-04-04T10:30:32.25Z</time></trkpt><trkpt lat="43.3149403" lon="12.3604066"><ele>323.0</ele><time>2026-04-04T10:30:33.252Z</time></trkpt><trkpt lat="43.3148201" lon="12.3603441"><ele>323.0</ele><time>2026-04-04T10:30:34.245Z</time></trkpt><trkpt lat="43.3146879" lon="12.3602606"><ele>323.0</ele><time>2026-04-04T10:30:35.25Z</time></trkpt><trkpt lat="43.3145604" lon="12.3601739"><ele>323.0</ele><time>2026-04-04T10:30:36.246Z</time></trkpt><trkpt lat="43.3144525" lon="12.3600801"><ele>323.0</ele><time>2026-04-04T10:30:37.254Z</time></trkpt><trkpt lat="43.3143643" lon="12.3599638"><ele>323.0</ele><time>2026-04-04T10:30:38.255Z</time></trkpt><trkpt lat="43.3143075" lon="12.3598118"><ele>323.0</ele><time>2026-04-04T10:30:39.254Z</time></trkpt><trkpt lat="43.3142632" lon="12.3596286"><ele>323.0</ele><time>2026-04-04T10:30:40.255Z</time></trkpt><trkpt lat="43.3142318" lon="12.359439"><ele>323.0</ele><time>2026-04-04T10:30:41.252Z</time></trkpt><trkpt lat="43.3142034" lon="12.3592443"><ele>323.0</ele><time>2026-04-04T10:30:42.254Z</time></trkpt><trkpt lat="43.3141787" lon="12.3590623"><ele>323.0</ele><time>2026-04-04T10:30:43.254Z</time></trkpt><trkpt lat="43.3141572" lon="12.358896"><ele>323.0</ele><time>2026-04-04T10:30:44.254Z</time></trkpt><trkpt lat="43.314126" lon="12.3587534"><ele>323.1666666666667</ele><time>2026-04-04T10:30:45.256Z</time></trkpt><trkpt lat="43.3140807" lon="12.3586394"><ele>323.33333333333337</ele><time>2026-04-04T10:30:46.253Z</time></trkpt><trkpt lat="43.3140256" lon="12.3585498"><ele>323.5</ele><time>2026-04-04T10:30:47.253Z</time></trkpt><trkpt lat="43.3139653" lon="12.3584826"><ele>323.6666666666667</ele><time>2026-04-04T10:30:48.256Z</time></trkpt><trkpt lat="43.3138847" lon="12.3584661"><ele>323.8333333333333</ele><time>2026-04-04T10:30:49.254Z</time></trkpt><trkpt lat="43.3137893" lon="12.3584899"><ele>324.0</ele><time>2026-04-04T10:30:50.256Z</time></trkpt><trkpt lat="43.3137041" lon="12.3585587"><ele>324.0</ele><time>2026-04-04T10:30:51.251Z</time></trkpt><trkpt lat="43.3136245" lon="12.3586366"><ele>324.0</ele><time>2026-04-04T10:30:52.258Z</time></trkpt><trkpt lat="43.3135663" lon="12.3587552"><ele>324.0</ele><time>2026-04-04T10:30:53.254Z</time></trkpt><trkpt lat="43.3135262" lon="12.3588889"><ele>324.0</ele><time>2026-04-04T10:30:54.257Z</time></trkpt><trkpt lat="43.3135158" lon="12.3590502"><ele>324.0</ele><time>2026-04-04T10:30:55.254Z</time></trkpt><trkpt lat="43.313511" lon="12.3592172"><ele>325.2</ele><time>2026-04-04T10:30:56.254Z</time></trkpt><trkpt lat="43.3135015" lon="12.359379"><ele>326.4</ele><time>2026-04-04T10:30:57.254Z</time></trkpt><trkpt lat="43.3134598" lon="12.359489"><ele>327.6</ele><time>2026-04-04T10:30:58.261Z</time></trkpt><trkpt lat="43.3134121" lon="12.3595526"><ele>328.8</ele><time>2026-04-04T10:30:59.254Z</time></trkpt><trkpt lat="43.3133157" lon="12.3595046"><ele>330.0</ele><time>2026-04-04T10:31:01.249Z</time></trkpt><trkpt lat="43.3131992" lon="12.3593905"><ele>334.0</ele><time>2026-04-04T10:31:02.249Z</time></trkpt><trkpt lat="43.3130537" lon="12.3592522"><ele>338.0</ele><time>2026-04-04T10:31:03.248Z</time></trkpt><trkpt lat="43.3129027" lon="12.3591084"><ele>342.0</ele><time>2026-04-04T10:31:04.251Z</time></trkpt><trkpt lat="43.3127653" lon="12.3589429"><ele>339.3333333333333</ele><time>2026-04-04T10:31:05.251Z</time></trkpt><trkpt lat="43.3126421" lon="12.3587736"><ele>336.66666666666663</ele><time>2026-04-04T10:31:06.252Z</time></trkpt><trkpt lat="43.3125291" lon="12.3586058"><ele>334.0</ele><time>2026-04-04T10:31:07.248Z</time></trkpt><trkpt lat="43.3124393" lon="12.3584163"><ele>334.0</ele><time>2026-04-04T10:31:08.254Z</time></trkpt><trkpt lat="43.3123737" lon="12.3582177"><ele>334.0</ele><time>2026-04-04T10:31:09.249Z</time></trkpt><trkpt lat="43.3123183" lon="12.3580402"><ele>334.0</ele><time>2026-04-04T10:31:10.26Z</time></trkpt><trkpt lat="43.3122551" lon="12.3579191"><ele>334.0</ele><time>2026-04-04T10:31:11.259Z</time></trkpt><trkpt lat="43.3121764" lon="12.3578535"><ele>334.79999999999995</ele><time>2026-04-04T10:31:12.254Z</time></trkpt><trkpt lat="43.3120934" lon="12.3578719"><ele>335.59999999999997</ele><time>2026-04-04T10:31:13.253Z</time></trkpt><trkpt lat="43.3120114" lon="12.3579428"><ele>336.4</ele><time>2026-04-04T10:31:14.25Z</time></trkpt><trkpt lat="43.3119568" lon="12.3580419"><ele>337.2</ele><time>2026-04-04T10:31:15.25Z</time></trkpt><trkpt lat="43.3119311" lon="12.3581585"><ele>338.0</ele><time>2026-04-04T10:31:16.249Z</time></trkpt><trkpt lat="43.3119555" lon="12.3583058"><ele>342.33333333333337</ele><time>2026-04-04T10:31:17.242Z</time></trkpt><trkpt lat="43.3119877" lon="12.3584812"><ele>346.6666666666667</ele><time>2026-04-04T10:31:18.252Z</time></trkpt><trkpt lat="43.3120199" lon="12.3586954"><ele>351.0</ele><time>2026-04-04T10:31:19.257Z</time></trkpt><trkpt lat="43.312067" lon="12.3589674"><ele>357.5</ele><time>2026-04-04T10:31:20.25Z</time></trkpt><trkpt lat="43.3121274" lon="12.3592704"><ele>364.0</ele><time>2026-04-04T10:31:21.252Z</time></trkpt><trkpt lat="43.3121799" lon="12.3595775"><ele>358.3333333333333</ele><time>2026-04-04T10:31:22.251Z</time></trkpt><trkpt lat="43.3122515" lon="12.3598727"><ele>352.6666666666667</ele><time>2026-04-04T10:31:23.258Z</time></trkpt><trkpt lat="43.3123052" lon="12.3601556"><ele>347.0</ele><time>2026-04-04T10:31:24.257Z</time></trkpt><trkpt lat="43.3123332" lon="12.3604225"><ele>347.33333333333337</ele><time>2026-04-04T10:31:25.25Z</time></trkpt><trkpt lat="43.3123274" lon="12.3606943"><ele>347.6666666666667</ele><time>2026-04-04T10:31:26.254Z</time></trkpt><trkpt lat="43.3123065" lon="12.3609675"><ele>348.0</ele><time>2026-04-04T10:31:27.252Z</time></trkpt><trkpt lat="43.3122932" lon="12.3612229"><ele>349.0</ele><time>2026-04-04T10:31:28.253Z</time></trkpt><trkpt lat="43.3122692" lon="12.3614469"><ele>350.0</ele><time>2026-04-04T10:31:29.251Z</time></trkpt><trkpt lat="43.3122501" lon="12.3616553"><ele>351.0</ele><time>2026-04-04T10:31:30.264Z</time></trkpt><trkpt lat="43.3122413" lon="12.3618561"><ele>354.5</ele><time>2026-04-04T10:31:31.251Z</time></trkpt><trkpt lat="43.3122349" lon="12.3620186"><ele>358.0</ele><time>2026-04-04T10:31:32.253Z</time></trkpt><trkpt lat="43.312213" lon="12.3621852"><ele>361.5</ele><time>2026-04-04T10:31:33.255Z</time></trkpt><trkpt lat="43.3121845" lon="12.3623565"><ele>365.0</ele><time>2026-04-04T10:31:34.26Z</time></trkpt><trkpt lat="43.3121427" lon="12.3624936"><ele>365.0</ele><time>2026-04-04T10:31:35.253Z</time></trkpt><trkpt lat="43.3120859" lon="12.3625918"><ele>365.0</ele><time>2026-04-04T10:31:36.255Z</time></trkpt><trkpt lat="43.3120187" lon="12.3626954"><ele>365.0</ele><time>2026-04-04T10:31:37.258Z</time></trkpt><trkpt lat="43.311904" lon="12.362663"><ele>365.0</ele><time>2026-04-04T10:31:38.252Z</time></trkpt><trkpt lat="43.3117983" lon="12.3625405"><ele>365.0</ele><time>2026-04-04T10:31:39.262Z</time></trkpt><trkpt lat="43.3117127" lon="12.3623857"><ele>365.0</ele><time>2026-04-04T10:31:40.248Z</time></trkpt><trkpt lat="43.3116658" lon="12.3622104"><ele>365.0</ele><time>2026-04-04T10:31:41.25Z</time></trkpt><trkpt lat="43.3116407" lon="12.3620224"><ele>365.0</ele><time>2026-04-04T10:31:42.253Z</time></trkpt><trkpt lat="43.3116402" lon="12.3617853"><ele>365.0</ele><time>2026-04-04T10:31:43.25Z</time></trkpt><trkpt lat="43.3116432" lon="12.3615365"><ele>366.6666666666667</ele><time>2026-04-04T10:31:44.262Z</time></trkpt><trkpt lat="43.3116451" lon="12.3612925"><ele>368.3333333333333</ele><time>2026-04-04T10:31:45.252Z</time></trkpt><trkpt lat="43.3116439" lon="12.3610632"><ele>370.0</ele><time>2026-04-04T10:31:46.254Z</time></trkpt><trkpt lat="43.3116369" lon="12.3608893"><ele>370.0</ele><time>2026-04-04T10:31:47.257Z</time></trkpt><trkpt lat="43.3116366" lon="12.3607497"><ele>370.0</ele><time>2026-04-04T10:31:48.251Z</time></trkpt><trkpt lat="43.3116268" lon="12.3606452"><ele>370.0</ele><time>2026-04-04T10:31:49.262Z</time></trkpt><trkpt lat="43.3115313" lon="12.3605951"><ele>370.0</ele><time>2026-04-04T10:31:51.255Z</time></trkpt><trkpt lat="43.3114624" lon="12.3606161"><ele>370.0</ele><time>2026-04-04T10:31:52.249Z</time></trkpt><trkpt lat="43.3113988" lon="12.3606639"><ele>370.0</ele><time>2026-04-04T10:31:53.249Z</time></trkpt><trkpt lat="43.3113118" lon="12.3607502"><ele>371.0</ele><time>2026-04-04T10:31:54.258Z</time></trkpt><trkpt lat="43.3112135" lon="12.3609219"><ele>372.0</ele><time>2026-04-04T10:31:55.249Z</time></trkpt><trkpt lat="43.3111187" lon="12.3611297"><ele>373.0</ele><time>2026-04-04T10:31:56.251Z</time></trkpt><trkpt lat="43.3110326" lon="12.3613587"><ele>373.3333333333333</ele><time>2026-04-04T10:31:57.254Z</time></trkpt><trkpt lat="43.3109864" lon="12.3615943"><ele>373.6666666666667</ele><time>2026-04-04T10:31:58.252Z</time></trkpt><trkpt lat="43.3109475" lon="12.3618345"><ele>374.0</ele><time>2026-04-04T10:31:59.256Z</time></trkpt><trkpt lat="43.3109335" lon="12.3620645"><ele>374.33333333333337</ele><time>2026-04-04T10:32:00.258Z</time></trkpt><trkpt lat="43.310926" lon="12.3623098"><ele>374.6666666666667</ele><time>2026-04-04T10:32:01.25Z</time></trkpt><trkpt lat="43.3109417" lon="12.3625914"><ele>375.0</ele><time>2026-04-04T10:32:02.258Z</time></trkpt><trkpt lat="43.3109662" lon="12.3628906"><ele>375.6666666666667</ele><time>2026-04-04T10:32:03.255Z</time></trkpt><trkpt lat="43.3109802" lon="12.3631904"><ele>376.33333333333337</ele><time>2026-04-04T10:32:04.26Z</time></trkpt><trkpt lat="43.3109912" lon="12.3634764"><ele>377.0</ele><time>2026-04-04T10:32:05.259Z</time></trkpt><trkpt lat="43.310987" lon="12.3637342"><ele>378.6666666666667</ele><time>2026-04-04T10:32:06.255Z</time></trkpt><trkpt lat="43.3109903" lon="12.3639634"><ele>380.3333333333333</ele><time>2026-04-04T10:32:07.26Z</time></trkpt><trkpt lat="43.3109945" lon="12.3641782"><ele>382.0</ele><time>2026-04-04T10:32:08.256Z</time></trkpt><trkpt lat="43.3110174" lon="12.3643645"><ele>382.0</ele><time>2026-04-04T10:32:09.26Z</time></trkpt><trkpt lat="43.31102" lon="12.3645693"><ele>382.0</ele><time>2026-04-04T10:32:10.254Z</time></trkpt><trkpt lat="43.3110205" lon="12.3647928"><ele>382.0</ele><time>2026-04-04T10:32:11.254Z</time></trkpt><trkpt lat="43.3109996" lon="12.3650231"><ele>382.3333333333333</ele><time>2026-04-04T10:32:12.266Z</time></trkpt><trkpt lat="43.3109772" lon="12.3652574"><ele>382.6666666666667</ele><time>2026-04-04T10:32:13.271Z</time></trkpt><trkpt lat="43.3109698" lon="12.3654949"><ele>383.0</ele><time>2026-04-04T10:32:14.27Z</time></trkpt><trkpt lat="43.3109747" lon="12.3657325"><ele>383.0</ele><time>2026-04-04T10:32:15.272Z</time></trkpt><trkpt lat="43.3109743" lon="12.3659655"><ele>383.0</ele><time>2026-04-04T10:32:16.274Z</time></trkpt><trkpt lat="43.3109792" lon="12.3661986"><ele>383.0</ele><time>2026-04-04T10:32:17.266Z</time></trkpt><trkpt lat="43.3109719" lon="12.3664044"><ele>384.0</ele><time>2026-04-04T10:32:18.266Z</time></trkpt><trkpt lat="43.3109718" lon="12.3665884"><ele>385.0</ele><time>2026-04-04T10:32:19.264Z</time></trkpt><trkpt lat="43.3109786" lon="12.3667684"><ele>386.0</ele><time>2026-04-04T10:32:20.262Z</time></trkpt><trkpt lat="43.3109964" lon="12.3669244"><ele>387.0</ele><time>2026-04-04T10:32:21.259Z</time></trkpt><trkpt lat="43.3110487" lon="12.3670619"><ele>387.0</ele><time>2026-04-04T10:32:22.262Z</time></trkpt><trkpt lat="43.3111379" lon="12.3671737"><ele>387.0</ele><time>2026-04-04T10:32:23.256Z</time></trkpt><trkpt lat="43.3112392" lon="12.3672696"><ele>387.0</ele><time>2026-04-04T10:32:24.259Z</time></trkpt><trkpt lat="43.3113617" lon="12.3673598"><ele>387.0</ele><time>2026-04-04T10:32:25.258Z</time></trkpt><trkpt lat="43.3114902" lon="12.3674629"><ele>388.0</ele><time>2026-04-04T10:32:26.256Z</time></trkpt><trkpt lat="43.311624" lon="12.3675752"><ele>389.0</ele><time>2026-04-04T10:32:27.256Z</time></trkpt><trkpt lat="43.3117505" lon="12.3676881"><ele>390.0</ele><time>2026-04-04T10:32:28.266Z</time></trkpt><trkpt lat="43.3118929" lon="12.3678007"><ele>390.0</ele><time>2026-04-04T10:32:29.27Z</time></trkpt><trkpt lat="43.3120268" lon="12.3679282"><ele>390.0</ele><time>2026-04-04T10:32:30.26Z</time></trkpt><trkpt lat="43.3121553" lon="12.3680335"><ele>390.0</ele><time>2026-04-04T10:32:31.257Z</time></trkpt><trkpt lat="43.3122788" lon="12.3681335"><ele>390.75</ele><time>2026-04-04T10:32:32.264Z</time></trkpt><trkpt lat="43.3123947" lon="12.3682356"><ele>391.5</ele><time>2026-04-04T10:32:33.262Z</time></trkpt><trkpt lat="43.3125098" lon="12.3683444"><ele>392.25</ele><time>2026-04-04T10:32:34.263Z</time></trkpt><trkpt lat="43.3126141" lon="12.3684602"><ele>393.0</ele><time>2026-04-04T10:32:35.26Z</time></trkpt><trkpt lat="43.3127027" lon="12.3686092"><ele>393.0</ele><time>2026-04-04T10:32:36.255Z</time></trkpt><trkpt lat="43.3127753" lon="12.3687776"><ele>393.0</ele><time>2026-04-04T10:32:37.253Z</time></trkpt><trkpt lat="43.3128342" lon="12.3689555"><ele>393.0</ele><time>2026-04-04T10:32:38.252Z</time></trkpt><trkpt lat="43.3128816" lon="12.3691306"><ele>393.0</ele><time>2026-04-04T10:32:39.263Z</time></trkpt><trkpt lat="43.3129309" lon="12.3693016"><ele>391.75</ele><time>2026-04-04T10:32:40.262Z</time></trkpt><trkpt lat="43.312981" lon="12.369462"><ele>390.5</ele><time>2026-04-04T10:32:41.263Z</time></trkpt><trkpt lat="43.3130571" lon="12.3696172"><ele>389.25</ele><time>2026-04-04T10:32:42.254Z</time></trkpt><trkpt lat="43.3131458" lon="12.3697802"><ele>388.0</ele><time>2026-04-04T10:32:43.255Z</time></trkpt><trkpt lat="43.3132625" lon="12.3699515"><ele>388.0</ele><time>2026-04-04T10:32:44.266Z</time></trkpt><trkpt lat="43.313402" lon="12.3701169"><ele>388.0</ele><time>2026-04-04T10:32:45.26Z</time></trkpt><trkpt lat="43.3135459" lon="12.3702785"><ele>388.0</ele><time>2026-04-04T10:32:46.261Z</time></trkpt><trkpt lat="43.3136889" lon="12.3704281"><ele>388.6666666666667</ele><time>2026-04-04T10:32:47.265Z</time></trkpt><trkpt lat="43.3138367" lon="12.3705606"><ele>389.33333333333337</ele><time>2026-04-04T10:32:48.262Z</time></trkpt><trkpt lat="43.3139962" lon="12.3706787"><ele>390.0</ele><time>2026-04-04T10:32:49.262Z</time></trkpt><trkpt lat="43.3141599" lon="12.3707941"><ele>390.0</ele><time>2026-04-04T10:32:50.263Z</time></trkpt><trkpt lat="43.3143217" lon="12.3708937"><ele>390.0</ele><time>2026-04-04T10:32:51.267Z</time></trkpt><trkpt lat="43.3144641" lon="12.3709862"><ele>390.0</ele><time>2026-04-04T10:32:52.262Z</time></trkpt><trkpt lat="43.3145953" lon="12.3710798"><ele>390.0</ele><time>2026-04-04T10:32:53.262Z</time></trkpt><trkpt lat="43.3147163" lon="12.3712041"><ele>390.0</ele><time>2026-04-04T10:32:54.255Z</time></trkpt><trkpt lat="43.3148371" lon="12.3713536"><ele>390.0</ele><time>2026-04-04T10:32:55.25Z</time></trkpt><trkpt lat="43.3149525" lon="12.3715183"><ele>389.33333333333337</ele><time>2026-04-04T10:32:56.253Z</time></trkpt><trkpt lat="43.3150616" lon="12.3716953"><ele>388.6666666666667</ele><time>2026-04-04T10:32:57.256Z</time></trkpt><trkpt lat="43.3151686" lon="12.3718668"><ele>388.0</ele><time>2026-04-04T10:32:58.261Z</time></trkpt><trkpt lat="43.3152689" lon="12.3720293"><ele>389.6666666666667</ele><time>2026-04-04T10:32:59.266Z</time></trkpt><trkpt lat="43.3153792" lon="12.3721916"><ele>391.33333333333337</ele><time>2026-04-04T10:33:00.269Z</time></trkpt><trkpt lat="43.3154773" lon="12.3723411"><ele>393.0</ele><time>2026-04-04T10:33:01.256Z</time></trkpt><trkpt lat="43.3155993" lon="12.3724645"><ele>393.0</ele><time>2026-04-04T10:33:02.257Z</time></trkpt><trkpt lat="43.3157488" lon="12.3725807"><ele>393.0</ele><time>2026-04-04T10:33:03.254Z</time></trkpt><trkpt lat="43.3159214" lon="12.372669"><ele>393.0</ele><time>2026-04-04T10:33:04.253Z</time></trkpt><trkpt lat="43.3161029" lon="12.3727682"><ele>393.0</ele><time>2026-04-04T10:33:05.256Z</time></trkpt><trkpt lat="43.3162626" lon="12.3728685"><ele>393.0</ele><time>2026-04-04T10:33:06.251Z</time></trkpt><trkpt lat="43.3164021" lon="12.3729631"><ele>393.0</ele><time>2026-04-04T10:33:07.256Z</time></trkpt><trkpt lat="43.3165342" lon="12.3730524"><ele>389.6666666666667</ele><time>2026-04-04T10:33:08.251Z</time></trkpt><trkpt lat="43.3166695" lon="12.3731395"><ele>386.33333333333337</ele><time>2026-04-04T10:33:09.263Z</time></trkpt><trkpt lat="43.3168018" lon="12.373245"><ele>383.0</ele><time>2026-04-04T10:33:10.258Z</time></trkpt><trkpt lat="43.316922" lon="12.3733719"><ele>383.0</ele><time>2026-04-04T10:33:11.261Z</time></trkpt><trkpt lat="43.3170264" lon="12.3735285"><ele>383.0</ele><time>2026-04-04T10:33:12.265Z</time></trkpt><trkpt lat="43.3171039" lon="12.3737083"><ele>383.0</ele><time>2026-04-04T10:33:13.258Z</time></trkpt><trkpt lat="43.3171801" lon="12.3739191"><ele>386.33333333333337</ele><time>2026-04-04T10:33:14.256Z</time></trkpt><trkpt lat="43.3172556" lon="12.3741247"><ele>389.6666666666667</ele><time>2026-04-04T10:33:15.257Z</time></trkpt><trkpt lat="43.3173277" lon="12.3743244"><ele>393.0</ele><time>2026-04-04T10:33:16.255Z</time></trkpt><trkpt lat="43.3173904" lon="12.3745096"><ele>388.0</ele><time>2026-04-04T10:33:17.265Z</time></trkpt><trkpt lat="43.3174773" lon="12.3746907"><ele>383.0</ele><time>2026-04-04T10:33:18.266Z</time></trkpt><trkpt lat="43.3175757" lon="12.374858"><ele>378.0</ele><time>2026-04-04T10:33:19.254Z</time></trkpt><trkpt lat="43.3177102" lon="12.3749834"><ele>378.0</ele><time>2026-04-04T10:33:20.259Z</time></trkpt><trkpt lat="43.3178463" lon="12.3751059"><ele>378.0</ele><time>2026-04-04T10:33:21.263Z</time></trkpt><trkpt lat="43.3179852" lon="12.3752317"><ele>378.0</ele><time>2026-04-04T10:33:22.26Z</time></trkpt><trkpt lat="43.3181153" lon="12.3753403"><ele>379.0</ele><time>2026-04-04T10:33:23.256Z</time></trkpt><trkpt lat="43.3182257" lon="12.3754482"><ele>380.0</ele><time>2026-04-04T10:33:24.251Z</time></trkpt><trkpt lat="43.3183205" lon="12.3755717"><ele>381.0</ele><time>2026-04-04T10:33:25.251Z</time></trkpt><trkpt lat="43.3183921" lon="12.3757238"><ele>382.0</ele><time>2026-04-04T10:33:26.254Z</time></trkpt><trkpt lat="43.3184294" lon="12.375915"><ele>382.0</ele><time>2026-04-04T10:33:27.251Z</time></trkpt><trkpt lat="43.3184531" lon="12.3761196"><ele>382.0</ele><time>2026-04-04T10:33:28.256Z</time></trkpt><trkpt lat="43.3184745" lon="12.3763155"><ele>382.0</ele><time>2026-04-04T10:33:29.263Z</time></trkpt><trkpt lat="43.3185034" lon="12.376482"><ele>382.0</ele><time>2026-04-04T10:33:30.26Z</time></trkpt><trkpt lat="43.3185508" lon="12.3766078"><ele>382.6</ele><time>2026-04-04T10:33:31.269Z</time></trkpt><trkpt lat="43.3186128" lon="12.3767154"><ele>383.20000000000005</ele><time>2026-04-04T10:33:32.265Z</time></trkpt><trkpt lat="43.3186991" lon="12.3767942"><ele>383.8</ele><time>2026-04-04T10:33:33.254Z</time></trkpt><trkpt lat="43.3188055" lon="12.3768361"><ele>384.4</ele><time>2026-04-04T10:33:34.254Z</time></trkpt><trkpt lat="43.3189371" lon="12.37687"><ele>385.0</ele><time>2026-04-04T10:33:35.252Z</time></trkpt><trkpt lat="43.3190702" lon="12.3769064"><ele>385.0</ele><time>2026-04-04T10:33:36.255Z</time></trkpt><trkpt lat="43.3191921" lon="12.3769713"><ele>385.0</ele><time>2026-04-04T10:33:37.252Z</time></trkpt><trkpt lat="43.3193103" lon="12.3770558"><ele>385.0</ele><time>2026-04-04T10:33:38.254Z</time></trkpt><trkpt lat="43.3194211" lon="12.377163"><ele>385.0</ele><time>2026-04-04T10:33:39.253Z</time></trkpt><trkpt lat="43.3195251" lon="12.3772863"><ele>382.75</ele><time>2026-04-04T10:33:40.253Z</time></trkpt><trkpt lat="43.3196328" lon="12.3774222"><ele>380.5</ele><time>2026-04-04T10:33:41.254Z</time></trkpt><trkpt lat="43.3197375" lon="12.3775487"><ele>378.25</ele><time>2026-04-04T10:33:42.258Z</time></trkpt><trkpt lat="43.3198443" lon="12.3776796"><ele>376.0</ele><time>2026-04-04T10:33:43.253Z</time></trkpt><trkpt lat="43.3199476" lon="12.3778084"><ele>376.0</ele><time>2026-04-04T10:33:44.254Z</time></trkpt><trkpt lat="43.3200557" lon="12.3779365"><ele>376.0</ele><time>2026-04-04T10:33:45.253Z</time></trkpt><trkpt lat="43.3201713" lon="12.3780792"><ele>376.0</ele><time>2026-04-04T10:33:46.26Z</time></trkpt><trkpt lat="43.3202771" lon="12.378242"><ele>372.5</ele><time>2026-04-04T10:33:47.25Z</time></trkpt><trkpt lat="43.3203723" lon="12.3784168"><ele>369.0</ele><time>2026-04-04T10:33:48.255Z</time></trkpt><trkpt lat="43.3204529" lon="12.3785879"><ele>365.5</ele><time>2026-04-04T10:33:49.252Z</time></trkpt><trkpt lat="43.3205106" lon="12.3787506"><ele>362.0</ele><time>2026-04-04T10:33:50.249Z</time></trkpt><trkpt lat="43.3205557" lon="12.3789153"><ele>363.6</ele><time>2026-04-04T10:33:51.248Z</time></trkpt><trkpt lat="43.3205766" lon="12.3790734"><ele>365.20000000000005</ele><time>2026-04-04T10:33:52.252Z</time></trkpt><trkpt lat="43.3205905" lon="12.3792145"><ele>366.8</ele><time>2026-04-04T10:33:53.251Z</time></trkpt><trkpt lat="43.3206172" lon="12.3793424"><ele>368.4</ele><time>2026-04-04T10:33:54.254Z</time></trkpt><trkpt lat="43.3206647" lon="12.3794798"><ele>370.0</ele><time>2026-04-04T10:33:55.255Z</time></trkpt><trkpt lat="43.32072" lon="12.3796245"><ele>365.25</ele><time>2026-04-04T10:33:56.254Z</time></trkpt><trkpt lat="43.3207949" lon="12.3797643"><ele>360.5</ele><time>2026-04-04T10:33:57.253Z</time></trkpt><trkpt lat="43.3208891" lon="12.3798973"><ele>355.75</ele><time>2026-04-04T10:33:58.252Z</time></trkpt><trkpt lat="43.3210012" lon="12.3800173"><ele>351.0</ele><time>2026-04-04T10:33:59.257Z</time></trkpt><trkpt lat="43.3211276" lon="12.3800966"><ele>351.0</ele><time>2026-04-04T10:34:00.255Z</time></trkpt><trkpt lat="43.3212695" lon="12.3801453"><ele>351.0</ele><time>2026-04-04T10:34:01.255Z</time></trkpt><trkpt lat="43.321419" lon="12.380168"><ele>351.0</ele><time>2026-04-04T10:34:02.249Z</time></trkpt><trkpt lat="43.321572" lon="12.380177"><ele>356.0</ele><time>2026-04-04T10:34:03.249Z</time></trkpt><trkpt lat="43.3217338" lon="12.3801735"><ele>361.0</ele><time>2026-04-04T10:34:04.25Z</time></trkpt><trkpt lat="43.3218946" lon="12.3801647"><ele>366.0</ele><time>2026-04-04T10:34:05.253Z</time></trkpt><trkpt lat="43.3220627" lon="12.3801722"><ele>366.0</ele><time>2026-04-04T10:34:06.25Z</time></trkpt><trkpt lat="43.3222216" lon="12.3802258"><ele>366.0</ele><time>2026-04-04T10:34:07.245Z</time></trkpt><trkpt lat="43.3223347" lon="12.3803151"><ele>366.0</ele><time>2026-04-04T10:34:08.248Z</time></trkpt><trkpt lat="43.3224245" lon="12.3804578"><ele>366.0</ele><time>2026-04-04T10:34:09.248Z</time></trkpt><trkpt lat="43.3224795" lon="12.3806224"><ele>362.25</ele><time>2026-04-04T10:34:10.256Z</time></trkpt><trkpt lat="43.3225322" lon="12.380788"><ele>358.5</ele><time>2026-04-04T10:34:11.252Z</time></trkpt><trkpt lat="43.3225725" lon="12.3809388"><ele>354.75</ele><time>2026-04-04T10:34:12.259Z</time></trkpt><trkpt lat="43.3226236" lon="12.381083"><ele>351.0</ele><time>2026-04-04T10:34:13.254Z</time></trkpt><trkpt lat="43.3226662" lon="12.3811967"><ele>351.0</ele><time>2026-04-04T10:34:14.253Z</time></trkpt><trkpt lat="43.3227385" lon="12.3812889"><ele>351.0</ele><time>2026-04-04T10:34:15.254Z</time></trkpt><trkpt lat="43.3228202" lon="12.3813555"><ele>351.0</ele><time>2026-04-04T10:34:16.253Z</time></trkpt><trkpt lat="43.3228998" lon="12.3814151"><ele>351.0</ele><time>2026-04-04T10:34:17.262Z</time></trkpt><trkpt lat="43.3229941" lon="12.3814184"><ele>351.0</ele><time>2026-04-04T10:34:18.252Z</time></trkpt><trkpt lat="43.3231045" lon="12.381346"><ele>352.0</ele><time>2026-04-04T10:34:19.254Z</time></trkpt><trkpt lat="43.3232105" lon="12.3812296"><ele>353.0</ele><time>2026-04-04T10:34:20.253Z</time></trkpt><trkpt lat="43.3233147" lon="12.3811072"><ele>354.0</ele><time>2026-04-04T10:34:21.247Z</time></trkpt><trkpt lat="43.3234192" lon="12.3810048"><ele>355.0</ele><time>2026-04-04T10:34:22.247Z</time></trkpt><trkpt lat="43.3235236" lon="12.3809188"><ele>355.0</ele><time>2026-04-04T10:34:23.248Z</time></trkpt><trkpt lat="43.3236344" lon="12.3808701"><ele>355.0</ele><time>2026-04-04T10:34:24.249Z</time></trkpt><trkpt lat="43.323744" lon="12.3808861"><ele>355.0</ele><time>2026-04-04T10:34:25.247Z</time></trkpt><trkpt lat="43.3238406" lon="12.3809709"><ele>355.0</ele><time>2026-04-04T10:34:26.246Z</time></trkpt><trkpt lat="43.3239082" lon="12.3811353"><ele>356.0</ele><time>2026-04-04T10:34:27.248Z</time></trkpt><trkpt lat="43.3239591" lon="12.3813171"><ele>357.0</ele><time>2026-04-04T10:34:28.253Z</time></trkpt><trkpt lat="43.3240128" lon="12.3814782"><ele>358.0</ele><time>2026-04-04T10:34:29.253Z</time></trkpt><trkpt lat="43.3240658" lon="12.3816174"><ele>359.0</ele><time>2026-04-04T10:34:30.257Z</time></trkpt><trkpt lat="43.3241318" lon="12.3816872"><ele>355.0</ele><time>2026-04-04T10:34:31.258Z</time></trkpt><trkpt lat="43.3242044" lon="12.3817101"><ele>351.0</ele><time>2026-04-04T10:34:32.258Z</time></trkpt><trkpt lat="43.3243011" lon="12.3816653"><ele>347.0</ele><time>2026-04-04T10:34:33.253Z</time></trkpt><trkpt lat="43.3244191" lon="12.3815627"><ele>343.0</ele><time>2026-04-04T10:34:34.248Z</time></trkpt><trkpt lat="43.3245272" lon="12.3814649"><ele>339.0</ele><time>2026-04-04T10:34:35.249Z</time></trkpt><trkpt lat="43.3246311" lon="12.3813828"><ele>341.0</ele><time>2026-04-04T10:34:36.248Z</time></trkpt><trkpt lat="43.3247216" lon="12.3813446"><ele>343.0</ele><time>2026-04-04T10:34:37.25Z</time></trkpt><trkpt lat="43.324817" lon="12.381365"><ele>345.0</ele><time>2026-04-04T10:34:38.25Z</time></trkpt><trkpt lat="43.3249044" lon="12.3814406"><ele>347.0</ele><time>2026-04-04T10:34:39.247Z</time></trkpt><trkpt lat="43.3249769" lon="12.3815954"><ele>349.0</ele><time>2026-04-04T10:34:40.244Z</time></trkpt><trkpt lat="43.3250556" lon="12.3817778"><ele>349.0</ele><time>2026-04-04T10:34:41.254Z</time></trkpt><trkpt lat="43.3251254" lon="12.3819468"><ele>349.0</ele><time>2026-04-04T10:34:42.252Z</time></trkpt><trkpt lat="43.3251954" lon="12.3820975"><ele>349.0</ele><time>2026-04-04T10:34:43.25Z</time></trkpt><trkpt lat="43.3252698" lon="12.38223"><ele>349.0</ele><time>2026-04-04T10:34:44.249Z</time></trkpt><trkpt lat="43.3253536" lon="12.3823567"><ele>345.5</ele><time>2026-04-04T10:34:45.252Z</time></trkpt><trkpt lat="43.3254636" lon="12.3824517"><ele>342.0</ele><time>2026-04-04T10:34:46.249Z</time></trkpt><trkpt lat="43.325575" lon="12.3825341"><ele>338.5</ele><time>2026-04-04T10:34:47.268Z</time></trkpt><trkpt lat="43.325686" lon="12.3825991"><ele>335.0</ele><time>2026-04-04T10:34:48.256Z</time></trkpt><trkpt lat="43.325797" lon="12.3826525"><ele>335.0</ele><time>2026-04-04T10:34:49.262Z</time></trkpt><trkpt lat="43.3259106" lon="12.3826851"><ele>335.0</ele><time>2026-04-04T10:34:50.251Z</time></trkpt><trkpt lat="43.3260278" lon="12.3826942"><ele>335.0</ele><time>2026-04-04T10:34:51.254Z</time></trkpt><trkpt lat="43.3261568" lon="12.3826645"><ele>335.0</ele><time>2026-04-04T10:34:52.247Z</time></trkpt><trkpt lat="43.3262867" lon="12.382603"><ele>335.25</ele><time>2026-04-04T10:34:53.247Z</time></trkpt><trkpt lat="43.3264164" lon="12.3825328"><ele>335.5</ele><time>2026-04-04T10:34:54.25Z</time></trkpt><trkpt lat="43.3265406" lon="12.3824612"><ele>335.75</ele><time>2026-04-04T10:34:55.251Z</time></trkpt><trkpt lat="43.3266471" lon="12.3824096"><ele>336.0</ele><time>2026-04-04T10:34:56.254Z</time></trkpt><trkpt lat="43.3267611" lon="12.3824146"><ele>336.0</ele><time>2026-04-04T10:34:57.248Z</time></trkpt><trkpt lat="43.3268448" lon="12.3824736"><ele>336.0</ele><time>2026-04-04T10:34:58.245Z</time></trkpt><trkpt lat="43.3269111" lon="12.382577"><ele>336.0</ele><time>2026-04-04T10:34:59.246Z</time></trkpt><trkpt lat="43.326962" lon="12.3826998"><ele>336.0</ele><time>2026-04-04T10:35:00.249Z</time></trkpt><trkpt lat="43.3270011" lon="12.3828347"><ele>336.0</ele><time>2026-04-04T10:35:01.251Z</time></trkpt><trkpt lat="43.326992" lon="12.3829652"><ele>335.25</ele><time>2026-04-04T10:35:02.248Z</time></trkpt><trkpt lat="43.3269254" lon="12.383099"><ele>334.5</ele><time>2026-04-04T10:35:03.252Z</time></trkpt><trkpt lat="43.3268142" lon="12.383237"><ele>333.75</ele><time>2026-04-04T10:35:04.249Z</time></trkpt><trkpt lat="43.3266914" lon="12.3833926"><ele>333.0</ele><time>2026-04-04T10:35:05.249Z</time></trkpt><trkpt lat="43.3265639" lon="12.3835436"><ele>333.0</ele><time>2026-04-04T10:35:06.245Z</time></trkpt><trkpt lat="43.3264522" lon="12.3836896"><ele>333.0</ele><time>2026-04-04T10:35:07.252Z</time></trkpt><trkpt lat="43.3263675" lon="12.3838455"><ele>333.0</ele><time>2026-04-04T10:35:08.248Z</time></trkpt><trkpt lat="43.3263189" lon="12.3839853"><ele>333.0</ele><time>2026-04-04T10:35:09.258Z</time></trkpt><trkpt lat="43.3263211" lon="12.3841115"><ele>331.25</ele><time>2026-04-04T10:35:10.259Z</time></trkpt><trkpt lat="43.3263613" lon="12.3842462"><ele>329.5</ele><time>2026-04-04T10:35:11.25Z</time></trkpt><trkpt lat="43.3264414" lon="12.3843742"><ele>327.75</ele><time>2026-04-04T10:35:12.25Z</time></trkpt><trkpt lat="43.3265406" lon="12.3844691"><ele>326.0</ele><time>2026-04-04T10:35:13.26Z</time></trkpt><trkpt lat="43.3266745" lon="12.3845239"><ele>326.0</ele><time>2026-04-04T10:35:14.269Z</time></trkpt><trkpt lat="43.3268044" lon="12.3845615"><ele>326.0</ele><time>2026-04-04T10:35:15.266Z</time></trkpt><trkpt lat="43.3269169" lon="12.384605"><ele>326.0</ele><time>2026-04-04T10:35:16.256Z</time></trkpt><trkpt lat="43.3270186" lon="12.3846699"><ele>326.0</ele><time>2026-04-04T10:35:17.25Z</time></trkpt><trkpt lat="43.3270947" lon="12.3847577"><ele>323.8</ele><time>2026-04-04T10:35:18.245Z</time></trkpt><trkpt lat="43.3271443" lon="12.3848603"><ele>321.6</ele><time>2026-04-04T10:35:19.252Z</time></trkpt><trkpt lat="43.3271682" lon="12.3849835"><ele>319.4</ele><time>2026-04-04T10:35:20.25Z</time></trkpt><trkpt lat="43.3271648" lon="12.3851206"><ele>317.2</ele><time>2026-04-04T10:35:21.243Z</time></trkpt><trkpt lat="43.3270976" lon="12.3852514"><ele>315.0</ele><time>2026-04-04T10:35:22.243Z</time></trkpt><trkpt lat="43.3269963" lon="12.3853812"><ele>315.0</ele><time>2026-04-04T10:35:23.25Z</time></trkpt><trkpt lat="43.3268988" lon="12.3855058"><ele>315.0</ele><time>2026-04-04T10:35:24.249Z</time></trkpt><trkpt lat="43.3267957" lon="12.3856273"><ele>315.0</ele><time>2026-04-04T10:35:25.246Z</time></trkpt><trkpt lat="43.3267008" lon="12.3857556"><ele>315.0</ele><time>2026-04-04T10:35:26.249Z</time></trkpt><trkpt lat="43.3266455" lon="12.3859181"><ele>315.0</ele><time>2026-04-04T10:35:27.251Z</time></trkpt><trkpt lat="43.3266163" lon="12.3861034"><ele>315.0</ele><time>2026-04-04T10:35:28.258Z</time></trkpt><trkpt lat="43.32662" lon="12.3863187"><ele>315.0</ele><time>2026-04-04T10:35:29.257Z</time></trkpt><trkpt lat="43.3266291" lon="12.3865535"><ele>312.0</ele><time>2026-04-04T10:35:30.265Z</time></trkpt><trkpt lat="43.3266327" lon="12.3868016"><ele>309.0</ele><time>2026-04-04T10:35:31.259Z</time></trkpt><trkpt lat="43.326633" lon="12.3870592"><ele>306.0</ele><time>2026-04-04T10:35:32.262Z</time></trkpt><trkpt lat="43.3266393" lon="12.3873223"><ele>303.6666666666667</ele><time>2026-04-04T10:35:33.261Z</time></trkpt><trkpt lat="43.3266474" lon="12.387577"><ele>301.33333333333337</ele><time>2026-04-04T10:35:34.268Z</time></trkpt><trkpt lat="43.3266508" lon="12.3878174"><ele>299.0</ele><time>2026-04-04T10:35:35.265Z</time></trkpt><trkpt lat="43.3266596" lon="12.3880365"><ele>298.75</ele><time>2026-04-04T10:35:36.262Z</time></trkpt><trkpt lat="43.326675" lon="12.388233"><ele>298.5</ele><time>2026-04-04T10:35:37.262Z</time></trkpt><trkpt lat="43.3266893" lon="12.3884048"><ele>298.25</ele><time>2026-04-04T10:35:38.262Z</time></trkpt><trkpt lat="43.3267064" lon="12.3885611"><ele>298.0</ele><time>2026-04-04T10:35:39.27Z</time></trkpt><trkpt lat="43.3267392" lon="12.3886888"><ele>298.0</ele><time>2026-04-04T10:35:40.272Z</time></trkpt><trkpt lat="43.3268217" lon="12.3888006"><ele>298.0</ele><time>2026-04-04T10:35:41.261Z</time></trkpt><trkpt lat="43.3269152" lon="12.388916"><ele>298.0</ele><time>2026-04-04T10:35:42.258Z</time></trkpt><trkpt lat="43.327016" lon="12.3890182"><ele>298.0</ele><time>2026-04-04T10:35:43.257Z</time></trkpt><trkpt lat="43.3271068" lon="12.3891359"><ele>296.6</ele><time>2026-04-04T10:35:44.251Z</time></trkpt><trkpt lat="43.3271679" lon="12.3892603"><ele>295.20000000000005</ele><time>2026-04-04T10:35:45.254Z</time></trkpt><trkpt lat="43.327209" lon="12.3893883"><ele>293.8</ele><time>2026-04-04T10:35:46.259Z</time></trkpt><trkpt lat="43.3271946" lon="12.3895186"><ele>292.40000000000003</ele><time>2026-04-04T10:35:47.256Z</time></trkpt><trkpt lat="43.3271196" lon="12.3896549"><ele>291.0</ele><time>2026-04-04T10:35:48.257Z</time></trkpt><trkpt lat="43.3270214" lon="12.3898158"><ele>290.3333333333333</ele><time>2026-04-04T10:35:49.256Z</time></trkpt><trkpt lat="43.3269334" lon="12.3899898"><ele>289.66666666666663</ele><time>2026-04-04T10:35:50.257Z</time></trkpt><trkpt lat="43.32684" lon="12.3901804"><ele>289.0</ele><time>2026-04-04T10:35:51.254Z</time></trkpt><trkpt lat="43.3267462" lon="12.3903868"><ele>289.66666666666663</ele><time>2026-04-04T10:35:52.252Z</time></trkpt><trkpt lat="43.3266662" lon="12.3905827"><ele>290.3333333333333</ele><time>2026-04-04T10:35:53.25Z</time></trkpt><trkpt lat="43.3266014" lon="12.3907783"><ele>291.0</ele><time>2026-04-04T10:35:54.249Z</time></trkpt><trkpt lat="43.3265459" lon="12.3909749"><ele>291.0</ele><time>2026-04-04T10:35:55.253Z</time></trkpt><trkpt lat="43.3265" lon="12.3911621"><ele>291.0</ele><time>2026-04-04T10:35:56.251Z</time></trkpt><trkpt lat="43.3264618" lon="12.3913483"><ele>291.0</ele><time>2026-04-04T10:35:57.252Z</time></trkpt><trkpt lat="43.3264324" lon="12.3915322"><ele>291.0</ele><time>2026-04-04T10:35:58.251Z</time></trkpt><trkpt lat="43.3263976" lon="12.3917111"><ele>289.40000000000003</ele><time>2026-04-04T10:35:59.252Z</time></trkpt><trkpt lat="43.3263613" lon="12.391873"><ele>287.8</ele><time>2026-04-04T10:36:00.262Z</time></trkpt><trkpt lat="43.32633" lon="12.3919968"><ele>286.20000000000005</ele><time>2026-04-04T10:36:01.254Z</time></trkpt><trkpt lat="43.3263144" lon="12.3920889"><ele>284.6</ele><time>2026-04-04T10:36:02.249Z</time></trkpt><trkpt lat="43.3262996" lon="12.392187"><ele>283.0</ele><time>2026-04-04T10:36:04.251Z</time></trkpt><trkpt lat="43.3262452" lon="12.3923347"><ele>282.75</ele><time>2026-04-04T10:36:08.25Z</time></trkpt><trkpt lat="43.3262219" lon="12.392463"><ele>282.5</ele><time>2026-04-04T10:36:09.252Z</time></trkpt><trkpt lat="43.3261997" lon="12.3926246"><ele>282.25</ele><time>2026-04-04T10:36:10.252Z</time></trkpt><trkpt lat="43.3261788" lon="12.392808"><ele>282.0</ele><time>2026-04-04T10:36:11.252Z</time></trkpt><trkpt lat="43.3261671" lon="12.3930049"><ele>282.3333333333333</ele><time>2026-04-04T10:36:12.251Z</time></trkpt><trkpt lat="43.3261532" lon="12.3932158"><ele>282.66666666666663</ele><time>2026-04-04T10:36:13.255Z</time></trkpt><trkpt lat="43.3261386" lon="12.3934681"><ele>283.0</ele><time>2026-04-04T10:36:14.25Z</time></trkpt><trkpt lat="43.326118" lon="12.3937483"><ele>283.0</ele><time>2026-04-04T10:36:15.251Z</time></trkpt><trkpt lat="43.3260937" lon="12.394044"><ele>283.0</ele><time>2026-04-04T10:36:16.255Z</time></trkpt><trkpt lat="43.326069" lon="12.3943468"><ele>283.0</ele><time>2026-04-04T10:36:17.258Z</time></trkpt><trkpt lat="43.3260481" lon="12.394637"><ele>282.66666666666663</ele><time>2026-04-04T10:36:18.258Z</time></trkpt><trkpt lat="43.3260161" lon="12.3949214"><ele>282.3333333333333</ele><time>2026-04-04T10:36:19.257Z</time></trkpt><trkpt lat="43.3259929" lon="12.3951978"><ele>282.0</ele><time>2026-04-04T10:36:20.263Z</time></trkpt><trkpt lat="43.3259695" lon="12.3954643"><ele>282.0</ele><time>2026-04-04T10:36:21.261Z</time></trkpt><trkpt lat="43.3259443" lon="12.3957193"><ele>282.0</ele><time>2026-04-04T10:36:22.258Z</time></trkpt><trkpt lat="43.3259231" lon="12.3959653"><ele>282.0</ele><time>2026-04-04T10:36:23.261Z</time></trkpt><trkpt lat="43.3259057" lon="12.3962161"><ele>281.6666666666667</ele><time>2026-04-04T10:36:24.255Z</time></trkpt><trkpt lat="43.3258868" lon="12.3964709"><ele>281.33333333333337</ele><time>2026-04-04T10:36:25.267Z</time></trkpt><trkpt lat="43.325862" lon="12.3967358"><ele>281.0</ele><time>2026-04-04T10:36:26.265Z</time></trkpt><trkpt lat="43.3258424" lon="12.3970125"><ele>281.6666666666667</ele><time>2026-04-04T10:36:27.265Z</time></trkpt><trkpt lat="43.3258239" lon="12.3972992"><ele>282.3333333333333</ele><time>2026-04-04T10:36:28.266Z</time></trkpt><trkpt lat="43.3257991" lon="12.3975829"><ele>283.0</ele><time>2026-04-04T10:36:29.264Z</time></trkpt><trkpt lat="43.3257699" lon="12.3978443"><ele>283.3333333333333</ele><time>2026-04-04T10:36:30.265Z</time></trkpt><trkpt lat="43.3257457" lon="12.3980982"><ele>283.6666666666667</ele><time>2026-04-04T10:36:31.254Z</time></trkpt><trkpt lat="43.3257213" lon="12.3983615"><ele>284.0</ele><time>2026-04-04T10:36:32.254Z</time></trkpt><trkpt lat="43.3256966" lon="12.3986179"><ele>285.33333333333337</ele><time>2026-04-04T10:36:33.254Z</time></trkpt><trkpt lat="43.3256765" lon="12.3988519"><ele>286.6666666666667</ele><time>2026-04-04T10:36:34.255Z</time></trkpt><trkpt lat="43.3256597" lon="12.3990804"><ele>288.0</ele><time>2026-04-04T10:36:35.261Z</time></trkpt><trkpt lat="43.3256538" lon="12.3993186"><ele>288.0</ele><time>2026-04-04T10:36:36.258Z</time></trkpt><trkpt lat="43.3256651" lon="12.3995665"><ele>288.0</ele><time>2026-04-04T10:36:37.256Z</time></trkpt><trkpt lat="43.3256952" lon="12.3998279"><ele>288.0</ele><time>2026-04-04T10:36:38.253Z</time></trkpt><trkpt lat="43.3257392" lon="12.4000979"><ele>288.0</ele><time>2026-04-04T10:36:39.253Z</time></trkpt><trkpt lat="43.3257856" lon="12.400379"><ele>288.0</ele><time>2026-04-04T10:36:40.255Z</time></trkpt><trkpt lat="43.3258294" lon="12.4006452"><ele>288.0</ele><time>2026-04-04T10:36:41.258Z</time></trkpt><trkpt lat="43.3258725" lon="12.4009002"><ele>289.0</ele><time>2026-04-04T10:36:42.254Z</time></trkpt><trkpt lat="43.3259135" lon="12.40114"><ele>290.0</ele><time>2026-04-04T10:36:43.254Z</time></trkpt><trkpt lat="43.3259724" lon="12.4013609"><ele>291.0</ele><time>2026-04-04T10:36:44.253Z</time></trkpt><trkpt lat="43.3260415" lon="12.401573"><ele>291.6666666666667</ele><time>2026-04-04T10:36:45.25Z</time></trkpt><trkpt lat="43.3261427" lon="12.4017661"><ele>292.33333333333337</ele><time>2026-04-04T10:36:46.248Z</time></trkpt><trkpt lat="43.3262793" lon="12.4019402"><ele>293.0</ele><time>2026-04-04T10:36:47.245Z</time></trkpt><trkpt lat="43.3264446" lon="12.4021126"><ele>293.33333333333337</ele><time>2026-04-04T10:36:48.247Z</time></trkpt><trkpt lat="43.326621" lon="12.402284"><ele>293.6666666666667</ele><time>2026-04-04T10:36:49.252Z</time></trkpt><trkpt lat="43.3268042" lon="12.402454"><ele>294.0</ele><time>2026-04-04T10:36:50.253Z</time></trkpt><trkpt lat="43.3269838" lon="12.402594"><ele>294.0</ele><time>2026-04-04T10:36:51.252Z</time></trkpt><trkpt lat="43.3271652" lon="12.4027111"><ele>294.0</ele><time>2026-04-04T10:36:52.251Z</time></trkpt><trkpt lat="43.3273559" lon="12.4028114"><ele>294.0</ele><time>2026-04-04T10:36:53.246Z</time></trkpt><trkpt lat="43.3275674" lon="12.4028833"><ele>292.5</ele><time>2026-04-04T10:36:54.248Z</time></trkpt><trkpt lat="43.3277873" lon="12.4029531"><ele>291.0</ele><time>2026-04-04T10:36:55.247Z</time></trkpt><trkpt lat="43.3280155" lon="12.4030208"><ele>292.3333333333333</ele><time>2026-04-04T10:36:56.25Z</time></trkpt><trkpt lat="43.3282283" lon="12.4031099"><ele>293.66666666666663</ele><time>2026-04-04T10:36:57.261Z</time></trkpt><trkpt lat="43.3284305" lon="12.4032344"><ele>295.0</ele><time>2026-04-04T10:36:58.253Z</time></trkpt><trkpt lat="43.3286211" lon="12.4033712"><ele>295.0</ele><time>2026-04-04T10:36:59.254Z</time></trkpt><trkpt lat="43.3288206" lon="12.4035439"><ele>295.0</ele><time>2026-04-04T10:37:00.258Z</time></trkpt><trkpt lat="43.3289878" lon="12.4037636"><ele>296.0</ele><time>2026-04-04T10:37:01.251Z</time></trkpt><trkpt lat="43.3291248" lon="12.4040003"><ele>297.0</ele><time>2026-04-04T10:37:02.253Z</time></trkpt><trkpt lat="43.3292408" lon="12.4042507"><ele>298.0</ele><time>2026-04-04T10:37:03.254Z</time></trkpt><trkpt lat="43.3293042" lon="12.4045393"><ele>298.0</ele><time>2026-04-04T10:37:04.253Z</time></trkpt><trkpt lat="43.3293328" lon="12.4048655"><ele>298.0</ele><time>2026-04-04T10:37:05.25Z</time></trkpt><trkpt lat="43.3293529" lon="12.4051921"><ele>296.5</ele><time>2026-04-04T10:37:06.25Z</time></trkpt><trkpt lat="43.3293897" lon="12.4055016"><ele>295.0</ele><time>2026-04-04T10:37:07.262Z</time></trkpt><trkpt lat="43.3294344" lon="12.4058036"><ele>295.0</ele><time>2026-04-04T10:37:08.252Z</time></trkpt><trkpt lat="43.3295129" lon="12.4060743"><ele>295.0</ele><time>2026-04-04T10:37:09.25Z</time></trkpt><trkpt lat="43.3296114" lon="12.4063164"><ele>295.0</ele><time>2026-04-04T10:37:10.249Z</time></trkpt><trkpt lat="43.3297399" lon="12.4065249"><ele>296.66666666666663</ele><time>2026-04-04T10:37:11.247Z</time></trkpt><trkpt lat="43.3298858" lon="12.4067119"><ele>298.3333333333333</ele><time>2026-04-04T10:37:12.248Z</time></trkpt><trkpt lat="43.3300692" lon="12.4068715"><ele>300.0</ele><time>2026-04-04T10:37:13.248Z</time></trkpt><trkpt lat="43.3302839" lon="12.4070227"><ele>300.0</ele><time>2026-04-04T10:37:14.249Z</time></trkpt><trkpt lat="43.3305188" lon="12.4071727"><ele>300.0</ele><time>2026-04-04T10:37:15.251Z</time></trkpt><trkpt lat="43.3307494" lon="12.4073256"><ele>300.0</ele><time>2026-04-04T10:37:16.253Z</time></trkpt><trkpt lat="43.3309731" lon="12.4074711"><ele>300.0</ele><time>2026-04-04T10:37:17.249Z</time></trkpt><trkpt lat="43.3311792" lon="12.407617"><ele>300.0</ele><time>2026-04-04T10:37:18.252Z</time></trkpt><trkpt lat="43.3313723" lon="12.4077764"><ele>300.0</ele><time>2026-04-04T10:37:19.248Z</time></trkpt><trkpt lat="43.3315642" lon="12.4079666"><ele>302.0</ele><time>2026-04-04T10:37:20.252Z</time></trkpt><trkpt lat="43.3317493" lon="12.4082025"><ele>304.0</ele><time>2026-04-04T10:37:21.25Z</time></trkpt><trkpt lat="43.3319117" lon="12.4084751"><ele>304.0</ele><time>2026-04-04T10:37:22.253Z</time></trkpt><trkpt lat="43.3320714" lon="12.4087446"><ele>304.0</ele><time>2026-04-04T10:37:23.263Z</time></trkpt><trkpt lat="43.3322394" lon="12.4090007"><ele>309.5</ele><time>2026-04-04T10:37:24.254Z</time></trkpt><trkpt lat="43.3324094" lon="12.4092434"><ele>315.0</ele><time>2026-04-04T10:37:25.255Z</time></trkpt><trkpt lat="43.3325788" lon="12.409483"><ele>311.3333333333333</ele><time>2026-04-04T10:37:26.257Z</time></trkpt><trkpt lat="43.3327414" lon="12.4097015"><ele>307.66666666666663</ele><time>2026-04-04T10:37:27.253Z</time></trkpt><trkpt lat="43.3329025" lon="12.4099014"><ele>304.0</ele><time>2026-04-04T10:37:28.248Z</time></trkpt><trkpt lat="43.3330669" lon="12.4100889"><ele>305.3333333333333</ele><time>2026-04-04T10:37:29.251Z</time></trkpt><trkpt lat="43.3332263" lon="12.4102689"><ele>306.6666666666667</ele><time>2026-04-04T10:37:30.251Z</time></trkpt><trkpt lat="43.3333836" lon="12.4104448"><ele>308.0</ele><time>2026-04-04T10:37:31.247Z</time></trkpt><trkpt lat="43.3335257" lon="12.4106147"><ele>308.0</ele><time>2026-04-04T10:37:32.246Z</time></trkpt><trkpt lat="43.3336412" lon="12.4107758"><ele>308.0</ele><time>2026-04-04T10:37:33.246Z</time></trkpt><trkpt lat="43.3337133" lon="12.4108916"><ele>308.0</ele><time>2026-04-04T10:37:34.244Z</time></trkpt><trkpt lat="43.3337606" lon="12.4109777"><ele>308.0</ele><time>2026-04-04T10:37:35.238Z</time></trkpt><trkpt lat="43.3338528" lon="12.4111047"><ele>309.75</ele><time>2026-04-04T10:37:37.246Z</time></trkpt><trkpt lat="43.333905" lon="12.4112017"><ele>311.5</ele><time>2026-04-04T10:37:38.246Z</time></trkpt><trkpt lat="43.3339668" lon="12.4113241"><ele>313.25</ele><time>2026-04-04T10:37:39.243Z</time></trkpt><trkpt lat="43.3340538" lon="12.4114635"><ele>315.0</ele><time>2026-04-04T10:37:40.243Z</time></trkpt><trkpt lat="43.3341389" lon="12.4116251"><ele>315.0</ele><time>2026-04-04T10:37:41.244Z</time></trkpt><trkpt lat="43.3342227" lon="12.4117965"><ele>315.0</ele><time>2026-04-04T10:37:42.244Z</time></trkpt><trkpt lat="43.3343174" lon="12.4119845"><ele>315.0</ele><time>2026-04-04T10:37:43.244Z</time></trkpt><trkpt lat="43.3344115" lon="12.4121961"><ele>312.0</ele><time>2026-04-04T10:37:44.246Z</time></trkpt><trkpt lat="43.3345096" lon="12.4124127"><ele>309.0</ele><time>2026-04-04T10:37:45.247Z</time></trkpt><trkpt lat="43.3346101" lon="12.4126172"><ele>306.0</ele><time>2026-04-04T10:37:46.254Z</time></trkpt><trkpt lat="43.3347106" lon="12.4128152"><ele>307.6666666666667</ele><time>2026-04-04T10:37:47.254Z</time></trkpt><trkpt lat="43.3348081" lon="12.4129991"><ele>309.33333333333337</ele><time>2026-04-04T10:37:48.249Z</time></trkpt><trkpt lat="43.3348992" lon="12.4131634"><ele>311.0</ele><time>2026-04-04T10:37:49.251Z</time></trkpt><trkpt lat="43.3350129" lon="12.4132936"><ele>311.0</ele><time>2026-04-04T10:37:50.249Z</time></trkpt><trkpt lat="43.335149" lon="12.4134034"><ele>311.0</ele><time>2026-04-04T10:37:51.25Z</time></trkpt><trkpt lat="43.3353173" lon="12.4134767"><ele>311.0</ele><time>2026-04-04T10:37:52.249Z</time></trkpt><trkpt lat="43.3354903" lon="12.4135341"><ele>314.6666666666667</ele><time>2026-04-04T10:37:53.254Z</time></trkpt><trkpt lat="43.3356772" lon="12.4135762"><ele>318.3333333333333</ele><time>2026-04-04T10:37:54.248Z</time></trkpt><trkpt lat="43.3358601" lon="12.4136158"><ele>322.0</ele><time>2026-04-04T10:37:55.248Z</time></trkpt><trkpt lat="43.3360395" lon="12.4136921"><ele>322.0</ele><time>2026-04-04T10:37:56.247Z</time></trkpt><trkpt lat="43.3362081" lon="12.4138082"><ele>322.0</ele><time>2026-04-04T10:37:57.255Z</time></trkpt><trkpt lat="43.3363648" lon="12.4139755"><ele>322.0</ele><time>2026-04-04T10:37:58.246Z</time></trkpt><trkpt lat="43.3365167" lon="12.4141726"><ele>321.0</ele><time>2026-04-04T10:37:59.25Z</time></trkpt><trkpt lat="43.3366739" lon="12.4144137"><ele>320.0</ele><time>2026-04-04T10:38:00.249Z</time></trkpt><trkpt lat="43.3368344" lon="12.4146488"><ele>322.0</ele><time>2026-04-04T10:38:01.247Z</time></trkpt><trkpt lat="43.3369914" lon="12.4148787"><ele>324.0</ele><time>2026-04-04T10:38:02.246Z</time></trkpt><trkpt lat="43.3371341" lon="12.4150865"><ele>326.0</ele><time>2026-04-04T10:38:03.245Z</time></trkpt><trkpt lat="43.3372668" lon="12.4152883"><ele>326.0</ele><time>2026-04-04T10:38:04.243Z</time></trkpt><trkpt lat="43.3373929" lon="12.4154763"><ele>326.0</ele><time>2026-04-04T10:38:05.248Z</time></trkpt><trkpt lat="43.3375126" lon="12.4156478"><ele>326.0</ele><time>2026-04-04T10:38:06.247Z</time></trkpt><trkpt lat="43.3376315" lon="12.4158405"><ele>322.0</ele><time>2026-04-04T10:38:07.246Z</time></trkpt><trkpt lat="43.3377424" lon="12.4160656"><ele>318.0</ele><time>2026-04-04T10:38:08.245Z</time></trkpt><trkpt lat="43.3378346" lon="12.4163226"><ele>314.0</ele><time>2026-04-04T10:38:09.246Z</time></trkpt><trkpt lat="43.3379048" lon="12.4166064"><ele>315.6666666666667</ele><time>2026-04-04T10:38:10.248Z</time></trkpt><trkpt lat="43.3379803" lon="12.4168715"><ele>317.3333333333333</ele><time>2026-04-04T10:38:11.247Z</time></trkpt><trkpt lat="43.3380653" lon="12.4171354"><ele>319.0</ele><time>2026-04-04T10:38:12.248Z</time></trkpt><trkpt lat="43.3381644" lon="12.4173792"><ele>319.0</ele><time>2026-04-04T10:38:13.25Z</time></trkpt><trkpt lat="43.3382789" lon="12.4176277"><ele>319.0</ele><time>2026-04-04T10:38:14.252Z</time></trkpt><trkpt lat="43.3384211" lon="12.4178747"><ele>319.0</ele><time>2026-04-04T10:38:15.254Z</time></trkpt><trkpt lat="43.3386042" lon="12.4181155"><ele>321.0</ele><time>2026-04-04T10:38:16.249Z</time></trkpt><trkpt lat="43.3387975" lon="12.4183203"><ele>323.0</ele><time>2026-04-04T10:38:17.25Z</time></trkpt><trkpt lat="43.3389986" lon="12.4184921"><ele>323.0</ele><time>2026-04-04T10:38:18.249Z</time></trkpt><trkpt lat="43.3392059" lon="12.418647"><ele>323.0</ele><time>2026-04-04T10:38:19.246Z</time></trkpt><trkpt lat="43.3394062" lon="12.4187898"><ele>323.0</ele><time>2026-04-04T10:38:20.246Z</time></trkpt><trkpt lat="43.3396185" lon="12.4189276"><ele>323.0</ele><time>2026-04-04T10:38:21.248Z</time></trkpt><trkpt lat="43.3398306" lon="12.4190943"><ele>323.0</ele><time>2026-04-04T10:38:22.249Z</time></trkpt><trkpt lat="43.3400051" lon="12.4192721"><ele>323.0</ele><time>2026-04-04T10:38:23.25Z</time></trkpt><trkpt lat="43.3401169" lon="12.4194088"><ele>323.0</ele><time>2026-04-04T10:38:24.251Z</time></trkpt><trkpt lat="43.3402047" lon="12.4195215"><ele>323.0</ele><time>2026-04-04T10:38:25.246Z</time></trkpt><trkpt lat="43.340294" lon="12.4196338"><ele>323.0</ele><time>2026-04-04T10:38:26.25Z</time></trkpt><trkpt lat="43.3404011" lon="12.41974"><ele>323.0</ele><time>2026-04-04T10:38:27.25Z</time></trkpt><trkpt lat="43.340516" lon="12.419848"><ele>323.0</ele><time>2026-04-04T10:38:28.249Z</time></trkpt><trkpt lat="43.3406386" lon="12.4199553"><ele>325.0</ele><time>2026-04-04T10:38:29.25Z</time></trkpt><trkpt lat="43.3407627" lon="12.4200734"><ele>327.0</ele><time>2026-04-04T10:38:30.253Z</time></trkpt><trkpt lat="43.3408854" lon="12.4201976"><ele>329.0</ele><time>2026-04-04T10:38:31.247Z</time></trkpt><trkpt lat="43.3410105" lon="12.4203148"><ele>329.0</ele><time>2026-04-04T10:38:32.249Z</time></trkpt><trkpt lat="43.3411424" lon="12.4204163"><ele>329.0</ele><time>2026-04-04T10:38:33.248Z</time></trkpt><trkpt lat="43.3412953" lon="12.4205115"><ele>329.0</ele><time>2026-04-04T10:38:34.245Z</time></trkpt><trkpt lat="43.3414558" lon="12.4206018"><ele>325.6666666666667</ele><time>2026-04-04T10:38:35.248Z</time></trkpt><trkpt lat="43.3416252" lon="12.4206894"><ele>322.3333333333333</ele><time>2026-04-04T10:38:36.251Z</time></trkpt><trkpt lat="43.3417984" lon="12.42077"><ele>319.0</ele><time>2026-04-04T10:38:37.249Z</time></trkpt><trkpt lat="43.3419667" lon="12.4208545"><ele>319.0</ele><time>2026-04-04T10:38:38.25Z</time></trkpt><trkpt lat="43.3421355" lon="12.4209387"><ele>319.0</ele><time>2026-04-04T10:38:39.248Z</time></trkpt><trkpt lat="43.3423063" lon="12.4210283"><ele>319.0</ele><time>2026-04-04T10:38:40.25Z</time></trkpt><trkpt lat="43.3424756" lon="12.4211276"><ele>318.66666666666663</ele><time>2026-04-04T10:38:41.248Z</time></trkpt><trkpt lat="43.3426268" lon="12.4212238"><ele>318.3333333333333</ele><time>2026-04-04T10:38:42.248Z</time></trkpt><trkpt lat="43.3427803" lon="12.4213041"><ele>318.0</ele><time>2026-04-04T10:38:43.249Z</time></trkpt><trkpt lat="43.3429156" lon="12.4213796"><ele>318.0</ele><time>2026-04-04T10:38:44.246Z</time></trkpt><trkpt lat="43.3430387" lon="12.4214742"><ele>318.0</ele><time>2026-04-04T10:38:45.244Z</time></trkpt><trkpt lat="43.3431551" lon="12.4216033"><ele>318.0</ele><time>2026-04-04T10:38:46.244Z</time></trkpt><trkpt lat="43.3432453" lon="12.4217809"><ele>318.0</ele><time>2026-04-04T10:38:47.251Z</time></trkpt><trkpt lat="43.3433016" lon="12.4220059"><ele>320.0</ele><time>2026-04-04T10:38:48.247Z</time></trkpt><trkpt lat="43.3433458" lon="12.4222567"><ele>322.0</ele><time>2026-04-04T10:38:49.253Z</time></trkpt><trkpt lat="43.3433918" lon="12.4225131"><ele>324.0</ele><time>2026-04-04T10:38:50.251Z</time></trkpt><trkpt lat="43.3434355" lon="12.4227817"><ele>325.6666666666667</ele><time>2026-04-04T10:38:51.252Z</time></trkpt><trkpt lat="43.343467" lon="12.4230607"><ele>327.33333333333337</ele><time>2026-04-04T10:38:52.252Z</time></trkpt><trkpt lat="43.3434931" lon="12.4233515"><ele>329.0</ele><time>2026-04-04T10:38:53.248Z</time></trkpt><trkpt lat="43.3435123" lon="12.4236504"><ele>330.5</ele><time>2026-04-04T10:38:54.248Z</time></trkpt><trkpt lat="43.3435141" lon="12.4239596"><ele>332.0</ele><time>2026-04-04T10:38:55.256Z</time></trkpt><trkpt lat="43.34349" lon="12.4242679"><ele>332.0</ele><time>2026-04-04T10:38:56.249Z</time></trkpt><trkpt lat="43.3434553" lon="12.4245812"><ele>332.0</ele><time>2026-04-04T10:38:57.25Z</time></trkpt><trkpt lat="43.3434118" lon="12.424897"><ele>332.5</ele><time>2026-04-04T10:38:58.249Z</time></trkpt><trkpt lat="43.3433617" lon="12.4252125"><ele>333.0</ele><time>2026-04-04T10:38:59.248Z</time></trkpt><trkpt lat="43.3433049" lon="12.4255315"><ele>335.0</ele><time>2026-04-04T10:39:00.251Z</time></trkpt><trkpt lat="43.34325" lon="12.4258454"><ele>337.0</ele><time>2026-04-04T10:39:01.249Z</time></trkpt><trkpt lat="43.3431953" lon="12.4261641"><ele>342.5</ele><time>2026-04-04T10:39:02.249Z</time></trkpt><trkpt lat="43.3431451" lon="12.4264857"><ele>348.0</ele><time>2026-04-04T10:39:03.249Z</time></trkpt><trkpt lat="43.3430952" lon="12.4267951"><ele>342.3333333333333</ele><time>2026-04-04T10:39:04.249Z</time></trkpt><trkpt lat="43.343042" lon="12.4270746"><ele>336.66666666666663</ele><time>2026-04-04T10:39:05.252Z</time></trkpt><trkpt lat="43.3429819" lon="12.4273269"><ele>331.0</ele><time>2026-04-04T10:39:06.25Z</time></trkpt><trkpt lat="43.3429071" lon="12.4275511"><ele>331.0</ele><time>2026-04-04T10:39:07.253Z</time></trkpt><trkpt lat="43.3428198" lon="12.4277389"><ele>331.0</ele><time>2026-04-04T10:39:08.249Z</time></trkpt><trkpt lat="43.3427314" lon="12.4279105"><ele>331.0</ele><time>2026-04-04T10:39:09.249Z</time></trkpt><trkpt lat="43.3426709" lon="12.4280769"><ele>331.5</ele><time>2026-04-04T10:39:10.249Z</time></trkpt><trkpt lat="43.3426476" lon="12.4282497"><ele>332.0</ele><time>2026-04-04T10:39:11.251Z</time></trkpt><trkpt lat="43.3426847" lon="12.4284198"><ele>332.5</ele><time>2026-04-04T10:39:12.25Z</time></trkpt><trkpt lat="43.3427834" lon="12.4285769"><ele>333.0</ele><time>2026-04-04T10:39:13.24Z</time></trkpt><trkpt lat="43.3429159" lon="12.4287288"><ele>339.3333333333333</ele><time>2026-04-04T10:39:14.248Z</time></trkpt><trkpt lat="43.3430584" lon="12.4289042"><ele>345.66666666666663</ele><time>2026-04-04T10:39:15.244Z</time></trkpt><trkpt lat="43.3432227" lon="12.4290979"><ele>352.0</ele><time>2026-04-04T10:39:16.249Z</time></trkpt><trkpt lat="43.3434123" lon="12.4293426"><ele>352.0</ele><time>2026-04-04T10:39:17.242Z</time></trkpt><trkpt lat="43.3435808" lon="12.4295719"><ele>352.0</ele><time>2026-04-04T10:39:18.244Z</time></trkpt><trkpt lat="43.3437517" lon="12.429766"><ele>353.0</ele><time>2026-04-04T10:39:19.247Z</time></trkpt><trkpt lat="43.3439007" lon="12.4299434"><ele>354.0</ele><time>2026-04-04T10:39:20.246Z</time></trkpt><trkpt lat="43.344041" lon="12.4300645"><ele>355.0</ele><time>2026-04-04T10:39:21.246Z</time></trkpt><trkpt lat="43.3441912" lon="12.430142"><ele>355.0</ele><time>2026-04-04T10:39:22.247Z</time></trkpt><trkpt lat="43.3443454" lon="12.430172"><ele>355.0</ele><time>2026-04-04T10:39:23.251Z</time></trkpt><trkpt lat="43.3445254" lon="12.4301476"><ele>355.0</ele><time>2026-04-04T10:39:24.246Z</time></trkpt><trkpt lat="43.3446932" lon="12.430096"><ele>358.5</ele><time>2026-04-04T10:39:25.245Z</time></trkpt><trkpt lat="43.3448378" lon="12.4300465"><ele>362.0</ele><time>2026-04-04T10:39:26.248Z</time></trkpt><trkpt lat="43.3449688" lon="12.4300333"><ele>365.5</ele><time>2026-04-04T10:39:27.242Z</time></trkpt><trkpt lat="43.3450782" lon="12.4300607"><ele>369.0</ele><time>2026-04-04T10:39:28.245Z</time></trkpt><trkpt lat="43.3451523" lon="12.43016"><ele>369.0</ele><time>2026-04-04T10:39:29.245Z</time></trkpt><trkpt lat="43.3451558" lon="12.4303191"><ele>369.0</ele><time>2026-04-04T10:39:30.252Z</time></trkpt><trkpt lat="43.3451236" lon="12.4305315"><ele>369.0</ele><time>2026-04-04T10:39:31.241Z</time></trkpt><trkpt lat="43.3450721" lon="12.430782"><ele>368.0</ele><time>2026-04-04T10:39:32.244Z</time></trkpt><trkpt lat="43.3450427" lon="12.4310612"><ele>367.0</ele><time>2026-04-04T10:39:33.242Z</time></trkpt><trkpt lat="43.3450381" lon="12.4313306"><ele>366.0</ele><time>2026-04-04T10:39:34.247Z</time></trkpt><trkpt lat="43.3450326" lon="12.4315773"><ele>366.0</ele><time>2026-04-04T10:39:35.247Z</time></trkpt><trkpt lat="43.3450211" lon="12.4318129"><ele>366.0</ele><time>2026-04-04T10:39:36.246Z</time></trkpt><trkpt lat="43.3449743" lon="12.4320554"><ele>366.0</ele><time>2026-04-04T10:39:37.249Z</time></trkpt><trkpt lat="43.344915" lon="12.4323074"><ele>366.3333333333333</ele><time>2026-04-04T10:39:38.247Z</time></trkpt><trkpt lat="43.3448747" lon="12.4325583"><ele>366.66666666666663</ele><time>2026-04-04T10:39:39.253Z</time></trkpt><trkpt lat="43.3448617" lon="12.4328218"><ele>367.0</ele><time>2026-04-04T10:39:40.246Z</time></trkpt><trkpt lat="43.3448888" lon="12.4330848"><ele>367.0</ele><time>2026-04-04T10:39:41.241Z</time></trkpt><trkpt lat="43.3449251" lon="12.4333225"><ele>367.0</ele><time>2026-04-04T10:39:42.247Z</time></trkpt><trkpt lat="43.3449654" lon="12.4335321"><ele>367.0</ele><time>2026-04-04T10:39:43.242Z</time></trkpt><trkpt lat="43.3450171" lon="12.4337356"><ele>362.66666666666663</ele><time>2026-04-04T10:39:44.253Z</time></trkpt><trkpt lat="43.3450779" lon="12.4339272"><ele>358.3333333333333</ele><time>2026-04-04T10:39:45.249Z</time></trkpt><trkpt lat="43.3451665" lon="12.4341012"><ele>354.0</ele><time>2026-04-04T10:39:46.252Z</time></trkpt><trkpt lat="43.3452997" lon="12.4342312"><ele>354.0</ele><time>2026-04-04T10:39:47.252Z</time></trkpt><trkpt lat="43.3454472" lon="12.4343257"><ele>354.0</ele><time>2026-04-04T10:39:48.251Z</time></trkpt><trkpt lat="43.3456178" lon="12.4343851"><ele>354.0</ele><time>2026-04-04T10:39:49.248Z</time></trkpt><trkpt lat="43.345798" lon="12.43442"><ele>364.33333333333337</ele><time>2026-04-04T10:39:50.245Z</time></trkpt><trkpt lat="43.34598" lon="12.4344295"><ele>374.6666666666667</ele><time>2026-04-04T10:39:51.246Z</time></trkpt><trkpt lat="43.346155" lon="12.4344143"><ele>385.0</ele><time>2026-04-04T10:39:52.246Z</time></trkpt><trkpt lat="43.3463175" lon="12.4343496"><ele>387.25</ele><time>2026-04-04T10:39:53.245Z</time></trkpt><trkpt lat="43.346432" lon="12.4342395"><ele>389.5</ele><time>2026-04-04T10:39:54.247Z</time></trkpt><trkpt lat="43.3465164" lon="12.4341241"><ele>391.75</ele><time>2026-04-04T10:39:55.243Z</time></trkpt><trkpt lat="43.3465963" lon="12.4340371"><ele>394.0</ele><time>2026-04-04T10:39:56.241Z</time></trkpt><trkpt lat="43.3467052" lon="12.4340177"><ele>394.0</ele><time>2026-04-04T10:39:57.249Z</time></trkpt><trkpt lat="43.3468156" lon="12.4340875"><ele>394.0</ele><time>2026-04-04T10:39:58.242Z</time></trkpt><trkpt lat="43.3469469" lon="12.4342444"><ele>394.0</ele><time>2026-04-04T10:39:59.241Z</time></trkpt><trkpt lat="43.3470794" lon="12.4344052"><ele>390.33333333333337</ele><time>2026-04-04T10:40:00.245Z</time></trkpt><trkpt lat="43.3472188" lon="12.4345859"><ele>386.6666666666667</ele><time>2026-04-04T10:40:01.241Z</time></trkpt><trkpt lat="43.3473588" lon="12.4347548"><ele>383.0</ele><time>2026-04-04T10:40:02.24Z</time></trkpt><trkpt lat="43.3474999" lon="12.4349263"><ele>383.0</ele><time>2026-04-04T10:40:03.246Z</time></trkpt><trkpt lat="43.34762" lon="12.4350935"><ele>383.0</ele><time>2026-04-04T10:40:04.245Z</time></trkpt><trkpt lat="43.3477357" lon="12.4352432"><ele>383.0</ele><time>2026-04-04T10:40:05.242Z</time></trkpt><trkpt lat="43.3478429" lon="12.4353444"><ele>383.0</ele><time>2026-04-04T10:40:06.25Z</time></trkpt><trkpt lat="43.3479573" lon="12.4353563"><ele>383.0</ele><time>2026-04-04T10:40:07.25Z</time></trkpt><trkpt lat="43.3480808" lon="12.4353074"><ele>383.0</ele><time>2026-04-04T10:40:08.251Z</time></trkpt><trkpt lat="43.3481943" lon="12.4351874"><ele>383.0</ele><time>2026-04-04T10:40:09.248Z</time></trkpt><trkpt lat="43.348265" lon="12.435014"><ele>381.0</ele><time>2026-04-04T10:40:10.246Z</time></trkpt><trkpt lat="43.3483299" lon="12.434808"><ele>379.0</ele><time>2026-04-04T10:40:11.245Z</time></trkpt><trkpt lat="43.348398" lon="12.4345936"><ele>377.0</ele><time>2026-04-04T10:40:12.242Z</time></trkpt><trkpt lat="43.3485036" lon="12.4343636"><ele>378.33333333333337</ele><time>2026-04-04T10:40:13.241Z</time></trkpt><trkpt lat="43.3486408" lon="12.4341539"><ele>379.6666666666667</ele><time>2026-04-04T10:40:14.239Z</time></trkpt><trkpt lat="43.3487891" lon="12.4339899"><ele>381.0</ele><time>2026-04-04T10:40:15.243Z</time></trkpt><trkpt lat="43.3489458" lon="12.4338683"><ele>393.33333333333337</ele><time>2026-04-04T10:40:16.237Z</time></trkpt><trkpt lat="43.3491031" lon="12.4337711"><ele>405.6666666666667</ele><time>2026-04-04T10:40:17.243Z</time></trkpt><trkpt lat="43.3492477" lon="12.4336723"><ele>418.0</ele><time>2026-04-04T10:40:18.248Z</time></trkpt><trkpt lat="43.3493878" lon="12.4335479"><ele>418.0</ele><time>2026-04-04T10:40:19.242Z</time></trkpt><trkpt lat="43.3495109" lon="12.4334208"><ele>418.0</ele><time>2026-04-04T10:40:20.24Z</time></trkpt><trkpt lat="43.349635" lon="12.4333179"><ele>418.0</ele><time>2026-04-04T10:40:21.247Z</time></trkpt><trkpt lat="43.3497561" lon="12.4332581"><ele>418.0</ele><time>2026-04-04T10:40:22.249Z</time></trkpt><trkpt lat="43.3498887" lon="12.4332541"><ele>411.0</ele><time>2026-04-04T10:40:23.242Z</time></trkpt><trkpt lat="43.3500533" lon="12.4333119"><ele>404.0</ele><time>2026-04-04T10:40:24.244Z</time></trkpt><trkpt lat="43.3502423" lon="12.4333947"><ele>397.0</ele><time>2026-04-04T10:40:25.24Z</time></trkpt><trkpt lat="43.3504553" lon="12.4335005"><ele>405.5</ele><time>2026-04-04T10:40:26.241Z</time></trkpt><trkpt lat="43.3506939" lon="12.4335961"><ele>414.0</ele><time>2026-04-04T10:40:27.249Z</time></trkpt><trkpt lat="43.3509165" lon="12.4336515"><ele>414.0</ele><time>2026-04-04T10:40:28.248Z</time></trkpt><trkpt lat="43.3511114" lon="12.4337191"><ele>414.0</ele><time>2026-04-04T10:40:29.239Z</time></trkpt><trkpt lat="43.3512906" lon="12.4337757"><ele>414.0</ele><time>2026-04-04T10:40:30.244Z</time></trkpt><trkpt lat="43.3514678" lon="12.4338443"><ele>405.33333333333337</ele><time>2026-04-04T10:40:31.241Z</time></trkpt><trkpt lat="43.3516224" lon="12.4339657"><ele>396.6666666666667</ele><time>2026-04-04T10:40:32.239Z</time></trkpt><trkpt lat="43.3517551" lon="12.4340965"><ele>388.0</ele><time>2026-04-04T10:40:33.241Z</time></trkpt><trkpt lat="43.3518852" lon="12.4342747"><ele>388.0</ele><time>2026-04-04T10:40:34.242Z</time></trkpt><trkpt lat="43.352016" lon="12.4344621"><ele>388.0</ele><time>2026-04-04T10:40:35.244Z</time></trkpt><trkpt lat="43.3521777" lon="12.4346555"><ele>388.0</ele><time>2026-04-04T10:40:36.244Z</time></trkpt><trkpt lat="43.3523566" lon="12.4348569"><ele>386.5</ele><time>2026-04-04T10:40:37.243Z</time></trkpt><trkpt lat="43.3525635" lon="12.4350323"><ele>385.0</ele><time>2026-04-04T10:40:38.244Z</time></trkpt><trkpt lat="43.3527632" lon="12.4351818"><ele>385.0</ele><time>2026-04-04T10:40:39.245Z</time></trkpt><trkpt lat="43.3529532" lon="12.4353125"><ele>385.0</ele><time>2026-04-04T10:40:40.248Z</time></trkpt><trkpt lat="43.3531307" lon="12.4354202"><ele>385.0</ele><time>2026-04-04T10:40:41.247Z</time></trkpt><trkpt lat="43.3532856" lon="12.4355246"><ele>385.6666666666667</ele><time>2026-04-04T10:40:42.247Z</time></trkpt><trkpt lat="43.3534154" lon="12.4356531"><ele>386.33333333333337</ele><time>2026-04-04T10:40:43.247Z</time></trkpt><trkpt lat="43.3535158" lon="12.4358397"><ele>387.0</ele><time>2026-04-04T10:40:44.246Z</time></trkpt><trkpt lat="43.3536067" lon="12.4360385"><ele>387.0</ele><time>2026-04-04T10:40:45.247Z</time></trkpt><trkpt lat="43.353707" lon="12.4362076"><ele>387.0</ele><time>2026-04-04T10:40:46.253Z</time></trkpt><trkpt lat="43.3538278" lon="12.4363483"><ele>387.0</ele><time>2026-04-04T10:40:47.25Z</time></trkpt><trkpt lat="43.3539937" lon="12.4364636"><ele>384.0</ele><time>2026-04-04T10:40:48.244Z</time></trkpt><trkpt lat="43.354199" lon="12.4365475"><ele>381.0</ele><time>2026-04-04T10:40:49.243Z</time></trkpt><trkpt lat="43.3544226" lon="12.4366314"><ele>378.0</ele><time>2026-04-04T10:40:50.242Z</time></trkpt><trkpt lat="43.3546461" lon="12.4367216"><ele>386.0</ele><time>2026-04-04T10:40:51.245Z</time></trkpt><trkpt lat="43.3548665" lon="12.436815"><ele>394.0</ele><time>2026-04-04T10:40:52.253Z</time></trkpt><trkpt lat="43.3550863" lon="12.4368928"><ele>394.0</ele><time>2026-04-04T10:40:53.251Z</time></trkpt><trkpt lat="43.3553157" lon="12.436948"><ele>394.0</ele><time>2026-04-04T10:40:54.244Z</time></trkpt><trkpt lat="43.3555347" lon="12.4369543"><ele>389.5</ele><time>2026-04-04T10:40:55.244Z</time></trkpt><trkpt lat="43.3557646" lon="12.4369037"><ele>385.0</ele><time>2026-04-04T10:40:56.251Z</time></trkpt><trkpt lat="43.3559977" lon="12.4368156"><ele>385.0</ele><time>2026-04-04T10:40:57.243Z</time></trkpt><trkpt lat="43.3562121" lon="12.4366995"><ele>385.0</ele><time>2026-04-04T10:40:58.244Z</time></trkpt><trkpt lat="43.3564067" lon="12.4365531"><ele>379.6666666666667</ele><time>2026-04-04T10:40:59.265Z</time></trkpt><trkpt lat="43.3566008" lon="12.4364266"><ele>374.33333333333337</ele><time>2026-04-04T10:41:00.251Z</time></trkpt><trkpt lat="43.3567955" lon="12.4363303"><ele>369.0</ele><time>2026-04-04T10:41:01.238Z</time></trkpt><trkpt lat="43.3569925" lon="12.436234"><ele>375.66666666666663</ele><time>2026-04-04T10:41:02.243Z</time></trkpt><trkpt lat="43.3571819" lon="12.4361347"><ele>382.3333333333333</ele><time>2026-04-04T10:41:03.24Z</time></trkpt><trkpt lat="43.3573864" lon="12.4360354"><ele>389.0</ele><time>2026-04-04T10:41:04.24Z</time></trkpt><trkpt lat="43.357592" lon="12.4359399"><ele>389.0</ele><time>2026-04-04T10:41:05.238Z</time></trkpt><trkpt lat="43.3577944" lon="12.4358581"><ele>389.0</ele><time>2026-04-04T10:41:06.248Z</time></trkpt><trkpt lat="43.3580049" lon="12.4358475"><ele>389.0</ele><time>2026-04-04T10:41:07.24Z</time></trkpt><trkpt lat="43.3582196" lon="12.4358586"><ele>387.66666666666663</ele><time>2026-04-04T10:41:08.241Z</time></trkpt><trkpt lat="43.3584266" lon="12.4358692"><ele>386.33333333333337</ele><time>2026-04-04T10:41:09.24Z</time></trkpt><trkpt lat="43.3586275" lon="12.435889"><ele>385.0</ele><time>2026-04-04T10:41:10.238Z</time></trkpt><trkpt lat="43.3588262" lon="12.4359164"><ele>387.0</ele><time>2026-04-04T10:41:11.24Z</time></trkpt><trkpt lat="43.3590287" lon="12.4360119"><ele>389.0</ele><time>2026-04-04T10:41:12.241Z</time></trkpt><trkpt lat="43.3592077" lon="12.4361648"><ele>391.0</ele><time>2026-04-04T10:41:13.24Z</time></trkpt><trkpt lat="43.3593734" lon="12.4363352"><ele>387.33333333333337</ele><time>2026-04-04T10:41:14.24Z</time></trkpt><trkpt lat="43.3595532" lon="12.4364863"><ele>383.6666666666667</ele><time>2026-04-04T10:41:15.248Z</time></trkpt><trkpt lat="43.3597428" lon="12.4366297"><ele>380.0</ele><time>2026-04-04T10:41:16.245Z</time></trkpt><trkpt lat="43.3599175" lon="12.4367551"><ele>380.0</ele><time>2026-04-04T10:41:17.245Z</time></trkpt><trkpt lat="43.3600686" lon="12.4368835"><ele>380.0</ele><time>2026-04-04T10:41:18.245Z</time></trkpt><trkpt lat="43.3602154" lon="12.4370151"><ele>380.0</ele><time>2026-04-04T10:41:19.246Z</time></trkpt><trkpt lat="43.3603464" lon="12.4371839"><ele>380.0</ele><time>2026-04-04T10:41:20.243Z</time></trkpt><trkpt lat="43.3604541" lon="12.4374196"><ele>380.0</ele><time>2026-04-04T10:41:21.244Z</time></trkpt><trkpt lat="43.3605721" lon="12.4376362"><ele>380.0</ele><time>2026-04-04T10:41:22.245Z</time></trkpt><trkpt lat="43.3606944" lon="12.4378224"><ele>372.33333333333337</ele><time>2026-04-04T10:41:23.245Z</time></trkpt><trkpt lat="43.3608168" lon="12.437992"><ele>364.6666666666667</ele><time>2026-04-04T10:41:24.245Z</time></trkpt><trkpt lat="43.3609705" lon="12.438138"><ele>357.0</ele><time>2026-04-04T10:41:25.246Z</time></trkpt><trkpt lat="43.3611301" lon="12.4382676"><ele>357.0</ele><time>2026-04-04T10:41:26.249Z</time></trkpt><trkpt lat="43.3613471" lon="12.4383603"><ele>357.0</ele><time>2026-04-04T10:41:27.247Z</time></trkpt><trkpt lat="43.3615879" lon="12.4384643"><ele>363.0</ele><time>2026-04-04T10:41:28.246Z</time></trkpt><trkpt lat="43.3618268" lon="12.4385797"><ele>369.0</ele><time>2026-04-04T10:41:29.252Z</time></trkpt><trkpt lat="43.3620584" lon="12.4386738"><ele>363.5</ele><time>2026-04-04T10:41:30.249Z</time></trkpt><trkpt lat="43.3622928" lon="12.4387517"><ele>358.0</ele><time>2026-04-04T10:41:31.243Z</time></trkpt><trkpt lat="43.3625146" lon="12.4388197"><ele>358.0</ele><time>2026-04-04T10:41:32.242Z</time></trkpt><trkpt lat="43.3627126" lon="12.4388717"><ele>358.0</ele><time>2026-04-04T10:41:33.242Z</time></trkpt><trkpt lat="43.3628733" lon="12.4389105"><ele>358.0</ele><time>2026-04-04T10:41:34.241Z</time></trkpt><trkpt lat="43.3630316" lon="12.4389808"><ele>362.66666666666663</ele><time>2026-04-04T10:41:35.24Z</time></trkpt><trkpt lat="43.3631751" lon="12.4391153"><ele>367.3333333333333</ele><time>2026-04-04T10:41:36.241Z</time></trkpt><trkpt lat="43.3632915" lon="12.4392861"><ele>372.0</ele><time>2026-04-04T10:41:37.242Z</time></trkpt><trkpt lat="43.3634261" lon="12.4394544"><ele>367.0</ele><time>2026-04-04T10:41:38.239Z</time></trkpt><trkpt lat="43.3635614" lon="12.4396442"><ele>362.0</ele><time>2026-04-04T10:41:39.247Z</time></trkpt><trkpt lat="43.363699" lon="12.439871"><ele>357.0</ele><time>2026-04-04T10:41:40.248Z</time></trkpt><trkpt lat="43.3638058" lon="12.4400761"><ele>361.3333333333333</ele><time>2026-04-04T10:41:41.252Z</time></trkpt><trkpt lat="43.3638904" lon="12.44028"><ele>365.66666666666663</ele><time>2026-04-04T10:41:42.251Z</time></trkpt><trkpt lat="43.3639664" lon="12.4404729"><ele>370.0</ele><time>2026-04-04T10:41:43.253Z</time></trkpt><trkpt lat="43.3640396" lon="12.440689"><ele>370.0</ele><time>2026-04-04T10:41:44.254Z</time></trkpt><trkpt lat="43.3641064" lon="12.4409303"><ele>370.0</ele><time>2026-04-04T10:41:45.253Z</time></trkpt><trkpt lat="43.3641383" lon="12.4412248"><ele>370.0</ele><time>2026-04-04T10:41:46.248Z</time></trkpt><trkpt lat="43.3641534" lon="12.4415236"><ele>370.66666666666663</ele><time>2026-04-04T10:41:47.248Z</time></trkpt><trkpt lat="43.3641594" lon="12.4418059"><ele>371.3333333333333</ele><time>2026-04-04T10:41:48.253Z</time></trkpt><trkpt lat="43.3641826" lon="12.442047"><ele>372.0</ele><time>2026-04-04T10:41:49.252Z</time></trkpt><trkpt lat="43.3642084" lon="12.4422683"><ele>368.0</ele><time>2026-04-04T10:41:50.254Z</time></trkpt><trkpt lat="43.3642745" lon="12.442494"><ele>364.0</ele><time>2026-04-04T10:41:51.251Z</time></trkpt><trkpt lat="43.3643697" lon="12.4427328"><ele>360.0</ele><time>2026-04-04T10:41:52.25Z</time></trkpt><trkpt lat="43.3645128" lon="12.4429846"><ele>356.5</ele><time>2026-04-04T10:41:53.249Z</time></trkpt><trkpt lat="43.3646705" lon="12.4432413"><ele>353.0</ele><time>2026-04-04T10:41:54.246Z</time></trkpt><trkpt lat="43.3648232" lon="12.4435064"><ele>358.5</ele><time>2026-04-04T10:41:55.259Z</time></trkpt><trkpt lat="43.3649731" lon="12.4437639"><ele>364.0</ele><time>2026-04-04T10:41:56.262Z</time></trkpt><trkpt lat="43.3651274" lon="12.4440201"><ele>364.0</ele><time>2026-04-04T10:41:57.258Z</time></trkpt><trkpt lat="43.365279" lon="12.4442829"><ele>364.0</ele><time>2026-04-04T10:41:58.259Z</time></trkpt><trkpt lat="43.3654259" lon="12.4445482"><ele>374.0</ele><time>2026-04-04T10:41:59.259Z</time></trkpt><trkpt lat="43.3655746" lon="12.4448061"><ele>384.0</ele><time>2026-04-04T10:42:00.268Z</time></trkpt><trkpt lat="43.365706" lon="12.4450656"><ele>384.0</ele><time>2026-04-04T10:42:01.247Z</time></trkpt><trkpt lat="43.3658247" lon="12.4453304"><ele>384.0</ele><time>2026-04-04T10:42:02.252Z</time></trkpt><trkpt lat="43.3659579" lon="12.4456026"><ele>378.5</ele><time>2026-04-04T10:42:03.248Z</time></trkpt><trkpt lat="43.3661228" lon="12.4458823"><ele>373.0</ele><time>2026-04-04T10:42:04.253Z</time></trkpt><trkpt lat="43.3662805" lon="12.4461265"><ele>376.0</ele><time>2026-04-04T10:42:05.256Z</time></trkpt><trkpt lat="43.3664283" lon="12.4463383"><ele>379.0</ele><time>2026-04-04T10:42:06.251Z</time></trkpt><trkpt lat="43.3665735" lon="12.4465461"><ele>382.0</ele><time>2026-04-04T10:42:07.253Z</time></trkpt><trkpt lat="43.3667045" lon="12.4467244"><ele>382.0</ele><time>2026-04-04T10:42:08.254Z</time></trkpt><trkpt lat="43.3668399" lon="12.4468743"><ele>382.0</ele><time>2026-04-04T10:42:09.256Z</time></trkpt><trkpt lat="43.3669837" lon="12.4470054"><ele>382.0</ele><time>2026-04-04T10:42:10.253Z</time></trkpt><trkpt lat="43.3671558" lon="12.4471018"><ele>380.0</ele><time>2026-04-04T10:42:11.255Z</time></trkpt><trkpt lat="43.3673487" lon="12.4471896"><ele>378.0</ele><time>2026-04-04T10:42:12.251Z</time></trkpt><trkpt lat="43.3675799" lon="12.4472634"><ele>376.0</ele><time>2026-04-04T10:42:13.245Z</time></trkpt><trkpt lat="43.367825" lon="12.4473482"><ele>383.0</ele><time>2026-04-04T10:42:14.245Z</time></trkpt><trkpt lat="43.368069" lon="12.4474518"><ele>390.0</ele><time>2026-04-04T10:42:15.246Z</time></trkpt><trkpt lat="43.3683091" lon="12.4475753"><ele>390.0</ele><time>2026-04-04T10:42:16.247Z</time></trkpt><trkpt lat="43.3685406" lon="12.4476745"><ele>390.0</ele><time>2026-04-04T10:42:17.244Z</time></trkpt><trkpt lat="43.3687424" lon="12.4477783"><ele>387.0</ele><time>2026-04-04T10:42:18.244Z</time></trkpt><trkpt lat="43.3689284" lon="12.4478847"><ele>384.0</ele><time>2026-04-04T10:42:19.242Z</time></trkpt><trkpt lat="43.3691032" lon="12.4479949"><ele>381.0</ele><time>2026-04-04T10:42:20.243Z</time></trkpt><trkpt lat="43.3692712" lon="12.4481233"><ele>381.0</ele><time>2026-04-04T10:42:21.247Z</time></trkpt><trkpt lat="43.3694296" lon="12.4482416"><ele>381.0</ele><time>2026-04-04T10:42:22.249Z</time></trkpt><trkpt lat="43.3695872" lon="12.4483612"><ele>381.0</ele><time>2026-04-04T10:42:23.248Z</time></trkpt><trkpt lat="43.369748" lon="12.4484753"><ele>378.0</ele><time>2026-04-04T10:42:24.256Z</time></trkpt><trkpt lat="43.3699153" lon="12.4485947"><ele>375.0</ele><time>2026-04-04T10:42:25.255Z</time></trkpt><trkpt lat="43.3700852" lon="12.4487265"><ele>372.0</ele><time>2026-04-04T10:42:26.255Z</time></trkpt><trkpt lat="43.3702517" lon="12.4488915"><ele>372.0</ele><time>2026-04-04T10:42:27.256Z</time></trkpt><trkpt lat="43.3704135" lon="12.4490954"><ele>372.0</ele><time>2026-04-04T10:42:28.256Z</time></trkpt><trkpt lat="43.3705681" lon="12.4493491"><ele>372.5</ele><time>2026-04-04T10:42:29.253Z</time></trkpt><trkpt lat="43.3707034" lon="12.4496205"><ele>373.0</ele><time>2026-04-04T10:42:30.256Z</time></trkpt><trkpt lat="43.3708174" lon="12.4498835"><ele>373.0</ele><time>2026-04-04T10:42:31.255Z</time></trkpt><trkpt lat="43.3709235" lon="12.4501242"><ele>373.0</ele><time>2026-04-04T10:42:32.255Z</time></trkpt><trkpt lat="43.3710333" lon="12.4503526"><ele>373.0</ele><time>2026-04-04T10:42:33.252Z</time></trkpt><trkpt lat="43.3711377" lon="12.4505915"><ele>370.3333333333333</ele><time>2026-04-04T10:42:34.251Z</time></trkpt><trkpt lat="43.3712324" lon="12.4508418"><ele>367.6666666666667</ele><time>2026-04-04T10:42:35.253Z</time></trkpt><trkpt lat="43.3713049" lon="12.4510971"><ele>365.0</ele><time>2026-04-04T10:42:36.252Z</time></trkpt><trkpt lat="43.371376" lon="12.4513702"><ele>371.6666666666667</ele><time>2026-04-04T10:42:37.258Z</time></trkpt><trkpt lat="43.3714031" lon="12.451648"><ele>378.33333333333337</ele><time>2026-04-04T10:42:38.246Z</time></trkpt><trkpt lat="43.3714159" lon="12.4519151"><ele>385.0</ele><time>2026-04-04T10:42:39.254Z</time></trkpt><trkpt lat="43.371414" lon="12.4521658"><ele>385.0</ele><time>2026-04-04T10:42:40.246Z</time></trkpt><trkpt lat="43.3713994" lon="12.4523901"><ele>385.0</ele><time>2026-04-04T10:42:41.246Z</time></trkpt><trkpt lat="43.371384" lon="12.4525819"><ele>385.0</ele><time>2026-04-04T10:42:42.251Z</time></trkpt><trkpt lat="43.3713709" lon="12.452772"><ele>385.0</ele><time>2026-04-04T10:42:43.249Z</time></trkpt><trkpt lat="43.3713682" lon="12.4529867"><ele>382.0</ele><time>2026-04-04T10:42:44.25Z</time></trkpt><trkpt lat="43.3713656" lon="12.453204"><ele>379.0</ele><time>2026-04-04T10:42:45.253Z</time></trkpt><trkpt lat="43.3713632" lon="12.4534229"><ele>376.0</ele><time>2026-04-04T10:42:46.253Z</time></trkpt><trkpt lat="43.3713657" lon="12.4536307"><ele>375.0</ele><time>2026-04-04T10:42:47.254Z</time></trkpt><trkpt lat="43.3713618" lon="12.4538415"><ele>374.0</ele><time>2026-04-04T10:42:48.261Z</time></trkpt><trkpt lat="43.3713531" lon="12.4540403"><ele>373.0</ele><time>2026-04-04T10:42:49.258Z</time></trkpt><trkpt lat="43.3713525" lon="12.454246"><ele>372.0</ele><time>2026-04-04T10:42:50.262Z</time></trkpt><trkpt lat="43.3713503" lon="12.4544622"><ele>371.6666666666667</ele><time>2026-04-04T10:42:51.253Z</time></trkpt><trkpt lat="43.3713519" lon="12.4546915"><ele>371.33333333333337</ele><time>2026-04-04T10:42:52.258Z</time></trkpt><trkpt lat="43.3713573" lon="12.4549066"><ele>371.0</ele><time>2026-04-04T10:42:53.255Z</time></trkpt><trkpt lat="43.3713621" lon="12.4551091"><ele>371.0</ele><time>2026-04-04T10:42:54.254Z</time></trkpt><trkpt lat="43.3713693" lon="12.4552909"><ele>371.0</ele><time>2026-04-04T10:42:55.26Z</time></trkpt><trkpt lat="43.3713832" lon="12.4554591"><ele>371.0</ele><time>2026-04-04T10:42:56.257Z</time></trkpt><trkpt lat="43.3713989" lon="12.4556217"><ele>371.0</ele><time>2026-04-04T10:42:57.26Z</time></trkpt><trkpt lat="43.3714275" lon="12.4557847"><ele>370.5</ele><time>2026-04-04T10:42:58.256Z</time></trkpt><trkpt lat="43.371488" lon="12.4559391"><ele>370.0</ele><time>2026-04-04T10:42:59.261Z</time></trkpt><trkpt lat="43.3715668" lon="12.4560957"><ele>369.5</ele><time>2026-04-04T10:43:00.267Z</time></trkpt><trkpt lat="43.3716524" lon="12.4562504"><ele>369.0</ele><time>2026-04-04T10:43:01.253Z</time></trkpt><trkpt lat="43.3717375" lon="12.4563785"><ele>368.0</ele><time>2026-04-04T10:43:02.267Z</time></trkpt><trkpt lat="43.3718241" lon="12.456495"><ele>367.0</ele><time>2026-04-04T10:43:03.261Z</time></trkpt><trkpt lat="43.3718946" lon="12.4566193"><ele>366.0</ele><time>2026-04-04T10:43:04.255Z</time></trkpt><trkpt lat="43.3719546" lon="12.4567527"><ele>365.0</ele><time>2026-04-04T10:43:05.255Z</time></trkpt><trkpt lat="43.3719949" lon="12.4568866"><ele>365.0</ele><time>2026-04-04T10:43:06.254Z</time></trkpt><trkpt lat="43.3720113" lon="12.4570265"><ele>365.0</ele><time>2026-04-04T10:43:07.255Z</time></trkpt><trkpt lat="43.3720184" lon="12.4571642"><ele>365.0</ele><time>2026-04-04T10:43:08.255Z</time></trkpt><trkpt lat="43.3720242" lon="12.4573061"><ele>365.0</ele><time>2026-04-04T10:43:09.252Z</time></trkpt><trkpt lat="43.3720268" lon="12.4574531"><ele>365.0</ele><time>2026-04-04T10:43:10.252Z</time></trkpt><trkpt lat="43.3720199" lon="12.4576111"><ele>365.5</ele><time>2026-04-04T10:43:11.254Z</time></trkpt><trkpt lat="43.3720008" lon="12.457771"><ele>366.0</ele><time>2026-04-04T10:43:12.255Z</time></trkpt><trkpt lat="43.3719892" lon="12.4579427"><ele>366.5</ele><time>2026-04-04T10:43:13.24Z</time></trkpt><trkpt lat="43.3719886" lon="12.458125"><ele>367.0</ele><time>2026-04-04T10:43:14.252Z</time></trkpt><trkpt lat="43.372004" lon="12.4583567"><ele>368.0</ele><time>2026-04-04T10:43:15.249Z</time></trkpt><trkpt lat="43.3720491" lon="12.4586677"><ele>369.0</ele><time>2026-04-04T10:43:16.249Z</time></trkpt><trkpt lat="43.3721052" lon="12.458961"><ele>369.0</ele><time>2026-04-04T10:43:17.249Z</time></trkpt><trkpt lat="43.3721543" lon="12.4591994"><ele>369.0</ele><time>2026-04-04T10:43:18.245Z</time></trkpt><trkpt lat="43.3721798" lon="12.4594064"><ele>369.0</ele><time>2026-04-04T10:43:19.247Z</time></trkpt><trkpt lat="43.372202" lon="12.4595935"><ele>375.25</ele><time>2026-04-04T10:43:20.25Z</time></trkpt><trkpt lat="43.3722269" lon="12.4597754"><ele>381.5</ele><time>2026-04-04T10:43:21.25Z</time></trkpt><trkpt lat="43.3722412" lon="12.4599506"><ele>387.75</ele><time>2026-04-04T10:43:22.252Z</time></trkpt><trkpt lat="43.3722534" lon="12.4601301"><ele>394.0</ele><time>2026-04-04T10:43:23.251Z</time></trkpt><trkpt lat="43.3722514" lon="12.4603203"><ele>393.75</ele><time>2026-04-04T10:43:24.253Z</time></trkpt><trkpt lat="43.3722331" lon="12.4605174"><ele>393.5</ele><time>2026-04-04T10:43:25.253Z</time></trkpt><trkpt lat="43.3722214" lon="12.4607083"><ele>393.25</ele><time>2026-04-04T10:43:26.253Z</time></trkpt><trkpt lat="43.3722078" lon="12.4608872"><ele>393.0</ele><time>2026-04-04T10:43:27.254Z</time></trkpt><trkpt lat="43.3721933" lon="12.4610613"><ele>386.75</ele><time>2026-04-04T10:43:28.258Z</time></trkpt><trkpt lat="43.3721748" lon="12.4612342"><ele>380.5</ele><time>2026-04-04T10:43:29.253Z</time></trkpt><trkpt lat="43.3721556" lon="12.4614179"><ele>374.25</ele><time>2026-04-04T10:43:30.257Z</time></trkpt><trkpt lat="43.3721384" lon="12.4616079"><ele>368.0</ele><time>2026-04-04T10:43:31.25Z</time></trkpt><trkpt lat="43.3721545" lon="12.4618268"><ele>368.0</ele><time>2026-04-04T10:43:32.253Z</time></trkpt><trkpt lat="43.3721869" lon="12.4620319"><ele>368.0</ele><time>2026-04-04T10:43:33.259Z</time></trkpt><trkpt lat="43.3722279" lon="12.4622124"><ele>368.0</ele><time>2026-04-04T10:43:34.254Z</time></trkpt><trkpt lat="43.3722859" lon="12.4623885"><ele>368.0</ele><time>2026-04-04T10:43:35.257Z</time></trkpt><trkpt lat="43.3723565" lon="12.4625546"><ele>369.0</ele><time>2026-04-04T10:43:36.256Z</time></trkpt><trkpt lat="43.3724337" lon="12.4627095"><ele>370.0</ele><time>2026-04-04T10:43:37.256Z</time></trkpt><trkpt lat="43.3725019" lon="12.4628496"><ele>371.0</ele><time>2026-04-04T10:43:38.261Z</time></trkpt><trkpt lat="43.3725588" lon="12.4629882"><ele>372.0</ele><time>2026-04-04T10:43:39.26Z</time></trkpt><trkpt lat="43.3726318" lon="12.4631187"><ele>372.0</ele><time>2026-04-04T10:43:40.26Z</time></trkpt><trkpt lat="43.372715" lon="12.4632284"><ele>372.0</ele><time>2026-04-04T10:43:41.257Z</time></trkpt><trkpt lat="43.372809" lon="12.4633056"><ele>372.0</ele><time>2026-04-04T10:43:42.254Z</time></trkpt><trkpt lat="43.372908" lon="12.4633641"><ele>372.0</ele><time>2026-04-04T10:43:43.258Z</time></trkpt><trkpt lat="43.3730254" lon="12.4633956"><ele>374.75</ele><time>2026-04-04T10:43:44.258Z</time></trkpt><trkpt lat="43.3731453" lon="12.4634236"><ele>377.5</ele><time>2026-04-04T10:43:45.257Z</time></trkpt><trkpt lat="43.3732692" lon="12.4634422"><ele>380.25</ele><time>2026-04-04T10:43:46.258Z</time></trkpt><trkpt lat="43.3733849" lon="12.463467"><ele>383.0</ele><time>2026-04-04T10:43:47.255Z</time></trkpt><trkpt lat="43.3734995" lon="12.4635053"><ele>383.0</ele><time>2026-04-04T10:43:48.257Z</time></trkpt><trkpt lat="43.373613" lon="12.4635617"><ele>383.0</ele><time>2026-04-04T10:43:49.257Z</time></trkpt><trkpt lat="43.3737201" lon="12.4636314"><ele>383.0</ele><time>2026-04-04T10:43:50.251Z</time></trkpt><trkpt lat="43.3738126" lon="12.4636932"><ele>383.0</ele><time>2026-04-04T10:43:51.259Z</time></trkpt><trkpt lat="43.3738915" lon="12.4637452"><ele>383.0</ele><time>2026-04-04T10:43:52.254Z</time></trkpt><trkpt lat="43.3739688" lon="12.4637901"><ele>381.4</ele><time>2026-04-04T10:43:53.255Z</time></trkpt><trkpt lat="43.3740504" lon="12.4638347"><ele>379.79999999999995</ele><time>2026-04-04T10:43:54.257Z</time></trkpt><trkpt lat="43.3741382" lon="12.463892"><ele>378.2</ele><time>2026-04-04T10:43:55.25Z</time></trkpt><trkpt lat="43.3742311" lon="12.4639548"><ele>376.6</ele><time>2026-04-04T10:43:56.253Z</time></trkpt><trkpt lat="43.3743242" lon="12.4640307"><ele>375.0</ele><time>2026-04-04T10:43:57.253Z</time></trkpt><trkpt lat="43.3744173" lon="12.4641379"><ele>375.0</ele><time>2026-04-04T10:43:58.249Z</time></trkpt><trkpt lat="43.374506" lon="12.4642565"><ele>375.0</ele><time>2026-04-04T10:43:59.254Z</time></trkpt><trkpt lat="43.3745793" lon="12.4644061"><ele>375.0</ele><time>2026-04-04T10:44:00.257Z</time></trkpt><trkpt lat="43.3746248" lon="12.4646029"><ele>375.0</ele><time>2026-04-04T10:44:01.253Z</time></trkpt><trkpt lat="43.3746529" lon="12.4648502"><ele>373.6666666666667</ele><time>2026-04-04T10:44:02.249Z</time></trkpt><trkpt lat="43.3746776" lon="12.4651331"><ele>372.33333333333337</ele><time>2026-04-04T10:44:03.246Z</time></trkpt><trkpt lat="43.3747104" lon="12.4654489"><ele>371.0</ele><time>2026-04-04T10:44:04.253Z</time></trkpt><trkpt lat="43.3747499" lon="12.4657951"><ele>380.5</ele><time>2026-04-04T10:44:05.246Z</time></trkpt><trkpt lat="43.3747983" lon="12.4661994"><ele>390.0</ele><time>2026-04-04T10:44:06.245Z</time></trkpt><trkpt lat="43.3748569" lon="12.4666471"><ele>390.0</ele><time>2026-04-04T10:44:07.248Z</time></trkpt><trkpt lat="43.374906" lon="12.4670502"><ele>390.0</ele><time>2026-04-04T10:44:08.249Z</time></trkpt><trkpt lat="43.3749457" lon="12.4673893"><ele>390.0</ele><time>2026-04-04T10:44:09.251Z</time></trkpt><trkpt lat="43.374988" lon="12.4676889"><ele>390.0</ele><time>2026-04-04T10:44:10.251Z</time></trkpt><trkpt lat="43.3750186" lon="12.4679744"><ele>390.0</ele><time>2026-04-04T10:44:11.249Z</time></trkpt><trkpt lat="43.3750151" lon="12.4682391"><ele>391.0</ele><time>2026-04-04T10:44:12.25Z</time></trkpt><trkpt lat="43.3749702" lon="12.4685018"><ele>392.0</ele><time>2026-04-04T10:44:13.248Z</time></trkpt><trkpt lat="43.3749102" lon="12.4687529"><ele>393.0</ele><time>2026-04-04T10:44:14.247Z</time></trkpt><trkpt lat="43.3748607" lon="12.4689878"><ele>393.0</ele><time>2026-04-04T10:44:15.25Z</time></trkpt><trkpt lat="43.3748335" lon="12.4692021"><ele>393.0</ele><time>2026-04-04T10:44:16.246Z</time></trkpt><trkpt lat="43.3748388" lon="12.4694279"><ele>393.0</ele><time>2026-04-04T10:44:17.247Z</time></trkpt><trkpt lat="43.3748958" lon="12.4696459"><ele>390.33333333333337</ele><time>2026-04-04T10:44:18.248Z</time></trkpt><trkpt lat="43.3749743" lon="12.4698622"><ele>387.6666666666667</ele><time>2026-04-04T10:44:19.246Z</time></trkpt><trkpt lat="43.3750781" lon="12.4700629"><ele>385.0</ele><time>2026-04-04T10:44:20.246Z</time></trkpt><trkpt lat="43.3752041" lon="12.4702342"><ele>385.0</ele><time>2026-04-04T10:44:21.252Z</time></trkpt><trkpt lat="43.3753666" lon="12.4703814"><ele>385.0</ele><time>2026-04-04T10:44:22.252Z</time></trkpt><trkpt lat="43.3755222" lon="12.4705381"><ele>385.0</ele><time>2026-04-04T10:44:23.249Z</time></trkpt><trkpt lat="43.3756605" lon="12.4706937"><ele>387.0</ele><time>2026-04-04T10:44:24.252Z</time></trkpt><trkpt lat="43.3757626" lon="12.4708716"><ele>389.0</ele><time>2026-04-04T10:44:25.251Z</time></trkpt><trkpt lat="43.3758267" lon="12.4710749"><ele>391.0</ele><time>2026-04-04T10:44:26.245Z</time></trkpt><trkpt lat="43.3758719" lon="12.4712931"><ele>391.0</ele><time>2026-04-04T10:44:27.25Z</time></trkpt><trkpt lat="43.3758625" lon="12.4715456"><ele>391.0</ele><time>2026-04-04T10:44:28.242Z</time></trkpt><trkpt lat="43.3758481" lon="12.4718126"><ele>391.0</ele><time>2026-04-04T10:44:29.249Z</time></trkpt><trkpt lat="43.3758167" lon="12.472115"><ele>394.5</ele><time>2026-04-04T10:44:30.254Z</time></trkpt><trkpt lat="43.3757612" lon="12.4724178"><ele>398.0</ele><time>2026-04-04T10:44:31.247Z</time></trkpt><trkpt lat="43.3757279" lon="12.4727261"><ele>400.0</ele><time>2026-04-04T10:44:32.249Z</time></trkpt><trkpt lat="43.3756991" lon="12.4730416"><ele>402.0</ele><time>2026-04-04T10:44:33.248Z</time></trkpt><trkpt lat="43.3756736" lon="12.4733505"><ele>402.0</ele><time>2026-04-04T10:44:34.249Z</time></trkpt><trkpt lat="43.3756489" lon="12.473656"><ele>402.0</ele><time>2026-04-04T10:44:35.258Z</time></trkpt><trkpt lat="43.375624" lon="12.4739768"><ele>404.5</ele><time>2026-04-04T10:44:36.249Z</time></trkpt><trkpt lat="43.3756048" lon="12.4742999"><ele>407.0</ele><time>2026-04-04T10:44:37.249Z</time></trkpt><trkpt lat="43.3755791" lon="12.4746322"><ele>410.0</ele><time>2026-04-04T10:44:38.249Z</time></trkpt><trkpt lat="43.3755539" lon="12.4749663"><ele>413.0</ele><time>2026-04-04T10:44:39.246Z</time></trkpt><trkpt lat="43.3755242" lon="12.4752851"><ele>398.5</ele><time>2026-04-04T10:44:40.247Z</time></trkpt><trkpt lat="43.3754935" lon="12.4755938"><ele>384.0</ele><time>2026-04-04T10:44:41.248Z</time></trkpt><trkpt lat="43.3754673" lon="12.475903"><ele>384.0</ele><time>2026-04-04T10:44:42.249Z</time></trkpt><trkpt lat="43.3754465" lon="12.4762026"><ele>384.0</ele><time>2026-04-04T10:44:43.247Z</time></trkpt><trkpt lat="43.3754258" lon="12.4764835"><ele>384.0</ele><time>2026-04-04T10:44:44.247Z</time></trkpt><trkpt lat="43.3753931" lon="12.4767465"><ele>384.0</ele><time>2026-04-04T10:44:45.248Z</time></trkpt><trkpt lat="43.375327" lon="12.4769981"><ele>384.0</ele><time>2026-04-04T10:44:46.249Z</time></trkpt><trkpt lat="43.3752396" lon="12.4772486"><ele>384.0</ele><time>2026-04-04T10:44:47.256Z</time></trkpt><trkpt lat="43.3751302" lon="12.477491"><ele>387.33333333333337</ele><time>2026-04-04T10:44:48.25Z</time></trkpt><trkpt lat="43.3749914" lon="12.4777112"><ele>390.6666666666667</ele><time>2026-04-04T10:44:49.25Z</time></trkpt><trkpt lat="43.3748381" lon="12.477938"><ele>394.0</ele><time>2026-04-04T10:44:50.248Z</time></trkpt><trkpt lat="43.3746698" lon="12.4781468"><ele>394.0</ele><time>2026-04-04T10:44:51.252Z</time></trkpt><trkpt lat="43.3744705" lon="12.4783421"><ele>394.0</ele><time>2026-04-04T10:44:52.251Z</time></trkpt><trkpt lat="43.3742696" lon="12.4785391"><ele>394.0</ele><time>2026-04-04T10:44:53.251Z</time></trkpt><trkpt lat="43.3740866" lon="12.4787229"><ele>394.0</ele><time>2026-04-04T10:44:54.254Z</time></trkpt><trkpt lat="43.373928" lon="12.4789102"><ele>394.0</ele><time>2026-04-04T10:44:55.252Z</time></trkpt><trkpt lat="43.3737652" lon="12.479105"><ele>393.0</ele><time>2026-04-04T10:44:56.248Z</time></trkpt><trkpt lat="43.3736151" lon="12.4792945"><ele>392.0</ele><time>2026-04-04T10:44:57.246Z</time></trkpt><trkpt lat="43.3734792" lon="12.4794888"><ele>391.0</ele><time>2026-04-04T10:44:58.248Z</time></trkpt><trkpt lat="43.3733528" lon="12.4796776"><ele>395.0</ele><time>2026-04-04T10:44:59.245Z</time></trkpt><trkpt lat="43.3732466" lon="12.4798807"><ele>399.0</ele><time>2026-04-04T10:45:00.244Z</time></trkpt><trkpt lat="43.3731547" lon="12.4800867"><ele>403.0</ele><time>2026-04-04T10:45:01.241Z</time></trkpt><trkpt lat="43.3731108" lon="12.4803017"><ele>402.6666666666667</ele><time>2026-04-04T10:45:02.249Z</time></trkpt><trkpt lat="43.3731066" lon="12.4805317"><ele>402.33333333333337</ele><time>2026-04-04T10:45:03.246Z</time></trkpt><trkpt lat="43.3731293" lon="12.4807587"><ele>402.0</ele><time>2026-04-04T10:45:04.249Z</time></trkpt><trkpt lat="43.3731811" lon="12.4809873"><ele>402.0</ele><time>2026-04-04T10:45:05.256Z</time></trkpt><trkpt lat="43.3732727" lon="12.4812072"><ele>402.0</ele><time>2026-04-04T10:45:06.252Z</time></trkpt><trkpt lat="43.3734127" lon="12.4813988"><ele>402.0</ele><time>2026-04-04T10:45:07.25Z</time></trkpt><trkpt lat="43.3735662" lon="12.4815741"><ele>402.5</ele><time>2026-04-04T10:45:08.249Z</time></trkpt><trkpt lat="43.3737525" lon="12.4817439"><ele>403.0</ele><time>2026-04-04T10:45:09.249Z</time></trkpt><trkpt lat="43.373955" lon="12.4819177"><ele>400.5</ele><time>2026-04-04T10:45:10.248Z</time></trkpt><trkpt lat="43.3741657" lon="12.4821114"><ele>398.0</ele><time>2026-04-04T10:45:11.253Z</time></trkpt><trkpt lat="43.3743661" lon="12.4823196"><ele>398.0</ele><time>2026-04-04T10:45:12.259Z</time></trkpt><trkpt lat="43.3745504" lon="12.4825354"><ele>398.0</ele><time>2026-04-04T10:45:13.258Z</time></trkpt><trkpt lat="43.3747191" lon="12.4827718"><ele>400.0</ele><time>2026-04-04T10:45:14.251Z</time></trkpt><trkpt lat="43.3748826" lon="12.4830335"><ele>402.0</ele><time>2026-04-04T10:45:15.252Z</time></trkpt><trkpt lat="43.3750343" lon="12.4833133"><ele>402.0</ele><time>2026-04-04T10:45:16.253Z</time></trkpt><trkpt lat="43.3751801" lon="12.4835851"><ele>402.0</ele><time>2026-04-04T10:45:17.252Z</time></trkpt><trkpt lat="43.3753233" lon="12.483835"><ele>403.0</ele><time>2026-04-04T10:45:18.251Z</time></trkpt><trkpt lat="43.3754617" lon="12.4840748"><ele>404.0</ele><time>2026-04-04T10:45:19.254Z</time></trkpt><trkpt lat="43.3756017" lon="12.4843121"><ele>405.0</ele><time>2026-04-04T10:45:20.252Z</time></trkpt><trkpt lat="43.3757451" lon="12.4845539"><ele>402.66666666666663</ele><time>2026-04-04T10:45:21.254Z</time></trkpt><trkpt lat="43.3758856" lon="12.4847855"><ele>400.3333333333333</ele><time>2026-04-04T10:45:22.252Z</time></trkpt><trkpt lat="43.3760237" lon="12.4850169"><ele>398.0</ele><time>2026-04-04T10:45:23.251Z</time></trkpt><trkpt lat="43.3761509" lon="12.4852345"><ele>398.66666666666663</ele><time>2026-04-04T10:45:24.251Z</time></trkpt><trkpt lat="43.3762665" lon="12.4854424"><ele>399.33333333333337</ele><time>2026-04-04T10:45:25.254Z</time></trkpt><trkpt lat="43.3763814" lon="12.4856298"><ele>400.0</ele><time>2026-04-04T10:45:26.252Z</time></trkpt><trkpt lat="43.376489" lon="12.4858073"><ele>400.0</ele><time>2026-04-04T10:45:27.254Z</time></trkpt><trkpt lat="43.3765949" lon="12.4859907"><ele>400.0</ele><time>2026-04-04T10:45:28.253Z</time></trkpt><trkpt lat="43.3767087" lon="12.4861784"><ele>400.0</ele><time>2026-04-04T10:45:29.253Z</time></trkpt><trkpt lat="43.3768225" lon="12.486371"><ele>400.0</ele><time>2026-04-04T10:45:30.26Z</time></trkpt><trkpt lat="43.3769374" lon="12.4865683"><ele>400.0</ele><time>2026-04-04T10:45:31.254Z</time></trkpt><trkpt lat="43.3770561" lon="12.4867618"><ele>400.0</ele><time>2026-04-04T10:45:32.252Z</time></trkpt><trkpt lat="43.3771704" lon="12.4869604"><ele>400.6666666666667</ele><time>2026-04-04T10:45:33.252Z</time></trkpt><trkpt lat="43.377278" lon="12.4871511"><ele>401.33333333333337</ele><time>2026-04-04T10:45:34.252Z</time></trkpt><trkpt lat="43.377388" lon="12.4873355"><ele>402.0</ele><time>2026-04-04T10:45:35.25Z</time></trkpt><trkpt lat="43.3774916" lon="12.4875171"><ele>402.0</ele><time>2026-04-04T10:45:36.257Z</time></trkpt><trkpt lat="43.3775769" lon="12.4876936"><ele>402.0</ele><time>2026-04-04T10:45:37.252Z</time></trkpt><trkpt lat="43.3776396" lon="12.4878812"><ele>402.0</ele><time>2026-04-04T10:45:38.253Z</time></trkpt><trkpt lat="43.3776733" lon="12.4880715"><ele>402.0</ele><time>2026-04-04T10:45:39.254Z</time></trkpt><trkpt lat="43.3776693" lon="12.4882873"><ele>402.0</ele><time>2026-04-04T10:45:40.252Z</time></trkpt><trkpt lat="43.3776463" lon="12.4885156"><ele>402.0</ele><time>2026-04-04T10:45:41.25Z</time></trkpt><trkpt lat="43.3775935" lon="12.488752"><ele>402.0</ele><time>2026-04-04T10:45:42.253Z</time></trkpt><trkpt lat="43.3775234" lon="12.4889912"><ele>402.66666666666663</ele><time>2026-04-04T10:45:43.251Z</time></trkpt><trkpt lat="43.3774599" lon="12.489222"><ele>403.3333333333333</ele><time>2026-04-04T10:45:44.253Z</time></trkpt><trkpt lat="43.3774179" lon="12.4894416"><ele>404.0</ele><time>2026-04-04T10:45:45.25Z</time></trkpt><trkpt lat="43.3773794" lon="12.4896567"><ele>405.3333333333333</ele><time>2026-04-04T10:45:46.253Z</time></trkpt><trkpt lat="43.3773427" lon="12.4898657"><ele>406.66666666666663</ele><time>2026-04-04T10:45:47.262Z</time></trkpt><trkpt lat="43.3773022" lon="12.4900673"><ele>408.0</ele><time>2026-04-04T10:45:48.263Z</time></trkpt><trkpt lat="43.3772562" lon="12.490261"><ele>408.25</ele><time>2026-04-04T10:45:49.258Z</time></trkpt><trkpt lat="43.3772188" lon="12.4904512"><ele>408.5</ele><time>2026-04-04T10:45:50.258Z</time></trkpt><trkpt lat="43.377193" lon="12.4906248"><ele>408.75</ele><time>2026-04-04T10:45:51.254Z</time></trkpt><trkpt lat="43.3771747" lon="12.4907864"><ele>409.0</ele><time>2026-04-04T10:45:52.255Z</time></trkpt><trkpt lat="43.3771674" lon="12.4909433"><ele>409.2</ele><time>2026-04-04T10:45:53.253Z</time></trkpt><trkpt lat="43.3771651" lon="12.4910893"><ele>409.4</ele><time>2026-04-04T10:45:54.254Z</time></trkpt><trkpt lat="43.3771757" lon="12.4912264"><ele>409.6</ele><time>2026-04-04T10:45:55.254Z</time></trkpt><trkpt lat="43.3772028" lon="12.4913589"><ele>409.8</ele><time>2026-04-04T10:45:56.256Z</time></trkpt><trkpt lat="43.3772508" lon="12.4914769"><ele>410.0</ele><time>2026-04-04T10:45:57.265Z</time></trkpt><trkpt lat="43.3773016" lon="12.4915962"><ele>410.0</ele><time>2026-04-04T10:45:58.263Z</time></trkpt><trkpt lat="43.3773487" lon="12.4917203"><ele>410.0</ele><time>2026-04-04T10:45:59.263Z</time></trkpt><trkpt lat="43.3773952" lon="12.4918546"><ele>410.0</ele><time>2026-04-04T10:46:00.265Z</time></trkpt><trkpt lat="43.3774516" lon="12.4920002"><ele>410.0</ele><time>2026-04-04T10:46:01.258Z</time></trkpt><trkpt lat="43.3775107" lon="12.4921601"><ele>410.0</ele><time>2026-04-04T10:46:02.257Z</time></trkpt><trkpt lat="43.3775692" lon="12.4923266"><ele>410.0</ele><time>2026-04-04T10:46:03.26Z</time></trkpt><trkpt lat="43.37763" lon="12.4924865"><ele>410.0</ele><time>2026-04-04T10:46:04.261Z</time></trkpt><trkpt lat="43.3776873" lon="12.492633"><ele>410.0</ele><time>2026-04-04T10:46:05.259Z</time></trkpt><trkpt lat="43.377735" lon="12.4927698"><ele>409.99999999999994</ele><time>2026-04-04T10:46:06.26Z</time></trkpt><trkpt lat="43.377777" lon="12.4929012"><ele>410.0</ele><time>2026-04-04T10:46:07.259Z</time></trkpt><trkpt lat="43.377803" lon="12.4930282"><ele>410.0</ele><time>2026-04-04T10:46:08.262Z</time></trkpt><trkpt lat="43.3778014" lon="12.4931475"><ele>410.0</ele><time>2026-04-04T10:46:09.261Z</time></trkpt><trkpt lat="43.377767" lon="12.4932453"><ele>409.99999999999994</ele><time>2026-04-04T10:46:10.255Z</time></trkpt><trkpt lat="43.3777141" lon="12.4933122"><ele>410.0</ele><time>2026-04-04T10:46:11.254Z</time></trkpt><trkpt lat="43.3776474" lon="12.4933458"><ele>410.25</ele><time>2026-04-04T10:46:12.263Z</time></trkpt><trkpt lat="43.3775584" lon="12.4933493"><ele>410.5</ele><time>2026-04-04T10:46:13.255Z</time></trkpt><trkpt lat="43.3774538" lon="12.4933378"><ele>410.75</ele><time>2026-04-04T10:46:14.253Z</time></trkpt><trkpt lat="43.3773249" lon="12.4932964"><ele>411.0</ele><time>2026-04-04T10:46:15.252Z</time></trkpt><trkpt lat="43.3771728" lon="12.4932489"><ele>411.0</ele><time>2026-04-04T10:46:16.251Z</time></trkpt><trkpt lat="43.3770159" lon="12.4932042"><ele>411.0</ele><time>2026-04-04T10:46:17.254Z</time></trkpt><trkpt lat="43.3768472" lon="12.4931548"><ele>411.0</ele><time>2026-04-04T10:46:18.256Z</time></trkpt><trkpt lat="43.3766842" lon="12.4930971"><ele>411.0</ele><time>2026-04-04T10:46:19.262Z</time></trkpt><trkpt lat="43.3765344" lon="12.4930391"><ele>411.0</ele><time>2026-04-04T10:46:20.254Z</time></trkpt><trkpt lat="43.376399" lon="12.4930199"><ele>411.0</ele><time>2026-04-04T10:46:21.252Z</time></trkpt><trkpt lat="43.3762834" lon="12.4930465"><ele>411.0</ele><time>2026-04-04T10:46:22.255Z</time></trkpt><trkpt lat="43.3761839" lon="12.4931281"><ele>411.4</ele><time>2026-04-04T10:46:23.252Z</time></trkpt><trkpt lat="43.37611" lon="12.4932327"><ele>411.8</ele><time>2026-04-04T10:46:24.252Z</time></trkpt><trkpt lat="43.3760505" lon="12.4933534"><ele>412.2</ele><time>2026-04-04T10:46:25.255Z</time></trkpt><trkpt lat="43.376014" lon="12.4934972"><ele>412.59999999999997</ele><time>2026-04-04T10:46:26.259Z</time></trkpt><trkpt lat="43.3760118" lon="12.4936472"><ele>413.0</ele><time>2026-04-04T10:46:27.263Z</time></trkpt><trkpt lat="43.3760309" lon="12.4938038"><ele>413.0</ele><time>2026-04-04T10:46:28.263Z</time></trkpt><trkpt lat="43.3760777" lon="12.4939642"><ele>413.0</ele><time>2026-04-04T10:46:29.263Z</time></trkpt><trkpt lat="43.3761464" lon="12.494107"><ele>413.0</ele><time>2026-04-04T10:46:30.265Z</time></trkpt><trkpt lat="43.3762338" lon="12.4942326"><ele>413.0</ele><time>2026-04-04T10:46:31.258Z</time></trkpt><trkpt lat="43.3763408" lon="12.4943415"><ele>412.75</ele><time>2026-04-04T10:46:32.259Z</time></trkpt><trkpt lat="43.376456" lon="12.4944423"><ele>412.5</ele><time>2026-04-04T10:46:33.264Z</time></trkpt><trkpt lat="43.3765636" lon="12.4945538"><ele>412.25</ele><time>2026-04-04T10:46:34.255Z</time></trkpt><trkpt lat="43.3766619" lon="12.4946759"><ele>412.0</ele><time>2026-04-04T10:46:35.261Z</time></trkpt><trkpt lat="43.3767389" lon="12.4948242"><ele>412.0</ele><time>2026-04-04T10:46:36.26Z</time></trkpt><trkpt lat="43.3767744" lon="12.4949896"><ele>412.0</ele><time>2026-04-04T10:46:37.259Z</time></trkpt><trkpt lat="43.3767809" lon="12.4951969"><ele>412.0</ele><time>2026-04-04T10:46:38.261Z</time></trkpt><trkpt lat="43.3767491" lon="12.4954632"><ele>412.0</ele><time>2026-04-04T10:46:39.26Z</time></trkpt><trkpt lat="43.376702" lon="12.4957874"><ele>412.0</ele><time>2026-04-04T10:46:40.253Z</time></trkpt><trkpt lat="43.3766596" lon="12.4961135"><ele>411.5</ele><time>2026-04-04T10:46:41.256Z</time></trkpt><trkpt lat="43.3766246" lon="12.496425"><ele>411.0</ele><time>2026-04-04T10:46:42.261Z</time></trkpt><trkpt lat="43.3765919" lon="12.4967419"><ele>411.0</ele><time>2026-04-04T10:46:43.254Z</time></trkpt><trkpt lat="43.3765563" lon="12.4970633"><ele>411.0</ele><time>2026-04-04T10:46:44.256Z</time></trkpt><trkpt lat="43.3765224" lon="12.4973697"><ele>410.66666666666663</ele><time>2026-04-04T10:46:45.258Z</time></trkpt><trkpt lat="43.3764837" lon="12.4976523"><ele>410.3333333333333</ele><time>2026-04-04T10:46:46.254Z</time></trkpt><trkpt lat="43.3764381" lon="12.4979389"><ele>410.0</ele><time>2026-04-04T10:46:47.254Z</time></trkpt><trkpt lat="43.3763833" lon="12.4982353"><ele>411.0</ele><time>2026-04-04T10:46:48.259Z</time></trkpt><trkpt lat="43.3763204" lon="12.4985461"><ele>412.0</ele><time>2026-04-04T10:46:49.255Z</time></trkpt><trkpt lat="43.376244" lon="12.4988687"><ele>412.0</ele><time>2026-04-04T10:46:50.262Z</time></trkpt><trkpt lat="43.3761436" lon="12.4992099"><ele>412.0</ele><time>2026-04-04T10:46:51.255Z</time></trkpt><trkpt lat="43.3760174" lon="12.4995524"><ele>411.5</ele><time>2026-04-04T10:46:52.259Z</time></trkpt><trkpt lat="43.3758696" lon="12.4998776"><ele>411.0</ele><time>2026-04-04T10:46:53.261Z</time></trkpt><trkpt lat="43.3757138" lon="12.5002042"><ele>411.0</ele><time>2026-04-04T10:46:54.262Z</time></trkpt><trkpt lat="43.3755588" lon="12.500521"><ele>411.0</ele><time>2026-04-04T10:46:55.258Z</time></trkpt><trkpt lat="43.3753887" lon="12.5008234"><ele>411.0</ele><time>2026-04-04T10:46:56.257Z</time></trkpt><trkpt lat="43.3752265" lon="12.5011387"><ele>411.0</ele><time>2026-04-04T10:46:57.264Z</time></trkpt><trkpt lat="43.3750542" lon="12.5014363"><ele>411.0</ele><time>2026-04-04T10:46:58.257Z</time></trkpt><trkpt lat="43.3748892" lon="12.5017306"><ele>411.0</ele><time>2026-04-04T10:46:59.257Z</time></trkpt><trkpt lat="43.3747301" lon="12.5020208"><ele>408.5</ele><time>2026-04-04T10:47:00.257Z</time></trkpt><trkpt lat="43.3745777" lon="12.5023113"><ele>406.0</ele><time>2026-04-04T10:47:01.251Z</time></trkpt><trkpt lat="43.3744229" lon="12.5026019"><ele>406.0</ele><time>2026-04-04T10:47:02.25Z</time></trkpt><trkpt lat="43.3742727" lon="12.5028891"><ele>406.0</ele><time>2026-04-04T10:47:03.247Z</time></trkpt><trkpt lat="43.3741206" lon="12.503175"><ele>405.5</ele><time>2026-04-04T10:47:04.259Z</time></trkpt><trkpt lat="43.3739697" lon="12.503464"><ele>405.0</ele><time>2026-04-04T10:47:05.252Z</time></trkpt><trkpt lat="43.3738212" lon="12.5037602"><ele>404.0</ele><time>2026-04-04T10:47:06.256Z</time></trkpt><trkpt lat="43.3736733" lon="12.5040593"><ele>403.0</ele><time>2026-04-04T10:47:07.253Z</time></trkpt><trkpt lat="43.3735229" lon="12.5043577"><ele>403.5</ele><time>2026-04-04T10:47:08.258Z</time></trkpt><trkpt lat="43.3733697" lon="12.5046579"><ele>404.0</ele><time>2026-04-04T10:47:09.264Z</time></trkpt><trkpt lat="43.3732208" lon="12.5049569"><ele>404.0</ele><time>2026-04-04T10:47:10.255Z</time></trkpt><trkpt lat="43.3730701" lon="12.5052556"><ele>404.0</ele><time>2026-04-04T10:47:11.251Z</time></trkpt><trkpt lat="43.3729049" lon="12.5055493"><ele>402.0</ele><time>2026-04-04T10:47:12.258Z</time></trkpt><trkpt lat="43.3727422" lon="12.5058383"><ele>400.0</ele><time>2026-04-04T10:47:13.253Z</time></trkpt><trkpt lat="43.3725816" lon="12.50613"><ele>399.5</ele><time>2026-04-04T10:47:14.259Z</time></trkpt><trkpt lat="43.3724316" lon="12.5064258"><ele>399.0</ele><time>2026-04-04T10:47:15.26Z</time></trkpt><trkpt lat="43.3722776" lon="12.506719"><ele>398.5</ele><time>2026-04-04T10:47:16.255Z</time></trkpt><trkpt lat="43.3721247" lon="12.5070056"><ele>398.0</ele><time>2026-04-04T10:47:17.267Z</time></trkpt><trkpt lat="43.3719691" lon="12.5073036"><ele>398.0</ele><time>2026-04-04T10:47:18.259Z</time></trkpt><trkpt lat="43.371807" lon="12.5075837"><ele>398.0</ele><time>2026-04-04T10:47:19.258Z</time></trkpt><trkpt lat="43.3716453" lon="12.5078549"><ele>398.5</ele><time>2026-04-04T10:47:20.271Z</time></trkpt><trkpt lat="43.3714844" lon="12.5081246"><ele>399.0</ele><time>2026-04-04T10:47:21.263Z</time></trkpt><trkpt lat="43.3713238" lon="12.5083947"><ele>399.0</ele><time>2026-04-04T10:47:22.262Z</time></trkpt><trkpt lat="43.3711703" lon="12.5086703"><ele>399.0</ele><time>2026-04-04T10:47:23.26Z</time></trkpt><trkpt lat="43.3710049" lon="12.5089564"><ele>400.0</ele><time>2026-04-04T10:47:24.26Z</time></trkpt><trkpt lat="43.3708384" lon="12.5092375"><ele>401.0</ele><time>2026-04-04T10:47:25.272Z</time></trkpt><trkpt lat="43.3706757" lon="12.509522"><ele>399.5</ele><time>2026-04-04T10:47:26.261Z</time></trkpt><trkpt lat="43.3705028" lon="12.5097958"><ele>398.0</ele><time>2026-04-04T10:47:27.262Z</time></trkpt><trkpt lat="43.3703305" lon="12.5100747"><ele>398.0</ele><time>2026-04-04T10:47:28.261Z</time></trkpt><trkpt lat="43.3701632" lon="12.5103524"><ele>398.0</ele><time>2026-04-04T10:47:29.266Z</time></trkpt><trkpt lat="43.3699931" lon="12.5106299"><ele>399.5</ele><time>2026-04-04T10:47:30.262Z</time></trkpt><trkpt lat="43.3698197" lon="12.5109056"><ele>401.0</ele><time>2026-04-04T10:47:31.261Z</time></trkpt><trkpt lat="43.3696492" lon="12.5111823"><ele>401.0</ele><time>2026-04-04T10:47:32.257Z</time></trkpt><trkpt lat="43.3694817" lon="12.5114646"><ele>401.0</ele><time>2026-04-04T10:47:33.255Z</time></trkpt><trkpt lat="43.3693125" lon="12.5117539"><ele>401.0</ele><time>2026-04-04T10:47:34.259Z</time></trkpt><trkpt lat="43.3691505" lon="12.5120427"><ele>401.0</ele><time>2026-04-04T10:47:35.26Z</time></trkpt><trkpt lat="43.3689844" lon="12.512335"><ele>401.5</ele><time>2026-04-04T10:47:36.256Z</time></trkpt><trkpt lat="43.3688257" lon="12.5126262"><ele>402.0</ele><time>2026-04-04T10:47:37.262Z</time></trkpt><trkpt lat="43.3686589" lon="12.5129209"><ele>402.5</ele><time>2026-04-04T10:47:38.265Z</time></trkpt><trkpt lat="43.3684932" lon="12.5132033"><ele>403.0</ele><time>2026-04-04T10:47:39.26Z</time></trkpt><trkpt lat="43.3683377" lon="12.5134795"><ele>403.5</ele><time>2026-04-04T10:47:40.265Z</time></trkpt><trkpt lat="43.3681842" lon="12.5137705"><ele>404.0</ele><time>2026-04-04T10:47:41.256Z</time></trkpt><trkpt lat="43.3680339" lon="12.5140582"><ele>404.0</ele><time>2026-04-04T10:47:42.256Z</time></trkpt><trkpt lat="43.3678744" lon="12.5143485"><ele>404.0</ele><time>2026-04-04T10:47:43.257Z</time></trkpt><trkpt lat="43.367722" lon="12.5146412"><ele>404.0</ele><time>2026-04-04T10:47:44.257Z</time></trkpt><trkpt lat="43.3675732" lon="12.5149357"><ele>404.0</ele><time>2026-04-04T10:47:45.259Z</time></trkpt><trkpt lat="43.3674191" lon="12.5152339"><ele>404.5</ele><time>2026-04-04T10:47:46.267Z</time></trkpt><trkpt lat="43.3672644" lon="12.5155374"><ele>405.0</ele><time>2026-04-04T10:47:47.257Z</time></trkpt><trkpt lat="43.3671136" lon="12.5158421"><ele>405.0</ele><time>2026-04-04T10:47:48.265Z</time></trkpt><trkpt lat="43.3669628" lon="12.5161441"><ele>405.0</ele><time>2026-04-04T10:47:49.265Z</time></trkpt><trkpt lat="43.3668137" lon="12.5164432"><ele>406.5</ele><time>2026-04-04T10:47:50.261Z</time></trkpt><trkpt lat="43.3666708" lon="12.5167462"><ele>408.0</ele><time>2026-04-04T10:47:51.261Z</time></trkpt><trkpt lat="43.3665262" lon="12.5170508"><ele>408.0</ele><time>2026-04-04T10:47:52.258Z</time></trkpt><trkpt lat="43.3663789" lon="12.5173635"><ele>408.0</ele><time>2026-04-04T10:47:53.26Z</time></trkpt><trkpt lat="43.3662278" lon="12.5176816"><ele>409.0</ele><time>2026-04-04T10:47:54.261Z</time></trkpt><trkpt lat="43.3660733" lon="12.5180065"><ele>410.0</ele><time>2026-04-04T10:47:55.262Z</time></trkpt><trkpt lat="43.3659126" lon="12.5183313"><ele>410.0</ele><time>2026-04-04T10:47:56.262Z</time></trkpt><trkpt lat="43.3657496" lon="12.5186612"><ele>410.0</ele><time>2026-04-04T10:47:57.261Z</time></trkpt><trkpt lat="43.3655823" lon="12.5189871"><ele>410.5</ele><time>2026-04-04T10:47:58.266Z</time></trkpt><trkpt lat="43.3654134" lon="12.5193134"><ele>411.0</ele><time>2026-04-04T10:47:59.266Z</time></trkpt><trkpt lat="43.3652432" lon="12.5196362"><ele>412.5</ele><time>2026-04-04T10:48:00.264Z</time></trkpt><trkpt lat="43.3650754" lon="12.5199599"><ele>414.0</ele><time>2026-04-04T10:48:01.268Z</time></trkpt><trkpt lat="43.3649078" lon="12.520275"><ele>414.0</ele><time>2026-04-04T10:48:02.265Z</time></trkpt><trkpt lat="43.364742" lon="12.5205854"><ele>414.0</ele><time>2026-04-04T10:48:03.272Z</time></trkpt><trkpt lat="43.3645751" lon="12.5208885"><ele>414.0</ele><time>2026-04-04T10:48:04.269Z</time></trkpt><trkpt lat="43.3644067" lon="12.5211794"><ele>414.0</ele><time>2026-04-04T10:48:05.269Z</time></trkpt><trkpt lat="43.36424" lon="12.5214626"><ele>414.5</ele><time>2026-04-04T10:48:06.275Z</time></trkpt><trkpt lat="43.3640839" lon="12.5217372"><ele>415.0</ele><time>2026-04-04T10:48:07.267Z</time></trkpt><trkpt lat="43.3639325" lon="12.5220064"><ele>415.0</ele><time>2026-04-04T10:48:08.269Z</time></trkpt><trkpt lat="43.3637784" lon="12.5222874"><ele>415.0</ele><time>2026-04-04T10:48:09.266Z</time></trkpt><trkpt lat="43.3636166" lon="12.5225767"><ele>415.0</ele><time>2026-04-04T10:48:10.266Z</time></trkpt><trkpt lat="43.3634503" lon="12.5228796"><ele>415.0</ele><time>2026-04-04T10:48:11.271Z</time></trkpt><trkpt lat="43.3632788" lon="12.5231799"><ele>416.5</ele><time>2026-04-04T10:48:12.263Z</time></trkpt><trkpt lat="43.3631063" lon="12.5234887"><ele>418.0</ele><time>2026-04-04T10:48:13.264Z</time></trkpt><trkpt lat="43.362934" lon="12.523783"><ele>420.0</ele><time>2026-04-04T10:48:14.263Z</time></trkpt><trkpt lat="43.3627593" lon="12.5240721"><ele>422.0</ele><time>2026-04-04T10:48:15.264Z</time></trkpt><trkpt lat="43.3625971" lon="12.5243579"><ele>421.5</ele><time>2026-04-04T10:48:16.261Z</time></trkpt><trkpt lat="43.3624397" lon="12.5246395"><ele>421.0</ele><time>2026-04-04T10:48:17.264Z</time></trkpt><trkpt lat="43.3622751" lon="12.5249177"><ele>420.5</ele><time>2026-04-04T10:48:18.265Z</time></trkpt><trkpt lat="43.3621178" lon="12.5251898"><ele>420.0</ele><time>2026-04-04T10:48:19.264Z</time></trkpt><trkpt lat="43.3619619" lon="12.5254652"><ele>421.0</ele><time>2026-04-04T10:48:20.262Z</time></trkpt><trkpt lat="43.3618063" lon="12.5257424"><ele>422.0</ele><time>2026-04-04T10:48:21.263Z</time></trkpt><trkpt lat="43.3616482" lon="12.526012"><ele>423.5</ele><time>2026-04-04T10:48:22.275Z</time></trkpt><trkpt lat="43.3614978" lon="12.5262844"><ele>425.0</ele><time>2026-04-04T10:48:23.267Z</time></trkpt><trkpt lat="43.3613424" lon="12.5265544"><ele>425.0</ele><time>2026-04-04T10:48:24.265Z</time></trkpt><trkpt lat="43.3611869" lon="12.5268239"><ele>425.0</ele><time>2026-04-04T10:48:25.265Z</time></trkpt><trkpt lat="43.3610312" lon="12.5270894"><ele>425.5</ele><time>2026-04-04T10:48:26.263Z</time></trkpt><trkpt lat="43.3608823" lon="12.5273492"><ele>426.0</ele><time>2026-04-04T10:48:27.269Z</time></trkpt><trkpt lat="43.3607313" lon="12.5276138"><ele>426.0</ele><time>2026-04-04T10:48:28.265Z</time></trkpt><trkpt lat="43.3605786" lon="12.5278735"><ele>426.0</ele><time>2026-04-04T10:48:29.269Z</time></trkpt><trkpt lat="43.3604259" lon="12.5281343"><ele>426.5</ele><time>2026-04-04T10:48:30.267Z</time></trkpt><trkpt lat="43.3602756" lon="12.5283935"><ele>427.0</ele><time>2026-04-04T10:48:31.266Z</time></trkpt><trkpt lat="43.3601363" lon="12.5286468"><ele>428.5</ele><time>2026-04-04T10:48:32.265Z</time></trkpt><trkpt lat="43.3599951" lon="12.5289011"><ele>430.0</ele><time>2026-04-04T10:48:33.264Z</time></trkpt><trkpt lat="43.3598521" lon="12.5291588"><ele>430.0</ele><time>2026-04-04T10:48:34.269Z</time></trkpt><trkpt lat="43.3597069" lon="12.5294101"><ele>430.0</ele><time>2026-04-04T10:48:35.266Z</time></trkpt><trkpt lat="43.3595636" lon="12.5296654"><ele>430.0</ele><time>2026-04-04T10:48:36.263Z</time></trkpt><trkpt lat="43.3594178" lon="12.5299272"><ele>430.0</ele><time>2026-04-04T10:48:37.263Z</time></trkpt><trkpt lat="43.3592658" lon="12.5301956"><ele>432.0</ele><time>2026-04-04T10:48:38.262Z</time></trkpt><trkpt lat="43.3591223" lon="12.5304517"><ele>434.0</ele><time>2026-04-04T10:48:39.267Z</time></trkpt><trkpt lat="43.3589737" lon="12.5307105"><ele>432.5</ele><time>2026-04-04T10:48:40.262Z</time></trkpt><trkpt lat="43.3588226" lon="12.5309776"><ele>431.0</ele><time>2026-04-04T10:48:41.263Z</time></trkpt><trkpt lat="43.358667" lon="12.5312485"><ele>431.0</ele><time>2026-04-04T10:48:42.271Z</time></trkpt><trkpt lat="43.358521" lon="12.5315176"><ele>431.0</ele><time>2026-04-04T10:48:43.267Z</time></trkpt><trkpt lat="43.3583742" lon="12.5317931"><ele>433.0</ele><time>2026-04-04T10:48:44.266Z</time></trkpt><trkpt lat="43.3582454" lon="12.5320698"><ele>435.0</ele><time>2026-04-04T10:48:45.265Z</time></trkpt><trkpt lat="43.35813" lon="12.5323498"><ele>435.0</ele><time>2026-04-04T10:48:46.269Z</time></trkpt><trkpt lat="43.3580162" lon="12.5326335"><ele>435.0</ele><time>2026-04-04T10:48:47.268Z</time></trkpt><trkpt lat="43.3579187" lon="12.5329296"><ele>435.0</ele><time>2026-04-04T10:48:48.269Z</time></trkpt><trkpt lat="43.3578349" lon="12.5332402"><ele>435.0</ele><time>2026-04-04T10:48:49.271Z</time></trkpt><trkpt lat="43.3577652" lon="12.5335514"><ele>436.0</ele><time>2026-04-04T10:48:50.263Z</time></trkpt><trkpt lat="43.3577111" lon="12.533871"><ele>437.0</ele><time>2026-04-04T10:48:51.265Z</time></trkpt><trkpt lat="43.3576691" lon="12.5341932"><ele>437.0</ele><time>2026-04-04T10:48:52.276Z</time></trkpt><trkpt lat="43.3576331" lon="12.5345147"><ele>437.0</ele><time>2026-04-04T10:48:53.265Z</time></trkpt><trkpt lat="43.3575968" lon="12.5348408"><ele>437.0</ele><time>2026-04-04T10:48:54.269Z</time></trkpt><trkpt lat="43.3575575" lon="12.5351639"><ele>437.0</ele><time>2026-04-04T10:48:55.272Z</time></trkpt><trkpt lat="43.3575216" lon="12.5354918"><ele>438.5</ele><time>2026-04-04T10:48:56.268Z</time></trkpt><trkpt lat="43.357495" lon="12.5358314"><ele>440.0</ele><time>2026-04-04T10:48:57.272Z</time></trkpt><trkpt lat="43.3574641" lon="12.5361893"><ele>440.5</ele><time>2026-04-04T10:48:58.267Z</time></trkpt><trkpt lat="43.3574159" lon="12.5365918"><ele>441.0</ele><time>2026-04-04T10:48:59.273Z</time></trkpt><trkpt lat="43.3573651" lon="12.5370095"><ele>442.0</ele><time>2026-04-04T10:49:00.277Z</time></trkpt><trkpt lat="43.3573044" lon="12.5374526"><ele>443.0</ele><time>2026-04-04T10:49:01.268Z</time></trkpt><trkpt lat="43.3572463" lon="12.5378881"><ele>444.0</ele><time>2026-04-04T10:49:02.269Z</time></trkpt><trkpt lat="43.3571896" lon="12.5382915"><ele>445.0</ele><time>2026-04-04T10:49:03.271Z</time></trkpt><trkpt lat="43.35714" lon="12.5386893"><ele>446.0</ele><time>2026-04-04T10:49:04.273Z</time></trkpt><trkpt lat="43.3570854" lon="12.539082"><ele>447.0</ele><time>2026-04-04T10:49:05.27Z</time></trkpt><trkpt lat="43.357028" lon="12.5394716"><ele>446.5</ele><time>2026-04-04T10:49:06.277Z</time></trkpt><trkpt lat="43.3569754" lon="12.5398485"><ele>446.0</ele><time>2026-04-04T10:49:07.266Z</time></trkpt><trkpt lat="43.3569235" lon="12.5402219"><ele>447.5</ele><time>2026-04-04T10:49:08.263Z</time></trkpt><trkpt lat="43.3568709" lon="12.5405859"><ele>449.0</ele><time>2026-04-04T10:49:09.262Z</time></trkpt><trkpt lat="43.3568195" lon="12.5409095"><ele>449.0</ele><time>2026-04-04T10:49:10.264Z</time></trkpt><trkpt lat="43.3567929" lon="12.5412078"><ele>449.0</ele><time>2026-04-04T10:49:11.262Z</time></trkpt><trkpt lat="43.3567621" lon="12.541501"><ele>449.0</ele><time>2026-04-04T10:49:12.266Z</time></trkpt><trkpt lat="43.3567263" lon="12.5418002"><ele>450.5</ele><time>2026-04-04T10:49:13.268Z</time></trkpt><trkpt lat="43.356686" lon="12.542104"><ele>452.0</ele><time>2026-04-04T10:49:14.271Z</time></trkpt><trkpt lat="43.3566427" lon="12.5424183"><ele>452.0</ele><time>2026-04-04T10:49:15.27Z</time></trkpt><trkpt lat="43.3565989" lon="12.5427467"><ele>452.0</ele><time>2026-04-04T10:49:16.271Z</time></trkpt><trkpt lat="43.3565571" lon="12.5430796"><ele>452.5</ele><time>2026-04-04T10:49:17.274Z</time></trkpt><trkpt lat="43.3565086" lon="12.5434254"><ele>453.0</ele><time>2026-04-04T10:49:18.277Z</time></trkpt><trkpt lat="43.3564608" lon="12.5437713"><ele>454.5</ele><time>2026-04-04T10:49:19.275Z</time></trkpt><trkpt lat="43.3564148" lon="12.5441219"><ele>456.0</ele><time>2026-04-04T10:49:20.278Z</time></trkpt><trkpt lat="43.3563747" lon="12.544474"><ele>454.5</ele><time>2026-04-04T10:49:21.276Z</time></trkpt><trkpt lat="43.3563299" lon="12.5448277"><ele>453.0</ele><time>2026-04-04T10:49:22.274Z</time></trkpt><trkpt lat="43.3562825" lon="12.5451907"><ele>454.5</ele><time>2026-04-04T10:49:23.274Z</time></trkpt><trkpt lat="43.3562328" lon="12.5455514"><ele>456.0</ele><time>2026-04-04T10:49:24.274Z</time></trkpt><trkpt lat="43.35619" lon="12.5458863"><ele>456.0</ele><time>2026-04-04T10:49:25.273Z</time></trkpt><trkpt lat="43.3561507" lon="12.5461934"><ele>456.0</ele><time>2026-04-04T10:49:26.269Z</time></trkpt><trkpt lat="43.3561141" lon="12.5464901"><ele>456.0</ele><time>2026-04-04T10:49:27.279Z</time></trkpt><trkpt lat="43.3560748" lon="12.5468017"><ele>456.5</ele><time>2026-04-04T10:49:28.273Z</time></trkpt><trkpt lat="43.3560333" lon="12.5471234"><ele>457.0</ele><time>2026-04-04T10:49:29.28Z</time></trkpt><trkpt lat="43.3559917" lon="12.5474459"><ele>457.0</ele><time>2026-04-04T10:49:30.276Z</time></trkpt><trkpt lat="43.3559515" lon="12.5477778"><ele>457.0</ele><time>2026-04-04T10:49:31.273Z</time></trkpt><trkpt lat="43.3559005" lon="12.5481181"><ele>459.0</ele><time>2026-04-04T10:49:32.277Z</time></trkpt><trkpt lat="43.3558418" lon="12.5484554"><ele>461.0</ele><time>2026-04-04T10:49:33.274Z</time></trkpt><trkpt lat="43.3557666" lon="12.5487852"><ele>461.5</ele><time>2026-04-04T10:49:34.273Z</time></trkpt><trkpt lat="43.3556876" lon="12.5491147"><ele>462.0</ele><time>2026-04-04T10:49:35.272Z</time></trkpt><trkpt lat="43.3555997" lon="12.5494366"><ele>460.5</ele><time>2026-04-04T10:49:36.277Z</time></trkpt><trkpt lat="43.3555016" lon="12.5497533"><ele>459.0</ele><time>2026-04-04T10:49:37.277Z</time></trkpt><trkpt lat="43.3553915" lon="12.5500756"><ele>458.5</ele><time>2026-04-04T10:49:38.275Z</time></trkpt><trkpt lat="43.3552696" lon="12.5503992"><ele>458.0</ele><time>2026-04-04T10:49:39.277Z</time></trkpt><trkpt lat="43.3551349" lon="12.550728"><ele>458.0</ele><time>2026-04-04T10:49:40.274Z</time></trkpt><trkpt lat="43.354989" lon="12.5510552"><ele>458.0</ele><time>2026-04-04T10:49:41.259Z</time></trkpt><trkpt lat="43.3548389" lon="12.5513813"><ele>458.5</ele><time>2026-04-04T10:49:42.253Z</time></trkpt><trkpt lat="43.354677" lon="12.5517085"><ele>459.0</ele><time>2026-04-04T10:49:43.262Z</time></trkpt><trkpt lat="43.3545052" lon="12.5520178"><ele>459.5</ele><time>2026-04-04T10:49:44.257Z</time></trkpt><trkpt lat="43.35434" lon="12.5523302"><ele>460.0</ele><time>2026-04-04T10:49:45.259Z</time></trkpt><trkpt lat="43.3541696" lon="12.5526356"><ele>459.5</ele><time>2026-04-04T10:49:46.257Z</time></trkpt><trkpt lat="43.3539988" lon="12.5529422"><ele>459.0</ele><time>2026-04-04T10:49:47.253Z</time></trkpt><trkpt lat="43.3538303" lon="12.5532455"><ele>458.5</ele><time>2026-04-04T10:49:48.252Z</time></trkpt><trkpt lat="43.3536659" lon="12.5535526"><ele>458.0</ele><time>2026-04-04T10:49:49.257Z</time></trkpt><trkpt lat="43.3535054" lon="12.5538592"><ele>458.0</ele><time>2026-04-04T10:49:50.258Z</time></trkpt><trkpt lat="43.3533505" lon="12.5541549"><ele>458.0</ele><time>2026-04-04T10:49:51.256Z</time></trkpt><trkpt lat="43.3532025" lon="12.5544502"><ele>458.5</ele><time>2026-04-04T10:49:52.261Z</time></trkpt><trkpt lat="43.3530446" lon="12.5547435"><ele>459.0</ele><time>2026-04-04T10:49:53.255Z</time></trkpt><trkpt lat="43.3528865" lon="12.555029"><ele>459.0</ele><time>2026-04-04T10:49:54.254Z</time></trkpt><trkpt lat="43.3527223" lon="12.5553056"><ele>459.0</ele><time>2026-04-04T10:49:55.259Z</time></trkpt><trkpt lat="43.3525569" lon="12.5555922"><ele>459.5</ele><time>2026-04-04T10:49:56.257Z</time></trkpt><trkpt lat="43.3523967" lon="12.5558826"><ele>460.0</ele><time>2026-04-04T10:49:57.259Z</time></trkpt><trkpt lat="43.3522292" lon="12.5561819"><ele>458.0</ele><time>2026-04-04T10:49:58.247Z</time></trkpt><trkpt lat="43.352056" lon="12.5564806"><ele>456.0</ele><time>2026-04-04T10:49:59.261Z</time></trkpt><trkpt lat="43.3518809" lon="12.5567794"><ele>457.0</ele><time>2026-04-04T10:50:00.256Z</time></trkpt><trkpt lat="43.3517175" lon="12.5570747"><ele>458.0</ele><time>2026-04-04T10:50:01.252Z</time></trkpt><trkpt lat="43.3515605" lon="12.5573547"><ele>458.0</ele><time>2026-04-04T10:50:02.251Z</time></trkpt><trkpt lat="43.3513971" lon="12.5576248"><ele>458.0</ele><time>2026-04-04T10:50:03.252Z</time></trkpt><trkpt lat="43.3512339" lon="12.5578839"><ele>460.0</ele><time>2026-04-04T10:50:04.251Z</time></trkpt><trkpt lat="43.3510666" lon="12.5581462"><ele>462.0</ele><time>2026-04-04T10:50:05.254Z</time></trkpt><trkpt lat="43.3509041" lon="12.5584027"><ele>462.0</ele><time>2026-04-04T10:50:06.255Z</time></trkpt><trkpt lat="43.3507282" lon="12.5586509"><ele>462.0</ele><time>2026-04-04T10:50:07.253Z</time></trkpt><trkpt lat="43.3505539" lon="12.5588957"><ele>462.5</ele><time>2026-04-04T10:50:08.254Z</time></trkpt><trkpt lat="43.3503764" lon="12.5591207"><ele>463.0</ele><time>2026-04-04T10:50:09.256Z</time></trkpt><trkpt lat="43.3502065" lon="12.5593372"><ele>462.33333333333337</ele><time>2026-04-04T10:50:10.251Z</time></trkpt><trkpt lat="43.350045" lon="12.5595427"><ele>461.66666666666663</ele><time>2026-04-04T10:50:11.253Z</time></trkpt><trkpt lat="43.3498891" lon="12.5597444"><ele>461.0</ele><time>2026-04-04T10:50:12.25Z</time></trkpt><trkpt lat="43.3497336" lon="12.5599327"><ele>461.0</ele><time>2026-04-04T10:50:13.25Z</time></trkpt><trkpt lat="43.3495738" lon="12.560128"><ele>461.0</ele><time>2026-04-04T10:50:14.251Z</time></trkpt><trkpt lat="43.3494216" lon="12.5603159"><ele>461.0</ele><time>2026-04-04T10:50:15.255Z</time></trkpt><trkpt lat="43.3492694" lon="12.5604863"><ele>461.3333333333333</ele><time>2026-04-04T10:50:16.252Z</time></trkpt><trkpt lat="43.3491298" lon="12.5606265"><ele>461.66666666666663</ele><time>2026-04-04T10:50:17.25Z</time></trkpt><trkpt lat="43.348997" lon="12.560762"><ele>462.0</ele><time>2026-04-04T10:50:18.255Z</time></trkpt><trkpt lat="43.3488636" lon="12.5608829"><ele>462.25</ele><time>2026-04-04T10:50:19.257Z</time></trkpt><trkpt lat="43.348736" lon="12.5609932"><ele>462.5</ele><time>2026-04-04T10:50:20.249Z</time></trkpt><trkpt lat="43.3486327" lon="12.5610976"><ele>462.75</ele><time>2026-04-04T10:50:21.254Z</time></trkpt><trkpt lat="43.3485517" lon="12.5611889"><ele>463.0</ele><time>2026-04-04T10:50:22.25Z</time></trkpt><trkpt lat="43.348485" lon="12.561263"><ele>463.1666666666667</ele><time>2026-04-04T10:50:23.254Z</time></trkpt><trkpt lat="43.34842" lon="12.5613274"><ele>463.33333333333337</ele><time>2026-04-04T10:50:24.253Z</time></trkpt><trkpt lat="43.3483575" lon="12.5613737"><ele>463.5</ele><time>2026-04-04T10:50:25.259Z</time></trkpt><trkpt lat="43.3482528" lon="12.5614218"><ele>463.66666666666663</ele><time>2026-04-04T10:50:27.261Z</time></trkpt><trkpt lat="43.3481687" lon="12.5614184"><ele>463.8333333333333</ele><time>2026-04-04T10:50:29.258Z</time></trkpt><trkpt lat="43.3481014" lon="12.5614129"><ele>464.0</ele><time>2026-04-04T10:50:31.252Z</time></trkpt><trkpt lat="43.3480379" lon="12.5614232"><ele>463.99999999999994</ele><time>2026-04-04T10:50:34.247Z</time></trkpt><trkpt lat="43.3479695" lon="12.5614013"><ele>464.0</ele><time>2026-04-04T10:50:38.243Z</time></trkpt><trkpt lat="43.3479328" lon="12.5614909"><ele>464.0</ele><time>2026-04-04T10:55:30.274Z</time></trkpt><trkpt lat="43.3479621" lon="12.5615785"><ele>464.0</ele><time>2026-04-04T10:56:01.268Z</time></trkpt><trkpt lat="43.3479843" lon="12.5616856"><ele>463.99999999999994</ele><time>2026-04-04T10:56:03.261Z</time></trkpt><trkpt lat="43.347983" lon="12.5617991"><ele>464.0</ele><time>2026-04-04T10:56:05.258Z</time></trkpt><trkpt lat="43.3479679" lon="12.5618954"><ele>464.25</ele><time>2026-04-04T10:56:13.268Z</time></trkpt><trkpt lat="43.3478629" lon="12.5620561"><ele>464.5</ele><time>2026-04-04T10:56:15.265Z</time></trkpt><trkpt lat="43.3477658" lon="12.5621621"><ele>464.75</ele><time>2026-04-04T10:56:16.261Z</time></trkpt><trkpt lat="43.3476556" lon="12.5622735"><ele>465.0</ele><time>2026-04-04T10:56:17.268Z</time></trkpt><trkpt lat="43.347537" lon="12.5623969"><ele>465.0</ele><time>2026-04-04T10:56:18.267Z</time></trkpt><trkpt lat="43.3474108" lon="12.562524"><ele>465.0</ele><time>2026-04-04T10:56:19.27Z</time></trkpt><trkpt lat="43.3472696" lon="12.5626585"><ele>465.0</ele><time>2026-04-04T10:56:20.276Z</time></trkpt><trkpt lat="43.3471176" lon="12.5628106"><ele>465.0</ele><time>2026-04-04T10:56:21.273Z</time></trkpt><trkpt lat="43.3469587" lon="12.5629706"><ele>465.0</ele><time>2026-04-04T10:56:22.272Z</time></trkpt><trkpt lat="43.3467975" lon="12.5631381"><ele>465.0</ele><time>2026-04-04T10:56:23.272Z</time></trkpt><trkpt lat="43.3466302" lon="12.5633177"><ele>465.0</ele><time>2026-04-04T10:56:24.273Z</time></trkpt><trkpt lat="43.3464522" lon="12.5635039"><ele>465.0</ele><time>2026-04-04T10:56:25.277Z</time></trkpt><trkpt lat="43.3462671" lon="12.5636915"><ele>464.5</ele><time>2026-04-04T10:56:26.275Z</time></trkpt><trkpt lat="43.3460723" lon="12.5638899"><ele>464.0</ele><time>2026-04-04T10:56:27.274Z</time></trkpt><trkpt lat="43.3458793" lon="12.5641019"><ele>464.0</ele><time>2026-04-04T10:56:28.276Z</time></trkpt><trkpt lat="43.3456862" lon="12.5643059"><ele>464.0</ele><time>2026-04-04T10:56:29.274Z</time></trkpt><trkpt lat="43.3454896" lon="12.5645077"><ele>464.0</ele><time>2026-04-04T10:56:30.277Z</time></trkpt><trkpt lat="43.3452952" lon="12.5647072"><ele>464.0</ele><time>2026-04-04T10:56:31.273Z</time></trkpt><trkpt lat="43.3451016" lon="12.5649108"><ele>464.0</ele><time>2026-04-04T10:56:32.27Z</time></trkpt><trkpt lat="43.3449053" lon="12.5651207"><ele>464.0</ele><time>2026-04-04T10:56:33.273Z</time></trkpt><trkpt lat="43.3447128" lon="12.5653327"><ele>463.0</ele><time>2026-04-04T10:56:34.269Z</time></trkpt><trkpt lat="43.3445162" lon="12.5655465"><ele>462.0</ele><time>2026-04-04T10:56:35.269Z</time></trkpt><trkpt lat="43.3443211" lon="12.5657558"><ele>462.0</ele><time>2026-04-04T10:56:36.271Z</time></trkpt><trkpt lat="43.3441177" lon="12.5659698"><ele>462.0</ele><time>2026-04-04T10:56:37.271Z</time></trkpt><trkpt lat="43.3439208" lon="12.5661888"><ele>461.5</ele><time>2026-04-04T10:56:38.268Z</time></trkpt><trkpt lat="43.3437203" lon="12.5664148"><ele>461.0</ele><time>2026-04-04T10:56:39.272Z</time></trkpt><trkpt lat="43.343521" lon="12.5666586"><ele>461.0</ele><time>2026-04-04T10:56:40.27Z</time></trkpt><trkpt lat="43.3433239" lon="12.5669106"><ele>461.0</ele><time>2026-04-04T10:56:41.272Z</time></trkpt><trkpt lat="43.3431199" lon="12.5671761"><ele>461.0</ele><time>2026-04-04T10:56:42.271Z</time></trkpt><trkpt lat="43.3429183" lon="12.5674483"><ele>461.0</ele><time>2026-04-04T10:56:43.278Z</time></trkpt><trkpt lat="43.3427189" lon="12.5677227"><ele>460.5</ele><time>2026-04-04T10:56:44.27Z</time></trkpt><trkpt lat="43.3425272" lon="12.5680013"><ele>460.0</ele><time>2026-04-04T10:56:45.275Z</time></trkpt><trkpt lat="43.3423417" lon="12.5682878"><ele>459.5</ele><time>2026-04-04T10:56:46.271Z</time></trkpt><trkpt lat="43.3421612" lon="12.5685806"><ele>459.0</ele><time>2026-04-04T10:56:47.274Z</time></trkpt><trkpt lat="43.3419885" lon="12.5688743"><ele>459.0</ele><time>2026-04-04T10:56:48.268Z</time></trkpt><trkpt lat="43.341824" lon="12.5691745"><ele>459.0</ele><time>2026-04-04T10:56:49.273Z</time></trkpt><trkpt lat="43.3416647" lon="12.5694811"><ele>457.5</ele><time>2026-04-04T10:56:50.269Z</time></trkpt><trkpt lat="43.3415033" lon="12.5697896"><ele>456.0</ele><time>2026-04-04T10:56:51.271Z</time></trkpt><trkpt lat="43.341345" lon="12.5700965"><ele>457.5</ele><time>2026-04-04T10:56:52.273Z</time></trkpt><trkpt lat="43.3411969" lon="12.5704149"><ele>459.0</ele><time>2026-04-04T10:56:53.273Z</time></trkpt><trkpt lat="43.341056" lon="12.5707307"><ele>459.0</ele><time>2026-04-04T10:56:54.271Z</time></trkpt><trkpt lat="43.3409151" lon="12.5710553"><ele>459.0</ele><time>2026-04-04T10:56:55.276Z</time></trkpt><trkpt lat="43.3407813" lon="12.5713825"><ele>459.5</ele><time>2026-04-04T10:56:56.271Z</time></trkpt><trkpt lat="43.3406584" lon="12.5717064"><ele>460.0</ele><time>2026-04-04T10:56:57.275Z</time></trkpt><trkpt lat="43.3405458" lon="12.5720273"><ele>460.0</ele><time>2026-04-04T10:56:58.275Z</time></trkpt><trkpt lat="43.340432" lon="12.5723557"><ele>460.0</ele><time>2026-04-04T10:56:59.274Z</time></trkpt><trkpt lat="43.3403204" lon="12.5726843"><ele>459.5</ele><time>2026-04-04T10:57:00.276Z</time></trkpt><trkpt lat="43.3402118" lon="12.5730123"><ele>459.0</ele><time>2026-04-04T10:57:01.273Z</time></trkpt><trkpt lat="43.3401061" lon="12.5733552"><ele>459.5</ele><time>2026-04-04T10:57:02.272Z</time></trkpt><trkpt lat="43.3400094" lon="12.5736952"><ele>460.0</ele><time>2026-04-04T10:57:03.273Z</time></trkpt><trkpt lat="43.3399111" lon="12.5740409"><ele>460.0</ele><time>2026-04-04T10:57:04.273Z</time></trkpt><trkpt lat="43.3398151" lon="12.5743842"><ele>460.0</ele><time>2026-04-04T10:57:05.274Z</time></trkpt><trkpt lat="43.3397308" lon="12.5747294"><ele>459.0</ele><time>2026-04-04T10:57:06.275Z</time></trkpt><trkpt lat="43.3396462" lon="12.5750937"><ele>458.0</ele><time>2026-04-04T10:57:07.27Z</time></trkpt><trkpt lat="43.3395589" lon="12.5754621"><ele>457.5</ele><time>2026-04-04T10:57:08.275Z</time></trkpt><trkpt lat="43.339478" lon="12.5758388"><ele>457.0</ele><time>2026-04-04T10:57:09.273Z</time></trkpt><trkpt lat="43.3394059" lon="12.5762273"><ele>457.0</ele><time>2026-04-04T10:57:10.268Z</time></trkpt><trkpt lat="43.3393373" lon="12.5766077"><ele>457.0</ele><time>2026-04-04T10:57:11.271Z</time></trkpt><trkpt lat="43.3392771" lon="12.5769604"><ele>458.5</ele><time>2026-04-04T10:57:12.271Z</time></trkpt><trkpt lat="43.3392302" lon="12.577302"><ele>460.0</ele><time>2026-04-04T10:57:13.271Z</time></trkpt><trkpt lat="43.3391948" lon="12.577637"><ele>460.0</ele><time>2026-04-04T10:57:14.27Z</time></trkpt><trkpt lat="43.3391622" lon="12.5779749"><ele>460.0</ele><time>2026-04-04T10:57:15.274Z</time></trkpt><trkpt lat="43.3391275" lon="12.578318"><ele>460.0</ele><time>2026-04-04T10:57:16.265Z</time></trkpt><trkpt lat="43.3390887" lon="12.5786492"><ele>460.0</ele><time>2026-04-04T10:57:17.265Z</time></trkpt><trkpt lat="43.3390505" lon="12.5789926"><ele>459.0</ele><time>2026-04-04T10:57:18.272Z</time></trkpt><trkpt lat="43.3390173" lon="12.5793231"><ele>458.0</ele><time>2026-04-04T10:57:19.265Z</time></trkpt><trkpt lat="43.338989" lon="12.579641"><ele>458.0</ele><time>2026-04-04T10:57:20.273Z</time></trkpt><trkpt lat="43.3389581" lon="12.5799652"><ele>458.0</ele><time>2026-04-04T10:57:21.266Z</time></trkpt><trkpt lat="43.3389251" lon="12.5802903"><ele>457.0</ele><time>2026-04-04T10:57:22.271Z</time></trkpt><trkpt lat="43.3388883" lon="12.5806265"><ele>456.0</ele><time>2026-04-04T10:57:23.269Z</time></trkpt><trkpt lat="43.3388526" lon="12.5809732"><ele>456.5</ele><time>2026-04-04T10:57:24.272Z</time></trkpt><trkpt lat="43.3388186" lon="12.5813266"><ele>457.0</ele><time>2026-04-04T10:57:25.268Z</time></trkpt><trkpt lat="43.3387859" lon="12.5816715"><ele>457.5</ele><time>2026-04-04T10:57:26.264Z</time></trkpt><trkpt lat="43.338754" lon="12.5820247"><ele>458.0</ele><time>2026-04-04T10:57:27.268Z</time></trkpt><trkpt lat="43.338722" lon="12.5823863"><ele>458.0</ele><time>2026-04-04T10:57:28.265Z</time></trkpt><trkpt lat="43.3386918" lon="12.5827416"><ele>458.0</ele><time>2026-04-04T10:57:29.267Z</time></trkpt><trkpt lat="43.338662" lon="12.5830775"><ele>459.0</ele><time>2026-04-04T10:57:30.265Z</time></trkpt><trkpt lat="43.3386325" lon="12.5834073"><ele>460.0</ele><time>2026-04-04T10:57:31.266Z</time></trkpt><trkpt lat="43.3385959" lon="12.5837328"><ele>463.0</ele><time>2026-04-04T10:57:32.267Z</time></trkpt><trkpt lat="43.3385555" lon="12.5840614"><ele>466.0</ele><time>2026-04-04T10:57:33.266Z</time></trkpt><trkpt lat="43.3385169" lon="12.5843818"><ele>467.5</ele><time>2026-04-04T10:57:34.264Z</time></trkpt><trkpt lat="43.3384674" lon="12.5847013"><ele>469.0</ele><time>2026-04-04T10:57:35.266Z</time></trkpt><trkpt lat="43.3384087" lon="12.5850052"><ele>469.0</ele><time>2026-04-04T10:57:36.262Z</time></trkpt><trkpt lat="43.3383267" lon="12.5853055"><ele>469.0</ele><time>2026-04-04T10:57:37.27Z</time></trkpt><trkpt lat="43.3382442" lon="12.5855982"><ele>468.5</ele><time>2026-04-04T10:57:38.267Z</time></trkpt><trkpt lat="43.3381426" lon="12.5858944"><ele>468.0</ele><time>2026-04-04T10:57:39.269Z</time></trkpt><trkpt lat="43.3380336" lon="12.5861753"><ele>466.5</ele><time>2026-04-04T10:57:40.263Z</time></trkpt><trkpt lat="43.3379084" lon="12.5864502"><ele>465.0</ele><time>2026-04-04T10:57:41.27Z</time></trkpt><trkpt lat="43.337779" lon="12.586718"><ele>465.0</ele><time>2026-04-04T10:57:42.262Z</time></trkpt><trkpt lat="43.337648" lon="12.5869666"><ele>465.0</ele><time>2026-04-04T10:57:43.264Z</time></trkpt><trkpt lat="43.3375156" lon="12.5871943"><ele>465.0</ele><time>2026-04-04T10:57:44.266Z</time></trkpt><trkpt lat="43.3373807" lon="12.5874115"><ele>465.0</ele><time>2026-04-04T10:57:45.261Z</time></trkpt><trkpt lat="43.3372367" lon="12.5876205"><ele>465.0</ele><time>2026-04-04T10:57:46.264Z</time></trkpt><trkpt lat="43.3370711" lon="12.5878235"><ele>465.0</ele><time>2026-04-04T10:57:47.263Z</time></trkpt><trkpt lat="43.3368926" lon="12.58802"><ele>465.0</ele><time>2026-04-04T10:57:48.271Z</time></trkpt><trkpt lat="43.3367112" lon="12.5882188"><ele>465.0</ele><time>2026-04-04T10:57:49.267Z</time></trkpt><trkpt lat="43.3365344" lon="12.5884167"><ele>464.5</ele><time>2026-04-04T10:57:50.267Z</time></trkpt><trkpt lat="43.3363457" lon="12.5886099"><ele>464.0</ele><time>2026-04-04T10:57:51.272Z</time></trkpt><trkpt lat="43.3361538" lon="12.5888136"><ele>464.0</ele><time>2026-04-04T10:57:52.27Z</time></trkpt><trkpt lat="43.3359747" lon="12.5890202"><ele>464.0</ele><time>2026-04-04T10:57:53.269Z</time></trkpt><trkpt lat="43.3358022" lon="12.5892108"><ele>464.0</ele><time>2026-04-04T10:57:54.269Z</time></trkpt><trkpt lat="43.3356416" lon="12.5893895"><ele>464.0</ele><time>2026-04-04T10:57:55.272Z</time></trkpt><trkpt lat="43.3354775" lon="12.5895736"><ele>464.0</ele><time>2026-04-04T10:57:56.272Z</time></trkpt><trkpt lat="43.3353127" lon="12.5897594"><ele>463.0</ele><time>2026-04-04T10:57:57.274Z</time></trkpt><trkpt lat="43.3351472" lon="12.5899414"><ele>462.0</ele><time>2026-04-04T10:57:58.294Z</time></trkpt><trkpt lat="43.3349841" lon="12.5901209"><ele>461.0</ele><time>2026-04-04T10:57:59.276Z</time></trkpt><trkpt lat="43.3348214" lon="12.5903023"><ele>461.0</ele><time>2026-04-04T10:58:00.273Z</time></trkpt><trkpt lat="43.3346598" lon="12.5904807"><ele>461.0</ele><time>2026-04-04T10:58:01.271Z</time></trkpt><trkpt lat="43.3344949" lon="12.5906636"><ele>461.0</ele><time>2026-04-04T10:58:02.274Z</time></trkpt><trkpt lat="43.3343321" lon="12.5908465"><ele>461.0</ele><time>2026-04-04T10:58:03.274Z</time></trkpt><trkpt lat="43.3341697" lon="12.5910268"><ele>461.0</ele><time>2026-04-04T10:58:04.273Z</time></trkpt><trkpt lat="43.3340036" lon="12.5912095"><ele>461.0</ele><time>2026-04-04T10:58:05.277Z</time></trkpt><trkpt lat="43.3338381" lon="12.5913966"><ele>461.0</ele><time>2026-04-04T10:58:06.275Z</time></trkpt><trkpt lat="43.3336695" lon="12.5915854"><ele>461.0</ele><time>2026-04-04T10:58:07.275Z</time></trkpt><trkpt lat="43.3335044" lon="12.5917726"><ele>461.0</ele><time>2026-04-04T10:58:08.273Z</time></trkpt><trkpt lat="43.3333405" lon="12.5919603"><ele>461.0</ele><time>2026-04-04T10:58:09.271Z</time></trkpt><trkpt lat="43.3331664" lon="12.5921495"><ele>461.0</ele><time>2026-04-04T10:58:10.274Z</time></trkpt><trkpt lat="43.3329916" lon="12.5923375"><ele>461.0</ele><time>2026-04-04T10:58:11.283Z</time></trkpt><trkpt lat="43.3328157" lon="12.5925255"><ele>460.0</ele><time>2026-04-04T10:58:12.273Z</time></trkpt><trkpt lat="43.3326424" lon="12.5927152"><ele>459.0</ele><time>2026-04-04T10:58:13.272Z</time></trkpt><trkpt lat="43.3324822" lon="12.5929019"><ele>458.0</ele><time>2026-04-04T10:58:14.268Z</time></trkpt><trkpt lat="43.3323275" lon="12.5930811"><ele>456.3333333333333</ele><time>2026-04-04T10:58:15.27Z</time></trkpt><trkpt lat="43.3321714" lon="12.5932567"><ele>454.66666666666663</ele><time>2026-04-04T10:58:16.271Z</time></trkpt><trkpt lat="43.3320227" lon="12.5934327"><ele>453.0</ele><time>2026-04-04T10:58:17.272Z</time></trkpt><trkpt lat="43.3318793" lon="12.593603"><ele>453.0</ele><time>2026-04-04T10:58:18.273Z</time></trkpt><trkpt lat="43.3317332" lon="12.593774"><ele>453.0</ele><time>2026-04-04T10:58:19.273Z</time></trkpt><trkpt lat="43.3315774" lon="12.5939459"><ele>453.0</ele><time>2026-04-04T10:58:20.272Z</time></trkpt><trkpt lat="43.33142" lon="12.5941261"><ele>451.66666666666663</ele><time>2026-04-04T10:58:21.275Z</time></trkpt><trkpt lat="43.3312593" lon="12.5943025"><ele>450.3333333333333</ele><time>2026-04-04T10:58:22.28Z</time></trkpt><trkpt lat="43.3310909" lon="12.5944879"><ele>449.0</ele><time>2026-04-04T10:58:23.269Z</time></trkpt><trkpt lat="43.3309207" lon="12.5946843"><ele>449.0</ele><time>2026-04-04T10:58:24.275Z</time></trkpt><trkpt lat="43.330748" lon="12.5948831"><ele>449.0</ele><time>2026-04-04T10:58:25.275Z</time></trkpt><trkpt lat="43.3305714" lon="12.5950891"><ele>448.5</ele><time>2026-04-04T10:58:26.278Z</time></trkpt><trkpt lat="43.3303869" lon="12.5953055"><ele>448.0</ele><time>2026-04-04T10:58:27.279Z</time></trkpt><trkpt lat="43.3301994" lon="12.5955141"><ele>448.0</ele><time>2026-04-04T10:58:28.274Z</time></trkpt><trkpt lat="43.3300011" lon="12.5957344"><ele>448.0</ele><time>2026-04-04T10:58:29.279Z</time></trkpt><trkpt lat="43.3298041" lon="12.5959492"><ele>447.0</ele><time>2026-04-04T10:58:30.277Z</time></trkpt><trkpt lat="43.3296093" lon="12.5961611"><ele>446.0</ele><time>2026-04-04T10:58:31.273Z</time></trkpt><trkpt lat="43.3294294" lon="12.5963641"><ele>446.0</ele><time>2026-04-04T10:58:32.273Z</time></trkpt><trkpt lat="43.3292613" lon="12.59655"><ele>446.0</ele><time>2026-04-04T10:58:33.277Z</time></trkpt><trkpt lat="43.3290917" lon="12.5967351"><ele>446.0</ele><time>2026-04-04T10:58:34.273Z</time></trkpt><trkpt lat="43.3289136" lon="12.5969348"><ele>444.5</ele><time>2026-04-04T10:58:35.271Z</time></trkpt><trkpt lat="43.328735" lon="12.5971414"><ele>443.0</ele><time>2026-04-04T10:58:36.273Z</time></trkpt><trkpt lat="43.328561" lon="12.5973508"><ele>443.0</ele><time>2026-04-04T10:58:37.272Z</time></trkpt><trkpt lat="43.328376" lon="12.5975692"><ele>443.0</ele><time>2026-04-04T10:58:38.274Z</time></trkpt><trkpt lat="43.3281892" lon="12.5977923"><ele>443.0</ele><time>2026-04-04T10:58:39.273Z</time></trkpt><trkpt lat="43.3280125" lon="12.5980155"><ele>443.0</ele><time>2026-04-04T10:58:40.272Z</time></trkpt><trkpt lat="43.3278369" lon="12.5982455"><ele>443.0</ele><time>2026-04-04T10:58:41.274Z</time></trkpt><trkpt lat="43.3276674" lon="12.5984653"><ele>443.0</ele><time>2026-04-04T10:58:42.271Z</time></trkpt><trkpt lat="43.3275136" lon="12.5986775"><ele>442.0</ele><time>2026-04-04T10:58:43.275Z</time></trkpt><trkpt lat="43.3273562" lon="12.5988975"><ele>441.0</ele><time>2026-04-04T10:58:44.273Z</time></trkpt><trkpt lat="43.3271968" lon="12.5991227"><ele>440.5</ele><time>2026-04-04T10:58:45.271Z</time></trkpt><trkpt lat="43.3270382" lon="12.5993548"><ele>440.0</ele><time>2026-04-04T10:58:46.273Z</time></trkpt><trkpt lat="43.3268849" lon="12.5995882"><ele>440.0</ele><time>2026-04-04T10:58:47.274Z</time></trkpt><trkpt lat="43.3267315" lon="12.5998216"><ele>440.0</ele><time>2026-04-04T10:58:48.277Z</time></trkpt><trkpt lat="43.3265804" lon="12.6000558"><ele>440.0</ele><time>2026-04-04T10:58:49.272Z</time></trkpt><trkpt lat="43.3264317" lon="12.60029"><ele>440.0</ele><time>2026-04-04T10:58:50.274Z</time></trkpt><trkpt lat="43.3262805" lon="12.600528"><ele>440.0</ele><time>2026-04-04T10:58:51.28Z</time></trkpt><trkpt lat="43.3261305" lon="12.6007656"><ele>440.0</ele><time>2026-04-04T10:58:52.279Z</time></trkpt><trkpt lat="43.325983" lon="12.6009886"><ele>440.0</ele><time>2026-04-04T10:58:53.276Z</time></trkpt><trkpt lat="43.3258363" lon="12.6012088"><ele>440.0</ele><time>2026-04-04T10:58:54.279Z</time></trkpt><trkpt lat="43.3256889" lon="12.6014276"><ele>440.0</ele><time>2026-04-04T10:58:55.278Z</time></trkpt><trkpt lat="43.3255432" lon="12.6016473"><ele>440.0</ele><time>2026-04-04T10:58:56.277Z</time></trkpt><trkpt lat="43.3253958" lon="12.6018667"><ele>438.3333333333333</ele><time>2026-04-04T10:58:57.28Z</time></trkpt><trkpt lat="43.3252441" lon="12.602094"><ele>436.66666666666663</ele><time>2026-04-04T10:58:58.278Z</time></trkpt><trkpt lat="43.3250923" lon="12.6023195"><ele>435.0</ele><time>2026-04-04T10:58:59.279Z</time></trkpt><trkpt lat="43.324946" lon="12.6025485"><ele>435.0</ele><time>2026-04-04T10:59:00.283Z</time></trkpt><trkpt lat="43.3248037" lon="12.6027759"><ele>435.0</ele><time>2026-04-04T10:59:01.275Z</time></trkpt><trkpt lat="43.3246546" lon="12.6030035"><ele>435.0</ele><time>2026-04-04T10:59:02.276Z</time></trkpt><trkpt lat="43.3245045" lon="12.6032298"><ele>434.0</ele><time>2026-04-04T10:59:03.27Z</time></trkpt><trkpt lat="43.324353" lon="12.6034559"><ele>433.0</ele><time>2026-04-04T10:59:04.274Z</time></trkpt><trkpt lat="43.3242073" lon="12.603683"><ele>432.0</ele><time>2026-04-04T10:59:05.272Z</time></trkpt><trkpt lat="43.3240602" lon="12.603915"><ele>432.0</ele><time>2026-04-04T10:59:06.276Z</time></trkpt><trkpt lat="43.3239101" lon="12.6041449"><ele>432.0</ele><time>2026-04-04T10:59:07.278Z</time></trkpt><trkpt lat="43.3237623" lon="12.6043699"><ele>432.0</ele><time>2026-04-04T10:59:08.272Z</time></trkpt><trkpt lat="43.323612" lon="12.6046018"><ele>431.0</ele><time>2026-04-04T10:59:09.275Z</time></trkpt><trkpt lat="43.3234607" lon="12.6048258"><ele>430.0</ele><time>2026-04-04T10:59:10.274Z</time></trkpt><trkpt lat="43.3233111" lon="12.6050534"><ele>429.0</ele><time>2026-04-04T10:59:11.275Z</time></trkpt><trkpt lat="43.3231655" lon="12.6052778"><ele>429.0</ele><time>2026-04-04T10:59:12.276Z</time></trkpt><trkpt lat="43.3230142" lon="12.6054973"><ele>429.0</ele><time>2026-04-04T10:59:13.272Z</time></trkpt><trkpt lat="43.3228605" lon="12.6057157"><ele>429.0</ele><time>2026-04-04T10:59:14.278Z</time></trkpt><trkpt lat="43.3227011" lon="12.605939"><ele>429.5</ele><time>2026-04-04T10:59:15.277Z</time></trkpt><trkpt lat="43.3225311" lon="12.6061663"><ele>430.0</ele><time>2026-04-04T10:59:16.278Z</time></trkpt><trkpt lat="43.3223583" lon="12.6063919"><ele>427.5</ele><time>2026-04-04T10:59:17.273Z</time></trkpt><trkpt lat="43.3221897" lon="12.6066063"><ele>425.0</ele><time>2026-04-04T10:59:18.277Z</time></trkpt><trkpt lat="43.3220162" lon="12.6068187"><ele>425.5</ele><time>2026-04-04T10:59:19.276Z</time></trkpt><trkpt lat="43.3218382" lon="12.6070243"><ele>426.0</ele><time>2026-04-04T10:59:20.274Z</time></trkpt><trkpt lat="43.321657" lon="12.6072317"><ele>426.0</ele><time>2026-04-04T10:59:21.278Z</time></trkpt><trkpt lat="43.32148" lon="12.6074354"><ele>426.0</ele><time>2026-04-04T10:59:22.281Z</time></trkpt><trkpt lat="43.321299" lon="12.6076497"><ele>423.5</ele><time>2026-04-04T10:59:23.276Z</time></trkpt><trkpt lat="43.3211176" lon="12.6078679"><ele>421.0</ele><time>2026-04-04T10:59:24.276Z</time></trkpt><trkpt lat="43.320935" lon="12.6080814"><ele>421.0</ele><time>2026-04-04T10:59:25.28Z</time></trkpt><trkpt lat="43.320751" lon="12.6082915"><ele>421.0</ele><time>2026-04-04T10:59:26.275Z</time></trkpt><trkpt lat="43.3205683" lon="12.6085011"><ele>423.0</ele><time>2026-04-04T10:59:27.278Z</time></trkpt><trkpt lat="43.3203856" lon="12.6087189"><ele>425.0</ele><time>2026-04-04T10:59:28.278Z</time></trkpt><trkpt lat="43.3201997" lon="12.6089341"><ele>425.0</ele><time>2026-04-04T10:59:29.277Z</time></trkpt><trkpt lat="43.3200123" lon="12.6091509"><ele>425.0</ele><time>2026-04-04T10:59:30.279Z</time></trkpt><trkpt lat="43.3198303" lon="12.6093598"><ele>424.5</ele><time>2026-04-04T10:59:31.276Z</time></trkpt><trkpt lat="43.3196502" lon="12.6095749"><ele>424.0</ele><time>2026-04-04T10:59:32.272Z</time></trkpt><trkpt lat="43.3194635" lon="12.609781"><ele>424.0</ele><time>2026-04-04T10:59:33.275Z</time></trkpt><trkpt lat="43.3192782" lon="12.6099936"><ele>424.0</ele><time>2026-04-04T10:59:34.274Z</time></trkpt><trkpt lat="43.3190937" lon="12.610212"><ele>423.5</ele><time>2026-04-04T10:59:35.275Z</time></trkpt><trkpt lat="43.3189108" lon="12.610429"><ele>423.0</ele><time>2026-04-04T10:59:36.275Z</time></trkpt><trkpt lat="43.3187264" lon="12.6106434"><ele>421.5</ele><time>2026-04-04T10:59:37.279Z</time></trkpt><trkpt lat="43.3185377" lon="12.6108616"><ele>420.0</ele><time>2026-04-04T10:59:38.279Z</time></trkpt><trkpt lat="43.3183559" lon="12.611074"><ele>420.5</ele><time>2026-04-04T10:59:39.279Z</time></trkpt><trkpt lat="43.31818" lon="12.6112822"><ele>421.0</ele><time>2026-04-04T10:59:40.276Z</time></trkpt><trkpt lat="43.3180062" lon="12.6114926"><ele>421.0</ele><time>2026-04-04T10:59:41.276Z</time></trkpt><trkpt lat="43.3178287" lon="12.6117052"><ele>421.0</ele><time>2026-04-04T10:59:42.274Z</time></trkpt><trkpt lat="43.3176564" lon="12.6119224"><ele>422.5</ele><time>2026-04-04T10:59:43.277Z</time></trkpt><trkpt lat="43.3174835" lon="12.6121381"><ele>424.0</ele><time>2026-04-04T10:59:44.278Z</time></trkpt><trkpt lat="43.3173137" lon="12.6123549"><ele>423.0</ele><time>2026-04-04T10:59:45.275Z</time></trkpt><trkpt lat="43.3171501" lon="12.6125693"><ele>422.0</ele><time>2026-04-04T10:59:46.279Z</time></trkpt><trkpt lat="43.3169887" lon="12.6127839"><ele>422.66666666666663</ele><time>2026-04-04T10:59:47.277Z</time></trkpt><trkpt lat="43.3168366" lon="12.6129921"><ele>423.33333333333337</ele><time>2026-04-04T10:59:48.276Z</time></trkpt><trkpt lat="43.316691" lon="12.613191"><ele>424.0</ele><time>2026-04-04T10:59:49.276Z</time></trkpt><trkpt lat="43.3165441" lon="12.6134007"><ele>423.6666666666667</ele><time>2026-04-04T10:59:50.28Z</time></trkpt><trkpt lat="43.316401" lon="12.6136108"><ele>423.33333333333337</ele><time>2026-04-04T10:59:51.283Z</time></trkpt><trkpt lat="43.3162618" lon="12.6138234"><ele>423.0</ele><time>2026-04-04T10:59:52.284Z</time></trkpt><trkpt lat="43.3161217" lon="12.6140328"><ele>423.0</ele><time>2026-04-04T10:59:53.282Z</time></trkpt><trkpt lat="43.3159827" lon="12.6142519"><ele>423.0</ele><time>2026-04-04T10:59:54.278Z</time></trkpt><trkpt lat="43.3158506" lon="12.6144692"><ele>423.0</ele><time>2026-04-04T10:59:55.311Z</time></trkpt><trkpt lat="43.3157218" lon="12.6146881"><ele>423.0</ele><time>2026-04-04T10:59:56.281Z</time></trkpt><trkpt lat="43.3155841" lon="12.6149041"><ele>423.0</ele><time>2026-04-04T10:59:57.284Z</time></trkpt><trkpt lat="43.3154399" lon="12.6151187"><ele>423.0</ele><time>2026-04-04T10:59:58.281Z</time></trkpt><trkpt lat="43.315299" lon="12.6153209"><ele>423.33333333333337</ele><time>2026-04-04T10:59:59.279Z</time></trkpt><trkpt lat="43.3151639" lon="12.6155252"><ele>423.6666666666667</ele><time>2026-04-04T11:00:00.282Z</time></trkpt><trkpt lat="43.3150352" lon="12.6157147"><ele>424.0</ele><time>2026-04-04T11:00:01.279Z</time></trkpt><trkpt lat="43.3149096" lon="12.6159058"><ele>424.0</ele><time>2026-04-04T11:00:02.27Z</time></trkpt><trkpt lat="43.314778" lon="12.6161086"><ele>424.0</ele><time>2026-04-04T11:00:03.278Z</time></trkpt><trkpt lat="43.3146433" lon="12.616314"><ele>424.0</ele><time>2026-04-04T11:00:04.277Z</time></trkpt><trkpt lat="43.3145074" lon="12.6165208"><ele>425.0</ele><time>2026-04-04T11:00:05.279Z</time></trkpt><trkpt lat="43.3143689" lon="12.616731"><ele>426.0</ele><time>2026-04-04T11:00:06.276Z</time></trkpt><trkpt lat="43.3142294" lon="12.6169419"><ele>427.0</ele><time>2026-04-04T11:00:07.282Z</time></trkpt><trkpt lat="43.3140937" lon="12.6171617"><ele>427.33333333333337</ele><time>2026-04-04T11:00:08.298Z</time></trkpt><trkpt lat="43.31396" lon="12.6173767"><ele>427.66666666666663</ele><time>2026-04-04T11:00:09.28Z</time></trkpt><trkpt lat="43.313824" lon="12.6175939"><ele>428.0</ele><time>2026-04-04T11:00:10.28Z</time></trkpt><trkpt lat="43.3136906" lon="12.6178158"><ele>427.3333333333333</ele><time>2026-04-04T11:00:11.276Z</time></trkpt><trkpt lat="43.3135612" lon="12.6180379"><ele>426.66666666666663</ele><time>2026-04-04T11:00:12.275Z</time></trkpt><trkpt lat="43.3134312" lon="12.6182606"><ele>426.0</ele><time>2026-04-04T11:00:13.282Z</time></trkpt><trkpt lat="43.313297" lon="12.6184877"><ele>426.0</ele><time>2026-04-04T11:00:14.281Z</time></trkpt><trkpt lat="43.3131711" lon="12.6187117"><ele>426.0</ele><time>2026-04-04T11:00:15.312Z</time></trkpt><trkpt lat="43.3130437" lon="12.6189416"><ele>426.0</ele><time>2026-04-04T11:00:16.284Z</time></trkpt><trkpt lat="43.3129164" lon="12.6191611"><ele>425.66666666666663</ele><time>2026-04-04T11:00:17.284Z</time></trkpt><trkpt lat="43.3127911" lon="12.6194005"><ele>425.3333333333333</ele><time>2026-04-04T11:00:18.284Z</time></trkpt><trkpt lat="43.3126682" lon="12.6196453"><ele>425.0</ele><time>2026-04-04T11:00:19.276Z</time></trkpt><trkpt lat="43.3125442" lon="12.6198929"><ele>425.3333333333333</ele><time>2026-04-04T11:00:20.281Z</time></trkpt><trkpt lat="43.3124209" lon="12.6201455"><ele>425.66666666666663</ele><time>2026-04-04T11:00:21.283Z</time></trkpt><trkpt lat="43.3123032" lon="12.6204007"><ele>426.0</ele><time>2026-04-04T11:00:22.285Z</time></trkpt><trkpt lat="43.3121845" lon="12.6206663"><ele>426.0</ele><time>2026-04-04T11:00:23.274Z</time></trkpt><trkpt lat="43.312071" lon="12.6209216"><ele>426.0</ele><time>2026-04-04T11:00:24.279Z</time></trkpt><trkpt lat="43.311961" lon="12.6211659"><ele>426.0</ele><time>2026-04-04T11:00:25.275Z</time></trkpt><trkpt lat="43.3118501" lon="12.6214133"><ele>426.33333333333337</ele><time>2026-04-04T11:00:26.279Z</time></trkpt><trkpt lat="43.3117342" lon="12.6216648"><ele>426.6666666666667</ele><time>2026-04-04T11:00:27.282Z</time></trkpt><trkpt lat="43.3116161" lon="12.621916"><ele>427.0</ele><time>2026-04-04T11:00:28.277Z</time></trkpt><trkpt lat="43.311495" lon="12.6221683"><ele>426.0</ele><time>2026-04-04T11:00:29.281Z</time></trkpt><trkpt lat="43.311371" lon="12.622424"><ele>425.0</ele><time>2026-04-04T11:00:30.272Z</time></trkpt><trkpt lat="43.3112509" lon="12.6226829"><ele>424.0</ele><time>2026-04-04T11:00:31.281Z</time></trkpt><trkpt lat="43.3111414" lon="12.6229326"><ele>424.0</ele><time>2026-04-04T11:00:32.28Z</time></trkpt><trkpt lat="43.3110274" lon="12.6231765"><ele>424.0</ele><time>2026-04-04T11:00:33.28Z</time></trkpt><trkpt lat="43.3109146" lon="12.6234242"><ele>424.0</ele><time>2026-04-04T11:00:34.279Z</time></trkpt><trkpt lat="43.3108016" lon="12.6236753"><ele>423.6666666666667</ele><time>2026-04-04T11:00:35.278Z</time></trkpt><trkpt lat="43.3106828" lon="12.6239305"><ele>423.33333333333337</ele><time>2026-04-04T11:00:36.278Z</time></trkpt><trkpt lat="43.3105665" lon="12.6241826"><ele>423.0</ele><time>2026-04-04T11:00:37.281Z</time></trkpt><trkpt lat="43.3104474" lon="12.6244292"><ele>422.0</ele><time>2026-04-04T11:00:38.276Z</time></trkpt><trkpt lat="43.310333" lon="12.6246675"><ele>421.0</ele><time>2026-04-04T11:00:39.278Z</time></trkpt><trkpt lat="43.3102199" lon="12.6249085"><ele>420.0</ele><time>2026-04-04T11:00:40.279Z</time></trkpt><trkpt lat="43.3101072" lon="12.6251556"><ele>420.33333333333337</ele><time>2026-04-04T11:00:41.276Z</time></trkpt><trkpt lat="43.3099964" lon="12.6254035"><ele>420.6666666666667</ele><time>2026-04-04T11:00:42.279Z</time></trkpt><trkpt lat="43.3098846" lon="12.6256559"><ele>421.0</ele><time>2026-04-04T11:00:43.28Z</time></trkpt><trkpt lat="43.3097686" lon="12.6259117"><ele>420.33333333333337</ele><time>2026-04-04T11:00:44.279Z</time></trkpt><trkpt lat="43.3096495" lon="12.6261701"><ele>419.66666666666663</ele><time>2026-04-04T11:00:45.28Z</time></trkpt><trkpt lat="43.3095309" lon="12.6264263"><ele>419.0</ele><time>2026-04-04T11:00:46.282Z</time></trkpt><trkpt lat="43.3094122" lon="12.6266865"><ele>419.0</ele><time>2026-04-04T11:00:47.283Z</time></trkpt><trkpt lat="43.3092926" lon="12.6269477"><ele>419.0</ele><time>2026-04-04T11:00:48.282Z</time></trkpt><trkpt lat="43.3091732" lon="12.627205"><ele>419.0</ele><time>2026-04-04T11:00:49.297Z</time></trkpt><trkpt lat="43.3090545" lon="12.6274643"><ele>418.0</ele><time>2026-04-04T11:00:50.283Z</time></trkpt><trkpt lat="43.3089336" lon="12.6277243"><ele>417.0</ele><time>2026-04-04T11:00:51.281Z</time></trkpt><trkpt lat="43.3088113" lon="12.6279827"><ele>416.0</ele><time>2026-04-04T11:00:52.29Z</time></trkpt><trkpt lat="43.3086865" lon="12.6282464"><ele>416.0</ele><time>2026-04-04T11:00:53.283Z</time></trkpt><trkpt lat="43.308555" lon="12.628508"><ele>416.0</ele><time>2026-04-04T11:00:54.282Z</time></trkpt><trkpt lat="43.3084354" lon="12.6287709"><ele>416.0</ele><time>2026-04-04T11:00:55.285Z</time></trkpt><trkpt lat="43.3083123" lon="12.6290331"><ele>416.0</ele><time>2026-04-04T11:00:56.289Z</time></trkpt><trkpt lat="43.3081925" lon="12.6292968"><ele>418.0</ele><time>2026-04-04T11:00:57.282Z</time></trkpt><trkpt lat="43.3080706" lon="12.629569"><ele>420.0</ele><time>2026-04-04T11:00:58.284Z</time></trkpt><trkpt lat="43.3079458" lon="12.6298424"><ele>420.0</ele><time>2026-04-04T11:00:59.282Z</time></trkpt><trkpt lat="43.30782" lon="12.6301147"><ele>420.0</ele><time>2026-04-04T11:01:00.284Z</time></trkpt><trkpt lat="43.307695" lon="12.6303846"><ele>421.0</ele><time>2026-04-04T11:01:01.278Z</time></trkpt><trkpt lat="43.3075632" lon="12.630654"><ele>422.0</ele><time>2026-04-04T11:01:02.287Z</time></trkpt><trkpt lat="43.3074394" lon="12.6309209"><ele>422.3333333333333</ele><time>2026-04-04T11:01:03.289Z</time></trkpt><trkpt lat="43.3073227" lon="12.6311863"><ele>422.66666666666663</ele><time>2026-04-04T11:01:04.274Z</time></trkpt><trkpt lat="43.3072103" lon="12.6314406"><ele>423.0</ele><time>2026-04-04T11:01:05.28Z</time></trkpt><trkpt lat="43.3070972" lon="12.6316844"><ele>422.33333333333337</ele><time>2026-04-04T11:01:06.282Z</time></trkpt><trkpt lat="43.3069834" lon="12.6319204"><ele>421.6666666666667</ele><time>2026-04-04T11:01:07.279Z</time></trkpt><trkpt lat="43.3068656" lon="12.6321468"><ele>421.0</ele><time>2026-04-04T11:01:08.276Z</time></trkpt><trkpt lat="43.3067536" lon="12.6323767"><ele>421.0</ele><time>2026-04-04T11:01:09.28Z</time></trkpt><trkpt lat="43.3066473" lon="12.6326049"><ele>421.0</ele><time>2026-04-04T11:01:10.278Z</time></trkpt><trkpt lat="43.3065432" lon="12.6328276"><ele>421.0</ele><time>2026-04-04T11:01:11.278Z</time></trkpt><trkpt lat="43.3064474" lon="12.6330416"><ele>421.33333333333337</ele><time>2026-04-04T11:01:12.28Z</time></trkpt><trkpt lat="43.3063442" lon="12.6332601"><ele>421.66666666666663</ele><time>2026-04-04T11:01:13.282Z</time></trkpt><trkpt lat="43.3062391" lon="12.6334776"><ele>422.0</ele><time>2026-04-04T11:01:14.281Z</time></trkpt><trkpt lat="43.3061299" lon="12.633698"><ele>421.0</ele><time>2026-04-04T11:01:15.276Z</time></trkpt><trkpt lat="43.3060239" lon="12.6339221"><ele>420.0</ele><time>2026-04-04T11:01:16.277Z</time></trkpt><trkpt lat="43.3059182" lon="12.6341604"><ele>419.0</ele><time>2026-04-04T11:01:17.28Z</time></trkpt><trkpt lat="43.3058054" lon="12.6344169"><ele>419.0</ele><time>2026-04-04T11:01:18.281Z</time></trkpt><trkpt lat="43.3056888" lon="12.6346895"><ele>419.0</ele><time>2026-04-04T11:01:19.281Z</time></trkpt><trkpt lat="43.3055704" lon="12.6349502"><ele>418.3333333333333</ele><time>2026-04-04T11:01:20.287Z</time></trkpt><trkpt lat="43.3054557" lon="12.6351945"><ele>417.66666666666663</ele><time>2026-04-04T11:01:21.281Z</time></trkpt><trkpt lat="43.3053457" lon="12.6354258"><ele>417.0</ele><time>2026-04-04T11:01:22.286Z</time></trkpt><trkpt lat="43.3052346" lon="12.6356497"><ele>417.0</ele><time>2026-04-04T11:01:23.284Z</time></trkpt><trkpt lat="43.3051253" lon="12.6358808"><ele>417.0</ele><time>2026-04-04T11:01:24.283Z</time></trkpt><trkpt lat="43.3050084" lon="12.6361087"><ele>417.0</ele><time>2026-04-04T11:01:25.29Z</time></trkpt><trkpt lat="43.3048956" lon="12.6363353"><ele>417.0</ele><time>2026-04-04T11:01:26.281Z</time></trkpt><trkpt lat="43.3047824" lon="12.6365696"><ele>417.0</ele><time>2026-04-04T11:01:27.285Z</time></trkpt><trkpt lat="43.3046743" lon="12.6368032"><ele>417.0</ele><time>2026-04-04T11:01:28.281Z</time></trkpt><trkpt lat="43.3045618" lon="12.6370448"><ele>416.33333333333337</ele><time>2026-04-04T11:01:29.281Z</time></trkpt><trkpt lat="43.3044519" lon="12.6372813"><ele>415.6666666666667</ele><time>2026-04-04T11:01:30.281Z</time></trkpt><trkpt lat="43.3043472" lon="12.6375106"><ele>415.0</ele><time>2026-04-04T11:01:31.279Z</time></trkpt><trkpt lat="43.3042452" lon="12.6377445"><ele>415.33333333333337</ele><time>2026-04-04T11:01:32.277Z</time></trkpt><trkpt lat="43.304138" lon="12.6379788"><ele>415.66666666666663</ele><time>2026-04-04T11:01:33.276Z</time></trkpt><trkpt lat="43.3040316" lon="12.6382156"><ele>416.0</ele><time>2026-04-04T11:01:34.275Z</time></trkpt><trkpt lat="43.3039243" lon="12.6384547"><ele>415.0</ele><time>2026-04-04T11:01:35.28Z</time></trkpt><trkpt lat="43.3038155" lon="12.6386864"><ele>414.0</ele><time>2026-04-04T11:01:36.274Z</time></trkpt><trkpt lat="43.3037052" lon="12.6389209"><ele>413.0</ele><time>2026-04-04T11:01:37.281Z</time></trkpt><trkpt lat="43.3035906" lon="12.6391701"><ele>413.0</ele><time>2026-04-04T11:01:38.276Z</time></trkpt><trkpt lat="43.3034788" lon="12.6394207"><ele>413.0</ele><time>2026-04-04T11:01:39.279Z</time></trkpt><trkpt lat="43.3033621" lon="12.6396657"><ele>413.0</ele><time>2026-04-04T11:01:40.277Z</time></trkpt><trkpt lat="43.3032472" lon="12.6399102"><ele>413.0</ele><time>2026-04-04T11:01:41.278Z</time></trkpt><trkpt lat="43.3031273" lon="12.6401623"><ele>413.0</ele><time>2026-04-04T11:01:42.276Z</time></trkpt><trkpt lat="43.3030018" lon="12.6404425"><ele>411.5</ele><time>2026-04-04T11:01:43.28Z</time></trkpt><trkpt lat="43.3028631" lon="12.6407604"><ele>410.0</ele><time>2026-04-04T11:01:44.272Z</time></trkpt><trkpt lat="43.3027088" lon="12.6410888"><ele>409.5</ele><time>2026-04-04T11:01:45.267Z</time></trkpt><trkpt lat="43.3025496" lon="12.6414303"><ele>409.0</ele><time>2026-04-04T11:01:46.274Z</time></trkpt><trkpt lat="43.3023782" lon="12.6417978"><ele>408.0</ele><time>2026-04-04T11:01:47.272Z</time></trkpt><trkpt lat="43.3022064" lon="12.6421617"><ele>407.0</ele><time>2026-04-04T11:01:48.276Z</time></trkpt><trkpt lat="43.3020484" lon="12.6424835"><ele>407.0</ele><time>2026-04-04T11:01:49.272Z</time></trkpt><trkpt lat="43.3019001" lon="12.6427813"><ele>407.0</ele><time>2026-04-04T11:01:50.273Z</time></trkpt><trkpt lat="43.3017621" lon="12.6430628"><ele>407.5</ele><time>2026-04-04T11:01:51.278Z</time></trkpt><trkpt lat="43.3016316" lon="12.6433283"><ele>408.0</ele><time>2026-04-04T11:01:52.273Z</time></trkpt><trkpt lat="43.3015075" lon="12.6435796"><ele>410.5</ele><time>2026-04-04T11:01:53.271Z</time></trkpt><trkpt lat="43.3013823" lon="12.6438315"><ele>413.0</ele><time>2026-04-04T11:01:54.275Z</time></trkpt><trkpt lat="43.3012471" lon="12.6440889"><ele>413.0</ele><time>2026-04-04T11:01:55.285Z</time></trkpt><trkpt lat="43.3011107" lon="12.6443575"><ele>413.0</ele><time>2026-04-04T11:01:56.274Z</time></trkpt><trkpt lat="43.300968" lon="12.6446366"><ele>415.5</ele><time>2026-04-04T11:01:57.272Z</time></trkpt><trkpt lat="43.3008113" lon="12.644934"><ele>418.0</ele><time>2026-04-04T11:01:58.273Z</time></trkpt><trkpt lat="43.3006506" lon="12.6452178"><ele>418.0</ele><time>2026-04-04T11:01:59.271Z</time></trkpt><trkpt lat="43.3005028" lon="12.6454622"><ele>418.0</ele><time>2026-04-04T11:02:00.275Z</time></trkpt><trkpt lat="43.3003634" lon="12.6456913"><ele>418.0</ele><time>2026-04-04T11:02:01.271Z</time></trkpt><trkpt lat="43.300225" lon="12.6459006"><ele>418.0</ele><time>2026-04-04T11:02:02.272Z</time></trkpt><trkpt lat="43.3000761" lon="12.6461027"><ele>418.0</ele><time>2026-04-04T11:02:03.274Z</time></trkpt><trkpt lat="43.2999337" lon="12.646319"><ele>418.0</ele><time>2026-04-04T11:02:04.276Z</time></trkpt><trkpt lat="43.2997932" lon="12.6465532"><ele>420.0</ele><time>2026-04-04T11:02:05.274Z</time></trkpt><trkpt lat="43.2996354" lon="12.6467807"><ele>422.0</ele><time>2026-04-04T11:02:06.27Z</time></trkpt><trkpt lat="43.2994753" lon="12.6470065"><ele>422.0</ele><time>2026-04-04T11:02:07.272Z</time></trkpt><trkpt lat="43.2993039" lon="12.6472304"><ele>422.0</ele><time>2026-04-04T11:02:08.27Z</time></trkpt><trkpt lat="43.2991358" lon="12.6474436"><ele>422.0</ele><time>2026-04-04T11:02:09.27Z</time></trkpt><trkpt lat="43.2989676" lon="12.64765"><ele>422.0</ele><time>2026-04-04T11:02:10.265Z</time></trkpt><trkpt lat="43.2987777" lon="12.6478789"><ele>422.5</ele><time>2026-04-04T11:02:11.269Z</time></trkpt><trkpt lat="43.2985758" lon="12.6481147"><ele>423.0</ele><time>2026-04-04T11:02:12.271Z</time></trkpt><trkpt lat="43.2983716" lon="12.648345"><ele>423.0</ele><time>2026-04-04T11:02:13.277Z</time></trkpt><trkpt lat="43.2981634" lon="12.6485648"><ele>423.0</ele><time>2026-04-04T11:02:14.268Z</time></trkpt><trkpt lat="43.2979475" lon="12.6487821"><ele>420.0</ele><time>2026-04-04T11:02:15.268Z</time></trkpt><trkpt lat="43.2977291" lon="12.6490115"><ele>417.0</ele><time>2026-04-04T11:02:16.265Z</time></trkpt><trkpt lat="43.2975009" lon="12.6492568"><ele>415.5</ele><time>2026-04-04T11:02:17.269Z</time></trkpt><trkpt lat="43.2972656" lon="12.6495031"><ele>414.0</ele><time>2026-04-04T11:02:18.281Z</time></trkpt><trkpt lat="43.2970284" lon="12.6497425"><ele>412.0</ele><time>2026-04-04T11:02:19.285Z</time></trkpt><trkpt lat="43.2967841" lon="12.6499897"><ele>410.0</ele><time>2026-04-04T11:02:20.281Z</time></trkpt><trkpt lat="43.2965478" lon="12.6502514"><ele>409.0</ele><time>2026-04-04T11:02:21.275Z</time></trkpt><trkpt lat="43.2962989" lon="12.6505118"><ele>408.0</ele><time>2026-04-04T11:02:22.278Z</time></trkpt><trkpt lat="43.2960612" lon="12.6507567"><ele>408.0</ele><time>2026-04-04T11:02:23.269Z</time></trkpt><trkpt lat="43.2958426" lon="12.6509778"><ele>408.0</ele><time>2026-04-04T11:02:24.274Z</time></trkpt><trkpt lat="43.2956397" lon="12.6511777"><ele>408.5</ele><time>2026-04-04T11:02:25.273Z</time></trkpt><trkpt lat="43.295445" lon="12.6513656"><ele>409.0</ele><time>2026-04-04T11:02:26.275Z</time></trkpt><trkpt lat="43.2952583" lon="12.6515513"><ele>409.0</ele><time>2026-04-04T11:02:27.273Z</time></trkpt><trkpt lat="43.2950692" lon="12.6517568"><ele>409.0</ele><time>2026-04-04T11:02:28.274Z</time></trkpt><trkpt lat="43.2948605" lon="12.6519854"><ele>407.5</ele><time>2026-04-04T11:02:29.272Z</time></trkpt><trkpt lat="43.2946522" lon="12.6522136"><ele>406.0</ele><time>2026-04-04T11:02:30.269Z</time></trkpt><trkpt lat="43.2944581" lon="12.6524261"><ele>406.0</ele><time>2026-04-04T11:02:31.269Z</time></trkpt><trkpt lat="43.294278" lon="12.6526257"><ele>406.0</ele><time>2026-04-04T11:02:32.278Z</time></trkpt><trkpt lat="43.2941029" lon="12.6528321"><ele>402.0</ele><time>2026-04-04T11:02:33.281Z</time></trkpt><trkpt lat="43.2939214" lon="12.6530411"><ele>398.0</ele><time>2026-04-04T11:02:34.282Z</time></trkpt><trkpt lat="43.2937462" lon="12.6532553"><ele>398.0</ele><time>2026-04-04T11:02:35.283Z</time></trkpt><trkpt lat="43.2935619" lon="12.6534798"><ele>398.0</ele><time>2026-04-04T11:02:36.284Z</time></trkpt><trkpt lat="43.2933775" lon="12.6537291"><ele>397.5</ele><time>2026-04-04T11:02:37.28Z</time></trkpt><trkpt lat="43.2931848" lon="12.6539922"><ele>397.0</ele><time>2026-04-04T11:02:38.281Z</time></trkpt><trkpt lat="43.2929823" lon="12.6542688"><ele>396.5</ele><time>2026-04-04T11:02:39.284Z</time></trkpt><trkpt lat="43.2927731" lon="12.6545607"><ele>396.0</ele><time>2026-04-04T11:02:40.281Z</time></trkpt><trkpt lat="43.2925611" lon="12.6548604"><ele>396.0</ele><time>2026-04-04T11:02:41.273Z</time></trkpt><trkpt lat="43.2923544" lon="12.6551603"><ele>396.0</ele><time>2026-04-04T11:02:42.276Z</time></trkpt><trkpt lat="43.2921479" lon="12.6554558"><ele>397.5</ele><time>2026-04-04T11:02:43.273Z</time></trkpt><trkpt lat="43.2919398" lon="12.6557409"><ele>399.0</ele><time>2026-04-04T11:02:44.271Z</time></trkpt><trkpt lat="43.2917359" lon="12.6560333"><ele>399.0</ele><time>2026-04-04T11:02:45.274Z</time></trkpt><trkpt lat="43.2915303" lon="12.656326"><ele>399.0</ele><time>2026-04-04T11:02:46.274Z</time></trkpt><trkpt lat="43.2913268" lon="12.6566146"><ele>399.0</ele><time>2026-04-04T11:02:47.276Z</time></trkpt><trkpt lat="43.2911192" lon="12.6568996"><ele>399.0</ele><time>2026-04-04T11:02:48.276Z</time></trkpt><trkpt lat="43.2909109" lon="12.6571748"><ele>399.0</ele><time>2026-04-04T11:02:49.276Z</time></trkpt><trkpt lat="43.2907052" lon="12.657444"><ele>399.0</ele><time>2026-04-04T11:02:50.281Z</time></trkpt><trkpt lat="43.2904988" lon="12.6577141"><ele>398.5</ele><time>2026-04-04T11:02:51.278Z</time></trkpt><trkpt lat="43.2902909" lon="12.657979"><ele>398.0</ele><time>2026-04-04T11:02:52.31Z</time></trkpt><trkpt lat="43.2900826" lon="12.6582378"><ele>398.0</ele><time>2026-04-04T11:02:53.276Z</time></trkpt><trkpt lat="43.2898658" lon="12.658486"><ele>398.0</ele><time>2026-04-04T11:02:54.276Z</time></trkpt><trkpt lat="43.2896487" lon="12.6587257"><ele>396.5</ele><time>2026-04-04T11:02:55.278Z</time></trkpt><trkpt lat="43.2894223" lon="12.6589633"><ele>395.0</ele><time>2026-04-04T11:02:56.278Z</time></trkpt><trkpt lat="43.289195" lon="12.6591913"><ele>395.0</ele><time>2026-04-04T11:02:57.278Z</time></trkpt><trkpt lat="43.2889579" lon="12.6594087"><ele>395.0</ele><time>2026-04-04T11:02:58.274Z</time></trkpt><trkpt lat="43.288713" lon="12.6596257"><ele>393.0</ele><time>2026-04-04T11:02:59.291Z</time></trkpt><trkpt lat="43.2884657" lon="12.6598503"><ele>391.0</ele><time>2026-04-04T11:03:00.274Z</time></trkpt><trkpt lat="43.288221" lon="12.66007"><ele>391.0</ele><time>2026-04-04T11:03:01.276Z</time></trkpt><trkpt lat="43.2879786" lon="12.6602815"><ele>391.0</ele><time>2026-04-04T11:03:02.272Z</time></trkpt><trkpt lat="43.2877457" lon="12.6604754"><ele>391.0</ele><time>2026-04-04T11:03:03.274Z</time></trkpt><trkpt lat="43.2875172" lon="12.660653"><ele>391.0</ele><time>2026-04-04T11:03:04.276Z</time></trkpt><trkpt lat="43.2872881" lon="12.6608241"><ele>390.5</ele><time>2026-04-04T11:03:05.27Z</time></trkpt><trkpt lat="43.2870551" lon="12.6609922"><ele>390.0</ele><time>2026-04-04T11:03:06.27Z</time></trkpt><trkpt lat="43.2868197" lon="12.6611551"><ele>390.0</ele><time>2026-04-04T11:03:07.276Z</time></trkpt><trkpt lat="43.2865803" lon="12.661315"><ele>390.0</ele><time>2026-04-04T11:03:08.271Z</time></trkpt><trkpt lat="43.2863339" lon="12.6614717"><ele>390.0</ele><time>2026-04-04T11:03:09.272Z</time></trkpt><trkpt lat="43.2860868" lon="12.6616201"><ele>390.0</ele><time>2026-04-04T11:03:10.273Z</time></trkpt><trkpt lat="43.2858459" lon="12.6617721"><ele>390.0</ele><time>2026-04-04T11:03:11.275Z</time></trkpt><trkpt lat="43.2856007" lon="12.6619212"><ele>390.0</ele><time>2026-04-04T11:03:12.271Z</time></trkpt><trkpt lat="43.2853571" lon="12.6620604"><ele>389.0</ele><time>2026-04-04T11:03:13.276Z</time></trkpt><trkpt lat="43.2851118" lon="12.6622018"><ele>388.0</ele><time>2026-04-04T11:03:14.276Z</time></trkpt><trkpt lat="43.2848589" lon="12.6623433"><ele>388.0</ele><time>2026-04-04T11:03:15.271Z</time></trkpt><trkpt lat="43.2846049" lon="12.662487"><ele>388.0</ele><time>2026-04-04T11:03:16.272Z</time></trkpt><trkpt lat="43.284353" lon="12.6626315"><ele>387.5</ele><time>2026-04-04T11:03:17.272Z</time></trkpt><trkpt lat="43.2840947" lon="12.6627814"><ele>387.0</ele><time>2026-04-04T11:03:18.28Z</time></trkpt><trkpt lat="43.2838407" lon="12.6629326"><ele>386.0</ele><time>2026-04-04T11:03:19.273Z</time></trkpt><trkpt lat="43.2835859" lon="12.663086"><ele>385.0</ele><time>2026-04-04T11:03:20.274Z</time></trkpt><trkpt lat="43.2833354" lon="12.6632378"><ele>384.5</ele><time>2026-04-04T11:03:21.275Z</time></trkpt><trkpt lat="43.2830724" lon="12.6633904"><ele>384.0</ele><time>2026-04-04T11:03:22.281Z</time></trkpt><trkpt lat="43.2828051" lon="12.6635473"><ele>384.0</ele><time>2026-04-04T11:03:23.276Z</time></trkpt><trkpt lat="43.2825337" lon="12.6637068"><ele>384.0</ele><time>2026-04-04T11:03:24.283Z</time></trkpt><trkpt lat="43.2822556" lon="12.663864"><ele>383.0</ele><time>2026-04-04T11:03:25.278Z</time></trkpt><trkpt lat="43.2819803" lon="12.6640228"><ele>382.0</ele><time>2026-04-04T11:03:26.274Z</time></trkpt><trkpt lat="43.2817" lon="12.66418"><ele>382.0</ele><time>2026-04-04T11:03:27.281Z</time></trkpt><trkpt lat="43.2814193" lon="12.6643354"><ele>382.0</ele><time>2026-04-04T11:03:28.277Z</time></trkpt><trkpt lat="43.2811388" lon="12.6644961"><ele>381.5</ele><time>2026-04-04T11:03:29.282Z</time></trkpt><trkpt lat="43.2808563" lon="12.6646547"><ele>381.0</ele><time>2026-04-04T11:03:30.298Z</time></trkpt><trkpt lat="43.2805776" lon="12.6648157"><ele>380.5</ele><time>2026-04-04T11:03:31.272Z</time></trkpt><trkpt lat="43.2802974" lon="12.6649726"><ele>380.0</ele><time>2026-04-04T11:03:32.275Z</time></trkpt><trkpt lat="43.2800186" lon="12.6651285"><ele>377.5</ele><time>2026-04-04T11:03:33.275Z</time></trkpt><trkpt lat="43.2797417" lon="12.6652824"><ele>375.0</ele><time>2026-04-04T11:03:34.272Z</time></trkpt><trkpt lat="43.2794736" lon="12.6654406"><ele>375.0</ele><time>2026-04-04T11:03:35.276Z</time></trkpt><trkpt lat="43.2792048" lon="12.6655959"><ele>375.0</ele><time>2026-04-04T11:03:36.275Z</time></trkpt><trkpt lat="43.2789356" lon="12.6657536"><ele>373.5</ele><time>2026-04-04T11:03:37.27Z</time></trkpt><trkpt lat="43.2786642" lon="12.6659175"><ele>372.0</ele><time>2026-04-04T11:03:38.283Z</time></trkpt><trkpt lat="43.2783926" lon="12.6660797"><ele>371.5</ele><time>2026-04-04T11:03:39.282Z</time></trkpt><trkpt lat="43.2781159" lon="12.6662405"><ele>371.0</ele><time>2026-04-04T11:03:40.28Z</time></trkpt><trkpt lat="43.2778431" lon="12.6663944"><ele>371.0</ele><time>2026-04-04T11:03:41.285Z</time></trkpt><trkpt lat="43.2775719" lon="12.6665432"><ele>371.0</ele><time>2026-04-04T11:03:42.279Z</time></trkpt><trkpt lat="43.2772981" lon="12.6666915"><ele>371.0</ele><time>2026-04-04T11:03:43.283Z</time></trkpt><trkpt lat="43.277025" lon="12.6668322"><ele>371.0</ele><time>2026-04-04T11:03:44.283Z</time></trkpt><trkpt lat="43.2767483" lon="12.666969"><ele>371.0</ele><time>2026-04-04T11:03:45.281Z</time></trkpt><trkpt lat="43.2764776" lon="12.6671014"><ele>371.0</ele><time>2026-04-04T11:03:46.284Z</time></trkpt><trkpt lat="43.2762177" lon="12.6672248"><ele>370.0</ele><time>2026-04-04T11:03:47.274Z</time></trkpt><trkpt lat="43.2759552" lon="12.6673595"><ele>369.0</ele><time>2026-04-04T11:03:48.273Z</time></trkpt><trkpt lat="43.2756886" lon="12.6674987"><ele>367.5</ele><time>2026-04-04T11:03:49.272Z</time></trkpt><trkpt lat="43.275414" lon="12.6676484"><ele>366.0</ele><time>2026-04-04T11:03:50.272Z</time></trkpt><trkpt lat="43.2751281" lon="12.6677981"><ele>366.0</ele><time>2026-04-04T11:03:51.275Z</time></trkpt><trkpt lat="43.2748412" lon="12.6679395"><ele>366.0</ele><time>2026-04-04T11:03:52.272Z</time></trkpt><trkpt lat="43.2745524" lon="12.6680819"><ele>364.5</ele><time>2026-04-04T11:03:53.273Z</time></trkpt><trkpt lat="43.2742733" lon="12.6682284"><ele>363.0</ele><time>2026-04-04T11:03:54.273Z</time></trkpt><trkpt lat="43.273995" lon="12.6683738"><ele>362.5</ele><time>2026-04-04T11:03:55.277Z</time></trkpt><trkpt lat="43.2737089" lon="12.6685185"><ele>362.0</ele><time>2026-04-04T11:03:56.28Z</time></trkpt><trkpt lat="43.2734323" lon="12.6686564"><ele>362.0</ele><time>2026-04-04T11:03:57.285Z</time></trkpt><trkpt lat="43.2731689" lon="12.6687889"><ele>362.0</ele><time>2026-04-04T11:03:58.282Z</time></trkpt><trkpt lat="43.2729168" lon="12.6689194"><ele>361.5</ele><time>2026-04-04T11:03:59.283Z</time></trkpt><trkpt lat="43.2726612" lon="12.6690488"><ele>361.0</ele><time>2026-04-04T11:04:00.282Z</time></trkpt><trkpt lat="43.2723972" lon="12.669188"><ele>361.0</ele><time>2026-04-04T11:04:01.284Z</time></trkpt><trkpt lat="43.272139" lon="12.6693383"><ele>361.0</ele><time>2026-04-04T11:04:02.282Z</time></trkpt><trkpt lat="43.2718809" lon="12.6694935"><ele>361.0</ele><time>2026-04-04T11:04:03.284Z</time></trkpt><trkpt lat="43.2716269" lon="12.6696567"><ele>361.0</ele><time>2026-04-04T11:04:04.286Z</time></trkpt><trkpt lat="43.2713621" lon="12.6698292"><ele>360.0</ele><time>2026-04-04T11:04:05.286Z</time></trkpt><trkpt lat="43.2710976" lon="12.6700056"><ele>359.0</ele><time>2026-04-04T11:04:06.278Z</time></trkpt><trkpt lat="43.2708319" lon="12.6701888"><ele>358.0</ele><time>2026-04-04T11:04:07.279Z</time></trkpt><trkpt lat="43.2705639" lon="12.6703779"><ele>357.0</ele><time>2026-04-04T11:04:08.274Z</time></trkpt><trkpt lat="43.2702962" lon="12.6705757"><ele>357.0</ele><time>2026-04-04T11:04:09.274Z</time></trkpt><trkpt lat="43.2700285" lon="12.6707653"><ele>357.0</ele><time>2026-04-04T11:04:10.277Z</time></trkpt><trkpt lat="43.2697698" lon="12.67096"><ele>357.0</ele><time>2026-04-04T11:04:11.275Z</time></trkpt><trkpt lat="43.2695175" lon="12.6711682"><ele>357.0</ele><time>2026-04-04T11:04:12.274Z</time></trkpt><trkpt lat="43.2692665" lon="12.6713803"><ele>357.0</ele><time>2026-04-04T11:04:13.282Z</time></trkpt><trkpt lat="43.2690261" lon="12.671603"><ele>357.0</ele><time>2026-04-04T11:04:14.275Z</time></trkpt><trkpt lat="43.2687838" lon="12.6718313"><ele>356.5</ele><time>2026-04-04T11:04:15.278Z</time></trkpt><trkpt lat="43.2685439" lon="12.672062"><ele>356.0</ele><time>2026-04-04T11:04:16.274Z</time></trkpt><trkpt lat="43.2683058" lon="12.6722981"><ele>355.5</ele><time>2026-04-04T11:04:17.277Z</time></trkpt><trkpt lat="43.268076" lon="12.6725361"><ele>355.0</ele><time>2026-04-04T11:04:18.278Z</time></trkpt><trkpt lat="43.2678526" lon="12.6727756"><ele>355.0</ele><time>2026-04-04T11:04:19.275Z</time></trkpt><trkpt lat="43.2676338" lon="12.6730111"><ele>355.0</ele><time>2026-04-04T11:04:20.279Z</time></trkpt><trkpt lat="43.267404" lon="12.6732469"><ele>355.0</ele><time>2026-04-04T11:04:21.283Z</time></trkpt><trkpt lat="43.2671702" lon="12.6734876"><ele>355.0</ele><time>2026-04-04T11:04:22.281Z</time></trkpt><trkpt lat="43.266941" lon="12.6737367"><ele>354.0</ele><time>2026-04-04T11:04:23.277Z</time></trkpt><trkpt lat="43.2667094" lon="12.6739831"><ele>353.0</ele><time>2026-04-04T11:04:24.281Z</time></trkpt><trkpt lat="43.2664855" lon="12.6742312"><ele>352.5</ele><time>2026-04-04T11:04:25.276Z</time></trkpt><trkpt lat="43.2662607" lon="12.6744787"><ele>352.0</ele><time>2026-04-04T11:04:26.277Z</time></trkpt><trkpt lat="43.2660383" lon="12.6747237"><ele>352.0</ele><time>2026-04-04T11:04:27.276Z</time></trkpt><trkpt lat="43.2658194" lon="12.6749638"><ele>352.0</ele><time>2026-04-04T11:04:28.276Z</time></trkpt><trkpt lat="43.2656023" lon="12.6752009"><ele>352.0</ele><time>2026-04-04T11:04:29.285Z</time></trkpt><trkpt lat="43.2653879" lon="12.6754313"><ele>352.0</ele><time>2026-04-04T11:04:30.279Z</time></trkpt><trkpt lat="43.2651754" lon="12.6756651"><ele>352.0</ele><time>2026-04-04T11:04:31.282Z</time></trkpt><trkpt lat="43.2649584" lon="12.6759023"><ele>352.0</ele><time>2026-04-04T11:04:32.281Z</time></trkpt><trkpt lat="43.2647496" lon="12.6761339"><ele>353.0</ele><time>2026-04-04T11:04:33.278Z</time></trkpt><trkpt lat="43.2645477" lon="12.6763586"><ele>354.0</ele><time>2026-04-04T11:04:34.281Z</time></trkpt><trkpt lat="43.2643408" lon="12.6765845"><ele>354.0</ele><time>2026-04-04T11:04:35.282Z</time></trkpt><trkpt lat="43.2641322" lon="12.6768259"><ele>354.0</ele><time>2026-04-04T11:04:36.278Z</time></trkpt><trkpt lat="43.2639248" lon="12.6770608"><ele>351.5</ele><time>2026-04-04T11:04:37.281Z</time></trkpt><trkpt lat="43.2637169" lon="12.6772942"><ele>349.0</ele><time>2026-04-04T11:04:38.28Z</time></trkpt><trkpt lat="43.263511" lon="12.6775188"><ele>349.0</ele><time>2026-04-04T11:04:39.278Z</time></trkpt><trkpt lat="43.2633066" lon="12.6777368"><ele>349.0</ele><time>2026-04-04T11:04:40.279Z</time></trkpt><trkpt lat="43.2631011" lon="12.6779576"><ele>348.5</ele><time>2026-04-04T11:04:41.28Z</time></trkpt><trkpt lat="43.2628934" lon="12.6781819"><ele>348.0</ele><time>2026-04-04T11:04:42.272Z</time></trkpt><trkpt lat="43.262686" lon="12.6784101"><ele>348.5</ele><time>2026-04-04T11:04:43.272Z</time></trkpt><trkpt lat="43.262477" lon="12.6786389"><ele>349.0</ele><time>2026-04-04T11:04:44.27Z</time></trkpt><trkpt lat="43.2622735" lon="12.678862"><ele>348.0</ele><time>2026-04-04T11:04:45.27Z</time></trkpt><trkpt lat="43.2620736" lon="12.6790959"><ele>347.0</ele><time>2026-04-04T11:04:46.275Z</time></trkpt><trkpt lat="43.2618738" lon="12.6793287"><ele>348.0</ele><time>2026-04-04T11:04:47.274Z</time></trkpt><trkpt lat="43.2616767" lon="12.6795515"><ele>349.0</ele><time>2026-04-04T11:04:48.273Z</time></trkpt><trkpt lat="43.2614805" lon="12.6797688"><ele>348.5</ele><time>2026-04-04T11:04:49.275Z</time></trkpt><trkpt lat="43.2612864" lon="12.6799844"><ele>348.0</ele><time>2026-04-04T11:04:50.273Z</time></trkpt><trkpt lat="43.2610996" lon="12.6801997"><ele>348.5</ele><time>2026-04-04T11:04:51.273Z</time></trkpt><trkpt lat="43.2609115" lon="12.6804077"><ele>349.0</ele><time>2026-04-04T11:04:52.276Z</time></trkpt><trkpt lat="43.260723" lon="12.6806161"><ele>349.0</ele><time>2026-04-04T11:04:53.27Z</time></trkpt><trkpt lat="43.2605317" lon="12.6808288"><ele>349.0</ele><time>2026-04-04T11:04:54.27Z</time></trkpt><trkpt lat="43.2603399" lon="12.6810408"><ele>350.0</ele><time>2026-04-04T11:04:55.273Z</time></trkpt><trkpt lat="43.2601477" lon="12.6812547"><ele>351.0</ele><time>2026-04-04T11:04:56.271Z</time></trkpt><trkpt lat="43.2599701" lon="12.6814529"><ele>351.0</ele><time>2026-04-04T11:04:57.273Z</time></trkpt><trkpt lat="43.2597926" lon="12.6816496"><ele>351.0</ele><time>2026-04-04T11:04:58.274Z</time></trkpt><trkpt lat="43.2596172" lon="12.6818426"><ele>351.3333333333333</ele><time>2026-04-04T11:04:59.275Z</time></trkpt><trkpt lat="43.2594488" lon="12.6820195"><ele>351.66666666666663</ele><time>2026-04-04T11:05:00.273Z</time></trkpt><trkpt lat="43.25929" lon="12.6821834"><ele>352.0</ele><time>2026-04-04T11:05:01.273Z</time></trkpt><trkpt lat="43.2591357" lon="12.6823442"><ele>352.0</ele><time>2026-04-04T11:05:02.273Z</time></trkpt><trkpt lat="43.2589841" lon="12.6825151"><ele>352.0</ele><time>2026-04-04T11:05:03.272Z</time></trkpt><trkpt lat="43.2588302" lon="12.6826936"><ele>352.0</ele><time>2026-04-04T11:05:04.274Z</time></trkpt><trkpt lat="43.2586853" lon="12.6828553"><ele>355.0</ele><time>2026-04-04T11:05:05.271Z</time></trkpt><trkpt lat="43.258556" lon="12.6829997"><ele>358.0</ele><time>2026-04-04T11:05:06.272Z</time></trkpt><trkpt lat="43.2584313" lon="12.6831495"><ele>361.0</ele><time>2026-04-04T11:05:07.27Z</time></trkpt><trkpt lat="43.2583164" lon="12.6833033"><ele>361.0</ele><time>2026-04-04T11:05:08.269Z</time></trkpt><trkpt lat="43.2582329" lon="12.6834837"><ele>361.0</ele><time>2026-04-04T11:05:09.268Z</time></trkpt><trkpt lat="43.2581724" lon="12.6836725"><ele>361.0</ele><time>2026-04-04T11:05:10.265Z</time></trkpt><trkpt lat="43.2581427" lon="12.6838684"><ele>362.5</ele><time>2026-04-04T11:05:11.265Z</time></trkpt><trkpt lat="43.2581396" lon="12.6840563"><ele>364.0</ele><time>2026-04-04T11:05:12.265Z</time></trkpt><trkpt lat="43.258161" lon="12.6842445"><ele>365.5</ele><time>2026-04-04T11:05:13.264Z</time></trkpt><trkpt lat="43.2582002" lon="12.6844385"><ele>367.0</ele><time>2026-04-04T11:05:14.265Z</time></trkpt><trkpt lat="43.258255" lon="12.6846286"><ele>369.75</ele><time>2026-04-04T11:05:15.262Z</time></trkpt><trkpt lat="43.258325" lon="12.6848015"><ele>372.5</ele><time>2026-04-04T11:05:16.266Z</time></trkpt><trkpt lat="43.2584099" lon="12.6849539"><ele>375.25</ele><time>2026-04-04T11:05:17.261Z</time></trkpt><trkpt lat="43.258507" lon="12.6850882"><ele>378.0</ele><time>2026-04-04T11:05:18.259Z</time></trkpt><trkpt lat="43.2586335" lon="12.6852034"><ele>377.0</ele><time>2026-04-04T11:05:19.264Z</time></trkpt><trkpt lat="43.2587681" lon="12.6852952"><ele>376.0</ele><time>2026-04-04T11:05:20.261Z</time></trkpt><trkpt lat="43.2589212" lon="12.6853647"><ele>375.0</ele><time>2026-04-04T11:05:21.255Z</time></trkpt><trkpt lat="43.2590866" lon="12.6853959"><ele>375.0</ele><time>2026-04-04T11:05:22.267Z</time></trkpt><trkpt lat="43.2592623" lon="12.6853904"><ele>375.0</ele><time>2026-04-04T11:05:23.265Z</time></trkpt><trkpt lat="43.2594306" lon="12.6853732"><ele>375.0</ele><time>2026-04-04T11:05:24.264Z</time></trkpt><trkpt lat="43.2596173" lon="12.6853582"><ele>369.0</ele><time>2026-04-04T11:05:25.252Z</time></trkpt><trkpt lat="43.2597887" lon="12.6853992"><ele>363.0</ele><time>2026-04-04T11:05:26.267Z</time></trkpt><trkpt lat="43.2599474" lon="12.6854841"><ele>357.0</ele><time>2026-04-04T11:05:27.265Z</time></trkpt><trkpt lat="43.260096" lon="12.6856159"><ele>357.0</ele><time>2026-04-04T11:05:28.265Z</time></trkpt><trkpt lat="43.2602385" lon="12.6857892"><ele>357.0</ele><time>2026-04-04T11:05:29.262Z</time></trkpt><trkpt lat="43.2603672" lon="12.6859818"><ele>357.0</ele><time>2026-04-04T11:05:30.263Z</time></trkpt><trkpt lat="43.2604792" lon="12.6862049"><ele>357.6666666666667</ele><time>2026-04-04T11:05:31.261Z</time></trkpt><trkpt lat="43.2605672" lon="12.6864503"><ele>358.33333333333337</ele><time>2026-04-04T11:05:32.263Z</time></trkpt><trkpt lat="43.2606396" lon="12.6867016"><ele>359.0</ele><time>2026-04-04T11:05:33.258Z</time></trkpt><trkpt lat="43.2607253" lon="12.686966"><ele>359.0</ele><time>2026-04-04T11:05:34.258Z</time></trkpt><trkpt lat="43.2608266" lon="12.6872385"><ele>359.0</ele><time>2026-04-04T11:05:35.261Z</time></trkpt><trkpt lat="43.2609418" lon="12.6875352"><ele>364.0</ele><time>2026-04-04T11:05:36.264Z</time></trkpt><trkpt lat="43.2610585" lon="12.6878478"><ele>369.0</ele><time>2026-04-04T11:05:37.276Z</time></trkpt><trkpt lat="43.2611704" lon="12.6881666"><ele>369.0</ele><time>2026-04-04T11:05:38.262Z</time></trkpt><trkpt lat="43.2612906" lon="12.6884882"><ele>369.0</ele><time>2026-04-04T11:05:39.264Z</time></trkpt><trkpt lat="43.261409" lon="12.6888089"><ele>364.5</ele><time>2026-04-04T11:05:40.263Z</time></trkpt><trkpt lat="43.2615295" lon="12.6891398"><ele>360.0</ele><time>2026-04-04T11:05:41.26Z</time></trkpt><trkpt lat="43.261651" lon="12.6894701"><ele>360.0</ele><time>2026-04-04T11:05:42.261Z</time></trkpt><trkpt lat="43.2617692" lon="12.6897937"><ele>360.0</ele><time>2026-04-04T11:05:43.264Z</time></trkpt><trkpt lat="43.2618841" lon="12.6900989"><ele>360.5</ele><time>2026-04-04T11:05:44.261Z</time></trkpt><trkpt lat="43.2619932" lon="12.6904062"><ele>361.0</ele><time>2026-04-04T11:05:45.259Z</time></trkpt><trkpt lat="43.2621042" lon="12.6907153"><ele>361.0</ele><time>2026-04-04T11:05:46.262Z</time></trkpt><trkpt lat="43.262217" lon="12.6910231"><ele>361.0</ele><time>2026-04-04T11:05:47.264Z</time></trkpt><trkpt lat="43.2623314" lon="12.6913399"><ele>358.5</ele><time>2026-04-04T11:05:48.261Z</time></trkpt><trkpt lat="43.2624537" lon="12.6916571"><ele>356.0</ele><time>2026-04-04T11:05:49.263Z</time></trkpt><trkpt lat="43.2625751" lon="12.6919834"><ele>356.0</ele><time>2026-04-04T11:05:50.265Z</time></trkpt><trkpt lat="43.262696" lon="12.6923112"><ele>356.0</ele><time>2026-04-04T11:05:51.263Z</time></trkpt><trkpt lat="43.2628136" lon="12.6926392"><ele>363.0</ele><time>2026-04-04T11:05:52.275Z</time></trkpt><trkpt lat="43.2629364" lon="12.6929555"><ele>370.0</ele><time>2026-04-04T11:05:53.263Z</time></trkpt><trkpt lat="43.2630638" lon="12.6932642"><ele>366.0</ele><time>2026-04-04T11:05:54.267Z</time></trkpt><trkpt lat="43.263202" lon="12.6935634"><ele>362.0</ele><time>2026-04-04T11:05:55.264Z</time></trkpt><trkpt lat="43.263343" lon="12.6938613"><ele>362.0</ele><time>2026-04-04T11:05:56.262Z</time></trkpt><trkpt lat="43.2635027" lon="12.694153"><ele>362.0</ele><time>2026-04-04T11:05:57.269Z</time></trkpt><trkpt lat="43.2636673" lon="12.6944272"><ele>361.0</ele><time>2026-04-04T11:05:58.264Z</time></trkpt><trkpt lat="43.2638514" lon="12.6946956"><ele>360.0</ele><time>2026-04-04T11:05:59.263Z</time></trkpt><trkpt lat="43.2640435" lon="12.6949582"><ele>360.0</ele><time>2026-04-04T11:06:00.269Z</time></trkpt><trkpt lat="43.2642402" lon="12.6952098"><ele>360.0</ele><time>2026-04-04T11:06:01.268Z</time></trkpt><trkpt lat="43.2644491" lon="12.695458"><ele>363.5</ele><time>2026-04-04T11:06:02.267Z</time></trkpt><trkpt lat="43.2646726" lon="12.695672"><ele>367.0</ele><time>2026-04-04T11:06:03.272Z</time></trkpt><trkpt lat="43.2648992" lon="12.6958748"><ele>367.0</ele><time>2026-04-04T11:06:04.272Z</time></trkpt><trkpt lat="43.2651485" lon="12.6960661"><ele>367.0</ele><time>2026-04-04T11:06:05.272Z</time></trkpt><trkpt lat="43.2654088" lon="12.6962573"><ele>366.0</ele><time>2026-04-04T11:06:06.274Z</time></trkpt><trkpt lat="43.2656659" lon="12.6964468"><ele>365.0</ele><time>2026-04-04T11:06:07.275Z</time></trkpt><trkpt lat="43.2659244" lon="12.6966455"><ele>365.0</ele><time>2026-04-04T11:06:08.267Z</time></trkpt><trkpt lat="43.266183" lon="12.6968357"><ele>365.0</ele><time>2026-04-04T11:06:09.269Z</time></trkpt><trkpt lat="43.2664583" lon="12.6970108"><ele>365.0</ele><time>2026-04-04T11:06:10.274Z</time></trkpt><trkpt lat="43.2667196" lon="12.697204"><ele>365.0</ele><time>2026-04-04T11:06:11.27Z</time></trkpt><trkpt lat="43.2669627" lon="12.6973959"><ele>365.0</ele><time>2026-04-04T11:06:12.268Z</time></trkpt><trkpt lat="43.2671878" lon="12.6975771"><ele>365.0</ele><time>2026-04-04T11:06:13.272Z</time></trkpt><trkpt lat="43.2674027" lon="12.6977726"><ele>363.5</ele><time>2026-04-04T11:06:14.264Z</time></trkpt><trkpt lat="43.267616" lon="12.697984"><ele>362.0</ele><time>2026-04-04T11:06:15.265Z</time></trkpt><trkpt lat="43.2678252" lon="12.6982186"><ele>362.0</ele><time>2026-04-04T11:06:16.27Z</time></trkpt><trkpt lat="43.2680288" lon="12.6984648"><ele>362.0</ele><time>2026-04-04T11:06:17.264Z</time></trkpt><trkpt lat="43.2682271" lon="12.6987314"><ele>362.0</ele><time>2026-04-04T11:06:18.266Z</time></trkpt><trkpt lat="43.268418" lon="12.699009"><ele>362.0</ele><time>2026-04-04T11:06:19.27Z</time></trkpt><trkpt lat="43.2685932" lon="12.6993004"><ele>364.0</ele><time>2026-04-04T11:06:20.268Z</time></trkpt><trkpt lat="43.2687576" lon="12.6995948"><ele>366.0</ele><time>2026-04-04T11:06:21.266Z</time></trkpt><trkpt lat="43.2689035" lon="12.6999031"><ele>366.5</ele><time>2026-04-04T11:06:22.27Z</time></trkpt><trkpt lat="43.2690424" lon="12.7002155"><ele>367.0</ele><time>2026-04-04T11:06:23.268Z</time></trkpt><trkpt lat="43.2691686" lon="12.7005407"><ele>367.0</ele><time>2026-04-04T11:06:24.265Z</time></trkpt><trkpt lat="43.2692833" lon="12.7008678"><ele>367.0</ele><time>2026-04-04T11:06:25.268Z</time></trkpt><trkpt lat="43.2693848" lon="12.7012055"><ele>369.0</ele><time>2026-04-04T11:06:26.269Z</time></trkpt><trkpt lat="43.2694838" lon="12.7015582"><ele>371.0</ele><time>2026-04-04T11:06:27.267Z</time></trkpt><trkpt lat="43.269582" lon="12.7019196"><ele>373.5</ele><time>2026-04-04T11:06:28.27Z</time></trkpt><trkpt lat="43.2696836" lon="12.7022832"><ele>376.0</ele><time>2026-04-04T11:06:29.269Z</time></trkpt><trkpt lat="43.2697883" lon="12.7026501"><ele>371.0</ele><time>2026-04-04T11:06:30.27Z</time></trkpt><trkpt lat="43.2698891" lon="12.7030215"><ele>366.0</ele><time>2026-04-04T11:06:31.271Z</time></trkpt><trkpt lat="43.2699901" lon="12.7033892"><ele>367.5</ele><time>2026-04-04T11:06:32.272Z</time></trkpt><trkpt lat="43.2700888" lon="12.7037533"><ele>369.0</ele><time>2026-04-04T11:06:33.271Z</time></trkpt><trkpt lat="43.2701886" lon="12.7041132"><ele>373.5</ele><time>2026-04-04T11:06:34.267Z</time></trkpt><trkpt lat="43.2702836" lon="12.7044752"><ele>378.0</ele><time>2026-04-04T11:06:35.268Z</time></trkpt><trkpt lat="43.2703797" lon="12.7048297"><ele>378.0</ele><time>2026-04-04T11:06:36.266Z</time></trkpt><trkpt lat="43.2704768" lon="12.7051819"><ele>378.0</ele><time>2026-04-04T11:06:37.268Z</time></trkpt><trkpt lat="43.2705669" lon="12.7055264"><ele>373.5</ele><time>2026-04-04T11:06:38.277Z</time></trkpt><trkpt lat="43.2706542" lon="12.70586"><ele>369.0</ele><time>2026-04-04T11:06:39.267Z</time></trkpt><trkpt lat="43.2707478" lon="12.7061906"><ele>369.0</ele><time>2026-04-04T11:06:40.268Z</time></trkpt><trkpt lat="43.2708554" lon="12.7065083"><ele>369.0</ele><time>2026-04-04T11:06:41.266Z</time></trkpt><trkpt lat="43.2709779" lon="12.7068207"><ele>373.0</ele><time>2026-04-04T11:06:42.261Z</time></trkpt><trkpt lat="43.2711105" lon="12.7071258"><ele>377.0</ele><time>2026-04-04T11:06:43.278Z</time></trkpt><trkpt lat="43.2712468" lon="12.7074286"><ele>377.0</ele><time>2026-04-04T11:06:44.266Z</time></trkpt><trkpt lat="43.2713995" lon="12.7077255"><ele>377.0</ele><time>2026-04-04T11:06:45.27Z</time></trkpt><trkpt lat="43.2715618" lon="12.7080099"><ele>375.5</ele><time>2026-04-04T11:06:46.268Z</time></trkpt><trkpt lat="43.2717412" lon="12.7082839"><ele>374.0</ele><time>2026-04-04T11:06:47.267Z</time></trkpt><trkpt lat="43.2719329" lon="12.7085457"><ele>373.0</ele><time>2026-04-04T11:06:48.268Z</time></trkpt><trkpt lat="43.2721331" lon="12.7088024"><ele>372.0</ele><time>2026-04-04T11:06:49.268Z</time></trkpt><trkpt lat="43.2723445" lon="12.7090421"><ele>372.0</ele><time>2026-04-04T11:06:50.265Z</time></trkpt><trkpt lat="43.2725674" lon="12.7092697"><ele>372.0</ele><time>2026-04-04T11:06:51.265Z</time></trkpt><trkpt lat="43.2727977" lon="12.7094855"><ele>372.0</ele><time>2026-04-04T11:06:52.272Z</time></trkpt><trkpt lat="43.2730289" lon="12.7097044"><ele>372.0</ele><time>2026-04-04T11:06:53.265Z</time></trkpt><trkpt lat="43.2732658" lon="12.7099149"><ele>372.0</ele><time>2026-04-04T11:06:54.265Z</time></trkpt><trkpt lat="43.2735021" lon="12.7101247"><ele>372.0</ele><time>2026-04-04T11:06:55.267Z</time></trkpt><trkpt lat="43.2737291" lon="12.71033"><ele>374.5</ele><time>2026-04-04T11:06:56.263Z</time></trkpt><trkpt lat="43.2739488" lon="12.7105422"><ele>377.0</ele><time>2026-04-04T11:06:57.268Z</time></trkpt><trkpt lat="43.274161" lon="12.7107584"><ele>377.0</ele><time>2026-04-04T11:06:58.266Z</time></trkpt><trkpt lat="43.2743676" lon="12.7109932"><ele>377.0</ele><time>2026-04-04T11:06:59.271Z</time></trkpt><trkpt lat="43.2745712" lon="12.7112381"><ele>377.5</ele><time>2026-04-04T11:07:00.272Z</time></trkpt><trkpt lat="43.2747601" lon="12.7114866"><ele>378.0</ele><time>2026-04-04T11:07:01.264Z</time></trkpt><trkpt lat="43.274934" lon="12.7117404"><ele>385.0</ele><time>2026-04-04T11:07:02.264Z</time></trkpt><trkpt lat="43.2750996" lon="12.7120065"><ele>392.0</ele><time>2026-04-04T11:07:03.262Z</time></trkpt><trkpt lat="43.2752752" lon="12.712269"><ele>392.0</ele><time>2026-04-04T11:07:04.262Z</time></trkpt><trkpt lat="43.2754596" lon="12.7125419"><ele>392.0</ele><time>2026-04-04T11:07:05.254Z</time></trkpt><trkpt lat="43.275639" lon="12.7128152"><ele>390.5</ele><time>2026-04-04T11:07:06.248Z</time></trkpt><trkpt lat="43.2758211" lon="12.7130733"><ele>389.0</ele><time>2026-04-04T11:07:07.243Z</time></trkpt><trkpt lat="43.2759474" lon="12.7134088"><ele>388.5</ele><time>2026-04-04T11:07:08.25Z</time></trkpt><trkpt lat="43.2759888" lon="12.7138674"><ele>388.0</ele><time>2026-04-04T11:07:09.262Z</time></trkpt><trkpt lat="43.2760795" lon="12.7142632"><ele>387.0</ele><time>2026-04-04T11:07:10.26Z</time></trkpt><trkpt lat="43.2761796" lon="12.7146272"><ele>386.0</ele><time>2026-04-04T11:07:11.267Z</time></trkpt><trkpt lat="43.2762555" lon="12.7149859"><ele>385.5</ele><time>2026-04-04T11:07:12.27Z</time></trkpt><trkpt lat="43.2763306" lon="12.7153351"><ele>385.0</ele><time>2026-04-04T11:07:13.274Z</time></trkpt><trkpt lat="43.2764008" lon="12.7156849"><ele>384.0</ele><time>2026-04-04T11:07:14.273Z</time></trkpt><trkpt lat="43.2764749" lon="12.7160326"><ele>383.0</ele><time>2026-04-04T11:07:15.276Z</time></trkpt><trkpt lat="43.2765489" lon="12.7163874"><ele>385.0</ele><time>2026-04-04T11:07:16.275Z</time></trkpt><trkpt lat="43.2766303" lon="12.7167394"><ele>387.0</ele><time>2026-04-04T11:07:17.272Z</time></trkpt><trkpt lat="43.2767085" lon="12.7170878"><ele>388.5</ele><time>2026-04-04T11:07:18.266Z</time></trkpt><trkpt lat="43.2767823" lon="12.7174264"><ele>390.0</ele><time>2026-04-04T11:07:19.265Z</time></trkpt><trkpt lat="43.2768482" lon="12.7177318"><ele>391.66666666666663</ele><time>2026-04-04T11:07:20.261Z</time></trkpt><trkpt lat="43.2769213" lon="12.7180175"><ele>393.3333333333333</ele><time>2026-04-04T11:07:21.262Z</time></trkpt><trkpt lat="43.2769997" lon="12.7183111"><ele>395.0</ele><time>2026-04-04T11:07:22.271Z</time></trkpt><trkpt lat="43.2770875" lon="12.7186142"><ele>397.5</ele><time>2026-04-04T11:07:23.263Z</time></trkpt><trkpt lat="43.2771865" lon="12.7189207"><ele>400.0</ele><time>2026-04-04T11:07:24.261Z</time></trkpt><trkpt lat="43.277288" lon="12.7192209"><ele>403.0</ele><time>2026-04-04T11:07:25.26Z</time></trkpt><trkpt lat="43.2773895" lon="12.7195175"><ele>406.0</ele><time>2026-04-04T11:07:26.261Z</time></trkpt><trkpt lat="43.277527" lon="12.7198118"><ele>406.0</ele><time>2026-04-04T11:07:27.263Z</time></trkpt><trkpt lat="43.2776545" lon="12.7200812"><ele>406.0</ele><time>2026-04-04T11:07:28.263Z</time></trkpt><trkpt lat="43.2777883" lon="12.7203447"><ele>404.5</ele><time>2026-04-04T11:07:29.268Z</time></trkpt><trkpt lat="43.2779422" lon="12.7206044"><ele>403.0</ele><time>2026-04-04T11:07:30.265Z</time></trkpt><trkpt lat="43.2781107" lon="12.7208663"><ele>400.0</ele><time>2026-04-04T11:07:31.268Z</time></trkpt><trkpt lat="43.2782986" lon="12.7211162"><ele>397.0</ele><time>2026-04-04T11:07:32.266Z</time></trkpt><trkpt lat="43.2784896" lon="12.7213539"><ele>397.0</ele><time>2026-04-04T11:07:33.266Z</time></trkpt><trkpt lat="43.2786735" lon="12.7215676"><ele>397.0</ele><time>2026-04-04T11:07:34.27Z</time></trkpt><trkpt lat="43.2788641" lon="12.7217737"><ele>396.0</ele><time>2026-04-04T11:07:35.268Z</time></trkpt><trkpt lat="43.2790763" lon="12.7219682"><ele>395.0</ele><time>2026-04-04T11:07:36.267Z</time></trkpt><trkpt lat="43.2793019" lon="12.7221591"><ele>395.0</ele><time>2026-04-04T11:07:37.268Z</time></trkpt><trkpt lat="43.2795322" lon="12.7223323"><ele>395.0</ele><time>2026-04-04T11:07:38.271Z</time></trkpt><trkpt lat="43.279776" lon="12.7224924"><ele>394.5</ele><time>2026-04-04T11:07:39.267Z</time></trkpt><trkpt lat="43.2800348" lon="12.7226453"><ele>394.0</ele><time>2026-04-04T11:07:40.265Z</time></trkpt><trkpt lat="43.2803023" lon="12.72281"><ele>392.5</ele><time>2026-04-04T11:07:41.266Z</time></trkpt><trkpt lat="43.2805856" lon="12.7229903"><ele>391.0</ele><time>2026-04-04T11:07:42.268Z</time></trkpt><trkpt lat="43.2808681" lon="12.7231786"><ele>389.5</ele><time>2026-04-04T11:07:43.269Z</time></trkpt><trkpt lat="43.2811596" lon="12.7233651"><ele>388.0</ele><time>2026-04-04T11:07:44.268Z</time></trkpt><trkpt lat="43.2814391" lon="12.7235533"><ele>384.0</ele><time>2026-04-04T11:07:45.272Z</time></trkpt><trkpt lat="43.2817194" lon="12.7237387"><ele>380.0</ele><time>2026-04-04T11:07:46.272Z</time></trkpt><trkpt lat="43.2819948" lon="12.7239231"><ele>380.0</ele><time>2026-04-04T11:07:47.274Z</time></trkpt><trkpt lat="43.2822601" lon="12.7241026"><ele>380.0</ele><time>2026-04-04T11:07:48.273Z</time></trkpt><trkpt lat="43.2825142" lon="12.7242759"><ele>381.5</ele><time>2026-04-04T11:07:49.277Z</time></trkpt><trkpt lat="43.2827672" lon="12.7244471"><ele>383.0</ele><time>2026-04-04T11:07:50.283Z</time></trkpt><trkpt lat="43.2830333" lon="12.7246215"><ele>382.0</ele><time>2026-04-04T11:07:51.274Z</time></trkpt><trkpt lat="43.2832996" lon="12.7247995"><ele>381.0</ele><time>2026-04-04T11:07:52.276Z</time></trkpt><trkpt lat="43.2835658" lon="12.7249681"><ele>381.0</ele><time>2026-04-04T11:07:53.271Z</time></trkpt><trkpt lat="43.2838281" lon="12.7251329"><ele>381.0</ele><time>2026-04-04T11:07:54.272Z</time></trkpt><trkpt lat="43.2840832" lon="12.7253014"><ele>384.0</ele><time>2026-04-04T11:07:55.272Z</time></trkpt><trkpt lat="43.2843283" lon="12.7254737"><ele>387.0</ele><time>2026-04-04T11:07:56.273Z</time></trkpt><trkpt lat="43.2845664" lon="12.7256561"><ele>387.5</ele><time>2026-04-04T11:07:57.273Z</time></trkpt><trkpt lat="43.2847999" lon="12.7258573"><ele>388.0</ele><time>2026-04-04T11:07:58.27Z</time></trkpt><trkpt lat="43.2850261" lon="12.7260855"><ele>388.0</ele><time>2026-04-04T11:07:59.272Z</time></trkpt><trkpt lat="43.2852496" lon="12.7263297"><ele>388.0</ele><time>2026-04-04T11:08:00.27Z</time></trkpt><trkpt lat="43.2854674" lon="12.7265829"><ele>387.5</ele><time>2026-04-04T11:08:01.27Z</time></trkpt><trkpt lat="43.2856703" lon="12.7268401"><ele>387.0</ele><time>2026-04-04T11:08:02.271Z</time></trkpt><trkpt lat="43.2858705" lon="12.7270986"><ele>387.0</ele><time>2026-04-04T11:08:03.267Z</time></trkpt><trkpt lat="43.2860588" lon="12.7273733"><ele>387.0</ele><time>2026-04-04T11:08:04.268Z</time></trkpt><trkpt lat="43.2862388" lon="12.7276529"><ele>388.0</ele><time>2026-04-04T11:08:05.271Z</time></trkpt><trkpt lat="43.2864112" lon="12.7279458"><ele>389.0</ele><time>2026-04-04T11:08:06.268Z</time></trkpt><trkpt lat="43.2865869" lon="12.7282485"><ele>391.0</ele><time>2026-04-04T11:08:07.269Z</time></trkpt><trkpt lat="43.2867457" lon="12.7285672"><ele>393.0</ele><time>2026-04-04T11:08:08.27Z</time></trkpt><trkpt lat="43.2869066" lon="12.7288969"><ele>393.0</ele><time>2026-04-04T11:08:09.27Z</time></trkpt><trkpt lat="43.2870517" lon="12.7292322"><ele>393.0</ele><time>2026-04-04T11:08:10.271Z</time></trkpt><trkpt lat="43.2871835" lon="12.7295706"><ele>393.0</ele><time>2026-04-04T11:08:11.27Z</time></trkpt><trkpt lat="43.2873109" lon="12.7299011"><ele>393.0</ele><time>2026-04-04T11:08:12.272Z</time></trkpt><trkpt lat="43.287436" lon="12.7302257"><ele>393.0</ele><time>2026-04-04T11:08:13.273Z</time></trkpt><trkpt lat="43.2875584" lon="12.7305485"><ele>393.0</ele><time>2026-04-04T11:08:14.271Z</time></trkpt><trkpt lat="43.2876802" lon="12.7308691"><ele>394.0</ele><time>2026-04-04T11:08:15.271Z</time></trkpt><trkpt lat="43.2878082" lon="12.7311924"><ele>395.0</ele><time>2026-04-04T11:08:16.272Z</time></trkpt><trkpt lat="43.2879373" lon="12.7315225"><ele>395.0</ele><time>2026-04-04T11:08:17.271Z</time></trkpt><trkpt lat="43.2880707" lon="12.7318563"><ele>395.0</ele><time>2026-04-04T11:08:18.276Z</time></trkpt><trkpt lat="43.2882021" lon="12.7321837"><ele>396.5</ele><time>2026-04-04T11:08:19.275Z</time></trkpt><trkpt lat="43.2883299" lon="12.7325026"><ele>398.0</ele><time>2026-04-04T11:08:20.275Z</time></trkpt><trkpt lat="43.2884587" lon="12.7328262"><ele>398.0</ele><time>2026-04-04T11:08:21.272Z</time></trkpt><trkpt lat="43.2885857" lon="12.7331514"><ele>398.0</ele><time>2026-04-04T11:08:22.282Z</time></trkpt><trkpt lat="43.2887169" lon="12.733474"><ele>398.0</ele><time>2026-04-04T11:08:23.271Z</time></trkpt><trkpt lat="43.288831" lon="12.7337762"><ele>398.0</ele><time>2026-04-04T11:08:24.297Z</time></trkpt><trkpt lat="43.2889437" lon="12.7340604"><ele>398.0</ele><time>2026-04-04T11:08:25.275Z</time></trkpt><trkpt lat="43.2890554" lon="12.7343398"><ele>398.0</ele><time>2026-04-04T11:08:26.276Z</time></trkpt><trkpt lat="43.2891771" lon="12.7346342"><ele>398.5</ele><time>2026-04-04T11:08:27.274Z</time></trkpt><trkpt lat="43.2892909" lon="12.7349271"><ele>399.0</ele><time>2026-04-04T11:08:28.276Z</time></trkpt><trkpt lat="43.2894109" lon="12.7352204"><ele>398.5</ele><time>2026-04-04T11:08:29.275Z</time></trkpt><trkpt lat="43.2895385" lon="12.7355035"><ele>398.0</ele><time>2026-04-04T11:08:30.275Z</time></trkpt><trkpt lat="43.2896742" lon="12.7357705"><ele>398.5</ele><time>2026-04-04T11:08:31.275Z</time></trkpt><trkpt lat="43.2898208" lon="12.736038"><ele>399.0</ele><time>2026-04-04T11:08:32.273Z</time></trkpt><trkpt lat="43.2899743" lon="12.7363061"><ele>400.5</ele><time>2026-04-04T11:08:33.275Z</time></trkpt><trkpt lat="43.2901439" lon="12.7365619"><ele>402.0</ele><time>2026-04-04T11:08:34.275Z</time></trkpt><trkpt lat="43.2903148" lon="12.7368068"><ele>404.0</ele><time>2026-04-04T11:08:35.273Z</time></trkpt><trkpt lat="43.2904864" lon="12.7370375"><ele>406.0</ele><time>2026-04-04T11:08:36.271Z</time></trkpt><trkpt lat="43.2906526" lon="12.7372443"><ele>406.0</ele><time>2026-04-04T11:08:37.272Z</time></trkpt><trkpt lat="43.2908159" lon="12.7374253"><ele>406.0</ele><time>2026-04-04T11:08:38.271Z</time></trkpt><trkpt lat="43.2909826" lon="12.7376061"><ele>406.0</ele><time>2026-04-04T11:08:39.274Z</time></trkpt><trkpt lat="43.2911613" lon="12.7377946"><ele>407.5</ele><time>2026-04-04T11:08:40.276Z</time></trkpt><trkpt lat="43.2913437" lon="12.7379853"><ele>409.0</ele><time>2026-04-04T11:08:41.273Z</time></trkpt><trkpt lat="43.2915301" lon="12.7381695"><ele>410.5</ele><time>2026-04-04T11:08:42.272Z</time></trkpt><trkpt lat="43.291726" lon="12.7383509"><ele>412.0</ele><time>2026-04-04T11:08:43.272Z</time></trkpt><trkpt lat="43.2919278" lon="12.738537"><ele>413.0</ele><time>2026-04-04T11:08:44.271Z</time></trkpt><trkpt lat="43.2921246" lon="12.7387273"><ele>414.0</ele><time>2026-04-04T11:08:45.271Z</time></trkpt><trkpt lat="43.292324" lon="12.7389221"><ele>416.0</ele><time>2026-04-04T11:08:46.273Z</time></trkpt><trkpt lat="43.2925323" lon="12.7391335"><ele>418.0</ele><time>2026-04-04T11:08:47.271Z</time></trkpt><trkpt lat="43.2927483" lon="12.7393401"><ele>418.5</ele><time>2026-04-04T11:08:48.272Z</time></trkpt><trkpt lat="43.2929747" lon="12.7395528"><ele>419.0</ele><time>2026-04-04T11:08:49.277Z</time></trkpt><trkpt lat="43.2932098" lon="12.7397696"><ele>422.5</ele><time>2026-04-04T11:08:50.272Z</time></trkpt><trkpt lat="43.2934441" lon="12.7399943"><ele>426.0</ele><time>2026-04-04T11:08:51.273Z</time></trkpt><trkpt lat="43.2936723" lon="12.7402224"><ele>426.5</ele><time>2026-04-04T11:08:52.275Z</time></trkpt><trkpt lat="43.2939049" lon="12.7404467"><ele>427.0</ele><time>2026-04-04T11:08:53.269Z</time></trkpt><trkpt lat="43.2941386" lon="12.7406803"><ele>432.5</ele><time>2026-04-04T11:08:54.281Z</time></trkpt><trkpt lat="43.2943737" lon="12.7409128"><ele>438.0</ele><time>2026-04-04T11:08:55.263Z</time></trkpt><trkpt lat="43.294605" lon="12.7411455"><ele>438.5</ele><time>2026-04-04T11:08:56.259Z</time></trkpt><trkpt lat="43.2948214" lon="12.7413775"><ele>439.0</ele><time>2026-04-04T11:08:57.255Z</time></trkpt><trkpt lat="43.2950493" lon="12.7415613"><ele>439.0</ele><time>2026-04-04T11:08:58.255Z</time></trkpt><trkpt lat="43.2952689" lon="12.7417937"><ele>439.0</ele><time>2026-04-04T11:08:59.264Z</time></trkpt><trkpt lat="43.2954804" lon="12.7420376"><ele>438.5</ele><time>2026-04-04T11:09:00.267Z</time></trkpt><trkpt lat="43.2956783" lon="12.7422907"><ele>438.0</ele><time>2026-04-04T11:09:01.266Z</time></trkpt><trkpt lat="43.2958636" lon="12.7425565"><ele>440.0</ele><time>2026-04-04T11:09:02.267Z</time></trkpt><trkpt lat="43.2960454" lon="12.7428322"><ele>442.0</ele><time>2026-04-04T11:09:03.264Z</time></trkpt><trkpt lat="43.2962172" lon="12.7431327"><ele>442.0</ele><time>2026-04-04T11:09:04.267Z</time></trkpt><trkpt lat="43.2963898" lon="12.7434601"><ele>442.0</ele><time>2026-04-04T11:09:05.269Z</time></trkpt><trkpt lat="43.2965582" lon="12.7437997"><ele>441.5</ele><time>2026-04-04T11:09:06.272Z</time></trkpt><trkpt lat="43.2967193" lon="12.7441467"><ele>441.0</ele><time>2026-04-04T11:09:07.27Z</time></trkpt><trkpt lat="43.2968771" lon="12.7444886"><ele>444.0</ele><time>2026-04-04T11:09:08.272Z</time></trkpt><trkpt lat="43.297035" lon="12.7448329"><ele>447.0</ele><time>2026-04-04T11:09:09.271Z</time></trkpt><trkpt lat="43.2971914" lon="12.7451826"><ele>447.0</ele><time>2026-04-04T11:09:10.272Z</time></trkpt><trkpt lat="43.2973429" lon="12.7455193"><ele>447.0</ele><time>2026-04-04T11:09:11.275Z</time></trkpt><trkpt lat="43.2974889" lon="12.7458581"><ele>451.5</ele><time>2026-04-04T11:09:12.303Z</time></trkpt><trkpt lat="43.2976346" lon="12.74619"><ele>456.0</ele><time>2026-04-04T11:09:13.274Z</time></trkpt><trkpt lat="43.2977794" lon="12.7465158"><ele>456.0</ele><time>2026-04-04T11:09:14.276Z</time></trkpt><trkpt lat="43.2979257" lon="12.7468418"><ele>456.0</ele><time>2026-04-04T11:09:15.277Z</time></trkpt><trkpt lat="43.298078" lon="12.7471634"><ele>456.5</ele><time>2026-04-04T11:09:16.274Z</time></trkpt><trkpt lat="43.2982291" lon="12.7474805"><ele>457.0</ele><time>2026-04-04T11:09:17.295Z</time></trkpt><trkpt lat="43.2983806" lon="12.7477954"><ele>458.5</ele><time>2026-04-04T11:09:18.274Z</time></trkpt><trkpt lat="43.2985294" lon="12.7481048"><ele>460.0</ele><time>2026-04-04T11:09:19.273Z</time></trkpt><trkpt lat="43.2986742" lon="12.7484164"><ele>459.0</ele><time>2026-04-04T11:09:20.274Z</time></trkpt><trkpt lat="43.29882" lon="12.7487257"><ele>458.0</ele><time>2026-04-04T11:09:21.275Z</time></trkpt><trkpt lat="43.2989624" lon="12.7490284"><ele>458.0</ele><time>2026-04-04T11:09:22.276Z</time></trkpt><trkpt lat="43.2990917" lon="12.7493121"><ele>458.0</ele><time>2026-04-04T11:09:23.274Z</time></trkpt><trkpt lat="43.2992149" lon="12.7495809"><ele>461.0</ele><time>2026-04-04T11:09:24.274Z</time></trkpt><trkpt lat="43.2993354" lon="12.749854"><ele>464.0</ele><time>2026-04-04T11:09:25.285Z</time></trkpt><trkpt lat="43.2994633" lon="12.7501392"><ele>467.0</ele><time>2026-04-04T11:09:26.272Z</time></trkpt><trkpt lat="43.2995818" lon="12.7504384"><ele>470.0</ele><time>2026-04-04T11:09:27.271Z</time></trkpt><trkpt lat="43.2996934" lon="12.7507429"><ele>465.0</ele><time>2026-04-04T11:09:28.272Z</time></trkpt><trkpt lat="43.2997943" lon="12.7510609"><ele>460.0</ele><time>2026-04-04T11:09:29.269Z</time></trkpt><trkpt lat="43.2998815" lon="12.7513879"><ele>460.0</ele><time>2026-04-04T11:09:30.293Z</time></trkpt><trkpt lat="43.2999561" lon="12.7517273"><ele>460.0</ele><time>2026-04-04T11:09:31.267Z</time></trkpt><trkpt lat="43.3000152" lon="12.7520768"><ele>462.0</ele><time>2026-04-04T11:09:32.272Z</time></trkpt><trkpt lat="43.3000665" lon="12.7524304"><ele>464.0</ele><time>2026-04-04T11:09:33.268Z</time></trkpt><trkpt lat="43.3001105" lon="12.752767"><ele>465.0</ele><time>2026-04-04T11:09:34.269Z</time></trkpt><trkpt lat="43.300133" lon="12.7531208"><ele>466.0</ele><time>2026-04-04T11:09:35.267Z</time></trkpt><trkpt lat="43.3001553" lon="12.7534771"><ele>469.0</ele><time>2026-04-04T11:09:36.266Z</time></trkpt><trkpt lat="43.3001703" lon="12.7538343"><ele>472.0</ele><time>2026-04-04T11:09:37.274Z</time></trkpt><trkpt lat="43.3001648" lon="12.7541848"><ele>472.0</ele><time>2026-04-04T11:09:38.265Z</time></trkpt><trkpt lat="43.300157" lon="12.7545323"><ele>472.0</ele><time>2026-04-04T11:09:39.265Z</time></trkpt><trkpt lat="43.3001505" lon="12.7548854"><ele>469.0</ele><time>2026-04-04T11:09:40.266Z</time></trkpt><trkpt lat="43.3001423" lon="12.7552466"><ele>466.0</ele><time>2026-04-04T11:09:41.267Z</time></trkpt><trkpt lat="43.3001329" lon="12.7556212"><ele>466.0</ele><time>2026-04-04T11:09:42.268Z</time></trkpt><trkpt lat="43.3001249" lon="12.7559961"><ele>466.0</ele><time>2026-04-04T11:09:43.274Z</time></trkpt><trkpt lat="43.3001262" lon="12.7563704"><ele>465.0</ele><time>2026-04-04T11:09:44.27Z</time></trkpt><trkpt lat="43.3001369" lon="12.7567548"><ele>464.0</ele><time>2026-04-04T11:09:45.267Z</time></trkpt><trkpt lat="43.3001587" lon="12.7571447"><ele>462.0</ele><time>2026-04-04T11:09:46.271Z</time></trkpt><trkpt lat="43.3001759" lon="12.7575229"><ele>460.0</ele><time>2026-04-04T11:09:47.266Z</time></trkpt><trkpt lat="43.3001942" lon="12.7578842"><ele>459.5</ele><time>2026-04-04T11:09:48.273Z</time></trkpt><trkpt lat="43.3002078" lon="12.75824"><ele>459.0</ele><time>2026-04-04T11:09:49.268Z</time></trkpt><trkpt lat="43.3002206" lon="12.7585928"><ele>463.5</ele><time>2026-04-04T11:09:50.27Z</time></trkpt><trkpt lat="43.3002384" lon="12.7589451"><ele>468.0</ele><time>2026-04-04T11:09:51.268Z</time></trkpt><trkpt lat="43.3002561" lon="12.7592973"><ele>474.0</ele><time>2026-04-04T11:09:52.27Z</time></trkpt><trkpt lat="43.3002732" lon="12.7596596"><ele>480.0</ele><time>2026-04-04T11:09:53.295Z</time></trkpt><trkpt lat="43.3002878" lon="12.7600188"><ele>483.0</ele><time>2026-04-04T11:09:54.266Z</time></trkpt><trkpt lat="43.3003017" lon="12.7603794"><ele>486.0</ele><time>2026-04-04T11:09:55.267Z</time></trkpt><trkpt lat="43.3003246" lon="12.7607425"><ele>487.0</ele><time>2026-04-04T11:09:56.261Z</time></trkpt><trkpt lat="43.3003567" lon="12.761107"><ele>488.0</ele><time>2026-04-04T11:09:57.263Z</time></trkpt><trkpt lat="43.3003825" lon="12.7614709"><ele>488.0</ele><time>2026-04-04T11:09:58.269Z</time></trkpt><trkpt lat="43.3004045" lon="12.7618285"><ele>488.0</ele><time>2026-04-04T11:09:59.259Z</time></trkpt><trkpt lat="43.300417" lon="12.7621882"><ele>487.5</ele><time>2026-04-04T11:10:00.264Z</time></trkpt><trkpt lat="43.3004205" lon="12.7625446"><ele>487.0</ele><time>2026-04-04T11:10:01.262Z</time></trkpt><trkpt lat="43.3004264" lon="12.7629007"><ele>486.5</ele><time>2026-04-04T11:10:02.26Z</time></trkpt><trkpt lat="43.3004309" lon="12.7632507"><ele>486.0</ele><time>2026-04-04T11:10:03.265Z</time></trkpt><trkpt lat="43.3004461" lon="12.7635961"><ele>485.5</ele><time>2026-04-04T11:10:04.263Z</time></trkpt><trkpt lat="43.3004688" lon="12.76394"><ele>485.0</ele><time>2026-04-04T11:10:05.267Z</time></trkpt><trkpt lat="43.3004935" lon="12.7642675"><ele>488.0</ele><time>2026-04-04T11:10:06.264Z</time></trkpt><trkpt lat="43.3005208" lon="12.7645799"><ele>491.0</ele><time>2026-04-04T11:10:07.264Z</time></trkpt><trkpt lat="43.300558" lon="12.7648976"><ele>493.5</ele><time>2026-04-04T11:10:08.263Z</time></trkpt><trkpt lat="43.3006095" lon="12.7652075"><ele>496.0</ele><time>2026-04-04T11:10:09.263Z</time></trkpt><trkpt lat="43.3006829" lon="12.7655119"><ele>496.0</ele><time>2026-04-04T11:10:10.261Z</time></trkpt><trkpt lat="43.3007792" lon="12.7658087"><ele>496.0</ele><time>2026-04-04T11:10:11.26Z</time></trkpt><trkpt lat="43.3009045" lon="12.766092"><ele>493.0</ele><time>2026-04-04T11:10:12.258Z</time></trkpt><trkpt lat="43.3010544" lon="12.7663629"><ele>490.0</ele><time>2026-04-04T11:10:13.258Z</time></trkpt><trkpt lat="43.3012217" lon="12.76662"><ele>488.5</ele><time>2026-04-04T11:10:14.259Z</time></trkpt><trkpt lat="43.3014047" lon="12.7668768"><ele>487.0</ele><time>2026-04-04T11:10:15.261Z</time></trkpt><trkpt lat="43.3015893" lon="12.7671324"><ele>487.0</ele><time>2026-04-04T11:10:16.261Z</time></trkpt><trkpt lat="43.3017717" lon="12.7674063"><ele>487.0</ele><time>2026-04-04T11:10:17.255Z</time></trkpt><trkpt lat="43.3019424" lon="12.7676819"><ele>488.0</ele><time>2026-04-04T11:10:18.259Z</time></trkpt><trkpt lat="43.3020939" lon="12.7679606"><ele>489.0</ele><time>2026-04-04T11:10:19.26Z</time></trkpt><trkpt lat="43.3022345" lon="12.7682642"><ele>493.5</ele><time>2026-04-04T11:10:20.258Z</time></trkpt><trkpt lat="43.3023707" lon="12.7685881"><ele>498.0</ele><time>2026-04-04T11:10:21.256Z</time></trkpt><trkpt lat="43.3024832" lon="12.7689272"><ele>498.0</ele><time>2026-04-04T11:10:22.261Z</time></trkpt><trkpt lat="43.3025824" lon="12.7692685"><ele>498.0</ele><time>2026-04-04T11:10:23.258Z</time></trkpt><trkpt lat="43.3026484" lon="12.7696303"><ele>498.0</ele><time>2026-04-04T11:10:24.257Z</time></trkpt><trkpt lat="43.3026847" lon="12.7700241"><ele>498.0</ele><time>2026-04-04T11:10:25.257Z</time></trkpt><trkpt lat="43.3027147" lon="12.7704271"><ele>498.5</ele><time>2026-04-04T11:10:26.261Z</time></trkpt><trkpt lat="43.3027383" lon="12.7708272"><ele>499.0</ele><time>2026-04-04T11:10:27.258Z</time></trkpt><trkpt lat="43.3027641" lon="12.7712151"><ele>499.0</ele><time>2026-04-04T11:10:28.258Z</time></trkpt><trkpt lat="43.3028032" lon="12.7715954"><ele>499.0</ele><time>2026-04-04T11:10:29.257Z</time></trkpt><trkpt lat="43.3028426" lon="12.7719557"><ele>501.0</ele><time>2026-04-04T11:10:30.258Z</time></trkpt><trkpt lat="43.3028706" lon="12.7723141"><ele>503.0</ele><time>2026-04-04T11:10:31.255Z</time></trkpt><trkpt lat="43.302885" lon="12.772688"><ele>505.5</ele><time>2026-04-04T11:10:32.253Z</time></trkpt><trkpt lat="43.3028681" lon="12.7730699"><ele>508.0</ele><time>2026-04-04T11:10:33.253Z</time></trkpt><trkpt lat="43.3028258" lon="12.7734611"><ele>513.0</ele><time>2026-04-04T11:10:34.253Z</time></trkpt><trkpt lat="43.30276" lon="12.773848"><ele>518.0</ele><time>2026-04-04T11:10:35.254Z</time></trkpt><trkpt lat="43.3026782" lon="12.7742308"><ele>520.5</ele><time>2026-04-04T11:10:36.251Z</time></trkpt><trkpt lat="43.3025863" lon="12.7746103"><ele>523.0</ele><time>2026-04-04T11:10:37.251Z</time></trkpt><trkpt lat="43.3024794" lon="12.774978"><ele>524.5</ele><time>2026-04-04T11:10:38.249Z</time></trkpt><trkpt lat="43.3023808" lon="12.7753393"><ele>526.0</ele><time>2026-04-04T11:10:39.252Z</time></trkpt><trkpt lat="43.3022933" lon="12.7756815"><ele>526.0</ele><time>2026-04-04T11:10:40.252Z</time></trkpt><trkpt lat="43.3022059" lon="12.7760131"><ele>526.0</ele><time>2026-04-04T11:10:41.251Z</time></trkpt><trkpt lat="43.30212" lon="12.776349"><ele>526.0</ele><time>2026-04-04T11:10:42.252Z</time></trkpt><trkpt lat="43.3020365" lon="12.7766823"><ele>526.0</ele><time>2026-04-04T11:10:43.25Z</time></trkpt><trkpt lat="43.301978" lon="12.7770204"><ele>526.0</ele><time>2026-04-04T11:10:44.249Z</time></trkpt><trkpt lat="43.301935" lon="12.7773749"><ele>526.0</ele><time>2026-04-04T11:10:45.25Z</time></trkpt><trkpt lat="43.3019115" lon="12.7777347"><ele>528.5</ele><time>2026-04-04T11:10:46.252Z</time></trkpt><trkpt lat="43.3018864" lon="12.77809"><ele>531.0</ele><time>2026-04-04T11:10:47.254Z</time></trkpt><trkpt lat="43.3018667" lon="12.7784421"><ele>534.5</ele><time>2026-04-04T11:10:48.252Z</time></trkpt><trkpt lat="43.3018473" lon="12.7787965"><ele>538.0</ele><time>2026-04-04T11:10:49.247Z</time></trkpt><trkpt lat="43.3018311" lon="12.7791522"><ele>538.0</ele><time>2026-04-04T11:10:50.242Z</time></trkpt><trkpt lat="43.3018121" lon="12.779505"><ele>538.0</ele><time>2026-04-04T11:10:51.228Z</time></trkpt><trkpt lat="43.3018849" lon="12.7797841"><ele>546.0</ele><time>2026-04-04T11:10:52.242Z</time></trkpt><trkpt lat="43.301986" lon="12.7801845"><ele>554.0</ele><time>2026-04-04T11:10:53.257Z</time></trkpt><trkpt lat="43.3020418" lon="12.7805698"><ele>554.0</ele><time>2026-04-04T11:10:54.239Z</time></trkpt><trkpt lat="43.3020975" lon="12.7809546"><ele>554.0</ele><time>2026-04-04T11:10:55.239Z</time></trkpt><trkpt lat="43.3021573" lon="12.7813434"><ele>561.0</ele><time>2026-04-04T11:10:56.237Z</time></trkpt><trkpt lat="43.3022118" lon="12.7817284"><ele>568.0</ele><time>2026-04-04T11:10:57.236Z</time></trkpt><trkpt lat="43.3014751" lon="12.7885937"><ele>615.0</ele><time>2026-04-04T11:11:16.258Z</time></trkpt><trkpt lat="43.2999338" lon="12.7938999"><ele>604.5</ele><time>2026-04-04T11:11:36.256Z</time></trkpt><trkpt lat="43.2997079" lon="12.7942614"><ele>594.0</ele><time>2026-04-04T11:11:37.266Z</time></trkpt><trkpt lat="43.2996142" lon="12.7945831"><ele>593.3333333333334</ele><time>2026-04-04T11:11:38.263Z</time></trkpt><trkpt lat="43.2995858" lon="12.7949585"><ele>592.6666666666667</ele><time>2026-04-04T11:11:39.266Z</time></trkpt><trkpt lat="43.2995499" lon="12.7951743"><ele>592.0</ele><time>2026-04-04T11:11:40.267Z</time></trkpt><trkpt lat="43.2995483" lon="12.7954481"><ele>598.6666666666667</ele><time>2026-04-04T11:11:41.272Z</time></trkpt><trkpt lat="43.2995314" lon="12.7957329"><ele>605.3333333333334</ele><time>2026-04-04T11:11:42.263Z</time></trkpt><trkpt lat="43.2995213" lon="12.7960199"><ele>612.0</ele><time>2026-04-04T11:11:43.285Z</time></trkpt><trkpt lat="43.2994565" lon="12.7963381"><ele>623.6666666666666</ele><time>2026-04-04T11:11:44.262Z</time></trkpt><trkpt lat="43.2994157" lon="12.796629"><ele>635.3333333333333</ele><time>2026-04-04T11:11:45.251Z</time></trkpt><trkpt lat="43.2994023" lon="12.7969123"><ele>647.0</ele><time>2026-04-04T11:11:46.233Z</time></trkpt><trkpt lat="43.2993889" lon="12.7971957"><ele>572.0</ele><time>2026-04-04T11:11:47.218Z</time></trkpt><trkpt lat="43.2991307" lon="12.806946"><ele>572.0</ele><time>2026-04-04T11:12:15.254Z</time></trkpt><trkpt lat="43.2991044" lon="12.8072239"><ele>572.0</ele><time>2026-04-04T11:12:16.258Z</time></trkpt><trkpt lat="43.2991081" lon="12.8075473"><ele>572.0</ele><time>2026-04-04T11:12:17.257Z</time></trkpt><trkpt lat="43.2991138" lon="12.8079004"><ele>571.5</ele><time>2026-04-04T11:12:18.262Z</time></trkpt><trkpt lat="43.299124" lon="12.8082454"><ele>571.0</ele><time>2026-04-04T11:12:19.261Z</time></trkpt><trkpt lat="43.2991437" lon="12.8085746"><ele>574.0</ele><time>2026-04-04T11:12:20.267Z</time></trkpt><trkpt lat="43.2991718" lon="12.8089055"><ele>577.0</ele><time>2026-04-04T11:12:21.26Z</time></trkpt><trkpt lat="43.2991971" lon="12.8092254"><ele>591.5</ele><time>2026-04-04T11:12:22.268Z</time></trkpt><trkpt lat="43.2992264" lon="12.8095461"><ele>606.0</ele><time>2026-04-04T11:12:23.259Z</time></trkpt><trkpt lat="43.2992458" lon="12.8098665"><ele>620.0</ele><time>2026-04-04T11:12:24.257Z</time></trkpt><trkpt lat="43.2992644" lon="12.8101883"><ele>634.0</ele><time>2026-04-04T11:12:25.258Z</time></trkpt><trkpt lat="43.2992837" lon="12.8105113"><ele>634.0</ele><time>2026-04-04T11:12:26.253Z</time></trkpt><trkpt lat="43.2993025" lon="12.810835"><ele>634.0</ele><time>2026-04-04T11:12:27.252Z</time></trkpt><trkpt lat="43.2993217" lon="12.8111583"><ele>633.5</ele><time>2026-04-04T11:12:28.237Z</time></trkpt><trkpt lat="43.2993409" lon="12.8114815"><ele>633.0</ele><time>2026-04-04T11:12:29.218Z</time></trkpt><trkpt lat="43.3030117" lon="12.8230342"><ele>570.5</ele><time>2026-04-04T11:13:01.802Z</time></trkpt><trkpt lat="43.3031616" lon="12.8231822"><ele>508.0</ele><time>2026-04-04T11:13:06.273Z</time></trkpt><trkpt lat="43.3033571" lon="12.8234835"><ele>504.5</ele><time>2026-04-04T11:13:07.264Z</time></trkpt><trkpt lat="43.3034257" lon="12.823862"><ele>501.0</ele><time>2026-04-04T11:13:08.259Z</time></trkpt><trkpt lat="43.3034854" lon="12.8241971"><ele>495.0</ele><time>2026-04-04T11:13:09.265Z</time></trkpt><trkpt lat="43.3035271" lon="12.8245367"><ele>489.0</ele><time>2026-04-04T11:13:10.269Z</time></trkpt><trkpt lat="43.3035509" lon="12.8248653"><ele>490.0</ele><time>2026-04-04T11:13:11.266Z</time></trkpt><trkpt lat="43.3035664" lon="12.8251832"><ele>491.0</ele><time>2026-04-04T11:13:12.269Z</time></trkpt><trkpt lat="43.3035887" lon="12.8255027"><ele>491.0</ele><time>2026-04-04T11:13:13.275Z</time></trkpt><trkpt lat="43.3035874" lon="12.825824"><ele>491.0</ele><time>2026-04-04T11:13:14.27Z</time></trkpt><trkpt lat="43.3035873" lon="12.8261497"><ele>493.5</ele><time>2026-04-04T11:13:15.264Z</time></trkpt><trkpt lat="43.3035764" lon="12.8264791"><ele>496.0</ele><time>2026-04-04T11:13:16.27Z</time></trkpt><trkpt lat="43.3035569" lon="12.8268072"><ele>501.5</ele><time>2026-04-04T11:13:17.251Z</time></trkpt><trkpt lat="43.3035311" lon="12.8271367"><ele>507.0</ele><time>2026-04-04T11:13:18.272Z</time></trkpt><trkpt lat="43.3035044" lon="12.8274701"><ele>517.5</ele><time>2026-04-04T11:13:19.259Z</time></trkpt><trkpt lat="43.3034759" lon="12.8278043"><ele>528.0</ele><time>2026-04-04T11:13:20.25Z</time></trkpt><trkpt lat="43.3034379" lon="12.8281482"><ele>521.0</ele><time>2026-04-04T11:13:21.245Z</time></trkpt><trkpt lat="43.3034126" lon="12.8284832"><ele>514.0</ele><time>2026-04-04T11:13:22.231Z</time></trkpt><trkpt lat="43.3033872" lon="12.8288183"><ele>468.0</ele><time>2026-04-04T11:13:23.217Z</time></trkpt><trkpt lat="43.3031147" lon="12.8318318"><ele>464.0</ele><time>2026-04-04T11:13:30.267Z</time></trkpt><trkpt lat="43.3030473" lon="12.8322034"><ele>460.0</ele><time>2026-04-04T11:13:31.266Z</time></trkpt><trkpt lat="43.3029663" lon="12.8325653"><ele>456.5</ele><time>2026-04-04T11:13:32.266Z</time></trkpt><trkpt lat="43.3029365" lon="12.8329395"><ele>453.0</ele><time>2026-04-04T11:13:33.264Z</time></trkpt><trkpt lat="43.3028955" lon="12.8332933"><ele>450.5</ele><time>2026-04-04T11:13:34.265Z</time></trkpt><trkpt lat="43.3028508" lon="12.8336538"><ele>448.0</ele><time>2026-04-04T11:13:35.267Z</time></trkpt><trkpt lat="43.3028114" lon="12.8340201"><ele>447.0</ele><time>2026-04-04T11:13:36.269Z</time></trkpt><trkpt lat="43.3027583" lon="12.8343808"><ele>446.0</ele><time>2026-04-04T11:13:37.269Z</time></trkpt><trkpt lat="43.3027171" lon="12.8347561"><ele>446.0</ele><time>2026-04-04T11:13:38.271Z</time></trkpt><trkpt lat="43.3026744" lon="12.8351246"><ele>446.0</ele><time>2026-04-04T11:13:39.269Z</time></trkpt><trkpt lat="43.3026346" lon="12.8354948"><ele>444.5</ele><time>2026-04-04T11:13:40.27Z</time></trkpt><trkpt lat="43.3026016" lon="12.835861"><ele>443.0</ele><time>2026-04-04T11:13:41.269Z</time></trkpt><trkpt lat="43.3025725" lon="12.8362175"><ele>441.0</ele><time>2026-04-04T11:13:42.268Z</time></trkpt><trkpt lat="43.3025456" lon="12.8365579"><ele>439.0</ele><time>2026-04-04T11:13:43.27Z</time></trkpt><trkpt lat="43.3025279" lon="12.836889"><ele>437.5</ele><time>2026-04-04T11:13:44.268Z</time></trkpt><trkpt lat="43.3025151" lon="12.8372175"><ele>436.0</ele><time>2026-04-04T11:13:45.27Z</time></trkpt><trkpt lat="43.3025145" lon="12.8375499"><ele>434.0</ele><time>2026-04-04T11:13:46.267Z</time></trkpt><trkpt lat="43.3025268" lon="12.8378797"><ele>432.0</ele><time>2026-04-04T11:13:47.264Z</time></trkpt><trkpt lat="43.3025694" lon="12.8382097"><ele>429.0</ele><time>2026-04-04T11:13:48.263Z</time></trkpt><trkpt lat="43.3026234" lon="12.8385487"><ele>426.0</ele><time>2026-04-04T11:13:49.266Z</time></trkpt><trkpt lat="43.3026986" lon="12.8388925"><ele>426.0</ele><time>2026-04-04T11:13:50.262Z</time></trkpt><trkpt lat="43.3027929" lon="12.8392243"><ele>426.0</ele><time>2026-04-04T11:13:51.26Z</time></trkpt><trkpt lat="43.3029027" lon="12.8395464"><ele>424.0</ele><time>2026-04-04T11:13:52.264Z</time></trkpt><trkpt lat="43.3030322" lon="12.8398555"><ele>422.0</ele><time>2026-04-04T11:13:53.26Z</time></trkpt><trkpt lat="43.3031788" lon="12.8401612"><ele>422.0</ele><time>2026-04-04T11:13:54.26Z</time></trkpt><trkpt lat="43.3033353" lon="12.840455"><ele>422.0</ele><time>2026-04-04T11:13:55.263Z</time></trkpt><trkpt lat="43.3035018" lon="12.8407296"><ele>416.0</ele><time>2026-04-04T11:13:56.262Z</time></trkpt><trkpt lat="43.3036829" lon="12.8409787"><ele>410.0</ele><time>2026-04-04T11:13:57.261Z</time></trkpt><trkpt lat="43.3038857" lon="12.8412112"><ele>415.5</ele><time>2026-04-04T11:13:58.261Z</time></trkpt><trkpt lat="43.3041008" lon="12.8414213"><ele>421.0</ele><time>2026-04-04T11:13:59.264Z</time></trkpt><trkpt lat="43.304325" lon="12.8416259"><ele>420.0</ele><time>2026-04-04T11:14:00.261Z</time></trkpt><trkpt lat="43.3045504" lon="12.8418409"><ele>419.0</ele><time>2026-04-04T11:14:01.26Z</time></trkpt><trkpt lat="43.30477" lon="12.8420713"><ele>419.0</ele><time>2026-04-04T11:14:02.258Z</time></trkpt><trkpt lat="43.3049642" lon="12.8423095"><ele>419.0</ele><time>2026-04-04T11:14:03.26Z</time></trkpt><trkpt lat="43.3051477" lon="12.8425567"><ele>411.0</ele><time>2026-04-04T11:14:04.26Z</time></trkpt><trkpt lat="43.3053287" lon="12.8428308"><ele>403.0</ele><time>2026-04-04T11:14:05.265Z</time></trkpt><trkpt lat="43.3055188" lon="12.8431021"><ele>403.0</ele><time>2026-04-04T11:14:06.26Z</time></trkpt><trkpt lat="43.3057128" lon="12.843369"><ele>403.0</ele><time>2026-04-04T11:14:07.265Z</time></trkpt><trkpt lat="43.3059171" lon="12.8436405"><ele>403.0</ele><time>2026-04-04T11:14:08.26Z</time></trkpt><trkpt lat="43.3061169" lon="12.8439073"><ele>403.0</ele><time>2026-04-04T11:14:09.264Z</time></trkpt><trkpt lat="43.3063142" lon="12.8441838"><ele>406.5</ele><time>2026-04-04T11:14:10.26Z</time></trkpt><trkpt lat="43.3065011" lon="12.8444567"><ele>410.0</ele><time>2026-04-04T11:14:11.262Z</time></trkpt><trkpt lat="43.3066771" lon="12.8447313"><ele>410.0</ele><time>2026-04-04T11:14:12.266Z</time></trkpt><trkpt lat="43.3068508" lon="12.8450123"><ele>410.0</ele><time>2026-04-04T11:14:13.262Z</time></trkpt><trkpt lat="43.3070258" lon="12.8452974"><ele>412.0</ele><time>2026-04-04T11:14:14.263Z</time></trkpt><trkpt lat="43.3071965" lon="12.8455871"><ele>414.0</ele><time>2026-04-04T11:14:15.266Z</time></trkpt><trkpt lat="43.3073651" lon="12.8458827"><ele>408.0</ele><time>2026-04-04T11:14:16.263Z</time></trkpt><trkpt lat="43.3075264" lon="12.8461853"><ele>402.0</ele><time>2026-04-04T11:14:17.26Z</time></trkpt><trkpt lat="43.3076886" lon="12.8464816"><ele>402.0</ele><time>2026-04-04T11:14:18.261Z</time></trkpt><trkpt lat="43.3078537" lon="12.8467703"><ele>402.0</ele><time>2026-04-04T11:14:19.262Z</time></trkpt><trkpt lat="43.3080196" lon="12.8470659"><ele>401.0</ele><time>2026-04-04T11:14:20.262Z</time></trkpt><trkpt lat="43.308186" lon="12.8473618"><ele>400.0</ele><time>2026-04-04T11:14:21.262Z</time></trkpt><trkpt lat="43.3083518" lon="12.8476637"><ele>400.0</ele><time>2026-04-04T11:14:22.266Z</time></trkpt><trkpt lat="43.3085114" lon="12.8479724"><ele>400.0</ele><time>2026-04-04T11:14:23.26Z</time></trkpt><trkpt lat="43.308655" lon="12.8482787"><ele>397.0</ele><time>2026-04-04T11:14:24.264Z</time></trkpt><trkpt lat="43.3087877" lon="12.8485838"><ele>394.0</ele><time>2026-04-04T11:14:25.261Z</time></trkpt><trkpt lat="43.3089052" lon="12.8488889"><ele>396.5</ele><time>2026-04-04T11:14:26.259Z</time></trkpt><trkpt lat="43.309013" lon="12.8491985"><ele>399.0</ele><time>2026-04-04T11:14:27.26Z</time></trkpt><trkpt lat="43.3091158" lon="12.8495194"><ele>399.0</ele><time>2026-04-04T11:14:28.259Z</time></trkpt><trkpt lat="43.3092137" lon="12.8498559"><ele>399.0</ele><time>2026-04-04T11:14:29.261Z</time></trkpt><trkpt lat="43.3093138" lon="12.8502078"><ele>396.0</ele><time>2026-04-04T11:14:30.265Z</time></trkpt><trkpt lat="43.3094031" lon="12.8505535"><ele>393.0</ele><time>2026-04-04T11:14:31.259Z</time></trkpt><trkpt lat="43.3094845" lon="12.8508916"><ele>392.0</ele><time>2026-04-04T11:14:32.255Z</time></trkpt><trkpt lat="43.3095616" lon="12.8512208"><ele>391.0</ele><time>2026-04-04T11:14:33.259Z</time></trkpt><trkpt lat="43.3096313" lon="12.8515321"><ele>390.5</ele><time>2026-04-04T11:14:34.256Z</time></trkpt><trkpt lat="43.3096919" lon="12.8518399"><ele>390.0</ele><time>2026-04-04T11:14:35.257Z</time></trkpt><trkpt lat="43.309748" lon="12.8521576"><ele>392.5</ele><time>2026-04-04T11:14:36.259Z</time></trkpt><trkpt lat="43.3098043" lon="12.8524795"><ele>395.0</ele><time>2026-04-04T11:14:37.258Z</time></trkpt><trkpt lat="43.3098602" lon="12.852803"><ele>395.0</ele><time>2026-04-04T11:14:38.26Z</time></trkpt><trkpt lat="43.3099211" lon="12.8531228"><ele>395.0</ele><time>2026-04-04T11:14:39.256Z</time></trkpt><trkpt lat="43.3099805" lon="12.8534387"><ele>393.5</ele><time>2026-04-04T11:14:40.258Z</time></trkpt><trkpt lat="43.3100392" lon="12.8537531"><ele>392.0</ele><time>2026-04-04T11:14:41.257Z</time></trkpt><trkpt lat="43.3100952" lon="12.85406"><ele>391.0</ele><time>2026-04-04T11:14:42.261Z</time></trkpt><trkpt lat="43.3101494" lon="12.8543502"><ele>390.0</ele><time>2026-04-04T11:14:43.262Z</time></trkpt><trkpt lat="43.3102045" lon="12.8546223"><ele>389.0</ele><time>2026-04-04T11:14:44.26Z</time></trkpt><trkpt lat="43.3102495" lon="12.8548773"><ele>389.0</ele><time>2026-04-04T11:14:45.259Z</time></trkpt><trkpt lat="43.3102919" lon="12.8551175"><ele>389.0</ele><time>2026-04-04T11:14:46.265Z</time></trkpt><trkpt lat="43.3103306" lon="12.8553518"><ele>389.0</ele><time>2026-04-04T11:14:47.264Z</time></trkpt><trkpt lat="43.3103735" lon="12.855577"><ele>389.3333333333333</ele><time>2026-04-04T11:14:48.265Z</time></trkpt><trkpt lat="43.3104139" lon="12.8557859"><ele>389.66666666666663</ele><time>2026-04-04T11:14:49.265Z</time></trkpt><trkpt lat="43.3104548" lon="12.8559758"><ele>390.0</ele><time>2026-04-04T11:14:50.266Z</time></trkpt><trkpt lat="43.310497" lon="12.8561747"><ele>389.0</ele><time>2026-04-04T11:14:51.262Z</time></trkpt><trkpt lat="43.3105213" lon="12.8563672"><ele>388.0</ele><time>2026-04-04T11:14:52.265Z</time></trkpt><trkpt lat="43.3105228" lon="12.8565728"><ele>387.0</ele><time>2026-04-04T11:14:53.265Z</time></trkpt><trkpt lat="43.3105148" lon="12.8567821"><ele>386.0</ele><time>2026-04-04T11:14:54.264Z</time></trkpt><trkpt lat="43.3104902" lon="12.8569885"><ele>386.0</ele><time>2026-04-04T11:14:55.264Z</time></trkpt><trkpt lat="43.3104419" lon="12.8571977"><ele>386.0</ele><time>2026-04-04T11:14:56.262Z</time></trkpt><trkpt lat="43.3103864" lon="12.8574105"><ele>386.0</ele><time>2026-04-04T11:14:57.266Z</time></trkpt><trkpt lat="43.3103339" lon="12.8576179"><ele>388.25</ele><time>2026-04-04T11:14:58.265Z</time></trkpt><trkpt lat="43.3102843" lon="12.8578196"><ele>390.5</ele><time>2026-04-04T11:14:59.264Z</time></trkpt><trkpt lat="43.3102312" lon="12.8580149"><ele>392.75</ele><time>2026-04-04T11:15:00.268Z</time></trkpt><trkpt lat="43.3101812" lon="12.8581985"><ele>395.0</ele><time>2026-04-04T11:15:01.264Z</time></trkpt><trkpt lat="43.3101406" lon="12.8583673"><ele>395.5</ele><time>2026-04-04T11:15:02.261Z</time></trkpt><trkpt lat="43.3101236" lon="12.858517"><ele>396.0</ele><time>2026-04-04T11:15:03.26Z</time></trkpt><trkpt lat="43.3101314" lon="12.8586763"><ele>396.5</ele><time>2026-04-04T11:15:04.259Z</time></trkpt><trkpt lat="43.3101654" lon="12.8588276"><ele>397.0</ele><time>2026-04-04T11:15:05.258Z</time></trkpt><trkpt lat="43.3102284" lon="12.8589764"><ele>397.0</ele><time>2026-04-04T11:15:06.253Z</time></trkpt><trkpt lat="43.3103066" lon="12.8591218"><ele>397.0</ele><time>2026-04-04T11:15:07.26Z</time></trkpt><trkpt lat="43.3104094" lon="12.8592418"><ele>397.0</ele><time>2026-04-04T11:15:08.258Z</time></trkpt><trkpt lat="43.3105358" lon="12.85933"><ele>397.0</ele><time>2026-04-04T11:15:09.262Z</time></trkpt><trkpt lat="43.3106767" lon="12.8593948"><ele>391.0</ele><time>2026-04-04T11:15:10.262Z</time></trkpt><trkpt lat="43.3108446" lon="12.8594318"><ele>385.0</ele><time>2026-04-04T11:15:11.258Z</time></trkpt><trkpt lat="43.3110326" lon="12.8594558"><ele>379.0</ele><time>2026-04-04T11:15:12.266Z</time></trkpt><trkpt lat="43.3112211" lon="12.8594778"><ele>379.0</ele><time>2026-04-04T11:15:13.264Z</time></trkpt><trkpt lat="43.3113903" lon="12.8594973"><ele>379.0</ele><time>2026-04-04T11:15:14.255Z</time></trkpt><trkpt lat="43.3115507" lon="12.8595336"><ele>379.0</ele><time>2026-04-04T11:15:15.257Z</time></trkpt><trkpt lat="43.3117305" lon="12.8595472"><ele>378.5</ele><time>2026-04-04T11:15:16.258Z</time></trkpt><trkpt lat="43.3118828" lon="12.8595795"><ele>378.0</ele><time>2026-04-04T11:15:17.264Z</time></trkpt><trkpt lat="43.3120242" lon="12.8596177"><ele>377.5</ele><time>2026-04-04T11:15:18.269Z</time></trkpt><trkpt lat="43.3121526" lon="12.8596576"><ele>377.0</ele><time>2026-04-04T11:15:19.269Z</time></trkpt><trkpt lat="43.3122683" lon="12.8596985"><ele>376.6666666666667</ele><time>2026-04-04T11:15:20.271Z</time></trkpt><trkpt lat="43.3123673" lon="12.8597344"><ele>376.33333333333337</ele><time>2026-04-04T11:15:21.267Z</time></trkpt><trkpt lat="43.3124572" lon="12.859767"><ele>376.0</ele><time>2026-04-04T11:15:22.267Z</time></trkpt><trkpt lat="43.3125294" lon="12.8598072"><ele>375.6666666666667</ele><time>2026-04-04T11:15:23.264Z</time></trkpt><trkpt lat="43.3125934" lon="12.8598602"><ele>375.3333333333333</ele><time>2026-04-04T11:15:24.266Z</time></trkpt><trkpt lat="43.3126374" lon="12.8599404"><ele>375.0</ele><time>2026-04-04T11:15:25.271Z</time></trkpt><trkpt lat="43.312682" lon="12.8600348"><ele>375.3333333333333</ele><time>2026-04-04T11:15:26.264Z</time></trkpt><trkpt lat="43.3127333" lon="12.8601355"><ele>375.6666666666667</ele><time>2026-04-04T11:15:27.268Z</time></trkpt><trkpt lat="43.3127962" lon="12.8602273"><ele>376.0</ele><time>2026-04-04T11:15:28.269Z</time></trkpt><trkpt lat="43.3128669" lon="12.8602917"><ele>376.33333333333337</ele><time>2026-04-04T11:15:29.272Z</time></trkpt><trkpt lat="43.312943" lon="12.8603134"><ele>376.6666666666667</ele><time>2026-04-04T11:15:30.266Z</time></trkpt><trkpt lat="43.3130252" lon="12.8602891"><ele>377.0</ele><time>2026-04-04T11:15:31.263Z</time></trkpt><trkpt lat="43.3130934" lon="12.8602128"><ele>377.0</ele><time>2026-04-04T11:15:32.26Z</time></trkpt><trkpt lat="43.3131322" lon="12.8601254"><ele>377.0</ele><time>2026-04-04T11:15:33.263Z</time></trkpt><trkpt lat="43.3131187" lon="12.8600328"><ele>377.0</ele><time>2026-04-04T11:15:34.265Z</time></trkpt><trkpt lat="43.3130754" lon="12.8599267"><ele>377.0</ele><time>2026-04-04T11:15:35.259Z</time></trkpt><trkpt lat="43.3130113" lon="12.8598158"><ele>377.0</ele><time>2026-04-04T11:15:36.261Z</time></trkpt><trkpt lat="43.3129306" lon="12.859706"><ele>377.0</ele><time>2026-04-04T11:15:37.263Z</time></trkpt><trkpt lat="43.3128363" lon="12.8595931"><ele>376.5</ele><time>2026-04-04T11:15:38.263Z</time></trkpt><trkpt lat="43.3127276" lon="12.8594828"><ele>376.0</ele><time>2026-04-04T11:15:39.262Z</time></trkpt><trkpt lat="43.3126064" lon="12.8593779"><ele>375.5</ele><time>2026-04-04T11:15:40.267Z</time></trkpt><trkpt lat="43.3124789" lon="12.8592783"><ele>375.0</ele><time>2026-04-04T11:15:41.265Z</time></trkpt><trkpt lat="43.312347" lon="12.8591713"><ele>375.3333333333333</ele><time>2026-04-04T11:15:42.267Z</time></trkpt><trkpt lat="43.3122125" lon="12.8590512"><ele>375.66666666666663</ele><time>2026-04-04T11:15:43.267Z</time></trkpt><trkpt lat="43.312073" lon="12.8589138"><ele>376.0</ele><time>2026-04-04T11:15:44.267Z</time></trkpt><trkpt lat="43.3119315" lon="12.8587694"><ele>376.0</ele><time>2026-04-04T11:15:45.266Z</time></trkpt><trkpt lat="43.3117991" lon="12.8586172"><ele>376.0</ele><time>2026-04-04T11:15:46.266Z</time></trkpt><trkpt lat="43.3116633" lon="12.858453"><ele>376.0</ele><time>2026-04-04T11:15:47.267Z</time></trkpt><trkpt lat="43.3115274" lon="12.8582866"><ele>377.0</ele><time>2026-04-04T11:15:48.268Z</time></trkpt><trkpt lat="43.3113924" lon="12.8581287"><ele>378.0</ele><time>2026-04-04T11:15:49.267Z</time></trkpt><trkpt lat="43.3112541" lon="12.857974"><ele>379.0</ele><time>2026-04-04T11:15:50.268Z</time></trkpt><trkpt lat="43.3111106" lon="12.85782"><ele>379.0</ele><time>2026-04-04T11:15:51.268Z</time></trkpt><trkpt lat="43.3109762" lon="12.8576768"><ele>379.0</ele><time>2026-04-04T11:15:52.27Z</time></trkpt><trkpt lat="43.3108483" lon="12.857552"><ele>379.0</ele><time>2026-04-04T11:15:53.265Z</time></trkpt><trkpt lat="43.3107237" lon="12.8574216"><ele>379.75</ele><time>2026-04-04T11:15:54.261Z</time></trkpt><trkpt lat="43.3105905" lon="12.8572981"><ele>380.5</ele><time>2026-04-04T11:15:55.263Z</time></trkpt><trkpt lat="43.3104984" lon="12.8571691"><ele>381.25</ele><time>2026-04-04T11:15:56.259Z</time></trkpt><trkpt lat="43.3104172" lon="12.8570432"><ele>382.0</ele><time>2026-04-04T11:15:57.261Z</time></trkpt><trkpt lat="43.3103504" lon="12.8569058"><ele>382.75</ele><time>2026-04-04T11:15:58.26Z</time></trkpt><trkpt lat="43.3102849" lon="12.8567657"><ele>383.5</ele><time>2026-04-04T11:15:59.258Z</time></trkpt><trkpt lat="43.3102593" lon="12.8566211"><ele>384.25</ele><time>2026-04-04T11:16:00.262Z</time></trkpt><trkpt lat="43.3102473" lon="12.8564592"><ele>385.0</ele><time>2026-04-04T11:16:01.262Z</time></trkpt><trkpt lat="43.31026" lon="12.8562788"><ele>385.0</ele><time>2026-04-04T11:16:02.26Z</time></trkpt><trkpt lat="43.3102799" lon="12.8560851"><ele>385.0</ele><time>2026-04-04T11:16:03.274Z</time></trkpt><trkpt lat="43.3102971" lon="12.8558809"><ele>385.0</ele><time>2026-04-04T11:16:04.265Z</time></trkpt><trkpt lat="43.3102843" lon="12.8556716"><ele>385.0</ele><time>2026-04-04T11:16:05.263Z</time></trkpt><trkpt lat="43.3102519" lon="12.8554563"><ele>386.33333333333337</ele><time>2026-04-04T11:16:06.265Z</time></trkpt><trkpt lat="43.3102138" lon="12.8552043"><ele>387.66666666666663</ele><time>2026-04-04T11:16:07.261Z</time></trkpt><trkpt lat="43.3101583" lon="12.854922"><ele>389.0</ele><time>2026-04-04T11:16:08.275Z</time></trkpt><trkpt lat="43.3100882" lon="12.8546259"><ele>389.0</ele><time>2026-04-04T11:16:09.269Z</time></trkpt><trkpt lat="43.3100207" lon="12.8543202"><ele>389.0</ele><time>2026-04-04T11:16:10.27Z</time></trkpt><trkpt lat="43.3099523" lon="12.8540016"><ele>390.5</ele><time>2026-04-04T11:16:11.274Z</time></trkpt><trkpt lat="43.3098851" lon="12.8536873"><ele>392.0</ele><time>2026-04-04T11:16:12.265Z</time></trkpt><trkpt lat="43.3098277" lon="12.8533942"><ele>391.66666666666663</ele><time>2026-04-04T11:16:13.279Z</time></trkpt><trkpt lat="43.3097736" lon="12.8531046"><ele>391.33333333333337</ele><time>2026-04-04T11:16:14.269Z</time></trkpt><trkpt lat="43.3097202" lon="12.8528157"><ele>391.0</ele><time>2026-04-04T11:16:15.269Z</time></trkpt><trkpt lat="43.3096621" lon="12.8525278"><ele>391.0</ele><time>2026-04-04T11:16:16.27Z</time></trkpt><trkpt lat="43.3095988" lon="12.8522376"><ele>391.0</ele><time>2026-04-04T11:16:17.266Z</time></trkpt><trkpt lat="43.3095395" lon="12.8519477"><ele>391.0</ele><time>2026-04-04T11:16:18.266Z</time></trkpt><trkpt lat="43.309478" lon="12.8516498"><ele>391.0</ele><time>2026-04-04T11:16:19.263Z</time></trkpt><trkpt lat="43.309413" lon="12.8513481"><ele>391.0</ele><time>2026-04-04T11:16:20.261Z</time></trkpt><trkpt lat="43.3093577" lon="12.8510504"><ele>391.6666666666667</ele><time>2026-04-04T11:16:21.263Z</time></trkpt><trkpt lat="43.3093004" lon="12.8507635"><ele>392.33333333333337</ele><time>2026-04-04T11:16:22.267Z</time></trkpt><trkpt lat="43.3092375" lon="12.8504847"><ele>393.0</ele><time>2026-04-04T11:16:23.263Z</time></trkpt><trkpt lat="43.309167" lon="12.8502172"><ele>395.0</ele><time>2026-04-04T11:16:24.267Z</time></trkpt><trkpt lat="43.3090907" lon="12.8499419"><ele>397.0</ele><time>2026-04-04T11:16:25.271Z</time></trkpt><trkpt lat="43.3090137" lon="12.849674"><ele>399.0</ele><time>2026-04-04T11:16:26.272Z</time></trkpt><trkpt lat="43.3089423" lon="12.8494227"><ele>397.33333333333337</ele><time>2026-04-04T11:16:27.274Z</time></trkpt><trkpt lat="43.308868" lon="12.8491833"><ele>395.6666666666667</ele><time>2026-04-04T11:16:28.267Z</time></trkpt><trkpt lat="43.3087767" lon="12.8489514"><ele>394.0</ele><time>2026-04-04T11:16:29.266Z</time></trkpt><trkpt lat="43.3086789" lon="12.8487192"><ele>394.0</ele><time>2026-04-04T11:16:30.27Z</time></trkpt><trkpt lat="43.3085776" lon="12.8484868"><ele>394.0</ele><time>2026-04-04T11:16:31.268Z</time></trkpt><trkpt lat="43.3084652" lon="12.848255"><ele>394.0</ele><time>2026-04-04T11:16:32.269Z</time></trkpt><trkpt lat="43.3083494" lon="12.8480216"><ele>395.0</ele><time>2026-04-04T11:16:33.265Z</time></trkpt><trkpt lat="43.3082074" lon="12.8477919"><ele>396.0</ele><time>2026-04-04T11:16:34.264Z</time></trkpt><trkpt lat="43.3080619" lon="12.8475587"><ele>397.0</ele><time>2026-04-04T11:16:35.265Z</time></trkpt><trkpt lat="43.3079176" lon="12.8473406"><ele>397.0</ele><time>2026-04-04T11:16:36.265Z</time></trkpt><trkpt lat="43.3077752" lon="12.8471331"><ele>397.0</ele><time>2026-04-04T11:16:37.266Z</time></trkpt><trkpt lat="43.307643" lon="12.8469394"><ele>397.0</ele><time>2026-04-04T11:16:38.263Z</time></trkpt><trkpt lat="43.3075192" lon="12.8467363"><ele>398.6666666666667</ele><time>2026-04-04T11:16:39.266Z</time></trkpt><trkpt lat="43.3073953" lon="12.8465352"><ele>400.33333333333337</ele><time>2026-04-04T11:16:40.266Z</time></trkpt><trkpt lat="43.3072755" lon="12.8463078"><ele>402.0</ele><time>2026-04-04T11:16:41.263Z</time></trkpt><trkpt lat="43.3071549" lon="12.846077"><ele>401.66666666666663</ele><time>2026-04-04T11:16:42.265Z</time></trkpt><trkpt lat="43.3070398" lon="12.8458677"><ele>401.3333333333333</ele><time>2026-04-04T11:16:43.267Z</time></trkpt><trkpt lat="43.3069281" lon="12.8456662"><ele>401.0</ele><time>2026-04-04T11:16:44.267Z</time></trkpt><trkpt lat="43.306794" lon="12.8454733"><ele>401.0</ele><time>2026-04-04T11:16:45.274Z</time></trkpt><trkpt lat="43.3066513" lon="12.8452852"><ele>401.0</ele><time>2026-04-04T11:16:46.268Z</time></trkpt><trkpt lat="43.3065169" lon="12.8451054"><ele>401.0</ele><time>2026-04-04T11:16:47.268Z</time></trkpt><trkpt lat="43.3063806" lon="12.8449185"><ele>401.3333333333333</ele><time>2026-04-04T11:16:48.27Z</time></trkpt><trkpt lat="43.3062421" lon="12.8447227"><ele>401.66666666666663</ele><time>2026-04-04T11:16:49.27Z</time></trkpt><trkpt lat="43.3061021" lon="12.8445232"><ele>402.0</ele><time>2026-04-04T11:16:50.267Z</time></trkpt><trkpt lat="43.305963" lon="12.8443229"><ele>402.33333333333337</ele><time>2026-04-04T11:16:51.269Z</time></trkpt><trkpt lat="43.3058308" lon="12.8441399"><ele>402.6666666666667</ele><time>2026-04-04T11:16:52.272Z</time></trkpt><trkpt lat="43.3057014" lon="12.8439665"><ele>403.0</ele><time>2026-04-04T11:16:53.268Z</time></trkpt><trkpt lat="43.3055788" lon="12.8437963"><ele>403.0</ele><time>2026-04-04T11:16:54.271Z</time></trkpt><trkpt lat="43.3054553" lon="12.8436187"><ele>403.0</ele><time>2026-04-04T11:16:55.269Z</time></trkpt><trkpt lat="43.3053294" lon="12.8434553"><ele>403.0</ele><time>2026-04-04T11:16:56.27Z</time></trkpt><trkpt lat="43.3052012" lon="12.8433048"><ele>403.0</ele><time>2026-04-04T11:16:57.273Z</time></trkpt><trkpt lat="43.3050627" lon="12.8431577"><ele>403.0</ele><time>2026-04-04T11:16:58.272Z</time></trkpt><trkpt lat="43.3049056" lon="12.8430132"><ele>403.0</ele><time>2026-04-04T11:16:59.269Z</time></trkpt><trkpt lat="43.3047383" lon="12.8428891"><ele>402.6666666666667</ele><time>2026-04-04T11:17:00.276Z</time></trkpt><trkpt lat="43.3045724" lon="12.8427876"><ele>402.33333333333337</ele><time>2026-04-04T11:17:01.273Z</time></trkpt><trkpt lat="43.3044046" lon="12.8426999"><ele>402.0</ele><time>2026-04-04T11:17:02.268Z</time></trkpt><trkpt lat="43.3042307" lon="12.8426228"><ele>401.33333333333337</ele><time>2026-04-04T11:17:03.286Z</time></trkpt><trkpt lat="43.3040475" lon="12.8425587"><ele>400.6666666666667</ele><time>2026-04-04T11:17:04.273Z</time></trkpt><trkpt lat="43.3038736" lon="12.8425081"><ele>400.0</ele><time>2026-04-04T11:17:05.275Z</time></trkpt><trkpt lat="43.3037167" lon="12.8424458"><ele>400.0</ele><time>2026-04-04T11:17:06.269Z</time></trkpt><trkpt lat="43.3035756" lon="12.842364"><ele>400.0</ele><time>2026-04-04T11:17:07.274Z</time></trkpt><trkpt lat="43.3034524" lon="12.842267"><ele>400.0</ele><time>2026-04-04T11:17:08.267Z</time></trkpt><trkpt lat="43.3033339" lon="12.8421528"><ele>400.0</ele><time>2026-04-04T11:17:09.273Z</time></trkpt><trkpt lat="43.3032261" lon="12.8420345"><ele>400.0</ele><time>2026-04-04T11:17:10.268Z</time></trkpt><trkpt lat="43.3031485" lon="12.8419059"><ele>400.0</ele><time>2026-04-04T11:17:11.267Z</time></trkpt><trkpt lat="43.3030947" lon="12.8417701"><ele>400.0</ele><time>2026-04-04T11:17:12.271Z</time></trkpt><trkpt lat="43.3030486" lon="12.8416619"><ele>400.0</ele><time>2026-04-04T11:17:13.272Z</time></trkpt><trkpt lat="43.3030106" lon="12.8415642"><ele>400.0</ele><time>2026-04-04T11:17:14.271Z</time></trkpt><trkpt lat="43.3029749" lon="12.8414862"><ele>401.1666666666667</ele><time>2026-04-04T11:17:15.278Z</time></trkpt><trkpt lat="43.302918" lon="12.8413646"><ele>402.33333333333337</ele><time>2026-04-04T11:17:17.265Z</time></trkpt><trkpt lat="43.3028227" lon="12.8413047"><ele>403.5</ele><time>2026-04-04T11:17:19.261Z</time></trkpt><trkpt lat="43.3027594" lon="12.8412931"><ele>404.66666666666663</ele><time>2026-04-04T11:17:20.265Z</time></trkpt><trkpt lat="43.3026911" lon="12.8412626"><ele>405.8333333333333</ele><time>2026-04-04T11:17:21.265Z</time></trkpt><trkpt lat="43.3026134" lon="12.8412014"><ele>407.0</ele><time>2026-04-04T11:17:22.263Z</time></trkpt><trkpt lat="43.3025287" lon="12.8411271"><ele>407.0</ele><time>2026-04-04T11:17:23.262Z</time></trkpt><trkpt lat="43.3024274" lon="12.8410378"><ele>407.0</ele><time>2026-04-04T11:17:24.261Z</time></trkpt><trkpt lat="43.3023208" lon="12.8409367"><ele>407.0</ele><time>2026-04-04T11:17:25.262Z</time></trkpt><trkpt lat="43.302214" lon="12.8408411"><ele>407.0</ele><time>2026-04-04T11:17:26.263Z</time></trkpt><trkpt lat="43.3021152" lon="12.8407449"><ele>407.25</ele><time>2026-04-04T11:17:27.265Z</time></trkpt><trkpt lat="43.3020102" lon="12.8406482"><ele>407.5</ele><time>2026-04-04T11:17:28.263Z</time></trkpt><trkpt lat="43.3019073" lon="12.8405621"><ele>407.75</ele><time>2026-04-04T11:17:29.27Z</time></trkpt><trkpt lat="43.301802" lon="12.8404794"><ele>408.0</ele><time>2026-04-04T11:17:30.265Z</time></trkpt><trkpt lat="43.3016993" lon="12.8404169"><ele>408.0</ele><time>2026-04-04T11:17:31.264Z</time></trkpt><trkpt lat="43.3015832" lon="12.8403859"><ele>408.0</ele><time>2026-04-04T11:17:32.271Z</time></trkpt><trkpt lat="43.3014541" lon="12.8404043"><ele>408.0</ele><time>2026-04-04T11:17:33.262Z</time></trkpt><trkpt lat="43.3013133" lon="12.8404586"><ele>408.0</ele><time>2026-04-04T11:17:34.264Z</time></trkpt><trkpt lat="43.3011562" lon="12.8405072"><ele>409.0</ele><time>2026-04-04T11:17:35.263Z</time></trkpt><trkpt lat="43.3009672" lon="12.8405401"><ele>410.0</ele><time>2026-04-04T11:17:36.26Z</time></trkpt><trkpt lat="43.3007602" lon="12.8405104"><ele>411.0</ele><time>2026-04-04T11:17:37.261Z</time></trkpt><trkpt lat="43.3005565" lon="12.8404569"><ele>417.66666666666663</ele><time>2026-04-04T11:17:38.261Z</time></trkpt><trkpt lat="43.3003564" lon="12.8404216"><ele>424.3333333333333</ele><time>2026-04-04T11:17:39.263Z</time></trkpt><trkpt lat="43.3001585" lon="12.8403819"><ele>431.0</ele><time>2026-04-04T11:17:40.261Z</time></trkpt><trkpt lat="43.2999782" lon="12.8403319"><ele>431.0</ele><time>2026-04-04T11:17:41.259Z</time></trkpt><trkpt lat="43.2998179" lon="12.8402624"><ele>431.0</ele><time>2026-04-04T11:17:42.26Z</time></trkpt><trkpt lat="43.2996726" lon="12.8401651"><ele>431.0</ele><time>2026-04-04T11:17:43.26Z</time></trkpt><trkpt lat="43.2995477" lon="12.8400827"><ele>428.66666666666663</ele><time>2026-04-04T11:17:44.26Z</time></trkpt><trkpt lat="43.2994182" lon="12.8400346"><ele>426.33333333333337</ele><time>2026-04-04T11:17:45.257Z</time></trkpt><trkpt lat="43.2992753" lon="12.8399957"><ele>424.0</ele><time>2026-04-04T11:17:46.261Z</time></trkpt><trkpt lat="43.2990839" lon="12.8399953"><ele>424.6666666666667</ele><time>2026-04-04T11:17:47.255Z</time></trkpt><trkpt lat="43.2988766" lon="12.8400048"><ele>425.33333333333337</ele><time>2026-04-04T11:17:48.26Z</time></trkpt><trkpt lat="43.2986354" lon="12.8399816"><ele>426.0</ele><time>2026-04-04T11:17:49.259Z</time></trkpt><trkpt lat="43.2983903" lon="12.8399114"><ele>426.0</ele><time>2026-04-04T11:17:50.259Z</time></trkpt><trkpt lat="43.2981559" lon="12.8398246"><ele>426.0</ele><time>2026-04-04T11:17:51.26Z</time></trkpt><trkpt lat="43.2979193" lon="12.8397368"><ele>429.66666666666663</ele><time>2026-04-04T11:17:52.263Z</time></trkpt><trkpt lat="43.2977021" lon="12.839654"><ele>433.3333333333333</ele><time>2026-04-04T11:17:53.26Z</time></trkpt><trkpt lat="43.2975009" lon="12.8395789"><ele>437.0</ele><time>2026-04-04T11:17:54.259Z</time></trkpt><trkpt lat="43.2973242" lon="12.8395091"><ele>437.66666666666663</ele><time>2026-04-04T11:17:55.261Z</time></trkpt><trkpt lat="43.297149" lon="12.8394493"><ele>438.33333333333337</ele><time>2026-04-04T11:17:56.259Z</time></trkpt><trkpt lat="43.2969586" lon="12.8394348"><ele>439.0</ele><time>2026-04-04T11:17:57.26Z</time></trkpt><trkpt lat="43.2967386" lon="12.8394629"><ele>439.0</ele><time>2026-04-04T11:17:58.26Z</time></trkpt><trkpt lat="43.2964919" lon="12.8395238"><ele>439.0</ele><time>2026-04-04T11:17:59.257Z</time></trkpt><trkpt lat="43.2962287" lon="12.8395832"><ele>438.5</ele><time>2026-04-04T11:18:00.258Z</time></trkpt><trkpt lat="43.2959581" lon="12.8396311"><ele>438.0</ele><time>2026-04-04T11:18:01.258Z</time></trkpt><trkpt lat="43.2956838" lon="12.8396802"><ele>437.5</ele><time>2026-04-04T11:18:02.259Z</time></trkpt><trkpt lat="43.2954032" lon="12.8397274"><ele>437.0</ele><time>2026-04-04T11:18:03.259Z</time></trkpt><trkpt lat="43.2951292" lon="12.8397734"><ele>437.0</ele><time>2026-04-04T11:18:04.258Z</time></trkpt><trkpt lat="43.2948663" lon="12.839805"><ele>437.0</ele><time>2026-04-04T11:18:05.263Z</time></trkpt><trkpt lat="43.2946159" lon="12.8398374"><ele>437.0</ele><time>2026-04-04T11:18:06.262Z</time></trkpt><trkpt lat="43.2943722" lon="12.8398649"><ele>437.0</ele><time>2026-04-04T11:18:07.262Z</time></trkpt><trkpt lat="43.2941306" lon="12.8398914"><ele>436.5</ele><time>2026-04-04T11:18:08.261Z</time></trkpt><trkpt lat="43.2938927" lon="12.839921"><ele>436.0</ele><time>2026-04-04T11:18:09.26Z</time></trkpt><trkpt lat="43.2936718" lon="12.839957"><ele>436.0</ele><time>2026-04-04T11:18:10.263Z</time></trkpt><trkpt lat="43.2934588" lon="12.8400158"><ele>436.0</ele><time>2026-04-04T11:18:11.26Z</time></trkpt><trkpt lat="43.2932268" lon="12.8400704"><ele>437.0</ele><time>2026-04-04T11:18:12.259Z</time></trkpt><trkpt lat="43.2929897" lon="12.8401254"><ele>438.0</ele><time>2026-04-04T11:18:13.259Z</time></trkpt><trkpt lat="43.2927568" lon="12.8401585"><ele>443.33333333333337</ele><time>2026-04-04T11:18:14.258Z</time></trkpt><trkpt lat="43.2925377" lon="12.8401762"><ele>448.6666666666667</ele><time>2026-04-04T11:18:15.256Z</time></trkpt><trkpt lat="43.2923267" lon="12.8401845"><ele>454.0</ele><time>2026-04-04T11:18:16.257Z</time></trkpt><trkpt lat="43.2921308" lon="12.8401679"><ele>448.6666666666667</ele><time>2026-04-04T11:18:17.256Z</time></trkpt><trkpt lat="43.2919409" lon="12.8401031"><ele>443.33333333333337</ele><time>2026-04-04T11:18:18.262Z</time></trkpt><trkpt lat="43.2917358" lon="12.839988"><ele>438.0</ele><time>2026-04-04T11:18:19.265Z</time></trkpt><trkpt lat="43.291525" lon="12.8398584"><ele>441.5</ele><time>2026-04-04T11:18:20.264Z</time></trkpt><trkpt lat="43.2912971" lon="12.8397295"><ele>445.0</ele><time>2026-04-04T11:18:21.265Z</time></trkpt><trkpt lat="43.291073" lon="12.8396031"><ele>445.0</ele><time>2026-04-04T11:18:22.27Z</time></trkpt><trkpt lat="43.2908435" lon="12.8394867"><ele>445.0</ele><time>2026-04-04T11:18:23.265Z</time></trkpt><trkpt lat="43.2906173" lon="12.8393628"><ele>438.5</ele><time>2026-04-04T11:18:24.289Z</time></trkpt><trkpt lat="43.2903959" lon="12.8392346"><ele>432.0</ele><time>2026-04-04T11:18:25.26Z</time></trkpt><trkpt lat="43.2901953" lon="12.8391203"><ele>432.0</ele><time>2026-04-04T11:18:26.26Z</time></trkpt><trkpt lat="43.2899968" lon="12.8390099"><ele>432.0</ele><time>2026-04-04T11:18:27.261Z</time></trkpt><trkpt lat="43.2898046" lon="12.8389135"><ele>432.0</ele><time>2026-04-04T11:18:28.262Z</time></trkpt><trkpt lat="43.2896094" lon="12.8388322"><ele>432.66666666666663</ele><time>2026-04-04T11:18:29.262Z</time></trkpt><trkpt lat="43.2894039" lon="12.8387894"><ele>433.3333333333333</ele><time>2026-04-04T11:18:30.265Z</time></trkpt><trkpt lat="43.2891943" lon="12.8387907"><ele>434.0</ele><time>2026-04-04T11:18:31.265Z</time></trkpt><trkpt lat="43.2889666" lon="12.8388338"><ele>436.0</ele><time>2026-04-04T11:18:32.263Z</time></trkpt><trkpt lat="43.2887525" lon="12.8388888"><ele>438.0</ele><time>2026-04-04T11:18:33.265Z</time></trkpt><trkpt lat="43.2885281" lon="12.8389449"><ele>440.0</ele><time>2026-04-04T11:18:34.264Z</time></trkpt><trkpt lat="43.2883161" lon="12.8389996"><ele>440.0</ele><time>2026-04-04T11:18:35.261Z</time></trkpt><trkpt lat="43.2881142" lon="12.8390776"><ele>440.0</ele><time>2026-04-04T11:18:36.263Z</time></trkpt><trkpt lat="43.2879164" lon="12.8392093"><ele>440.0</ele><time>2026-04-04T11:18:37.263Z</time></trkpt><trkpt lat="43.2877016" lon="12.8393517"><ele>440.0</ele><time>2026-04-04T11:18:38.261Z</time></trkpt><trkpt lat="43.2874878" lon="12.8394839"><ele>440.0</ele><time>2026-04-04T11:18:39.262Z</time></trkpt><trkpt lat="43.2872766" lon="12.8396312"><ele>443.0</ele><time>2026-04-04T11:18:40.261Z</time></trkpt><trkpt lat="43.2870563" lon="12.8397754"><ele>446.0</ele><time>2026-04-04T11:18:41.261Z</time></trkpt><trkpt lat="43.2868323" lon="12.8399252"><ele>446.0</ele><time>2026-04-04T11:18:42.262Z</time></trkpt><trkpt lat="43.2866047" lon="12.8400795"><ele>446.0</ele><time>2026-04-04T11:18:43.262Z</time></trkpt><trkpt lat="43.2863725" lon="12.840229"><ele>446.0</ele><time>2026-04-04T11:18:44.261Z</time></trkpt><trkpt lat="43.2861553" lon="12.840379"><ele>446.0</ele><time>2026-04-04T11:18:45.264Z</time></trkpt><trkpt lat="43.2859481" lon="12.840531"><ele>446.0</ele><time>2026-04-04T11:18:46.251Z</time></trkpt><trkpt lat="43.285747" lon="12.8406614"><ele>446.0</ele><time>2026-04-04T11:18:47.263Z</time></trkpt><trkpt lat="43.2855571" lon="12.8407798"><ele>446.0</ele><time>2026-04-04T11:18:48.26Z</time></trkpt><trkpt lat="43.2854015" lon="12.8408845"><ele>445.66666666666663</ele><time>2026-04-04T11:18:49.258Z</time></trkpt><trkpt lat="43.2852453" lon="12.8410032"><ele>445.33333333333337</ele><time>2026-04-04T11:18:50.258Z</time></trkpt><trkpt lat="43.2850944" lon="12.8411412"><ele>445.0</ele><time>2026-04-04T11:18:51.261Z</time></trkpt><trkpt lat="43.284966" lon="12.8412996"><ele>445.0</ele><time>2026-04-04T11:18:52.266Z</time></trkpt><trkpt lat="43.2848598" lon="12.8414815"><ele>445.0</ele><time>2026-04-04T11:18:53.26Z</time></trkpt><trkpt lat="43.2847638" lon="12.8416932"><ele>445.0</ele><time>2026-04-04T11:18:54.262Z</time></trkpt><trkpt lat="43.2846924" lon="12.8419387"><ele>447.33333333333337</ele><time>2026-04-04T11:18:55.261Z</time></trkpt><trkpt lat="43.2846229" lon="12.8422087"><ele>449.66666666666663</ele><time>2026-04-04T11:18:56.259Z</time></trkpt><trkpt lat="43.2845761" lon="12.842502"><ele>452.0</ele><time>2026-04-04T11:18:57.258Z</time></trkpt><trkpt lat="43.2845474" lon="12.8428025"><ele>452.0</ele><time>2026-04-04T11:18:58.257Z</time></trkpt><trkpt lat="43.2845128" lon="12.8431035"><ele>452.0</ele><time>2026-04-04T11:18:59.26Z</time></trkpt><trkpt lat="43.2844856" lon="12.8433968"><ele>452.0</ele><time>2026-04-04T11:19:00.255Z</time></trkpt><trkpt lat="43.2844652" lon="12.8436604"><ele>453.66666666666663</ele><time>2026-04-04T11:19:01.257Z</time></trkpt><trkpt lat="43.2844326" lon="12.8439113"><ele>455.33333333333337</ele><time>2026-04-04T11:19:02.258Z</time></trkpt><trkpt lat="43.2843904" lon="12.8441597"><ele>457.0</ele><time>2026-04-04T11:19:03.258Z</time></trkpt><trkpt lat="43.2843324" lon="12.8444071"><ele>461.6666666666667</ele><time>2026-04-04T11:19:04.258Z</time></trkpt><trkpt lat="43.2842415" lon="12.8446477"><ele>466.33333333333337</ele><time>2026-04-04T11:19:05.255Z</time></trkpt><trkpt lat="43.2841316" lon="12.8448675"><ele>471.0</ele><time>2026-04-04T11:19:06.257Z</time></trkpt><trkpt lat="43.2840174" lon="12.845068"><ele>472.66666666666663</ele><time>2026-04-04T11:19:07.254Z</time></trkpt><trkpt lat="43.2838961" lon="12.8452505"><ele>474.3333333333333</ele><time>2026-04-04T11:19:08.252Z</time></trkpt><trkpt lat="43.2837585" lon="12.8453957"><ele>476.0</ele><time>2026-04-04T11:19:09.252Z</time></trkpt><trkpt lat="43.2835923" lon="12.8454835"><ele>476.0</ele><time>2026-04-04T11:19:10.253Z</time></trkpt><trkpt lat="43.2833997" lon="12.8455146"><ele>476.0</ele><time>2026-04-04T11:19:11.253Z</time></trkpt><trkpt lat="43.2831865" lon="12.8455317"><ele>476.0</ele><time>2026-04-04T11:19:12.253Z</time></trkpt><trkpt lat="43.2829651" lon="12.8455538"><ele>471.0</ele><time>2026-04-04T11:19:13.255Z</time></trkpt><trkpt lat="43.2827226" lon="12.8455628"><ele>466.0</ele><time>2026-04-04T11:19:14.254Z</time></trkpt><trkpt lat="43.2824857" lon="12.8455621"><ele>465.0</ele><time>2026-04-04T11:19:15.253Z</time></trkpt><trkpt lat="43.2822615" lon="12.8455639"><ele>464.0</ele><time>2026-04-04T11:19:16.255Z</time></trkpt><trkpt lat="43.2820409" lon="12.8455841"><ele>463.0</ele><time>2026-04-04T11:19:17.254Z</time></trkpt><trkpt lat="43.281817" lon="12.8456227"><ele>463.0</ele><time>2026-04-04T11:19:18.257Z</time></trkpt><trkpt lat="43.2815823" lon="12.8456898"><ele>463.0</ele><time>2026-04-04T11:19:19.255Z</time></trkpt><trkpt lat="43.2813233" lon="12.8457651"><ele>461.0</ele><time>2026-04-04T11:19:20.26Z</time></trkpt><trkpt lat="43.2810586" lon="12.8458559"><ele>459.0</ele><time>2026-04-04T11:19:21.257Z</time></trkpt><trkpt lat="43.2807917" lon="12.8459367"><ele>472.5</ele><time>2026-04-04T11:19:22.26Z</time></trkpt><trkpt lat="43.2805413" lon="12.8460144"><ele>486.0</ele><time>2026-04-04T11:19:23.256Z</time></trkpt><trkpt lat="43.2803126" lon="12.8460832"><ele>486.0</ele><time>2026-04-04T11:19:24.257Z</time></trkpt><trkpt lat="43.280075" lon="12.8461452"><ele>486.0</ele><time>2026-04-04T11:19:25.258Z</time></trkpt><trkpt lat="43.279842" lon="12.8461917"><ele>485.0</ele><time>2026-04-04T11:19:26.253Z</time></trkpt><trkpt lat="43.2796243" lon="12.8462134"><ele>484.0</ele><time>2026-04-04T11:19:27.259Z</time></trkpt><trkpt lat="43.279424" lon="12.8462006"><ele>483.0</ele><time>2026-04-04T11:19:28.256Z</time></trkpt><trkpt lat="43.2792396" lon="12.8461939"><ele>483.0</ele><time>2026-04-04T11:19:29.256Z</time></trkpt><trkpt lat="43.2790666" lon="12.8462021"><ele>483.0</ele><time>2026-04-04T11:19:30.26Z</time></trkpt><trkpt lat="43.2789265" lon="12.8462385"><ele>483.0</ele><time>2026-04-04T11:19:31.254Z</time></trkpt><trkpt lat="43.2787996" lon="12.8463438"><ele>480.33333333333337</ele><time>2026-04-04T11:19:32.254Z</time></trkpt><trkpt lat="43.2786692" lon="12.8465062"><ele>477.6666666666667</ele><time>2026-04-04T11:19:33.252Z</time></trkpt><trkpt lat="43.2785351" lon="12.84669"><ele>475.0</ele><time>2026-04-04T11:19:34.252Z</time></trkpt><trkpt lat="43.2783696" lon="12.8468815"><ele>481.0</ele><time>2026-04-04T11:19:35.255Z</time></trkpt><trkpt lat="43.2781726" lon="12.8470658"><ele>487.0</ele><time>2026-04-04T11:19:36.255Z</time></trkpt><trkpt lat="43.2779415" lon="12.8472087"><ele>487.0</ele><time>2026-04-04T11:19:37.256Z</time></trkpt><trkpt lat="43.2776883" lon="12.8473153"><ele>487.0</ele><time>2026-04-04T11:19:38.259Z</time></trkpt><trkpt lat="43.2774295" lon="12.8474077"><ele>482.5</ele><time>2026-04-04T11:19:39.256Z</time></trkpt><trkpt lat="43.2771703" lon="12.8475046"><ele>478.0</ele><time>2026-04-04T11:19:40.256Z</time></trkpt><trkpt lat="43.2769023" lon="12.8476008"><ele>483.0</ele><time>2026-04-04T11:19:41.255Z</time></trkpt><trkpt lat="43.276649" lon="12.8476989"><ele>488.0</ele><time>2026-04-04T11:19:42.255Z</time></trkpt><trkpt lat="43.2764024" lon="12.8477898"><ele>488.0</ele><time>2026-04-04T11:19:43.26Z</time></trkpt><trkpt lat="43.2761761" lon="12.8478485"><ele>488.0</ele><time>2026-04-04T11:19:44.258Z</time></trkpt><trkpt lat="43.2759679" lon="12.847881"><ele>488.0</ele><time>2026-04-04T11:19:45.26Z</time></trkpt><trkpt lat="43.2757761" lon="12.8479079"><ele>485.66666666666663</ele><time>2026-04-04T11:19:46.257Z</time></trkpt><trkpt lat="43.2755943" lon="12.8479471"><ele>483.33333333333337</ele><time>2026-04-04T11:19:47.259Z</time></trkpt><trkpt lat="43.2754304" lon="12.8479959"><ele>481.0</ele><time>2026-04-04T11:19:48.264Z</time></trkpt><trkpt lat="43.275259" lon="12.8480736"><ele>481.0</ele><time>2026-04-04T11:19:49.262Z</time></trkpt><trkpt lat="43.2750856" lon="12.8482052"><ele>481.0</ele><time>2026-04-04T11:19:50.263Z</time></trkpt><trkpt lat="43.2749065" lon="12.8483739"><ele>481.0</ele><time>2026-04-04T11:19:51.262Z</time></trkpt><trkpt lat="43.2747086" lon="12.8485398"><ele>490.5</ele><time>2026-04-04T11:19:52.266Z</time></trkpt><trkpt lat="43.2744844" lon="12.8486948"><ele>500.0</ele><time>2026-04-04T11:19:53.259Z</time></trkpt><trkpt lat="43.2742519" lon="12.8488318"><ele>500.0</ele><time>2026-04-04T11:19:54.259Z</time></trkpt><trkpt lat="43.2739998" lon="12.8489542"><ele>500.0</ele><time>2026-04-04T11:19:55.261Z</time></trkpt><trkpt lat="43.2737329" lon="12.8490763"><ele>493.5</ele><time>2026-04-04T11:19:56.259Z</time></trkpt><trkpt lat="43.2734592" lon="12.8491965"><ele>487.0</ele><time>2026-04-04T11:19:57.258Z</time></trkpt><trkpt lat="43.2731994" lon="12.8493091"><ele>496.5</ele><time>2026-04-04T11:19:58.259Z</time></trkpt><trkpt lat="43.2729612" lon="12.8494006"><ele>506.0</ele><time>2026-04-04T11:19:59.256Z</time></trkpt><trkpt lat="43.2727418" lon="12.8494948"><ele>506.0</ele><time>2026-04-04T11:20:00.262Z</time></trkpt><trkpt lat="43.2725336" lon="12.8496112"><ele>506.0</ele><time>2026-04-04T11:20:01.259Z</time></trkpt><trkpt lat="43.272313" lon="12.8497319"><ele>499.5</ele><time>2026-04-04T11:20:02.258Z</time></trkpt><trkpt lat="43.2720804" lon="12.8498381"><ele>493.0</ele><time>2026-04-04T11:20:03.258Z</time></trkpt><trkpt lat="43.2718484" lon="12.8499283"><ele>493.0</ele><time>2026-04-04T11:20:04.259Z</time></trkpt><trkpt lat="43.2716355" lon="12.8499939"><ele>493.0</ele><time>2026-04-04T11:20:05.258Z</time></trkpt><trkpt lat="43.2714208" lon="12.8500573"><ele>493.0</ele><time>2026-04-04T11:20:06.261Z</time></trkpt><trkpt lat="43.2711913" lon="12.8500972"><ele>491.5</ele><time>2026-04-04T11:20:07.259Z</time></trkpt><trkpt lat="43.2709513" lon="12.8501044"><ele>490.0</ele><time>2026-04-04T11:20:08.261Z</time></trkpt><trkpt lat="43.2707046" lon="12.8500979"><ele>490.5</ele><time>2026-04-04T11:20:09.259Z</time></trkpt><trkpt lat="43.2704548" lon="12.8500793"><ele>491.0</ele><time>2026-04-04T11:20:10.257Z</time></trkpt><trkpt lat="43.2701957" lon="12.8500565"><ele>491.0</ele><time>2026-04-04T11:20:11.258Z</time></trkpt><trkpt lat="43.2699415" lon="12.8500384"><ele>491.0</ele><time>2026-04-04T11:20:12.257Z</time></trkpt><trkpt lat="43.2696908" lon="12.8500198"><ele>491.5</ele><time>2026-04-04T11:20:13.259Z</time></trkpt><trkpt lat="43.2694453" lon="12.8500084"><ele>492.0</ele><time>2026-04-04T11:20:14.257Z</time></trkpt><trkpt lat="43.2692155" lon="12.8499956"><ele>492.0</ele><time>2026-04-04T11:20:15.259Z</time></trkpt><trkpt lat="43.2689854" lon="12.8499894"><ele>492.0</ele><time>2026-04-04T11:20:16.258Z</time></trkpt><trkpt lat="43.2687606" lon="12.849981"><ele>493.5</ele><time>2026-04-04T11:20:17.259Z</time></trkpt><trkpt lat="43.2685305" lon="12.8499643"><ele>495.0</ele><time>2026-04-04T11:20:18.259Z</time></trkpt><trkpt lat="43.2683112" lon="12.8499452"><ele>495.0</ele><time>2026-04-04T11:20:19.258Z</time></trkpt><trkpt lat="43.268091" lon="12.8499281"><ele>495.0</ele><time>2026-04-04T11:20:20.259Z</time></trkpt><trkpt lat="43.2678681" lon="12.849912"><ele>495.0</ele><time>2026-04-04T11:20:21.26Z</time></trkpt><trkpt lat="43.2676601" lon="12.8498913"><ele>495.0</ele><time>2026-04-04T11:20:22.263Z</time></trkpt><trkpt lat="43.2674522" lon="12.849867"><ele>495.0</ele><time>2026-04-04T11:20:23.261Z</time></trkpt><trkpt lat="43.2672509" lon="12.8498412"><ele>495.0</ele><time>2026-04-04T11:20:24.265Z</time></trkpt><trkpt lat="43.2670545" lon="12.8498188"><ele>495.33333333333337</ele><time>2026-04-04T11:20:25.264Z</time></trkpt><trkpt lat="43.2668692" lon="12.8498027"><ele>495.6666666666667</ele><time>2026-04-04T11:20:26.265Z</time></trkpt><trkpt lat="43.2666957" lon="12.8497842"><ele>496.0</ele><time>2026-04-04T11:20:27.264Z</time></trkpt><trkpt lat="43.2665279" lon="12.8497657"><ele>497.25</ele><time>2026-04-04T11:20:28.263Z</time></trkpt><trkpt lat="43.2663834" lon="12.8497538"><ele>498.5</ele><time>2026-04-04T11:20:29.263Z</time></trkpt><trkpt lat="43.2662602" lon="12.8497403"><ele>499.75</ele><time>2026-04-04T11:20:30.264Z</time></trkpt><trkpt lat="43.2661411" lon="12.8497213"><ele>501.0</ele><time>2026-04-04T11:20:31.264Z</time></trkpt><trkpt lat="43.2660282" lon="12.8497027"><ele>501.0</ele><time>2026-04-04T11:20:32.269Z</time></trkpt><trkpt lat="43.2659203" lon="12.8496801"><ele>501.0</ele><time>2026-04-04T11:20:33.265Z</time></trkpt><trkpt lat="43.2658081" lon="12.8496667"><ele>501.0</ele><time>2026-04-04T11:20:34.263Z</time></trkpt><trkpt lat="43.2656955" lon="12.849654"><ele>501.0</ele><time>2026-04-04T11:20:35.273Z</time></trkpt><trkpt lat="43.265581" lon="12.8496592"><ele>501.0</ele><time>2026-04-04T11:20:36.266Z</time></trkpt><trkpt lat="43.2654547" lon="12.849644"><ele>504.5</ele><time>2026-04-04T11:20:37.266Z</time></trkpt><trkpt lat="43.2653254" lon="12.8496298"><ele>508.0</ele><time>2026-04-04T11:20:38.264Z</time></trkpt><trkpt lat="43.2652042" lon="12.8496091"><ele>511.5</ele><time>2026-04-04T11:20:39.264Z</time></trkpt><trkpt lat="43.2650927" lon="12.8495754"><ele>515.0</ele><time>2026-04-04T11:20:40.262Z</time></trkpt><trkpt lat="43.264988" lon="12.8495399"><ele>515.0</ele><time>2026-04-04T11:20:41.26Z</time></trkpt><trkpt lat="43.2649017" lon="12.8495062"><ele>515.0</ele><time>2026-04-04T11:20:42.262Z</time></trkpt><trkpt lat="43.264826" lon="12.849481"><ele>515.0</ele><time>2026-04-04T11:20:43.267Z</time></trkpt><trkpt lat="43.2647547" lon="12.8494743"><ele>515.0</ele><time>2026-04-04T11:20:44.262Z</time></trkpt><trkpt lat="43.2646786" lon="12.8495111"><ele>515.0</ele><time>2026-04-04T11:20:45.26Z</time></trkpt><trkpt lat="43.2645899" lon="12.8495689"><ele>515.0</ele><time>2026-04-04T11:20:46.259Z</time></trkpt><trkpt lat="43.2644896" lon="12.8496395"><ele>514.6666666666666</ele><time>2026-04-04T11:20:47.262Z</time></trkpt><trkpt lat="43.2643619" lon="12.8497248"><ele>514.3333333333334</ele><time>2026-04-04T11:20:48.264Z</time></trkpt><trkpt lat="43.2642174" lon="12.8498065"><ele>514.0</ele><time>2026-04-04T11:20:49.263Z</time></trkpt><trkpt lat="43.2640698" lon="12.8498849"><ele>514.2</ele><time>2026-04-04T11:20:50.263Z</time></trkpt><trkpt lat="43.2639361" lon="12.8499639"><ele>514.4</ele><time>2026-04-04T11:20:51.262Z</time></trkpt><trkpt lat="43.2638317" lon="12.8500228"><ele>514.6</ele><time>2026-04-04T11:20:52.264Z</time></trkpt><trkpt lat="43.2637529" lon="12.8500877"><ele>514.8</ele><time>2026-04-04T11:20:53.276Z</time></trkpt><trkpt lat="43.26369" lon="12.8501757"><ele>515.0</ele><time>2026-04-04T11:20:54.261Z</time></trkpt><trkpt lat="43.2636652" lon="12.8503118"><ele>516.0</ele><time>2026-04-04T11:20:55.261Z</time></trkpt><trkpt lat="43.263661" lon="12.8504814"><ele>517.0</ele><time>2026-04-04T11:20:56.26Z</time></trkpt><trkpt lat="43.2636622" lon="12.8506901"><ele>518.0</ele><time>2026-04-04T11:20:57.262Z</time></trkpt><trkpt lat="43.263659" lon="12.8509243"><ele>519.0</ele><time>2026-04-04T11:20:58.26Z</time></trkpt><trkpt lat="43.2636687" lon="12.8511897"><ele>521.0</ele><time>2026-04-04T11:20:59.256Z</time></trkpt><trkpt lat="43.2636823" lon="12.8514385"><ele>523.0</ele><time>2026-04-04T11:21:00.258Z</time></trkpt><trkpt lat="43.2636816" lon="12.851656"><ele>525.0</ele><time>2026-04-04T11:21:01.258Z</time></trkpt><trkpt lat="43.2636572" lon="12.8518495"><ele>527.0</ele><time>2026-04-04T11:21:02.257Z</time></trkpt><trkpt lat="43.2636043" lon="12.8520302"><ele>529.0</ele><time>2026-04-04T11:21:03.262Z</time></trkpt><trkpt lat="43.2635049" lon="12.8521627"><ele>531.0</ele><time>2026-04-04T11:21:04.257Z</time></trkpt><trkpt lat="43.2633652" lon="12.852316"><ele>531.0</ele><time>2026-04-04T11:21:05.278Z</time></trkpt><trkpt lat="43.2632037" lon="12.8524842"><ele>531.0</ele><time>2026-04-04T11:21:06.257Z</time></trkpt><trkpt lat="43.2630283" lon="12.8526482"><ele>531.0</ele><time>2026-04-04T11:21:07.257Z</time></trkpt><trkpt lat="43.2628501" lon="12.8527962"><ele>531.3333333333334</ele><time>2026-04-04T11:21:08.257Z</time></trkpt><trkpt lat="43.2626563" lon="12.852932"><ele>531.6666666666667</ele><time>2026-04-04T11:21:09.256Z</time></trkpt><trkpt lat="43.2624511" lon="12.8530486"><ele>532.0</ele><time>2026-04-04T11:21:10.257Z</time></trkpt><trkpt lat="43.2622311" lon="12.8531704"><ele>532.0</ele><time>2026-04-04T11:21:11.257Z</time></trkpt><trkpt lat="43.2620025" lon="12.8533021"><ele>532.0</ele><time>2026-04-04T11:21:12.257Z</time></trkpt><trkpt lat="43.2617642" lon="12.8534238"><ele>536.5</ele><time>2026-04-04T11:21:13.258Z</time></trkpt><trkpt lat="43.2615412" lon="12.8535409"><ele>541.0</ele><time>2026-04-04T11:21:14.257Z</time></trkpt><trkpt lat="43.2613344" lon="12.8536567"><ele>541.0</ele><time>2026-04-04T11:21:15.256Z</time></trkpt><trkpt lat="43.2611467" lon="12.8537616"><ele>541.0</ele><time>2026-04-04T11:21:16.258Z</time></trkpt><trkpt lat="43.2609574" lon="12.8538645"><ele>541.0</ele><time>2026-04-04T11:21:17.257Z</time></trkpt><trkpt lat="43.2607688" lon="12.8539985"><ele>542.0</ele><time>2026-04-04T11:21:18.26Z</time></trkpt><trkpt lat="43.2605637" lon="12.8541619"><ele>543.0</ele><time>2026-04-04T11:21:19.26Z</time></trkpt><trkpt lat="43.2603491" lon="12.8543568"><ele>549.5</ele><time>2026-04-04T11:21:20.257Z</time></trkpt><trkpt lat="43.2601267" lon="12.8545642"><ele>556.0</ele><time>2026-04-04T11:21:21.257Z</time></trkpt><trkpt lat="43.2599155" lon="12.8547516"><ele>550.5</ele><time>2026-04-04T11:21:22.262Z</time></trkpt><trkpt lat="43.2597229" lon="12.8549301"><ele>545.0</ele><time>2026-04-04T11:21:23.256Z</time></trkpt><trkpt lat="43.2595321" lon="12.8550926"><ele>555.0</ele><time>2026-04-04T11:21:24.258Z</time></trkpt><trkpt lat="43.2593423" lon="12.855257"><ele>565.0</ele><time>2026-04-04T11:21:25.258Z</time></trkpt><trkpt lat="43.2591514" lon="12.8554245"><ele>565.0</ele><time>2026-04-04T11:21:26.256Z</time></trkpt><trkpt lat="43.2589707" lon="12.8556116"><ele>565.0</ele><time>2026-04-04T11:21:27.258Z</time></trkpt><trkpt lat="43.2587947" lon="12.8558207"><ele>564.0</ele><time>2026-04-04T11:21:28.258Z</time></trkpt><trkpt lat="43.2586306" lon="12.8560403"><ele>563.0</ele><time>2026-04-04T11:21:29.256Z</time></trkpt><trkpt lat="43.2584684" lon="12.8562362"><ele>562.0</ele><time>2026-04-04T11:21:30.259Z</time></trkpt><trkpt lat="43.2583109" lon="12.8564165"><ele>562.0</ele><time>2026-04-04T11:21:31.255Z</time></trkpt><trkpt lat="43.2581443" lon="12.8565654"><ele>562.0</ele><time>2026-04-04T11:21:32.256Z</time></trkpt><trkpt lat="43.2579602" lon="12.8566696"><ele>562.0</ele><time>2026-04-04T11:21:33.254Z</time></trkpt><trkpt lat="43.257764" lon="12.8567596"><ele>574.3333333333334</ele><time>2026-04-04T11:21:34.256Z</time></trkpt><trkpt lat="43.2575644" lon="12.8568648"><ele>586.6666666666666</ele><time>2026-04-04T11:21:35.255Z</time></trkpt><trkpt lat="43.2573489" lon="12.8569539"><ele>599.0</ele><time>2026-04-04T11:21:36.254Z</time></trkpt><trkpt lat="43.2571158" lon="12.8570144"><ele>599.0</ele><time>2026-04-04T11:21:37.255Z</time></trkpt><trkpt lat="43.2568842" lon="12.8570579"><ele>599.0</ele><time>2026-04-04T11:21:38.255Z</time></trkpt><trkpt lat="43.2566445" lon="12.8570845"><ele>601.6666666666666</ele><time>2026-04-04T11:21:39.259Z</time></trkpt><trkpt lat="43.2564261" lon="12.8570921"><ele>604.3333333333334</ele><time>2026-04-04T11:21:40.252Z</time></trkpt><trkpt lat="43.2562096" lon="12.8570655"><ele>607.0</ele><time>2026-04-04T11:21:41.253Z</time></trkpt><trkpt lat="43.2559962" lon="12.8570236"><ele>607.0</ele><time>2026-04-04T11:21:42.252Z</time></trkpt><trkpt lat="43.2557814" lon="12.8569766"><ele>607.0</ele><time>2026-04-04T11:21:43.248Z</time></trkpt><trkpt lat="43.2555734" lon="12.8569113"><ele>607.0</ele><time>2026-04-04T11:21:44.251Z</time></trkpt><trkpt lat="43.2554098" lon="12.8568243"><ele>603.25</ele><time>2026-04-04T11:21:45.251Z</time></trkpt><trkpt lat="43.2552707" lon="12.8567379"><ele>599.5</ele><time>2026-04-04T11:21:46.256Z</time></trkpt><trkpt lat="43.2551558" lon="12.856654"><ele>595.75</ele><time>2026-04-04T11:21:47.253Z</time></trkpt><trkpt lat="43.2550665" lon="12.8565512"><ele>592.0</ele><time>2026-04-04T11:21:48.252Z</time></trkpt><trkpt lat="43.2550022" lon="12.8564151"><ele>592.0</ele><time>2026-04-04T11:21:49.25Z</time></trkpt><trkpt lat="43.2549703" lon="12.8562696"><ele>592.0</ele><time>2026-04-04T11:21:50.25Z</time></trkpt><trkpt lat="43.254966" lon="12.8561188"><ele>592.0</ele><time>2026-04-04T11:21:51.253Z</time></trkpt><trkpt lat="43.2550034" lon="12.8559687"><ele>592.0</ele><time>2026-04-04T11:21:52.256Z</time></trkpt><trkpt lat="43.2550559" lon="12.8558368"><ele>592.0</ele><time>2026-04-04T11:21:53.253Z</time></trkpt><trkpt lat="43.2551431" lon="12.8557604"><ele>592.5</ele><time>2026-04-04T11:21:54.252Z</time></trkpt><trkpt lat="43.2552355" lon="12.8557227"><ele>593.0</ele><time>2026-04-04T11:21:55.258Z</time></trkpt><trkpt lat="43.2553308" lon="12.8557365"><ele>593.5</ele><time>2026-04-04T11:21:56.258Z</time></trkpt><trkpt lat="43.2554647" lon="12.8558006"><ele>594.0</ele><time>2026-04-04T11:21:57.254Z</time></trkpt><trkpt lat="43.2556316" lon="12.8558729"><ele>592.3333333333334</ele><time>2026-04-04T11:21:58.254Z</time></trkpt><trkpt lat="43.2558085" lon="12.8559514"><ele>590.6666666666667</ele><time>2026-04-04T11:21:59.256Z</time></trkpt><trkpt lat="43.2560154" lon="12.8559888"><ele>589.0</ele><time>2026-04-04T11:22:00.256Z</time></trkpt><trkpt lat="43.2562081" lon="12.8559777"><ele>587.25</ele><time>2026-04-04T11:22:01.256Z</time></trkpt><trkpt lat="43.2563805" lon="12.855959"><ele>585.5</ele><time>2026-04-04T11:22:02.254Z</time></trkpt><trkpt lat="43.2565294" lon="12.8559352"><ele>583.75</ele><time>2026-04-04T11:22:03.256Z</time></trkpt><trkpt lat="43.2566436" lon="12.8558904"><ele>582.0</ele><time>2026-04-04T11:22:04.257Z</time></trkpt><trkpt lat="43.2567435" lon="12.8558105"><ele>582.0</ele><time>2026-04-04T11:22:05.255Z</time></trkpt><trkpt lat="43.2568118" lon="12.8556815"><ele>582.0</ele><time>2026-04-04T11:22:06.255Z</time></trkpt><trkpt lat="43.2568445" lon="12.8555097"><ele>582.0</ele><time>2026-04-04T11:22:07.259Z</time></trkpt><trkpt lat="43.2568583" lon="12.8552996"><ele>582.0</ele><time>2026-04-04T11:22:08.257Z</time></trkpt><trkpt lat="43.2568757" lon="12.8550803"><ele>587.0</ele><time>2026-04-04T11:22:09.255Z</time></trkpt><trkpt lat="43.2569056" lon="12.8548757"><ele>592.0</ele><time>2026-04-04T11:22:10.258Z</time></trkpt><trkpt lat="43.2569634" lon="12.8547147"><ele>597.0</ele><time>2026-04-04T11:22:11.257Z</time></trkpt><trkpt lat="43.2570685" lon="12.8546219"><ele>602.0</ele><time>2026-04-04T11:22:12.257Z</time></trkpt><trkpt lat="43.25722" lon="12.8545931"><ele>598.0</ele><time>2026-04-04T11:22:13.253Z</time></trkpt><trkpt lat="43.2573734" lon="12.8545643"><ele>594.0</ele><time>2026-04-04T11:22:14.254Z</time></trkpt><trkpt lat="43.2575277" lon="12.8545234"><ele>590.0</ele><time>2026-04-04T11:22:15.257Z</time></trkpt><trkpt lat="43.2576451" lon="12.8544496"><ele>586.0</ele><time>2026-04-04T11:22:16.259Z</time></trkpt><trkpt lat="43.257745" lon="12.8543484"><ele>590.5</ele><time>2026-04-04T11:22:17.258Z</time></trkpt><trkpt lat="43.2578234" lon="12.8542098"><ele>595.0</ele><time>2026-04-04T11:22:18.262Z</time></trkpt><trkpt lat="43.2578932" lon="12.8540435"><ele>599.5</ele><time>2026-04-04T11:22:19.28Z</time></trkpt><trkpt lat="43.2579726" lon="12.853872"><ele>604.0</ele><time>2026-04-04T11:22:20.267Z</time></trkpt><trkpt lat="43.2580597" lon="12.8536891"><ele>604.75</ele><time>2026-04-04T11:22:21.263Z</time></trkpt><trkpt lat="43.2581377" lon="12.8535297"><ele>605.5</ele><time>2026-04-04T11:22:22.265Z</time></trkpt><trkpt lat="43.2582504" lon="12.8534216"><ele>606.25</ele><time>2026-04-04T11:22:23.256Z</time></trkpt><trkpt lat="43.2583945" lon="12.8534167"><ele>607.0</ele><time>2026-04-04T11:22:24.262Z</time></trkpt><trkpt lat="43.2584993" lon="12.8533878"><ele>607.0</ele><time>2026-04-04T11:22:25.263Z</time></trkpt><trkpt lat="43.2585779" lon="12.8533234"><ele>607.0</ele><time>2026-04-04T11:22:26.26Z</time></trkpt><trkpt lat="43.2586185" lon="12.8532281"><ele>607.0</ele><time>2026-04-04T11:22:27.261Z</time></trkpt><trkpt lat="43.2586168" lon="12.8531243"><ele>607.0</ele><time>2026-04-04T11:22:28.26Z</time></trkpt><trkpt lat="43.2585801" lon="12.8530243"><ele>607.0</ele><time>2026-04-04T11:22:29.262Z</time></trkpt><trkpt lat="43.2585001" lon="12.8529528"><ele>607.0</ele><time>2026-04-04T11:22:30.264Z</time></trkpt><trkpt lat="43.2583893" lon="12.8529284"><ele>607.0</ele><time>2026-04-04T11:22:31.263Z</time></trkpt><trkpt lat="43.2582595" lon="12.852946"><ele>607.0</ele><time>2026-04-04T11:22:32.262Z</time></trkpt><trkpt lat="43.2581225" lon="12.8530294"><ele>607.0</ele><time>2026-04-04T11:22:33.265Z</time></trkpt><trkpt lat="43.2579772" lon="12.8531648"><ele>606.0</ele><time>2026-04-04T11:22:34.263Z</time></trkpt><trkpt lat="43.2578059" lon="12.8533329"><ele>605.0</ele><time>2026-04-04T11:22:35.263Z</time></trkpt><trkpt lat="43.2576155" lon="12.8535159"><ele>604.0</ele><time>2026-04-04T11:22:36.262Z</time></trkpt><trkpt lat="43.2574282" lon="12.8536958"><ele>610.6666666666667</ele><time>2026-04-04T11:22:37.264Z</time></trkpt><trkpt lat="43.2572417" lon="12.8538635"><ele>617.3333333333334</ele><time>2026-04-04T11:22:38.262Z</time></trkpt><trkpt lat="43.2570716" lon="12.8540014"><ele>624.0</ele><time>2026-04-04T11:22:39.264Z</time></trkpt><trkpt lat="43.2569098" lon="12.8541277"><ele>624.0</ele><time>2026-04-04T11:22:40.265Z</time></trkpt><trkpt lat="43.2567438" lon="12.8542516"><ele>624.0</ele><time>2026-04-04T11:22:41.265Z</time></trkpt><trkpt lat="43.256562" lon="12.854364"><ele>624.0</ele><time>2026-04-04T11:22:42.263Z</time></trkpt><trkpt lat="43.2563783" lon="12.8544652"><ele>621.3333333333334</ele><time>2026-04-04T11:22:43.262Z</time></trkpt><trkpt lat="43.2561992" lon="12.8545458"><ele>618.6666666666667</ele><time>2026-04-04T11:22:44.259Z</time></trkpt><trkpt lat="43.2560325" lon="12.8546156"><ele>616.0</ele><time>2026-04-04T11:22:45.259Z</time></trkpt><trkpt lat="43.2558684" lon="12.8546754"><ele>616.0</ele><time>2026-04-04T11:22:46.26Z</time></trkpt><trkpt lat="43.2557146" lon="12.8547244"><ele>616.0</ele><time>2026-04-04T11:22:47.259Z</time></trkpt><trkpt lat="43.255545" lon="12.8547433"><ele>616.0</ele><time>2026-04-04T11:22:48.261Z</time></trkpt><trkpt lat="43.255349" lon="12.8547216"><ele>617.6666666666667</ele><time>2026-04-04T11:22:49.258Z</time></trkpt><trkpt lat="43.2551401" lon="12.8546782"><ele>619.3333333333334</ele><time>2026-04-04T11:22:50.262Z</time></trkpt><trkpt lat="43.2549253" lon="12.854648"><ele>621.0</ele><time>2026-04-04T11:22:51.262Z</time></trkpt><trkpt lat="43.2547042" lon="12.8546221"><ele>624.5</ele><time>2026-04-04T11:22:52.27Z</time></trkpt><trkpt lat="43.2544721" lon="12.8546125"><ele>628.0</ele><time>2026-04-04T11:22:53.263Z</time></trkpt><trkpt lat="43.2542515" lon="12.8546381"><ele>628.0</ele><time>2026-04-04T11:22:54.266Z</time></trkpt><trkpt lat="43.25403" lon="12.8546893"><ele>628.0</ele><time>2026-04-04T11:22:55.265Z</time></trkpt><trkpt lat="43.2538072" lon="12.8547375"><ele>630.6666666666667</ele><time>2026-04-04T11:22:56.263Z</time></trkpt><trkpt lat="43.2536054" lon="12.8547915"><ele>633.3333333333334</ele><time>2026-04-04T11:22:57.267Z</time></trkpt><trkpt lat="43.2534112" lon="12.8548341"><ele>636.0</ele><time>2026-04-04T11:22:58.265Z</time></trkpt><trkpt lat="43.2532359" lon="12.8548822"><ele>638.0</ele><time>2026-04-04T11:22:59.261Z</time></trkpt><trkpt lat="43.2530534" lon="12.854898"><ele>640.0</ele><time>2026-04-04T11:23:00.261Z</time></trkpt><trkpt lat="43.2528696" lon="12.8548695"><ele>642.0</ele><time>2026-04-04T11:23:01.264Z</time></trkpt><trkpt lat="43.2526956" lon="12.8548248"><ele>642.0</ele><time>2026-04-04T11:23:02.26Z</time></trkpt><trkpt lat="43.252532" lon="12.8547873"><ele>642.0</ele><time>2026-04-04T11:23:03.262Z</time></trkpt><trkpt lat="43.2523703" lon="12.8547966"><ele>642.0</ele><time>2026-04-04T11:23:04.263Z</time></trkpt><trkpt lat="43.2522056" lon="12.8548654"><ele>642.6666666666666</ele><time>2026-04-04T11:23:05.263Z</time></trkpt><trkpt lat="43.2520418" lon="12.854999"><ele>643.3333333333333</ele><time>2026-04-04T11:23:06.263Z</time></trkpt><trkpt lat="43.2518699" lon="12.8551317"><ele>644.0</ele><time>2026-04-04T11:23:07.264Z</time></trkpt><trkpt lat="43.2516921" lon="12.8552488"><ele>644.0</ele><time>2026-04-04T11:23:08.262Z</time></trkpt><trkpt lat="43.2515046" lon="12.8553528"><ele>644.0</ele><time>2026-04-04T11:23:09.271Z</time></trkpt><trkpt lat="43.2513244" lon="12.8554601"><ele>644.0</ele><time>2026-04-04T11:23:10.264Z</time></trkpt><trkpt lat="43.2511732" lon="12.8555652"><ele>646.25</ele><time>2026-04-04T11:23:11.263Z</time></trkpt><trkpt lat="43.251046" lon="12.8556643"><ele>648.5</ele><time>2026-04-04T11:23:12.263Z</time></trkpt><trkpt lat="43.2509364" lon="12.8557828"><ele>650.75</ele><time>2026-04-04T11:23:13.265Z</time></trkpt><trkpt lat="43.2508245" lon="12.8559362"><ele>653.0</ele><time>2026-04-04T11:23:14.263Z</time></trkpt><trkpt lat="43.2507249" lon="12.8561217"><ele>653.0</ele><time>2026-04-04T11:23:15.265Z</time></trkpt><trkpt lat="43.2506293" lon="12.8563199"><ele>653.0</ele><time>2026-04-04T11:23:16.265Z</time></trkpt><trkpt lat="43.2505219" lon="12.8565015"><ele>653.0</ele><time>2026-04-04T11:23:17.263Z</time></trkpt><trkpt lat="43.2504269" lon="12.85667"><ele>654.75</ele><time>2026-04-04T11:23:18.269Z</time></trkpt><trkpt lat="43.2503391" lon="12.8568204"><ele>656.5</ele><time>2026-04-04T11:23:19.263Z</time></trkpt><trkpt lat="43.2502545" lon="12.8569613"><ele>658.25</ele><time>2026-04-04T11:23:20.265Z</time></trkpt><trkpt lat="43.2501522" lon="12.8570889"><ele>660.0</ele><time>2026-04-04T11:23:21.265Z</time></trkpt><trkpt lat="43.2500083" lon="12.8571841"><ele>660.0</ele><time>2026-04-04T11:23:22.27Z</time></trkpt><trkpt lat="43.2498474" lon="12.8572491"><ele>660.0</ele><time>2026-04-04T11:23:23.264Z</time></trkpt><trkpt lat="43.2496792" lon="12.8573282"><ele>660.0</ele><time>2026-04-04T11:23:24.266Z</time></trkpt><trkpt lat="43.2494947" lon="12.8574146"><ele>658.0</ele><time>2026-04-04T11:23:25.264Z</time></trkpt><trkpt lat="43.2493061" lon="12.8575091"><ele>656.0</ele><time>2026-04-04T11:23:26.261Z</time></trkpt><trkpt lat="43.2491231" lon="12.8576063"><ele>654.0</ele><time>2026-04-04T11:23:27.266Z</time></trkpt><trkpt lat="43.2489416" lon="12.8577003"><ele>654.0</ele><time>2026-04-04T11:23:28.263Z</time></trkpt><trkpt lat="43.2487709" lon="12.8577888"><ele>654.0</ele><time>2026-04-04T11:23:29.261Z</time></trkpt><trkpt lat="43.2486017" lon="12.8578653"><ele>654.0</ele><time>2026-04-04T11:23:30.26Z</time></trkpt><trkpt lat="43.2484271" lon="12.8579193"><ele>654.0</ele><time>2026-04-04T11:23:31.259Z</time></trkpt><trkpt lat="43.2482634" lon="12.8579356"><ele>654.0</ele><time>2026-04-04T11:23:32.261Z</time></trkpt><trkpt lat="43.2481243" lon="12.8579381"><ele>654.0</ele><time>2026-04-04T11:23:33.259Z</time></trkpt><trkpt lat="43.2479876" lon="12.8579188"><ele>654.0</ele><time>2026-04-04T11:23:34.268Z</time></trkpt><trkpt lat="43.2478526" lon="12.8579206"><ele>648.6666666666666</ele><time>2026-04-04T11:23:35.265Z</time></trkpt><trkpt lat="43.2477207" lon="12.8579595"><ele>643.3333333333333</ele><time>2026-04-04T11:23:36.266Z</time></trkpt><trkpt lat="43.2475815" lon="12.8580581"><ele>638.0</ele><time>2026-04-04T11:23:37.267Z</time></trkpt><trkpt lat="43.2474484" lon="12.8582023"><ele>638.0</ele><time>2026-04-04T11:23:38.268Z</time></trkpt><trkpt lat="43.2473216" lon="12.8583614"><ele>638.0</ele><time>2026-04-04T11:23:39.267Z</time></trkpt><trkpt lat="43.2472185" lon="12.8585027"><ele>638.0</ele><time>2026-04-04T11:23:40.267Z</time></trkpt><trkpt lat="43.2471348" lon="12.858642"><ele>638.0</ele><time>2026-04-04T11:23:41.269Z</time></trkpt><trkpt lat="43.2470916" lon="12.8588154"><ele>635.0</ele><time>2026-04-04T11:23:42.271Z</time></trkpt><trkpt lat="43.2470719" lon="12.8590253"><ele>632.0</ele><time>2026-04-04T11:23:43.27Z</time></trkpt><trkpt lat="43.2470534" lon="12.8592694"><ele>629.0</ele><time>2026-04-04T11:23:44.266Z</time></trkpt><trkpt lat="43.2470424" lon="12.8595061"><ele>628.3333333333333</ele><time>2026-04-04T11:23:45.267Z</time></trkpt><trkpt lat="43.2470233" lon="12.8597293"><ele>627.6666666666666</ele><time>2026-04-04T11:23:46.268Z</time></trkpt><trkpt lat="43.2469848" lon="12.8599574"><ele>627.0</ele><time>2026-04-04T11:23:47.264Z</time></trkpt><trkpt lat="43.2469126" lon="12.8601827"><ele>629.3333333333334</ele><time>2026-04-04T11:23:48.275Z</time></trkpt><trkpt lat="43.2467855" lon="12.8603811"><ele>631.6666666666667</ele><time>2026-04-04T11:23:49.266Z</time></trkpt><trkpt lat="43.2466655" lon="12.8605742"><ele>634.0</ele><time>2026-04-04T11:23:50.268Z</time></trkpt><trkpt lat="43.246539" lon="12.8607477"><ele>632.0</ele><time>2026-04-04T11:23:51.267Z</time></trkpt><trkpt lat="43.2464118" lon="12.8609105"><ele>630.0</ele><time>2026-04-04T11:23:52.27Z</time></trkpt><trkpt lat="43.2462696" lon="12.8610583"><ele>628.0</ele><time>2026-04-04T11:23:53.264Z</time></trkpt><trkpt lat="43.246101" lon="12.8611791"><ele>628.0</ele><time>2026-04-04T11:23:54.269Z</time></trkpt><trkpt lat="43.2459167" lon="12.8612834"><ele>628.0</ele><time>2026-04-04T11:23:55.267Z</time></trkpt><trkpt lat="43.2457069" lon="12.8613923"><ele>628.0</ele><time>2026-04-04T11:23:56.265Z</time></trkpt><trkpt lat="43.2454955" lon="12.8615262"><ele>623.5</ele><time>2026-04-04T11:23:57.268Z</time></trkpt><trkpt lat="43.2452816" lon="12.8616465"><ele>619.0</ele><time>2026-04-04T11:23:58.267Z</time></trkpt><trkpt lat="43.2450757" lon="12.8617657"><ele>617.3333333333334</ele><time>2026-04-04T11:23:59.27Z</time></trkpt><trkpt lat="43.2448698" lon="12.8618874"><ele>615.6666666666666</ele><time>2026-04-04T11:24:00.267Z</time></trkpt><trkpt lat="43.2446737" lon="12.8619936"><ele>614.0</ele><time>2026-04-04T11:24:01.279Z</time></trkpt><trkpt lat="43.2444978" lon="12.862113"><ele>614.0</ele><time>2026-04-04T11:24:02.27Z</time></trkpt><trkpt lat="43.244321" lon="12.8622303"><ele>614.0</ele><time>2026-04-04T11:24:03.266Z</time></trkpt><trkpt lat="43.2441456" lon="12.8623508"><ele>614.0</ele><time>2026-04-04T11:24:04.268Z</time></trkpt><trkpt lat="43.2439799" lon="12.8624671"><ele>613.3333333333333</ele><time>2026-04-04T11:24:05.271Z</time></trkpt><trkpt lat="43.2438203" lon="12.8625753"><ele>612.6666666666666</ele><time>2026-04-04T11:24:06.286Z</time></trkpt><trkpt lat="43.2436503" lon="12.8626852"><ele>612.0</ele><time>2026-04-04T11:24:07.267Z</time></trkpt><trkpt lat="43.2434888" lon="12.8628233"><ele>612.0</ele><time>2026-04-04T11:24:08.27Z</time></trkpt><trkpt lat="43.2433224" lon="12.8629989"><ele>612.0</ele><time>2026-04-04T11:24:09.267Z</time></trkpt><trkpt lat="43.2431581" lon="12.8631868"><ele>612.0</ele><time>2026-04-04T11:24:10.267Z</time></trkpt><trkpt lat="43.2429967" lon="12.8633676"><ele>612.3333333333334</ele><time>2026-04-04T11:24:11.267Z</time></trkpt><trkpt lat="43.242836" lon="12.8635415"><ele>612.6666666666667</ele><time>2026-04-04T11:24:12.274Z</time></trkpt><trkpt lat="43.2426515" lon="12.863669"><ele>613.0</ele><time>2026-04-04T11:24:13.284Z</time></trkpt><trkpt lat="43.2424549" lon="12.8637742"><ele>608.3333333333334</ele><time>2026-04-04T11:24:14.275Z</time></trkpt><trkpt lat="43.2422644" lon="12.8638649"><ele>603.6666666666666</ele><time>2026-04-04T11:24:15.283Z</time></trkpt><trkpt lat="43.2420807" lon="12.8639668"><ele>599.0</ele><time>2026-04-04T11:24:16.276Z</time></trkpt><trkpt lat="43.2418992" lon="12.8640809"><ele>599.0</ele><time>2026-04-04T11:24:17.275Z</time></trkpt><trkpt lat="43.2417085" lon="12.8641823"><ele>599.0</ele><time>2026-04-04T11:24:18.273Z</time></trkpt><trkpt lat="43.2415191" lon="12.8642856"><ele>599.0</ele><time>2026-04-04T11:24:19.277Z</time></trkpt><trkpt lat="43.2413342" lon="12.8643868"><ele>603.3333333333333</ele><time>2026-04-04T11:24:20.275Z</time></trkpt><trkpt lat="43.2411588" lon="12.8644839"><ele>607.6666666666666</ele><time>2026-04-04T11:24:21.278Z</time></trkpt><trkpt lat="43.2409894" lon="12.864579"><ele>612.0</ele><time>2026-04-04T11:24:22.275Z</time></trkpt><trkpt lat="43.2408142" lon="12.8646629"><ele>612.0</ele><time>2026-04-04T11:24:23.275Z</time></trkpt><trkpt lat="43.2406491" lon="12.8647382"><ele>612.0</ele><time>2026-04-04T11:24:24.273Z</time></trkpt><trkpt lat="43.2404886" lon="12.8647931"><ele>612.0</ele><time>2026-04-04T11:24:25.271Z</time></trkpt><trkpt lat="43.2403291" lon="12.8647947"><ele>613.3333333333334</ele><time>2026-04-04T11:24:26.271Z</time></trkpt><trkpt lat="43.2401666" lon="12.8647314"><ele>614.6666666666667</ele><time>2026-04-04T11:24:27.275Z</time></trkpt><trkpt lat="43.2399981" lon="12.8646095"><ele>616.0</ele><time>2026-04-04T11:24:28.267Z</time></trkpt><trkpt lat="43.239835" lon="12.8644943"><ele>617.3333333333334</ele><time>2026-04-04T11:24:29.27Z</time></trkpt><trkpt lat="43.2396923" lon="12.8643647"><ele>618.6666666666666</ele><time>2026-04-04T11:24:30.268Z</time></trkpt><trkpt lat="43.2395385" lon="12.864264"><ele>620.0</ele><time>2026-04-04T11:24:31.271Z</time></trkpt><trkpt lat="43.2393886" lon="12.8642055"><ele>611.6666666666666</ele><time>2026-04-04T11:24:32.269Z</time></trkpt><trkpt lat="43.2392205" lon="12.8641892"><ele>603.3333333333334</ele><time>2026-04-04T11:24:33.271Z</time></trkpt><trkpt lat="43.2390326" lon="12.8642044"><ele>595.0</ele><time>2026-04-04T11:24:34.276Z</time></trkpt><trkpt lat="43.2387949" lon="12.8642698"><ele>607.5</ele><time>2026-04-04T11:24:35.274Z</time></trkpt><trkpt lat="43.2385289" lon="12.8643254"><ele>620.0</ele><time>2026-04-04T11:24:36.273Z</time></trkpt><trkpt lat="43.2382596" lon="12.8643782"><ele>620.5</ele><time>2026-04-04T11:24:37.274Z</time></trkpt><trkpt lat="43.2379939" lon="12.8643964"><ele>621.0</ele><time>2026-04-04T11:24:38.268Z</time></trkpt><trkpt lat="43.2377409" lon="12.8644049"><ele>621.0</ele><time>2026-04-04T11:24:39.266Z</time></trkpt><trkpt lat="43.237496" lon="12.8643943"><ele>621.0</ele><time>2026-04-04T11:24:40.271Z</time></trkpt><trkpt lat="43.2372792" lon="12.8643771"><ele>621.6666666666666</ele><time>2026-04-04T11:24:41.272Z</time></trkpt><trkpt lat="43.2370802" lon="12.8643663"><ele>622.3333333333333</ele><time>2026-04-04T11:24:42.278Z</time></trkpt><trkpt lat="43.2368825" lon="12.8643515"><ele>623.0</ele><time>2026-04-04T11:24:43.273Z</time></trkpt><trkpt lat="43.2366885" lon="12.8643212"><ele>614.0</ele><time>2026-04-04T11:24:44.276Z</time></trkpt><trkpt lat="43.2365213" lon="12.8642464"><ele>605.0</ele><time>2026-04-04T11:24:45.274Z</time></trkpt><trkpt lat="43.2363571" lon="12.8641345"><ele>596.0</ele><time>2026-04-04T11:24:46.278Z</time></trkpt><trkpt lat="43.2361985" lon="12.8640019"><ele>596.0</ele><time>2026-04-04T11:24:47.27Z</time></trkpt><trkpt lat="43.2360475" lon="12.8638641"><ele>596.0</ele><time>2026-04-04T11:24:48.274Z</time></trkpt><trkpt lat="43.2358841" lon="12.8637422"><ele>596.0</ele><time>2026-04-04T11:24:49.279Z</time></trkpt><trkpt lat="43.2357071" lon="12.8636569"><ele>594.3333333333333</ele><time>2026-04-04T11:24:50.273Z</time></trkpt><trkpt lat="43.2355226" lon="12.863601"><ele>592.6666666666666</ele><time>2026-04-04T11:24:51.272Z</time></trkpt><trkpt lat="43.235327" lon="12.8635632"><ele>591.0</ele><time>2026-04-04T11:24:52.278Z</time></trkpt><trkpt lat="43.2351162" lon="12.8635534"><ele>591.0</ele><time>2026-04-04T11:24:53.272Z</time></trkpt><trkpt lat="43.2348876" lon="12.8635762"><ele>591.0</ele><time>2026-04-04T11:24:54.272Z</time></trkpt><trkpt lat="43.2346491" lon="12.8636274"><ele>585.5</ele><time>2026-04-04T11:24:55.278Z</time></trkpt><trkpt lat="43.2343948" lon="12.8636774"><ele>580.0</ele><time>2026-04-04T11:24:56.273Z</time></trkpt><trkpt lat="43.2341391" lon="12.8637388"><ele>575.5</ele><time>2026-04-04T11:24:57.277Z</time></trkpt><trkpt lat="43.2338763" lon="12.8637935"><ele>571.0</ele><time>2026-04-04T11:24:58.277Z</time></trkpt><trkpt lat="43.23361" lon="12.8638417"><ele>571.0</ele><time>2026-04-04T11:24:59.275Z</time></trkpt><trkpt lat="43.2333609" lon="12.8638871"><ele>571.0</ele><time>2026-04-04T11:25:00.278Z</time></trkpt><trkpt lat="43.2331221" lon="12.8639226"><ele>568.6666666666667</ele><time>2026-04-04T11:25:01.276Z</time></trkpt><trkpt lat="43.2329049" lon="12.8639622"><ele>566.3333333333334</ele><time>2026-04-04T11:25:02.279Z</time></trkpt><trkpt lat="43.2326975" lon="12.8639961"><ele>564.0</ele><time>2026-04-04T11:25:03.277Z</time></trkpt><trkpt lat="43.2325067" lon="12.8640356"><ele>564.0</ele><time>2026-04-04T11:25:04.277Z</time></trkpt><trkpt lat="43.2323169" lon="12.8640701"><ele>564.0</ele><time>2026-04-04T11:25:05.276Z</time></trkpt><trkpt lat="43.2321226" lon="12.8641085"><ele>564.0</ele><time>2026-04-04T11:25:06.275Z</time></trkpt><trkpt lat="43.231926" lon="12.8641611"><ele>564.0</ele><time>2026-04-04T11:25:07.275Z</time></trkpt><trkpt lat="43.2317244" lon="12.8642357"><ele>564.0</ele><time>2026-04-04T11:25:08.273Z</time></trkpt><trkpt lat="43.2315186" lon="12.864317"><ele>564.0</ele><time>2026-04-04T11:25:09.277Z</time></trkpt><trkpt lat="43.2313088" lon="12.8644043"><ele>564.6666666666666</ele><time>2026-04-04T11:25:10.275Z</time></trkpt><trkpt lat="43.2311032" lon="12.8645058"><ele>565.3333333333333</ele><time>2026-04-04T11:25:11.306Z</time></trkpt><trkpt lat="43.2308993" lon="12.8646156"><ele>566.0</ele><time>2026-04-04T11:25:12.28Z</time></trkpt><trkpt lat="43.2306952" lon="12.8647113"><ele>565.6666666666666</ele><time>2026-04-04T11:25:13.279Z</time></trkpt><trkpt lat="43.2305058" lon="12.8648014"><ele>565.3333333333334</ele><time>2026-04-04T11:25:14.28Z</time></trkpt><trkpt lat="43.230324" lon="12.8648831"><ele>565.0</ele><time>2026-04-04T11:25:15.28Z</time></trkpt><trkpt lat="43.2301338" lon="12.8649781"><ele>565.0</ele><time>2026-04-04T11:25:16.282Z</time></trkpt><trkpt lat="43.2299424" lon="12.865066"><ele>565.0</ele><time>2026-04-04T11:25:17.277Z</time></trkpt><trkpt lat="43.2297529" lon="12.865148"><ele>565.0</ele><time>2026-04-04T11:25:18.283Z</time></trkpt><trkpt lat="43.2295715" lon="12.8652135"><ele>565.0</ele><time>2026-04-04T11:25:19.278Z</time></trkpt><trkpt lat="43.2293954" lon="12.8652333"><ele>565.0</ele><time>2026-04-04T11:25:20.275Z</time></trkpt><trkpt lat="43.2292154" lon="12.8652034"><ele>565.0</ele><time>2026-04-04T11:25:21.281Z</time></trkpt><trkpt lat="43.2290371" lon="12.8651542"><ele>564.6666666666667</ele><time>2026-04-04T11:25:22.282Z</time></trkpt><trkpt lat="43.2288459" lon="12.8651046"><ele>564.3333333333334</ele><time>2026-04-04T11:25:23.276Z</time></trkpt><trkpt lat="43.2286359" lon="12.8650651"><ele>564.0</ele><time>2026-04-04T11:25:24.276Z</time></trkpt><trkpt lat="43.2284303" lon="12.8650112"><ele>564.0</ele><time>2026-04-04T11:25:25.279Z</time></trkpt><trkpt lat="43.2282398" lon="12.8649343"><ele>564.0</ele><time>2026-04-04T11:25:26.274Z</time></trkpt><trkpt lat="43.228066" lon="12.8648316"><ele>564.0</ele><time>2026-04-04T11:25:27.273Z</time></trkpt><trkpt lat="43.2279039" lon="12.8647007"><ele>563.6666666666666</ele><time>2026-04-04T11:25:28.272Z</time></trkpt><trkpt lat="43.2277313" lon="12.8645483"><ele>563.3333333333333</ele><time>2026-04-04T11:25:29.27Z</time></trkpt><trkpt lat="43.2275605" lon="12.8644037"><ele>563.0</ele><time>2026-04-04T11:25:30.28Z</time></trkpt><trkpt lat="43.2274038" lon="12.8642771"><ele>562.0</ele><time>2026-04-04T11:25:31.279Z</time></trkpt><trkpt lat="43.227252" lon="12.8641602"><ele>561.0</ele><time>2026-04-04T11:25:32.279Z</time></trkpt><trkpt lat="43.2271074" lon="12.864051"><ele>560.0</ele><time>2026-04-04T11:25:33.272Z</time></trkpt><trkpt lat="43.226978" lon="12.8639487"><ele>560.0</ele><time>2026-04-04T11:25:34.274Z</time></trkpt><trkpt lat="43.2268567" lon="12.8638531"><ele>560.0</ele><time>2026-04-04T11:25:35.272Z</time></trkpt><trkpt lat="43.2267417" lon="12.863765"><ele>560.0</ele><time>2026-04-04T11:25:36.272Z</time></trkpt><trkpt lat="43.2266324" lon="12.8636799"><ele>560.0</ele><time>2026-04-04T11:25:37.28Z</time></trkpt><trkpt lat="43.2265285" lon="12.8636022"><ele>559.75</ele><time>2026-04-04T11:25:38.276Z</time></trkpt><trkpt lat="43.2264188" lon="12.8635435"><ele>559.5</ele><time>2026-04-04T11:25:39.271Z</time></trkpt><trkpt lat="43.2262955" lon="12.8635028"><ele>559.25</ele><time>2026-04-04T11:25:40.269Z</time></trkpt><trkpt lat="43.226159" lon="12.8634842"><ele>559.0</ele><time>2026-04-04T11:25:41.271Z</time></trkpt><trkpt lat="43.2260048" lon="12.8634857"><ele>559.0</ele><time>2026-04-04T11:25:42.27Z</time></trkpt><trkpt lat="43.2258312" lon="12.8634912"><ele>559.0</ele><time>2026-04-04T11:25:43.272Z</time></trkpt><trkpt lat="43.2256428" lon="12.8635014"><ele>559.0</ele><time>2026-04-04T11:25:44.27Z</time></trkpt><trkpt lat="43.2254228" lon="12.8635083"><ele>555.0</ele><time>2026-04-04T11:25:45.272Z</time></trkpt><trkpt lat="43.2251786" lon="12.8635018"><ele>551.0</ele><time>2026-04-04T11:25:46.277Z</time></trkpt><trkpt lat="43.2249263" lon="12.8634948"><ele>549.0</ele><time>2026-04-04T11:25:47.272Z</time></trkpt><trkpt lat="43.2246659" lon="12.8634901"><ele>547.0</ele><time>2026-04-04T11:25:48.277Z</time></trkpt><trkpt lat="43.2243906" lon="12.8634893"><ele>547.0</ele><time>2026-04-04T11:25:49.276Z</time></trkpt><trkpt lat="43.2241109" lon="12.8634847"><ele>547.0</ele><time>2026-04-04T11:25:50.277Z</time></trkpt><trkpt lat="43.2238409" lon="12.8634907"><ele>544.5</ele><time>2026-04-04T11:25:51.275Z</time></trkpt><trkpt lat="43.2235726" lon="12.8634863"><ele>542.0</ele><time>2026-04-04T11:25:52.278Z</time></trkpt><trkpt lat="43.2233095" lon="12.8634943"><ele>541.0</ele><time>2026-04-04T11:25:53.271Z</time></trkpt><trkpt lat="43.2230571" lon="12.8634903"><ele>540.0</ele><time>2026-04-04T11:25:54.274Z</time></trkpt><trkpt lat="43.2228295" lon="12.8634941"><ele>540.0</ele><time>2026-04-04T11:25:55.272Z</time></trkpt><trkpt lat="43.2225994" lon="12.8634942"><ele>540.0</ele><time>2026-04-04T11:25:56.269Z</time></trkpt><trkpt lat="43.2223563" lon="12.863492"><ele>539.0</ele><time>2026-04-04T11:25:57.276Z</time></trkpt><trkpt lat="43.2221071" lon="12.8634904"><ele>538.0</ele><time>2026-04-04T11:25:58.271Z</time></trkpt><trkpt lat="43.2218572" lon="12.8634905"><ele>538.0</ele><time>2026-04-04T11:25:59.269Z</time></trkpt><trkpt lat="43.2216031" lon="12.8634888"><ele>538.0</ele><time>2026-04-04T11:26:00.274Z</time></trkpt><trkpt lat="43.2213521" lon="12.8634848"><ele>537.5</ele><time>2026-04-04T11:26:01.27Z</time></trkpt><trkpt lat="43.2211039" lon="12.8634915"><ele>537.0</ele><time>2026-04-04T11:26:02.287Z</time></trkpt><trkpt lat="43.2208628" lon="12.8635041"><ele>537.3333333333334</ele><time>2026-04-04T11:26:03.269Z</time></trkpt><trkpt lat="43.2206445" lon="12.8635055"><ele>537.6666666666667</ele><time>2026-04-04T11:26:04.27Z</time></trkpt><trkpt lat="43.2204305" lon="12.8635077"><ele>538.0</ele><time>2026-04-04T11:26:05.271Z</time></trkpt><trkpt lat="43.2202116" lon="12.8635061"><ele>538.0</ele><time>2026-04-04T11:26:06.274Z</time></trkpt><trkpt lat="43.2199907" lon="12.8635128"><ele>538.0</ele><time>2026-04-04T11:26:07.268Z</time></trkpt><trkpt lat="43.2197743" lon="12.8635024"><ele>538.0</ele><time>2026-04-04T11:26:08.269Z</time></trkpt><trkpt lat="43.219564" lon="12.8634935"><ele>538.3333333333334</ele><time>2026-04-04T11:26:09.272Z</time></trkpt><trkpt lat="43.2193449" lon="12.8634928"><ele>538.6666666666666</ele><time>2026-04-04T11:26:10.273Z</time></trkpt><trkpt lat="43.2191385" lon="12.8635024"><ele>539.0</ele><time>2026-04-04T11:26:11.276Z</time></trkpt><trkpt lat="43.2189352" lon="12.8635055"><ele>538.0</ele><time>2026-04-04T11:26:12.268Z</time></trkpt><trkpt lat="43.2187353" lon="12.8635025"><ele>537.0</ele><time>2026-04-04T11:26:13.281Z</time></trkpt><trkpt lat="43.2185307" lon="12.8634799"><ele>536.0</ele><time>2026-04-04T11:26:14.277Z</time></trkpt><trkpt lat="43.2183229" lon="12.8634237"><ele>537.0</ele><time>2026-04-04T11:26:15.289Z</time></trkpt><trkpt lat="43.2181088" lon="12.8633476"><ele>538.0</ele><time>2026-04-04T11:26:16.278Z</time></trkpt><trkpt lat="43.2179069" lon="12.8632725"><ele>539.0</ele><time>2026-04-04T11:26:17.279Z</time></trkpt><trkpt lat="43.2177123" lon="12.8631974"><ele>539.0</ele><time>2026-04-04T11:26:18.275Z</time></trkpt><trkpt lat="43.2175166" lon="12.8631232"><ele>539.0</ele><time>2026-04-04T11:26:19.274Z</time></trkpt><trkpt lat="43.2173077" lon="12.8630486"><ele>539.0</ele><time>2026-04-04T11:26:20.288Z</time></trkpt><trkpt lat="43.2170965" lon="12.8629678"><ele>534.5</ele><time>2026-04-04T11:26:21.271Z</time></trkpt><trkpt lat="43.2168733" lon="12.8628752"><ele>530.0</ele><time>2026-04-04T11:26:22.282Z</time></trkpt><trkpt lat="43.2166423" lon="12.8627749"><ele>529.5</ele><time>2026-04-04T11:26:23.278Z</time></trkpt><trkpt lat="43.2164046" lon="12.8626761"><ele>529.0</ele><time>2026-04-04T11:26:24.276Z</time></trkpt><trkpt lat="43.2161864" lon="12.862588"><ele>529.0</ele><time>2026-04-04T11:26:25.277Z</time></trkpt><trkpt lat="43.2159821" lon="12.8624858"><ele>529.0</ele><time>2026-04-04T11:26:26.28Z</time></trkpt><trkpt lat="43.215782" lon="12.8623719"><ele>529.0</ele><time>2026-04-04T11:26:27.282Z</time></trkpt><trkpt lat="43.2155881" lon="12.8622537"><ele>527.6666666666667</ele><time>2026-04-04T11:26:28.281Z</time></trkpt><trkpt lat="43.2154009" lon="12.8621559"><ele>526.3333333333334</ele><time>2026-04-04T11:26:29.278Z</time></trkpt><trkpt lat="43.2152142" lon="12.8621023"><ele>525.0</ele><time>2026-04-04T11:26:30.279Z</time></trkpt><trkpt lat="43.2150242" lon="12.8620777"><ele>525.0</ele><time>2026-04-04T11:26:31.275Z</time></trkpt><trkpt lat="43.2148548" lon="12.8620834"><ele>525.0</ele><time>2026-04-04T11:26:32.277Z</time></trkpt><trkpt lat="43.2146754" lon="12.8621189"><ele>525.0</ele><time>2026-04-04T11:26:33.276Z</time></trkpt><trkpt lat="43.2144798" lon="12.862155"><ele>525.0</ele><time>2026-04-04T11:26:34.277Z</time></trkpt><trkpt lat="43.2142835" lon="12.8622019"><ele>525.0</ele><time>2026-04-04T11:26:35.276Z</time></trkpt><trkpt lat="43.2141085" lon="12.862218"><ele>525.0</ele><time>2026-04-04T11:26:36.273Z</time></trkpt><trkpt lat="43.2139152" lon="12.8622013"><ele>525.0</ele><time>2026-04-04T11:26:37.282Z</time></trkpt><trkpt lat="43.2137198" lon="12.8621381"><ele>525.0</ele><time>2026-04-04T11:26:38.277Z</time></trkpt><trkpt lat="43.2135261" lon="12.8620381"><ele>525.0</ele><time>2026-04-04T11:26:39.274Z</time></trkpt><trkpt lat="43.21335" lon="12.8619084"><ele>525.6666666666666</ele><time>2026-04-04T11:26:40.273Z</time></trkpt><trkpt lat="43.2131872" lon="12.8617722"><ele>526.3333333333333</ele><time>2026-04-04T11:26:41.28Z</time></trkpt><trkpt lat="43.213025" lon="12.8616532"><ele>527.0</ele><time>2026-04-04T11:26:42.294Z</time></trkpt><trkpt lat="43.2128398" lon="12.8615812"><ele>527.0</ele><time>2026-04-04T11:26:43.28Z</time></trkpt><trkpt lat="43.2126353" lon="12.8615627"><ele>527.0</ele><time>2026-04-04T11:26:44.28Z</time></trkpt><trkpt lat="43.2124165" lon="12.8615736"><ele>527.0</ele><time>2026-04-04T11:26:45.276Z</time></trkpt><trkpt lat="43.2121837" lon="12.861569"><ele>524.5</ele><time>2026-04-04T11:26:46.273Z</time></trkpt><trkpt lat="43.2119401" lon="12.8615464"><ele>522.0</ele><time>2026-04-04T11:26:47.273Z</time></trkpt><trkpt lat="43.2116939" lon="12.8615371"><ele>520.0</ele><time>2026-04-04T11:26:48.278Z</time></trkpt><trkpt lat="43.2114429" lon="12.8615289"><ele>518.0</ele><time>2026-04-04T11:26:49.273Z</time></trkpt><trkpt lat="43.2112101" lon="12.8615305"><ele>518.0</ele><time>2026-04-04T11:26:50.278Z</time></trkpt><trkpt lat="43.2109915" lon="12.8615222"><ele>518.0</ele><time>2026-04-04T11:26:51.28Z</time></trkpt><trkpt lat="43.2107767" lon="12.8615144"><ele>518.0</ele><time>2026-04-04T11:26:52.283Z</time></trkpt><trkpt lat="43.2105701" lon="12.861494"><ele>518.0</ele><time>2026-04-04T11:26:53.279Z</time></trkpt><trkpt lat="43.2103709" lon="12.86149"><ele>518.0</ele><time>2026-04-04T11:26:54.278Z</time></trkpt><trkpt lat="43.2101826" lon="12.8615522"><ele>518.0</ele><time>2026-04-04T11:26:55.274Z</time></trkpt><trkpt lat="43.2100008" lon="12.8616741"><ele>517.0</ele><time>2026-04-04T11:26:56.278Z</time></trkpt><trkpt lat="43.2097961" lon="12.8618292"><ele>516.0</ele><time>2026-04-04T11:26:57.277Z</time></trkpt><trkpt lat="43.2095937" lon="12.8619953"><ele>516.0</ele><time>2026-04-04T11:26:58.273Z</time></trkpt><trkpt lat="43.2093665" lon="12.8621273"><ele>516.0</ele><time>2026-04-04T11:26:59.275Z</time></trkpt><trkpt lat="43.2091495" lon="12.8622587"><ele>515.6666666666666</ele><time>2026-04-04T11:27:00.278Z</time></trkpt><trkpt lat="43.2089369" lon="12.8623729"><ele>515.3333333333333</ele><time>2026-04-04T11:27:01.277Z</time></trkpt><trkpt lat="43.2087283" lon="12.8624723"><ele>515.0</ele><time>2026-04-04T11:27:02.281Z</time></trkpt><trkpt lat="43.2085156" lon="12.8625684"><ele>514.0</ele><time>2026-04-04T11:27:03.278Z</time></trkpt><trkpt lat="43.2083208" lon="12.8626545"><ele>513.0</ele><time>2026-04-04T11:27:04.276Z</time></trkpt><trkpt lat="43.2081461" lon="12.8627358"><ele>512.0</ele><time>2026-04-04T11:27:05.279Z</time></trkpt><trkpt lat="43.2079829" lon="12.8627994"><ele>512.0</ele><time>2026-04-04T11:27:06.282Z</time></trkpt><trkpt lat="43.2078332" lon="12.8628662"><ele>512.0</ele><time>2026-04-04T11:27:07.278Z</time></trkpt><trkpt lat="43.207685" lon="12.8629637"><ele>512.0</ele><time>2026-04-04T11:27:08.275Z</time></trkpt><trkpt lat="43.2075328" lon="12.8630838"><ele>512.0</ele><time>2026-04-04T11:27:09.27Z</time></trkpt><trkpt lat="43.2074013" lon="12.863251"><ele>512.0</ele><time>2026-04-04T11:27:10.269Z</time></trkpt><trkpt lat="43.2072853" lon="12.8634553"><ele>512.0</ele><time>2026-04-04T11:27:11.275Z</time></trkpt><trkpt lat="43.2071743" lon="12.8636798"><ele>511.3333333333333</ele><time>2026-04-04T11:27:12.268Z</time></trkpt><trkpt lat="43.2070743" lon="12.8639326"><ele>510.66666666666663</ele><time>2026-04-04T11:27:13.278Z</time></trkpt><trkpt lat="43.2069705" lon="12.8641952"><ele>510.0</ele><time>2026-04-04T11:27:14.273Z</time></trkpt><trkpt lat="43.2068666" lon="12.8644679"><ele>510.0</ele><time>2026-04-04T11:27:15.269Z</time></trkpt><trkpt lat="43.2067675" lon="12.8646993"><ele>510.0</ele><time>2026-04-04T11:27:16.276Z</time></trkpt><trkpt lat="43.2066776" lon="12.864917"><ele>510.0</ele><time>2026-04-04T11:27:17.272Z</time></trkpt><trkpt lat="43.2065941" lon="12.8651071"><ele>511.66666666666663</ele><time>2026-04-04T11:27:18.273Z</time></trkpt><trkpt lat="43.2064883" lon="12.8652649"><ele>513.3333333333333</ele><time>2026-04-04T11:27:19.27Z</time></trkpt><trkpt lat="43.206355" lon="12.8653556"><ele>515.0</ele><time>2026-04-04T11:27:20.275Z</time></trkpt><trkpt lat="43.2061826" lon="12.8653861"><ele>515.0</ele><time>2026-04-04T11:27:21.279Z</time></trkpt><trkpt lat="43.2059865" lon="12.8653754"><ele>515.0</ele><time>2026-04-04T11:27:22.279Z</time></trkpt><trkpt lat="43.2057846" lon="12.8653773"><ele>515.0</ele><time>2026-04-04T11:27:23.272Z</time></trkpt><trkpt lat="43.2055516" lon="12.8653817"><ele>514.0</ele><time>2026-04-04T11:27:24.269Z</time></trkpt><trkpt lat="43.2053074" lon="12.8653876"><ele>513.0</ele><time>2026-04-04T11:27:25.269Z</time></trkpt><trkpt lat="43.2050681" lon="12.865394"><ele>513.0</ele><time>2026-04-04T11:27:26.282Z</time></trkpt><trkpt lat="43.2048524" lon="12.865396"><ele>513.0</ele><time>2026-04-04T11:27:27.298Z</time></trkpt><trkpt lat="43.2046371" lon="12.8653937"><ele>513.0</ele><time>2026-04-04T11:27:28.272Z</time></trkpt><trkpt lat="43.2044205" lon="12.8653994"><ele>512.6666666666666</ele><time>2026-04-04T11:27:29.277Z</time></trkpt><trkpt lat="43.2042136" lon="12.8654165"><ele>512.3333333333333</ele><time>2026-04-04T11:27:30.269Z</time></trkpt><trkpt lat="43.2040243" lon="12.8654299"><ele>512.0</ele><time>2026-04-04T11:27:31.268Z</time></trkpt><trkpt lat="43.2038428" lon="12.8654611"><ele>511.3333333333333</ele><time>2026-04-04T11:27:32.275Z</time></trkpt><trkpt lat="43.2036724" lon="12.8655166"><ele>510.66666666666663</ele><time>2026-04-04T11:27:33.27Z</time></trkpt><trkpt lat="43.203503" lon="12.865593"><ele>510.0</ele><time>2026-04-04T11:27:34.273Z</time></trkpt><trkpt lat="43.2033225" lon="12.8656799"><ele>509.33333333333337</ele><time>2026-04-04T11:27:35.272Z</time></trkpt><trkpt lat="43.2031165" lon="12.8657685"><ele>508.6666666666667</ele><time>2026-04-04T11:27:36.271Z</time></trkpt><trkpt lat="43.2029084" lon="12.8658597"><ele>508.0</ele><time>2026-04-04T11:27:37.272Z</time></trkpt><trkpt lat="43.2026922" lon="12.8659389"><ele>511.0</ele><time>2026-04-04T11:27:38.274Z</time></trkpt><trkpt lat="43.2024675" lon="12.8660141"><ele>514.0</ele><time>2026-04-04T11:27:39.272Z</time></trkpt><trkpt lat="43.2022363" lon="12.8660759"><ele>514.0</ele><time>2026-04-04T11:27:40.276Z</time></trkpt><trkpt lat="43.2020022" lon="12.8661395"><ele>514.0</ele><time>2026-04-04T11:27:41.274Z</time></trkpt><trkpt lat="43.2017788" lon="12.8662081"><ele>514.0</ele><time>2026-04-04T11:27:42.276Z</time></trkpt><trkpt lat="43.2015545" lon="12.8662709"><ele>514.0</ele><time>2026-04-04T11:27:43.276Z</time></trkpt><trkpt lat="43.2013283" lon="12.8663241"><ele>511.33333333333337</ele><time>2026-04-04T11:27:44.274Z</time></trkpt><trkpt lat="43.2011106" lon="12.8663649"><ele>508.66666666666663</ele><time>2026-04-04T11:27:45.272Z</time></trkpt><trkpt lat="43.2009076" lon="12.8664136"><ele>506.0</ele><time>2026-04-04T11:27:46.277Z</time></trkpt><trkpt lat="43.2007083" lon="12.8664584"><ele>505.0</ele><time>2026-04-04T11:27:47.278Z</time></trkpt><trkpt lat="43.2005327" lon="12.8665116"><ele>504.0</ele><time>2026-04-04T11:27:48.272Z</time></trkpt><trkpt lat="43.2003649" lon="12.8665756"><ele>503.0</ele><time>2026-04-04T11:27:49.276Z</time></trkpt><trkpt lat="43.2001981" lon="12.8666752"><ele>504.3333333333333</ele><time>2026-04-04T11:27:50.277Z</time></trkpt><trkpt lat="43.2000274" lon="12.8668104"><ele>505.66666666666663</ele><time>2026-04-04T11:27:51.293Z</time></trkpt><trkpt lat="43.1998548" lon="12.8669769"><ele>507.0</ele><time>2026-04-04T11:27:52.283Z</time></trkpt><trkpt lat="43.1996915" lon="12.8671517"><ele>507.0</ele><time>2026-04-04T11:27:53.276Z</time></trkpt><trkpt lat="43.1995288" lon="12.8673064"><ele>507.0</ele><time>2026-04-04T11:27:54.273Z</time></trkpt><trkpt lat="43.1993465" lon="12.8674064"><ele>507.0</ele><time>2026-04-04T11:27:55.272Z</time></trkpt><trkpt lat="43.1991243" lon="12.8674627"><ele>504.5</ele><time>2026-04-04T11:27:56.286Z</time></trkpt><trkpt lat="43.1988967" lon="12.8675295"><ele>502.0</ele><time>2026-04-04T11:27:57.265Z</time></trkpt><trkpt lat="43.1986652" lon="12.867603"><ele>511.0</ele><time>2026-04-04T11:27:58.266Z</time></trkpt><trkpt lat="43.1984219" lon="12.8676912"><ele>520.0</ele><time>2026-04-04T11:27:59.265Z</time></trkpt><trkpt lat="43.1981752" lon="12.8677871"><ele>515.5</ele><time>2026-04-04T11:28:00.274Z</time></trkpt><trkpt lat="43.1979183" lon="12.8678832"><ele>511.0</ele><time>2026-04-04T11:28:01.269Z</time></trkpt><trkpt lat="43.1976567" lon="12.8679839"><ele>511.0</ele><time>2026-04-04T11:28:02.274Z</time></trkpt><trkpt lat="43.1974064" lon="12.8680733"><ele>511.0</ele><time>2026-04-04T11:28:03.268Z</time></trkpt><trkpt lat="43.1971633" lon="12.8681515"><ele>507.0</ele><time>2026-04-04T11:28:04.272Z</time></trkpt><trkpt lat="43.1969273" lon="12.868234"><ele>503.0</ele><time>2026-04-04T11:28:05.272Z</time></trkpt><trkpt lat="43.1966898" lon="12.8683187"><ele>499.5</ele><time>2026-04-04T11:28:06.265Z</time></trkpt><trkpt lat="43.1964587" lon="12.8684165"><ele>496.0</ele><time>2026-04-04T11:28:07.268Z</time></trkpt><trkpt lat="43.196235" lon="12.8685237"><ele>503.5</ele><time>2026-04-04T11:28:08.263Z</time></trkpt><trkpt lat="43.1960151" lon="12.8686266"><ele>511.0</ele><time>2026-04-04T11:28:09.27Z</time></trkpt><trkpt lat="43.195798" lon="12.8687167"><ele>509.0</ele><time>2026-04-04T11:28:10.268Z</time></trkpt><trkpt lat="43.1955915" lon="12.8688065"><ele>507.0</ele><time>2026-04-04T11:28:11.269Z</time></trkpt><trkpt lat="43.1953949" lon="12.868892"><ele>505.0</ele><time>2026-04-04T11:28:12.265Z</time></trkpt><trkpt lat="43.1952016" lon="12.8689735"><ele>505.0</ele><time>2026-04-04T11:28:13.269Z</time></trkpt><trkpt lat="43.1949973" lon="12.8690465"><ele>505.0</ele><time>2026-04-04T11:28:14.268Z</time></trkpt><trkpt lat="43.1947732" lon="12.869094"><ele>505.0</ele><time>2026-04-04T11:28:15.269Z</time></trkpt><trkpt lat="43.1945419" lon="12.8691268"><ele>503.5</ele><time>2026-04-04T11:28:16.269Z</time></trkpt><trkpt lat="43.1942922" lon="12.8691106"><ele>502.0</ele><time>2026-04-04T11:28:17.268Z</time></trkpt><trkpt lat="43.1940516" lon="12.8691106"><ele>501.0</ele><time>2026-04-04T11:28:18.271Z</time></trkpt><trkpt lat="43.1938129" lon="12.8691223"><ele>500.0</ele><time>2026-04-04T11:28:19.274Z</time></trkpt><trkpt lat="43.1935695" lon="12.8691525"><ele>500.0</ele><time>2026-04-04T11:28:20.271Z</time></trkpt><trkpt lat="43.1933236" lon="12.8691862"><ele>500.0</ele><time>2026-04-04T11:28:21.272Z</time></trkpt><trkpt lat="43.1930729" lon="12.8692153"><ele>500.5</ele><time>2026-04-04T11:28:22.271Z</time></trkpt><trkpt lat="43.1928218" lon="12.8692272"><ele>501.0</ele><time>2026-04-04T11:28:23.271Z</time></trkpt><trkpt lat="43.1925844" lon="12.869233"><ele>501.0</ele><time>2026-04-04T11:28:24.271Z</time></trkpt><trkpt lat="43.1923558" lon="12.8692258"><ele>501.0</ele><time>2026-04-04T11:28:25.271Z</time></trkpt><trkpt lat="43.1921567" lon="12.8692013"><ele>501.0</ele><time>2026-04-04T11:28:26.265Z</time></trkpt><trkpt lat="43.191962" lon="12.8691476"><ele>502.0</ele><time>2026-04-04T11:28:27.268Z</time></trkpt><trkpt lat="43.1917636" lon="12.8690592"><ele>503.0</ele><time>2026-04-04T11:28:28.269Z</time></trkpt><trkpt lat="43.1915895" lon="12.8689649"><ele>504.0</ele><time>2026-04-04T11:28:29.267Z</time></trkpt><trkpt lat="43.191428" lon="12.8688736"><ele>505.66666666666663</ele><time>2026-04-04T11:28:30.269Z</time></trkpt><trkpt lat="43.191275" lon="12.8687935"><ele>507.3333333333333</ele><time>2026-04-04T11:28:31.27Z</time></trkpt><trkpt lat="43.1911084" lon="12.8687211"><ele>509.0</ele><time>2026-04-04T11:28:32.267Z</time></trkpt><trkpt lat="43.1909336" lon="12.8686962"><ele>509.0</ele><time>2026-04-04T11:28:33.277Z</time></trkpt><trkpt lat="43.1907411" lon="12.868727"><ele>509.0</ele><time>2026-04-04T11:28:34.267Z</time></trkpt><trkpt lat="43.1905278" lon="12.8688088"><ele>509.0</ele><time>2026-04-04T11:28:35.268Z</time></trkpt><trkpt lat="43.1903078" lon="12.8688884"><ele>507.66666666666663</ele><time>2026-04-04T11:28:36.265Z</time></trkpt><trkpt lat="43.1900804" lon="12.8689526"><ele>506.33333333333337</ele><time>2026-04-04T11:28:37.271Z</time></trkpt><trkpt lat="43.1898839" lon="12.8690033"><ele>505.0</ele><time>2026-04-04T11:28:38.267Z</time></trkpt><trkpt lat="43.1896949" lon="12.8690369"><ele>501.0</ele><time>2026-04-04T11:28:39.267Z</time></trkpt><trkpt lat="43.1895301" lon="12.869073"><ele>497.0</ele><time>2026-04-04T11:28:40.272Z</time></trkpt><trkpt lat="43.1893615" lon="12.869145"><ele>493.0</ele><time>2026-04-04T11:28:41.272Z</time></trkpt><trkpt lat="43.1891889" lon="12.8692659"><ele>493.6666666666667</ele><time>2026-04-04T11:28:42.272Z</time></trkpt><trkpt lat="43.1890119" lon="12.8694192"><ele>494.33333333333337</ele><time>2026-04-04T11:28:43.279Z</time></trkpt><trkpt lat="43.1888363" lon="12.8695711"><ele>495.0</ele><time>2026-04-04T11:28:44.267Z</time></trkpt><trkpt lat="43.188676" lon="12.8697149"><ele>495.0</ele><time>2026-04-04T11:28:45.27Z</time></trkpt><trkpt lat="43.1885335" lon="12.8698717"><ele>495.0</ele><time>2026-04-04T11:28:46.274Z</time></trkpt><trkpt lat="43.188392" lon="12.8700607"><ele>495.0</ele><time>2026-04-04T11:28:47.276Z</time></trkpt><trkpt lat="43.1882446" lon="12.8702579"><ele>493.33333333333337</ele><time>2026-04-04T11:28:48.276Z</time></trkpt><trkpt lat="43.1880902" lon="12.870464"><ele>491.6666666666667</ele><time>2026-04-04T11:28:49.273Z</time></trkpt><trkpt lat="43.1879542" lon="12.870677"><ele>490.0</ele><time>2026-04-04T11:28:50.274Z</time></trkpt><trkpt lat="43.1878489" lon="12.8708746"><ele>492.6666666666667</ele><time>2026-04-04T11:28:51.273Z</time></trkpt><trkpt lat="43.1877544" lon="12.8710667"><ele>495.33333333333337</ele><time>2026-04-04T11:28:52.275Z</time></trkpt><trkpt lat="43.1876423" lon="12.8712509"><ele>498.0</ele><time>2026-04-04T11:28:53.267Z</time></trkpt><trkpt lat="43.1875068" lon="12.8713983"><ele>498.0</ele><time>2026-04-04T11:28:54.27Z</time></trkpt><trkpt lat="43.1873463" lon="12.8715277"><ele>498.0</ele><time>2026-04-04T11:28:55.267Z</time></trkpt><trkpt lat="43.1871833" lon="12.8716644"><ele>498.0</ele><time>2026-04-04T11:28:56.269Z</time></trkpt><trkpt lat="43.1870245" lon="12.8718507"><ele>497.66666666666663</ele><time>2026-04-04T11:28:57.269Z</time></trkpt><trkpt lat="43.1868806" lon="12.8720398"><ele>497.3333333333333</ele><time>2026-04-04T11:28:58.269Z</time></trkpt><trkpt lat="43.1867553" lon="12.8722129"><ele>497.0</ele><time>2026-04-04T11:28:59.27Z</time></trkpt><trkpt lat="43.1866367" lon="12.872365"><ele>496.75</ele><time>2026-04-04T11:29:00.265Z</time></trkpt><trkpt lat="43.1865055" lon="12.8724881"><ele>496.5</ele><time>2026-04-04T11:29:01.291Z</time></trkpt><trkpt lat="43.1863869" lon="12.8726071"><ele>496.25</ele><time>2026-04-04T11:29:02.266Z</time></trkpt><trkpt lat="43.1863015" lon="12.8727309"><ele>496.0</ele><time>2026-04-04T11:29:03.266Z</time></trkpt><trkpt lat="43.1862488" lon="12.8728829"><ele>494.0</ele><time>2026-04-04T11:29:04.263Z</time></trkpt><trkpt lat="43.1862449" lon="12.8730714"><ele>492.0</ele><time>2026-04-04T11:29:05.268Z</time></trkpt><trkpt lat="43.1862912" lon="12.8732974"><ele>490.0</ele><time>2026-04-04T11:29:06.266Z</time></trkpt><trkpt lat="43.1863533" lon="12.8735005"><ele>489.5</ele><time>2026-04-04T11:29:07.291Z</time></trkpt><trkpt lat="43.1863798" lon="12.8736873"><ele>489.0</ele><time>2026-04-04T11:29:08.261Z</time></trkpt><trkpt lat="43.1863876" lon="12.8738812"><ele>488.5</ele><time>2026-04-04T11:29:09.261Z</time></trkpt><trkpt lat="43.1863514" lon="12.8740904"><ele>488.0</ele><time>2026-04-04T11:29:10.261Z</time></trkpt><trkpt lat="43.1862752" lon="12.8743019"><ele>490.3333333333333</ele><time>2026-04-04T11:29:11.259Z</time></trkpt><trkpt lat="43.186165" lon="12.8745197"><ele>492.66666666666663</ele><time>2026-04-04T11:29:12.256Z</time></trkpt><trkpt lat="43.1860489" lon="12.8746904"><ele>495.0</ele><time>2026-04-04T11:29:13.256Z</time></trkpt><trkpt lat="43.1859103" lon="12.8748056"><ele>495.0</ele><time>2026-04-04T11:29:14.254Z</time></trkpt><trkpt lat="43.1857637" lon="12.8749026"><ele>495.0</ele><time>2026-04-04T11:29:15.284Z</time></trkpt><trkpt lat="43.1856415" lon="12.8749882"><ele>495.0</ele><time>2026-04-04T11:29:16.262Z</time></trkpt><trkpt lat="43.1855507" lon="12.8751149"><ele>495.0</ele><time>2026-04-04T11:29:17.264Z</time></trkpt><trkpt lat="43.185519" lon="12.875294"><ele>494.33333333333337</ele><time>2026-04-04T11:29:18.264Z</time></trkpt><trkpt lat="43.1855047" lon="12.8755261"><ele>493.6666666666667</ele><time>2026-04-04T11:29:19.259Z</time></trkpt><trkpt lat="43.1854942" lon="12.875767"><ele>493.0</ele><time>2026-04-04T11:29:20.29Z</time></trkpt><trkpt lat="43.185498" lon="12.8760109"><ele>491.0</ele><time>2026-04-04T11:29:21.259Z</time></trkpt><trkpt lat="43.185522" lon="12.876254"><ele>489.0</ele><time>2026-04-04T11:29:22.263Z</time></trkpt><trkpt lat="43.1855659" lon="12.8765238"><ele>487.0</ele><time>2026-04-04T11:29:23.26Z</time></trkpt><trkpt lat="43.1856129" lon="12.8768272"><ele>485.33333333333337</ele><time>2026-04-04T11:29:24.262Z</time></trkpt><trkpt lat="43.1856626" lon="12.8771138"><ele>483.66666666666663</ele><time>2026-04-04T11:29:25.286Z</time></trkpt><trkpt lat="43.1856989" lon="12.8773692"><ele>482.0</ele><time>2026-04-04T11:29:26.264Z</time></trkpt><trkpt lat="43.185718" lon="12.8776197"><ele>487.66666666666663</ele><time>2026-04-04T11:29:27.265Z</time></trkpt><trkpt lat="43.1857256" lon="12.877859"><ele>493.33333333333337</ele><time>2026-04-04T11:29:28.264Z</time></trkpt><trkpt lat="43.1857169" lon="12.8780914"><ele>499.0</ele><time>2026-04-04T11:29:29.265Z</time></trkpt><trkpt lat="43.1856891" lon="12.8783029"><ele>496.33333333333337</ele><time>2026-04-04T11:29:30.264Z</time></trkpt><trkpt lat="43.185641" lon="12.8784921"><ele>493.66666666666663</ele><time>2026-04-04T11:29:31.262Z</time></trkpt><trkpt lat="43.1855324" lon="12.8786348"><ele>491.0</ele><time>2026-04-04T11:29:32.259Z</time></trkpt><trkpt lat="43.1853897" lon="12.8787318"><ele>491.0</ele><time>2026-04-04T11:29:33.26Z</time></trkpt><trkpt lat="43.1852213" lon="12.8787905"><ele>491.0</ele><time>2026-04-04T11:29:34.264Z</time></trkpt><trkpt lat="43.1850482" lon="12.8788284"><ele>491.0</ele><time>2026-04-04T11:29:35.26Z</time></trkpt><trkpt lat="43.1848662" lon="12.8788082"><ele>487.66666666666663</ele><time>2026-04-04T11:29:36.262Z</time></trkpt><trkpt lat="43.1847016" lon="12.8787024"><ele>484.33333333333337</ele><time>2026-04-04T11:29:37.257Z</time></trkpt><trkpt lat="43.1845293" lon="12.8786348"><ele>481.0</ele><time>2026-04-04T11:29:38.262Z</time></trkpt><trkpt lat="43.1843494" lon="12.8785875"><ele>481.0</ele><time>2026-04-04T11:29:39.265Z</time></trkpt><trkpt lat="43.1841768" lon="12.8785533"><ele>481.0</ele><time>2026-04-04T11:29:40.262Z</time></trkpt><trkpt lat="43.1840266" lon="12.8785432"><ele>481.0</ele><time>2026-04-04T11:29:41.273Z</time></trkpt><trkpt lat="43.1838809" lon="12.8785607"><ele>480.75</ele><time>2026-04-04T11:29:42.271Z</time></trkpt><trkpt lat="43.1837485" lon="12.8786246"><ele>480.5</ele><time>2026-04-04T11:29:43.277Z</time></trkpt><trkpt lat="43.1836381" lon="12.8787436"><ele>480.25</ele><time>2026-04-04T11:29:44.272Z</time></trkpt><trkpt lat="43.1835481" lon="12.8788601"><ele>480.0</ele><time>2026-04-04T11:29:45.275Z</time></trkpt><trkpt lat="43.1834808" lon="12.8789755"><ele>480.0</ele><time>2026-04-04T11:29:46.271Z</time></trkpt><trkpt lat="43.1834152" lon="12.8790697"><ele>480.0</ele><time>2026-04-04T11:29:47.266Z</time></trkpt><trkpt lat="43.1833562" lon="12.8791466"><ele>480.0</ele><time>2026-04-04T11:29:48.274Z</time></trkpt><trkpt lat="43.1833151" lon="12.8792161"><ele>480.0</ele><time>2026-04-04T11:29:49.273Z</time></trkpt><trkpt lat="43.183296" lon="12.8793278"><ele>480.0</ele><time>2026-04-04T11:29:51.272Z</time></trkpt><trkpt lat="43.1833714" lon="12.8794679"><ele>479.75</ele><time>2026-04-04T11:30:20.273Z</time></trkpt><trkpt lat="43.1834585" lon="12.8795601"><ele>479.5</ele><time>2026-04-04T11:30:21.278Z</time></trkpt><trkpt lat="43.1835799" lon="12.879675"><ele>479.25</ele><time>2026-04-04T11:30:22.273Z</time></trkpt><trkpt lat="43.1837163" lon="12.8798241"><ele>479.0</ele><time>2026-04-04T11:30:23.269Z</time></trkpt><trkpt lat="43.1838881" lon="12.8800257"><ele>479.5</ele><time>2026-04-04T11:30:24.271Z</time></trkpt><trkpt lat="43.1840881" lon="12.8802607"><ele>480.0</ele><time>2026-04-04T11:30:25.267Z</time></trkpt><trkpt lat="43.1842831" lon="12.880466"><ele>480.0</ele><time>2026-04-04T11:30:26.268Z</time></trkpt><trkpt lat="43.1844419" lon="12.8806415"><ele>480.0</ele><time>2026-04-04T11:30:27.274Z</time></trkpt><trkpt lat="43.1845816" lon="12.8808191"><ele>480.0</ele><time>2026-04-04T11:30:28.27Z</time></trkpt><trkpt lat="43.1847036" lon="12.8810251"><ele>480.33333333333337</ele><time>2026-04-04T11:30:29.281Z</time></trkpt><trkpt lat="43.1847913" lon="12.8812509"><ele>480.6666666666667</ele><time>2026-04-04T11:30:30.276Z</time></trkpt><trkpt lat="43.1848738" lon="12.8814607"><ele>481.0</ele><time>2026-04-04T11:30:31.276Z</time></trkpt><trkpt lat="43.1849577" lon="12.8816533"><ele>482.0</ele><time>2026-04-04T11:30:32.271Z</time></trkpt><trkpt lat="43.1850105" lon="12.8818418"><ele>483.0</ele><time>2026-04-04T11:30:33.275Z</time></trkpt><trkpt lat="43.1850296" lon="12.8820518"><ele>484.0</ele><time>2026-04-04T11:30:34.278Z</time></trkpt><trkpt lat="43.1850088" lon="12.8822832"><ele>484.0</ele><time>2026-04-04T11:30:35.272Z</time></trkpt><trkpt lat="43.1849948" lon="12.8825379"><ele>484.0</ele><time>2026-04-04T11:30:36.291Z</time></trkpt><trkpt lat="43.1849871" lon="12.8827963"><ele>484.0</ele><time>2026-04-04T11:30:37.271Z</time></trkpt><trkpt lat="43.1849821" lon="12.8830272"><ele>484.33333333333337</ele><time>2026-04-04T11:30:38.272Z</time></trkpt><trkpt lat="43.1849549" lon="12.8832457"><ele>484.66666666666663</ele><time>2026-04-04T11:30:39.264Z</time></trkpt><trkpt lat="43.1849118" lon="12.8834656"><ele>485.0</ele><time>2026-04-04T11:30:40.276Z</time></trkpt><trkpt lat="43.184835" lon="12.8836708"><ele>485.75</ele><time>2026-04-04T11:30:41.266Z</time></trkpt><trkpt lat="43.1847425" lon="12.8838437"><ele>486.5</ele><time>2026-04-04T11:30:42.267Z</time></trkpt><trkpt lat="43.1846932" lon="12.8840304"><ele>487.25</ele><time>2026-04-04T11:30:43.268Z</time></trkpt><trkpt lat="43.1846944" lon="12.8842219"><ele>488.0</ele><time>2026-04-04T11:30:44.286Z</time></trkpt><trkpt lat="43.1847519" lon="12.8844293"><ele>489.0</ele><time>2026-04-04T11:30:45.276Z</time></trkpt><trkpt lat="43.1848603" lon="12.8846593"><ele>490.0</ele><time>2026-04-04T11:30:46.277Z</time></trkpt><trkpt lat="43.1849301" lon="12.8849168"><ele>491.0</ele><time>2026-04-04T11:30:47.27Z</time></trkpt><trkpt lat="43.1850144" lon="12.8851788"><ele>488.0</ele><time>2026-04-04T11:30:48.272Z</time></trkpt><trkpt lat="43.1850921" lon="12.8854223"><ele>485.0</ele><time>2026-04-04T11:30:49.275Z</time></trkpt><trkpt lat="43.1851739" lon="12.8856724"><ele>482.0</ele><time>2026-04-04T11:30:50.271Z</time></trkpt><trkpt lat="43.1852495" lon="12.8859127"><ele>481.0</ele><time>2026-04-04T11:30:51.272Z</time></trkpt><trkpt lat="43.1853231" lon="12.886142"><ele>480.0</ele><time>2026-04-04T11:30:52.277Z</time></trkpt><trkpt lat="43.1854008" lon="12.8863686"><ele>479.0</ele><time>2026-04-04T11:30:53.273Z</time></trkpt><trkpt lat="43.1854631" lon="12.8865847"><ele>479.66666666666663</ele><time>2026-04-04T11:30:54.299Z</time></trkpt><trkpt lat="43.1855259" lon="12.8867893"><ele>480.33333333333337</ele><time>2026-04-04T11:30:55.275Z</time></trkpt><trkpt lat="43.1855894" lon="12.886996"><ele>481.0</ele><time>2026-04-04T11:30:56.269Z</time></trkpt><trkpt lat="43.1856546" lon="12.8872107"><ele>482.0</ele><time>2026-04-04T11:30:57.272Z</time></trkpt><trkpt lat="43.1857025" lon="12.8874121"><ele>483.0</ele><time>2026-04-04T11:30:58.273Z</time></trkpt><trkpt lat="43.1857451" lon="12.8876079"><ele>484.0</ele><time>2026-04-04T11:30:59.275Z</time></trkpt><trkpt lat="43.1857783" lon="12.8878013"><ele>485.0</ele><time>2026-04-04T11:31:00.271Z</time></trkpt><trkpt lat="43.1858005" lon="12.8880045"><ele>485.0</ele><time>2026-04-04T11:31:01.27Z</time></trkpt><trkpt lat="43.1858104" lon="12.8882027"><ele>485.0</ele><time>2026-04-04T11:31:02.273Z</time></trkpt><trkpt lat="43.1858203" lon="12.888374"><ele>485.0</ele><time>2026-04-04T11:31:03.271Z</time></trkpt><trkpt lat="43.185842" lon="12.8885294"><ele>485.0</ele><time>2026-04-04T11:31:04.275Z</time></trkpt><trkpt lat="43.1858895" lon="12.8886926"><ele>484.66666666666663</ele><time>2026-04-04T11:31:05.263Z</time></trkpt><trkpt lat="43.1859606" lon="12.8888548"><ele>484.33333333333337</ele><time>2026-04-04T11:31:06.268Z</time></trkpt><trkpt lat="43.1860744" lon="12.888981"><ele>484.0</ele><time>2026-04-04T11:31:07.266Z</time></trkpt><trkpt lat="43.1862384" lon="12.8890318"><ele>484.0</ele><time>2026-04-04T11:31:08.26Z</time></trkpt><trkpt lat="43.1863982" lon="12.8890425"><ele>484.0</ele><time>2026-04-04T11:31:09.258Z</time></trkpt><trkpt lat="43.1865583" lon="12.8890119"><ele>484.0</ele><time>2026-04-04T11:31:10.26Z</time></trkpt><trkpt lat="43.1867133" lon="12.8889595"><ele>483.33333333333337</ele><time>2026-04-04T11:31:11.268Z</time></trkpt><trkpt lat="43.1868694" lon="12.8888699"><ele>482.66666666666663</ele><time>2026-04-04T11:31:12.275Z</time></trkpt><trkpt lat="43.1870386" lon="12.8887903"><ele>482.0</ele><time>2026-04-04T11:31:13.267Z</time></trkpt><trkpt lat="43.1872082" lon="12.8887101"><ele>480.0</ele><time>2026-04-04T11:31:14.258Z</time></trkpt><trkpt lat="43.1873793" lon="12.8886826"><ele>478.0</ele><time>2026-04-04T11:31:15.261Z</time></trkpt><trkpt lat="43.1875646" lon="12.888699"><ele>476.0</ele><time>2026-04-04T11:31:16.266Z</time></trkpt><trkpt lat="43.187726" lon="12.8887546"><ele>476.0</ele><time>2026-04-04T11:31:17.262Z</time></trkpt><trkpt lat="43.1878828" lon="12.8888051"><ele>476.0</ele><time>2026-04-04T11:31:18.265Z</time></trkpt><trkpt lat="43.1880312" lon="12.888911"><ele>476.0</ele><time>2026-04-04T11:31:19.268Z</time></trkpt><trkpt lat="43.1881701" lon="12.8890692"><ele>475.66666666666663</ele><time>2026-04-04T11:31:20.271Z</time></trkpt><trkpt lat="43.1883054" lon="12.8892539"><ele>475.33333333333337</ele><time>2026-04-04T11:31:21.264Z</time></trkpt><trkpt lat="43.1884146" lon="12.8894542"><ele>475.0</ele><time>2026-04-04T11:31:22.278Z</time></trkpt><trkpt lat="43.1885062" lon="12.889668"><ele>475.0</ele><time>2026-04-04T11:31:23.265Z</time></trkpt><trkpt lat="43.1886024" lon="12.8898788"><ele>475.0</ele><time>2026-04-04T11:31:24.267Z</time></trkpt><trkpt lat="43.1887131" lon="12.8900786"><ele>475.0</ele><time>2026-04-04T11:31:25.27Z</time></trkpt><trkpt lat="43.1888446" lon="12.8902944"><ele>478.5</ele><time>2026-04-04T11:31:26.268Z</time></trkpt><trkpt lat="43.1890177" lon="12.890548"><ele>482.0</ele><time>2026-04-04T11:31:27.267Z</time></trkpt><trkpt lat="43.1892041" lon="12.8907996"><ele>478.5</ele><time>2026-04-04T11:31:28.268Z</time></trkpt><trkpt lat="43.1893849" lon="12.8910473"><ele>475.0</ele><time>2026-04-04T11:31:29.27Z</time></trkpt><trkpt lat="43.1895578" lon="12.8912591"><ele>475.0</ele><time>2026-04-04T11:31:30.275Z</time></trkpt><trkpt lat="43.1897201" lon="12.8914695"><ele>475.0</ele><time>2026-04-04T11:31:31.274Z</time></trkpt><trkpt lat="43.1898697" lon="12.8916935"><ele>475.0</ele><time>2026-04-04T11:31:32.272Z</time></trkpt><trkpt lat="43.1900114" lon="12.8919291"><ele>477.0</ele><time>2026-04-04T11:31:33.272Z</time></trkpt><trkpt lat="43.1901333" lon="12.8921943"><ele>479.0</ele><time>2026-04-04T11:31:34.272Z</time></trkpt><trkpt lat="43.190237" lon="12.892508"><ele>479.0</ele><time>2026-04-04T11:31:35.294Z</time></trkpt><trkpt lat="43.1903331" lon="12.8928531"><ele>479.0</ele><time>2026-04-04T11:31:36.273Z</time></trkpt><trkpt lat="43.1903829" lon="12.893212"><ele>481.0</ele><time>2026-04-04T11:31:37.276Z</time></trkpt><trkpt lat="43.1904255" lon="12.8935484"><ele>483.0</ele><time>2026-04-04T11:31:38.271Z</time></trkpt><trkpt lat="43.190484" lon="12.8938283"><ele>483.0</ele><time>2026-04-04T11:31:39.268Z</time></trkpt><trkpt lat="43.1905272" lon="12.8940546"><ele>483.0</ele><time>2026-04-04T11:31:40.269Z</time></trkpt><trkpt lat="43.1905686" lon="12.8942407"><ele>483.0</ele><time>2026-04-04T11:31:41.273Z</time></trkpt><trkpt lat="43.1906138" lon="12.8943874"><ele>483.0</ele><time>2026-04-04T11:31:42.264Z</time></trkpt><trkpt lat="43.1906872" lon="12.8945268"><ele>480.0</ele><time>2026-04-04T11:31:43.273Z</time></trkpt><trkpt lat="43.1907898" lon="12.8946662"><ele>477.0</ele><time>2026-04-04T11:31:44.272Z</time></trkpt><trkpt lat="43.19095" lon="12.8947731"><ele>474.0</ele><time>2026-04-04T11:31:45.272Z</time></trkpt><trkpt lat="43.1911674" lon="12.8948465"><ele>474.0</ele><time>2026-04-04T11:31:46.275Z</time></trkpt><trkpt lat="43.1913824" lon="12.8949588"><ele>474.0</ele><time>2026-04-04T11:31:47.272Z</time></trkpt><trkpt lat="43.1915662" lon="12.895089"><ele>474.0</ele><time>2026-04-04T11:31:48.278Z</time></trkpt><trkpt lat="43.1917114" lon="12.8952616"><ele>475.0</ele><time>2026-04-04T11:31:49.277Z</time></trkpt><trkpt lat="43.1918231" lon="12.8955064"><ele>476.0</ele><time>2026-04-04T11:31:50.272Z</time></trkpt><trkpt lat="43.1919307" lon="12.8957788"><ele>477.0</ele><time>2026-04-04T11:31:51.272Z</time></trkpt><trkpt lat="43.1920441" lon="12.8960685"><ele>478.5</ele><time>2026-04-04T11:31:52.283Z</time></trkpt><trkpt lat="43.1921585" lon="12.8963471"><ele>480.0</ele><time>2026-04-04T11:31:53.276Z</time></trkpt><trkpt lat="43.1922861" lon="12.8966372"><ele>477.5</ele><time>2026-04-04T11:31:54.274Z</time></trkpt><trkpt lat="43.1924438" lon="12.8969285"><ele>475.0</ele><time>2026-04-04T11:31:55.275Z</time></trkpt><trkpt lat="43.192625" lon="12.8972288"><ele>475.0</ele><time>2026-04-04T11:31:56.298Z</time></trkpt><trkpt lat="43.1928162" lon="12.8975368"><ele>475.0</ele><time>2026-04-04T11:31:57.28Z</time></trkpt><trkpt lat="43.1929897" lon="12.8978831"><ele>473.5</ele><time>2026-04-04T11:31:58.275Z</time></trkpt><trkpt lat="43.1931385" lon="12.8982292"><ele>472.0</ele><time>2026-04-04T11:31:59.275Z</time></trkpt><trkpt lat="43.1932718" lon="12.8985413"><ele>471.5</ele><time>2026-04-04T11:32:00.274Z</time></trkpt><trkpt lat="43.193391" lon="12.8988119"><ele>471.0</ele><time>2026-04-04T11:32:01.274Z</time></trkpt><trkpt lat="43.193508" lon="12.8990914"><ele>472.0</ele><time>2026-04-04T11:32:02.273Z</time></trkpt><trkpt lat="43.1936281" lon="12.899385"><ele>473.0</ele><time>2026-04-04T11:32:03.275Z</time></trkpt><trkpt lat="43.1937583" lon="12.8996685"><ele>473.0</ele><time>2026-04-04T11:32:04.274Z</time></trkpt><trkpt lat="43.193893" lon="12.8999398"><ele>473.0</ele><time>2026-04-04T11:32:05.271Z</time></trkpt><trkpt lat="43.1940419" lon="12.9001847"><ele>472.3333333333333</ele><time>2026-04-04T11:32:06.273Z</time></trkpt><trkpt lat="43.1941878" lon="12.9004043"><ele>471.66666666666663</ele><time>2026-04-04T11:32:07.279Z</time></trkpt><trkpt lat="43.1943281" lon="12.900612"><ele>471.0</ele><time>2026-04-04T11:32:08.28Z</time></trkpt><trkpt lat="43.1944469" lon="12.9008403"><ele>472.0</ele><time>2026-04-04T11:32:09.278Z</time></trkpt><trkpt lat="43.1945359" lon="12.9010769"><ele>473.0</ele><time>2026-04-04T11:32:10.31Z</time></trkpt><trkpt lat="43.1946257" lon="12.9012909"><ele>474.0</ele><time>2026-04-04T11:32:11.286Z</time></trkpt><trkpt lat="43.1947021" lon="12.901493"><ele>474.0</ele><time>2026-04-04T11:32:12.29Z</time></trkpt><trkpt lat="43.1947499" lon="12.9017111"><ele>474.0</ele><time>2026-04-04T11:32:13.282Z</time></trkpt><trkpt lat="43.1947553" lon="12.9019428"><ele>474.0</ele><time>2026-04-04T11:32:14.288Z</time></trkpt><trkpt lat="43.1947059" lon="12.9022031"><ele>474.0</ele><time>2026-04-04T11:32:15.294Z</time></trkpt><trkpt lat="43.1946565" lon="12.9024844"><ele>474.0</ele><time>2026-04-04T11:32:16.278Z</time></trkpt><trkpt lat="43.1946032" lon="12.9027954"><ele>474.0</ele><time>2026-04-04T11:32:17.277Z</time></trkpt><trkpt lat="43.1945492" lon="12.9031256"><ele>470.0</ele><time>2026-04-04T11:32:18.275Z</time></trkpt><trkpt lat="43.1945142" lon="12.9034658"><ele>466.0</ele><time>2026-04-04T11:32:19.281Z</time></trkpt><trkpt lat="43.1944822" lon="12.9037931"><ele>466.0</ele><time>2026-04-04T11:32:20.273Z</time></trkpt><trkpt lat="43.1944472" lon="12.9040957"><ele>466.0</ele><time>2026-04-04T11:32:21.272Z</time></trkpt><trkpt lat="43.1944075" lon="12.9043925"><ele>466.0</ele><time>2026-04-04T11:32:22.274Z</time></trkpt><trkpt lat="43.1943694" lon="12.9046786"><ele>465.6666666666667</ele><time>2026-04-04T11:32:23.267Z</time></trkpt><trkpt lat="43.1943384" lon="12.9049423"><ele>465.33333333333337</ele><time>2026-04-04T11:32:24.267Z</time></trkpt><trkpt lat="43.1943098" lon="12.9051933"><ele>465.0</ele><time>2026-04-04T11:32:25.267Z</time></trkpt><trkpt lat="43.1943002" lon="12.905436"><ele>465.0</ele><time>2026-04-04T11:32:26.267Z</time></trkpt><trkpt lat="43.1943309" lon="12.9056748"><ele>465.0</ele><time>2026-04-04T11:32:27.268Z</time></trkpt><trkpt lat="43.1944043" lon="12.9059052"><ele>465.0</ele><time>2026-04-04T11:32:28.265Z</time></trkpt><trkpt lat="43.1945258" lon="12.9061397"><ele>465.33333333333337</ele><time>2026-04-04T11:32:29.268Z</time></trkpt><trkpt lat="43.1946671" lon="12.9063637"><ele>465.6666666666667</ele><time>2026-04-04T11:32:30.265Z</time></trkpt><trkpt lat="43.1948201" lon="12.906597"><ele>466.0</ele><time>2026-04-04T11:32:31.27Z</time></trkpt><trkpt lat="43.1949886" lon="12.9068549"><ele>466.0</ele><time>2026-04-04T11:32:32.266Z</time></trkpt><trkpt lat="43.1951499" lon="12.9071126"><ele>466.0</ele><time>2026-04-04T11:32:33.267Z</time></trkpt><trkpt lat="43.1953064" lon="12.9073581"><ele>466.0</ele><time>2026-04-04T11:32:34.261Z</time></trkpt><trkpt lat="43.1954592" lon="12.9075763"><ele>466.0</ele><time>2026-04-04T11:32:35.265Z</time></trkpt><trkpt lat="43.1955986" lon="12.9077748"><ele>466.0</ele><time>2026-04-04T11:32:36.266Z</time></trkpt><trkpt lat="43.1957286" lon="12.9079713"><ele>465.0</ele><time>2026-04-04T11:32:37.264Z</time></trkpt><trkpt lat="43.1958428" lon="12.9081389"><ele>464.0</ele><time>2026-04-04T11:32:38.269Z</time></trkpt><trkpt lat="43.1959435" lon="12.9082976"><ele>463.0</ele><time>2026-04-04T11:32:39.266Z</time></trkpt><trkpt lat="43.1960126" lon="12.908473"><ele>463.0</ele><time>2026-04-04T11:32:40.265Z</time></trkpt><trkpt lat="43.1960195" lon="12.908676"><ele>463.0</ele><time>2026-04-04T11:32:41.27Z</time></trkpt><trkpt lat="43.1959635" lon="12.9088999"><ele>463.0</ele><time>2026-04-04T11:32:42.264Z</time></trkpt><trkpt lat="43.1958708" lon="12.9091367"><ele>462.6666666666667</ele><time>2026-04-04T11:32:43.269Z</time></trkpt><trkpt lat="43.1957915" lon="12.9093901"><ele>462.33333333333337</ele><time>2026-04-04T11:32:44.26Z</time></trkpt><trkpt lat="43.1957101" lon="12.9096556"><ele>462.0</ele><time>2026-04-04T11:32:45.26Z</time></trkpt><trkpt lat="43.1956173" lon="12.90992"><ele>465.33333333333337</ele><time>2026-04-04T11:32:46.264Z</time></trkpt><trkpt lat="43.1955048" lon="12.9101683"><ele>468.6666666666667</ele><time>2026-04-04T11:32:47.271Z</time></trkpt><trkpt lat="43.1953534" lon="12.9103745"><ele>472.0</ele><time>2026-04-04T11:32:48.266Z</time></trkpt><trkpt lat="43.1951743" lon="12.9105429"><ele>472.0</ele><time>2026-04-04T11:32:49.264Z</time></trkpt><trkpt lat="43.1949923" lon="12.9107323"><ele>472.0</ele><time>2026-04-04T11:32:50.268Z</time></trkpt><trkpt lat="43.1947876" lon="12.9109219"><ele>470.0</ele><time>2026-04-04T11:32:51.266Z</time></trkpt><trkpt lat="43.1945667" lon="12.911122"><ele>468.0</ele><time>2026-04-04T11:32:52.273Z</time></trkpt><trkpt lat="43.1943524" lon="12.9113182"><ele>468.0</ele><time>2026-04-04T11:32:53.268Z</time></trkpt><trkpt lat="43.1941613" lon="12.9114956"><ele>468.0</ele><time>2026-04-04T11:32:54.266Z</time></trkpt><trkpt lat="43.1939806" lon="12.9116598"><ele>468.0</ele><time>2026-04-04T11:32:55.264Z</time></trkpt><trkpt lat="43.1937964" lon="12.9118067"><ele>464.0</ele><time>2026-04-04T11:32:56.27Z</time></trkpt><trkpt lat="43.1930246" lon="12.9123473"><ele>482.0</ele><time>2026-04-04T11:33:00.272Z</time></trkpt><trkpt lat="43.189666" lon="12.9155066"><ele>461.0</ele><time>2026-04-04T11:33:18.264Z</time></trkpt><trkpt lat="43.1863049" lon="12.916927"><ele>460.0</ele><time>2026-04-04T11:33:36.259Z</time></trkpt><trkpt lat="43.1844342" lon="12.922138"><ele>451.0</ele><time>2026-04-04T11:33:56.26Z</time></trkpt><trkpt lat="43.1840998" lon="12.9268437"><ele>450.0</ele><time>2026-04-04T11:34:14.269Z</time></trkpt><trkpt lat="43.1847423" lon="12.9324976"><ele>448.0</ele><time>2026-04-04T11:34:31.276Z</time></trkpt><trkpt lat="43.1846283" lon="12.9381345"><ele>448.0</ele><time>2026-04-04T11:34:48.274Z</time></trkpt><trkpt lat="43.1840618" lon="12.9448492"><ele>447.0</ele><time>2026-04-04T11:35:07.272Z</time></trkpt><trkpt lat="43.1815142" lon="12.9505078"><ele>445.0</ele><time>2026-04-04T11:35:35.275Z</time></trkpt><trkpt lat="43.1829571" lon="12.9538913"><ele>462.0</ele><time>2026-04-04T11:35:53.266Z</time></trkpt><trkpt lat="43.1832421" lon="12.9596404"><ele>449.0</ele><time>2026-04-04T11:36:14.264Z</time></trkpt><trkpt lat="43.1820456" lon="12.9660275"><ele>448.0</ele><time>2026-04-04T11:36:34.263Z</time></trkpt><trkpt lat="43.1816315" lon="12.9725263"><ele>444.0</ele><time>2026-04-04T11:36:56.264Z</time></trkpt><trkpt lat="43.1803843" lon="12.9759728"><ele>442.0</ele><time>2026-04-04T11:37:17.269Z</time></trkpt><trkpt lat="43.1796792" lon="12.9797352"><ele>447.0</ele><time>2026-04-04T11:37:37.263Z</time></trkpt><trkpt lat="43.1794647" lon="12.9834801"><ele>481.0</ele><time>2026-04-04T11:37:55.265Z</time></trkpt><trkpt lat="43.1777564" lon="12.9863927"><ele>439.0</ele><time>2026-04-04T11:52:17.276Z</time></trkpt><trkpt lat="43.1784553" lon="12.9890776"><ele>414.0</ele><time>2026-04-04T11:52:30.257Z</time></trkpt><trkpt lat="43.1781537" lon="12.9942608"><ele>452.0</ele><time>2026-04-04T11:54:49.283Z</time></trkpt><trkpt lat="43.1764149" lon="12.9972816"><ele>372.0</ele><time>2026-04-04T11:55:08.264Z</time></trkpt><trkpt lat="43.177707" lon="13.0007505"><ele>369.0</ele><time>2026-04-04T11:55:27.264Z</time></trkpt><trkpt lat="43.1773041" lon="13.0063428"><ele>362.0</ele><time>2026-04-04T11:55:49.298Z</time></trkpt><trkpt lat="43.1791499" lon="13.0091732"><ele>362.0</ele><time>2026-04-04T11:56:02.273Z</time></trkpt><trkpt lat="43.1818882" lon="13.0147767"><ele>357.0</ele><time>2026-04-04T11:56:26.31Z</time></trkpt><trkpt lat="43.1823835" lon="13.0205165"><ele>339.0</ele><time>2026-04-04T11:56:47.282Z</time></trkpt><trkpt lat="43.1837852" lon="13.0259462"><ele>333.0</ele><time>2026-04-04T11:57:04.303Z</time></trkpt><trkpt lat="43.1863866" lon="13.0314156"><ele>327.0</ele><time>2026-04-04T11:57:24.283Z</time></trkpt><trkpt lat="43.1882052" lon="13.0361247"><ele>327.0</ele><time>2026-04-04T12:00:04.282Z</time></trkpt><trkpt lat="43.1883173" lon="13.0362933"><ele>327.0</ele><time>2026-04-04T12:02:44.289Z</time></trkpt><trkpt lat="43.1890126" lon="13.0380363"><ele>316.0</ele><time>2026-04-04T12:03:57.291Z</time></trkpt><trkpt lat="43.1908678" lon="13.0409464"><ele>314.0</ele><time>2026-04-04T12:04:17.278Z</time></trkpt><trkpt lat="43.1924254" lon="13.0442307"><ele>314.0</ele><time>2026-04-04T12:04:36.29Z</time></trkpt><trkpt lat="43.1951859" lon="13.0470829"><ele>319.0</ele><time>2026-04-04T12:04:57.28Z</time></trkpt><trkpt lat="43.1948162" lon="13.0516949"><ele>323.0</ele><time>2026-04-04T12:05:34.274Z</time></trkpt><trkpt lat="43.1911086" lon="13.0541765"><ele>356.0</ele><time>2026-04-04T12:05:53.272Z</time></trkpt><trkpt lat="43.1870216" lon="13.0548755"><ele>346.0</ele><time>2026-04-04T12:06:21.278Z</time></trkpt><trkpt lat="43.1848943" lon="13.0554337"><ele>336.0</ele><time>2026-04-04T12:06:38.284Z</time></trkpt><trkpt lat="43.181568" lon="13.0542332"><ele>333.0</ele><time>2026-04-04T12:06:52.283Z</time></trkpt><trkpt lat="43.1768298" lon="13.0543418"><ele>334.0</ele><time>2026-04-04T12:07:10.273Z</time></trkpt><trkpt lat="43.1721719" lon="13.0555847"><ele>336.0</ele><time>2026-04-04T12:07:29.272Z</time></trkpt><trkpt lat="43.1677207" lon="13.0580153"><ele>349.0</ele><time>2026-04-04T12:07:48.271Z</time></trkpt><trkpt lat="43.1635763" lon="13.0590396"><ele>363.0</ele><time>2026-04-04T12:08:09.274Z</time></trkpt><trkpt lat="43.1599633" lon="13.0616378"><ele>391.0</ele><time>2026-04-04T12:08:29.273Z</time></trkpt><trkpt lat="43.1564607" lon="13.0610953"><ele>427.0</ele><time>2026-04-04T12:08:50.274Z</time></trkpt><trkpt lat="43.152451" lon="13.062381"><ele>471.0</ele><time>2026-04-04T12:09:37.272Z</time></trkpt><trkpt lat="43.1496742" lon="13.0626423"><ele>495.0</ele><time>2026-04-04T12:10:14.288Z</time></trkpt><trkpt lat="43.1465161" lon="13.0662884"><ele>519.0</ele><time>2026-04-04T12:10:37.284Z</time></trkpt><trkpt lat="43.1446919" lon="13.069209"><ele>541.0</ele><time>2026-04-04T12:11:07.276Z</time></trkpt><trkpt lat="43.1420898" lon="13.0681346"><ele>542.0</ele><time>2026-04-04T12:11:44.27Z</time></trkpt><trkpt lat="43.1402543" lon="13.0653983"><ele>544.0</ele><time>2026-04-04T12:11:57.292Z</time></trkpt><trkpt lat="43.1380926" lon="13.0615986"><ele>549.0</ele><time>2026-04-04T12:12:14.288Z</time></trkpt><trkpt lat="43.1346617" lon="13.06062"><ele>548.0</ele><time>2026-04-04T12:12:31.289Z</time></trkpt><trkpt lat="43.1306266" lon="13.0593088"><ele>524.0</ele><time>2026-04-04T12:12:54.287Z</time></trkpt><trkpt lat="43.1273451" lon="13.0605163"><ele>505.0</ele><time>2026-04-04T12:13:25.284Z</time></trkpt><trkpt lat="43.1257991" lon="13.0637917"><ele>463.0</ele><time>2026-04-04T12:13:55.27Z</time></trkpt><trkpt lat="43.1230006" lon="13.0663734"><ele>460.0</ele><time>2026-04-04T12:14:20.277Z</time></trkpt><trkpt lat="43.1237061" lon="13.0701089"><ele>448.0</ele><time>2026-04-04T12:14:40.28Z</time></trkpt><trkpt lat="43.1244168" lon="13.0737873"><ele>425.0</ele><time>2026-04-04T12:14:55.285Z</time></trkpt><trkpt lat="43.1265187" lon="13.0787314"><ele>424.0</ele><time>2026-04-04T12:15:16.278Z</time></trkpt><trkpt lat="43.1243592" lon="13.0823141"><ele>424.0</ele><time>2026-04-04T12:15:37.287Z</time></trkpt><trkpt lat="43.1209834" lon="13.0826822"><ele>410.0</ele><time>2026-04-04T12:15:51.294Z</time></trkpt><trkpt lat="43.117341" lon="13.0852831"><ele>413.0</ele><time>2026-04-04T12:16:11.274Z</time></trkpt><trkpt lat="43.1143455" lon="13.0902951"><ele>394.0</ele><time>2026-04-04T12:16:36.268Z</time></trkpt><trkpt lat="43.1139032" lon="13.0950202"><ele>390.0</ele><time>2026-04-04T12:16:53.289Z</time></trkpt><trkpt lat="43.1129626" lon="13.100423"><ele>375.0</ele><time>2026-04-04T12:17:12.277Z</time></trkpt><trkpt lat="43.1116472" lon="13.1058283"><ele>368.0</ele><time>2026-04-04T12:17:29.285Z</time></trkpt><trkpt lat="43.1112516" lon="13.1116229"><ele>361.0</ele><time>2026-04-04T12:17:47.289Z</time></trkpt><trkpt lat="43.1105055" lon="13.1172903"><ele>358.0</ele><time>2026-04-04T12:18:05.278Z</time></trkpt><trkpt lat="43.1101398" lon="13.1228789"><ele>351.0</ele><time>2026-04-04T12:18:25.278Z</time></trkpt><trkpt lat="43.1102712" lon="13.1266481"><ele>371.0</ele><time>2026-04-04T12:18:47.282Z</time></trkpt><trkpt lat="43.1086941" lon="13.1284639"><ele>371.0</ele><time>2026-04-04T12:19:05.266Z</time></trkpt><trkpt lat="43.1059829" lon="13.1288023"><ele>350.0</ele><time>2026-04-04T12:19:36.27Z</time></trkpt><trkpt lat="43.1071284" lon="13.1299772"><ele>354.0</ele><time>2026-04-04T12:19:59.271Z</time></trkpt><trkpt lat="43.1105088" lon="13.1299744"><ele>340.0</ele><time>2026-04-04T12:20:12.274Z</time></trkpt><trkpt lat="43.1152607" lon="13.1300557"><ele>337.0</ele><time>2026-04-04T12:20:28.289Z</time></trkpt><trkpt lat="43.1203747" lon="13.1327058"><ele>333.0</ele><time>2026-04-04T12:20:46.275Z</time></trkpt><trkpt lat="43.1252121" lon="13.1362009"><ele>338.0</ele><time>2026-04-04T12:21:04.266Z</time></trkpt><trkpt lat="43.1299186" lon="13.140387"><ele>320.0</ele><time>2026-04-04T12:21:23.287Z</time></trkpt><trkpt lat="43.1338725" lon="13.1454174"><ele>317.0</ele><time>2026-04-04T12:21:41.28Z</time></trkpt><trkpt lat="43.1351277" lon="13.1529766"><ele>313.0</ele><time>2026-04-04T12:22:00.275Z</time></trkpt><trkpt lat="43.1373762" lon="13.1597398"><ele>308.0</ele><time>2026-04-04T12:22:18.264Z</time></trkpt><trkpt lat="43.1380388" lon="13.1680131"><ele>303.0</ele><time>2026-04-04T12:22:39.265Z</time></trkpt><trkpt lat="43.1381069" lon="13.174747"><ele>303.0</ele><time>2026-04-04T12:22:57.272Z</time></trkpt><trkpt lat="43.140433" lon="13.1804047"><ele>300.0</ele><time>2026-04-04T12:23:14.273Z</time></trkpt><trkpt lat="43.1423467" lon="13.1863827"><ele>308.0</ele><time>2026-04-04T12:23:31.277Z</time></trkpt><trkpt lat="43.144526" lon="13.1924857"><ele>308.0</ele><time>2026-04-04T12:23:49.27Z</time></trkpt><trkpt lat="43.1459991" lon="13.1988665"><ele>297.0</ele><time>2026-04-04T12:24:07.277Z</time></trkpt><trkpt lat="43.147291" lon="13.2054235"><ele>290.0</ele><time>2026-04-04T12:24:25.26Z</time></trkpt><trkpt lat="43.1491465" lon="13.2117371"><ele>277.0</ele><time>2026-04-04T12:24:43.273Z</time></trkpt><trkpt lat="43.1512343" lon="13.2178975"><ele>280.0</ele><time>2026-04-04T12:25:01.284Z</time></trkpt><trkpt lat="43.1506339" lon="13.224324"><ele>270.0</ele><time>2026-04-04T12:25:18.289Z</time></trkpt><trkpt lat="43.1518393" lon="13.2307286"><ele>253.0</ele><time>2026-04-04T12:25:36.281Z</time></trkpt><trkpt lat="43.1549703" lon="13.2356922"><ele>267.0</ele><time>2026-04-04T12:25:53.281Z</time></trkpt><trkpt lat="43.1580858" lon="13.2406057"><ele>251.0</ele><time>2026-04-04T12:26:10.28Z</time></trkpt><trkpt lat="43.161433" lon="13.2455559"><ele>245.0</ele><time>2026-04-04T12:26:28.28Z</time></trkpt><trkpt lat="43.1660838" lon="13.246841"><ele>261.0</ele><time>2026-04-04T12:26:45.298Z</time></trkpt><trkpt lat="43.1708115" lon="13.2476801"><ele>254.0</ele><time>2026-04-04T12:27:02.278Z</time></trkpt><trkpt lat="43.1762647" lon="13.2493044"><ele>255.0</ele><time>2026-04-04T12:27:25.282Z</time></trkpt><trkpt lat="43.17962" lon="13.2504296"><ele>237.0</ele><time>2026-04-04T12:27:43.285Z</time></trkpt><trkpt lat="43.1825465" lon="13.252782"><ele>244.0</ele><time>2026-04-04T12:27:59.279Z</time></trkpt><trkpt lat="43.1858189" lon="13.2564085"><ele>239.0</ele><time>2026-04-04T12:28:18.291Z</time></trkpt><trkpt lat="43.1889886" lon="13.2599224"><ele>222.0</ele><time>2026-04-04T12:28:36.296Z</time></trkpt><trkpt lat="43.1922222" lon="13.2635627"><ele>219.0</ele><time>2026-04-04T12:28:54.284Z</time></trkpt><trkpt lat="43.1960736" lon="13.267751"><ele>208.0</ele><time>2026-04-04T12:29:12.294Z</time></trkpt><trkpt lat="43.1997762" lon="13.2719298"><ele>208.0</ele><time>2026-04-04T12:29:29.291Z</time></trkpt><trkpt lat="43.2026263" lon="13.2771324"><ele>222.0</ele><time>2026-04-04T12:29:46.29Z</time></trkpt><trkpt lat="43.2038174" lon="13.2835065"><ele>217.0</ele><time>2026-04-04T12:30:03.287Z</time></trkpt><trkpt lat="43.204233" lon="13.2900155"><ele>209.0</ele><time>2026-04-04T12:30:20.286Z</time></trkpt><trkpt lat="43.204537" lon="13.2964788"><ele>200.0</ele><time>2026-04-04T12:30:37.284Z</time></trkpt><trkpt lat="43.2073035" lon="13.3018583"><ele>191.0</ele><time>2026-04-04T12:30:54.29Z</time></trkpt><trkpt lat="43.2101232" lon="13.3071687"><ele>185.0</ele><time>2026-04-04T12:31:11.283Z</time></trkpt><trkpt lat="43.2128282" lon="13.3126195"><ele>185.0</ele><time>2026-04-04T12:31:28.284Z</time></trkpt><trkpt lat="43.2142379" lon="13.3188966"><ele>192.0</ele><time>2026-04-04T12:31:45.282Z</time></trkpt><trkpt lat="43.2154636" lon="13.3252343"><ele>176.0</ele><time>2026-04-04T12:32:02.293Z</time></trkpt><trkpt lat="43.2156633" lon="13.3317835"><ele>172.0</ele><time>2026-04-04T12:32:19.288Z</time></trkpt><trkpt lat="43.2190959" lon="13.3365718"><ele>170.0</ele><time>2026-04-04T12:32:37.284Z</time></trkpt><trkpt lat="43.2233553" lon="13.3400768"><ele>174.0</ele><time>2026-04-04T12:32:55.291Z</time></trkpt><trkpt lat="43.2274529" lon="13.3435143"><ele>179.0</ele><time>2026-04-04T12:33:12.296Z</time></trkpt><trkpt lat="43.2303051" lon="13.348686"><ele>177.0</ele><time>2026-04-04T12:33:29.293Z</time></trkpt><trkpt lat="43.2324303" lon="13.3544927"><ele>158.0</ele><time>2026-04-04T12:33:46.289Z</time></trkpt><trkpt lat="43.2331366" lon="13.3610108"><ele>155.0</ele><time>2026-04-04T12:34:03.293Z</time></trkpt><trkpt lat="43.233778" lon="13.3675161"><ele>149.0</ele><time>2026-04-04T12:34:20.301Z</time></trkpt><trkpt lat="43.23443" lon="13.3740233"><ele>150.0</ele><time>2026-04-04T12:34:37.285Z</time></trkpt><trkpt lat="43.2351913" lon="13.3805165"><ele>145.0</ele><time>2026-04-04T12:34:54.289Z</time></trkpt><trkpt lat="43.2359031" lon="13.3869924"><ele>143.0</ele><time>2026-04-04T12:35:11.286Z</time></trkpt><trkpt lat="43.2366188" lon="13.3934924"><ele>144.0</ele><time>2026-04-04T12:35:28.294Z</time></trkpt><trkpt lat="43.2373458" lon="13.4000004"><ele>143.0</ele><time>2026-04-04T12:35:45.295Z</time></trkpt><trkpt lat="43.2384778" lon="13.4063651"><ele>140.0</ele><time>2026-04-04T12:36:02.29Z</time></trkpt><trkpt lat="43.2408545" lon="13.4120688"><ele>136.0</ele><time>2026-04-04T12:36:19.298Z</time></trkpt><trkpt lat="43.2433812" lon="13.4176762"><ele>139.0</ele><time>2026-04-04T12:36:36.291Z</time></trkpt><trkpt lat="43.2453582" lon="13.4236431"><ele>147.0</ele><time>2026-04-04T12:36:53.301Z</time></trkpt><trkpt lat="43.2471487" lon="13.429758"><ele>129.0</ele><time>2026-04-04T12:37:10.289Z</time></trkpt><trkpt lat="43.2493425" lon="13.4356082"><ele>119.0</ele><time>2026-04-04T12:37:27.292Z</time></trkpt><trkpt lat="43.2518009" lon="13.4412519"><ele>115.0</ele><time>2026-04-04T12:37:44.286Z</time></trkpt><trkpt lat="43.2541917" lon="13.4469481"><ele>114.0</ele><time>2026-04-04T12:38:01.288Z</time></trkpt><trkpt lat="43.2559786" lon="13.4530472"><ele>109.0</ele><time>2026-04-04T12:38:18.294Z</time></trkpt><trkpt lat="43.257353" lon="13.4593474"><ele>105.0</ele><time>2026-04-04T12:38:35.285Z</time></trkpt><trkpt lat="43.258738" lon="13.4656303"><ele>104.0</ele><time>2026-04-04T12:38:52.294Z</time></trkpt><trkpt lat="43.2609353" lon="13.4714612"><ele>102.0</ele><time>2026-04-04T12:39:09.29Z</time></trkpt><trkpt lat="43.2629564" lon="13.4774016"><ele>105.0</ele><time>2026-04-04T12:39:26.289Z</time></trkpt><trkpt lat="43.2645934" lon="13.4835834"><ele>101.0</ele><time>2026-04-04T12:39:43.289Z</time></trkpt><trkpt lat="43.2662603" lon="13.4897788"><ele>93.0</ele><time>2026-04-04T12:40:00.29Z</time></trkpt><trkpt lat="43.2678787" lon="13.495944"><ele>88.0</ele><time>2026-04-04T12:40:17.284Z</time></trkpt><trkpt lat="43.2692675" lon="13.5023404"><ele>87.0</ele><time>2026-04-04T12:40:35.284Z</time></trkpt><trkpt lat="43.2691658" lon="13.5082283"><ele>86.0</ele><time>2026-04-04T12:40:51.301Z</time></trkpt><trkpt lat="43.2686744" lon="13.5148539"><ele>78.0</ele><time>2026-04-04T12:41:09.293Z</time></trkpt><trkpt lat="43.267986" lon="13.5213466"><ele>74.0</ele><time>2026-04-04T12:41:26.286Z</time></trkpt><trkpt lat="43.2657578" lon="13.527156"><ele>77.0</ele><time>2026-04-04T12:41:43.291Z</time></trkpt><trkpt lat="43.264329" lon="13.5333529"><ele>74.0</ele><time>2026-04-04T12:42:44.3Z</time></trkpt><trkpt lat="43.2646292" lon="13.5371417"><ele>68.0</ele><time>2026-04-04T12:42:54.288Z</time></trkpt><trkpt lat="43.2655913" lon="13.5447194"><ele>65.0</ele><time>2026-04-04T12:43:13.294Z</time></trkpt><trkpt lat="43.2641611" lon="13.5521947"><ele>61.0</ele><time>2026-04-04T12:43:34.296Z</time></trkpt><trkpt lat="43.2630101" lon="13.5586274"><ele>60.0</ele><time>2026-04-04T12:43:52.292Z</time></trkpt><trkpt lat="43.2624933" lon="13.5650911"><ele>57.0</ele><time>2026-04-04T12:44:09.293Z</time></trkpt><trkpt lat="43.2628094" lon="13.5716631"><ele>58.0</ele><time>2026-04-04T12:44:26.286Z</time></trkpt><trkpt lat="43.2634225" lon="13.5783212"><ele>55.0</ele><time>2026-04-04T12:44:44.296Z</time></trkpt><trkpt lat="43.2643626" lon="13.58476"><ele>53.0</ele><time>2026-04-04T12:45:01.282Z</time></trkpt><trkpt lat="43.2658756" lon="13.5909006"><ele>50.0</ele><time>2026-04-04T12:45:18.284Z</time></trkpt><trkpt lat="43.2677277" lon="13.5968504"><ele>48.0</ele><time>2026-04-04T12:45:38.29Z</time></trkpt><trkpt lat="43.2705199" lon="13.6022166"><ele>44.0</ele><time>2026-04-04T12:45:55.288Z</time></trkpt><trkpt lat="43.2728997" lon="13.6078983"><ele>38.0</ele><time>2026-04-04T12:46:12.29Z</time></trkpt><trkpt lat="43.2730768" lon="13.6144052"><ele>37.0</ele><time>2026-04-04T12:46:29.295Z</time></trkpt><trkpt lat="43.2730343" lon="13.6209785"><ele>35.0</ele><time>2026-04-04T12:46:46.281Z</time></trkpt><trkpt lat="43.2739051" lon="13.6274076"><ele>37.0</ele><time>2026-04-04T12:47:05.304Z</time></trkpt><trkpt lat="43.2746539" lon="13.6331107"><ele>34.0</ele><time>2026-04-04T12:47:23.296Z</time></trkpt><trkpt lat="43.2755682" lon="13.6397973"><ele>30.0</ele><time>2026-04-04T12:47:43.293Z</time></trkpt><trkpt lat="43.27646" lon="13.646383"><ele>28.0</ele><time>2026-04-04T12:48:04.288Z</time></trkpt><trkpt lat="43.2772112" lon="13.651876"><ele>33.0</ele><time>2026-04-04T12:48:24.296Z</time></trkpt><trkpt lat="43.2806241" lon="13.6534"><ele>38.0</ele><time>2026-04-04T12:49:20.283Z</time></trkpt><trkpt lat="43.2844527" lon="13.6513332"><ele>40.0</ele><time>2026-04-04T12:49:40.296Z</time></trkpt><trkpt lat="43.2867583" lon="13.6479193"><ele>43.0</ele><time>2026-04-04T12:51:37.278Z</time></trkpt><trkpt lat="43.2890948" lon="13.64585"><ele>52.0</ele><time>2026-04-04T12:52:05.284Z</time></trkpt><trkpt lat="43.2916385" lon="13.6442331"><ele>53.0</ele><time>2026-04-04T12:52:25.286Z</time></trkpt><trkpt lat="43.2941693" lon="13.6426476"><ele>71.0</ele><time>2026-04-04T12:52:40.282Z</time></trkpt><trkpt lat="43.2984355" lon="13.6394036"><ele>94.0</ele><time>2026-04-04T12:53:05.28Z</time></trkpt><trkpt lat="43.3032713" lon="13.6395177"><ele>121.0</ele><time>2026-04-04T12:53:26.278Z</time></trkpt><trkpt lat="43.3080374" lon="13.63959"><ele>141.0</ele><time>2026-04-04T12:53:46.277Z</time></trkpt><trkpt lat="43.3121016" lon="13.6402107"><ele>142.0</ele><time>2026-04-04T12:54:25.288Z</time></trkpt><trkpt lat="43.3125333" lon="13.6420673"><ele>142.0</ele><time>2026-04-04T12:54:44.283Z</time></trkpt></trkseg></trk></gpx>